0% found this document useful (0 votes)
5 views802 pages

Basel Temperature and Humidity Data

Uploaded by

Balram Patidar
Copyright
© All Rights Reserved
We take content rights seriously. If you suspect this is your content, claim it here.
Available Formats
Download as XLSX, PDF, TXT or read online on Scribd
0% found this document useful (0 votes)
5 views802 pages

Basel Temperature and Humidity Data

Uploaded by

Balram Patidar
Copyright
© All Rights Reserved
We take content rights seriously. If you suspect this is your content, claim it here.
Available Formats
Download as XLSX, PDF, TXT or read online on Scribd

location Basel Basel

lat 47.75 47.75


lon 7.5 7.5
asl 363.6531 363.6531
variable TemperatuRelative Humidity
unit °C %
level 2 m elevat2 m
resolution hourly hourly
aggregation None None
timestamp Basel Temp Basel Relative Humidity [2 m]
2021-01-13T00:00:00 2.820245 94.8818
2021-01-13T01:00:00 2.290246 95.53752
2021-01-13T02:00:00 1.360246 95.97367
2021-01-13T03:00:00 1.270245 95.96901
2021-01-13T04:00:00 1.410245 95.0052
2021-01-13T05:00:00 1.680245 94.47125
2021-01-13T06:00:00 1.760245 91.70406
2021-01-13T07:00:00 1.670245 89.64707
2021-01-13T08:00:00 1.460245 89.62618
2021-01-13T09:00:00 1.900245 89.21347
2021-01-13T10:00:00 3.060246 82.59952
2021-01-13T11:00:00 3.650245 79.96797
2021-01-13T12:00:00 4.200245 77.31527
2021-01-13T13:00:00 4.880245 75.00571
2021-01-13T14:00:00 5.140245 75.27289
2021-01-13T15:00:00 4.930245 82.51212
2021-01-13T16:00:00 4.780245 87.2922
2021-01-13T17:00:00 4.750245 90.5833
2021-01-13T18:00:00 4.660245 93.71549
2021-01-13T19:00:00 4.840245 94.65942
2021-01-13T20:00:00 5.400245 95.15794
2021-01-13T21:00:00 6.190245 94.1395
2021-01-13T22:00:00 6.420245 93.43233
2021-01-13T23:00:00 6.740245 93.32232
2021-01-14T00:00:00 6.920245 93.00948
2021-01-14T01:00:00 7.100246 92.634
2021-01-14T02:00:00 7.090245 92.6333
2021-01-14T03:00:00 7.300245 93.16351
2021-01-14T04:00:00 7.010245 93.72959
2021-01-14T05:00:00 6.680245 93.84035
2021-01-14T06:00:00 5.840245 95.44748
2021-01-14T07:00:00 4.560246 96.53724
2021-01-14T08:00:00 3.630245 96.49724
2021-01-14T09:00:00 2.940246 96.88191
2021-01-14T10:00:00 3.250246 97.10257
2021-01-14T11:00:00 3.100246 96.95787
2021-01-14T12:00:00 2.800245 97.22377
2021-01-14T13:00:00 2.080246 96.70555
2021-01-14T14:00:00 1.710245 96.61897
2021-01-14T15:00:00 1.260245 97.86829
2021-01-14T16:00:00 1.000245 98.42914
2021-01-14T17:00:00 0.820245 98.78179
2021-01-14T18:00:00 0.680245 98.27536
2021-01-14T19:00:00 0.560245 97.6995
2021-01-14T20:00:00 0.480245 97.76772
2021-01-14T21:00:00 0.480245 97.41142
2021-01-14T22:00:00 0.870245 96.22837
2021-01-14T23:00:00 0.870245 96.5797
2021-01-15T00:00:00 0.930245 95.74168
2021-01-15T01:00:00 0.830245 96.08611
2021-01-15T02:00:00 0.740245 95.80129
2021-01-15T03:00:00 0.630245 95.86537
2021-01-15T04:00:00 0.670245 95.86751
2021-01-15T05:00:00 0.570245 96.28349
2021-01-15T06:00:00 0.490245 96.42037
2021-01-15T07:00:00 0.190245 96.2642
2021-01-15T08:00:00 -0.03975 95.6179
2021-01-15T09:00:00 -0.17975 94.69901
2021-01-15T10:00:00 -0.19975 92.76146
2021-01-15T11:00:00 -0.27975 88.1952
2021-01-15T12:00:00 -0.21975 85.67837
2021-01-15T13:00:00 -0.39975 86.03927
2021-01-15T14:00:00 -0.40975 86.2952
2021-01-15T15:00:00 -0.79975 88.92893
2021-01-15T16:00:00 -2.31975 93.00715
2021-01-15T17:00:00 -3.05975 94.93418
2021-01-15T18:00:00 -4.57976 96.51031
2021-01-15T19:00:00 -4.56975 95.55765
2021-01-15T20:00:00 -4.44975 96.15049
2021-01-15T21:00:00 -6.16975 97.692
2021-01-15T22:00:00 -7.39975 95.81352
2021-01-15T23:00:00 -7.58976 94.08711
2021-01-16T00:00:00 -9.07976 95.08955
2021-01-16T01:00:00 -9.60976 95.42854
2021-01-16T02:00:00 -10.7198 95.34344
2021-01-16T03:00:00 -10.6998 95.57574
2021-01-16T04:00:00 -12.2298 98.21962
2021-01-16T05:00:00 -12.4598 96.61559
2021-01-16T06:00:00 -12.9398 95.47695
2021-01-16T07:00:00 -11.8798 92.19296
2021-01-16T08:00:00 -10.8698 93.34982
2021-01-16T09:00:00 -8.94976 94.49728
2021-01-16T10:00:00 -7.56975 93.35242
2021-01-16T11:00:00 -6.28976 94.41138
2021-01-16T12:00:00 -5.22976 93.40699
2021-01-16T13:00:00 -4.00975 87.41808
2021-01-16T14:00:00 -3.75975 87.71785
2021-01-16T15:00:00 -3.34975 86.8345
2021-01-16T16:00:00 -3.55975 88.61859
2021-01-16T17:00:00 -4.24976 92.98855
2021-01-16T18:00:00 -3.96975 93.8665
2021-01-16T19:00:00 -3.50975 93.26259
2021-01-16T20:00:00 -2.96975 92.53327
2021-01-16T21:00:00 -2.44975 93.62842
2021-01-16T22:00:00 -2.20975 95.27556
2021-01-16T23:00:00 -1.85975 96.22665
2021-01-17T00:00:00 -1.45975 96.32001
2021-01-17T01:00:00 -0.83975 94.6562
2021-01-17T02:00:00 -0.09975 93.24974
2021-01-17T03:00:00 0.590245 92.61912
2021-01-17T04:00:00 0.990245 92.44736
2021-01-17T05:00:00 1.170245 91.58721
2021-01-17T06:00:00 1.300245 91.73224
2021-01-17T07:00:00 1.510245 92.08493
2021-01-17T08:00:00 1.560245 92.96481
2021-01-17T09:00:00 1.720245 93.3829
2021-01-17T10:00:00 2.030245 93.13452
2021-01-17T11:00:00 2.000246 94.69659
2021-01-17T12:00:00 1.960245 95.31276
2021-01-17T13:00:00 1.930245 94.89819
2021-01-17T14:00:00 1.920245 94.69175
2021-01-17T15:00:00 2.120246 93.34359
2021-01-17T16:00:00 2.340245 92.68659
2021-01-17T17:00:00 2.340245 92.68659
2021-01-17T18:00:00 2.570245 91.37402
2021-01-17T19:00:00 2.600246 90.71812
2021-01-17T20:00:00 2.500246 90.84059
2021-01-17T21:00:00 2.480245 91.03632
2021-01-17T22:00:00 2.140245 93.07507
2021-01-17T23:00:00 1.940245 93.53402
2021-01-18T00:00:00 1.690245 93.31294
2021-01-18T01:00:00 1.860245 92.51566
2021-01-18T02:00:00 2.030245 92.5288
2021-01-18T03:00:00 1.690245 92.50245
2021-01-18T04:00:00 1.330245 92.54175
2021-01-18T05:00:00 1.680245 91.83097
2021-01-18T06:00:00 2.200245 91.2762
2021-01-18T07:00:00 2.120246 91.46823
2021-01-18T08:00:00 1.930245 91.85164
2021-01-18T09:00:00 2.180245 92.27258
2021-01-18T10:00:00 2.500246 91.10399
2021-01-18T11:00:00 2.990245 88.67994
2021-01-18T12:00:00 3.140245 87.16998
2021-01-18T13:00:00 3.140245 87.10692
2021-01-18T14:00:00 2.780245 88.46557
2021-01-18T15:00:00 3.370246 82.16544
2021-01-18T16:00:00 2.980246 84.4733
2021-01-18T17:00:00 2.470245 86.9027
2021-01-18T18:00:00 2.020246 87.29471
2021-01-18T19:00:00 0.350245 91.38145
2021-01-18T20:00:00 -0.88975 91.67814
2021-01-18T21:00:00 -0.73975 91.14778
2021-01-18T22:00:00 -1.78975 90.70857
2021-01-18T23:00:00 -1.81975 89.0173
2021-01-19T00:00:00 -2.54975 89.27352
2021-01-19T01:00:00 -3.43975 88.83564
2021-01-19T02:00:00 -3.62975 89.15378
2021-01-19T03:00:00 -3.80975 88.38622
2021-01-19T04:00:00 -3.76976 88.25572
2021-01-19T05:00:00 -3.66975 87.52766
2021-01-19T06:00:00 -3.21975 88.25357
2021-01-19T07:00:00 -2.95975 87.88225
2021-01-19T08:00:00 -2.70975 87.18089
2021-01-19T09:00:00 -1.30975 86.11498
2021-01-19T10:00:00 0.700245 81.09242
2021-01-19T11:00:00 1.480245 79.49106
2021-01-19T12:00:00 2.300245 77.19983
2021-01-19T13:00:00 3.050245 71.36086
2021-01-19T14:00:00 3.470245 68.8043
2021-01-19T15:00:00 4.010245 68.47012
2021-01-19T16:00:00 4.020246 70.05649
2021-01-19T17:00:00 3.570245 73.28501
2021-01-19T18:00:00 2.880245 77.98974
2021-01-19T19:00:00 2.420245 80.8877
2021-01-19T20:00:00 1.880245 81.88078
2021-01-19T21:00:00 1.430245 82.72335
2021-01-19T22:00:00 1.420245 82.5388
2021-01-19T23:00:00 0.660245 83.10082
2021-01-20T00:00:00 0.000245 84.25124
2021-01-20T01:00:00 -0.27975 84.84329
2021-01-20T02:00:00 -0.70975 83.14607
2021-01-20T03:00:00 -0.66975 80.74815
2021-01-20T04:00:00 -0.81975 81.02834
2021-01-20T05:00:00 -0.28975 79.78482
2021-01-20T06:00:00 0.220245 79.93134
2021-01-20T07:00:00 0.540245 79.50868
2021-01-20T08:00:00 1.300245 79.69688
2021-01-20T09:00:00 2.180245 79.19907
2021-01-20T10:00:00 2.440245 80.18102
2021-01-20T11:00:00 3.250246 78.85855
2021-01-20T12:00:00 4.030245 77.39765
2021-01-20T13:00:00 4.970245 73.78037
2021-01-20T14:00:00 5.120246 73.06325
2021-01-20T15:00:00 5.230245 74.42267
2021-01-20T16:00:00 3.850246 82.35561
2021-01-20T17:00:00 2.800245 87.32076
2021-01-20T18:00:00 1.900245 89.14845
2021-01-20T19:00:00 1.070245 90.57802
2021-01-20T20:00:00 0.620245 90.40263
2021-01-20T21:00:00 0.730245 90.0151
2021-01-20T22:00:00 2.220245 85.99005
2021-01-20T23:00:00 2.050245 86.66292
2021-01-21T00:00:00 1.510245 85.52308
2021-01-21T01:00:00 2.140245 84.2366
2021-01-21T02:00:00 3.470245 82.12058
2021-01-21T03:00:00 3.710246 81.14883
2021-01-21T04:00:00 3.700245 82.27393
2021-01-21T05:00:00 4.270246 81.29368
2021-01-21T06:00:00 4.890245 79.93635
2021-01-21T07:00:00 6.730245 73.12087
2021-01-21T08:00:00 7.720245 70.59689
2021-01-21T09:00:00 8.750245 68.29389
2021-01-21T10:00:00 8.780245 68.05798
2021-01-21T11:00:00 9.450245 68.25405
2021-01-21T12:00:00 10.05025 69.54926
2021-01-21T13:00:00 9.600245 71.99182
2021-01-21T14:00:00 9.530245 71.3732
2021-01-21T15:00:00 10.63025 68.99239
2021-01-21T16:00:00 9.740245 74.22112
2021-01-21T17:00:00 9.490245 74.69554
2021-01-21T18:00:00 8.940246 75.80862
2021-01-21T19:00:00 8.170245 76.90818
2021-01-21T20:00:00 8.100245 76.89603
2021-01-21T21:00:00 8.080246 79.42348
2021-01-21T22:00:00 8.550245 79.99963
2021-01-21T23:00:00 8.240246 81.19373
2021-01-22T00:00:00 8.890245 76.06615
2021-01-22T01:00:00 9.880245 73.57601
2021-01-22T02:00:00 10.15025 72.40398
2021-01-22T03:00:00 10.19025 72.91917
2021-01-22T04:00:00 10.26025 74.11107
2021-01-22T05:00:00 10.31025 75.52467
2021-01-22T06:00:00 10.51025 75.14218
2021-01-22T07:00:00 10.73025 72.11475
2021-01-22T08:00:00 10.07025 73.97239
2021-01-22T09:00:00 10.50025 72.01923
2021-01-22T10:00:00 10.76025 71.62047
2021-01-22T11:00:00 11.32025 70.59618
2021-01-22T12:00:00 11.09025 72.73812
2021-01-22T13:00:00 10.12025 79.02678
2021-01-22T14:00:00 9.220245 83.62273
2021-01-22T15:00:00 8.580245 87.39357
2021-01-22T16:00:00 7.840245 91.85429
2021-01-22T17:00:00 7.080246 94.78072
2021-01-22T18:00:00 6.570245 96.81992
2021-01-22T19:00:00 6.910245 91.14745
2021-01-22T20:00:00 5.770245 95.04358
2021-01-22T21:00:00 4.960245 94.39917
2021-01-22T22:00:00 2.610245 93.85034
2021-01-22T23:00:00 2.390245 92.62338
2021-01-23T00:00:00 2.190245 94.02613
2021-01-23T01:00:00 2.150245 96.43019
2021-01-23T02:00:00 2.360245 95.40365
2021-01-23T03:00:00 2.500246 94.11416
2021-01-23T04:00:00 2.570245 92.36982
2021-01-23T05:00:00 2.510245 92.16517
2021-01-23T06:00:00 2.590245 91.77283
2021-01-23T07:00:00 2.540246 91.9015
2021-01-23T08:00:00 2.630245 91.31308
2021-01-23T09:00:00 3.100246 89.91612
2021-01-23T10:00:00 4.220245 84.15093
2021-01-23T11:00:00 5.170245 76.04491
2021-01-23T12:00:00 5.590245 74.11624
2021-01-23T13:00:00 5.910245 71.54701
2021-01-23T14:00:00 5.960245 71.24735
2021-01-23T15:00:00 5.240245 77.77859
2021-01-23T16:00:00 4.060246 87.90301
2021-01-23T17:00:00 3.380245 91.17971
2021-01-23T18:00:00 3.510245 91.7814
2021-01-23T19:00:00 3.500246 92.70619
2021-01-23T20:00:00 2.930245 94.48027
2021-01-23T21:00:00 2.850246 94.4754
2021-01-23T22:00:00 3.680245 91.59802
2021-01-23T23:00:00 3.550245 89.76484
2021-01-24T00:00:00 3.340245 88.20583
2021-01-24T01:00:00 3.230246 85.74104
2021-01-24T02:00:00 2.740245 82.49232
2021-01-24T03:00:00 2.100246 80.30273
2021-01-24T04:00:00 1.490245 80.38116
2021-01-24T05:00:00 1.120246 78.31451
2021-01-24T06:00:00 0.810245 78.14255
2021-01-24T07:00:00 0.550245 76.70371
2021-01-24T08:00:00 0.400245 77.36935
2021-01-24T09:00:00 1.290245 71.72926
2021-01-24T10:00:00 2.190245 63.73351
2021-01-24T11:00:00 2.970245 59.51207
2021-01-24T12:00:00 3.580246 57.51054
2021-01-24T13:00:00 3.970245 56.97057
2021-01-24T14:00:00 4.100246 56.53585
2021-01-24T15:00:00 3.780245 57.17612
2021-01-24T16:00:00 3.060246 58.77519
2021-01-24T17:00:00 0.330245 77.00861
2021-01-24T18:00:00 0.160245 79.62234
2021-01-24T19:00:00 0.580245 77.98443
2021-01-24T20:00:00 0.730245 78.01148
2021-01-24T21:00:00 0.970245 77.532
2021-01-24T22:00:00 0.650245 82.97598
2021-01-24T23:00:00 0.470245 88.47522
2021-01-25T00:00:00 0.950245 90.16891
2021-01-25T01:00:00 0.870245 95.52913
2021-01-25T02:00:00 0.960245 98.35633
2021-01-25T03:00:00 1.100246 98.79012
2021-01-25T04:00:00 1.710245 95.78326
2021-01-25T05:00:00 1.840245 95.30603
2021-01-25T06:00:00 1.830245 92.71516
2021-01-25T07:00:00 1.780245 90.31408
2021-01-25T08:00:00 1.750246 89.85144
2021-01-25T09:00:00 2.010245 87.74081
2021-01-25T10:00:00 2.470245 82.63372
2021-01-25T11:00:00 2.840245 80.48143
2021-01-25T12:00:00 3.110245 80.28967
2021-01-25T13:00:00 3.210246 81.9027
2021-01-25T14:00:00 3.260245 81.0199
2021-01-25T15:00:00 2.770246 84.75326
2021-01-25T16:00:00 2.250246 84.93229
2021-01-25T17:00:00 2.000246 87.35617
2021-01-25T18:00:00 1.970245 87.80039
2021-01-25T19:00:00 2.060246 86.60082
2021-01-25T20:00:00 2.060246 84.47292
2021-01-25T21:00:00 1.770245 85.61929
2021-01-25T22:00:00 2.070245 86.53877
2021-01-25T23:00:00 1.700245 87.25758
2021-01-26T00:00:00 1.320245 87.14909
2021-01-26T01:00:00 1.270245 87.01519
2021-01-26T02:00:00 1.160245 86.11001
2021-01-26T03:00:00 1.060245 84.08732
2021-01-26T04:00:00 0.860245 82.08818
2021-01-26T05:00:00 0.780245 81.40748
2021-01-26T06:00:00 0.800245 81.4712
2021-01-26T07:00:00 0.690245 82.42889
2021-01-26T08:00:00 1.230245 81.3577
2021-01-26T09:00:00 1.580245 78.74553
2021-01-26T10:00:00 1.960245 75.38354
2021-01-26T11:00:00 2.750246 72.68539
2021-01-26T12:00:00 3.220245 69.77597
2021-01-26T13:00:00 3.780245 64.23056
2021-01-26T14:00:00 3.840245 62.21569
2021-01-26T15:00:00 3.880245 61.34752
2021-01-26T16:00:00 2.980246 66.5733
2021-01-26T17:00:00 1.690245 74.82769
2021-01-26T18:00:00 1.880245 75.48018
2021-01-26T19:00:00 1.390245 78.53721
2021-01-26T20:00:00 0.830245 81.11325
2021-01-26T21:00:00 -0.06975 82.49776
2021-01-26T22:00:00 0.500245 81.06029
2021-01-26T23:00:00 -0.36975 83.25903
2021-01-27T00:00:00 -0.80975 84.01023
2021-01-27T01:00:00 -1.39975 85.26454
2021-01-27T02:00:00 -1.78975 87.16317
2021-01-27T03:00:00 -1.31975 85.79041
2021-01-27T04:00:00 -0.74975 82.64161
2021-01-27T05:00:00 -0.39975 80.00654
2021-01-27T06:00:00 0.030245 78.11934
2021-01-27T07:00:00 -0.01975 78.1103
2021-01-27T08:00:00 -0.09975 82.06223
2021-01-27T09:00:00 -0.08975 88.02042
2021-01-27T10:00:00 0.530245 86.6696
2021-01-27T11:00:00 1.170245 83.11401
2021-01-27T12:00:00 1.530245 82.73817
2021-01-27T13:00:00 1.790245 84.49833
2021-01-27T14:00:00 2.230245 84.31059
2021-01-27T15:00:00 2.480245 85.21085
2021-01-27T16:00:00 2.380245 86.95541
2021-01-27T17:00:00 2.320245 89.19127
2021-01-27T18:00:00 2.260245 91.48011
2021-01-27T19:00:00 2.360245 92.82224
2021-01-27T20:00:00 2.470245 94.11222
2021-01-27T21:00:00 2.630245 94.93906
2021-01-27T22:00:00 2.900245 94.61427
2021-01-27T23:00:00 3.070245 95.57867
2021-01-28T00:00:00 3.280245 96.27522
2021-01-28T01:00:00 3.530245 96.2867
2021-01-28T02:00:00 3.710246 96.63821
2021-01-28T03:00:00 3.920245 96.57848
2021-01-28T04:00:00 4.270246 96.45659
2021-01-28T05:00:00 4.570245 96.12912
2021-01-28T06:00:00 5.090245 95.14184
2021-01-28T07:00:00 5.820245 94.38223
2021-01-28T08:00:00 6.750245 95.55743
2021-01-28T09:00:00 7.320245 97.65264
2021-01-28T10:00:00 8.060246 95.55103
2021-01-28T11:00:00 8.790245 94.54288
2021-01-28T12:00:00 9.790245 93.38015
2021-01-28T13:00:00 10.42025 93.10125
2021-01-28T14:00:00 11.11025 92.70425
2021-01-28T15:00:00 11.56025 91.74125
2021-01-28T16:00:00 11.58025 90.82252
2021-01-28T17:00:00 11.48025 90.81501
2021-01-28T18:00:00 11.76025 88.9027
2021-01-28T19:00:00 11.89025 89.87534
2021-01-28T20:00:00 11.74025 91.3849
2021-01-28T21:00:00 11.44025 93.03629
2021-01-28T22:00:00 10.88025 95.02883
2021-01-28T23:00:00 11.02025 94.97122
2021-01-29T00:00:00 11.14025 95.04034
2021-01-29T01:00:00 10.88025 93.632
2021-01-29T02:00:00 10.75025 93.18374
2021-01-29T03:00:00 10.52025 92.54217
2021-01-29T04:00:00 10.69025 91.80524
2021-01-29T05:00:00 10.94025 92.19495
2021-01-29T06:00:00 11.18025 90.91495
2021-01-29T07:00:00 10.90025 85.62627
2021-01-29T08:00:00 10.50025 81.57406
2021-01-29T09:00:00 10.45025 80.23135
2021-01-29T10:00:00 10.78025 75.76502
2021-01-29T11:00:00 10.64025 74.4911
2021-01-29T12:00:00 10.40025 73.87972
2021-01-29T13:00:00 10.40025 73.16324
2021-01-29T14:00:00 10.55025 73.03931
2021-01-29T15:00:00 10.23025 74.46748
2021-01-29T16:00:00 9.120245 77.3415
2021-01-29T17:00:00 8.690246 81.25937
2021-01-29T18:00:00 8.030246 83.35104
2021-01-29T19:00:00 7.870246 85.33366
2021-01-29T20:00:00 8.150246 85.01102
2021-01-29T21:00:00 8.440246 84.98698
2021-01-29T22:00:00 8.220245 84.31177
2021-01-29T23:00:00 8.310246 82.69283
2021-01-30T00:00:00 8.160246 82.49914
2021-01-30T01:00:00 7.840245 83.44254
2021-01-30T02:00:00 7.700245 82.55113
2021-01-30T03:00:00 7.540245 83.6958
2021-01-30T04:00:00 7.400245 84.20773
2021-01-30T05:00:00 7.280245 84.72606
2021-01-30T06:00:00 7.030245 86.43791
2021-01-30T07:00:00 6.510245 88.90632
2021-01-30T08:00:00 6.890245 86.84791
2021-01-30T09:00:00 7.460245 86.1845
2021-01-30T10:00:00 7.790245 86.10188
2021-01-30T11:00:00 7.550245 88.94359
2021-01-30T12:00:00 7.450245 91.38039
2021-01-30T13:00:00 7.570245 91.83453
2021-01-30T14:00:00 8.020246 91.04539
2021-01-30T15:00:00 8.370246 91.26141
2021-01-30T16:00:00 8.340245 91.82719
2021-01-30T17:00:00 8.130245 92.06582
2021-01-30T18:00:00 8.030246 92.44098
2021-01-30T19:00:00 7.960245 92.94831
2021-01-30T20:00:00 7.870246 93.19965
2021-01-30T21:00:00 7.790245 93.45257
2021-01-30T22:00:00 7.790245 93.71115
2021-01-30T23:00:00 7.140245 95.11295
2021-01-31T00:00:00 6.710245 95.82159
2021-01-31T01:00:00 6.550245 96.14833
2021-01-31T02:00:00 6.110245 96.533
2021-01-31T03:00:00 6.200245 95.86553
2021-01-31T04:00:00 6.150245 95.93024
2021-01-31T05:00:00 6.090245 95.99458
2021-01-31T06:00:00 6.020245 96.39466
2021-01-31T07:00:00 6.090245 96.46484
2021-01-31T08:00:00 6.090245 96.80199
2021-01-31T09:00:00 6.350246 96.34099
2021-01-31T10:00:00 6.810246 94.8325
2021-01-31T11:00:00 7.160245 92.76695
2021-01-31T12:00:00 7.490245 91.38347
2021-01-31T13:00:00 7.890245 88.29832
2021-01-31T14:00:00 8.060246 87.52141
2021-01-31T15:00:00 7.950245 89.84955
2021-01-31T16:00:00 7.820245 88.59885
2021-01-31T17:00:00 6.180245 94.27068
2021-01-31T18:00:00 5.860245 96.86092
2021-01-31T19:00:00 6.220245 96.60467
2021-01-31T20:00:00 6.540245 95.08301
2021-01-31T21:00:00 6.470245 94.22144
2021-01-31T22:00:00 6.480245 93.82835
2021-01-31T23:00:00 6.000245 96.79858
2021-02-01T00:00:00 5.990245 97.61225
2021-02-01T01:00:00 6.030245 97.20586
2021-02-01T02:00:00 6.200245 95.19862
2021-02-01T03:00:00 6.820245 92.744
2021-02-01T04:00:00 7.080246 91.92619
2021-02-01T05:00:00 7.100246 91.672
2021-02-01T06:00:00 7.330246 90.92735
2021-02-01T07:00:00 7.610245 91.51958
2021-02-01T08:00:00 7.790245 93.00156
2021-02-01T09:00:00 8.110246 93.66541
2021-02-01T10:00:00 8.420245 94.52378
2021-02-01T11:00:00 8.690246 94.53775
2021-02-01T12:00:00 8.860246 95.26017
2021-02-01T13:00:00 9.370245 92.65713
2021-02-01T14:00:00 9.800245 90.2538
2021-02-01T15:00:00 10.05025 90.39722
2021-02-01T16:00:00 9.830245 92.24623
2021-02-01T17:00:00 9.470245 91.90768
2021-02-01T18:00:00 9.380245 90.71485
2021-02-01T19:00:00 9.410245 89.85177
2021-02-01T20:00:00 9.270246 89.59363
2021-02-01T21:00:00 9.030245 90.62483
2021-02-01T22:00:00 8.730246 91.54019
2021-02-01T23:00:00 8.520246 90.95902
2021-02-02T00:00:00 8.290245 90.56493
2021-02-02T01:00:00 8.290245 89.3215
2021-02-02T02:00:00 8.200246 89.56094
2021-02-02T03:00:00 8.390245 89.82576
2021-02-02T04:00:00 8.590245 90.09126
2021-02-02T05:00:00 8.600245 90.77756
2021-02-02T06:00:00 8.820246 89.98674
2021-02-02T07:00:00 9.200245 88.18279
2021-02-02T08:00:00 9.480246 87.48625
2021-02-02T09:00:00 9.910245 86.22053
2021-02-02T10:00:00 10.04025 85.46993
2021-02-02T11:00:00 10.76025 87.19889
2021-02-02T12:00:00 11.34025 87.67199
2021-02-02T13:00:00 11.89025 86.96027
2021-02-02T14:00:00 12.34025 86.01724
2021-02-02T15:00:00 12.22025 85.77293
2021-02-02T16:00:00 11.94025 89.15794
2021-02-02T17:00:00 11.95025 89.39871
2021-02-02T18:00:00 11.78025 89.32419
2021-02-02T19:00:00 11.99025 88.50564
2021-02-02T20:00:00 12.14025 88.16325
2021-02-02T21:00:00 12.16025 88.63998
2021-02-02T22:00:00 12.30025 88.0008
2021-02-02T23:00:00 12.25025 89.30425
2021-02-03T00:00:00 12.28025 89.42653
2021-02-03T01:00:00 11.75025 89.86395
2021-02-03T02:00:00 11.96025 88.92035
2021-02-03T03:00:00 11.56025 90.09069
2021-02-03T04:00:00 11.30025 90.67914
2021-02-03T05:00:00 11.16025 92.45807
2021-02-03T06:00:00 10.88025 94.7735
2021-02-03T07:00:00 10.93025 94.71211
2021-02-03T08:00:00 11.08025 93.70599
2021-02-03T09:00:00 11.48025 90.87614
2021-02-03T10:00:00 11.41025 91.79269
2021-02-03T11:00:00 12.08025 87.86184
2021-02-03T12:00:00 12.30025 86.24474
2021-02-03T13:00:00 12.05025 84.54712
2021-02-03T14:00:00 10.89025 81.7964
2021-02-03T15:00:00 10.47025 80.95532
2021-02-03T16:00:00 11.07025 76.49849
2021-02-03T17:00:00 11.28025 73.58447
2021-02-03T18:00:00 11.36025 70.45744
2021-02-03T19:00:00 11.52025 66.7673
2021-02-03T20:00:00 11.59025 66.08744
2021-02-03T21:00:00 11.55025 65.80193
2021-02-03T22:00:00 10.38025 73.87598
2021-02-03T23:00:00 9.800245 77.67149
2021-02-04T00:00:00 9.140245 80.92978
2021-02-04T01:00:00 8.840245 81.39441
2021-02-04T02:00:00 8.310246 83.62096
2021-02-04T03:00:00 7.160245 87.67197
2021-02-04T04:00:00 7.380245 87.45017
2021-02-04T05:00:00 5.680245 92.86108
2021-02-04T06:00:00 4.840245 94.72633
2021-02-04T07:00:00 4.370246 95.30623
2021-02-04T08:00:00 4.960245 93.73456
2021-02-04T09:00:00 6.350246 91.67904
2021-02-04T10:00:00 8.190246 84.83841
2021-02-04T11:00:00 9.390245 78.52789
2021-02-04T12:00:00 10.14025 75.12771
2021-02-04T13:00:00 10.67025 73.62284
2021-02-04T14:00:00 10.52025 74.57254
2021-02-04T15:00:00 10.44025 77.08097
2021-02-04T16:00:00 9.640245 82.70064
2021-02-04T17:00:00 9.000245 84.58469
2021-02-04T18:00:00 8.680245 86.38191
2021-02-04T19:00:00 8.290245 88.15421
2021-02-04T20:00:00 8.110246 89.18145
2021-02-04T21:00:00 7.790245 91.53318
2021-02-04T22:00:00 7.290245 94.46385
2021-02-04T23:00:00 6.740245 94.43381
2021-02-05T00:00:00 6.540245 94.75237
2021-02-05T01:00:00 6.190245 95.06522
2021-02-05T02:00:00 6.480245 94.02499
2021-02-05T03:00:00 6.260245 94.47309
2021-02-05T04:00:00 6.140245 95.92978
2021-02-05T05:00:00 6.710245 94.56371
2021-02-05T06:00:00 6.820245 95.62706
2021-02-05T07:00:00 6.840245 95.42896
2021-02-05T08:00:00 6.750245 94.76347
2021-02-05T09:00:00 7.350246 92.97302
2021-02-05T10:00:00 8.780245 87.89861
2021-02-05T11:00:00 10.34025 81.6077
2021-02-05T12:00:00 11.23025 78.82027
2021-02-05T13:00:00 11.67025 78.5123
2021-02-05T14:00:00 11.78025 79.22976
2021-02-05T15:00:00 11.57025 80.01331
2021-02-05T16:00:00 10.65025 86.89134
2021-02-05T17:00:00 10.01025 89.16967
2021-02-05T18:00:00 9.510245 91.34729
2021-02-05T19:00:00 8.570246 93.94985
2021-02-05T20:00:00 7.500245 96.65329
2021-02-05T21:00:00 6.670245 97.49792
2021-02-05T22:00:00 5.800245 99.74039
2021-02-05T23:00:00 5.690245 99.80836
2021-02-06T00:00:00 5.570245 99.52826
2021-02-06T01:00:00 5.140245 99.45118
2021-02-06T02:00:00 4.970245 99.23888
2021-02-06T03:00:00 4.760245 99.23465
2021-02-06T04:00:00 4.920245 99.16821
2021-02-06T05:00:00 4.940245 99.30801
2021-02-06T06:00:00 5.040245 98.54614
2021-02-06T07:00:00 5.240245 98.13743
2021-02-06T08:00:00 5.800245 96.11617
2021-02-06T09:00:00 6.200245 95.33168
2021-02-06T10:00:00 6.900245 96.83199
2021-02-06T11:00:00 7.650245 93.18578
2021-02-06T12:00:00 7.450245 94.6033
2021-02-06T13:00:00 7.780245 94.29471
2021-02-06T14:00:00 7.980245 94.63103
2021-02-06T15:00:00 8.280246 94.45155
2021-02-06T16:00:00 7.950245 96.60328
2021-02-06T17:00:00 7.660245 96.32674
2021-02-06T18:00:00 7.980245 95.87665
2021-02-06T19:00:00 6.920245 98.04707
2021-02-06T20:00:00 6.460245 98.30727
2021-02-06T21:00:00 6.240245 98.7813
2021-02-06T22:00:00 7.090245 94.25654
2021-02-06T23:00:00 7.070245 94.71446
2021-02-07T00:00:00 6.840245 95.89391
2021-02-07T01:00:00 6.950245 95.36794
2021-02-07T02:00:00 6.540245 96.01423
2021-02-07T03:00:00 5.600246 97.59982
2021-02-07T04:00:00 5.130245 98.34116
2021-02-07T05:00:00 4.810246 99.23566
2021-02-07T06:00:00 6.040245 95.92533
2021-02-07T07:00:00 6.350246 93.68948
2021-02-07T08:00:00 6.930245 92.75147
2021-02-07T09:00:00 7.960245 89.72595
2021-02-07T10:00:00 8.360246 88.34444
2021-02-07T11:00:00 7.590245 89.00929
2021-02-07T12:00:00 6.920245 87.76984
2021-02-07T13:00:00 6.910245 85.21784
2021-02-07T14:00:00 6.970245 82.74081
2021-02-07T15:00:00 6.540245 80.88355
2021-02-07T16:00:00 6.030245 78.24989
2021-02-07T17:00:00 5.450245 77.75893
2021-02-07T18:00:00 5.050245 78.08304
2021-02-07T19:00:00 4.750245 78.93917
2021-02-07T20:00:00 4.400245 79.79973
2021-02-07T21:00:00 4.200245 79.76726
2021-02-07T22:00:00 4.300245 80.94646
2021-02-07T23:00:00 4.230246 82.17338
2021-02-08T00:00:00 3.590245 85.47636
2021-02-08T01:00:00 3.900245 83.32172
2021-02-08T02:00:00 3.710246 84.87627
2021-02-08T03:00:00 3.330246 89.87316
2021-02-08T04:00:00 3.300245 87.8838
2021-02-08T05:00:00 2.980246 91.73851
2021-02-08T06:00:00 2.660245 95.41991
2021-02-08T07:00:00 2.610245 95.34861
2021-02-08T08:00:00 2.520246 93.91208
2021-02-08T09:00:00 2.700245 93.9239
2021-02-08T10:00:00 3.320245 80.26489
2021-02-08T11:00:00 3.340245 77.33096
2021-02-08T12:00:00 2.280245 82.4242
2021-02-08T13:00:00 1.500245 88.26327
2021-02-08T14:00:00 1.180245 92.26
2021-02-08T15:00:00 1.320245 87.40551
2021-02-08T16:00:00 1.410245 85.88835
2021-02-08T17:00:00 1.460245 86.02103
2021-02-08T18:00:00 1.310245 88.4368
2021-02-08T19:00:00 1.000245 91.63969
2021-02-08T20:00:00 0.740245 92.49521
2021-02-08T21:00:00 0.560245 91.60182
2021-02-08T22:00:00 1.390245 86.71043
2021-02-08T23:00:00 0.960245 86.5305
2021-02-09T00:00:00 0.720245 87.46442
2021-02-09T01:00:00 0.000245 89.47791
2021-02-09T02:00:00 -0.06975 91.61445
2021-02-09T03:00:00 -0.52975 94.53658
2021-02-09T04:00:00 -0.03975 92.70568
2021-02-09T05:00:00 -0.23975 94.62537
2021-02-09T06:00:00 -0.36975 95.10687
2021-02-09T07:00:00 -0.51975 94.74706
2021-02-09T08:00:00 -0.24975 92.55206
2021-02-09T09:00:00 0.220245 87.27626
2021-02-09T10:00:00 0.820245 87.47608
2021-02-09T11:00:00 1.220245 84.67012
2021-02-09T12:00:00 1.500245 82.91706
2021-02-09T13:00:00 1.600245 80.33968
2021-02-09T14:00:00 1.390245 80.96231
2021-02-09T15:00:00 1.450245 77.90837
2021-02-09T16:00:00 1.340246 80.11859
2021-02-09T17:00:00 0.650245 84.59247
2021-02-09T18:00:00 0.550245 87.7682
2021-02-09T19:00:00 0.010245 89.6779
2021-02-09T20:00:00 -0.03975 91.68478
2021-02-09T21:00:00 -0.44975 93.5687
2021-02-09T22:00:00 -0.01975 91.88987
2021-02-09T23:00:00 -0.44975 92.53586
2021-02-10T00:00:00 -0.51975 91.2357
2021-02-10T01:00:00 -0.63975 90.41476
2021-02-10T02:00:00 -0.83975 90.12622
2021-02-10T03:00:00 -1.10975 90.43611
2021-02-10T04:00:00 -1.43975 90.74252
2021-02-10T05:00:00 -1.71975 90.24017
2021-02-10T06:00:00 -2.19975 90.39562
2021-02-10T07:00:00 -2.59975 90.28693
2021-02-10T08:00:00 -2.76975 89.45258
2021-02-10T09:00:00 -2.85975 88.16188
2021-02-10T10:00:00 -2.89975 91.91158
2021-02-10T11:00:00 -3.14975 90.50497
2021-02-10T12:00:00 -3.22975 88.79192
2021-02-10T13:00:00 -3.38975 87.42867
2021-02-10T14:00:00 -3.48975 85.3658
2021-02-10T15:00:00 -4.01976 84.2462
2021-02-10T16:00:00 -4.76976 83.22424
2021-02-10T17:00:00 -5.27975 82.11108
2021-02-10T18:00:00 -5.53976 81.36334
2021-02-10T19:00:00 -5.81975 83.44981
2021-02-10T20:00:00 -5.78976 82.99776
2021-02-10T21:00:00 -5.65975 83.60572
2021-02-10T22:00:00 -5.57976 82.06139
2021-02-10T23:00:00 -5.49976 81.56177
2021-02-11T00:00:00 -5.53976 81.61895
2021-02-11T01:00:00 -5.72976 82.4236
2021-02-11T02:00:00 -5.76976 81.96539
2021-02-11T03:00:00 -6.10975 82.81595
2021-02-11T04:00:00 -6.71975 82.91294
2021-02-11T05:00:00 -6.61976 83.45474
2021-02-11T06:00:00 -7.72975 83.74242
2021-02-11T07:00:00 -7.84975 82.99171
2021-02-11T08:00:00 -6.83975 79.16486
2021-02-11T09:00:00 -6.09976 75.26081
2021-02-11T10:00:00 -6.07976 74.43165
2021-02-11T11:00:00 -5.36976 71.85685
2021-02-11T12:00:00 -4.67975 69.55112
2021-02-11T13:00:00 -4.19975 68.19573
2021-02-11T14:00:00 -3.75975 66.7061
2021-02-11T15:00:00 -3.91975 67.03568
2021-02-11T16:00:00 -4.98975 70.36481
2021-02-11T17:00:00 -6.61976 73.01769
2021-02-11T18:00:00 -6.90975 73.01096
2021-02-11T19:00:00 -6.84976 72.79033
2021-02-11T20:00:00 -7.11976 74.20573
2021-02-11T21:00:00 -7.58976 75.73177
2021-02-11T22:00:00 -8.29976 74.48681
2021-02-11T23:00:00 -9.16976 75.88791
2021-02-12T00:00:00 -9.34975 75.84944
2021-02-12T01:00:00 -10.1698 76.54889
2021-02-12T02:00:00 -10.7398 78.02038
2021-02-12T03:00:00 -10.9298 77.78875
2021-02-12T04:00:00 -10.7598 77.43952
2021-02-12T05:00:00 -10.1598 75.86195
2021-02-12T06:00:00 -10.2998 75.45789
2021-02-12T07:00:00 -10.0298 75.64096
2021-02-12T08:00:00 -8.53976 73.8312
2021-02-12T09:00:00 -6.89975 70.64408
2021-02-12T10:00:00 -6.25975 70.11826
2021-02-12T11:00:00 -4.99976 66.76216
2021-02-12T12:00:00 -3.98975 64.46465
2021-02-12T13:00:00 -3.13975 62.47778
2021-02-12T14:00:00 -2.65975 60.75705
2021-02-12T15:00:00 -2.45975 61.34275
2021-02-12T16:00:00 -2.99975 64.3178
2021-02-12T17:00:00 -3.78975 66.12104
2021-02-12T18:00:00 -4.44975 66.68971
2021-02-12T19:00:00 -4.92975 66.51416
2021-02-12T20:00:00 -5.32976 65.9343
2021-02-12T21:00:00 -5.85975 65.7431
2021-02-12T22:00:00 -6.67975 66.59789
2021-02-12T23:00:00 -7.12975 66.42671
2021-02-13T00:00:00 -7.67975 65.85043
2021-02-13T01:00:00 -8.27976 65.58261
2021-02-13T02:00:00 -9.10976 65.90226
2021-02-13T03:00:00 -10.1998 68.40083
2021-02-13T04:00:00 -11.0698 71.26553
2021-02-13T05:00:00 -12.1998 73.72607
2021-02-13T06:00:00 -12.4298 73.73436
2021-02-13T07:00:00 -11.9898 71.21845
2021-02-13T08:00:00 -9.84975 66.52833
2021-02-13T09:00:00 -7.32976 61.96908
2021-02-13T10:00:00 -5.58975 56.60866
2021-02-13T11:00:00 -4.61976 53.92906
2021-02-13T12:00:00 -3.59975 51.62821
2021-02-13T13:00:00 -2.82975 49.93571
2021-02-13T14:00:00 -2.31975 49.9349
2021-02-13T15:00:00 -2.16975 51.69738
2021-02-13T16:00:00 -2.94975 55.14117
2021-02-13T17:00:00 -4.54975 58.45749
2021-02-13T18:00:00 -5.51976 60.09496
2021-02-13T19:00:00 -6.08975 60.51973
2021-02-13T20:00:00 -6.32976 61.24476
2021-02-13T21:00:00 -6.94975 62.73939
2021-02-13T22:00:00 -8.92975 62.96117
2021-02-13T23:00:00 -9.98976 65.17337
2021-02-14T00:00:00 -10.4498 66.20114
2021-02-14T01:00:00 -9.98976 66.43556
2021-02-14T02:00:00 -9.68975 67.07043
2021-02-14T03:00:00 -9.63975 68.82906
2021-02-14T04:00:00 -9.92975 68.24343
2021-02-14T05:00:00 -11.2998 72.28832
2021-02-14T06:00:00 -12.4698 75.60771
2021-02-14T07:00:00 -12.9898 76.1306
2021-02-14T08:00:00 -11.4898 72.00142
2021-02-14T09:00:00 -8.16976 65.34312
2021-02-14T10:00:00 -6.12975 65.77834
2021-02-14T11:00:00 -4.49976 63.61435
2021-02-14T12:00:00 -3.20975 61.0871
2021-02-14T13:00:00 -2.34975 60.03202
2021-02-14T14:00:00 -1.76975 60.05224
2021-02-14T15:00:00 -1.44975 57.7336
2021-02-14T16:00:00 0.170245 51.19016
2021-02-14T17:00:00 -1.64975 59.38158
2021-02-14T18:00:00 -3.67975 68.32326
2021-02-14T19:00:00 -4.53976 73.24715
2021-02-14T20:00:00 -4.87975 72.71173
2021-02-14T21:00:00 -5.35975 75.29665
2021-02-14T22:00:00 -5.72976 75.27881
2021-02-14T23:00:00 -5.93975 76.3167
2021-02-15T00:00:00 -5.82976 74.72231
2021-02-15T01:00:00 -5.69975 73.51457
2021-02-15T02:00:00 -5.72976 73.91782
2021-02-15T03:00:00 -5.25975 73.14639
2021-02-15T04:00:00 -5.18975 74.73997
2021-02-15T05:00:00 -4.89975 75.57048
2021-02-15T06:00:00 -4.54975 77.19866
2021-02-15T07:00:00 -4.18975 77.32911
2021-02-15T08:00:00 -3.17975 76.03796
2021-02-15T09:00:00 -1.86975 74.44712
2021-02-15T10:00:00 -0.55975 77.01563
2021-02-15T11:00:00 0.770245 75.94426
2021-02-15T12:00:00 2.040246 72.64529
2021-02-15T13:00:00 2.880245 70.69161
2021-02-15T14:00:00 3.140245 71.06364
2021-02-15T15:00:00 3.480246 72.62196
2021-02-15T16:00:00 3.690246 73.30934
2021-02-15T17:00:00 3.650245 74.38609
2021-02-15T18:00:00 3.270246 79.96446
2021-02-15T19:00:00 2.900245 80.54997
2021-02-15T20:00:00 3.610245 78.34598
2021-02-15T21:00:00 3.700245 80.61837
2021-02-15T22:00:00 3.700245 80.85306
2021-02-15T23:00:00 3.630245 81.84676
2021-02-16T00:00:00 3.640245 81.37414
2021-02-16T01:00:00 3.630245 81.78735
2021-02-16T02:00:00 3.420245 83.55692
2021-02-16T03:00:00 3.420245 84.40944
2021-02-16T04:00:00 3.180245 85.79697
2021-02-16T05:00:00 3.010245 87.28142
2021-02-16T06:00:00 3.310246 87.44176
2021-02-16T07:00:00 3.130245 87.73821
2021-02-16T08:00:00 3.720245 85.49268
2021-02-16T09:00:00 5.370246 77.91319
2021-02-16T10:00:00 6.960245 70.4363
2021-02-16T11:00:00 8.610246 66.05851
2021-02-16T12:00:00 10.05025 62.59561
2021-02-16T13:00:00 10.73025 62.01098
2021-02-16T14:00:00 11.15025 61.32947
2021-02-16T15:00:00 10.86025 64.54489
2021-02-16T16:00:00 9.760245 71.11948
2021-02-16T17:00:00 6.760245 79.26886
2021-02-16T18:00:00 5.300245 84.35395
2021-02-16T19:00:00 5.010245 83.7747
2021-02-16T20:00:00 5.400245 82.16695
2021-02-16T21:00:00 5.770245 80.53568
2021-02-16T22:00:00 6.690245 79.87939
2021-02-16T23:00:00 7.750245 80.60999
2021-02-17T00:00:00 7.970245 86.18243
2021-02-17T01:00:00 8.150246 89.6806
2021-02-17T02:00:00 8.160246 90.49169
2021-02-17T03:00:00 7.930245 89.72328
2021-02-17T04:00:00 7.550245 90.44097
2021-02-17T05:00:00 7.220245 91.3626
2021-02-17T06:00:00 6.740245 91.64469
2021-02-17T07:00:00 6.460245 91.68744
2021-02-17T08:00:00 6.990245 89.45142
2021-02-17T09:00:00 8.180245 83.42913
2021-02-17T10:00:00 9.350245 73.68153
2021-02-17T11:00:00 10.32025 69.41134
2021-02-17T12:00:00 11.24025 62.84112
2021-02-17T13:00:00 11.72025 61.21177
2021-02-17T14:00:00 11.96025 59.61259
2021-02-17T15:00:00 11.90025 60.6989
2021-02-17T16:00:00 10.58025 71.9347
2021-02-17T17:00:00 6.410245 83.13284
2021-02-17T18:00:00 3.620246 91.33092
2021-02-17T19:00:00 1.820245 95.65049
2021-02-17T20:00:00 1.220245 97.30031
2021-02-17T21:00:00 1.040245 96.65807
2021-02-17T22:00:00 1.170245 94.5078
2021-02-17T23:00:00 0.990245 93.94606
2021-02-18T00:00:00 0.760245 93.99912
2021-02-18T01:00:00 0.370245 94.17958
2021-02-18T02:00:00 0.370245 93.07945
2021-02-18T03:00:00 0.210245 93.54778
2021-02-18T04:00:00 0.310245 93.34898
2021-02-18T05:00:00 0.210245 93.20435
2021-02-18T06:00:00 0.340245 93.55718
2021-02-18T07:00:00 0.570245 93.23122
2021-02-18T08:00:00 2.080246 90.53944
2021-02-18T09:00:00 3.980246 87.26535
2021-02-18T10:00:00 5.610245 84.15429
2021-02-18T11:00:00 7.580246 76.31718
2021-02-18T12:00:00 9.450245 67.86868
2021-02-18T13:00:00 10.69025 61.8256
2021-02-18T14:00:00 10.97025 60.37942
2021-02-18T15:00:00 10.91025 61.79245
2021-02-18T16:00:00 9.660245 71.44972
2021-02-18T17:00:00 7.610245 80.87299
2021-02-18T18:00:00 6.220245 85.91941
2021-02-18T19:00:00 5.560246 86.88349
2021-02-18T20:00:00 6.360245 83.71697
2021-02-18T21:00:00 7.620246 79.96831
2021-02-18T22:00:00 10.03025 78.73958
2021-02-18T23:00:00 9.910245 83.13675
2021-02-19T00:00:00 9.550245 86.06228
2021-02-19T01:00:00 9.050245 88.77714
2021-02-19T02:00:00 8.650246 90.53184
2021-02-19T03:00:00 8.340245 91.25911
2021-02-19T04:00:00 8.000245 92.18388
2021-02-19T05:00:00 7.330246 93.68376
2021-02-19T06:00:00 7.180245 96.50782
2021-02-19T07:00:00 6.620246 97.97101
2021-02-19T08:00:00 6.960245 97.98035
2021-02-19T09:00:00 8.480246 92.53513
2021-02-19T10:00:00 10.09025 86.06333
2021-02-19T11:00:00 11.59025 79.68914
2021-02-19T12:00:00 12.80025 74.11874
2021-02-19T13:00:00 13.35025 69.84887
2021-02-19T14:00:00 13.98025 66.43809
2021-02-19T15:00:00 14.30025 63.65585
2021-02-19T16:00:00 13.59025 67.6394
2021-02-19T17:00:00 11.11025 79.39851
2021-02-19T18:00:00 9.370245 86.69628
2021-02-19T19:00:00 7.070245 92.11765
2021-02-19T20:00:00 5.680245 93.77957
2021-02-19T21:00:00 5.290245 94.15257
2021-02-19T22:00:00 4.750245 95.86612
2021-02-19T23:00:00 4.370246 95.5091
2021-02-20T00:00:00 3.770246 95.95555
2021-02-20T01:00:00 3.820245 95.20947
2021-02-20T02:00:00 3.530245 95.12588
2021-02-20T03:00:00 3.160245 94.96934
2021-02-20T04:00:00 2.700245 95.49065
2021-02-20T05:00:00 2.540246 95.13913
2021-02-20T06:00:00 2.380245 94.92459
2021-02-20T07:00:00 2.390245 94.51534
2021-02-20T08:00:00 4.290246 91.64728
2021-02-20T09:00:00 6.850246 86.05383
2021-02-20T10:00:00 9.540245 80.4288
2021-02-20T11:00:00 12.02025 70.98275
2021-02-20T12:00:00 14.03025 64.12
2021-02-20T13:00:00 15.33025 58.6144
2021-02-20T14:00:00 15.98025 53.5259
2021-02-20T15:00:00 16.07025 53.51311
2021-02-20T16:00:00 15.02025 58.45528
2021-02-20T17:00:00 11.13025 73.15009
2021-02-20T18:00:00 9.950245 78.07462
2021-02-20T19:00:00 7.970245 83.69343
2021-02-20T20:00:00 6.410245 88.33588
2021-02-20T21:00:00 5.600246 89.70119
2021-02-20T22:00:00 4.720245 90.90323
2021-02-20T23:00:00 4.590245 89.86256
2021-02-21T00:00:00 4.250246 89.89511
2021-02-21T01:00:00 3.970245 89.67606
2021-02-21T02:00:00 3.560246 89.83032
2021-02-21T03:00:00 3.090245 90.30508
2021-02-21T04:00:00 2.080246 91.99738
2021-02-21T05:00:00 1.640245 92.83563
2021-02-21T06:00:00 1.570245 92.49308
2021-02-21T07:00:00 2.070245 90.53851
2021-02-21T08:00:00 4.340245 86.43394
2021-02-21T09:00:00 7.020245 82.22395
2021-02-21T10:00:00 9.740245 69.23917
2021-02-21T11:00:00 11.95025 61.18274
2021-02-21T12:00:00 14.07025 53.60589
2021-02-21T13:00:00 15.41025 49.87729
2021-02-21T14:00:00 16.30025 46.2866
2021-02-21T15:00:00 16.60025 45.31155
2021-02-21T16:00:00 15.76025 52.00173
2021-02-21T17:00:00 13.07025 59.43469
2021-02-21T18:00:00 9.650246 71.34736
2021-02-21T19:00:00 7.810246 78.60147
2021-02-21T20:00:00 6.790245 82.19128
2021-02-21T21:00:00 6.280245 83.35112
2021-02-21T22:00:00 4.960245 87.81123
2021-02-21T23:00:00 3.520246 91.38808
2021-02-22T00:00:00 3.230246 91.49534
2021-02-22T01:00:00 3.070245 91.02201
2021-02-22T02:00:00 2.770246 92.45189
2021-02-22T03:00:00 2.380245 91.82202
2021-02-22T04:00:00 2.080246 91.86398
2021-02-22T05:00:00 2.290246 91.54897
2021-02-22T06:00:00 2.020246 92.193
2021-02-22T07:00:00 2.270246 92.21286
2021-02-22T08:00:00 4.590245 86.21606
2021-02-22T09:00:00 6.720245 82.94033
2021-02-22T10:00:00 9.150246 67.60989
2021-02-22T11:00:00 11.34025 58.16112
2021-02-22T12:00:00 13.34025 51.4395
2021-02-22T13:00:00 14.42025 48.45301
2021-02-22T14:00:00 15.23025 45.71718
2021-02-22T15:00:00 15.26025 48.18105
2021-02-22T16:00:00 13.65025 64.51933
2021-02-22T17:00:00 12.40025 59.22281
2021-02-22T18:00:00 8.670245 75.12334
2021-02-22T19:00:00 7.200245 82.48158
2021-02-22T20:00:00 6.590245 87.1206
2021-02-22T21:00:00 5.690245 90.79227
2021-02-22T22:00:00 5.490245 87.61865
2021-02-22T23:00:00 5.800245 87.90022
2021-02-23T00:00:00 5.920245 86.49427
2021-02-23T01:00:00 4.960245 90.66587
2021-02-23T02:00:00 3.930245 91.42203
2021-02-23T03:00:00 3.530245 92.57568
2021-02-23T04:00:00 2.890245 92.52766
2021-02-23T05:00:00 2.970245 91.73769
2021-02-23T06:00:00 2.660245 91.64609
2021-02-23T07:00:00 2.930245 89.44646
2021-02-23T08:00:00 5.210245 86.16641
2021-02-23T09:00:00 8.370246 76.02722
2021-02-23T10:00:00 11.11025 65.93222
2021-02-23T11:00:00 13.64025 56.06704
2021-02-23T12:00:00 15.51025 50.89252
2021-02-23T13:00:00 16.95025 48.28954
2021-02-23T14:00:00 17.67025 46.90638
2021-02-23T15:00:00 17.96025 46.76149
2021-02-23T16:00:00 16.64025 56.30786
2021-02-23T17:00:00 12.64025 64.59877
2021-02-23T18:00:00 10.75025 70.38126
2021-02-23T19:00:00 8.600245 78.89545
2021-02-23T20:00:00 7.500245 84.04353
2021-02-23T21:00:00 7.100246 84.64408
2021-02-23T22:00:00 6.990245 82.10368
2021-02-23T23:00:00 6.600246 83.98584
2021-02-24T00:00:00 6.680245 83.52306
2021-02-24T01:00:00 6.390245 84.73392
2021-02-24T02:00:00 5.820245 86.11582
2021-02-24T03:00:00 5.490245 88.3047
2021-02-24T04:00:00 4.740245 90.45371
2021-02-24T05:00:00 4.520246 91.08051
2021-02-24T06:00:00 4.290246 90.86652
2021-02-24T07:00:00 4.710245 89.29958
2021-02-24T08:00:00 6.890245 85.39545
2021-02-24T09:00:00 9.760245 76.43188
2021-02-24T10:00:00 12.08025 66.93829
2021-02-24T11:00:00 14.42025 60.10535
2021-02-24T12:00:00 16.45025 54.65918
2021-02-24T13:00:00 17.83025 50.23846
2021-02-24T14:00:00 18.71025 48.15123
2021-02-24T15:00:00 18.87025 48.22904
2021-02-24T16:00:00 17.56025 55.55389
2021-02-24T17:00:00 13.94025 63.96695
2021-02-24T18:00:00 11.90025 71.45033
2021-02-24T19:00:00 9.850245 79.36837
2021-02-24T20:00:00 7.800245 86.76597
2021-02-24T21:00:00 7.230245 86.39996
2021-02-24T22:00:00 6.690245 87.19276
2021-02-24T23:00:00 6.430245 87.28735
2021-02-25T00:00:00 5.910245 88.47243
2021-02-25T01:00:00 5.430245 90.19455
2021-02-25T02:00:00 4.940245 91.63388
2021-02-25T03:00:00 4.310246 93.29426
2021-02-25T04:00:00 3.910245 93.00124
2021-02-25T05:00:00 3.780245 91.93446
2021-02-25T06:00:00 3.700245 92.32373
2021-02-25T07:00:00 3.710246 91.27301
2021-02-25T08:00:00 6.070245 88.23921
2021-02-25T09:00:00 9.530245 78.82401
2021-02-25T10:00:00 12.23025 66.27773
2021-02-25T11:00:00 14.86025 60.09001
2021-02-25T12:00:00 16.92025 53.22652
2021-02-25T13:00:00 18.43024 47.61164
2021-02-25T14:00:00 19.35025 42.70027
2021-02-25T15:00:00 19.71025 40.52285
2021-02-25T16:00:00 19.24025 36.01319
2021-02-25T17:00:00 16.24025 51.16589
2021-02-25T18:00:00 11.77025 65.16604
2021-02-25T19:00:00 8.330246 76.99004
2021-02-25T20:00:00 7.690245 81.51291
2021-02-25T21:00:00 6.980245 84.74818
2021-02-25T22:00:00 6.390245 84.67403
2021-02-25T23:00:00 6.010245 85.46978
2021-02-26T00:00:00 5.970245 84.20138
2021-02-26T01:00:00 5.680245 84.70401
2021-02-26T02:00:00 5.210245 85.37168
2021-02-26T03:00:00 4.650245 86.16151
2021-02-26T04:00:00 4.130245 88.03671
2021-02-26T05:00:00 3.830246 89.1496
2021-02-26T06:00:00 3.290246 89.67539
2021-02-26T07:00:00 3.690246 88.11621
2021-02-26T08:00:00 6.190245 84.6487
2021-02-26T09:00:00 9.130245 73.17497
2021-02-26T10:00:00 11.33025 62.55382
2021-02-26T11:00:00 13.40025 58.69334
2021-02-26T12:00:00 14.67025 55.94819
2021-02-26T13:00:00 15.14025 55.53029
2021-02-26T14:00:00 14.90025 56.83037
2021-02-26T15:00:00 14.25025 60.56358
2021-02-26T16:00:00 13.25025 64.11588
2021-02-26T17:00:00 12.24025 72.25932
2021-02-26T18:00:00 10.99025 76.74895
2021-02-26T19:00:00 9.630245 79.88648
2021-02-26T20:00:00 8.300245 82.23077
2021-02-26T21:00:00 7.350246 83.20178
2021-02-26T22:00:00 7.340245 80.0377
2021-02-26T23:00:00 7.420245 77.65302
2021-02-27T00:00:00 7.200245 77.28569
2021-02-27T01:00:00 6.750245 79.09847
2021-02-27T02:00:00 6.440245 78.87923
2021-02-27T03:00:00 6.090245 79.0472
2021-02-27T04:00:00 5.940245 77.39818
2021-02-27T05:00:00 5.820245 75.5634
2021-02-27T06:00:00 5.740245 74.46713
2021-02-27T07:00:00 5.500245 74.79839
2021-02-27T08:00:00 6.120246 74.05881
2021-02-27T09:00:00 6.920245 69.92281
2021-02-27T10:00:00 8.110246 62.42949
2021-02-27T11:00:00 9.030245 57.01069
2021-02-27T12:00:00 9.950245 52.65207
2021-02-27T13:00:00 10.56025 49.16193
2021-02-27T14:00:00 10.74025 47.48702
2021-02-27T15:00:00 10.54025 46.70395
2021-02-27T16:00:00 10.09025 47.71336
2021-02-27T17:00:00 8.800245 50.43696
2021-02-27T18:00:00 7.700245 54.40553
2021-02-27T19:00:00 6.380245 59.62542
2021-02-27T20:00:00 5.670245 63.10029
2021-02-27T21:00:00 4.740245 67.48544
2021-02-27T22:00:00 4.450245 66.52833
2021-02-27T23:00:00 3.390245 72.1228
2021-02-28T00:00:00 2.220245 76.84348
2021-02-28T01:00:00 1.610245 79.27781
2021-02-28T02:00:00 1.060245 81.39124
2021-02-28T03:00:00 0.680245 82.85723
2021-02-28T04:00:00 0.410245 84.43399
2021-02-28T05:00:00 0.100245 85.65645
2021-02-28T06:00:00 -0.18975 87.29219
2021-02-28T07:00:00 0.780245 87.98895
2021-02-28T08:00:00 2.620246 81.15692
2021-02-28T09:00:00 3.790246 75.84389
2021-02-28T10:00:00 5.280245 68.30655
2021-02-28T11:00:00 6.660245 63.57886
2021-02-28T12:00:00 7.780245 60.47493
2021-02-28T13:00:00 8.810246 57.28304
2021-02-28T14:00:00 9.660245 54.08183
2021-02-28T15:00:00 10.20025 52.00093
2021-02-28T16:00:00 9.820246 58.13588
2021-02-28T17:00:00 7.970245 60.61192
2021-02-28T18:00:00 6.360245 67.70953
2021-02-28T19:00:00 3.630245 80.19785
2021-02-28T20:00:00 2.140245 85.54125
2021-02-28T21:00:00 1.110246 88.22033
2021-02-28T22:00:00 0.680245 88.10753
2021-02-28T23:00:00 0.050245 89.74837
2021-03-01T00:00:00 -0.48975 90.96806
2021-03-01T01:00:00 -1.07975 91.7296
2021-03-01T02:00:00 -1.48975 92.03649
2021-03-01T03:00:00 -1.87975 92.69467
2021-03-01T04:00:00 -2.00975 92.12922
2021-03-01T05:00:00 -2.17975 91.63081
2021-03-01T06:00:00 -2.02975 90.20881
2021-03-01T07:00:00 -1.02975 89.90561
2021-03-01T08:00:00 1.480245 84.83
2021-03-01T09:00:00 3.990245 77.7295
2021-03-01T10:00:00 6.270245 71.5185
2021-03-01T11:00:00 7.950245 64.54339
2021-03-01T12:00:00 9.580245 61.32936
2021-03-01T13:00:00 11.01025 58.11615
2021-03-01T14:00:00 11.95025 55.02546
2021-03-01T15:00:00 12.36025 53.74475
2021-03-01T16:00:00 12.21025 58.75893
2021-03-01T17:00:00 12.09025 51.60222
2021-03-01T18:00:00 9.750245 63.69073
2021-03-01T19:00:00 5.180245 78.8402
2021-03-01T20:00:00 4.480246 81.85528
2021-03-01T21:00:00 3.400245 84.71314
2021-03-01T22:00:00 2.940246 85.95412
2021-03-01T23:00:00 2.210245 87.5716
2021-03-02T00:00:00 1.670245 88.08835
2021-03-02T01:00:00 0.930245 88.59065
2021-03-02T02:00:00 0.510245 89.46432
2021-03-02T03:00:00 -0.04975 90.27128
2021-03-02T04:00:00 -0.44975 90.16505
2021-03-02T05:00:00 -0.14975 89.66156
2021-03-02T06:00:00 0.060245 88.42997
2021-03-02T07:00:00 -0.29975 92.07004
2021-03-02T08:00:00 3.010245 86.15006
2021-03-02T09:00:00 5.930245 77.6744
2021-03-02T10:00:00 8.420245 69.54627
2021-03-02T11:00:00 10.84025 62.83283
2021-03-02T12:00:00 12.96025 57.19938
2021-03-02T13:00:00 14.67025 51.51989
2021-03-02T14:00:00 15.76025 46.13077
2021-03-02T15:00:00 16.24025 42.81226
2021-03-02T16:00:00 15.88025 43.62618
2021-03-02T17:00:00 14.21025 47.20357
2021-03-02T18:00:00 10.02025 61.65918
2021-03-02T19:00:00 6.320245 76.30904
2021-03-02T20:00:00 5.610245 79.42259
2021-03-02T21:00:00 5.390245 80.47661
2021-03-02T22:00:00 4.460246 83.94123
2021-03-02T23:00:00 3.980246 86.3914
2021-03-03T00:00:00 3.490245 87.02136
2021-03-03T01:00:00 3.320245 85.93864
2021-03-03T02:00:00 2.780245 87.63577
2021-03-03T03:00:00 2.440245 87.85281
2021-03-03T04:00:00 2.240245 89.44286
2021-03-03T05:00:00 1.800245 88.81344
2021-03-03T06:00:00 1.690245 88.86678
2021-03-03T07:00:00 2.500246 88.43582
2021-03-03T08:00:00 4.300245 85.19688
2021-03-03T09:00:00 6.310246 80.1041
2021-03-03T10:00:00 8.240246 75.73637
2021-03-03T11:00:00 10.15025 65.5729
2021-03-03T12:00:00 11.39025 58.25684
2021-03-03T13:00:00 12.12025 54.79826
2021-03-03T14:00:00 12.49025 53.13436
2021-03-03T15:00:00 12.41025 54.29593
2021-03-03T16:00:00 11.57025 62.70016
2021-03-03T17:00:00 9.740245 67.35912
2021-03-03T18:00:00 8.740245 70.30967
2021-03-03T19:00:00 6.580246 76.84822
2021-03-03T20:00:00 5.600246 81.1454
2021-03-03T21:00:00 6.120246 83.98234
2021-03-03T22:00:00 5.690245 85.0069
2021-03-03T23:00:00 6.070245 83.44102
2021-03-04T00:00:00 6.010245 82.90094
2021-03-04T01:00:00 5.760245 83.63673
2021-03-04T02:00:00 5.830246 82.17042
2021-03-04T03:00:00 5.780245 82.4566
2021-03-04T04:00:00 5.490245 82.8283
2021-03-04T05:00:00 4.910245 85.15161
2021-03-04T06:00:00 4.930245 83.9441
2021-03-04T07:00:00 5.230245 82.14227
2021-03-04T08:00:00 7.300245 76.21308
2021-03-04T09:00:00 9.550245 66.84143
2021-03-04T10:00:00 11.25025 56.99057
2021-03-04T11:00:00 12.58025 52.18459
2021-03-04T12:00:00 13.60025 49.54052
2021-03-04T13:00:00 13.80025 46.91673
2021-03-04T14:00:00 13.87025 46.30389
2021-03-04T15:00:00 13.22025 50.42837
2021-03-04T16:00:00 12.13025 56.981
2021-03-04T17:00:00 10.96025 65.43681
2021-03-04T18:00:00 9.210245 77.73576
2021-03-04T19:00:00 8.580245 87.09167
2021-03-04T20:00:00 8.060246 91.17453
2021-03-04T21:00:00 7.820245 92.29881
2021-03-04T22:00:00 7.080246 94.8465
2021-03-04T23:00:00 6.860245 94.37478
2021-03-05T00:00:00 6.160245 95.66317
2021-03-05T01:00:00 6.550245 95.41515
2021-03-05T02:00:00 6.320245 95.47065
2021-03-05T03:00:00 6.520245 95.87982
2021-03-05T04:00:00 6.450245 95.60997
2021-03-05T05:00:00 6.670245 94.69331
2021-03-05T06:00:00 6.480245 94.1563
2021-03-05T07:00:00 6.170245 94.53416
2021-03-05T08:00:00 5.800245 92.2187
2021-03-05T09:00:00 5.730245 91.82494
2021-03-05T10:00:00 5.700245 86.59171
2021-03-05T11:00:00 5.330246 83.34018
2021-03-05T12:00:00 5.260245 80.80351
2021-03-05T13:00:00 5.350246 76.02305
2021-03-05T14:00:00 5.660245 73.22446
2021-03-05T15:00:00 5.660245 72.53873
2021-03-05T16:00:00 5.420245 73.44215
2021-03-05T17:00:00 5.180245 73.71472
2021-03-05T18:00:00 4.910245 74.90261
2021-03-05T19:00:00 4.430245 76.90798
2021-03-05T20:00:00 4.430245 77.24387
2021-03-05T21:00:00 3.750246 78.77091
2021-03-05T22:00:00 3.060246 81.7011
2021-03-05T23:00:00 2.590245 81.5098
2021-03-06T00:00:00 1.990246 80.46259
2021-03-06T01:00:00 1.450245 80.5534
2021-03-06T02:00:00 0.840245 81.05454
2021-03-06T03:00:00 0.000245 80.55582
2021-03-06T04:00:00 -0.60975 79.97086
2021-03-06T05:00:00 -0.84975 79.56836
2021-03-06T06:00:00 -1.06975 79.95276
2021-03-06T07:00:00 0.380245 75.75483
2021-03-06T08:00:00 1.500245 69.38792
2021-03-06T09:00:00 2.780245 64.89951
2021-03-06T10:00:00 3.980246 63.37695
2021-03-06T11:00:00 5.140245 61.03859
2021-03-06T12:00:00 6.070245 58.15089
2021-03-06T13:00:00 7.160245 54.37378
2021-03-06T14:00:00 7.780245 51.34333
2021-03-06T15:00:00 8.100245 49.09022
2021-03-06T16:00:00 7.810246 51.16215
2021-03-06T17:00:00 5.470245 65.31609
2021-03-06T18:00:00 3.310246 70.00327
2021-03-06T19:00:00 1.850245 76.54741
2021-03-06T20:00:00 1.030245 80.24593
2021-03-06T21:00:00 0.250245 83.97324
2021-03-06T22:00:00 -0.08975 83.79958
2021-03-06T23:00:00 -0.89975 86.81586
2021-03-07T00:00:00 -1.27975 87.29124
2021-03-07T01:00:00 -1.35975 87.08503
2021-03-07T02:00:00 -1.21975 86.90635
2021-03-07T03:00:00 -0.32975 84.70976
2021-03-07T04:00:00 0.090245 84.95699
2021-03-07T05:00:00 0.780245 82.93363
2021-03-07T06:00:00 0.620245 84.15035
2021-03-07T07:00:00 0.900245 82.15527
2021-03-07T08:00:00 2.600246 75.78635
2021-03-07T09:00:00 3.870246 73.66932
2021-03-07T10:00:00 5.660245 76.13464
2021-03-07T11:00:00 7.300245 71.88512
2021-03-07T12:00:00 8.860246 64.39113
2021-03-07T13:00:00 10.05025 57.9881
2021-03-07T14:00:00 10.85025 53.983
2021-03-07T15:00:00 11.35025 50.32872
2021-03-07T16:00:00 11.16025 55.75953
2021-03-07T17:00:00 8.800245 66.57589
2021-03-07T18:00:00 8.480246 64.25385
2021-03-07T19:00:00 7.150245 70.4766
2021-03-07T20:00:00 6.820245 73.82296
2021-03-07T21:00:00 4.620246 83.78207
2021-03-07T22:00:00 4.850246 86.86497
2021-03-07T23:00:00 4.270246 88.68413
2021-03-08T00:00:00 2.860245 90.28384
2021-03-08T01:00:00 2.270246 91.61366
2021-03-08T02:00:00 2.420245 89.78594
2021-03-08T03:00:00 2.610245 89.09133
2021-03-08T04:00:00 1.400245 89.55463
2021-03-08T05:00:00 0.330245 89.24784
2021-03-08T06:00:00 -0.02975 88.74842
2021-03-08T07:00:00 0.510245 85.83688
2021-03-08T08:00:00 1.770245 79.65779
2021-03-08T09:00:00 3.630245 69.91878
2021-03-08T10:00:00 5.700245 61.31996
2021-03-08T11:00:00 7.170245 57.80717
2021-03-08T12:00:00 8.390245 55.97338
2021-03-08T13:00:00 9.200245 53.01709
2021-03-08T14:00:00 9.660245 51.43255
2021-03-08T15:00:00 9.370245 52.3728
2021-03-08T16:00:00 8.950245 53.76531
2021-03-08T17:00:00 7.700245 56.98257
2021-03-08T18:00:00 5.620246 62.39447
2021-03-08T19:00:00 3.870246 68.38753
2021-03-08T20:00:00 2.100246 73.41952
2021-03-08T21:00:00 2.140245 71.16422
2021-03-08T22:00:00 2.040246 69.56286
2021-03-08T23:00:00 1.960245 69.07678
2021-03-09T00:00:00 0.610245 73.4975
2021-03-09T01:00:00 0.010245 75.85419
2021-03-09T02:00:00 -0.07975 77.33862
2021-03-09T03:00:00 -0.47975 78.73674
2021-03-09T04:00:00 -0.70975 80.31654
2021-03-09T05:00:00 -0.76975 81.03651
2021-03-09T06:00:00 -0.79975 81.21507
2021-03-09T07:00:00 -0.58975 86.59517
2021-03-09T08:00:00 1.160245 79.55494
2021-03-09T09:00:00 2.940246 72.29535
2021-03-09T10:00:00 4.920245 62.95776
2021-03-09T11:00:00 6.450245 59.73179
2021-03-09T12:00:00 7.680245 56.39526
2021-03-09T13:00:00 8.430245 51.75993
2021-03-09T14:00:00 8.720245 49.63858
2021-03-09T15:00:00 8.940246 47.02179
2021-03-09T16:00:00 8.550245 48.82385
2021-03-09T17:00:00 7.330246 54.74419
2021-03-09T18:00:00 7.430245 50.78626
2021-03-09T19:00:00 6.340245 57.75249
2021-03-09T20:00:00 5.580246 62.43031
2021-03-09T21:00:00 4.330246 68.59353
2021-03-09T22:00:00 6.130245 63.03035
2021-03-09T23:00:00 4.950245 68.33173
2021-03-10T00:00:00 2.980246 76.08209
2021-03-10T01:00:00 1.820245 81.51032
2021-03-10T02:00:00 1.930245 80.57163
2021-03-10T03:00:00 2.280245 78.98286
2021-03-10T04:00:00 2.210245 78.97088
2021-03-10T05:00:00 0.330245 86.32443
2021-03-10T06:00:00 0.230245 87.60145
2021-03-10T07:00:00 1.890245 83.58623
2021-03-10T08:00:00 3.760245 80.27708
2021-03-10T09:00:00 6.070245 73.46466
2021-03-10T10:00:00 8.260245 62.10715
2021-03-10T11:00:00 9.610246 52.6324
2021-03-10T12:00:00 10.47025 48.14134
2021-03-10T13:00:00 10.94025 43.76685
2021-03-10T14:00:00 11.53025 42.32913
2021-03-10T15:00:00 11.84025 40.41126
2021-03-10T16:00:00 11.47025 42.68627
2021-03-10T17:00:00 11.15025 38.61724
2021-03-10T18:00:00 10.01025 45.59502
2021-03-10T19:00:00 7.660245 59.78712
2021-03-10T20:00:00 7.140245 60.75126
2021-03-10T21:00:00 7.040245 63.71883
2021-03-10T22:00:00 7.780245 59.5143
2021-03-10T23:00:00 7.840245 58.66867
2021-03-11T00:00:00 8.270246 54.84603
2021-03-11T01:00:00 8.860246 50.8271
2021-03-11T02:00:00 9.380245 48.78048
2021-03-11T03:00:00 9.980246 49.24426
2021-03-11T04:00:00 10.83025 48.45839
2021-03-11T05:00:00 11.32025 47.62306
2021-03-11T06:00:00 11.52025 49.11972
2021-03-11T07:00:00 11.85025 51.46055
2021-03-11T08:00:00 12.52025 54.13354
2021-03-11T09:00:00 12.94025 57.03353
2021-03-11T10:00:00 13.70025 58.93383
2021-03-11T11:00:00 13.86025 60.42532
2021-03-11T12:00:00 14.03025 61.1406
2021-03-11T13:00:00 14.16025 63.49207
2021-03-11T14:00:00 13.97025 65.89172
2021-03-11T15:00:00 13.24025 71.71351
2021-03-11T16:00:00 12.50025 77.95065
2021-03-11T17:00:00 11.71025 84.50681
2021-03-11T18:00:00 11.00025 85.11461
2021-03-11T19:00:00 10.37025 82.51424
2021-03-11T20:00:00 10.39025 77.39326
2021-03-11T21:00:00 9.990245 75.15293
2021-03-11T22:00:00 9.330245 73.47114
2021-03-11T23:00:00 8.850245 73.79373
2021-03-12T00:00:00 8.680245 72.77852
2021-03-12T01:00:00 8.020246 72.23634
2021-03-12T02:00:00 7.660245 72.11247
2021-03-12T03:00:00 7.250245 72.18415
2021-03-12T04:00:00 6.690245 74.00957
2021-03-12T05:00:00 6.410245 74.27467
2021-03-12T06:00:00 6.080246 74.96234
2021-03-12T07:00:00 6.290245 73.93211
2021-03-12T08:00:00 7.280245 67.04224
2021-03-12T09:00:00 8.050245 63.23142
2021-03-12T10:00:00 9.490245 58.42625
2021-03-12T11:00:00 10.04025 55.13572
2021-03-12T12:00:00 10.46025 52.49119
2021-03-12T13:00:00 10.78025 51.30478
2021-03-12T14:00:00 11.09025 51.46734
2021-03-12T15:00:00 10.92025 51.45617
2021-03-12T16:00:00 10.68025 51.23911
2021-03-12T17:00:00 9.770246 53.41023
2021-03-12T18:00:00 9.270246 51.73544
2021-03-12T19:00:00 9.200245 50.8509
2021-03-12T20:00:00 9.120245 52.37815
2021-03-12T21:00:00 9.180245 54.02639
2021-03-12T22:00:00 9.110246 60.90361
2021-03-12T23:00:00 8.630245 67.2532
2021-03-13T00:00:00 8.300245 72.70364
2021-03-13T01:00:00 8.090245 76.1921
2021-03-13T02:00:00 8.130245 75.07711
2021-03-13T03:00:00 8.030246 74.05545
2021-03-13T04:00:00 8.090245 72.8687
2021-03-13T05:00:00 8.070246 70.77103
2021-03-13T06:00:00 8.320246 67.23111
2021-03-13T07:00:00 8.830245 63.15003
2021-03-13T08:00:00 9.630245 58.37906
2021-03-13T09:00:00 10.57025 56.1209
2021-03-13T10:00:00 11.20025 51.23916
2021-03-13T11:00:00 11.70025 49.17183
2021-03-13T12:00:00 11.80025 49.23628
2021-03-13T13:00:00 11.11025 54.0549
2021-03-13T14:00:00 9.390245 63.83117
2021-03-13T15:00:00 7.540245 78.5572
2021-03-13T16:00:00 6.230245 84.89379
2021-03-13T17:00:00 6.130245 84.82116
2021-03-13T18:00:00 6.270245 83.52721
2021-03-13T19:00:00 6.630245 84.10848
2021-03-13T20:00:00 6.650245 82.34601
2021-03-13T21:00:00 6.690245 79.65278
2021-03-13T22:00:00 6.850246 77.66605
2021-03-13T23:00:00 5.990245 81.61026
2021-03-14T00:00:00 4.750245 87.97681
2021-03-14T01:00:00 4.280245 86.73744
2021-03-14T02:00:00 4.310246 84.8315
2021-03-14T03:00:00 4.150245 83.23643
2021-03-14T04:00:00 3.780245 82.82391
2021-03-14T05:00:00 3.660245 81.25907
2021-03-14T06:00:00 3.110245 84.67496
2021-03-14T07:00:00 3.400245 85.08207
2021-03-14T08:00:00 3.830246 83.07121
2021-03-14T09:00:00 4.770245 77.19232
2021-03-14T10:00:00 5.010245 78.81183
2021-03-14T11:00:00 4.920245 80.51885
2021-03-14T12:00:00 3.630245 93.51483
2021-03-14T13:00:00 3.670245 93.71818
2021-03-14T14:00:00 4.690245 90.06397
2021-03-14T15:00:00 5.870246 88.53091
2021-03-14T16:00:00 6.150245 86.09358
2021-03-14T17:00:00 5.490245 87.37035
2021-03-14T18:00:00 5.340245 87.41602
2021-03-14T19:00:00 5.200245 88.77781
2021-03-14T20:00:00 4.860245 88.55443
2021-03-14T21:00:00 4.540246 90.694
2021-03-14T22:00:00 4.560246 88.20829
2021-03-14T23:00:00 4.530245 88.01627
2021-03-15T00:00:00 4.520246 89.85607
2021-03-15T01:00:00 4.650245 87.65268
2021-03-15T02:00:00 4.610245 89.73647
2021-03-15T03:00:00 4.240245 91.70862
2021-03-15T04:00:00 3.720245 93.98949
2021-03-15T05:00:00 3.770246 92.39508
2021-03-15T06:00:00 3.690246 91.59882
2021-03-15T07:00:00 3.640245 92.12111
2021-03-15T08:00:00 3.640245 93.64926
2021-03-15T09:00:00 4.270246 91.71101
2021-03-15T10:00:00 5.220245 91.65595
2021-03-15T11:00:00 5.820245 87.40625
2021-03-15T12:00:00 6.400245 83.24935
2021-03-15T13:00:00 7.280245 82.02925
2021-03-15T14:00:00 7.610245 83.23671
2021-03-15T15:00:00 7.920245 81.66071
2021-03-15T16:00:00 7.860245 77.89232
2021-03-15T17:00:00 6.990245 80.09653
2021-03-15T18:00:00 6.310246 82.53167
2021-03-15T19:00:00 5.940245 85.52186
2021-03-15T20:00:00 5.460245 87.55328
2021-03-15T21:00:00 5.080246 88.13699
2021-03-15T22:00:00 4.960245 87.62378
2021-03-15T23:00:00 4.580246 88.58904
2021-03-16T00:00:00 4.410245 87.12612
2021-03-16T01:00:00 4.270246 86.67409
2021-03-16T02:00:00 4.250246 85.74337
2021-03-16T03:00:00 4.190246 84.26821
2021-03-16T04:00:00 3.860245 84.71208
2021-03-16T05:00:00 3.770246 84.27304
2021-03-16T06:00:00 3.720245 84.51037
2021-03-16T07:00:00 4.200245 81.81356
2021-03-16T08:00:00 4.620246 78.74641
2021-03-16T09:00:00 5.350246 70.70585
2021-03-16T10:00:00 5.930245 73.11968
2021-03-16T11:00:00 6.340245 71.48145
2021-03-16T12:00:00 6.480245 69.87828
2021-03-16T13:00:00 6.540245 69.73998
2021-03-16T14:00:00 7.050245 68.75262
2021-03-16T15:00:00 7.110245 67.24561
2021-03-16T16:00:00 6.800245 68.10424
2021-03-16T17:00:00 5.980245 72.81364
2021-03-16T18:00:00 5.430245 77.36462
2021-03-16T19:00:00 4.940245 79.88681
2021-03-16T20:00:00 4.210246 86.10886
2021-03-16T21:00:00 3.610245 90.48239
2021-03-16T22:00:00 3.410245 92.63314
2021-03-16T23:00:00 3.120246 93.95116
2021-03-17T00:00:00 2.830246 95.2237
2021-03-17T01:00:00 2.600246 95.48533
2021-03-17T02:00:00 2.530245 95.20709
2021-03-17T03:00:00 2.500246 94.93156
2021-03-17T04:00:00 2.580246 94.66319
2021-03-17T05:00:00 2.640245 95.00797
2021-03-17T06:00:00 2.590245 95.34752
2021-03-17T07:00:00 2.630245 94.73432
2021-03-17T08:00:00 3.120246 93.01166
2021-03-17T09:00:00 3.910245 90.7038
2021-03-17T10:00:00 4.770245 85.19498
2021-03-17T11:00:00 5.690245 83.62732
2021-03-17T12:00:00 5.940245 81.54473
2021-03-17T13:00:00 5.870246 81.07036
2021-03-17T14:00:00 5.960245 79.36565
2021-03-17T15:00:00 5.910245 76.61922
2021-03-17T16:00:00 5.580246 80.27595
2021-03-17T17:00:00 5.020245 85.40913
2021-03-17T18:00:00 3.770246 92.85855
2021-03-17T19:00:00 3.650245 91.79263
2021-03-17T20:00:00 3.710246 94.05598
2021-03-17T21:00:00 3.410245 93.03236
2021-03-17T22:00:00 2.100246 95.59632
2021-03-17T23:00:00 2.320245 94.03461
2021-03-18T00:00:00 2.180245 94.22961
2021-03-18T01:00:00 2.160245 93.41399
2021-03-18T02:00:00 1.700245 93.72123
2021-03-18T03:00:00 1.600245 92.76508
2021-03-18T04:00:00 1.360246 93.01762
2021-03-18T05:00:00 0.840245 91.96247
2021-03-18T06:00:00 1.000245 91.43855
2021-03-18T07:00:00 1.670245 88.99466
2021-03-18T08:00:00 2.870246 80.66316
2021-03-18T09:00:00 3.550245 73.28096
2021-03-18T10:00:00 4.590245 75.93778
2021-03-18T11:00:00 4.830246 73.05795
2021-03-18T12:00:00 5.380245 68.42915
2021-03-18T13:00:00 5.630245 64.07223
2021-03-18T14:00:00 5.880245 59.49278
2021-03-18T15:00:00 5.950245 55.91617
2021-03-18T16:00:00 5.310246 58.20372
2021-03-18T17:00:00 4.700245 63.13572
2021-03-18T18:00:00 3.550245 67.50758
2021-03-18T19:00:00 2.860245 70.73978
2021-03-18T20:00:00 2.100246 75.74708
2021-03-18T21:00:00 1.650245 77.82856
2021-03-18T22:00:00 0.030245 84.69612
2021-03-18T23:00:00 -0.21975 88.07098
2021-03-19T00:00:00 -0.11975 89.53183
2021-03-19T01:00:00 -0.39975 92.33464
2021-03-19T02:00:00 -0.62975 92.38406
2021-03-19T03:00:00 -1.10975 93.72863
2021-03-19T04:00:00 -1.92975 95.22195
2021-03-19T05:00:00 -2.52975 95.75726
2021-03-19T06:00:00 -2.16975 94.4962
2021-03-19T07:00:00 0.150245 90.49107
2021-03-19T08:00:00 2.140245 80.60549
2021-03-19T09:00:00 3.580246 74.64585
2021-03-19T10:00:00 5.000245 68.54376
2021-03-19T11:00:00 5.650245 68.29055
2021-03-19T12:00:00 6.020245 68.92275
2021-03-19T13:00:00 6.180245 67.91485
2021-03-19T14:00:00 5.870246 65.74807
2021-03-19T15:00:00 5.360245 70.19484
2021-03-19T16:00:00 4.130245 79.12189
2021-03-19T17:00:00 4.210246 77.3733
2021-03-19T18:00:00 3.700245 79.45392
2021-03-19T19:00:00 2.980246 78.00735
2021-03-19T20:00:00 2.610245 80.14987
2021-03-19T21:00:00 1.920245 82.18884
2021-03-19T22:00:00 1.790245 82.95953
2021-03-19T23:00:00 1.290245 83.25443
2021-03-20T00:00:00 0.750245 83.85718
2021-03-20T01:00:00 -0.09975 84.55202
2021-03-20T02:00:00 -0.59975 84.41907
2021-03-20T03:00:00 -1.25975 84.96323
2021-03-20T04:00:00 -1.67975 85.22633
2021-03-20T05:00:00 -2.03975 85.37063
2021-03-20T06:00:00 -1.43975 84.81036
2021-03-20T07:00:00 0.190245 82.16851
2021-03-20T08:00:00 1.400245 74.77028
2021-03-20T09:00:00 2.220245 73.17145
2021-03-20T10:00:00 3.230246 64.18897
2021-03-20T11:00:00 3.570245 59.18186
2021-03-20T12:00:00 4.030245 55.03998
2021-03-20T13:00:00 4.620246 51.88898
2021-03-20T14:00:00 4.840245 49.11317
2021-03-20T15:00:00 5.130245 47.21691
2021-03-20T16:00:00 5.090245 45.29205
2021-03-20T17:00:00 4.470245 46.54699
2021-03-20T18:00:00 2.850246 54.03431
2021-03-20T19:00:00 1.870246 60.44463
2021-03-20T20:00:00 1.060245 66.61108
2021-03-20T21:00:00 1.580245 64.40354
2021-03-20T22:00:00 2.560246 62.39898
2021-03-20T23:00:00 2.420245 64.32343
2021-03-21T00:00:00 2.170245 67.0807
2021-03-21T01:00:00 1.950245 68.24937
2021-03-21T02:00:00 1.580245 70.51057
2021-03-21T03:00:00 0.960245 72.36279
2021-03-21T04:00:00 1.010245 73.02948
2021-03-21T05:00:00 1.000245 72.75338
2021-03-21T06:00:00 1.090246 72.01038
2021-03-21T07:00:00 1.510245 72.75147
2021-03-21T08:00:00 2.520246 62.29434
2021-03-21T09:00:00 3.300245 56.39594
2021-03-21T10:00:00 4.510245 51.3467
2021-03-21T11:00:00 5.080246 50.09084
2021-03-21T12:00:00 5.420245 50.42077
2021-03-21T13:00:00 5.810246 52.55275
2021-03-21T14:00:00 5.990245 54.93625
2021-03-21T15:00:00 6.320245 57.8753
2021-03-21T16:00:00 6.170245 60.23232
2021-03-21T17:00:00 5.910245 63.4393
2021-03-21T18:00:00 5.020245 73.36248
2021-03-21T19:00:00 4.670245 74.31394
2021-03-21T20:00:00 4.540246 77.65665
2021-03-21T21:00:00 4.300245 80.13083
2021-03-21T22:00:00 3.690246 80.96908
2021-03-21T23:00:00 4.210246 78.39208
2021-03-22T00:00:00 4.180245 78.78639
2021-03-22T01:00:00 3.330246 81.14899
2021-03-22T02:00:00 2.960246 81.20995
2021-03-22T03:00:00 2.500246 82.51724
2021-03-22T04:00:00 2.340245 83.58847
2021-03-22T05:00:00 2.080246 84.90984
2021-03-22T06:00:00 2.100246 85.09916
2021-03-22T07:00:00 2.800245 85.31419
2021-03-22T08:00:00 4.050245 78.30767
2021-03-22T09:00:00 4.940245 71.9183
2021-03-22T10:00:00 5.120246 69.98925
2021-03-22T11:00:00 5.750245 64.81109
2021-03-22T12:00:00 5.750245 64.33747
2021-03-22T13:00:00 5.960245 62.61865
2021-03-22T14:00:00 5.980245 62.76187
2021-03-22T15:00:00 6.140245 61.5692
2021-03-22T16:00:00 6.140245 60.35773
2021-03-22T17:00:00 5.720245 63.25224
2021-03-22T18:00:00 4.830246 68.05413
2021-03-22T19:00:00 4.340245 71.95091
2021-03-22T20:00:00 4.210246 73.09258
2021-03-22T21:00:00 4.550245 71.88949
2021-03-22T22:00:00 3.590245 74.9772
2021-03-22T23:00:00 3.500246 75.78937
2021-03-23T00:00:00 3.290246 78.635
2021-03-23T01:00:00 2.160245 82.28539
2021-03-23T02:00:00 1.310245 84.49522
2021-03-23T03:00:00 0.490245 86.72887
2021-03-23T04:00:00 -0.15975 88.99805
2021-03-23T05:00:00 -0.40975 89.43532
2021-03-23T06:00:00 -0.33975 90.57818
2021-03-23T07:00:00 2.570245 84.4799
2021-03-23T08:00:00 5.070245 75.42343
2021-03-23T09:00:00 7.160245 67.20851
2021-03-23T10:00:00 8.780245 56.81918
2021-03-23T11:00:00 9.840245 52.54448
2021-03-23T12:00:00 10.78025 50.3106
2021-03-23T13:00:00 11.73025 46.64742
2021-03-23T14:00:00 12.04025 45.43415
2021-03-23T15:00:00 11.68025 47.04102
2021-03-23T16:00:00 11.25025 50.11848
2021-03-23T17:00:00 10.40025 54.36571
2021-03-23T18:00:00 7.780245 68.81461
2021-03-23T19:00:00 5.480245 78.21279
2021-03-23T20:00:00 5.650245 77.40315
2021-03-23T21:00:00 4.130245 82.51563
2021-03-23T22:00:00 2.370246 87.20793
2021-03-23T23:00:00 1.060245 90.51072
2021-03-24T00:00:00 0.090245 92.23877
2021-03-24T01:00:00 -0.40975 93.08852
2021-03-24T02:00:00 -0.52975 93.35531
2021-03-24T03:00:00 -0.85975 93.33038
2021-03-24T04:00:00 -0.95975 93.11501
2021-03-24T05:00:00 -1.11975 93.44951
2021-03-24T06:00:00 -0.48975 92.05393
2021-03-24T07:00:00 2.230245 86.36879
2021-03-24T08:00:00 5.250245 78.2299
2021-03-24T09:00:00 7.910245 68.35207
2021-03-24T10:00:00 10.38025 60.96332
2021-03-24T11:00:00 12.37025 53.93893
2021-03-24T12:00:00 13.98025 47.95002
2021-03-24T13:00:00 15.23025 42.60539
2021-03-24T14:00:00 15.98025 39.14084
2021-03-24T15:00:00 16.45025 36.87624
2021-03-24T16:00:00 16.50025 36.04956
2021-03-24T17:00:00 14.94025 48.32791
2021-03-24T18:00:00 12.41025 49.87519
2021-03-24T19:00:00 8.880245 63.11699
2021-03-24T20:00:00 6.010245 74.94914
2021-03-24T21:00:00 5.010245 79.84054
2021-03-24T22:00:00 4.740245 81.77606
2021-03-24T23:00:00 4.030245 84.9176
2021-03-25T00:00:00 3.440246 87.01559
2021-03-25T01:00:00 3.000246 87.66034
2021-03-25T02:00:00 2.300245 89.18924
2021-03-25T03:00:00 1.740246 89.98163
2021-03-25T04:00:00 1.580245 89.96614
2021-03-25T05:00:00 1.260245 90.39704
2021-03-25T06:00:00 1.690245 89.06178
2021-03-25T07:00:00 4.630245 82.76609
2021-03-25T08:00:00 8.340245 68.69169
2021-03-25T09:00:00 11.01025 58.8654
2021-03-25T10:00:00 12.85025 54.14692
2021-03-25T11:00:00 14.60025 48.26479
2021-03-25T12:00:00 15.78025 44.40834
2021-03-25T13:00:00 16.34025 42.08864
2021-03-25T14:00:00 16.54025 41.37706
2021-03-25T15:00:00 16.57025 39.68341
2021-03-25T16:00:00 16.25025 39.36212
2021-03-25T17:00:00 15.45025 43.19098
2021-03-25T18:00:00 12.78025 57.11197
2021-03-25T19:00:00 10.70025 64.64388
2021-03-25T20:00:00 10.05025 68.57797
2021-03-25T21:00:00 8.670245 74.85932
2021-03-25T22:00:00 7.970245 76.27849
2021-03-25T23:00:00 7.030245 80.50057
2021-03-26T00:00:00 6.280245 84.06287
2021-03-26T01:00:00 5.370246 87.17125
2021-03-26T02:00:00 4.750245 88.92262
2021-03-26T03:00:00 4.010245 90.97237
2021-03-26T04:00:00 3.590245 92.44767
2021-03-26T05:00:00 3.080246 94.35391
2021-03-26T06:00:00 3.150245 93.54952
2021-03-26T07:00:00 5.830246 85.69064
2021-03-26T08:00:00 8.760245 74.03703
2021-03-26T09:00:00 11.32025 65.56554
2021-03-26T10:00:00 13.45025 59.24095
2021-03-26T11:00:00 14.81025 55.13528
2021-03-26T12:00:00 15.89025 51.46166
2021-03-26T13:00:00 16.79025 48.24432
2021-03-26T14:00:00 17.16025 45.4097
2021-03-26T15:00:00 17.11025 46.0345
2021-03-26T16:00:00 16.70025 51.08011
2021-03-26T17:00:00 15.47025 59.747
2021-03-26T18:00:00 13.54025 61.70166
2021-03-26T19:00:00 13.62025 58.87246
2021-03-26T20:00:00 11.54025 68.80186
2021-03-26T21:00:00 11.57025 70.01318
2021-03-26T22:00:00 11.37025 74.06009
2021-03-26T23:00:00 10.92025 80.96448
2021-03-27T00:00:00 11.47025 80.3819
2021-03-27T01:00:00 11.04025 84.83003
2021-03-27T02:00:00 10.16025 87.13728
2021-03-27T03:00:00 9.290245 86.62798
2021-03-27T04:00:00 8.210245 84.89996
2021-03-27T05:00:00 7.380245 80.72459
2021-03-27T06:00:00 6.690245 78.13792
2021-03-27T07:00:00 6.840245 75.10484
2021-03-27T08:00:00 7.660245 69.83096
2021-03-27T09:00:00 8.490246 60.74544
2021-03-27T10:00:00 9.530245 51.24518
2021-03-27T11:00:00 10.16025 47.9094
2021-03-27T12:00:00 10.68025 44.82987
2021-03-27T13:00:00 11.40025 41.79384
2021-03-27T14:00:00 11.74025 40.08346
2021-03-27T15:00:00 11.63025 41.40352
2021-03-27T16:00:00 11.25025 43.12484
2021-03-27T17:00:00 10.59025 45.0343
2021-03-27T18:00:00 8.520246 53.6442
2021-03-27T19:00:00 7.380245 59.19233
2021-03-27T20:00:00 6.200245 65.06252
2021-03-27T21:00:00 5.410245 67.68962
2021-03-27T22:00:00 2.730246 80.81825
2021-03-27T23:00:00 1.510245 87.17144
2021-03-28T00:00:00 0.720245 90.01411
2021-03-28T01:00:00 0.110245 92.24043
2021-03-28T02:00:00 -0.12975 93.04129
2021-03-28T03:00:00 -0.49975 93.56502
2021-03-28T04:00:00 -0.64975 92.93211
2021-03-28T05:00:00 -1.32975 93.43362
2021-03-28T06:00:00 0.390245 88.66277
2021-03-28T07:00:00 3.470245 80.52328
2021-03-28T08:00:00 6.660245 70.06862
2021-03-28T09:00:00 9.190246 58.76974
2021-03-28T10:00:00 11.24025 48.61343
2021-03-28T11:00:00 12.65025 44.08711
2021-03-28T12:00:00 13.80025 40.41258
2021-03-28T13:00:00 14.94025 38.24257
2021-03-28T14:00:00 15.74025 34.86985
2021-03-28T15:00:00 16.29025 33.19742
2021-03-28T16:00:00 16.30025 34.13298
2021-03-28T17:00:00 14.87025 46.33098
2021-03-28T18:00:00 12.46025 47.74941
2021-03-28T19:00:00 9.320246 60.52083
2021-03-28T20:00:00 7.430245 68.34356
2021-03-28T21:00:00 6.080246 75.28632
2021-03-28T22:00:00 6.430245 71.65492
2021-03-28T23:00:00 5.640245 76.131
2021-03-29T00:00:00 4.860245 79.30008
2021-03-29T01:00:00 4.370246 81.72088
2021-03-29T02:00:00 4.150245 81.33416
2021-03-29T03:00:00 3.580246 83.8824
2021-03-29T04:00:00 3.190246 84.68552
2021-03-29T05:00:00 2.570245 85.4713
2021-03-29T06:00:00 3.360245 82.64325
2021-03-29T07:00:00 6.740245 76.49355
2021-03-29T08:00:00 9.730246 63.23406
2021-03-29T09:00:00 12.43025 54.4558
2021-03-29T10:00:00 14.90025 46.5374
2021-03-29T11:00:00 16.94025 38.70242
2021-03-29T12:00:00 18.42025 32.37878
2021-03-29T13:00:00 19.51024 28.53886
2021-03-29T14:00:00 20.49025 25.87266
2021-03-29T15:00:00 20.78025 24.95277
2021-03-29T16:00:00 20.85025 24.86313
2021-03-29T17:00:00 18.98025 41.16372
2021-03-29T18:00:00 16.10025 39.60021
2021-03-29T19:00:00 12.58025 52.29623
2021-03-29T20:00:00 9.500245 63.58506
2021-03-29T21:00:00 7.650245 71.64893
2021-03-29T22:00:00 7.940245 70.29116
2021-03-29T23:00:00 6.790245 74.61386
2021-03-30T00:00:00 5.960245 77.5683
2021-03-30T01:00:00 5.330246 79.20609
2021-03-30T02:00:00 5.380245 78.25205
2021-03-30T03:00:00 5.070245 77.86142
2021-03-30T04:00:00 5.000245 78.13082
2021-03-30T05:00:00 4.630245 77.61615
2021-03-30T06:00:00 5.030245 78.13596
2021-03-30T07:00:00 8.160246 72.72753
2021-03-30T08:00:00 11.27025 61.09978
2021-03-30T09:00:00 14.12025 53.43164
2021-03-30T10:00:00 16.47025 47.98586
2021-03-30T11:00:00 18.42025 42.22337
2021-03-30T12:00:00 20.04025 38.85048
2021-03-30T13:00:00 21.22025 35.96176
2021-03-30T14:00:00 22.04025 35.03822
2021-03-30T15:00:00 22.50025 33.92415
2021-03-30T16:00:00 22.36025 36.06828
2021-03-30T17:00:00 20.70025 52.65401
2021-03-30T18:00:00 19.32025 45.9956
2021-03-30T19:00:00 15.82025 57.739
2021-03-30T20:00:00 12.63025 67.6648
2021-03-30T21:00:00 10.90025 72.75198
2021-03-30T22:00:00 10.12025 73.16061
2021-03-30T23:00:00 9.420245 74.99701
2021-03-31T00:00:00 8.780245 77.12148
2021-03-31T01:00:00 7.700245 80.09345
2021-03-31T02:00:00 7.290245 81.28246
2021-03-31T03:00:00 6.510245 83.32323
2021-03-31T04:00:00 6.060246 84.81234
2021-03-31T05:00:00 5.550245 85.90072
2021-03-31T06:00:00 6.720245 82.70612
2021-03-31T07:00:00 10.01025 75.73424
2021-03-31T08:00:00 13.01025 64.95348
2021-03-31T09:00:00 16.08025 56.82238
2021-03-31T10:00:00 18.58025 50.2383
2021-03-31T11:00:00 20.84025 41.53154
2021-03-31T12:00:00 22.53025 36.44317
2021-03-31T13:00:00 23.66025 32.0792
2021-03-31T14:00:00 24.39025 28.09055
2021-03-31T15:00:00 24.86025 26.27142
2021-03-31T16:00:00 24.86025 26.3085
2021-03-31T17:00:00 23.09025 41.16132
2021-03-31T18:00:00 20.72025 37.66298
2021-03-31T19:00:00 16.59025 50.76754
2021-03-31T20:00:00 12.73025 66.71169
2021-03-31T21:00:00 11.78025 70.93453
2021-03-31T22:00:00 10.80025 75.29833
2021-03-31T23:00:00 10.06025 79.45588
2021-04-01T00:00:00 9.360246 81.18698
2021-04-01T01:00:00 9.000245 82.38505
2021-04-01T02:00:00 8.530246 83.47511
2021-04-01T03:00:00 8.050245 85.41464
2021-04-01T04:00:00 7.910245 87.38413
2021-04-01T05:00:00 7.750245 87.67207
2021-04-01T06:00:00 8.370246 85.3931
2021-04-01T07:00:00 11.89025 76.37579
2021-04-01T08:00:00 14.72025 65.29688
2021-04-01T09:00:00 17.53025 55.35726
2021-04-01T10:00:00 20.01024 46.41215
2021-04-01T11:00:00 21.65025 39.45442
2021-04-01T12:00:00 23.05025 34.65427
2021-04-01T13:00:00 23.99025 31.73071
2021-04-01T14:00:00 24.55025 29.87808
2021-04-01T15:00:00 24.82025 29.11208
2021-04-01T16:00:00 24.27025 33.22564
2021-04-01T17:00:00 22.48025 41.32282
2021-04-01T18:00:00 18.97025 45.58089
2021-04-01T19:00:00 16.50025 53.33371
2021-04-01T20:00:00 15.12025 57.48038
2021-04-01T21:00:00 14.86025 58.0926
2021-04-01T22:00:00 15.15025 59.46275
2021-04-01T23:00:00 12.46025 70.68073
2021-04-02T00:00:00 11.68025 74.98907
2021-04-02T01:00:00 10.67025 79.22176
2021-04-02T02:00:00 10.28025 80.31668
2021-04-02T03:00:00 10.33025 82.00009
2021-04-02T04:00:00 8.750245 87.10967
2021-04-02T05:00:00 7.720245 89.58012
2021-04-02T06:00:00 8.040245 89.54665
2021-04-02T07:00:00 9.860246 82.38855
2021-04-02T08:00:00 11.26025 73.93754
2021-04-02T09:00:00 12.95025 66.48439
2021-04-02T10:00:00 14.07025 61.02366
2021-04-02T11:00:00 15.13025 56.45876
2021-04-02T12:00:00 15.68025 52.34271
2021-04-02T13:00:00 15.88025 49.55698
2021-04-02T14:00:00 16.14025 45.62621
2021-04-02T15:00:00 15.93025 43.11746
2021-04-02T16:00:00 15.12025 43.30959
2021-04-02T17:00:00 13.92025 45.52953
2021-04-02T18:00:00 12.40025 48.38973
2021-04-02T19:00:00 10.77025 54.23331
2021-04-02T20:00:00 8.950245 59.47496
2021-04-02T21:00:00 7.230245 64.97897
2021-04-02T22:00:00 7.260245 65.31628
2021-04-02T23:00:00 6.500245 68.28354
2021-04-03T00:00:00 5.660245 70.87489
2021-04-03T01:00:00 5.250245 72.13984
2021-04-03T02:00:00 4.620246 73.92627
2021-04-03T03:00:00 4.050245 75.45056
2021-04-03T04:00:00 3.310246 77.60931
2021-04-03T05:00:00 3.030245 78.64796
2021-04-03T06:00:00 3.910245 76.03285
2021-04-03T07:00:00 5.340245 70.70371
2021-04-03T08:00:00 6.540245 62.90251
2021-04-03T09:00:00 7.830246 55.61471
2021-04-03T10:00:00 8.380245 54.87667
2021-04-03T11:00:00 9.160245 51.02618
2021-04-03T12:00:00 9.570246 47.98166
2021-04-03T13:00:00 10.00025 46.2015
2021-04-03T14:00:00 10.52025 44.48565
2021-04-03T15:00:00 10.74025 42.49636
2021-04-03T16:00:00 10.53025 41.90066
2021-04-03T17:00:00 9.860246 43.40738
2021-04-03T18:00:00 8.560246 46.38687
2021-04-03T19:00:00 7.660245 48.77747
2021-04-03T20:00:00 6.330246 53.49648
2021-04-03T21:00:00 4.880245 59.57963
2021-04-03T22:00:00 3.610245 66.37735
2021-04-03T23:00:00 3.060246 69.32683
2021-04-04T00:00:00 2.180245 72.45837
2021-04-04T01:00:00 1.510245 75.07169
2021-04-04T02:00:00 0.840245 77.79842
2021-04-04T03:00:00 0.580245 78.57018
2021-04-04T04:00:00 0.170245 79.5644
2021-04-04T05:00:00 -0.41975 81.58242
2021-04-04T06:00:00 1.720245 78.47856
2021-04-04T07:00:00 4.790245 66.36391
2021-04-04T08:00:00 7.370246 57.81873
2021-04-04T09:00:00 9.430245 49.88289
2021-04-04T10:00:00 10.83025 45.17259
2021-04-04T11:00:00 12.01025 40.7622
2021-04-04T12:00:00 13.12025 38.16673
2021-04-04T13:00:00 13.77025 36.49638
2021-04-04T14:00:00 14.24025 35.23951
2021-04-04T15:00:00 14.51025 34.29657
2021-04-04T16:00:00 14.28025 34.88998
2021-04-04T17:00:00 13.40025 36.46466
2021-04-04T18:00:00 10.17025 49.87911
2021-04-04T19:00:00 6.570245 62.81812
2021-04-04T20:00:00 6.590245 60.65314
2021-04-04T21:00:00 6.360245 61.21983
2021-04-04T22:00:00 4.540246 69.30016
2021-04-04T23:00:00 3.010245 75.80822
2021-04-05T00:00:00 2.120246 81.07833
2021-04-05T01:00:00 1.900245 81.40273
2021-04-05T02:00:00 1.490245 82.9156
2021-04-05T03:00:00 1.570245 83.23354
2021-04-05T04:00:00 1.760245 81.38083
2021-04-05T05:00:00 2.110245 80.12704
2021-04-05T06:00:00 3.050245 77.90527
2021-04-05T07:00:00 5.800245 70.39199
2021-04-05T08:00:00 8.310246 63.06768
2021-04-05T09:00:00 10.18025 57.03156
2021-04-05T10:00:00 11.77025 51.29033
2021-04-05T11:00:00 12.87025 47.42363
2021-04-05T12:00:00 14.19025 42.08321
2021-04-05T13:00:00 14.77025 37.91475
2021-04-05T14:00:00 14.50025 38.80952
2021-04-05T15:00:00 13.63025 42.40445
2021-04-05T16:00:00 12.26025 46.83734
2021-04-05T17:00:00 9.920245 56.0255
2021-04-05T18:00:00 6.030245 71.52024
2021-04-05T19:00:00 3.660245 79.96959
2021-04-05T20:00:00 3.070245 82.36057
2021-04-05T21:00:00 2.420245 82.08328
2021-04-05T22:00:00 1.790245 81.50566
2021-04-05T23:00:00 1.210245 82.50733
2021-04-06T00:00:00 0.500245 84.94927
2021-04-06T01:00:00 -0.27975 84.27474
2021-04-06T02:00:00 -1.14975 85.10629
2021-04-06T03:00:00 -1.27975 83.56341
2021-04-06T04:00:00 -2.45975 84.28108
2021-04-06T05:00:00 -2.42975 82.69548
2021-04-06T06:00:00 -0.90975 80.04058
2021-04-06T07:00:00 0.770245 71.07777
2021-04-06T08:00:00 2.030245 64.95732
2021-04-06T09:00:00 2.840245 62.09604
2021-04-06T10:00:00 3.750246 60.08324
2021-04-06T11:00:00 4.260245 56.8799
2021-04-06T12:00:00 4.910245 52.92625
2021-04-06T13:00:00 5.190245 51.89962
2021-04-06T14:00:00 5.160245 53.60125
2021-04-06T15:00:00 4.640245 56.09368
2021-04-06T16:00:00 3.750246 62.33222
2021-04-06T17:00:00 3.530245 62.50921
2021-04-06T18:00:00 2.520246 64.54271
2021-04-06T19:00:00 2.210245 63.9799
2021-04-06T20:00:00 1.740246 68.61221
2021-04-06T21:00:00 1.390245 73.82385
2021-04-06T22:00:00 1.090246 82.06259
2021-04-06T23:00:00 0.750245 84.54353
2021-04-07T00:00:00 0.400245 88.72938
2021-04-07T01:00:00 0.120245 88.24027
2021-04-07T02:00:00 0.000245 84.37696
2021-04-07T03:00:00 -0.02975 78.69806
2021-04-07T04:00:00 -0.33975 78.82098
2021-04-07T05:00:00 -0.24975 78.06862
2021-04-07T06:00:00 0.020245 75.39948
2021-04-07T07:00:00 0.660245 69.61597
2021-04-07T08:00:00 1.390245 68.27268
2021-04-07T09:00:00 2.320245 61.02737
2021-04-07T10:00:00 3.450245 53.71506
2021-04-07T11:00:00 4.180245 51.32684
2021-04-07T12:00:00 5.150245 46.18729
2021-04-07T13:00:00 5.040245 45.69558
2021-04-07T14:00:00 4.860245 47.78783
2021-04-07T15:00:00 4.830246 49.4858
2021-04-07T16:00:00 4.840245 49.37585
2021-04-07T17:00:00 4.990245 49.12104
2021-04-07T18:00:00 4.170245 53.4356
2021-04-07T19:00:00 3.090245 59.14056
2021-04-07T20:00:00 2.690246 59.66183
2021-04-07T21:00:00 2.760245 58.47022
2021-04-07T22:00:00 2.220245 59.26236
2021-04-07T23:00:00 1.690245 61.37153
2021-04-08T00:00:00 0.900245 64.27982
2021-04-08T01:00:00 0.620245 65.34705
2021-04-08T02:00:00 -0.03975 68.55998
2021-04-08T03:00:00 -0.25975 70.14996
2021-04-08T04:00:00 -0.86975 72.90836
2021-04-08T05:00:00 -0.71975 73.33062
2021-04-08T06:00:00 0.790245 68.8588
2021-04-08T07:00:00 3.020246 59.16625
2021-04-08T08:00:00 4.800245 54.4745
2021-04-08T09:00:00 6.720245 48.6793
2021-04-08T10:00:00 7.890245 42.16095
2021-04-08T11:00:00 8.800245 40.13927
2021-04-08T12:00:00 9.550245 38.09479
2021-04-08T13:00:00 10.53025 34.78568
2021-04-08T14:00:00 11.40025 31.96244
2021-04-08T15:00:00 11.94025 30.69679
2021-04-08T16:00:00 12.06025 29.33681
2021-04-08T17:00:00 11.44025 35.62394
2021-04-08T18:00:00 9.480246 39.59758
2021-04-08T19:00:00 5.960245 52.95226
2021-04-08T20:00:00 4.010245 62.30611
2021-04-08T21:00:00 1.720245 73.12261
2021-04-08T22:00:00 1.100246 75.95085
2021-04-08T23:00:00 0.910245 76.65659
2021-04-09T00:00:00 0.570245 78.50966
2021-04-09T01:00:00 0.440245 79.31339
2021-04-09T02:00:00 0.280245 80.00131
2021-04-09T03:00:00 0.310245 79.113
2021-04-09T04:00:00 0.570245 77.4007
2021-04-09T05:00:00 0.560245 77.68936
2021-04-09T06:00:00 1.600245 74.14294
2021-04-09T07:00:00 4.380245 63.43077
2021-04-09T08:00:00 7.260245 57.70425
2021-04-09T09:00:00 10.37025 45.80396
2021-04-09T10:00:00 12.63025 41.10042
2021-04-09T11:00:00 14.35025 37.81561
2021-04-09T12:00:00 15.80025 34.91329
2021-04-09T13:00:00 17.18024 30.86453
2021-04-09T14:00:00 18.08025 28.37382
2021-04-09T15:00:00 18.26024 27.86861
2021-04-09T16:00:00 17.76024 31.17154
2021-04-09T17:00:00 16.73025 37.8459
2021-04-09T18:00:00 16.33025 34.0675
2021-04-09T19:00:00 15.79025 36.12418
2021-04-09T20:00:00 14.90025 41.24442
2021-04-09T21:00:00 12.30025 53.34711
2021-04-09T22:00:00 11.43025 55.75283
2021-04-09T23:00:00 11.54025 55.86206
2021-04-10T00:00:00 12.10025 50.54318
2021-04-10T01:00:00 11.53025 52.30145
2021-04-10T02:00:00 11.43025 51.48962
2021-04-10T03:00:00 11.31025 51.15966
2021-04-10T04:00:00 11.01025 51.55619
2021-04-10T05:00:00 10.51025 56.46825
2021-04-10T06:00:00 10.07025 62.33387
2021-04-10T07:00:00 10.04025 63.66999
2021-04-10T08:00:00 10.50025 63.37541
2021-04-10T09:00:00 11.50025 57.66834
2021-04-10T10:00:00 13.65025 46.6722
2021-04-10T11:00:00 14.74025 42.98106
2021-04-10T12:00:00 15.71025 41.51514
2021-04-10T13:00:00 16.68024 40.11435
2021-04-10T14:00:00 17.41025 37.16254
2021-04-10T15:00:00 17.90025 36.25904
2021-04-10T16:00:00 17.46025 39.44065
2021-04-10T17:00:00 17.14025 40.50839
2021-04-10T18:00:00 17.01024 32.78691
2021-04-10T19:00:00 16.49025 36.09867
2021-04-10T20:00:00 15.52025 41.104
2021-04-10T21:00:00 14.82025 45.50047
2021-04-10T22:00:00 11.75025 69.18171
2021-04-10T23:00:00 10.64025 74.4911
2021-04-11T00:00:00 10.32025 76.74106
2021-04-11T01:00:00 10.04025 78.68668
2021-04-11T02:00:00 9.810246 79.74801
2021-04-11T03:00:00 9.170245 82.35124
2021-04-11T04:00:00 9.150246 82.57726
2021-04-11T05:00:00 8.570246 84.12145
2021-04-11T06:00:00 9.490245 79.75428
2021-04-11T07:00:00 11.49025 73.21837
2021-04-11T08:00:00 13.43025 65.00467
2021-04-11T09:00:00 14.86025 59.30844
2021-04-11T10:00:00 15.72025 54.65385
2021-04-11T11:00:00 16.37025 53.04166
2021-04-11T12:00:00 16.75025 52.23618
2021-04-11T13:00:00 16.34025 59.6357
2021-04-11T14:00:00 15.42025 63.5247
2021-04-11T15:00:00 13.75025 73.24058
2021-04-11T16:00:00 12.67025 78.56202
2021-04-11T17:00:00 11.99025 78.77719
2021-04-11T18:00:00 10.87025 83.83196
2021-04-11T19:00:00 10.13025 85.83234
2021-04-11T20:00:00 9.100245 89.45574
2021-04-11T21:00:00 8.350245 91.38584
2021-04-11T22:00:00 7.530245 89.62534
2021-04-11T23:00:00 6.560246 87.91747
2021-04-12T00:00:00 5.490245 86.44474
2021-04-12T01:00:00 4.220245 86.54395
2021-04-12T02:00:00 3.290246 90.58379
2021-04-12T03:00:00 2.820245 91.26337
2021-04-12T04:00:00 2.290246 93.01866
2021-04-12T05:00:00 2.180245 93.75389
2021-04-12T06:00:00 2.350246 93.42728
2021-04-12T07:00:00 2.800245 92.25449
2021-04-12T08:00:00 3.610245 88.10765
2021-04-12T09:00:00 4.810246 80.03884
2021-04-12T10:00:00 5.610245 73.4267
2021-04-12T11:00:00 6.550245 64.62682
2021-04-12T12:00:00 7.260245 57.83147
2021-04-12T13:00:00 7.780245 54.82995
2021-04-12T14:00:00 8.350245 51.20544
2021-04-12T15:00:00 8.400246 49.87569
2021-04-12T16:00:00 8.310246 50.48026
2021-04-12T17:00:00 7.920245 50.81631
2021-04-12T18:00:00 6.710245 56.87942
2021-04-12T19:00:00 4.020246 70.41864
2021-04-12T20:00:00 2.550245 77.47339
2021-04-12T21:00:00 1.380245 81.9856
2021-04-12T22:00:00 1.750246 73.29286
2021-04-12T23:00:00 1.970245 71.76811
2021-04-13T00:00:00 1.700245 73.11847
2021-04-13T01:00:00 1.340246 75.77032
2021-04-13T02:00:00 1.070245 77.14616
2021-04-13T03:00:00 0.910245 79.63101
2021-04-13T04:00:00 1.100246 81.82117
2021-04-13T05:00:00 0.810245 84.80246
2021-04-13T06:00:00 1.530245 86.79099
2021-04-13T07:00:00 3.010245 82.35169
2021-04-13T08:00:00 4.650245 74.41833
2021-04-13T09:00:00 6.040245 64.36134
2021-04-13T10:00:00 6.680245 67.9296
2021-04-13T11:00:00 7.260245 61.63019
2021-04-13T12:00:00 7.730245 59.3712
2021-04-13T13:00:00 7.940245 56.96447
2021-04-13T14:00:00 7.970245 54.92336
2021-04-13T15:00:00 7.510245 54.31195
2021-04-13T16:00:00 7.020245 54.65699
2021-04-13T17:00:00 6.690245 53.95939
2021-04-13T18:00:00 5.800245 55.95758
2021-04-13T19:00:00 4.000246 67.56258
2021-04-13T20:00:00 3.750246 64.70365
2021-04-13T21:00:00 3.770246 63.46579
2021-04-13T22:00:00 1.080245 77.84181
2021-04-13T23:00:00 0.030245 81.6538
2021-04-14T00:00:00 -0.52975 84.3657
2021-04-14T01:00:00 -1.10975 87.37734
2021-04-14T02:00:00 -1.47975 89.18826
2021-04-14T03:00:00 -1.68975 90.7183
2021-04-14T04:00:00 -1.84975 90.70273
2021-04-14T05:00:00 -1.95975 91.17027
2021-04-14T06:00:00 0.260245 84.97998
2021-04-14T07:00:00 2.600246 75.1172
2021-04-14T08:00:00 5.160245 64.57194
2021-04-14T09:00:00 7.190245 54.42248
2021-04-14T10:00:00 8.160246 46.12799
2021-04-14T11:00:00 8.780245 41.48834
2021-04-14T12:00:00 9.090245 40.19875
2021-04-14T13:00:00 8.950245 39.67279
2021-04-14T14:00:00 8.500245 45.61379
2021-04-14T15:00:00 8.370246 48.05158
2021-04-14T16:00:00 7.840245 52.59087
2021-04-14T17:00:00 7.280245 52.31323
2021-04-14T18:00:00 6.180245 57.58088
2021-04-14T19:00:00 4.500246 66.34393
2021-04-14T20:00:00 3.380245 71.43153
2021-04-14T21:00:00 2.490245 73.28135
2021-04-14T22:00:00 2.170245 72.18676
2021-04-14T23:00:00 1.730245 73.12469
2021-04-15T00:00:00 0.700245 76.96222
2021-04-15T01:00:00 -0.11975 79.87376
2021-04-15T02:00:00 -0.76975 83.32475
2021-04-15T03:00:00 -1.08975 85.49908
2021-04-15T04:00:00 -1.15975 86.52334
2021-04-15T05:00:00 -1.30975 88.07719
2021-04-15T06:00:00 0.600245 84.08511
2021-04-15T07:00:00 2.730246 75.30907
2021-04-15T08:00:00 4.770245 69.40222
2021-04-15T09:00:00 6.310246 60.75871
2021-04-15T10:00:00 7.350246 60.31949
2021-04-15T11:00:00 7.990245 54.88863
2021-04-15T12:00:00 8.280246 51.86944
2021-04-15T13:00:00 8.450246 49.23011
2021-04-15T14:00:00 8.810246 44.4298
2021-04-15T15:00:00 9.020246 43.31284
2021-04-15T16:00:00 8.920245 41.28219
2021-04-15T17:00:00 8.380245 42.2167
2021-04-15T18:00:00 7.160245 44.32545
2021-04-15T19:00:00 5.620246 52.65556
2021-04-15T20:00:00 4.160245 59.87795
2021-04-15T21:00:00 3.200245 65.10084
2021-04-15T22:00:00 2.650245 70.43119
2021-04-15T23:00:00 1.760245 72.96722
2021-04-16T00:00:00 1.140245 74.32784
2021-04-16T01:00:00 0.520245 76.41075
2021-04-16T02:00:00 -0.26975 78.59622
2021-04-16T03:00:00 -0.82975 80.17518
2021-04-16T04:00:00 -1.07975 81.16948
2021-04-16T05:00:00 -1.03975 81.85296
2021-04-16T06:00:00 1.240245 76.48988
2021-04-16T07:00:00 3.570245 68.82704
2021-04-16T08:00:00 5.340245 62.87791
2021-04-16T09:00:00 6.990245 53.64536
2021-04-16T10:00:00 7.990245 46.91144
2021-04-16T11:00:00 8.480246 43.86623
2021-04-16T12:00:00 9.240245 41.72392
2021-04-16T13:00:00 9.480246 41.26867
2021-04-16T14:00:00 9.450245 42.51376
2021-04-16T15:00:00 9.680245 42.17295
2021-04-16T16:00:00 9.270246 44.00871
2021-04-16T17:00:00 8.490246 48.4096
2021-04-16T18:00:00 7.400245 51.80686
2021-04-16T19:00:00 6.240245 56.20536
2021-04-16T20:00:00 5.040245 62.52367
2021-04-16T21:00:00 3.830246 68.98796
2021-04-16T22:00:00 2.850246 74.11835
2021-04-16T23:00:00 1.930245 77.18944
2021-04-17T00:00:00 1.070245 80.19292
2021-04-17T01:00:00 0.210245 83.53089
2021-04-17T02:00:00 -0.31975 85.47367
2021-04-17T03:00:00 -0.93975 88.05403
2021-04-17T04:00:00 -1.26975 88.94409
2021-04-17T05:00:00 -1.09975 89.89846
2021-04-17T06:00:00 1.280245 86.06168
2021-04-17T07:00:00 3.350246 79.51186
2021-04-17T08:00:00 5.220245 73.93681
2021-04-17T09:00:00 7.250245 63.67785
2021-04-17T10:00:00 8.460245 56.98086
2021-04-17T11:00:00 9.520246 55.1923
2021-04-17T12:00:00 10.13025 52.97111
2021-04-17T13:00:00 10.28025 51.79761
2021-04-17T14:00:00 10.80025 48.94608
2021-04-17T15:00:00 10.78025 48.1972
2021-04-17T16:00:00 10.63025 47.14312
2021-04-17T17:00:00 10.36025 48.1442
2021-04-17T18:00:00 9.700245 49.81536
2021-04-17T19:00:00 8.920245 51.37025
2021-04-17T20:00:00 8.800245 50.43696
2021-04-17T21:00:00 8.100245 53.84123
2021-04-17T22:00:00 7.050245 64.1394
2021-04-17T23:00:00 6.340245 67.95113
2021-04-18T00:00:00 5.730245 72.13396
2021-04-18T01:00:00 5.250245 76.61096
2021-04-18T02:00:00 4.460246 81.0882
2021-04-18T03:00:00 4.130245 83.95714
2021-04-18T04:00:00 4.140245 85.05411
2021-04-18T05:00:00 4.300245 86.55331
2021-04-18T06:00:00 5.210245 84.40244
2021-04-18T07:00:00 5.880245 82.41212
2021-04-18T08:00:00 6.510245 79.34133
2021-04-18T09:00:00 6.970245 76.42557
2021-04-18T10:00:00 7.720245 72.27894
2021-04-18T11:00:00 8.450246 69.01014
2021-04-18T12:00:00 8.810246 66.01051
2021-04-18T13:00:00 9.410245 60.80504
2021-04-18T14:00:00 9.850245 57.81036
2021-04-18T15:00:00 9.730246 57.32259
2021-04-18T16:00:00 9.880245 57.03326
2021-04-18T17:00:00 9.570246 59.03894
2021-04-18T18:00:00 8.740245 64.77859
2021-04-18T19:00:00 7.820245 67.84394
2021-04-18T20:00:00 8.010245 67.06448
2021-04-18T21:00:00 7.490245 70.3971
2021-04-18T22:00:00 6.330246 77.6322
2021-04-18T23:00:00 5.760245 79.27641
2021-04-19T00:00:00 5.120246 81.30563
2021-04-19T01:00:00 4.230246 84.21288
2021-04-19T02:00:00 3.560246 85.78197
2021-04-19T03:00:00 2.590245 87.61447
2021-04-19T04:00:00 1.940245 89.67378
2021-04-19T05:00:00 1.140245 91.65166
2021-04-19T06:00:00 3.050245 90.36654
2021-04-19T07:00:00 6.190245 81.87225
2021-04-19T08:00:00 8.350245 73.9592
2021-04-19T09:00:00 10.16025 65.39002
2021-04-19T10:00:00 11.26025 58.22292
2021-04-19T11:00:00 11.44025 57.69353
2021-04-19T12:00:00 11.47025 57.70142
2021-04-19T13:00:00 11.39025 58.13289
2021-04-19T14:00:00 11.94025 57.45745
2021-04-19T15:00:00 11.53025 59.62932
2021-04-19T16:00:00 11.61025 62.35824
2021-04-19T17:00:00 11.78025 60.71162
2021-04-19T18:00:00 10.58025 67.35627
2021-04-19T19:00:00 9.590245 71.73742
2021-04-19T20:00:00 7.450245 79.88546
2021-04-19T21:00:00 6.670245 84.29199
2021-04-19T22:00:00 6.260245 88.07225
2021-04-19T23:00:00 5.760245 89.77927
2021-04-20T00:00:00 3.720245 94.4602
2021-04-20T01:00:00 3.080246 95.374
2021-04-20T02:00:00 2.370246 95.47297
2021-04-20T03:00:00 1.250245 96.66782
2021-04-20T04:00:00 1.350246 95.20909
2021-04-20T05:00:00 2.070245 92.66615
2021-04-20T06:00:00 4.260245 92.36593
2021-04-20T07:00:00 6.550245 86.01886
2021-04-20T08:00:00 9.260245 77.14935
2021-04-20T09:00:00 11.10025 67.84966
2021-04-20T10:00:00 12.80025 63.83329
2021-04-20T11:00:00 14.04025 57.28084
2021-04-20T12:00:00 15.10025 51.56686
2021-04-20T13:00:00 15.66025 48.63529
2021-04-20T14:00:00 16.08025 45.51249
2021-04-20T15:00:00 16.38025 44.23879
2021-04-20T16:00:00 16.12025 44.69668
2021-04-20T17:00:00 15.62025 45.79808
2021-04-20T18:00:00 13.19025 56.42156
2021-04-20T19:00:00 10.43025 65.31421
2021-04-20T20:00:00 8.600245 70.3801
2021-04-20T21:00:00 6.710245 78.8113
2021-04-20T22:00:00 5.220245 86.22898
2021-04-20T23:00:00 4.800245 87.7315
2021-04-21T00:00:00 3.260245 93.48988
2021-04-21T01:00:00 2.890245 93.80131
2021-04-21T02:00:00 2.460245 94.11157
2021-04-21T03:00:00 2.140245 94.77351
2021-04-21T04:00:00 1.930245 94.28184
2021-04-21T05:00:00 2.230245 93.14898
2021-04-21T06:00:00 5.110245 86.15458
2021-04-21T07:00:00 8.600245 74.26822
2021-04-21T08:00:00 11.42025 63.46196
2021-04-21T09:00:00 13.68025 55.99912
2021-04-21T10:00:00 15.16025 53.97637
2021-04-21T11:00:00 16.59025 47.18861
2021-04-21T12:00:00 17.58025 39.95438
2021-04-21T13:00:00 17.86025 36.92603
2021-04-21T14:00:00 17.84025 35.49704
2021-04-21T15:00:00 17.65025 33.84587
2021-04-21T16:00:00 17.48025 35.7989
2021-04-21T17:00:00 15.72025 50.10419
2021-04-21T18:00:00 13.48025 59.4968
2021-04-21T19:00:00 10.78025 68.20822
2021-04-21T20:00:00 10.60025 66.79518
2021-04-21T21:00:00 10.12025 68.44852
2021-04-21T22:00:00 7.280245 81.51057
2021-04-21T23:00:00 6.410245 85.39752
2021-04-22T00:00:00 5.840245 87.9044
2021-04-22T01:00:00 5.070245 90.16237
2021-04-22T02:00:00 4.900245 91.0476
2021-04-22T03:00:00 4.760245 91.6196
2021-04-22T04:00:00 5.110245 90.48617
2021-04-22T05:00:00 5.660245 88.01006
2021-04-22T06:00:00 7.460245 84.57043
2021-04-22T07:00:00 9.390245 76.47426
2021-04-22T08:00:00 11.10025 70.35521
2021-04-22T09:00:00 12.87025 65.19172
2021-04-22T10:00:00 14.53025 63.18721
2021-04-22T11:00:00 15.89025 58.35416
2021-04-22T12:00:00 16.41025 53.45682
2021-04-22T13:00:00 16.21025 51.80076
2021-04-22T14:00:00 16.67025 47.04673
2021-04-22T15:00:00 16.82025 43.59303
2021-04-22T16:00:00 16.67025 39.59998
2021-04-22T17:00:00 15.75025 36.56034
2021-04-22T18:00:00 14.06025 35.52377
2021-04-22T19:00:00 11.97025 36.59739
2021-04-22T20:00:00 10.18025 42.83204
2021-04-22T21:00:00 8.590245 50.26432
2021-04-22T22:00:00 6.700245 55.34095
2021-04-22T23:00:00 5.800245 60.93983
2021-04-23T00:00:00 5.020245 64.63287
2021-04-23T01:00:00 3.760245 69.58677
2021-04-23T02:00:00 3.170245 72.23663
2021-04-23T03:00:00 2.680245 74.74497
2021-04-23T04:00:00 2.120246 76.65453
2021-04-23T05:00:00 2.190245 79.5519
2021-04-23T06:00:00 5.230245 69.80915
2021-04-23T07:00:00 8.040245 57.99882
2021-04-23T08:00:00 10.39025 48.96919
2021-04-23T09:00:00 12.46025 44.06243
2021-04-23T10:00:00 14.60025 40.79993
2021-04-23T11:00:00 16.11025 36.37778
2021-04-23T12:00:00 17.25025 32.47856
2021-04-23T13:00:00 18.19025 29.50723
2021-04-23T14:00:00 18.88025 27.58003
2021-04-23T15:00:00 19.16025 26.33612
2021-04-23T16:00:00 19.02025 26.0843
2021-04-23T17:00:00 17.99025 29.29836
2021-04-23T18:00:00 15.68025 34.77564
2021-04-23T19:00:00 12.39025 45.34023
2021-04-23T20:00:00 10.06025 54.27155
2021-04-23T21:00:00 9.290245 56.79234
2021-04-23T22:00:00 7.350246 62.78427
2021-04-23T23:00:00 5.920245 69.20163
2021-04-24T00:00:00 4.930245 73.71886
2021-04-24T01:00:00 3.590245 78.17114
2021-04-24T02:00:00 2.990245 80.2703
2021-04-24T03:00:00 2.380245 83.34975
2021-04-24T04:00:00 1.720245 86.17988
2021-04-24T05:00:00 2.090245 87.04827
2021-04-24T06:00:00 5.910245 74.2318
2021-04-24T07:00:00 9.220245 60.10499
2021-04-24T08:00:00 11.94025 49.38337
2021-04-24T09:00:00 14.08025 43.40575
2021-04-24T10:00:00 16.32025 40.12189
2021-04-24T11:00:00 17.98025 36.69923
2021-04-24T12:00:00 19.34025 33.88443
2021-04-24T13:00:00 20.35025 30.54899
2021-04-24T14:00:00 21.03025 28.5436
2021-04-24T15:00:00 21.23025 27.29567
2021-04-24T16:00:00 20.90025 27.67724
2021-04-24T17:00:00 19.84025 32.67977
2021-04-24T18:00:00 17.14025 39.34583
2021-04-24T19:00:00 13.16025 50.66323
2021-04-24T20:00:00 11.07025 57.76048
2021-04-24T21:00:00 9.750245 63.28398
2021-04-24T22:00:00 8.680245 66.07474
2021-04-24T23:00:00 7.990245 69.10722
2021-04-25T00:00:00 7.470245 70.54425
2021-04-25T01:00:00 8.420245 65.63718
2021-04-25T02:00:00 7.820245 69.26819
2021-04-25T03:00:00 6.580246 75.05629
2021-04-25T04:00:00 6.030245 78.08204
2021-04-25T05:00:00 4.930245 81.86304
2021-04-25T06:00:00 7.330246 75.73254
2021-04-25T07:00:00 9.390245 64.60952
2021-04-25T08:00:00 11.35025 56.41115
2021-04-25T09:00:00 13.37025 50.1845
2021-04-25T10:00:00 15.30025 46.55426
2021-04-25T11:00:00 16.75025 41.55679
2021-04-25T12:00:00 17.99025 38.16608
2021-04-25T13:00:00 18.75025 35.136
2021-04-25T14:00:00 19.08025 33.59123
2021-04-25T15:00:00 19.15025 32.89868
2021-04-25T16:00:00 18.57025 33.53682
2021-04-25T17:00:00 17.49025 35.24071
2021-04-25T18:00:00 15.75025 36.93311
2021-04-25T19:00:00 13.63025 41.94607
2021-04-25T20:00:00 12.26025 45.93049
2021-04-25T21:00:00 10.81025 50.90626
2021-04-25T22:00:00 10.00025 52.28501
2021-04-25T23:00:00 8.760245 55.99322
2021-04-26T00:00:00 7.890245 58.46838
2021-04-26T01:00:00 7.010245 61.02915
2021-04-26T02:00:00 6.610245 63.01202
2021-04-26T03:00:00 6.010245 66.84592
2021-04-26T04:00:00 5.450245 69.0975
2021-04-26T05:00:00 5.660245 69.95387
2021-04-26T06:00:00 7.240245 63.03116
2021-04-26T07:00:00 8.920245 55.3079
2021-04-26T08:00:00 10.61025 49.68029
2021-04-26T09:00:00 12.15025 45.89796
2021-04-26T10:00:00 14.15025 43.39531
2021-04-26T11:00:00 15.93025 39.91991
2021-04-26T12:00:00 17.27025 36.09759
2021-04-26T13:00:00 18.44025 32.52501
2021-04-26T14:00:00 18.96025 30.53933
2021-04-26T15:00:00 19.27025 28.65641
2021-04-26T16:00:00 18.94025 28.33273
2021-04-26T17:00:00 17.92025 31.15073
2021-04-26T18:00:00 15.48025 38.5159
2021-04-26T19:00:00 12.51025 45.47453
2021-04-26T20:00:00 11.01025 50.12198
2021-04-26T21:00:00 9.620245 53.71837
2021-04-26T22:00:00 8.290245 58.48957
2021-04-26T23:00:00 7.460245 61.05578
2021-04-27T00:00:00 6.620246 63.29121
2021-04-27T01:00:00 5.420245 66.41542
2021-04-27T02:00:00 4.760245 66.99526
2021-04-27T03:00:00 4.710245 67.42884
2021-04-27T04:00:00 3.680245 71.02258
2021-04-27T05:00:00 3.010245 75.69668
2021-04-27T06:00:00 6.700245 62.8048
2021-04-27T07:00:00 9.130245 51.20498
2021-04-27T08:00:00 11.19025 45.08176
2021-04-27T09:00:00 12.85025 40.95675
2021-04-27T10:00:00 14.66025 38.8295
2021-04-27T11:00:00 16.13025 37.50414
2021-04-27T12:00:00 17.51024 35.09496
2021-04-27T13:00:00 18.44025 32.19841
2021-04-27T14:00:00 19.06025 29.89074
2021-04-27T15:00:00 19.26024 29.03054
2021-04-27T16:00:00 19.00025 29.03946
2021-04-27T17:00:00 18.18024 30.95657
2021-04-27T18:00:00 16.22025 34.43335
2021-04-27T19:00:00 12.06025 48.36076
2021-04-27T20:00:00 9.540245 57.85299
2021-04-27T21:00:00 10.24025 52.16349
2021-04-27T22:00:00 9.110246 56.12964
2021-04-27T23:00:00 8.920245 57.89708
2021-04-28T00:00:00 8.410246 60.37452
2021-04-28T01:00:00 8.020246 64.28172
2021-04-28T02:00:00 6.510245 74.88205
2021-04-28T03:00:00 6.290245 78.68593
2021-04-28T04:00:00 6.540245 77.6129
2021-04-28T05:00:00 7.350246 74.82591
2021-04-28T06:00:00 9.020246 71.06828
2021-04-28T07:00:00 11.49025 60.55338
2021-04-28T08:00:00 13.91025 51.12707
2021-04-28T09:00:00 16.42025 46.77815
2021-04-28T10:00:00 18.20025 43.50607
2021-04-28T11:00:00 19.49025 38.98856
2021-04-28T12:00:00 20.00025 35.37937
2021-04-28T13:00:00 20.44025 33.20656
2021-04-28T14:00:00 20.63025 33.28564
2021-04-28T15:00:00 19.00025 40.00624
2021-04-28T16:00:00 16.76024 57.27021
2021-04-28T17:00:00 15.63025 69.1823
2021-04-28T18:00:00 14.14025 81.25057
2021-04-28T19:00:00 13.18025 88.0827
2021-04-28T20:00:00 12.90025 89.95643
2021-04-28T21:00:00 12.69025 92.67616
2021-04-28T22:00:00 12.55025 91.86902
2021-04-28T23:00:00 12.23025 92.09356
2021-04-29T00:00:00 11.83025 90.59765
2021-04-29T01:00:00 11.30025 87.60877
2021-04-29T02:00:00 10.87025 87.09164
2021-04-29T03:00:00 10.59025 87.18151
2021-04-29T04:00:00 10.45025 87.88297
2021-04-29T05:00:00 10.46025 87.52542
2021-04-29T06:00:00 11.19025 85.65885
2021-04-29T07:00:00 11.90025 82.15747
2021-04-29T08:00:00 12.61025 78.12721
2021-04-29T09:00:00 13.32025 73.86073
2021-04-29T10:00:00 13.85025 74.45918
2021-04-29T11:00:00 14.16025 75.27175
2021-04-29T12:00:00 14.58025 70.14565
2021-04-29T13:00:00 15.21025 64.08478
2021-04-29T14:00:00 15.80025 57.29917
2021-04-29T15:00:00 15.66025 55.32228
2021-04-29T16:00:00 15.68025 53.33382
2021-04-29T17:00:00 15.19025 55.77495
2021-04-29T18:00:00 13.87025 65.8242
2021-04-29T19:00:00 14.33025 55.39273
2021-04-29T20:00:00 13.10025 61.25242
2021-04-29T21:00:00 12.17025 66.26428
2021-04-29T22:00:00 12.08025 68.25138
2021-04-29T23:00:00 10.54025 76.30186
2021-04-30T00:00:00 10.68025 72.05475
2021-04-30T01:00:00 10.14025 72.25037
2021-04-30T02:00:00 9.710245 75.47007
2021-04-30T03:00:00 9.580245 76.98875
2021-04-30T04:00:00 9.280245 79.16911
2021-04-30T05:00:00 9.270246 78.6728
2021-04-30T06:00:00 9.290245 77.91196
2021-04-30T07:00:00 9.320246 77.80832
2021-04-30T08:00:00 9.130245 79.53246
2021-04-30T09:00:00 8.780245 81.44247
2021-04-30T10:00:00 8.940246 81.35217
2021-04-30T11:00:00 8.660245 82.39556
2021-04-30T12:00:00 8.080246 83.82475
2021-04-30T13:00:00 7.570245 86.01653
2021-04-30T14:00:00 7.380245 88.43261
2021-04-30T15:00:00 7.600246 85.71989
2021-04-30T16:00:00 7.670245 86.3892
2021-04-30T17:00:00 7.690245 86.63291
2021-04-30T18:00:00 7.570245 88.32813
2021-04-30T19:00:00 7.450245 91.12679
2021-04-30T20:00:00 7.360245 92.26655
2021-04-30T21:00:00 7.200245 92.76965
2021-04-30T22:00:00 6.670245 93.12282
2021-04-30T23:00:00 5.770245 95.44407
2021-05-01T00:00:00 5.310246 96.16214
2021-05-01T01:00:00 4.840245 96.95817
2021-05-01T02:00:00 5.290245 96.63537
2021-05-01T03:00:00 5.300245 96.56793
2021-05-01T04:00:00 5.750245 95.77803
2021-05-01T05:00:00 5.750245 95.71096
2021-05-01T06:00:00 6.480245 95.07997
2021-05-01T07:00:00 7.210245 93.02845
2021-05-01T08:00:00 7.890245 88.85214
2021-05-01T09:00:00 8.570246 85.89204
2021-05-01T10:00:00 8.770246 83.73879
2021-05-01T11:00:00 9.540245 80.15035
2021-05-01T12:00:00 9.900246 80.59367
2021-05-01T13:00:00 9.840245 83.70213
2021-05-01T14:00:00 9.480246 86.82742
2021-05-01T15:00:00 9.320246 89.90569
2021-05-01T16:00:00 9.290245 90.08826
2021-05-01T17:00:00 9.190246 90.45137
2021-05-01T18:00:00 8.770246 91.98438
2021-05-01T19:00:00 8.430245 92.27739
2021-05-01T20:00:00 8.130245 93.08751
2021-05-01T21:00:00 7.810246 94.42657
2021-05-01T22:00:00 7.330246 92.45686
2021-05-01T23:00:00 7.300245 90.86166
2021-05-02T00:00:00 7.260245 90.03937
2021-05-02T01:00:00 7.170245 89.96874
2021-05-02T02:00:00 7.090245 90.65475
2021-05-02T03:00:00 6.920245 91.59448
2021-05-02T04:00:00 6.780245 92.74129
2021-05-02T05:00:00 6.930245 93.01013
2021-05-02T06:00:00 7.430245 91.63311
2021-05-02T07:00:00 8.040245 81.84979
2021-05-02T08:00:00 8.880245 78.39042
2021-05-02T09:00:00 9.820246 76.70874
2021-05-02T10:00:00 11.03025 67.17314
2021-05-02T11:00:00 11.02025 64.71885
2021-05-02T12:00:00 10.49025 62.57003
2021-05-02T13:00:00 10.41025 62.59485
2021-05-02T14:00:00 9.780245 67.84567
2021-05-02T15:00:00 9.540245 73.51128
2021-05-02T16:00:00 9.620245 75.92944
2021-05-02T17:00:00 8.910245 80.50244
2021-05-02T18:00:00 8.340245 86.04476
2021-05-02T19:00:00 8.710245 78.74759
2021-05-02T20:00:00 6.500245 90.47852
2021-05-02T21:00:00 5.510245 92.39253
2021-05-02T22:00:00 5.110245 93.94273
2021-05-02T23:00:00 4.720245 94.25165
2021-05-03T00:00:00 3.920245 94.94415
2021-05-03T01:00:00 3.680245 94.1885
2021-05-03T02:00:00 2.960246 94.21112
2021-05-03T03:00:00 2.470245 94.79311
2021-05-03T04:00:00 2.420245 94.04113
2021-05-03T05:00:00 2.960246 92.06784
2021-05-03T06:00:00 4.690245 90.57806
2021-05-03T07:00:00 6.810246 84.30994
2021-05-03T08:00:00 8.910245 75.37869
2021-05-03T09:00:00 10.64025 63.49883
2021-05-03T10:00:00 12.12025 50.80339
2021-05-03T11:00:00 13.36025 43.78923
2021-05-03T12:00:00 13.85025 40.45704
2021-05-03T13:00:00 14.66025 39.76952
2021-05-03T14:00:00 14.99025 38.61985
2021-05-03T15:00:00 15.20025 37.44191
2021-05-03T16:00:00 15.28025 38.04066
2021-05-03T17:00:00 14.94025 39.65252
2021-05-03T18:00:00 13.37025 47.56902
2021-05-03T19:00:00 11.51025 54.71
2021-05-03T20:00:00 10.24025 60.75463
2021-05-03T21:00:00 7.580246 72.04486
2021-05-03T22:00:00 5.920245 76.45611
2021-05-03T23:00:00 5.450245 78.48933
2021-05-04T00:00:00 5.540245 76.88427
2021-05-04T01:00:00 6.110245 73.15556
2021-05-04T02:00:00 6.750245 68.83515
2021-05-04T03:00:00 7.390245 64.97024
2021-05-04T04:00:00 7.810246 63.72271
2021-05-04T05:00:00 8.450246 63.42077
2021-05-04T06:00:00 10.16025 59.53206
2021-05-04T07:00:00 12.27025 51.65293
2021-05-04T08:00:00 13.77025 50.04867
2021-05-04T09:00:00 15.52025 46.15908
2021-05-04T10:00:00 16.39025 44.83839
2021-05-04T11:00:00 16.45025 44.66665
2021-05-04T12:00:00 16.81025 43.62083
2021-05-04T13:00:00 16.93024 42.83309
2021-05-04T14:00:00 16.63025 44.97126
2021-05-04T15:00:00 15.40025 53.29503
2021-05-04T16:00:00 14.08025 61.74714
2021-05-04T17:00:00 13.55025 63.48029
2021-05-04T18:00:00 12.88025 67.81232
2021-05-04T19:00:00 12.58025 69.93101
2021-05-04T20:00:00 12.35025 70.85343
2021-05-04T21:00:00 12.05025 72.17284
2021-05-04T22:00:00 11.56025 78.38757
2021-05-04T23:00:00 11.62025 77.172
2021-05-05T00:00:00 11.51025 77.84454
2021-05-05T01:00:00 11.10025 80.32761
2021-05-05T02:00:00 10.19025 86.42845
2021-05-05T03:00:00 8.940246 91.93328
2021-05-05T04:00:00 7.220245 92.89995
2021-05-05T05:00:00 6.400245 90.78779
2021-05-05T06:00:00 6.960245 88.76302
2021-05-05T07:00:00 8.400246 79.58536
2021-05-05T08:00:00 9.450245 68.78709
2021-05-05T09:00:00 10.04025 59.79984
2021-05-05T10:00:00 10.95025 45.97707
2021-05-05T11:00:00 11.36025 40.95644
2021-05-05T12:00:00 11.76025 38.40292
2021-05-05T13:00:00 12.06025 41.16926
2021-05-05T14:00:00 12.23025 39.67326
2021-05-05T15:00:00 12.24025 39.06607
2021-05-05T16:00:00 12.04025 39.3237
2021-05-05T17:00:00 11.55025 40.29305
2021-05-05T18:00:00 10.77025 41.32518
2021-05-05T19:00:00 10.00025 45.28996
2021-05-05T20:00:00 9.250245 51.99533
2021-05-05T21:00:00 7.820245 61.37028
2021-05-05T22:00:00 7.790245 63.35037
2021-05-05T23:00:00 7.250245 66.60129
2021-05-06T00:00:00 7.190245 66.92489
2021-05-06T01:00:00 6.910245 68.47414
2021-05-06T02:00:00 6.890245 71.08284
2021-05-06T03:00:00 7.560246 69.8095
2021-05-06T04:00:00 7.630245 69.77455
2021-05-06T05:00:00 7.640245 72.67609
2021-05-06T06:00:00 9.320246 66.41086
2021-05-06T07:00:00 10.45025 57.1037
2021-05-06T08:00:00 10.29025 60.16377
2021-05-06T09:00:00 9.570246 67.84721
2021-05-06T10:00:00 8.840245 80.77302
2021-05-06T11:00:00 8.750245 85.91261
2021-05-06T12:00:00 9.370245 88.98995
2021-05-06T13:00:00 9.820246 89.4578
2021-05-06T14:00:00 10.60025 90.19607
2021-05-06T15:00:00 11.15025 90.54536
2021-05-06T16:00:00 11.55025 90.08989
2021-05-06T17:00:00 11.98025 88.38577
2021-05-06T18:00:00 11.89025 85.04424
2021-05-06T19:00:00 11.30025 84.57274
2021-05-06T20:00:00 10.96025 84.24444
2021-05-06T21:00:00 10.65025 84.43707
2021-05-06T22:00:00 10.82025 81.67474
2021-05-06T23:00:00 10.31025 83.7617
2021-05-07T00:00:00 10.09025 83.50403
2021-05-07T01:00:00 9.900246 84.46162
2021-05-07T02:00:00 9.990245 84.82142
2021-05-07T03:00:00 9.970245 84.52822
2021-05-07T04:00:00 9.680245 87.56663
2021-05-07T05:00:00 9.140245 91.44493
2021-05-07T06:00:00 8.900246 87.48708
2021-05-07T07:00:00 7.950245 90.97688
2021-05-07T08:00:00 8.190246 87.29219
2021-05-07T09:00:00 8.820246 78.7653
2021-05-07T10:00:00 10.59025 61.84469
2021-05-07T11:00:00 11.64025 53.46949
2021-05-07T12:00:00 12.60025 45.96434
2021-05-07T13:00:00 13.53025 38.79954
2021-05-07T14:00:00 14.08025 33.9397
2021-05-07T15:00:00 14.28025 32.64252
2021-05-07T16:00:00 14.37025 32.71818
2021-05-07T17:00:00 13.80025 38.26084
2021-05-07T18:00:00 12.14025 52.62249
2021-05-07T19:00:00 11.50025 49.0429
2021-05-07T20:00:00 9.820246 56.44463
2021-05-07T21:00:00 8.220245 63.36446
2021-05-07T22:00:00 6.680245 71.60346
2021-05-07T23:00:00 4.720245 83.49542
2021-05-08T00:00:00 4.450245 86.81924
2021-05-08T01:00:00 3.830246 89.66271
2021-05-08T02:00:00 3.470245 90.14526
2021-05-08T03:00:00 3.370246 90.13602
2021-05-08T04:00:00 3.080246 90.36929
2021-05-08T05:00:00 4.170245 87.47471
2021-05-08T06:00:00 6.670245 82.17416
2021-05-08T07:00:00 9.050245 71.67921
2021-05-08T08:00:00 11.40025 65.72173
2021-05-08T09:00:00 13.70025 60.25998
2021-05-08T10:00:00 15.47025 54.5116
2021-05-08T11:00:00 16.86025 49.69323
2021-05-08T12:00:00 18.14025 46.94231
2021-05-08T13:00:00 19.02025 45.97373
2021-05-08T14:00:00 19.87025 44.2604
2021-05-08T15:00:00 19.90025 46.41287
2021-05-08T16:00:00 20.69025 43.68041
2021-05-08T17:00:00 21.05025 42.86544
2021-05-08T18:00:00 19.33025 56.31147
2021-05-08T19:00:00 15.45025 66.62384
2021-05-08T20:00:00 12.87025 79.98769
2021-05-08T21:00:00 11.77025 83.94331
2021-05-08T22:00:00 11.42025 85.10533
2021-05-08T23:00:00 11.24025 85.43207
2021-05-09T00:00:00 10.83025 87.08753
2021-05-09T01:00:00 10.52025 88.30953
2021-05-09T02:00:00 10.11025 88.6933
2021-05-09T03:00:00 9.780245 88.8448
2021-05-09T04:00:00 9.190246 88.36395
2021-05-09T05:00:00 10.37025 84.51875
2021-05-09T06:00:00 13.57025 75.98746
2021-05-09T07:00:00 16.30025 63.34079
2021-05-09T08:00:00 18.62025 54.00831
2021-05-09T09:00:00 20.92025 47.36803
2021-05-09T10:00:00 23.15025 43.75546
2021-05-09T11:00:00 24.75025 40.47847
2021-05-09T12:00:00 26.11025 37.59612
2021-05-09T13:00:00 26.93024 35.40726
2021-05-09T14:00:00 27.58025 34.42102
2021-05-09T15:00:00 27.87025 33.68139
2021-05-09T16:00:00 28.03025 31.57643
2021-05-09T17:00:00 27.12025 41.0376
2021-05-09T18:00:00 24.94025 43.81857
2021-05-09T19:00:00 22.25025 48.34641
2021-05-09T20:00:00 19.92025 55.71183
2021-05-09T21:00:00 18.16025 61.46561
2021-05-09T22:00:00 18.10025 61.9886
2021-05-09T23:00:00 17.11025 62.67802
2021-05-10T00:00:00 17.27025 59.46042
2021-05-10T01:00:00 16.25025 62.64658
2021-05-10T02:00:00 15.17025 66.74381
2021-05-10T03:00:00 15.07025 69.67699
2021-05-10T04:00:00 15.60025 68.11242
2021-05-10T05:00:00 15.34025 71.58544
2021-05-10T06:00:00 16.43025 71.03162
2021-05-10T07:00:00 17.80025 67.03752
2021-05-10T08:00:00 18.00025 67.39181
2021-05-10T09:00:00 17.43024 71.45917
2021-05-10T10:00:00 16.41025 77.68037
2021-05-10T11:00:00 15.76025 78.56176
2021-05-10T12:00:00 15.24025 80.48789
2021-05-10T13:00:00 15.41025 80.24554
2021-05-10T14:00:00 15.34025 79.23123
2021-05-10T15:00:00 15.20025 80.58907
2021-05-10T16:00:00 14.95025 83.04886
2021-05-10T17:00:00 14.67025 84.56849
2021-05-10T18:00:00 14.15025 86.49474
2021-05-10T19:00:00 13.85025 87.27153
2021-05-10T20:00:00 13.58025 88.76527
2021-05-10T21:00:00 13.36025 90.23184
2021-05-10T22:00:00 12.89025 90.67726
2021-05-10T23:00:00 12.45025 93.28084
2021-05-11T00:00:00 12.26025 91.17728
2021-05-11T01:00:00 11.88025 93.74885
2021-05-11T02:00:00 11.76025 95.32156
2021-05-11T03:00:00 11.94025 96.73587
2021-05-11T04:00:00 11.89025 97.25069
2021-05-11T05:00:00 12.04025 97.12543
2021-05-11T06:00:00 12.25025 96.87358
2021-05-11T07:00:00 12.52025 95.1627
2021-05-11T08:00:00 12.55025 93.65926
2021-05-11T09:00:00 12.67025 91.38881
2021-05-11T10:00:00 13.55025 85.06164
2021-05-11T11:00:00 12.86025 85.55541
2021-05-11T12:00:00 12.81025 84.06956
2021-05-11T13:00:00 12.48025 87.66443
2021-05-11T14:00:00 13.13025 84.39021
2021-05-11T15:00:00 13.33025 86.00791
2021-05-11T16:00:00 13.54025 86.83602
2021-05-11T17:00:00 13.63025 85.98243
2021-05-11T18:00:00 12.84025 89.71217
2021-05-11T19:00:00 12.30025 90.45156
2021-05-11T20:00:00 11.93025 91.64352
2021-05-11T21:00:00 11.65025 92.30307
2021-05-11T22:00:00 11.22025 90.4287
2021-05-11T23:00:00 10.83025 89.24208
2021-05-12T00:00:00 10.44025 89.63335
2021-05-12T01:00:00 10.21025 88.82353
2021-05-12T02:00:00 9.940246 87.59283
2021-05-12T03:00:00 9.750245 87.33392
2021-05-12T04:00:00 9.460245 88.45052
2021-05-12T05:00:00 9.570246 88.58231
2021-05-12T06:00:00 10.16025 85.65956
2021-05-12T07:00:00 11.07025 80.54357
2021-05-12T08:00:00 12.04025 72.46964
2021-05-12T09:00:00 12.91025 64.84065
2021-05-12T10:00:00 14.09025 66.05408
2021-05-12T11:00:00 14.66025 61.25192
2021-05-12T12:00:00 15.47025 55.46365
2021-05-12T13:00:00 15.88025 53.79612
2021-05-12T14:00:00 15.97025 52.31292
2021-05-12T15:00:00 15.83025 53.44841
2021-05-12T16:00:00 15.69025 55.71363
2021-05-12T17:00:00 15.44025 57.56255
2021-05-12T18:00:00 14.14025 66.47333
2021-05-12T19:00:00 12.15025 76.89125
2021-05-12T20:00:00 10.74025 81.60763
2021-05-12T21:00:00 9.480246 88.33113
2021-05-12T22:00:00 9.020246 92.69783
2021-05-12T23:00:00 8.430245 94.71911
2021-05-13T00:00:00 7.600246 96.65697
2021-05-13T01:00:00 7.170245 97.04281
2021-05-13T02:00:00 7.440245 95.52303
2021-05-13T03:00:00 7.600246 96.25799
2021-05-13T04:00:00 7.690245 96.72685
2021-05-13T05:00:00 8.530246 95.31028
2021-05-13T06:00:00 10.08025 89.72476
2021-05-13T07:00:00 10.97025 84.70627
2021-05-13T08:00:00 11.61025 80.73201
2021-05-13T09:00:00 11.27025 79.42299
2021-05-13T10:00:00 11.32025 81.68819
2021-05-13T11:00:00 11.51025 74.80397
2021-05-13T12:00:00 12.29025 64.42774
2021-05-13T13:00:00 13.36025 57.34411
2021-05-13T14:00:00 14.09025 53.31099
2021-05-13T15:00:00 14.19025 52.26226
2021-05-13T16:00:00 14.12025 53.92133
2021-05-13T17:00:00 13.88025 57.27919
2021-05-13T18:00:00 12.92025 67.12322
2021-05-13T19:00:00 12.60025 62.72898
2021-05-13T20:00:00 11.35025 68.85719
2021-05-13T21:00:00 10.71025 72.06065
2021-05-13T22:00:00 8.330246 87.06504
2021-05-13T23:00:00 7.350246 90.80253
2021-05-14T00:00:00 6.480245 93.24056
2021-05-14T01:00:00 5.990245 93.93018
2021-05-14T02:00:00 5.210245 95.4836
2021-05-14T03:00:00 5.420245 95.82993
2021-05-14T04:00:00 5.260245 96.36294
2021-05-14T05:00:00 6.340245 93.36196
2021-05-14T06:00:00 8.750245 86.68903
2021-05-14T07:00:00 11.12025 77.99531
2021-05-14T08:00:00 12.98025 69.05801
2021-05-14T09:00:00 14.67025 59.67133
2021-05-14T10:00:00 15.70025 55.94744
2021-05-14T11:00:00 16.01025 50.6067
2021-05-14T12:00:00 16.28025 47.73105
2021-05-14T13:00:00 15.64025 49.69781
2021-05-14T14:00:00 15.15025 53.82364
2021-05-14T15:00:00 14.45025 60.15432
2021-05-14T16:00:00 13.95025 63.48659
2021-05-14T17:00:00 13.97025 62.70844
2021-05-14T18:00:00 13.27025 65.01299
2021-05-14T19:00:00 11.92025 71.60236
2021-05-14T20:00:00 11.02025 76.91286
2021-05-14T21:00:00 10.57025 79.64392
2021-05-14T22:00:00 9.650246 84.60566
2021-05-14T23:00:00 9.300245 85.32526
2021-05-15T00:00:00 9.330245 84.91765
2021-05-15T01:00:00 8.490246 87.08209
2021-05-15T02:00:00 8.310246 86.94216
2021-05-15T03:00:00 8.450246 86.29646
2021-05-15T04:00:00 8.870245 85.62953
2021-05-15T05:00:00 9.140245 85.71987
2021-05-15T06:00:00 10.22025 81.2544
2021-05-15T07:00:00 10.90025 78.12084
2021-05-15T08:00:00 12.10025 70.9988
2021-05-15T09:00:00 12.94025 65.47897
2021-05-15T10:00:00 13.96025 61.9745
2021-05-15T11:00:00 14.34025 59.34191
2021-05-15T12:00:00 13.86025 59.63384
2021-05-15T13:00:00 13.76025 63.00563
2021-05-15T14:00:00 12.26025 76.43861
2021-05-15T15:00:00 11.21025 89.51676
2021-05-15T16:00:00 10.55025 91.23767
2021-05-15T17:00:00 10.50025 89.1525
2021-05-15T18:00:00 10.43025 88.60207
2021-05-15T19:00:00 10.11025 88.39117
2021-05-15T20:00:00 9.760245 88.53952
2021-05-15T21:00:00 9.430245 88.56912
2021-05-15T22:00:00 8.670245 88.80273
2021-05-15T23:00:00 8.730246 88.93095
2021-05-16T00:00:00 8.830245 89.49338
2021-05-16T01:00:00 8.840245 90.23644
2021-05-16T02:00:00 8.800245 90.98093
2021-05-16T03:00:00 8.920245 91.61704
2021-05-16T04:00:00 9.030245 92.00266
2021-05-16T05:00:00 9.410245 91.90347
2021-05-16T06:00:00 10.48025 88.667
2021-05-16T07:00:00 11.51025 85.11571
2021-05-16T08:00:00 12.98025 75.62942
2021-05-16T09:00:00 13.87025 67.23787
2021-05-16T10:00:00 14.83025 66.08263
2021-05-16T11:00:00 14.61025 70.43722
2021-05-16T12:00:00 14.16025 73.96309
2021-05-16T13:00:00 13.55025 76.44782
2021-05-16T14:00:00 12.79025 86.1232
2021-05-16T15:00:00 13.12025 83.4885
2021-05-16T16:00:00 13.22025 87.38477
2021-05-16T17:00:00 12.83025 86.35854
2021-05-16T18:00:00 12.26025 91.11636
2021-05-16T19:00:00 11.78025 90.65469
2021-05-16T20:00:00 11.60025 85.35705
2021-05-16T21:00:00 11.46025 83.79123
2021-05-16T22:00:00 10.61025 88.9203
2021-05-16T23:00:00 10.27025 87.26773
2021-05-17T00:00:00 9.990245 87.65779
2021-05-17T01:00:00 9.970245 86.4638
2021-05-17T02:00:00 9.760245 87.33495
2021-05-17T03:00:00 9.980246 85.46301
2021-05-17T04:00:00 9.790245 86.32571
2021-05-17T05:00:00 9.760245 87.1555
2021-05-17T06:00:00 9.880245 86.69144
2021-05-17T07:00:00 10.49025 84.53326
2021-05-17T08:00:00 10.90025 81.68586
2021-05-17T09:00:00 11.56025 79.25019
2021-05-17T10:00:00 12.27025 77.86077
2021-05-17T11:00:00 13.10025 75.18903
2021-05-17T12:00:00 13.61025 71.24963
2021-05-17T13:00:00 13.71025 73.18348
2021-05-17T14:00:00 11.88025 81.65415
2021-05-17T15:00:00 12.62025 76.29131
2021-05-17T16:00:00 13.49025 71.32323
2021-05-17T17:00:00 13.31025 72.86054
2021-05-17T18:00:00 12.11025 77.30573
2021-05-17T19:00:00 11.48025 79.56371
2021-05-17T20:00:00 10.91025 82.98251
2021-05-17T21:00:00 10.37025 86.56605
2021-05-17T22:00:00 10.05025 90.33567
2021-05-17T23:00:00 10.04025 91.26205
2021-05-18T00:00:00 9.920245 92.25225
2021-05-18T01:00:00 9.780245 94.27215
2021-05-18T02:00:00 9.920245 92.6294
2021-05-18T03:00:00 9.950245 91.69122
2021-05-18T04:00:00 9.970245 91.19476
2021-05-18T05:00:00 9.970245 91.63028
2021-05-18T06:00:00 10.00025 88.86496
2021-05-18T07:00:00 10.65025 85.94907
2021-05-18T08:00:00 11.25025 82.51885
2021-05-18T09:00:00 11.91025 77.80277
2021-05-18T10:00:00 12.64025 74.95459
2021-05-18T11:00:00 13.52025 68.93427
2021-05-18T12:00:00 13.89025 63.0364
2021-05-18T13:00:00 14.86025 57.13579
2021-05-18T14:00:00 15.38025 54.82871
2021-05-18T15:00:00 16.08025 50.69668
2021-05-18T16:00:00 15.31025 51.66103
2021-05-18T17:00:00 14.95025 52.54501
2021-05-18T18:00:00 13.77025 58.8696
2021-05-18T19:00:00 12.32025 64.97522
2021-05-18T20:00:00 11.11025 70.45522
2021-05-18T21:00:00 10.79025 73.79885
2021-05-18T22:00:00 9.450245 82.78953
2021-05-18T23:00:00 9.270246 85.14525
2021-05-19T00:00:00 9.000245 87.92059
2021-05-19T01:00:00 8.570246 91.27667
2021-05-19T02:00:00 8.350245 92.78156
2021-05-19T03:00:00 8.270246 93.35307
2021-05-19T04:00:00 8.150246 94.50969
2021-05-19T05:00:00 8.750245 93.12637
2021-05-19T06:00:00 9.570246 90.17326
2021-05-19T07:00:00 10.48025 83.84052
2021-05-19T08:00:00 11.57025 79.3059
2021-05-19T09:00:00 11.96025 76.75445
2021-05-19T10:00:00 12.23025 75.1898
2021-05-19T11:00:00 12.77025 67.78859
2021-05-19T12:00:00 12.64025 64.46431
2021-05-19T13:00:00 12.72025 65.02203
2021-05-19T14:00:00 12.32025 68.87181
2021-05-19T15:00:00 12.22025 70.58362
2021-05-19T16:00:00 11.66025 73.55406
2021-05-19T17:00:00 11.04025 77.92876
2021-05-19T18:00:00 10.98025 79.65151
2021-05-19T19:00:00 10.14025 83.10965
2021-05-19T20:00:00 9.160245 87.33314
2021-05-19T21:00:00 8.930245 89.2562
2021-05-19T22:00:00 8.790245 89.24353
2021-05-19T23:00:00 8.780245 89.24263
2021-05-20T00:00:00 8.930245 89.68716
2021-05-20T01:00:00 8.960245 91.87168
2021-05-20T02:00:00 8.790245 94.09092
2021-05-20T03:00:00 8.770246 94.15427
2021-05-20T04:00:00 9.150246 92.83313
2021-05-20T05:00:00 9.250245 92.77607
2021-05-20T06:00:00 9.330245 93.22566
2021-05-20T07:00:00 10.02025 87.36154
2021-05-20T08:00:00 10.80025 81.89609
2021-05-20T09:00:00 11.73025 75.10112
2021-05-20T10:00:00 12.85025 71.93233
2021-05-20T11:00:00 13.53025 64.98269
2021-05-20T12:00:00 14.46025 62.39435
2021-05-20T13:00:00 15.38025 56.91554
2021-05-20T14:00:00 16.30025 51.57454
2021-05-20T15:00:00 16.79025 47.94278
2021-05-20T16:00:00 16.56025 48.48259
2021-05-20T17:00:00 15.96025 52.93065
2021-05-20T18:00:00 14.61025 64.51804
2021-05-20T19:00:00 14.28025 63.95788
2021-05-20T20:00:00 12.84025 72.17697
2021-05-20T21:00:00 10.46025 84.8193
2021-05-20T22:00:00 10.06025 83.04203
2021-05-20T23:00:00 9.760245 84.32834
2021-05-21T00:00:00 9.360246 85.98174
2021-05-21T01:00:00 9.200245 86.37971
2021-05-21T02:00:00 9.550245 82.11881
2021-05-21T03:00:00 10.03025 79.34139
2021-05-21T04:00:00 11.01025 74.14725
2021-05-21T05:00:00 11.77025 71.57272
2021-05-21T06:00:00 12.99025 68.68142
2021-05-21T07:00:00 13.77025 68.09621
2021-05-21T08:00:00 13.61025 73.56332
2021-05-21T09:00:00 13.39025 80.00968
2021-05-21T10:00:00 13.56025 78.27661
2021-05-21T11:00:00 13.03025 78.88417
2021-05-21T12:00:00 12.96025 79.19412
2021-05-21T13:00:00 12.80025 77.36593
2021-05-21T14:00:00 11.86025 80.43877
2021-05-21T15:00:00 11.35025 85.09726
2021-05-21T16:00:00 11.56025 85.35251
2021-05-21T17:00:00 11.67025 85.53848
2021-05-21T18:00:00 11.11025 88.12585
2021-05-21T19:00:00 10.62025 88.0192
2021-05-21T20:00:00 10.21025 88.15974
2021-05-21T21:00:00 9.550245 89.06738
2021-05-21T22:00:00 9.300245 83.86466
2021-05-21T23:00:00 9.330245 83.11787
2021-05-22T00:00:00 9.260245 83.05109
2021-05-22T01:00:00 9.330245 84.21693
2021-05-22T02:00:00 9.420245 84.63602
2021-05-22T03:00:00 9.180245 86.67579
2021-05-22T04:00:00 9.550245 84.59351
2021-05-22T05:00:00 9.500245 85.46629
2021-05-22T06:00:00 10.58025 80.52712
2021-05-22T07:00:00 11.38025 77.18509
2021-05-22T08:00:00 12.44025 69.13528
2021-05-22T09:00:00 13.60025 62.18832
2021-05-22T10:00:00 14.55025 59.55903
2021-05-22T11:00:00 15.37025 55.70654
2021-05-22T12:00:00 16.02025 52.83698
2021-05-22T13:00:00 16.72025 49.41331
2021-05-22T14:00:00 17.10025 48.33188
2021-05-22T15:00:00 17.73025 45.57365
2021-05-22T16:00:00 17.76024 43.89728
2021-05-22T17:00:00 16.89025 44.41847
2021-05-22T18:00:00 15.55025 48.91215
2021-05-22T19:00:00 13.78025 58.26037
2021-05-22T20:00:00 12.74025 64.53229
2021-05-22T21:00:00 11.86025 72.38505
2021-05-22T22:00:00 11.03025 83.16828
2021-05-22T23:00:00 10.52025 87.17433
2021-05-23T00:00:00 10.07025 88.32705
2021-05-23T01:00:00 9.690246 88.71498
2021-05-23T02:00:00 9.310246 90.58513
2021-05-23T03:00:00 9.070246 91.62798
2021-05-23T04:00:00 8.980246 90.24808
2021-05-23T05:00:00 9.300245 90.21269
2021-05-23T06:00:00 10.08025 86.2392
2021-05-23T07:00:00 10.99025 84.2481
2021-05-23T08:00:00 11.77025 77.99317
2021-05-23T09:00:00 12.45025 70.92227
2021-05-23T10:00:00 13.69025 61.09966
2021-05-23T11:00:00 14.57025 54.99459
2021-05-23T12:00:00 15.38025 52.00599
2021-05-23T13:00:00 15.95025 49.68065
2021-05-23T14:00:00 16.26025 47.99329
2021-05-23T15:00:00 16.46025 46.85523
2021-05-23T16:00:00 16.76024 46.84276
2021-05-23T17:00:00 16.34025 49.3411
2021-05-23T18:00:00 15.33025 54.47417
2021-05-23T19:00:00 14.68025 54.26191
2021-05-23T20:00:00 12.21025 65.90582
2021-05-23T21:00:00 10.95025 72.05776
2021-05-23T22:00:00 9.270246 79.83142
2021-05-23T23:00:00 8.310246 87.79042
2021-05-24T00:00:00 7.630245 90.63628
2021-05-24T01:00:00 7.020245 94.71184
2021-05-24T02:00:00 6.440245 95.87627
2021-05-24T03:00:00 6.540245 95.74735
2021-05-24T04:00:00 6.580246 95.54949
2021-05-24T05:00:00 7.540245 92.27923
2021-05-24T06:00:00 9.040245 88.53214
2021-05-24T07:00:00 10.88025 84.81116
2021-05-24T08:00:00 12.64025 76.19087
2021-05-24T09:00:00 14.06025 68.76484
2021-05-24T10:00:00 15.30025 64.32399
2021-05-24T11:00:00 16.76024 55.6492
2021-05-24T12:00:00 17.41025 53.39447
2021-05-24T13:00:00 17.89025 50.77547
2021-05-24T14:00:00 18.36025 47.19967
2021-05-24T15:00:00 17.00025 53.98428
2021-05-24T16:00:00 15.64025 60.86201
2021-05-24T17:00:00 14.73025 65.83579
2021-05-24T18:00:00 14.31025 65.96745
2021-05-24T19:00:00 13.35025 69.08784
2021-05-24T20:00:00 11.61025 73.90038
2021-05-24T21:00:00 10.64025 79.27169
2021-05-24T22:00:00 10.00025 79.998
2021-05-24T23:00:00 9.390245 81.02255
2021-05-25T00:00:00 9.250245 78.45055
2021-05-25T01:00:00 8.920245 74.64258
2021-05-25T02:00:00 8.690246 72.11476
2021-05-25T03:00:00 8.800245 71.78075
2021-05-25T04:00:00 8.820246 72.14075
2021-05-25T05:00:00 8.730246 73.14896
2021-05-25T06:00:00 9.220245 73.24385
2021-05-25T07:00:00 10.28025 68.9659
2021-05-25T08:00:00 11.32025 61.37171
2021-05-25T09:00:00 12.13025 54.87894
2021-05-25T10:00:00 13.30025 51.5379
2021-05-25T11:00:00 13.87025 50.4331
2021-05-25T12:00:00 14.34025 48.2929
2021-05-25T13:00:00 15.45025 43.43785
2021-05-25T14:00:00 15.79025 41.21371
2021-05-25T15:00:00 15.98025 39.99206
2021-05-25T16:00:00 15.82025 38.9527
2021-05-25T17:00:00 15.42025 41.19218
2021-05-25T18:00:00 14.53025 43.10405
2021-05-25T19:00:00 12.68025 51.51049
2021-05-25T20:00:00 10.66025 62.6559
2021-05-25T21:00:00 10.48025 64.77488
2021-05-25T22:00:00 10.18025 70.06659
2021-05-25T23:00:00 10.45025 70.86223
2021-05-26T00:00:00 10.67025 71.90241
2021-05-26T01:00:00 10.63025 73.76888
2021-05-26T02:00:00 10.51025 75.6126
2021-05-26T03:00:00 11.03025 75.02769
2021-05-26T04:00:00 11.68025 71.90191
2021-05-26T05:00:00 11.77025 71.86992
2021-05-26T06:00:00 12.10025 69.73573
2021-05-26T07:00:00 12.40025 70.52282
2021-05-26T08:00:00 13.22025 65.13641
2021-05-26T09:00:00 13.42025 64.19974
2021-05-26T10:00:00 12.98025 72.59969
2021-05-26T11:00:00 12.82025 73.97081
2021-05-26T12:00:00 13.03025 74.11002
2021-05-26T13:00:00 13.57025 71.87536
2021-05-26T14:00:00 13.75025 73.14128
2021-05-26T15:00:00 13.58025 74.31016
2021-05-26T16:00:00 13.71025 74.58556
2021-05-26T17:00:00 13.82025 73.15427
2021-05-26T18:00:00 13.46025 74.08717
2021-05-26T19:00:00 13.16025 76.22724
2021-05-26T20:00:00 12.75025 79.97009
2021-05-26T21:00:00 12.45025 82.11985
2021-05-26T22:00:00 11.59025 88.64825
2021-05-26T23:00:00 11.45025 89.47672
2021-05-27T00:00:00 11.15025 90.79012
2021-05-27T01:00:00 10.82025 92.56123
2021-05-27T02:00:00 10.55025 93.99378
2021-05-27T03:00:00 10.43025 94.4968
2021-05-27T04:00:00 10.38025 93.7943
2021-05-27T05:00:00 10.32025 94.55525
2021-05-27T06:00:00 10.55025 91.17587
2021-05-27T07:00:00 10.72025 87.73017
2021-05-27T08:00:00 10.92025 80.79816
2021-05-27T09:00:00 11.21025 75.21548
2021-05-27T10:00:00 12.59025 68.31339
2021-05-27T11:00:00 13.20025 64.28191
2021-05-27T12:00:00 14.57025 57.73762
2021-05-27T13:00:00 15.76025 52.07412
2021-05-27T14:00:00 16.45025 47.81284
2021-05-27T15:00:00 17.29025 45.16217
2021-05-27T16:00:00 17.46025 44.55255
2021-05-27T17:00:00 17.59025 46.07577
2021-05-27T18:00:00 16.59025 53.76376
2021-05-27T19:00:00 14.94025 57.35463
2021-05-27T20:00:00 12.90025 65.74222
2021-05-27T21:00:00 10.82025 73.95814
2021-05-27T22:00:00 9.260245 80.55469
2021-05-27T23:00:00 7.640245 86.26525
2021-05-28T00:00:00 6.690245 89.73756
2021-05-28T01:00:00 6.020245 92.29958
2021-05-28T02:00:00 5.560246 94.16859
2021-05-28T03:00:00 5.110245 95.47865
2021-05-28T04:00:00 5.040245 96.42141
2021-05-28T05:00:00 7.240245 92.83678
2021-05-28T06:00:00 10.57025 85.94019
2021-05-28T07:00:00 12.77025 76.9941
2021-05-28T08:00:00 14.94025 68.85422
2021-05-28T09:00:00 16.49025 64.2029
2021-05-28T10:00:00 17.48025 60.52466
2021-05-28T11:00:00 18.53025 56.06929
2021-05-28T12:00:00 19.25025 53.05191
2021-05-28T13:00:00 19.76024 51.2844
2021-05-28T14:00:00 20.21025 49.26445
2021-05-28T15:00:00 20.37025 48.57966
2021-05-28T16:00:00 20.05025 48.32678
2021-05-28T17:00:00 19.24025 50.24793
2021-05-28T18:00:00 18.00025 50.11297
2021-05-28T19:00:00 15.98025 57.66101
2021-05-28T20:00:00 14.16025 66.34145
2021-05-28T21:00:00 12.73025 71.95831
2021-05-28T22:00:00 12.17025 76.26685
2021-05-28T23:00:00 11.52025 79.40676
2021-05-29T00:00:00 11.24025 80.51326
2021-05-29T01:00:00 10.67025 82.89436
2021-05-29T02:00:00 10.02025 84.36031
2021-05-29T03:00:00 9.760245 86.20397
2021-05-29T04:00:00 10.49025 86.40184
2021-05-29T05:00:00 11.45025 83.61929
2021-05-29T06:00:00 12.74025 77.98889
2021-05-29T07:00:00 14.39025 69.96489
2021-05-29T08:00:00 15.92025 63.81308
2021-05-29T09:00:00 17.41025 59.05385
2021-05-29T10:00:00 18.67025 54.5359
2021-05-29T11:00:00 19.64025 49.27479
2021-05-29T12:00:00 20.48025 46.22856
2021-05-29T13:00:00 21.00025 41.66343
2021-05-29T14:00:00 21.09025 41.03592
2021-05-29T15:00:00 21.22025 39.68417
2021-05-29T16:00:00 20.73025 40.17604
2021-05-29T17:00:00 20.13025 40.89933
2021-05-29T18:00:00 18.84025 42.87938
2021-05-29T19:00:00 16.82025 47.61823
2021-05-29T20:00:00 14.71025 55.22391
2021-05-29T21:00:00 12.89025 63.76582
2021-05-29T22:00:00 11.33025 72.33232
2021-05-29T23:00:00 10.44025 76.23171
2021-05-30T00:00:00 9.280245 79.94408
2021-05-30T01:00:00 8.600245 82.55963
2021-05-30T02:00:00 8.100245 84.70919
2021-05-30T03:00:00 7.690245 85.19293
2021-05-30T04:00:00 7.750245 85.31932
2021-05-30T05:00:00 9.950245 79.604
2021-05-30T06:00:00 12.50025 69.7222
2021-05-30T07:00:00 14.82025 61.29075
2021-05-30T08:00:00 16.75025 53.29076
2021-05-30T09:00:00 18.40025 46.40302
2021-05-30T10:00:00 19.48025 42.41345
2021-05-30T11:00:00 20.40025 38.28367
2021-05-30T12:00:00 21.19025 35.9781
2021-05-30T13:00:00 21.72025 33.83963
2021-05-30T14:00:00 22.01024 32.05175
2021-05-30T15:00:00 22.03025 32.10264
2021-05-30T16:00:00 21.87025 32.73958
2021-05-30T17:00:00 21.13025 34.77314
2021-05-30T18:00:00 19.82025 39.24918
2021-05-30T19:00:00 16.77025 49.53038
2021-05-30T20:00:00 14.45025 57.30747
2021-05-30T21:00:00 13.20025 62.52449
2021-05-30T22:00:00 11.79025 67.62266
2021-05-30T23:00:00 10.51025 72.02121
2021-05-31T00:00:00 9.420245 75.31252
2021-05-31T01:00:00 8.350245 79.07687
2021-05-31T02:00:00 7.630245 81.44689
2021-05-31T03:00:00 7.150245 83.88019
2021-05-31T04:00:00 7.100246 83.9327
2021-05-31T05:00:00 9.300245 79.0621
2021-05-31T06:00:00 12.12025 65.74809
2021-05-31T07:00:00 14.27025 55.68692
2021-05-31T08:00:00 16.24025 48.05481
2021-05-31T09:00:00 17.92025 43.94365
2021-05-31T10:00:00 19.48025 41.71318
2021-05-31T11:00:00 20.60025 39.34012
2021-05-31T12:00:00 21.56025 37.33476
2021-05-31T13:00:00 22.38025 35.35694
2021-05-31T14:00:00 23.02025 34.24031
2021-05-31T15:00:00 23.30025 32.49191
2021-05-31T16:00:00 23.39025 31.75731
2021-05-31T17:00:00 22.98025 34.13399
2021-05-31T18:00:00 21.58025 41.57356
2021-05-31T19:00:00 17.85025 54.06208
2021-05-31T20:00:00 15.33025 62.1746
2021-05-31T21:00:00 13.97025 68.37173
2021-05-31T22:00:00 13.02025 69.8771
2021-05-31T23:00:00 12.09025 72.72897
2021-06-01T00:00:00 11.21025 76.8919
2021-06-01T01:00:00 10.38025 79.06752
2021-06-01T02:00:00 9.730246 80.34573
2021-06-01T03:00:00 9.240245 82.13277
2021-06-01T04:00:00 9.030245 82.67563
2021-06-01T05:00:00 11.16025 76.51387
2021-06-01T06:00:00 13.62025 65.09281
2021-06-01T07:00:00 15.96025 55.55432
2021-06-01T08:00:00 17.71025 50.27449
2021-06-01T09:00:00 19.53025 48.05098
2021-06-01T10:00:00 21.41025 45.03318
2021-06-01T11:00:00 23.00025 42.57931
2021-06-01T12:00:00 24.15025 41.12993
2021-06-01T13:00:00 25.21025 38.46309
2021-06-01T14:00:00 25.71025 35.5863
2021-06-01T15:00:00 26.06025 32.87659
2021-06-01T16:00:00 26.07025 32.41219
2021-06-01T17:00:00 25.58025 34.71561
2021-06-01T18:00:00 24.07025 43.34301
2021-06-01T19:00:00 21.92025 45.75988
2021-06-01T20:00:00 18.32025 58.05483
2021-06-01T21:00:00 15.55025 70.05596
2021-06-01T22:00:00 14.16025 76.91036
2021-06-01T23:00:00 13.64025 78.34182
2021-06-02T00:00:00 13.25025 79.07771
2021-06-02T01:00:00 13.08025 78.25434
2021-06-02T02:00:00 12.58025 79.94508
2021-06-02T03:00:00 11.70025 84.50561
2021-06-02T04:00:00 11.66025 84.27203
2021-06-02T05:00:00 13.54025 78.32626
2021-06-02T06:00:00 16.10025 70.68365
2021-06-02T07:00:00 18.43024 61.24215
2021-06-02T08:00:00 20.38025 55.23695
2021-06-02T09:00:00 21.92025 53.60985
2021-06-02T10:00:00 23.11025 50.15057
2021-06-02T11:00:00 24.29025 47.37795
2021-06-02T12:00:00 25.12025 46.00467
2021-06-02T13:00:00 25.38025 45.56381
2021-06-02T14:00:00 25.31025 46.32996
2021-06-02T15:00:00 25.01024 47.48018
2021-06-02T16:00:00 23.99025 51.48732
2021-06-02T17:00:00 21.96025 61.49899
2021-06-02T18:00:00 20.73025 69.15226
2021-06-02T19:00:00 19.59025 77.56028
2021-06-02T20:00:00 18.41025 80.81411
2021-06-02T21:00:00 18.13025 82.84022
2021-06-02T22:00:00 17.77025 85.51612
2021-06-02T23:00:00 17.23025 87.41717
2021-06-03T00:00:00 17.05025 89.63046
2021-06-03T01:00:00 16.87025 91.66278
2021-06-03T02:00:00 16.67025 92.42188
2021-06-03T03:00:00 16.50025 93.61175
2021-06-03T04:00:00 16.35025 94.57502
2021-06-03T05:00:00 16.66025 94.28402
2021-06-03T06:00:00 18.10025 89.13672
2021-06-03T07:00:00 19.24025 82.76016
2021-06-03T08:00:00 20.60025 73.63979
2021-06-03T09:00:00 22.08025 67.87413
2021-06-03T10:00:00 23.20025 60.75501
2021-06-03T11:00:00 24.15025 57.4343
2021-06-03T12:00:00 25.14025 54.36233
2021-06-03T13:00:00 25.90025 51.58365
2021-06-03T14:00:00 26.47025 48.56171
2021-06-03T15:00:00 26.71025 47.90739
2021-06-03T16:00:00 26.57025 48.7458
2021-06-03T17:00:00 26.22025 50.18832
2021-06-03T18:00:00 24.83025 59.20783
2021-06-03T19:00:00 23.43024 61.4773
2021-06-03T20:00:00 21.63025 69.59538
2021-06-03T21:00:00 19.77025 78.23815
2021-06-03T22:00:00 19.32025 77.36951
2021-06-03T23:00:00 18.79025 79.67373
2021-06-04T00:00:00 18.03025 83.63455
2021-06-04T01:00:00 17.71025 83.81419
2021-06-04T02:00:00 17.46025 84.82298
2021-06-04T03:00:00 16.83025 89.09403
2021-06-04T04:00:00 17.20025 90.04681
2021-06-04T05:00:00 17.64025 90.25205
2021-06-04T06:00:00 18.50025 89.16767
2021-06-04T07:00:00 19.80025 82.9851
2021-06-04T08:00:00 20.22025 82.08936
2021-06-04T09:00:00 21.10025 78.08302
2021-06-04T10:00:00 21.22025 78.54806
2021-06-04T11:00:00 22.57025 71.6199
2021-06-04T12:00:00 23.82025 66.13049
2021-06-04T13:00:00 25.11025 60.76514
2021-06-04T14:00:00 25.88025 57.08152
2021-06-04T15:00:00 26.49025 54.10961
2021-06-04T16:00:00 27.02025 50.26851
2021-06-04T17:00:00 25.74025 56.35951
2021-06-04T18:00:00 24.09025 64.0747
2021-06-04T19:00:00 21.17025 77.30278
2021-06-04T20:00:00 20.60025 75.4097
2021-06-04T21:00:00 18.88025 83.4101
2021-06-04T22:00:00 16.68024 90.30019
2021-06-04T23:00:00 16.05025 95.48265
2021-06-05T00:00:00 16.71025 94.65032
2021-06-05T01:00:00 17.07025 94.66442
2021-06-05T02:00:00 16.84025 96.86423
2021-06-05T03:00:00 16.67025 97.29564
2021-06-05T04:00:00 16.64025 96.92179
2021-06-05T05:00:00 16.89025 95.75581
2021-06-05T06:00:00 17.43024 93.35619
2021-06-05T07:00:00 17.40025 91.93055
2021-06-05T08:00:00 17.26024 91.2753
2021-06-05T09:00:00 17.02025 91.20124
2021-06-05T10:00:00 18.21025 86.05753
2021-06-05T11:00:00 18.63025 81.94515
2021-06-05T12:00:00 19.09025 76.38966
2021-06-05T13:00:00 19.04025 74.03934
2021-06-05T14:00:00 19.20025 69.57437
2021-06-05T15:00:00 18.70025 73.26028
2021-06-05T16:00:00 18.40025 75.34119
2021-06-05T17:00:00 18.75025 73.22135
2021-06-05T18:00:00 18.19025 78.20651
2021-06-05T19:00:00 17.23025 83.21658
2021-06-05T20:00:00 16.91025 85.76009
2021-06-05T21:00:00 16.41025 89.2338
2021-06-05T22:00:00 15.82025 94.43102
2021-06-05T23:00:00 15.79025 94.3076
2021-06-06T00:00:00 15.69025 94.18116
2021-06-06T01:00:00 15.50025 94.17271
2021-06-06T02:00:00 15.39025 94.16776
2021-06-06T03:00:00 15.15025 94.64822
2021-06-06T04:00:00 15.19025 93.79189
2021-06-06T05:00:00 15.28025 93.18797
2021-06-06T06:00:00 15.80025 90.70742
2021-06-06T07:00:00 16.35025 86.43141
2021-06-06T08:00:00 16.60025 83.74032
2021-06-06T09:00:00 16.97025 83.23972
2021-06-06T10:00:00 17.21025 84.24751
2021-06-06T11:00:00 17.79025 83.01387
2021-06-06T12:00:00 18.15025 81.99069
2021-06-06T13:00:00 18.05025 82.72361
2021-06-06T14:00:00 17.91025 83.67473
2021-06-06T15:00:00 18.09025 84.1826
2021-06-06T16:00:00 18.03025 84.23024
2021-06-06T17:00:00 17.94025 84.22022
2021-06-06T18:00:00 17.65025 86.55828
2021-06-06T19:00:00 17.12025 89.578
2021-06-06T20:00:00 16.56025 93.43391
2021-06-06T21:00:00 16.09025 95.29948
2021-06-06T22:00:00 15.94025 94.74178
2021-06-06T23:00:00 15.90025 94.19045
2021-06-07T00:00:00 16.02025 94.2566
2021-06-07T01:00:00 15.87025 94.67773
2021-06-07T02:00:00 15.68025 95.59351
2021-06-07T03:00:00 15.62025 96.14961
2021-06-07T04:00:00 15.59025 96.14872
2021-06-07T05:00:00 15.67025 96.39996
2021-06-07T06:00:00 16.02025 95.85184
2021-06-07T07:00:00 16.57025 94.34089
2021-06-07T08:00:00 17.07025 93.09943
2021-06-07T09:00:00 17.45025 89.4878
2021-06-07T10:00:00 17.37025 90.05912
2021-06-07T11:00:00 17.87025 86.57941
2021-06-07T12:00:00 18.47025 81.3457
2021-06-07T13:00:00 19.44025 76.29713
2021-06-07T14:00:00 18.92025 78.36543
2021-06-07T15:00:00 19.53025 74.31573
2021-06-07T16:00:00 19.53025 74.412
2021-06-07T17:00:00 19.26024 79.12568
2021-06-07T18:00:00 18.74025 82.75346
2021-06-07T19:00:00 18.09025 87.38239
2021-06-07T20:00:00 17.52025 90.82462
2021-06-07T21:00:00 17.12025 92.92293
2021-06-07T22:00:00 16.38025 97.47744
2021-06-07T23:00:00 16.08025 98.41625
2021-06-08T00:00:00 16.14025 98.66998
2021-06-08T01:00:00 16.03025 99.43226
2021-06-08T02:00:00 15.80025 99.30357
2021-06-08T03:00:00 16.10025 99.114
2021-06-08T04:00:00 16.18025 98.79708
2021-06-08T05:00:00 16.30025 98.10359
2021-06-08T06:00:00 16.68024 97.60778
2021-06-08T07:00:00 17.42025 96.20044
2021-06-08T08:00:00 18.01024 91.84873
2021-06-08T09:00:00 18.78025 90.3312
2021-06-08T10:00:00 18.73025 91.01936
2021-06-08T11:00:00 19.26024 90.76514
2021-06-08T12:00:00 19.84025 86.43481
2021-06-08T13:00:00 20.41025 84.97155
2021-06-08T14:00:00 21.12025 82.14645
2021-06-08T15:00:00 20.72025 82.41074
2021-06-08T16:00:00 20.65025 85.21109
2021-06-08T17:00:00 20.35025 84.16226
2021-06-08T18:00:00 19.56025 87.62356
2021-06-08T19:00:00 18.76024 87.94583
2021-06-08T20:00:00 17.89025 90.26961
2021-06-08T21:00:00 16.63025 95.1349
2021-06-08T22:00:00 16.33025 95.79984
2021-06-08T23:00:00 16.53025 94.82597
2021-06-09T00:00:00 16.06025 96.84622
2021-06-09T01:00:00 15.45025 98.98203
2021-06-09T02:00:00 14.55025 99.16752
2021-06-09T03:00:00 14.83025 97.76416
2021-06-09T04:00:00 14.52025 98.2048
2021-06-09T05:00:00 14.95025 98.33862
2021-06-09T06:00:00 15.94025 97.72054
2021-06-09T07:00:00 17.00025 95.27006
2021-06-09T08:00:00 18.90025 86.89852
2021-06-09T09:00:00 20.35025 84.53622
2021-06-09T10:00:00 21.74025 73.59963
2021-06-09T11:00:00 22.93024 69.4889
2021-06-09T12:00:00 23.42025 65.62774
2021-06-09T13:00:00 23.33025 64.1154
2021-06-09T14:00:00 22.17025 66.76782
2021-06-09T15:00:00 21.93024 66.97671
2021-06-09T16:00:00 21.92025 68.06043
2021-06-09T17:00:00 21.14025 69.18776
2021-06-09T18:00:00 20.31025 77.81767
2021-06-09T19:00:00 19.39025 82.25008
2021-06-09T20:00:00 18.08025 86.26619
2021-06-09T21:00:00 16.92025 90.72585
2021-06-09T22:00:00 15.55025 93.62659
2021-06-09T23:00:00 15.44025 92.35156
2021-06-10T00:00:00 14.73025 94.19927
2021-06-10T01:00:00 13.56025 95.77004
2021-06-10T02:00:00 13.83025 95.5911
2021-06-10T03:00:00 13.40025 95.95371
2021-06-10T04:00:00 13.55025 96.21144
2021-06-10T05:00:00 14.18025 96.98901
2021-06-10T06:00:00 16.17025 92.99308
2021-06-10T07:00:00 17.99025 88.50198
2021-06-10T08:00:00 20.01024 82.06367
2021-06-10T09:00:00 21.76024 76.80485
2021-06-10T10:00:00 23.31025 69.1213
2021-06-10T11:00:00 24.49025 65.14493
2021-06-10T12:00:00 25.46025 59.242
2021-06-10T13:00:00 25.69025 56.27528
2021-06-10T14:00:00 25.58025 55.78193
2021-06-10T15:00:00 24.45025 58.06467
2021-06-10T16:00:00 24.73025 54.36428
2021-06-10T17:00:00 24.61025 54.72221
2021-06-10T18:00:00 23.74025 58.04372
2021-06-10T19:00:00 21.73025 66.93565
2021-06-10T20:00:00 19.43024 77.18697
2021-06-10T21:00:00 18.67025 80.32858
2021-06-10T22:00:00 17.62025 83.58711
2021-06-10T23:00:00 16.75025 87.99848
2021-06-11T00:00:00 16.19025 89.68104
2021-06-11T01:00:00 15.04025 92.44873
2021-06-11T02:00:00 14.25025 92.94994
2021-06-11T03:00:00 13.68025 94.52307
2021-06-11T04:00:00 13.73025 94.02905
2021-06-11T05:00:00 15.45025 91.93233
2021-06-11T06:00:00 17.71025 85.23439
2021-06-11T07:00:00 19.83025 77.44702
2021-06-11T08:00:00 21.75025 68.15789
2021-06-11T09:00:00 23.54025 60.32623
2021-06-11T10:00:00 24.81025 58.44982
2021-06-11T11:00:00 25.72025 53.26086
2021-06-11T12:00:00 26.54025 48.2043
2021-06-11T13:00:00 26.88025 45.85444
2021-06-11T14:00:00 27.05025 44.2578
2021-06-11T15:00:00 27.16025 42.69727
2021-06-11T16:00:00 27.03025 42.52163
2021-06-11T17:00:00 26.42025 45.49086
2021-06-11T18:00:00 25.23025 51.6099
2021-06-11T19:00:00 22.74025 61.95719
2021-06-11T20:00:00 20.92025 66.03519
2021-06-11T21:00:00 20.67025 67.2388
2021-06-11T22:00:00 18.00025 80.65479
2021-06-11T23:00:00 17.10025 84.23514
2021-06-12T00:00:00 16.28025 87.78565
2021-06-12T01:00:00 15.73025 89.64561
2021-06-12T02:00:00 15.36025 91.56805
2021-06-12T03:00:00 14.69025 94.44379
2021-06-12T04:00:00 14.77025 95.18926
2021-06-12T05:00:00 16.61025 92.29942
2021-06-12T06:00:00 18.90025 82.24274
2021-06-12T07:00:00 21.00025 73.51976
2021-06-12T08:00:00 23.00025 65.53968
2021-06-12T09:00:00 24.71025 59.25546
2021-06-12T10:00:00 25.87025 55.74625
2021-06-12T11:00:00 26.42025 53.91938
2021-06-12T12:00:00 26.88025 52.50452
2021-06-12T13:00:00 27.34025 51.06615
2021-06-12T14:00:00 27.67025 48.50502
2021-06-12T15:00:00 27.49025 47.16398
2021-06-12T16:00:00 26.71025 48.72002
2021-06-12T17:00:00 26.21025 49.22092
2021-06-12T18:00:00 25.19025 51.19908
2021-06-12T19:00:00 23.31025 58.50606
2021-06-12T20:00:00 21.08025 68.06768
2021-06-12T21:00:00 21.54025 63.68277
2021-06-12T22:00:00 19.13025 74.77959
2021-06-12T23:00:00 18.95025 75.72634
2021-06-13T00:00:00 18.07025 79.31483
2021-06-13T01:00:00 16.37025 86.60243
2021-06-13T02:00:00 15.97025 87.9869
2021-06-13T03:00:00 15.63025 88.76476
2021-06-13T04:00:00 15.49025 88.69502
2021-06-13T05:00:00 16.75025 84.91125
2021-06-13T06:00:00 18.22025 75.8044
2021-06-13T07:00:00 19.65025 70.3008
2021-06-13T08:00:00 20.92025 65.01218
2021-06-13T09:00:00 21.98025 60.94579
2021-06-13T10:00:00 23.32025 55.98016
2021-06-13T11:00:00 24.23025 52.43282
2021-06-13T12:00:00 24.90025 48.45712
2021-06-13T13:00:00 25.47025 44.16968
2021-06-13T14:00:00 25.97025 41.86464
2021-06-13T15:00:00 26.19025 38.71556
2021-06-13T16:00:00 26.11025 37.34501
2021-06-13T17:00:00 25.61025 36.90329
2021-06-13T18:00:00 24.47025 39.24631
2021-06-13T19:00:00 21.97025 45.89747
2021-06-13T20:00:00 19.28025 54.62142
2021-06-13T21:00:00 17.14025 61.80437
2021-06-13T22:00:00 15.96025 65.61775
2021-06-13T23:00:00 15.05025 69.48493
2021-06-14T00:00:00 14.03025 72.65006
2021-06-14T01:00:00 13.19025 75.35814
2021-06-14T02:00:00 12.49025 77.57884
2021-06-14T03:00:00 11.82025 80.54255
2021-06-14T04:00:00 11.62025 82.34356
2021-06-14T05:00:00 14.61025 75.24822
2021-06-14T06:00:00 16.91025 65.16758
2021-06-14T07:00:00 19.01024 55.89058
2021-06-14T08:00:00 20.95025 49.567
2021-06-14T09:00:00 22.66025 45.53674
2021-06-14T10:00:00 24.14025 44.41636
2021-06-14T11:00:00 25.58025 41.94968
2021-06-14T12:00:00 26.75025 38.46272
2021-06-14T13:00:00 27.69025 36.24453
2021-06-14T14:00:00 28.38025 34.90115
2021-06-14T15:00:00 28.87025 32.60939
2021-06-14T16:00:00 28.95025 32.56648
2021-06-14T17:00:00 28.47025 35.11261
2021-06-14T18:00:00 27.08025 41.43324
2021-06-14T19:00:00 23.48025 51.89585
2021-06-14T20:00:00 21.83025 52.07969
2021-06-14T21:00:00 19.93024 59.70823
2021-06-14T22:00:00 19.32025 62.06614
2021-06-14T23:00:00 18.45025 66.86415
2021-06-15T00:00:00 16.11025 77.27512
2021-06-15T01:00:00 14.20025 85.53055
2021-06-15T02:00:00 13.29025 89.80808
2021-06-15T03:00:00 13.12025 90.75451
2021-06-15T04:00:00 13.27025 90.28485
2021-06-15T05:00:00 16.41025 81.92938
2021-06-15T06:00:00 19.27025 69.49715
2021-06-15T07:00:00 21.49025 61.07071
2021-06-15T08:00:00 23.44025 53.96599
2021-06-15T09:00:00 25.18024 49.55721
2021-06-15T10:00:00 26.82025 44.22342
2021-06-15T11:00:00 28.11025 38.94776
2021-06-15T12:00:00 29.03025 35.41012
2021-06-15T13:00:00 29.65025 33.02429
2021-06-15T14:00:00 29.95025 31.10326
2021-06-15T15:00:00 30.15025 29.91539
2021-06-15T16:00:00 30.10025 30.0219
2021-06-15T17:00:00 29.84025 29.78969
2021-06-15T18:00:00 28.21025 36.99826
2021-06-15T19:00:00 26.55025 37.39485
2021-06-15T20:00:00 24.01024 45.09515
2021-06-15T21:00:00 22.23025 50.28091
2021-06-15T22:00:00 19.46025 60.35254
2021-06-15T23:00:00 17.02025 73.24901
2021-06-16T00:00:00 15.82025 80.78133
2021-06-16T01:00:00 15.07025 85.11756
2021-06-16T02:00:00 14.38025 89.18604
2021-06-16T03:00:00 14.26025 90.83667
2021-06-16T04:00:00 14.71025 90.21495
2021-06-16T05:00:00 16.66025 85.51153
2021-06-16T06:00:00 19.77025 69.82208
2021-06-16T07:00:00 22.16025 61.34534
2021-06-16T08:00:00 24.49025 55.33281
2021-06-16T09:00:00 26.46025 50.05717
2021-06-16T10:00:00 28.07025 43.99251
2021-06-16T11:00:00 29.67025 39.33171
2021-06-16T12:00:00 30.68024 33.2019
2021-06-16T13:00:00 31.43024 29.81015
2021-06-16T14:00:00 31.89025 28.69289
2021-06-16T15:00:00 32.18024 28.12967
2021-06-16T16:00:00 32.27025 27.68988
2021-06-16T17:00:00 32.01025 28.34637
2021-06-16T18:00:00 30.70025 31.41519
2021-06-16T19:00:00 27.88025 46.12546
2021-06-16T20:00:00 23.28025 63.40957
2021-06-16T21:00:00 22.20025 68.24738
2021-06-16T22:00:00 21.05025 71.15969
2021-06-16T23:00:00 20.52025 72.17062
2021-06-17T00:00:00 19.67025 74.72495
2021-06-17T01:00:00 19.14025 76.44704
2021-06-17T02:00:00 18.14025 80.93527
2021-06-17T03:00:00 17.45025 83.51313
2021-06-17T04:00:00 17.64025 83.37315
2021-06-17T05:00:00 19.14025 78.39777
2021-06-17T06:00:00 21.76024 69.93367
2021-06-17T07:00:00 24.15025 61.56176
2021-06-17T08:00:00 25.88025 56.75478
2021-06-17T09:00:00 27.18024 54.97578
2021-06-17T10:00:00 28.67025 51.89823
2021-06-17T11:00:00 29.73025 48.27687
2021-06-17T12:00:00 30.43024 45.14677
2021-06-17T13:00:00 31.39025 41.54804
2021-06-17T14:00:00 31.98025 39.16018
2021-06-17T15:00:00 32.49025 37.2226
2021-06-17T16:00:00 32.51025 36.42452
2021-06-17T17:00:00 32.15025 35.67486
2021-06-17T18:00:00 31.08025 37.1206
2021-06-17T19:00:00 29.43024 44.96383
2021-06-17T20:00:00 27.55025 52.27413
2021-06-17T21:00:00 24.91025 61.34142
2021-06-17T22:00:00 22.64025 74.17338
2021-06-17T23:00:00 21.50025 77.89382
2021-06-18T00:00:00 21.45025 79.78368
2021-06-18T01:00:00 20.92025 80.93488
2021-06-18T02:00:00 20.95025 80.02015
2021-06-18T03:00:00 20.11025 84.56433
2021-06-18T04:00:00 19.82025 86.43293
2021-06-18T05:00:00 20.79025 82.785
2021-06-18T06:00:00 22.80025 75.28467
2021-06-18T07:00:00 24.57025 68.84015
2021-06-18T08:00:00 25.90025 63.73529
2021-06-18T09:00:00 27.37025 57.40216
2021-06-18T10:00:00 29.36025 46.19753
2021-06-18T11:00:00 30.50025 43.55705
2021-06-18T12:00:00 31.24025 42.01302
2021-06-18T13:00:00 32.00025 39.82137
2021-06-18T14:00:00 32.15025 39.20682
2021-06-18T15:00:00 30.97025 42.55929
2021-06-18T16:00:00 30.14025 47.68654
2021-06-18T17:00:00 29.78025 50.91729
2021-06-18T18:00:00 28.67025 56.00363
2021-06-18T19:00:00 26.85025 62.98599
2021-06-18T20:00:00 25.01024 71.87303
2021-06-18T21:00:00 23.60025 78.2934
2021-06-18T22:00:00 21.65025 85.36465
2021-06-18T23:00:00 21.23025 87.60027
2021-06-19T00:00:00 20.30025 91.11691
2021-06-19T01:00:00 19.84025 92.88245
2021-06-19T02:00:00 19.32025 93.6212
2021-06-19T03:00:00 19.11025 94.38293
2021-06-19T04:00:00 19.46025 93.21555
2021-06-19T05:00:00 20.93024 87.90522
2021-06-19T06:00:00 22.52025 80.12736
2021-06-19T07:00:00 24.06025 73.25153
2021-06-19T08:00:00 25.74025 65.94076
2021-06-19T09:00:00 27.21025 58.1653
2021-06-19T10:00:00 27.53025 62.19589
2021-06-19T11:00:00 29.05025 57.40405
2021-06-19T12:00:00 30.20025 52.94138
2021-06-19T13:00:00 31.17025 49.88409
2021-06-19T14:00:00 31.69025 46.29025
2021-06-19T15:00:00 31.94025 44.81153
2021-06-19T16:00:00 32.10025 43.62941
2021-06-19T17:00:00 31.21025 46.51332
2021-06-19T18:00:00 29.78025 58.97995
2021-06-19T19:00:00 27.66025 62.80775
2021-06-19T20:00:00 25.76024 69.62819
2021-06-19T21:00:00 24.47025 77.06545
2021-06-19T22:00:00 25.03025 78.58938
2021-06-19T23:00:00 24.85025 76.26617
2021-06-20T00:00:00 24.77025 68.7488
2021-06-20T01:00:00 23.94025 66.19724
2021-06-20T02:00:00 22.64025 69.4777
2021-06-20T03:00:00 21.42025 73.96886
2021-06-20T04:00:00 20.85025 76.42087
2021-06-20T05:00:00 21.08025 76.74961
2021-06-20T06:00:00 21.60025 74.47238
2021-06-20T07:00:00 22.41025 68.81519
2021-06-20T08:00:00 23.17025 63.54841
2021-06-20T09:00:00 24.51024 58.04173
2021-06-20T10:00:00 25.03025 64.76531
2021-06-20T11:00:00 26.90025 56.24755
2021-06-20T12:00:00 28.12025 52.68542
2021-06-20T13:00:00 28.23025 51.95065
2021-06-20T14:00:00 27.09025 54.64031
2021-06-20T15:00:00 25.21025 64.63986
2021-06-20T16:00:00 23.70025 73.60539
2021-06-20T17:00:00 22.37025 73.05484
2021-06-20T18:00:00 20.22025 81.15412
2021-06-20T19:00:00 18.81025 83.77748
2021-06-20T20:00:00 18.29025 86.2313
2021-06-20T21:00:00 17.29025 89.82183
2021-06-20T22:00:00 16.37025 89.63664
2021-06-20T23:00:00 16.28025 91.92313
2021-06-21T00:00:00 16.27025 92.57867
2021-06-21T01:00:00 16.88025 90.66464
2021-06-21T02:00:00 17.08025 91.08781
2021-06-21T03:00:00 16.89025 92.6723
2021-06-21T04:00:00 17.09025 93.04073
2021-06-21T05:00:00 17.65025 91.47554
2021-06-21T06:00:00 18.87025 84.4311
2021-06-21T07:00:00 20.17025 77.79686
2021-06-21T08:00:00 21.62025 69.28117
2021-06-21T09:00:00 23.15025 62.00998
2021-06-21T10:00:00 24.68024 54.66906
2021-06-21T11:00:00 25.74025 49.44824
2021-06-21T12:00:00 26.89025 44.38736
2021-06-21T13:00:00 27.58025 41.16599
2021-06-21T14:00:00 27.59025 41.46659
2021-06-21T15:00:00 27.01024 41.44096
2021-06-21T16:00:00 24.42025 53.79497
2021-06-21T17:00:00 22.56025 59.63064
2021-06-21T18:00:00 20.38025 75.90796
2021-06-21T19:00:00 19.76024 71.70634
2021-06-21T20:00:00 18.87025 77.55125
2021-06-21T21:00:00 18.45025 80.66292
2021-06-21T22:00:00 16.97025 93.39379
2021-06-21T23:00:00 17.21025 92.92759
2021-06-22T00:00:00 17.35025 91.86865
2021-06-22T01:00:00 16.79025 93.86646
2021-06-22T02:00:00 16.63025 95.56349
2021-06-22T03:00:00 16.48025 95.62002
2021-06-22T04:00:00 16.11025 96.47405
2021-06-22T05:00:00 16.56025 95.1324
2021-06-22T06:00:00 16.93024 93.45185
2021-06-22T07:00:00 17.81025 88.03362
2021-06-22T08:00:00 18.31025 82.96875
2021-06-22T09:00:00 19.23025 77.50575
2021-06-22T10:00:00 19.03025 78.58427
2021-06-22T11:00:00 19.80025 72.46165
2021-06-22T12:00:00 21.00025 64.69168
2021-06-22T13:00:00 22.40025 57.60556
2021-06-22T14:00:00 23.48025 51.79371
2021-06-22T15:00:00 23.15025 54.60201
2021-06-22T16:00:00 22.93024 57.7725
2021-06-22T17:00:00 22.88025 59.97775
2021-06-22T18:00:00 21.37025 69.5453
2021-06-22T19:00:00 21.09025 65.64343
2021-06-22T20:00:00 20.63025 70.44194
2021-06-22T21:00:00 19.08025 76.09183
2021-06-22T22:00:00 18.05025 85.10545
2021-06-22T23:00:00 18.21025 84.95818
2021-06-23T00:00:00 18.06025 85.27107
2021-06-23T01:00:00 16.45025 90.40067
2021-06-23T02:00:00 16.82025 89.55511
2021-06-23T03:00:00 16.59025 90.41059
2021-06-23T04:00:00 16.32025 92.16357
2021-06-23T05:00:00 16.47025 93.36931
2021-06-23T06:00:00 17.75025 87.85883
2021-06-23T07:00:00 18.57025 84.50677
2021-06-23T08:00:00 19.78025 78.99635
2021-06-23T09:00:00 21.20025 71.8765
2021-06-23T10:00:00 22.41025 65.28903
2021-06-23T11:00:00 23.55025 59.3253
2021-06-23T12:00:00 24.61025 52.90812
2021-06-23T13:00:00 25.52025 48.08726
2021-06-23T14:00:00 25.39025 47.7703
2021-06-23T15:00:00 24.63025 51.11892
2021-06-23T16:00:00 24.60025 53.70134
2021-06-23T17:00:00 22.25025 64.62698
2021-06-23T18:00:00 20.88025 69.76514
2021-06-23T19:00:00 19.51024 77.39845
2021-06-23T20:00:00 18.42025 83.5179
2021-06-23T21:00:00 17.35025 88.8487
2021-06-23T22:00:00 16.80025 93.02586
2021-06-23T23:00:00 16.51025 93.1909
2021-06-24T00:00:00 16.12025 94.62672
2021-06-24T01:00:00 15.91025 95.10859
2021-06-24T02:00:00 15.54025 96.14723
2021-06-24T03:00:00 15.31025 97.33086
2021-06-24T04:00:00 15.82025 95.72179
2021-06-24T05:00:00 15.97025 94.55951
2021-06-24T06:00:00 16.25025 92.51772
2021-06-24T07:00:00 16.87025 87.21461
2021-06-24T08:00:00 17.39025 86.42146
2021-06-24T09:00:00 18.09025 85.65914
2021-06-24T10:00:00 19.44025 77.83794
2021-06-24T11:00:00 20.62025 71.21767
2021-06-24T12:00:00 21.31025 68.15782
2021-06-24T13:00:00 21.33025 66.93977
2021-06-24T14:00:00 21.50025 66.32859
2021-06-24T15:00:00 20.18024 71.73701
2021-06-24T16:00:00 19.20025 77.10175
2021-06-24T17:00:00 18.35025 81.75148
2021-06-24T18:00:00 16.92025 86.54357
2021-06-24T19:00:00 16.37025 90.39497
2021-06-24T20:00:00 16.22025 91.80061
2021-06-24T21:00:00 16.02025 92.80479
2021-06-24T22:00:00 15.93025 90.36348
2021-06-24T23:00:00 15.90025 90.53771
2021-06-25T00:00:00 15.77025 88.7186
2021-06-25T01:00:00 15.62025 89.28693
2021-06-25T02:00:00 15.45025 90.6238
2021-06-25T03:00:00 15.41025 90.73927
2021-06-25T04:00:00 15.33025 90.49703
2021-06-25T05:00:00 15.54025 88.87327
2021-06-25T06:00:00 15.80025 87.5706
2021-06-25T07:00:00 16.24025 83.97249
2021-06-25T08:00:00 16.79025 80.70148
2021-06-25T09:00:00 17.27025 76.44727
2021-06-25T10:00:00 17.54025 75.59341
2021-06-25T11:00:00 18.38025 70.98227
2021-06-25T12:00:00 19.53025 64.49681
2021-06-25T13:00:00 20.28025 61.14945
2021-06-25T14:00:00 20.69025 58.94981
2021-06-25T15:00:00 20.78025 57.96775
2021-06-25T16:00:00 20.55025 60.77102
2021-06-25T17:00:00 20.08025 63.77502
2021-06-25T18:00:00 19.43024 68.40128
2021-06-25T19:00:00 18.85025 72.71549
2021-06-25T20:00:00 17.85025 78.71773
2021-06-25T21:00:00 17.27025 79.51109
2021-06-25T22:00:00 16.19025 82.98261
2021-06-25T23:00:00 15.06025 87.90529
2021-06-26T00:00:00 14.81025 87.82475
2021-06-26T01:00:00 14.79025 87.70738
2021-06-26T02:00:00 14.12025 89.75504
2021-06-26T03:00:00 13.45025 91.62394
2021-06-26T04:00:00 13.55025 91.02646
2021-06-26T05:00:00 14.79025 89.92543
2021-06-26T06:00:00 16.29025 83.70405
2021-06-26T07:00:00 17.82025 77.3396
2021-06-26T08:00:00 19.39025 71.8248
2021-06-26T09:00:00 20.92025 65.90654
2021-06-26T10:00:00 22.01024 62.23412
2021-06-26T11:00:00 23.22025 57.6929
2021-06-26T12:00:00 23.91025 54.51009
2021-06-26T13:00:00 24.57025 51.3036
2021-06-26T14:00:00 25.09025 49.46863
2021-06-26T15:00:00 25.79025 46.15781
2021-06-26T16:00:00 25.73025 45.33143
2021-06-26T17:00:00 25.29025 47.40058
2021-06-26T18:00:00 24.28025 54.63909
2021-06-26T19:00:00 21.45025 66.40402
2021-06-26T20:00:00 19.09025 75.30843
2021-06-26T21:00:00 17.57025 81.49274
2021-06-26T22:00:00 16.36025 87.3941
2021-06-26T23:00:00 15.37025 91.92744
2021-06-27T00:00:00 14.97025 91.96275
2021-06-27T01:00:00 14.75025 93.22088
2021-06-27T02:00:00 14.70025 94.01354
2021-06-27T03:00:00 15.02025 92.74976
2021-06-27T04:00:00 15.25025 91.92003
2021-06-27T05:00:00 16.49025 88.89371
2021-06-27T06:00:00 18.56025 81.04299
2021-06-27T07:00:00 20.60025 72.13855
2021-06-27T08:00:00 22.32025 67.79166
2021-06-27T09:00:00 23.81025 63.64745
2021-06-27T10:00:00 25.02025 60.282
2021-06-27T11:00:00 26.20025 55.72055
2021-06-27T12:00:00 26.87025 51.20658
2021-06-27T13:00:00 27.35025 49.23656
2021-06-27T14:00:00 27.89025 46.81703
2021-06-27T15:00:00 28.25025 45.72216
2021-06-27T16:00:00 27.44025 48.38176
2021-06-27T17:00:00 26.97025 49.58128
2021-06-27T18:00:00 24.84025 64.9713
2021-06-27T19:00:00 24.03025 60.32347
2021-06-27T20:00:00 22.87025 66.35701
2021-06-27T21:00:00 20.32025 81.73695
2021-06-27T22:00:00 19.72025 91.3113
2021-06-27T23:00:00 19.01024 93.96295
2021-06-28T00:00:00 18.93024 92.89634
2021-06-28T01:00:00 18.41025 93.46194
2021-06-28T02:00:00 18.12025 94.22428
2021-06-28T03:00:00 18.14025 92.14952
2021-06-28T04:00:00 17.35025 94.67527
2021-06-28T05:00:00 18.01024 93.62203
2021-06-28T06:00:00 19.67025 87.79977
2021-06-28T07:00:00 21.16025 80.86325
2021-06-28T08:00:00 22.53025 76.3418
2021-06-28T09:00:00 23.54025 71.74837
2021-06-28T10:00:00 25.09025 63.88358
2021-06-28T11:00:00 26.12025 60.11425
2021-06-28T12:00:00 27.01024 57.64323
2021-06-28T13:00:00 28.14025 54.38255
2021-06-28T14:00:00 27.80025 52.17169
2021-06-28T15:00:00 25.84025 59.06751
2021-06-28T16:00:00 20.94025 80.88619
2021-06-28T17:00:00 19.24025 86.37805
2021-06-28T18:00:00 18.47025 90.65579
2021-06-28T19:00:00 18.79025 88.84979
2021-06-28T20:00:00 18.03025 93.74223
2021-06-28T21:00:00 18.06025 94.46175
2021-06-28T22:00:00 17.27025 93.16922
2021-06-28T23:00:00 17.24025 93.70646
2021-06-29T00:00:00 17.29025 94.79409
2021-06-29T01:00:00 17.09025 96.0686
2021-06-29T02:00:00 17.10025 95.63989
2021-06-29T03:00:00 16.68024 96.42709
2021-06-29T04:00:00 16.81025 95.75332
2021-06-29T05:00:00 17.08025 95.33379
2021-06-29T06:00:00 18.22025 91.21915
2021-06-29T07:00:00 19.58025 84.88532
2021-06-29T08:00:00 20.29025 79.6766
2021-06-29T09:00:00 20.64025 76.97649
2021-06-29T10:00:00 20.65025 73.69572
2021-06-29T11:00:00 18.48025 80.92788
2021-06-29T12:00:00 16.25025 90.79742
2021-06-29T13:00:00 16.68024 89.89253
2021-06-29T14:00:00 17.75025 83.06286
2021-06-29T15:00:00 19.15025 75.02588
2021-06-29T16:00:00 20.31025 67.42762
2021-06-29T17:00:00 20.30025 67.2501
2021-06-29T18:00:00 19.36025 72.38223
2021-06-29T19:00:00 18.02025 79.15323
2021-06-29T20:00:00 17.05025 82.87075
2021-06-29T21:00:00 16.19025 83.41872
2021-06-29T22:00:00 15.45025 85.77667
2021-06-29T23:00:00 15.04025 84.55471
2021-06-30T00:00:00 14.18025 88.40718
2021-06-30T01:00:00 13.41025 90.77565
2021-06-30T02:00:00 12.86025 92.56329
2021-06-30T03:00:00 13.03025 91.7176
2021-06-30T04:00:00 13.11025 91.29778
2021-06-30T05:00:00 13.60025 90.36975
2021-06-30T06:00:00 14.30025 86.22409
2021-06-30T07:00:00 14.86025 79.42424
2021-06-30T08:00:00 15.36025 74.32676
2021-06-30T09:00:00 16.26025 68.02155
2021-06-30T10:00:00 17.93024 68.00537
2021-06-30T11:00:00 18.88025 66.8224
2021-06-30T12:00:00 19.03025 68.14108
2021-06-30T13:00:00 18.80025 69.90728
2021-06-30T14:00:00 17.52025 75.19424
2021-06-30T15:00:00 17.01024 80.31027
2021-06-30T16:00:00 15.77025 87.4535
2021-06-30T17:00:00 15.72025 87.8498
2021-06-30T18:00:00 15.13025 89.83376
2021-06-30T19:00:00 14.57025 90.91823
2021-06-30T20:00:00 14.27025 92.03996
2021-06-30T21:00:00 14.01025 92.38791
2021-06-30T22:00:00 13.70025 92.55222
2021-06-30T23:00:00 13.64025 93.03839
2021-07-01T00:00:00 13.71025 92.85847
2021-07-01T01:00:00 13.86025 93.11188
2021-07-01T02:00:00 14.05025 92.63374
2021-07-01T03:00:00 14.34025 92.89396
2021-07-01T04:00:00 14.42025 92.53365
2021-07-01T05:00:00 14.54025 92.23791
2021-07-01T06:00:00 14.78025 92.37312
2021-07-01T07:00:00 15.32025 89.96584
2021-07-01T08:00:00 16.08025 87.65335
2021-07-01T09:00:00 16.91025 82.47636
2021-07-01T10:00:00 17.92025 72.02403
2021-07-01T11:00:00 19.25025 64.13778
2021-07-01T12:00:00 20.61025 58.11791
2021-07-01T13:00:00 20.89025 56.8933
2021-07-01T14:00:00 21.05025 56.33377
2021-07-01T15:00:00 21.00025 56.43319
2021-07-01T16:00:00 20.99025 56.16965
2021-07-01T17:00:00 20.62025 57.89004
2021-07-01T18:00:00 19.97025 62.13419
2021-07-01T19:00:00 18.42025 73.01921
2021-07-01T20:00:00 18.10025 71.25644
2021-07-01T21:00:00 16.97025 75.94749
2021-07-01T22:00:00 16.50025 79.29618
2021-07-01T23:00:00 16.08025 80.65744
2021-07-02T00:00:00 14.83025 85.20364
2021-07-02T01:00:00 12.76025 92.55724
2021-07-02T02:00:00 12.12025 94.32575
2021-07-02T03:00:00 11.68025 94.05239
2021-07-02T04:00:00 11.08025 96.06347
2021-07-02T05:00:00 12.93025 92.62895
2021-07-02T06:00:00 14.97025 85.61321
2021-07-02T07:00:00 17.32025 77.31243
2021-07-02T08:00:00 19.23025 65.80461
2021-07-02T09:00:00 20.53025 59.57624
2021-07-02T10:00:00 21.35025 56.29745
2021-07-02T11:00:00 22.30025 52.23818
2021-07-02T12:00:00 23.20025 47.20493
2021-07-02T13:00:00 23.70025 45.03893
2021-07-02T14:00:00 24.20025 42.54682
2021-07-02T15:00:00 24.56025 41.43996
2021-07-02T16:00:00 24.23025 41.87685
2021-07-02T17:00:00 23.90025 43.064
2021-07-02T18:00:00 23.35025 43.25639
2021-07-02T19:00:00 21.11025 57.74331
2021-07-02T20:00:00 17.81025 69.98985
2021-07-02T21:00:00 15.62025 79.01037
2021-07-02T22:00:00 16.87025 74.09908
2021-07-02T23:00:00 14.57025 84.38921
2021-07-03T00:00:00 14.08025 85.97284
2021-07-03T01:00:00 13.35025 88.09833
2021-07-03T02:00:00 12.84025 91.64401
2021-07-03T03:00:00 12.32025 92.71575
2021-07-03T04:00:00 12.81025 91.88608
2021-07-03T05:00:00 14.52025 87.2207
2021-07-03T06:00:00 16.42025 79.70281
2021-07-03T07:00:00 18.64025 70.98509
2021-07-03T08:00:00 20.86025 62.37901
2021-07-03T09:00:00 22.45025 57.61779
2021-07-03T10:00:00 23.57025 53.71776
2021-07-03T11:00:00 24.21025 52.56458
2021-07-03T12:00:00 24.74025 51.14779
2021-07-03T13:00:00 23.99025 56.76799
2021-07-03T14:00:00 23.40025 62.3462
2021-07-03T15:00:00 21.84025 70.89584
2021-07-03T16:00:00 20.11025 83.92281
2021-07-03T17:00:00 19.76024 84.52706
2021-07-03T18:00:00 19.38025 86.39134
2021-07-03T19:00:00 19.70025 76.88113
2021-07-03T20:00:00 19.06025 83.21735
2021-07-03T21:00:00 18.07025 87.10056
2021-07-03T22:00:00 17.02025 97.05413
2021-07-03T23:00:00 16.80025 96.73942
2021-07-04T00:00:00 15.87025 98.54051
2021-07-04T01:00:00 16.24025 98.03983
2021-07-04T02:00:00 16.33025 96.72818
2021-07-04T03:00:00 16.19025 96.97393
2021-07-04T04:00:00 16.59025 96.23933
2021-07-04T05:00:00 17.16025 93.64275
2021-07-04T06:00:00 17.95025 90.2738
2021-07-04T07:00:00 19.03025 85.09895
2021-07-04T08:00:00 19.62025 81.12879
2021-07-04T09:00:00 20.27025 78.31121
2021-07-04T10:00:00 21.21025 75.07576
2021-07-04T11:00:00 22.29025 67.00729
2021-07-04T12:00:00 22.89025 62.63417
2021-07-04T13:00:00 20.81025 64.65035
2021-07-04T14:00:00 19.62025 74.66828
2021-07-04T15:00:00 19.24025 76.66084
2021-07-04T16:00:00 19.00025 76.37534
2021-07-04T17:00:00 19.34025 73.99487
2021-07-04T18:00:00 19.14025 74.63583
2021-07-04T19:00:00 18.29025 80.06928
2021-07-04T20:00:00 17.53025 83.79353
2021-07-04T21:00:00 16.73025 88.11084
2021-07-04T22:00:00 16.55025 90.46625
2021-07-04T23:00:00 16.29025 90.38926
2021-07-05T00:00:00 16.17025 90.43934
2021-07-05T01:00:00 16.40025 88.82869
2021-07-05T02:00:00 16.13025 90.55393
2021-07-05T03:00:00 15.68025 92.60574
2021-07-05T04:00:00 15.75025 92.42952
2021-07-05T05:00:00 16.32025 91.62875
2021-07-05T06:00:00 16.55025 91.05298
2021-07-05T07:00:00 16.36025 92.16591
2021-07-05T08:00:00 16.98025 91.19864
2021-07-05T09:00:00 18.10025 86.49019
2021-07-05T10:00:00 19.36025 81.82614
2021-07-05T11:00:00 20.98025 72.57894
2021-07-05T12:00:00 21.78025 68.64764
2021-07-05T13:00:00 22.63025 64.66713
2021-07-05T14:00:00 23.69025 60.16708
2021-07-05T15:00:00 23.79025 59.0765
2021-07-05T16:00:00 23.95025 59.305
2021-07-05T17:00:00 23.93024 59.72158
2021-07-05T18:00:00 23.47025 62.92466
2021-07-05T19:00:00 21.00025 76.73734
2021-07-05T20:00:00 18.68024 86.82268
2021-07-05T21:00:00 17.62025 90.88949
2021-07-05T22:00:00 17.41025 90.35183
2021-07-05T23:00:00 16.99025 91.1993
2021-07-06T00:00:00 16.97025 90.08816
2021-07-06T01:00:00 16.63025 90.17992
2021-07-06T02:00:00 16.07025 90.96196
2021-07-06T03:00:00 15.91025 91.18771
2021-07-06T04:00:00 15.76025 91.23707
2021-07-06T05:00:00 17.02025 89.39718
2021-07-06T06:00:00 18.74025 83.50111
2021-07-06T07:00:00 20.11025 78.74027
2021-07-06T08:00:00 21.02025 76.6426
2021-07-06T09:00:00 20.54025 80.78315
2021-07-06T10:00:00 19.66025 86.52761
2021-07-06T11:00:00 19.56025 85.97021
2021-07-06T12:00:00 19.09025 87.13777
2021-07-06T13:00:00 18.57025 90.54706
2021-07-06T14:00:00 18.87025 85.84754
2021-07-06T15:00:00 18.73025 85.06761
2021-07-06T16:00:00 17.76024 88.88168
2021-07-06T17:00:00 16.79025 91.18636
2021-07-06T18:00:00 15.88025 93.15867
2021-07-06T19:00:00 15.42025 94.84381
2021-07-06T20:00:00 15.28025 95.14666
2021-07-06T21:00:00 15.21025 94.89708
2021-07-06T22:00:00 15.21025 96.57479
2021-07-06T23:00:00 15.45025 96.76887
2021-07-07T00:00:00 15.52025 96.45819
2021-07-07T01:00:00 15.46025 96.26943
2021-07-07T02:00:00 15.44025 96.64345
2021-07-07T03:00:00 15.56025 96.45927
2021-07-07T04:00:00 15.47025 96.7068
2021-07-07T05:00:00 15.66025 96.21297
2021-07-07T06:00:00 15.95025 95.60257
2021-07-07T07:00:00 16.51025 95.37548
2021-07-07T08:00:00 17.71025 92.06635
2021-07-07T09:00:00 18.49025 88.03524
2021-07-07T10:00:00 19.06025 79.25034
2021-07-07T11:00:00 20.00025 74.8283
2021-07-07T12:00:00 20.86025 71.86105
2021-07-07T13:00:00 22.04025 67.43144
2021-07-07T14:00:00 22.43024 65.50365
2021-07-07T15:00:00 22.75025 64.73447
2021-07-07T16:00:00 23.18024 63.34691
2021-07-07T17:00:00 22.83025 64.83483
2021-07-07T18:00:00 22.13025 69.91446
2021-07-07T19:00:00 21.75025 68.46543
2021-07-07T20:00:00 20.92025 73.27055
2021-07-07T21:00:00 19.82025 77.44552
2021-07-07T22:00:00 17.72025 90.31557
2021-07-07T23:00:00 18.01024 89.41558
2021-07-08T00:00:00 16.98025 92.37978
2021-07-08T01:00:00 16.20025 94.99677
2021-07-08T02:00:00 16.04025 96.34798
2021-07-08T03:00:00 15.69025 98.85646
2021-07-08T04:00:00 15.80025 98.66671
2021-07-08T05:00:00 16.14025 97.09762
2021-07-08T06:00:00 16.68024 96.24182
2021-07-08T07:00:00 17.63025 93.84399
2021-07-08T08:00:00 18.09025 93.92394
2021-07-08T09:00:00 19.04025 90.86601
2021-07-08T10:00:00 18.54025 84.28671
2021-07-08T11:00:00 18.88025 82.18742
2021-07-08T12:00:00 19.18024 80.24246
2021-07-08T13:00:00 19.37025 78.17929
2021-07-08T14:00:00 19.25025 79.53268
2021-07-08T15:00:00 18.71025 80.59357
2021-07-08T16:00:00 18.57025 81.77935
2021-07-08T17:00:00 18.65025 81.78948
2021-07-08T18:00:00 18.05025 84.72254
2021-07-08T19:00:00 17.06025 88.19636
2021-07-08T20:00:00 16.26025 90.62178
2021-07-08T21:00:00 15.68025 92.30551
2021-07-08T22:00:00 15.76025 91.29639
2021-07-08T23:00:00 15.39025 92.58938
2021-07-09T00:00:00 15.12025 93.54452
2021-07-09T01:00:00 14.81025 93.83479
2021-07-09T02:00:00 14.86025 94.20516
2021-07-09T03:00:00 14.90025 93.5335
2021-07-09T04:00:00 14.52025 93.63677
2021-07-09T05:00:00 15.18025 91.07944
2021-07-09T06:00:00 16.24025 86.53328
2021-07-09T07:00:00 17.35025 83.06886
2021-07-09T08:00:00 18.43024 78.34384
2021-07-09T09:00:00 19.67025 72.25046
2021-07-09T10:00:00 20.36025 65.70171
2021-07-09T11:00:00 21.09025 62.84055
2021-07-09T12:00:00 21.78025 59.52311
2021-07-09T13:00:00 22.00025 58.9175
2021-07-09T14:00:00 22.29025 57.24052
2021-07-09T15:00:00 22.49025 54.5771
2021-07-09T16:00:00 22.60025 53.85648
2021-07-09T17:00:00 22.52025 54.29839
2021-07-09T18:00:00 22.04025 56.80491
2021-07-09T19:00:00 20.71025 61.00883
2021-07-09T20:00:00 18.62025 73.19827
2021-07-09T21:00:00 17.40025 78.08781
2021-07-09T22:00:00 16.40025 82.9539
2021-07-09T23:00:00 14.99025 88.94387
2021-07-10T00:00:00 13.85025 92.31744
2021-07-10T01:00:00 13.18025 94.87585
2021-07-10T02:00:00 12.47025 95.98501
2021-07-10T03:00:00 11.87025 97.05624
2021-07-10T04:00:00 11.60025 95.9539
2021-07-10T05:00:00 14.01025 91.35933
2021-07-10T06:00:00 15.97025 86.84628
2021-07-10T07:00:00 17.90025 80.58902
2021-07-10T08:00:00 19.84025 74.08062
2021-07-10T09:00:00 21.50025 67.7138
2021-07-10T10:00:00 23.05025 60.52441
2021-07-10T11:00:00 24.15025 55.28365
2021-07-10T12:00:00 24.73025 52.45986
2021-07-10T13:00:00 25.57025 49.6285
2021-07-10T14:00:00 26.30025 48.04641
2021-07-10T15:00:00 26.43024 47.52274
2021-07-10T16:00:00 25.91025 47.19739
2021-07-10T17:00:00 24.55025 51.49951
2021-07-10T18:00:00 21.38025 68.39203
2021-07-10T19:00:00 18.60025 78.26749
2021-07-10T20:00:00 16.85025 87.38245
2021-07-10T21:00:00 16.08025 90.96264
2021-07-10T22:00:00 15.97025 91.13252
2021-07-10T23:00:00 15.61025 92.06176
2021-07-11T00:00:00 15.08025 93.6035
2021-07-11T01:00:00 14.83025 94.26528
2021-07-11T02:00:00 14.79025 94.63313
2021-07-11T03:00:00 14.69025 94.50547
2021-07-11T04:00:00 14.92025 94.4538
2021-07-11T05:00:00 15.60025 92.36085
2021-07-11T06:00:00 16.12025 91.08339
2021-07-11T07:00:00 16.91025 85.98303
2021-07-11T08:00:00 17.95025 79.29769
2021-07-11T09:00:00 18.88025 73.38771
2021-07-11T10:00:00 20.54025 66.60249
2021-07-11T11:00:00 21.42025 62.66937
2021-07-11T12:00:00 22.10025 60.02823
2021-07-11T13:00:00 22.81025 57.21882
2021-07-11T14:00:00 23.34025 54.68597
2021-07-11T15:00:00 23.25025 55.30958
2021-07-11T16:00:00 23.50025 54.54828
2021-07-11T17:00:00 23.31025 56.38007
2021-07-11T18:00:00 22.34025 60.8709
2021-07-11T19:00:00 19.70025 74.39266
2021-07-11T20:00:00 16.86025 85.36591
2021-07-11T21:00:00 15.77025 89.53199
2021-07-11T22:00:00 14.61025 92.72667
2021-07-11T23:00:00 14.08025 94.66483
2021-07-12T00:00:00 13.47025 95.32661
2021-07-12T01:00:00 13.17025 95.25202
2021-07-12T02:00:00 13.08025 95.56348
2021-07-12T03:00:00 13.01025 94.86859
2021-07-12T04:00:00 12.90025 94.61304
2021-07-12T05:00:00 14.80025 89.57278
2021-07-12T06:00:00 16.06025 86.40265
2021-07-12T07:00:00 17.73025 80.56603
2021-07-12T08:00:00 19.05025 75.93924
2021-07-12T09:00:00 20.08025 73.36021
2021-07-12T10:00:00 22.26024 69.36042
2021-07-12T11:00:00 23.61025 65.16691
2021-07-12T12:00:00 23.47025 66.05817
2021-07-12T13:00:00 23.69025 64.35731
2021-07-12T14:00:00 24.21025 61.10436
2021-07-12T15:00:00 25.02025 56.5454
2021-07-12T16:00:00 25.27025 55.56247
2021-07-12T17:00:00 23.93024 63.91779
2021-07-12T18:00:00 21.95025 76.93107
2021-07-12T19:00:00 20.24025 86.63632
2021-07-12T20:00:00 19.83025 83.41255
2021-07-12T21:00:00 18.86025 89.42252
2021-07-12T22:00:00 18.81025 92.53798
2021-07-12T23:00:00 18.38025 91.63667
2021-07-13T00:00:00 17.90025 91.54939
2021-07-13T01:00:00 17.47025 92.17056
2021-07-13T02:00:00 17.06025 92.26561
2021-07-13T03:00:00 16.40025 92.5261
2021-07-13T04:00:00 15.79025 92.19216
2021-07-13T05:00:00 15.20025 91.67735
2021-07-13T06:00:00 14.97025 92.44466
2021-07-13T07:00:00 14.84025 93.16477
2021-07-13T08:00:00 14.63025 93.21453
2021-07-13T09:00:00 14.60025 92.00004
2021-07-13T10:00:00 14.42025 92.95934
2021-07-13T11:00:00 15.00025 88.76981
2021-07-13T12:00:00 15.72025 85.41214
2021-07-13T13:00:00 16.06025 84.39269
2021-07-13T14:00:00 16.19025 83.47338
2021-07-13T15:00:00 16.17025 84.95886
2021-07-13T16:00:00 16.48025 84.7159
2021-07-13T17:00:00 16.12025 88.69014
2021-07-13T18:00:00 15.97025 88.61984
2021-07-13T19:00:00 15.49025 90.68574
2021-07-13T20:00:00 14.88025 91.83699
2021-07-13T21:00:00 14.09025 93.36948
2021-07-13T22:00:00 13.04025 97.72932
2021-07-13T23:00:00 13.06025 96.70464
2021-07-14T00:00:00 13.31025 94.44414
2021-07-14T01:00:00 13.38025 94.572
2021-07-14T02:00:00 13.69025 94.02712
2021-07-14T03:00:00 13.49025 95.32737
2021-07-14T04:00:00 13.66025 95.71063
2021-07-14T05:00:00 14.09025 95.72576
2021-07-14T06:00:00 14.98025 93.4156
2021-07-14T07:00:00 15.68025 90.69904
2021-07-14T08:00:00 16.53025 86.28066
2021-07-14T09:00:00 17.64025 80.24001
2021-07-14T10:00:00 18.50025 77.14331
2021-07-14T11:00:00 18.66025 76.22205
2021-07-14T12:00:00 19.34025 71.67545
2021-07-14T13:00:00 18.91025 73.92062
2021-07-14T14:00:00 18.76024 75.69536
2021-07-14T15:00:00 18.10025 78.49876
2021-07-14T16:00:00 17.65025 80.45047
2021-07-14T17:00:00 16.59025 87.18852
2021-07-14T18:00:00 15.80025 92.55238
2021-07-14T19:00:00 15.20025 96.57451
2021-07-14T20:00:00 15.11025 96.25922
2021-07-14T21:00:00 14.98025 95.01153
2021-07-14T22:00:00 14.77025 95.25131
2021-07-14T23:00:00 14.58025 95.74265
2021-07-15T00:00:00 14.65025 95.93246
2021-07-15T01:00:00 14.63025 97.56991
2021-07-15T02:00:00 14.76025 97.5725
2021-07-15T03:00:00 15.07025 97.32579
2021-07-15T04:00:00 15.32025 97.01655
2021-07-15T05:00:00 15.50025 97.52368
2021-07-15T06:00:00 15.78025 97.84382
2021-07-15T07:00:00 16.19025 95.85717
2021-07-15T08:00:00 16.75025 93.20302
2021-07-15T09:00:00 17.30025 90.635
2021-07-15T10:00:00 17.85025 91.66345
2021-07-15T11:00:00 18.66025 88.38739
2021-07-15T12:00:00 18.83025 86.55975
2021-07-15T13:00:00 18.79025 88.73667
2021-07-15T14:00:00 18.87025 87.78717
2021-07-15T15:00:00 18.77025 88.79165
2021-07-15T16:00:00 18.94025 87.84914
2021-07-15T17:00:00 18.40025 90.70889
2021-07-15T18:00:00 18.11025 90.74757
2021-07-15T19:00:00 17.63025 92.77106
2021-07-15T20:00:00 17.29025 94.43108
2021-07-15T21:00:00 16.87025 95.7552
2021-07-15T22:00:00 16.81025 97.36061
2021-07-15T23:00:00 16.53025 98.4213
2021-07-16T00:00:00 16.41025 98.86227
2021-07-16T01:00:00 16.28025 98.86128
2021-07-16T02:00:00 15.72025 99.36712
2021-07-16T03:00:00 16.23025 98.67084
2021-07-16T04:00:00 16.19025 98.60719
2021-07-16T05:00:00 16.34025 98.29306
2021-07-16T06:00:00 16.75025 95.4449
2021-07-16T07:00:00 17.79025 87.69302
2021-07-16T08:00:00 18.79025 85.29204
2021-07-16T09:00:00 19.24025 85.61082
2021-07-16T10:00:00 19.65025 86.41692
2021-07-16T11:00:00 20.06025 81.7046
2021-07-16T12:00:00 20.36025 81.32711
2021-07-16T13:00:00 20.93024 78.65656
2021-07-16T14:00:00 21.07025 74.71781
2021-07-16T15:00:00 21.13025 74.34653
2021-07-16T16:00:00 19.99025 79.99259
2021-07-16T17:00:00 20.55025 78.80304
2021-07-16T18:00:00 20.48025 79.29724
2021-07-16T19:00:00 19.52025 85.80245
2021-07-16T20:00:00 18.04025 92.55608
2021-07-16T21:00:00 17.32025 94.49271
2021-07-16T22:00:00 16.33025 96.60394
2021-07-16T23:00:00 16.94025 94.84158
2021-07-17T00:00:00 17.12025 94.60579
2021-07-17T01:00:00 16.34025 97.91554
2021-07-17T02:00:00 16.41025 98.23093
2021-07-17T03:00:00 16.73025 97.4838
2021-07-17T04:00:00 16.81025 97.17396
2021-07-17T05:00:00 16.72025 96.67558
2021-07-17T06:00:00 16.97025 96.68159
2021-07-17T07:00:00 17.72025 95.23383
2021-07-17T08:00:00 18.52025 90.25584
2021-07-17T09:00:00 19.55025 84.34318
2021-07-17T10:00:00 20.24025 77.5089
2021-07-17T11:00:00 21.31025 73.38508
2021-07-17T12:00:00 22.03025 70.29909
2021-07-17T13:00:00 22.57025 68.89036
2021-07-17T14:00:00 22.98025 67.19055
2021-07-17T15:00:00 23.11025 67.68994
2021-07-17T16:00:00 22.77025 70.48239
2021-07-17T17:00:00 22.39025 73.52333
2021-07-17T18:00:00 22.00025 75.82633
2021-07-17T19:00:00 21.24025 80.36356
2021-07-17T20:00:00 20.34025 85.61169
2021-07-17T21:00:00 19.61025 89.64788
2021-07-17T22:00:00 19.08025 92.55207
2021-07-17T23:00:00 18.44025 94.41666
2021-07-18T00:00:00 18.44025 95.31813
2021-07-18T01:00:00 18.21025 95.25022
2021-07-18T02:00:00 18.25025 94.94997
2021-07-18T03:00:00 18.11025 94.7041
2021-07-18T04:00:00 17.77025 93.61108
2021-07-18T05:00:00 17.71025 91.94866
2021-07-18T06:00:00 18.63025 85.49439
2021-07-18T07:00:00 19.68024 80.36126
2021-07-18T08:00:00 20.92025 74.35893
2021-07-18T09:00:00 22.25025 69.75871
2021-07-18T10:00:00 23.25025 66.09692
2021-07-18T11:00:00 24.44025 62.53797
2021-07-18T12:00:00 25.43024 59.49957
2021-07-18T13:00:00 25.76024 57.96927
2021-07-18T14:00:00 26.15025 56.49538
2021-07-18T15:00:00 26.38025 55.37511
2021-07-18T16:00:00 26.35025 55.08583
2021-07-18T17:00:00 25.82025 56.45112
2021-07-18T18:00:00 24.84025 59.58997
2021-07-18T19:00:00 23.00025 65.91838
2021-07-18T20:00:00 21.03025 74.56797
2021-07-18T21:00:00 19.13025 83.01254
2021-07-18T22:00:00 17.61025 87.5079
2021-07-18T23:00:00 16.84025 89.61452
2021-07-19T00:00:00 16.23025 91.327
2021-07-19T01:00:00 15.69025 92.60629
2021-07-19T02:00:00 15.25025 94.22273
2021-07-19T03:00:00 15.12025 94.77016
2021-07-19T04:00:00 14.71025 95.12492
2021-07-19T05:00:00 16.57025 93.01399
2021-07-19T06:00:00 18.88025 86.06825
2021-07-19T07:00:00 20.61025 80.99783
2021-07-19T08:00:00 22.43024 74.84578
2021-07-19T09:00:00 24.18024 68.63514
2021-07-19T10:00:00 25.53025 61.75419
2021-07-19T11:00:00 26.51024 58.4794
2021-07-19T12:00:00 27.16025 56.52469
2021-07-19T13:00:00 27.55025 55.17149
2021-07-19T14:00:00 27.77025 53.5058
2021-07-19T15:00:00 27.84025 51.91713
2021-07-19T16:00:00 27.24025 53.44064
2021-07-19T17:00:00 26.31025 55.4639
2021-07-19T18:00:00 24.83025 59.09428
2021-07-19T19:00:00 22.96025 65.07091
2021-07-19T20:00:00 20.74025 75.04686
2021-07-19T21:00:00 19.37025 79.95941
2021-07-19T22:00:00 18.28025 85.18438
2021-07-19T23:00:00 17.39025 87.03759
2021-07-20T00:00:00 17.08025 87.2905
2021-07-20T01:00:00 16.30025 88.24525
2021-07-20T02:00:00 15.80025 89.88485
2021-07-20T03:00:00 16.03025 89.90221
2021-07-20T04:00:00 15.53025 92.11683
2021-07-20T05:00:00 15.29025 92.52345
2021-07-20T06:00:00 17.24025 85.40582
2021-07-20T07:00:00 18.64025 78.83284
2021-07-20T08:00:00 20.14025 74.41895
2021-07-20T09:00:00 21.70025 70.28193
2021-07-20T10:00:00 22.98025 66.59225
2021-07-20T11:00:00 23.96025 62.79163
2021-07-20T12:00:00 24.89025 58.43138
2021-07-20T13:00:00 25.34025 54.55298
2021-07-20T14:00:00 25.78025 51.98716
2021-07-20T15:00:00 25.69025 51.66257
2021-07-20T16:00:00 25.32025 51.36617
2021-07-20T17:00:00 24.47025 52.42669
2021-07-20T18:00:00 23.10025 53.70254
2021-07-20T19:00:00 20.66025 63.90388
2021-07-20T20:00:00 18.32025 73.81799
2021-07-20T21:00:00 17.15025 77.84555
2021-07-20T22:00:00 16.67025 79.73843
2021-07-20T23:00:00 17.02025 78.08141
2021-07-21T00:00:00 16.77025 78.0947
2021-07-21T01:00:00 16.23025 79.30914
2021-07-21T02:00:00 15.80025 80.6189
2021-07-21T03:00:00 15.54025 82.24947
2021-07-21T04:00:00 15.01025 83.88395
2021-07-21T05:00:00 15.03025 85.05708
2021-07-21T06:00:00 17.12025 79.12642
2021-07-21T07:00:00 18.91025 69.83714
2021-07-21T08:00:00 20.56025 64.09104
2021-07-21T09:00:00 22.00025 60.79191
2021-07-21T10:00:00 23.40025 59.25151
2021-07-21T11:00:00 24.49025 56.81706
2021-07-21T12:00:00 25.58025 53.94996
2021-07-21T13:00:00 26.28025 51.25119
2021-07-21T14:00:00 26.61025 49.07263
2021-07-21T15:00:00 26.80025 47.31462
2021-07-21T16:00:00 26.44025 48.45944
2021-07-21T17:00:00 25.65025 50.4293
2021-07-21T18:00:00 23.87025 54.74877
2021-07-21T19:00:00 20.82025 68.72382
2021-07-21T20:00:00 18.70025 77.37472
2021-07-21T21:00:00 18.18024 78.45956
2021-07-21T22:00:00 17.33025 81.7803
2021-07-21T23:00:00 17.45025 80.21382
2021-07-22T00:00:00 17.03025 82.00874
2021-07-22T01:00:00 16.50025 83.18336
2021-07-22T02:00:00 16.08025 84.3397
2021-07-22T03:00:00 16.15025 83.52332
2021-07-22T04:00:00 16.20025 82.82079
2021-07-22T05:00:00 16.28025 82.77641
2021-07-22T06:00:00 17.73025 78.6488
2021-07-22T07:00:00 19.24025 72.12531
2021-07-22T08:00:00 20.81025 66.39941
2021-07-22T09:00:00 22.29025 63.35463
2021-07-22T10:00:00 24.05025 58.23085
2021-07-22T11:00:00 25.35025 55.33287
2021-07-22T12:00:00 26.27025 53.67498
2021-07-22T13:00:00 27.13025 49.30526
2021-07-22T14:00:00 27.67025 46.60732
2021-07-22T15:00:00 27.73025 44.44423
2021-07-22T16:00:00 27.26024 46.34645
2021-07-22T17:00:00 26.34025 51.26677
2021-07-22T18:00:00 24.83025 54.42469
2021-07-22T19:00:00 21.72025 69.65738
2021-07-22T20:00:00 19.91025 75.93038
2021-07-22T21:00:00 19.54025 77.00508
2021-07-22T22:00:00 18.72025 80.02489
2021-07-22T23:00:00 18.03025 81.76366
2021-07-23T00:00:00 17.13025 84.84219
2021-07-23T01:00:00 16.17025 88.06189
2021-07-23T02:00:00 15.17025 90.36726
2021-07-23T03:00:00 14.65025 91.76234
2021-07-23T04:00:00 14.00025 92.509
2021-07-23T05:00:00 15.57025 90.27855
2021-07-23T06:00:00 18.21025 81.57533
2021-07-23T07:00:00 20.20025 71.09354
2021-07-23T08:00:00 21.92025 64.43053
2021-07-23T09:00:00 23.40025 63.11129
2021-07-23T10:00:00 24.87025 57.94188
2021-07-23T11:00:00 26.29025 54.79028
2021-07-23T12:00:00 27.21025 51.19611
2021-07-23T13:00:00 28.03025 47.88914
2021-07-23T14:00:00 28.33025 46.48513
2021-07-23T15:00:00 28.58025 44.90683
2021-07-23T16:00:00 28.40025 45.85108
2021-07-23T17:00:00 27.59025 50.41709
2021-07-23T18:00:00 25.82025 57.83606
2021-07-23T19:00:00 23.19025 67.49059
2021-07-23T20:00:00 21.26024 76.09594
2021-07-23T21:00:00 20.07025 81.60176
2021-07-23T22:00:00 19.19025 85.6058
2021-07-23T23:00:00 18.58025 87.53806
2021-07-24T00:00:00 18.38025 88.87409
2021-07-24T01:00:00 18.01024 89.58749
2021-07-24T02:00:00 18.18024 89.77214
2021-07-24T03:00:00 17.98025 91.14578
2021-07-24T04:00:00 18.67025 89.35135
2021-07-24T05:00:00 19.15025 87.2542
2021-07-24T06:00:00 19.55025 86.18811
2021-07-24T07:00:00 19.29025 90.76708
2021-07-24T08:00:00 19.62025 92.69652
2021-07-24T09:00:00 21.72025 82.06338
2021-07-24T10:00:00 23.40025 64.95627
2021-07-24T11:00:00 23.41025 64.9584
2021-07-24T12:00:00 24.16025 60.46976
2021-07-24T13:00:00 24.82025 56.97075
2021-07-24T14:00:00 25.02025 57.38634
2021-07-24T15:00:00 25.22025 57.50817
2021-07-24T16:00:00 25.46025 55.00575
2021-07-24T17:00:00 24.50025 62.23324
2021-07-24T18:00:00 22.71025 70.65072
2021-07-24T19:00:00 21.36025 78.4187
2021-07-24T20:00:00 20.13025 86.07993
2021-07-24T21:00:00 19.41025 91.69706
2021-07-24T22:00:00 19.12025 93.55335
2021-07-24T23:00:00 19.12025 92.72979
2021-07-25T00:00:00 18.93024 92.60285
2021-07-25T01:00:00 18.54025 93.88365
2021-07-25T02:00:00 18.16025 94.88652
2021-07-25T03:00:00 17.42025 97.12418
2021-07-25T04:00:00 17.41025 96.56875
2021-07-25T05:00:00 17.63025 96.57404
2021-07-25T06:00:00 18.08025 94.28256
2021-07-25T07:00:00 18.77025 91.25341
2021-07-25T08:00:00 19.60025 87.12824
2021-07-25T09:00:00 20.26024 81.78152
2021-07-25T10:00:00 20.73025 79.53412
2021-07-25T11:00:00 21.39025 75.6815
2021-07-25T12:00:00 21.85025 74.41911
2021-07-25T13:00:00 22.74025 66.97029
2021-07-25T14:00:00 23.33025 63.9513
2021-07-25T15:00:00 23.74025 62.18265
2021-07-25T16:00:00 23.88025 61.10735
2021-07-25T17:00:00 23.48025 62.60475
2021-07-25T18:00:00 22.55025 70.35173
2021-07-25T19:00:00 20.39025 80.55821
2021-07-25T20:00:00 19.57025 81.95708
2021-07-25T21:00:00 17.45025 90.58702
2021-07-25T22:00:00 17.07025 95.94524
2021-07-25T23:00:00 16.91025 96.12497
2021-07-26T00:00:00 16.70025 96.86109
2021-07-26T01:00:00 16.38025 98.10468
2021-07-26T02:00:00 16.37025 97.91598
2021-07-26T03:00:00 16.45025 97.60382
2021-07-26T04:00:00 16.56025 97.10659
2021-07-26T05:00:00 17.00025 94.84384
2021-07-26T06:00:00 18.42025 89.50364
2021-07-26T07:00:00 19.41025 85.30125
2021-07-26T08:00:00 20.33025 79.5297
2021-07-26T09:00:00 21.40025 75.15461
2021-07-26T10:00:00 22.96025 69.00994
2021-07-26T11:00:00 23.63025 66.13335
2021-07-26T12:00:00 23.56025 67.30751
2021-07-26T13:00:00 22.97025 68.09486
2021-07-26T14:00:00 22.17025 73.06667
2021-07-26T15:00:00 23.57025 66.50097
2021-07-26T16:00:00 23.16025 65.07169
2021-07-26T17:00:00 21.93024 69.25233
2021-07-26T18:00:00 21.30025 72.49616
2021-07-26T19:00:00 19.73025 79.90604
2021-07-26T20:00:00 18.67025 85.49847
2021-07-26T21:00:00 17.67025 89.0459
2021-07-26T22:00:00 17.13025 90.85696
2021-07-26T23:00:00 16.76024 92.30795
2021-07-27T00:00:00 16.44025 93.00723
2021-07-27T01:00:00 16.02025 94.43948
2021-07-27T02:00:00 15.13025 94.77058
2021-07-27T03:00:00 14.58025 95.182
2021-07-27T04:00:00 14.38025 95.48589
2021-07-27T05:00:00 15.68025 93.08787
2021-07-27T06:00:00 16.89025 90.19868
2021-07-27T07:00:00 18.55025 83.64037
2021-07-27T08:00:00 19.96025 79.0725
2021-07-27T09:00:00 21.35025 73.11085
2021-07-27T10:00:00 22.57025 68.40796
2021-07-27T11:00:00 23.54025 63.6293
2021-07-27T12:00:00 24.21025 60.17187
2021-07-27T13:00:00 25.26024 57.04103
2021-07-27T14:00:00 25.77025 53.85927
2021-07-27T15:00:00 24.31025 60.93193
2021-07-27T16:00:00 23.54025 66.4102
2021-07-27T17:00:00 23.34025 68.42834
2021-07-27T18:00:00 22.58025 75.0122
2021-07-27T19:00:00 21.19025 81.74086
2021-07-27T20:00:00 20.37025 83.26241
2021-07-27T21:00:00 19.57025 87.23619
2021-07-27T22:00:00 19.21025 87.03774
2021-07-27T23:00:00 18.79025 89.53114
2021-07-28T00:00:00 18.47025 90.30991
2021-07-28T01:00:00 17.74025 92.06806
2021-07-28T02:00:00 17.25025 93.4073
2021-07-28T03:00:00 16.86025 93.92994
2021-07-28T04:00:00 16.49025 95.0687
2021-07-28T05:00:00 16.70025 94.28574
2021-07-28T06:00:00 17.13025 92.15113
2021-07-28T07:00:00 17.46025 87.6638
2021-07-28T08:00:00 17.85025 86.0218
2021-07-28T09:00:00 18.87025 82.50368
2021-07-28T10:00:00 20.38025 74.93949
2021-07-28T11:00:00 21.28025 69.17047
2021-07-28T12:00:00 22.33025 64.76937
2021-07-28T13:00:00 22.97025 62.61171
2021-07-28T14:00:00 23.77025 60.92545
2021-07-28T15:00:00 24.14025 58.77992
2021-07-28T16:00:00 23.54025 60.91179
2021-07-28T17:00:00 23.31025 62.4062
2021-07-28T18:00:00 22.74025 64.35889
2021-07-28T19:00:00 20.68024 74.27095
2021-07-28T20:00:00 19.26024 80.61501
2021-07-28T21:00:00 18.32025 84.91522
2021-07-28T22:00:00 17.02025 88.07898
2021-07-28T23:00:00 17.33025 87.7654
2021-07-29T00:00:00 16.75025 90.07216
2021-07-29T01:00:00 16.28025 91.56699
2021-07-29T02:00:00 16.25025 92.39817
2021-07-29T03:00:00 15.57025 93.44541
2021-07-29T04:00:00 15.95025 92.20158
2021-07-29T05:00:00 17.01024 88.53471
2021-07-29T06:00:00 18.06025 85.27107
2021-07-29T07:00:00 18.92025 79.02618
2021-07-29T08:00:00 20.24025 69.28057
2021-07-29T09:00:00 21.23025 62.83109
2021-07-29T10:00:00 22.26024 59.87071
2021-07-29T11:00:00 22.99025 57.1512
2021-07-29T12:00:00 23.72025 55.24763
2021-07-29T13:00:00 24.40025 52.88844
2021-07-29T14:00:00 24.83025 52.93034
2021-07-29T15:00:00 24.85025 52.79833
2021-07-29T16:00:00 25.11025 51.21142
2021-07-29T17:00:00 24.61025 52.7365
2021-07-29T18:00:00 23.25025 60.80578
2021-07-29T19:00:00 21.08025 67.89179
2021-07-29T20:00:00 18.41025 80.70971
2021-07-29T21:00:00 16.24025 90.79675
2021-07-29T22:00:00 16.38025 86.7727
2021-07-29T23:00:00 15.74025 88.8319
2021-07-30T00:00:00 16.63025 84.9535
2021-07-30T01:00:00 16.39025 86.21051
2021-07-30T02:00:00 16.06025 86.85497
2021-07-30T03:00:00 14.31025 93.74903
2021-07-30T04:00:00 14.12025 94.29481
2021-07-30T05:00:00 15.06025 91.96832
2021-07-30T06:00:00 17.19025 86.40192
2021-07-30T07:00:00 19.45025 77.23982
2021-07-30T08:00:00 21.38025 71.49529
2021-07-30T09:00:00 23.00025 67.4094
2021-07-30T10:00:00 24.29025 61.35759
2021-07-30T11:00:00 25.55025 56.49362
2021-07-30T12:00:00 26.94025 52.82275
2021-07-30T13:00:00 27.25025 51.8985
2021-07-30T14:00:00 25.17025 59.59078
2021-07-30T15:00:00 23.55025 66.36998
2021-07-30T16:00:00 23.45025 68.49331
2021-07-30T17:00:00 22.81025 72.62322
2021-07-30T18:00:00 22.12025 75.03275
2021-07-30T19:00:00 21.49025 77.64574
2021-07-30T20:00:00 20.48025 80.41637
2021-07-30T21:00:00 19.94025 81.27368
2021-07-30T22:00:00 18.20025 87.16839
2021-07-30T23:00:00 17.42025 90.00483
2021-07-31T00:00:00 17.05025 90.96868
2021-07-31T01:00:00 16.59025 91.88242
2021-07-31T02:00:00 16.42025 91.63497
2021-07-31T03:00:00 16.32025 91.8661
2021-07-31T04:00:00 15.90025 92.07912
2021-07-31T05:00:00 16.31025 89.86488
2021-07-31T06:00:00 17.76024 83.11786
2021-07-31T07:00:00 18.96025 71.41813
2021-07-31T08:00:00 19.88025 63.43746
2021-07-31T09:00:00 20.56025 59.26961
2021-07-31T10:00:00 21.51024 57.349
2021-07-31T11:00:00 22.08025 56.22104
2021-07-31T12:00:00 22.70025 53.49378
2021-07-31T13:00:00 22.70025 53.21283
2021-07-31T14:00:00 23.27025 52.01148
2021-07-31T15:00:00 23.32025 51.44615
2021-07-31T16:00:00 22.69025 54.87962
2021-07-31T17:00:00 22.07025 58.97283
2021-07-31T18:00:00 20.56025 66.99793
2021-07-31T19:00:00 18.65025 74.74734
2021-07-31T20:00:00 17.55025 81.43719
2021-07-31T21:00:00 16.93024 84.54521
2021-07-31T22:00:00 16.28025 92.75887
2021-07-31T23:00:00 15.92025 94.43527
2021-08-01T00:00:00 15.68025 95.71723
2021-08-01T01:00:00 15.35025 96.70371
2021-08-01T02:00:00 15.09025 96.69699
2021-08-01T03:00:00 14.86025 96.7538
2021-08-01T04:00:00 14.64025 97.00035
2021-08-01T05:00:00 14.49025 97.63068
2021-08-01T06:00:00 14.65025 97.31673
2021-08-01T07:00:00 15.06025 96.008
2021-08-01T08:00:00 15.68025 93.08787
2021-08-01T09:00:00 16.55025 88.95624
2021-08-01T10:00:00 17.23025 81.76749
2021-08-01T11:00:00 18.17025 76.2923
2021-08-01T12:00:00 18.85025 72.33678
2021-08-01T13:00:00 18.87025 71.72877
2021-08-01T14:00:00 18.28025 74.1497
2021-08-01T15:00:00 17.73025 78.54633
2021-08-01T16:00:00 17.26024 83.38249
2021-08-01T17:00:00 16.58025 86.00546
2021-08-01T18:00:00 16.19025 88.98473
2021-08-01T19:00:00 15.45025 94.41526
2021-08-01T20:00:00 14.55025 95.55438
2021-08-01T21:00:00 13.70025 96.91324
2021-08-01T22:00:00 14.01025 94.53767
2021-08-01T23:00:00 14.03025 95.03597
2021-08-02T00:00:00 13.79025 95.65243
2021-08-02T01:00:00 13.56025 96.08538
2021-08-02T02:00:00 13.29025 96.7749
2021-08-02T03:00:00 13.01025 97.40723
2021-08-02T04:00:00 12.98025 97.66369
2021-08-02T05:00:00 13.48025 95.07623
2021-08-02T06:00:00 14.34025 92.71132
2021-08-02T07:00:00 15.59025 87.37958
2021-08-02T08:00:00 16.67025 82.82433
2021-08-02T09:00:00 18.15025 73.93334
2021-08-02T10:00:00 19.30025 69.68504
2021-08-02T11:00:00 19.91025 66.47031
2021-08-02T12:00:00 20.38025 63.9674
2021-08-02T13:00:00 21.25025 60.14169
2021-08-02T14:00:00 21.50025 55.89063
2021-08-02T15:00:00 21.99025 53.59253
2021-08-02T16:00:00 21.05025 57.50031
2021-08-02T17:00:00 20.53025 60.96668
2021-08-02T18:00:00 19.37025 69.19942
2021-08-02T19:00:00 18.60025 70.42093
2021-08-02T20:00:00 17.50025 75.48763
2021-08-02T21:00:00 16.38025 80.91074
2021-08-02T22:00:00 15.24025 88.84823
2021-08-02T23:00:00 15.05025 89.4752
2021-08-03T00:00:00 14.06025 92.5734
2021-08-03T01:00:00 12.78025 94.60763
2021-08-03T02:00:00 12.82025 93.9222
2021-08-03T03:00:00 13.06025 94.49514
2021-08-03T04:00:00 13.08025 94.37117
2021-08-03T05:00:00 13.56025 92.97256
2021-08-03T06:00:00 14.76025 89.98217
2021-08-03T07:00:00 16.08025 86.46106
2021-08-03T08:00:00 17.05025 82.22543
2021-08-03T09:00:00 17.33025 81.51458
2021-08-03T10:00:00 18.07025 78.03606
2021-08-03T11:00:00 17.62025 82.72492
2021-08-03T12:00:00 17.23025 84.85305
2021-08-03T13:00:00 17.98025 80.49529
2021-08-03T14:00:00 18.63025 74.50085
2021-08-03T15:00:00 18.20025 76.09839
2021-08-03T16:00:00 16.49025 86.72688
2021-08-03T17:00:00 16.42025 87.39963
2021-08-03T18:00:00 15.92025 89.25275
2021-08-03T19:00:00 14.82025 94.51106
2021-08-03T20:00:00 14.80025 93.71187
2021-08-03T21:00:00 14.51025 93.33029
2021-08-03T22:00:00 13.93025 90.9931
2021-08-03T23:00:00 13.70025 92.24741
2021-08-04T00:00:00 13.55025 94.08234
2021-08-04T01:00:00 13.26025 96.32899
2021-08-04T02:00:00 13.28025 96.58369
2021-08-04T03:00:00 13.12025 97.85973
2021-08-04T04:00:00 13.26025 96.96536
2021-08-04T05:00:00 13.44025 96.58836
2021-08-04T06:00:00 14.27025 94.54904
2021-08-04T07:00:00 15.34025 89.49821
2021-08-04T08:00:00 16.14025 84.3465
2021-08-04T09:00:00 16.83025 80.54862
2021-08-04T10:00:00 17.31025 77.81902
2021-08-04T11:00:00 17.64025 77.46342
2021-08-04T12:00:00 17.65025 79.35806
2021-08-04T13:00:00 17.77025 80.46681
2021-08-04T14:00:00 17.98025 80.33875
2021-08-04T15:00:00 18.01024 81.70818
2021-08-04T16:00:00 17.76024 83.22553
2021-08-04T17:00:00 17.23025 86.34995
2021-08-04T18:00:00 16.83025 90.4859
2021-08-04T19:00:00 16.52025 90.40562
2021-08-04T20:00:00 15.97025 93.16333
2021-08-04T21:00:00 15.75025 93.63629
2021-08-04T22:00:00 15.58025 91.82076
2021-08-04T23:00:00 15.31025 93.00776
2021-08-05T00:00:00 14.17025 95.72854
2021-08-05T01:00:00 13.76025 96.59758
2021-08-05T02:00:00 13.80025 97.10657
2021-08-05T03:00:00 13.84025 97.23485
2021-08-05T04:00:00 13.39025 97.60817
2021-08-05T05:00:00 13.79025 97.16998
2021-08-05T06:00:00 14.89025 95.94021
2021-08-05T07:00:00 16.07025 93.9548
2021-08-05T08:00:00 17.38025 89.08025
2021-08-05T09:00:00 18.30025 83.77342
2021-08-05T10:00:00 19.46025 80.33176
2021-08-05T11:00:00 19.42025 77.68462
2021-08-05T12:00:00 19.22025 82.59892
2021-08-05T13:00:00 19.42025 81.78124
2021-08-05T14:00:00 20.57025 74.39558
2021-08-05T15:00:00 20.23025 73.10288
2021-08-05T16:00:00 20.97025 70.91622
2021-08-05T17:00:00 20.76024 70.92273
2021-08-05T18:00:00 19.81025 75.71892
2021-08-05T19:00:00 18.40025 80.86504
2021-08-05T20:00:00 17.18024 85.45492
2021-08-05T21:00:00 16.31025 88.36089
2021-08-05T22:00:00 15.45025 89.74101
2021-08-05T23:00:00 15.30025 90.37672
2021-08-06T00:00:00 15.68025 89.17533
2021-08-06T01:00:00 15.53025 90.68854
2021-08-06T02:00:00 15.82025 90.7088
2021-08-06T03:00:00 15.79025 91.4171
2021-08-06T04:00:00 15.89025 90.77268
2021-08-06T05:00:00 16.49025 87.06591
2021-08-06T06:00:00 17.36025 83.44844
2021-08-06T07:00:00 18.18024 79.12482
2021-08-06T08:00:00 18.73025 74.80952
2021-08-06T09:00:00 19.58025 69.87624
2021-08-06T10:00:00 21.05025 59.5048
2021-08-06T11:00:00 21.82025 54.5495
2021-08-06T12:00:00 22.38025 52.53638
2021-08-06T13:00:00 22.65025 53.51607
2021-08-06T14:00:00 22.71025 53.99115
2021-08-06T15:00:00 22.84025 54.0955
2021-08-06T16:00:00 22.62025 54.11017
2021-08-06T17:00:00 21.87025 57.28716
2021-08-06T18:00:00 20.43024 62.89726
2021-08-06T19:00:00 19.53025 64.92289
2021-08-06T20:00:00 16.98025 79.20976
2021-08-06T21:00:00 15.73025 86.25665
2021-08-06T22:00:00 14.99025 92.74808
2021-08-06T23:00:00 15.18025 92.57746
2021-08-07T00:00:00 15.08025 93.66451
2021-08-07T01:00:00 15.26025 93.36903
2021-08-07T02:00:00 15.05025 94.64405
2021-08-07T03:00:00 15.24025 94.28355
2021-08-07T04:00:00 15.45025 93.01525
2021-08-07T05:00:00 15.49025 92.77585
2021-08-07T06:00:00 16.09025 91.08139
2021-08-07T07:00:00 16.64025 91.5304
2021-08-07T08:00:00 17.96025 84.65819
2021-08-07T09:00:00 18.73025 78.99896
2021-08-07T10:00:00 19.11025 77.68801
2021-08-07T11:00:00 18.40025 80.44788
2021-08-07T12:00:00 17.41025 85.64488
2021-08-07T13:00:00 15.93025 92.61971
2021-08-07T14:00:00 15.69025 91.88726
2021-08-07T15:00:00 15.83025 91.71703
2021-08-07T16:00:00 16.35025 90.21801
2021-08-07T17:00:00 17.20025 87.75391
2021-08-07T18:00:00 17.18024 89.12185
2021-08-07T19:00:00 16.34025 90.74481
2021-08-07T20:00:00 15.75025 91.59293
2021-08-07T21:00:00 15.60025 90.87082
2021-08-07T22:00:00 15.57025 89.16641
2021-08-07T23:00:00 15.83025 86.77599
2021-08-08T00:00:00 16.06025 87.48031
2021-08-08T01:00:00 15.55025 89.92455
2021-08-08T02:00:00 15.11025 90.95572
2021-08-08T03:00:00 14.94025 90.88447
2021-08-08T04:00:00 14.29025 92.04119
2021-08-08T05:00:00 14.66025 90.32974
2021-08-08T06:00:00 15.63025 87.26904
2021-08-08T07:00:00 16.42025 82.19949
2021-08-08T08:00:00 17.04025 78.13567
2021-08-08T09:00:00 17.97025 71.93861
2021-08-08T10:00:00 18.89025 63.21365
2021-08-08T11:00:00 19.51024 58.1946
2021-08-08T12:00:00 19.63025 58.10793
2021-08-08T13:00:00 20.71025 54.1549
2021-08-08T14:00:00 20.97025 53.18472
2021-08-08T15:00:00 21.06025 51.8062
2021-08-08T16:00:00 21.27025 52.17448
2021-08-08T17:00:00 20.88025 55.07134
2021-08-08T18:00:00 19.62025 61.27794
2021-08-08T19:00:00 18.14025 64.48763
2021-08-08T20:00:00 17.60025 66.10883
2021-08-08T21:00:00 15.14025 78.25919
2021-08-08T22:00:00 13.35025 85.4948
2021-08-08T23:00:00 12.35025 89.49229
2021-08-09T00:00:00 11.86025 92.50206
2021-08-09T01:00:00 11.05025 95.99796
2021-08-09T02:00:00 10.46025 98.19749
2021-08-09T03:00:00 10.85025 97.8113
2021-08-09T04:00:00 10.45025 97.93357
2021-08-09T05:00:00 11.34025 95.43189
2021-08-09T06:00:00 13.37025 89.75486
2021-08-09T07:00:00 15.89025 81.27145
2021-08-09T08:00:00 18.12025 74.122
2021-08-09T09:00:00 19.84025 65.16138
2021-08-09T10:00:00 21.32025 57.68089
2021-08-09T11:00:00 22.24025 53.16348
2021-08-09T12:00:00 22.75025 50.42033
2021-08-09T13:00:00 22.79025 50.1312
2021-08-09T14:00:00 22.74025 50.01818
2021-08-09T15:00:00 22.87025 50.51925
2021-08-09T16:00:00 22.62025 53.33242
2021-08-09T17:00:00 21.82025 60.90862
2021-08-09T18:00:00 20.58025 69.66214
2021-08-09T19:00:00 19.02025 73.22147
2021-08-09T20:00:00 16.93024 81.35606
2021-08-09T21:00:00 15.62025 84.67578
2021-08-09T22:00:00 14.36025 89.77393
2021-08-09T23:00:00 14.17025 89.93675
2021-08-10T00:00:00 13.61025 92.36377
2021-08-10T01:00:00 13.24025 92.89298
2021-08-10T02:00:00 12.89025 94.05027
2021-08-10T03:00:00 12.61025 93.72464
2021-08-10T04:00:00 12.42025 93.03105
2021-08-10T05:00:00 13.16025 91.48315
2021-08-10T06:00:00 14.98025 87.0927
2021-08-10T07:00:00 17.26024 78.11776
2021-08-10T08:00:00 19.34025 71.4424
2021-08-10T09:00:00 21.20025 65.45403
2021-08-10T10:00:00 22.86025 60.99117
2021-08-10T11:00:00 24.21025 56.09202
2021-08-10T12:00:00 25.27025 51.41982
2021-08-10T13:00:00 25.63025 50.94973
2021-08-10T14:00:00 26.28025 50.39896
2021-08-10T15:00:00 26.63025 49.77985
2021-08-10T16:00:00 26.43024 50.76442
2021-08-10T17:00:00 26.28025 50.07452
2021-08-10T18:00:00 24.63025 59.35061
2021-08-10T19:00:00 23.07025 64.26494
2021-08-10T20:00:00 19.90025 79.01337
2021-08-10T21:00:00 19.31025 81.50581
2021-08-10T22:00:00 17.00025 90.32295
2021-08-10T23:00:00 16.19025 92.27531
2021-08-11T00:00:00 15.75025 93.69698
2021-08-11T01:00:00 15.50025 93.62415
2021-08-11T02:00:00 15.12025 94.77016
2021-08-11T03:00:00 15.08025 94.21511
2021-08-11T04:00:00 15.01025 94.39621
2021-08-11T05:00:00 15.51025 92.59618
2021-08-11T06:00:00 17.30025 88.61594
2021-08-11T07:00:00 19.53025 79.16394
2021-08-11T08:00:00 21.64025 71.86389
2021-08-11T09:00:00 23.57025 67.4808
2021-08-11T10:00:00 25.23025 62.59319
2021-08-11T11:00:00 26.58025 54.30522
2021-08-11T12:00:00 27.76024 47.44965
2021-08-11T13:00:00 28.33025 45.1873
2021-08-11T14:00:00 28.95025 44.26117
2021-08-11T15:00:00 29.08025 44.12596
2021-08-11T16:00:00 28.92025 44.56727
2021-08-11T17:00:00 28.63025 44.43113
2021-08-11T18:00:00 27.01024 48.83113
2021-08-11T19:00:00 23.20025 67.32078
2021-08-11T20:00:00 20.30025 79.88155
2021-08-11T21:00:00 18.99025 85.20364
2021-08-11T22:00:00 17.98025 89.01324
2021-08-11T23:00:00 17.22025 90.4548
2021-08-12T00:00:00 16.12025 93.95708
2021-08-12T01:00:00 15.81025 94.06463
2021-08-12T02:00:00 15.64025 94.48459
2021-08-12T03:00:00 15.08025 95.07724
2021-08-12T04:00:00 14.91025 94.88512
2021-08-12T05:00:00 15.29025 93.61386
2021-08-12T06:00:00 17.62025 88.81334
2021-08-12T07:00:00 20.25025 79.72196
2021-08-12T08:00:00 22.48025 71.33093
2021-08-12T09:00:00 24.31025 65.85464
2021-08-12T10:00:00 26.53025 59.98068
2021-08-12T11:00:00 27.82025 58.08934
2021-08-12T12:00:00 29.11025 54.51877
2021-08-12T13:00:00 29.98025 49.42177
2021-08-12T14:00:00 30.73025 45.91951
2021-08-12T15:00:00 31.10025 44.58683
2021-08-12T16:00:00 30.83025 46.67704
2021-08-12T17:00:00 29.45025 56.9649
2021-08-12T18:00:00 26.58025 67.14787
2021-08-12T19:00:00 23.45025 77.44538
2021-08-12T20:00:00 21.74025 82.6351
2021-08-12T21:00:00 21.38025 80.68733
2021-08-12T22:00:00 22.19025 76.87015
2021-08-12T23:00:00 21.46025 79.6338
2021-08-13T00:00:00 20.40025 83.79531
2021-08-13T01:00:00 19.88025 85.02457
2021-08-13T02:00:00 19.84025 83.4137
2021-08-13T03:00:00 19.35025 86.60865
2021-08-13T04:00:00 19.27025 85.72305
2021-08-13T05:00:00 19.38025 85.51584
2021-08-13T06:00:00 20.91025 81.65462
2021-08-13T07:00:00 23.14025 72.26857
2021-08-13T08:00:00 24.68024 66.60056
2021-08-13T09:00:00 25.77025 63.74756
2021-08-13T10:00:00 26.73025 60.55766
2021-08-13T11:00:00 27.97025 56.68378
2021-08-13T12:00:00 28.92025 53.79251
2021-08-13T13:00:00 29.65025 50.5011
2021-08-13T14:00:00 30.05025 47.81381
2021-08-13T15:00:00 30.48025 46.49603
2021-08-13T16:00:00 30.55025 45.78447
2021-08-13T17:00:00 30.16025 47.03268
2021-08-13T18:00:00 28.79025 49.92983
2021-08-13T19:00:00 26.30025 61.5368
2021-08-13T20:00:00 24.69025 67.10864
2021-08-13T21:00:00 22.76024 75.51598
2021-08-13T22:00:00 21.03025 85.03507
2021-08-13T23:00:00 20.61025 85.74644
2021-08-14T00:00:00 19.50025 89.69669
2021-08-14T01:00:00 18.81025 92.12834
2021-08-14T02:00:00 18.50025 92.52164
2021-08-14T03:00:00 18.31025 93.45733
2021-08-14T04:00:00 18.18024 93.74886
2021-08-14T05:00:00 17.96025 95.1209
2021-08-14T06:00:00 20.25025 89.52455
2021-08-14T07:00:00 22.55025 77.50789
2021-08-14T08:00:00 24.52025 68.14058
2021-08-14T09:00:00 26.15025 62.28316
2021-08-14T10:00:00 27.66025 60.23801
2021-08-14T11:00:00 28.73025 59.28944
2021-08-14T12:00:00 29.73025 57.56352
2021-08-14T13:00:00 30.47025 55.80933
2021-08-14T14:00:00 31.02025 54.00696
2021-08-14T15:00:00 31.11025 53.62955
2021-08-14T16:00:00 31.47025 50.21023
2021-08-14T17:00:00 30.88025 52.97837
2021-08-14T18:00:00 28.55025 69.24539
2021-08-14T19:00:00 25.59025 76.42439
2021-08-14T20:00:00 23.81025 82.92289
2021-08-14T21:00:00 22.47025 87.812
2021-08-14T22:00:00 20.86025 89.12052
2021-08-14T23:00:00 19.57025 93.10342
2021-08-15T00:00:00 19.09025 94.5609
2021-08-15T01:00:00 18.87025 94.91163
2021-08-15T02:00:00 18.44025 95.80199
2021-08-15T03:00:00 18.21025 95.97768
2021-08-15T04:00:00 18.18024 95.91602
2021-08-15T05:00:00 18.40025 95.61907
2021-08-15T06:00:00 20.29025 91.40263
2021-08-15T07:00:00 22.14025 85.14676
2021-08-15T08:00:00 23.72025 77.14705
2021-08-15T09:00:00 25.39025 70.91709
2021-08-15T10:00:00 26.67025 68.89544
2021-08-15T11:00:00 27.21025 68.8693
2021-08-15T12:00:00 28.00025 64.77751
2021-08-15T13:00:00 29.36025 60.09784
2021-08-15T14:00:00 29.05025 60.70032
2021-08-15T15:00:00 28.47025 64.04015
2021-08-15T16:00:00 29.20025 61.56365
2021-08-15T17:00:00 28.21025 63.31665
2021-08-15T18:00:00 26.04025 71.78533
2021-08-15T19:00:00 23.95025 81.97051
2021-08-15T20:00:00 23.35025 83.28341
2021-08-15T21:00:00 22.81025 83.48309
2021-08-15T22:00:00 21.58025 89.56308
2021-08-15T23:00:00 21.66025 89.23478
2021-08-16T00:00:00 21.80025 88.14085
2021-08-16T01:00:00 21.80025 86.50717
2021-08-16T02:00:00 21.53025 84.60679
2021-08-16T03:00:00 21.67025 80.77563
2021-08-16T04:00:00 21.30025 80.62601
2021-08-16T05:00:00 21.11025 79.03263
2021-08-16T06:00:00 20.92025 77.95741
2021-08-16T07:00:00 20.94025 74.21956
2021-08-16T08:00:00 20.87025 71.77043
2021-08-16T09:00:00 20.86025 69.53633
2021-08-16T10:00:00 20.74025 70.37183
2021-08-16T11:00:00 20.89025 65.60083
2021-08-16T12:00:00 21.45025 59.6395
2021-08-16T13:00:00 21.71025 54.48524
2021-08-16T14:00:00 21.73025 50.98987
2021-08-16T15:00:00 21.19025 51.25503
2021-08-16T16:00:00 21.17025 49.82727
2021-08-16T17:00:00 20.34025 53.77011
2021-08-16T18:00:00 19.48025 59.20437
2021-08-16T19:00:00 18.69025 65.68818
2021-08-16T20:00:00 17.87025 73.49748
2021-08-16T21:00:00 16.98025 80.2536
2021-08-16T22:00:00 16.07025 82.15492
2021-08-16T23:00:00 15.57025 83.509
2021-08-17T00:00:00 15.48025 83.55323
2021-08-17T01:00:00 14.99025 85.61536
2021-08-17T02:00:00 14.82025 86.33444
2021-08-17T03:00:00 14.66025 87.17664
2021-08-17T04:00:00 14.06025 88.74797
2021-08-17T05:00:00 13.68025 90.67519
2021-08-17T06:00:00 14.54025 85.22817
2021-08-17T07:00:00 15.39025 82.01331
2021-08-17T08:00:00 16.50025 74.5263
2021-08-17T09:00:00 17.42025 68.08073
2021-08-17T10:00:00 18.18024 63.0095
2021-08-17T11:00:00 18.92025 60.10281
2021-08-17T12:00:00 19.88025 56.07522
2021-08-17T13:00:00 20.35025 53.77272
2021-08-17T14:00:00 20.36025 54.02776
2021-08-17T15:00:00 20.24025 54.65061
2021-08-17T16:00:00 20.04025 54.70858
2021-08-17T17:00:00 19.55025 56.17899
2021-08-17T18:00:00 18.66025 58.13956
2021-08-17T19:00:00 17.98025 60.76722
2021-08-17T20:00:00 17.55025 63.7982
2021-08-17T21:00:00 16.98025 68.35338
2021-08-17T22:00:00 16.99025 66.28649
2021-08-17T23:00:00 16.43025 71.64962
2021-08-18T00:00:00 15.96025 75.17833
2021-08-18T01:00:00 15.90025 75.41834
2021-08-18T02:00:00 15.78025 76.05254
2021-08-18T03:00:00 15.62025 77.66005
2021-08-18T04:00:00 15.37025 78.71156
2021-08-18T05:00:00 15.34025 79.33645
2021-08-18T06:00:00 15.52025 79.52067
2021-08-18T07:00:00 15.96025 78.33253
2021-08-18T08:00:00 16.51025 75.67112
2021-08-18T09:00:00 17.19025 73.91097
2021-08-18T10:00:00 18.44025 69.05972
2021-08-18T11:00:00 19.50025 66.2096
2021-08-18T12:00:00 20.40025 63.42913
2021-08-18T13:00:00 20.95025 61.74926
2021-08-18T14:00:00 21.09025 61.7815
2021-08-18T15:00:00 21.03025 62.95027
2021-08-18T16:00:00 20.65025 64.82673
2021-08-18T17:00:00 20.04025 67.54818
2021-08-18T18:00:00 19.03025 71.75839
2021-08-18T19:00:00 18.13025 76.63491
2021-08-18T20:00:00 17.40025 81.25881
2021-08-18T21:00:00 16.82025 85.08466
2021-08-18T22:00:00 16.35025 87.39317
2021-08-18T23:00:00 16.32025 87.50419
2021-08-19T00:00:00 15.68025 89.23351
2021-08-19T01:00:00 14.87025 91.2971
2021-08-19T02:00:00 14.92025 92.07999
2021-08-19T03:00:00 14.76025 92.49287
2021-08-19T04:00:00 14.83025 92.49695
2021-08-19T05:00:00 14.98025 92.50563
2021-08-19T06:00:00 16.29025 88.70431
2021-08-19T07:00:00 17.40025 83.02094
2021-08-19T08:00:00 18.42025 78.24075
2021-08-19T09:00:00 19.48025 71.28262
2021-08-19T10:00:00 20.67025 65.55386
2021-08-19T11:00:00 21.13025 62.23675
2021-08-19T12:00:00 21.74025 59.20281
2021-08-19T13:00:00 21.91025 58.39684
2021-08-19T14:00:00 22.40025 56.301
2021-08-19T15:00:00 22.36025 56.58694
2021-08-19T16:00:00 22.39025 56.66858
2021-08-19T17:00:00 22.00025 59.61437
2021-08-19T18:00:00 20.80025 66.44048
2021-08-19T19:00:00 19.19025 75.81443
2021-08-19T20:00:00 18.99025 74.56202
2021-08-19T21:00:00 18.63025 74.69527
2021-08-19T22:00:00 16.83025 86.25449
2021-08-19T23:00:00 16.88025 84.70477
2021-08-20T00:00:00 16.83025 84.42416
2021-08-20T01:00:00 16.42025 86.43834
2021-08-20T02:00:00 15.95025 88.4451
2021-08-20T03:00:00 15.97025 89.54759
2021-08-20T04:00:00 16.02025 89.26073
2021-08-20T05:00:00 16.43025 87.68505
2021-08-20T06:00:00 17.15025 85.72911
2021-08-20T07:00:00 18.44025 80.08991
2021-08-20T08:00:00 20.06025 73.92716
2021-08-20T09:00:00 21.50025 67.19139
2021-08-20T10:00:00 22.52025 62.22853
2021-08-20T11:00:00 23.26024 59.06522
2021-08-20T12:00:00 24.04025 55.83244
2021-08-20T13:00:00 24.72025 53.17742
2021-08-20T14:00:00 25.12025 51.98452
2021-08-20T15:00:00 25.14025 52.02342
2021-08-20T16:00:00 25.17025 51.93008
2021-08-20T17:00:00 24.63025 54.23357
2021-08-20T18:00:00 22.41025 66.3469
2021-08-20T19:00:00 19.19025 76.65299
2021-08-20T20:00:00 17.71025 82.52168
2021-08-20T21:00:00 16.92025 85.37223
2021-08-20T22:00:00 15.64025 91.28851
2021-08-20T23:00:00 15.00025 93.53854
2021-08-21T00:00:00 14.41025 94.98899
2021-08-21T01:00:00 13.73025 96.59673
2021-08-21T02:00:00 13.09025 97.53749
2021-08-21T03:00:00 12.96025 97.40605
2021-08-21T04:00:00 13.05025 97.15173
2021-08-21T05:00:00 13.07025 97.4086
2021-08-21T06:00:00 15.29025 92.22253
2021-08-21T07:00:00 17.87025 82.43453
2021-08-21T08:00:00 20.23025 74.24265
2021-08-21T09:00:00 22.37025 69.16025
2021-08-21T10:00:00 24.38025 63.36667
2021-08-21T11:00:00 25.85025 59.06984
2021-08-21T12:00:00 27.06025 54.73712
2021-08-21T13:00:00 27.81025 52.5402
2021-08-21T14:00:00 28.55025 49.99445
2021-08-21T15:00:00 28.89025 46.75465
2021-08-21T16:00:00 28.68024 46.01503
2021-08-21T17:00:00 27.95025 46.29334
2021-08-21T18:00:00 24.65025 65.38503
2021-08-21T19:00:00 22.65025 72.50327
2021-08-21T20:00:00 21.26024 79.45546
2021-08-21T21:00:00 20.46025 83.74888
2021-08-21T22:00:00 19.15025 87.81119
2021-08-21T23:00:00 20.22025 83.61598
2021-08-22T00:00:00 19.90025 86.76962
2021-08-22T01:00:00 18.81025 94.7897
2021-08-22T02:00:00 18.80025 94.90918
2021-08-22T03:00:00 18.44025 97.02105
2021-08-22T04:00:00 18.17025 96.64784
2021-08-22T05:00:00 18.47025 94.5975
2021-08-22T06:00:00 18.52025 93.52634
2021-08-22T07:00:00 18.94025 91.03268
2021-08-22T08:00:00 19.55025 87.23443
2021-08-22T09:00:00 20.17025 81.97882
2021-08-22T10:00:00 21.59025 73.90328
2021-08-22T11:00:00 21.80025 71.25219
2021-08-22T12:00:00 22.06025 68.61462
2021-08-22T13:00:00 21.83025 69.32183
2021-08-22T14:00:00 20.98025 75.03816
2021-08-22T15:00:00 21.01024 74.04144
2021-08-22T16:00:00 20.77025 71.6137
2021-08-22T17:00:00 19.81025 72.27581
2021-08-22T18:00:00 18.92025 74.79284
2021-08-22T19:00:00 17.63025 79.92585
2021-08-22T20:00:00 17.52025 80.43275
2021-08-22T21:00:00 16.97025 82.48384
2021-08-22T22:00:00 16.40025 85.37285
2021-08-22T23:00:00 16.25025 86.30891
2021-08-23T00:00:00 15.72025 87.16346
2021-08-23T01:00:00 15.21025 88.84571
2021-08-23T02:00:00 14.83025 89.39893
2021-08-23T03:00:00 14.19025 92.33797
2021-08-23T04:00:00 13.89025 92.74648
2021-08-23T05:00:00 13.85025 92.43918
2021-08-23T06:00:00 15.28025 88.67724
2021-08-23T07:00:00 16.76024 83.48639
2021-08-23T08:00:00 17.68024 79.0527
2021-08-23T09:00:00 18.47025 74.03735
2021-08-23T10:00:00 19.88025 65.1273
2021-08-23T11:00:00 20.21025 64.26598
2021-08-23T12:00:00 20.39025 64.01152
2021-08-23T13:00:00 20.52025 66.33853
2021-08-23T14:00:00 21.15025 64.38825
2021-08-23T15:00:00 21.13025 65.73724
2021-08-23T16:00:00 21.05025 66.40652
2021-08-23T17:00:00 20.47025 69.46054
2021-08-23T18:00:00 18.94025 77.26135
2021-08-23T19:00:00 17.56025 83.68849
2021-08-23T20:00:00 16.71025 87.53976
2021-08-23T21:00:00 16.47025 90.05164
2021-08-23T22:00:00 15.95025 91.90314
2021-08-23T23:00:00 15.57025 92.05933
2021-08-24T00:00:00 15.70025 90.81857
2021-08-24T01:00:00 15.54025 90.39416
2021-08-24T02:00:00 15.66025 88.07433
2021-08-24T03:00:00 15.14025 87.10809
2021-08-24T04:00:00 15.13025 85.57388
2021-08-24T05:00:00 14.53025 84.6646
2021-08-24T06:00:00 15.21025 79.95168
2021-08-24T07:00:00 16.06025 73.75957
2021-08-24T08:00:00 17.21025 68.40071
2021-08-24T09:00:00 18.21025 64.37459
2021-08-24T10:00:00 19.45025 60.43039
2021-08-24T11:00:00 20.43024 57.91991
2021-08-24T12:00:00 21.10025 56.57045
2021-08-24T13:00:00 21.35025 56.70783
2021-08-24T14:00:00 21.43024 56.24323
2021-08-24T15:00:00 20.92025 56.78791
2021-08-24T16:00:00 20.48025 57.62586
2021-08-24T17:00:00 19.98025 60.27654
2021-08-24T18:00:00 19.00025 64.12447
2021-08-24T19:00:00 18.20025 67.61232
2021-08-24T20:00:00 17.69025 70.33737
2021-08-24T21:00:00 16.67025 75.05041
2021-08-24T22:00:00 15.75025 78.92511
2021-08-24T23:00:00 15.38025 80.88128
2021-08-25T00:00:00 14.95025 81.90171
2021-08-25T01:00:00 14.44025 83.48309
2021-08-25T02:00:00 13.98025 84.43308
2021-08-25T03:00:00 13.91025 84.98878
2021-08-25T04:00:00 13.72025 85.99197
2021-08-25T05:00:00 13.90025 85.49797
2021-08-25T06:00:00 14.79025 82.37113
2021-08-25T07:00:00 15.59025 79.68891
2021-08-25T08:00:00 17.11025 70.27069
2021-08-25T09:00:00 18.14025 65.2211
2021-08-25T10:00:00 19.33025 61.37255
2021-08-25T11:00:00 20.45025 57.31345
2021-08-25T12:00:00 21.27025 54.26382
2021-08-25T13:00:00 21.55025 54.01294
2021-08-25T14:00:00 22.22025 51.39289
2021-08-25T15:00:00 22.43024 50.63631
2021-08-25T16:00:00 22.28025 51.81944
2021-08-25T17:00:00 22.00025 52.05544
2021-08-25T18:00:00 20.78025 54.06485
2021-08-25T19:00:00 18.31025 66.04234
2021-08-25T20:00:00 16.70025 71.65311
2021-08-25T21:00:00 15.51025 75.30187
2021-08-25T22:00:00 14.80025 80.85517
2021-08-25T23:00:00 13.52025 84.43588
2021-08-26T00:00:00 13.20025 84.39842
2021-08-26T01:00:00 13.47025 82.58624
2021-08-26T02:00:00 13.25025 83.05784
2021-08-26T03:00:00 12.53025 85.80679
2021-08-26T04:00:00 11.57025 88.70625
2021-08-26T05:00:00 11.04025 92.20155
2021-08-26T06:00:00 13.07025 88.66164
2021-08-26T07:00:00 15.49025 83.22488
2021-08-26T08:00:00 17.87025 72.44251
2021-08-26T09:00:00 19.86025 64.65432
2021-08-26T10:00:00 20.76024 60.50127
2021-08-26T11:00:00 21.21025 57.88228
2021-08-26T12:00:00 21.29025 57.29456
2021-08-26T13:00:00 20.77025 60.26531
2021-08-26T14:00:00 20.08025 64.91493
2021-08-26T15:00:00 19.40025 68.21632
2021-08-26T16:00:00 18.35025 72.24541
2021-08-26T17:00:00 18.00025 73.03965
2021-08-26T18:00:00 16.86025 75.33088
2021-08-26T19:00:00 16.01025 78.02996
2021-08-26T20:00:00 15.12025 82.0868
2021-08-26T21:00:00 15.02025 83.22245
2021-08-26T22:00:00 14.46025 81.56527
2021-08-26T23:00:00 13.75025 83.84523
2021-08-27T00:00:00 13.56025 82.65314
2021-08-27T01:00:00 13.07025 83.65057
2021-08-27T02:00:00 13.08025 83.09213
2021-08-27T03:00:00 13.31025 82.28904
2021-08-27T04:00:00 13.18025 83.4959
2021-08-27T05:00:00 12.76025 85.60178
2021-08-27T06:00:00 13.63025 83.38387
2021-08-27T07:00:00 14.78025 77.63135
2021-08-27T08:00:00 15.97025 74.53304
2021-08-27T09:00:00 16.65025 70.6965
2021-08-27T10:00:00 17.19025 69.12869
2021-08-27T11:00:00 18.00025 66.37116
2021-08-27T12:00:00 18.43024 61.40609
2021-08-27T13:00:00 19.18024 56.84259
2021-08-27T14:00:00 19.43024 53.92955
2021-08-27T15:00:00 19.92025 50.91316
2021-08-27T16:00:00 19.68024 50.3681
2021-08-27T17:00:00 18.91025 53.35765
2021-08-27T18:00:00 17.06025 59.52965
2021-08-27T19:00:00 15.61025 65.62904
2021-08-27T20:00:00 15.09025 66.50032
2021-08-27T21:00:00 13.59025 73.65958
2021-08-27T22:00:00 13.64025 74.27057
2021-08-27T23:00:00 12.18025 83.20236
2021-08-28T00:00:00 11.60025 84.32197
2021-08-28T01:00:00 11.05025 87.40609
2021-08-28T02:00:00 11.04025 88.3584
2021-08-28T03:00:00 11.27025 88.32006
2021-08-28T04:00:00 11.23025 88.97573
2021-08-28T05:00:00 10.80025 91.81283
2021-08-28T06:00:00 12.38025 88.06735
2021-08-28T07:00:00 14.07025 81.89468
2021-08-28T08:00:00 15.07025 77.41856
2021-08-28T09:00:00 15.98025 72.81727
2021-08-28T10:00:00 17.03025 65.94106
2021-08-28T11:00:00 17.54025 63.75322
2021-08-28T12:00:00 18.14025 63.50681
2021-08-28T13:00:00 18.34025 65.6994
2021-08-28T14:00:00 18.26024 68.84174
2021-08-28T15:00:00 17.61025 70.69477
2021-08-28T16:00:00 17.39025 72.49778
2021-08-28T17:00:00 16.82025 77.08182
2021-08-28T18:00:00 15.99025 83.72364
2021-08-28T19:00:00 14.56025 89.37714
2021-08-28T20:00:00 14.23025 91.13397
2021-08-28T21:00:00 14.20025 91.91466
2021-08-28T22:00:00 14.75025 92.00933
2021-08-28T23:00:00 14.15025 94.85413
2021-08-29T00:00:00 13.89025 94.53237
2021-08-29T01:00:00 14.25025 93.13313
2021-08-29T02:00:00 14.18025 93.6811
2021-08-29T03:00:00 13.51025 95.20272
2021-08-29T04:00:00 12.89025 97.01949
2021-08-29T05:00:00 13.26025 95.19276
2021-08-29T06:00:00 13.62025 94.5204
2021-08-29T07:00:00 14.40025 93.14124
2021-08-29T08:00:00 15.22025 89.72321
2021-08-29T09:00:00 15.85025 85.65003
2021-08-29T10:00:00 16.17025 83.30708
2021-08-29T11:00:00 16.73025 79.22543
2021-08-29T12:00:00 17.13025 80.32681
2021-08-29T13:00:00 17.36025 79.52392
2021-08-29T14:00:00 17.57025 75.84664
2021-08-29T15:00:00 17.43024 75.22851
2021-08-29T16:00:00 17.34025 75.46096
2021-08-29T17:00:00 16.69025 78.54595
2021-08-29T18:00:00 15.73025 83.14458
2021-08-29T19:00:00 14.91025 87.71847
2021-08-29T20:00:00 14.86025 88.29254
2021-08-29T21:00:00 14.70025 89.09515
2021-08-29T22:00:00 14.84025 89.16528
2021-08-29T23:00:00 14.62025 91.10088
2021-08-30T00:00:00 14.52025 91.69387
2021-08-30T01:00:00 14.47025 91.51027
2021-08-30T02:00:00 14.29025 91.98074
2021-08-30T03:00:00 14.00025 92.93601
2021-08-30T04:00:00 14.06025 92.14807
2021-08-30T05:00:00 14.15025 91.60963
2021-08-30T06:00:00 14.70025 90.51074
2021-08-30T07:00:00 15.45025 88.74965
2021-08-30T08:00:00 16.25025 82.39374
2021-08-30T09:00:00 16.74025 80.01027
2021-08-30T10:00:00 16.70025 80.95391
2021-08-30T11:00:00 17.40025 77.93471
2021-08-30T12:00:00 17.93024 77.0042
2021-08-30T13:00:00 18.59025 71.91182
2021-08-30T14:00:00 19.28025 67.03841
2021-08-30T15:00:00 19.47025 66.11629
2021-08-30T16:00:00 19.15025 67.58622
2021-08-30T17:00:00 18.61025 69.91608
2021-08-30T18:00:00 16.95025 80.03969
2021-08-30T19:00:00 16.19025 83.74713
2021-08-30T20:00:00 15.56025 85.339
2021-08-30T21:00:00 15.26025 86.94822
2021-08-30T22:00:00 14.29025 95.10857
2021-08-30T23:00:00 14.74025 92.91615
2021-08-31T00:00:00 14.61025 93.1525
2021-08-31T01:00:00 14.48025 93.57348
2021-08-31T02:00:00 14.11025 94.66613
2021-08-31T03:00:00 14.04025 95.91232
2021-08-31T04:00:00 13.89025 96.9182
2021-08-31T05:00:00 13.38025 96.65015
2021-08-31T06:00:00 13.97025 95.72157
2021-08-31T07:00:00 15.01025 92.20583
2021-08-31T08:00:00 16.43025 83.50186
2021-08-31T09:00:00 17.71025 75.86963
2021-08-31T10:00:00 18.38025 67.42652
2021-08-31T11:00:00 19.20025 61.5461
2021-08-31T12:00:00 19.86025 58.04874
2021-08-31T13:00:00 20.59025 54.66804
2021-08-31T14:00:00 20.83025 54.76632
2021-08-31T15:00:00 20.87025 54.95906
2021-08-31T16:00:00 20.29025 58.3479
2021-08-31T17:00:00 19.21025 63.24442
2021-08-31T18:00:00 17.68024 71.27082
2021-08-31T19:00:00 16.74025 74.61719
2021-08-31T20:00:00 14.94025 81.52111
2021-08-31T21:00:00 13.92025 83.86562
2021-08-31T22:00:00 13.04025 88.71812
2021-08-31T23:00:00 12.36025 90.27492
2021-09-01T00:00:00 12.27025 90.69161
2021-09-01T01:00:00 11.86025 91.70017
2021-09-01T02:00:00 11.00025 93.19836
2021-09-01T03:00:00 10.82025 93.56559
2021-09-01T04:00:00 10.68025 93.62093
2021-09-01T05:00:00 10.44025 94.36972
2021-09-01T06:00:00 12.46025 91.49625
2021-09-01T07:00:00 14.59025 84.50338
2021-09-01T08:00:00 16.22025 79.15105
2021-09-01T09:00:00 18.41025 70.24557
2021-09-01T10:00:00 20.26024 61.2658
2021-09-01T11:00:00 21.93024 52.73208
2021-09-01T12:00:00 23.01024 47.12124
2021-09-01T13:00:00 23.81025 43.41501
2021-09-01T14:00:00 24.26024 41.71722
2021-09-01T15:00:00 24.29025 40.23929
2021-09-01T16:00:00 23.85025 42.39111
2021-09-01T17:00:00 22.55025 48.13857
2021-09-01T18:00:00 19.21025 59.09914
2021-09-01T19:00:00 16.62025 69.56847
2021-09-01T20:00:00 15.19025 75.80222
2021-09-01T21:00:00 14.09025 80.64865
2021-09-01T22:00:00 13.16025 85.24551
2021-09-01T23:00:00 12.49025 87.72418
2021-09-02T00:00:00 11.91025 89.09545
2021-09-02T01:00:00 11.32025 90.7418
2021-09-02T02:00:00 10.15025 94.99583
2021-09-02T03:00:00 9.440246 96.39371
2021-09-02T04:00:00 9.200245 96.51627
2021-09-02T05:00:00 8.940246 97.4321
2021-09-02T06:00:00 11.06025 93.57892
2021-09-02T07:00:00 13.83025 83.40852
2021-09-02T08:00:00 16.28025 71.76455
2021-09-02T09:00:00 18.39025 62.18073
2021-09-02T10:00:00 20.24025 56.88161
2021-09-02T11:00:00 21.89025 52.61679
2021-09-02T12:00:00 23.25025 49.23481
2021-09-02T13:00:00 24.34025 45.60827
2021-09-02T14:00:00 25.09025 42.96783
2021-09-02T15:00:00 25.60025 41.04548
2021-09-02T16:00:00 25.45025 41.4422
2021-09-02T17:00:00 24.36025 51.28199
2021-09-02T18:00:00 21.92025 52.34612
2021-09-02T19:00:00 17.91025 70.61266
2021-09-02T20:00:00 16.54025 77.24094
2021-09-02T21:00:00 15.75025 80.50565
2021-09-02T22:00:00 14.41025 83.20262
2021-09-02T23:00:00 13.24025 86.63225
2021-09-03T00:00:00 12.78025 87.75183
2021-09-03T01:00:00 12.27025 88.531
2021-09-03T02:00:00 11.72025 89.7407
2021-09-03T03:00:00 11.00025 91.51726
2021-09-03T04:00:00 10.68025 92.36491
2021-09-03T05:00:00 11.20025 90.48817
2021-09-03T06:00:00 12.79025 88.45944
2021-09-03T07:00:00 15.57025 77.29202
2021-09-03T08:00:00 17.95025 68.41602
2021-09-03T09:00:00 20.21025 61.05244
2021-09-03T10:00:00 22.13025 59.48983
2021-09-03T11:00:00 23.68024 54.52282
2021-09-03T12:00:00 25.10025 49.66536
2021-09-03T13:00:00 26.16025 45.09374
2021-09-03T14:00:00 26.75025 41.64177
2021-09-03T15:00:00 26.91025 40.12248
2021-09-03T16:00:00 26.60025 41.79225
2021-09-03T17:00:00 24.85025 51.47733
2021-09-03T18:00:00 22.43024 54.06136
2021-09-03T19:00:00 19.26024 67.2106
2021-09-03T20:00:00 18.70025 67.35971
2021-09-03T21:00:00 17.41025 71.69195
2021-09-03T22:00:00 15.73025 77.83189
2021-09-03T23:00:00 15.55025 78.89533
2021-09-04T00:00:00 14.81025 82.48303
2021-09-04T01:00:00 14.11025 84.39201
2021-09-04T02:00:00 13.72025 85.30773
2021-09-04T03:00:00 13.24025 86.74795
2021-09-04T04:00:00 12.57025 89.21194
2021-09-04T05:00:00 12.72025 88.86784
2021-09-04T06:00:00 14.40025 87.15154
2021-09-04T07:00:00 17.31025 76.25324
2021-09-04T08:00:00 19.77025 67.44857
2021-09-04T09:00:00 21.82025 59.72751
2021-09-04T10:00:00 23.36025 55.26512
2021-09-04T11:00:00 24.87025 50.25627
2021-09-04T12:00:00 25.87025 46.24014
2021-09-04T13:00:00 26.89025 41.4893
2021-09-04T14:00:00 27.20025 38.46204
2021-09-04T15:00:00 27.08025 38.32633
2021-09-04T16:00:00 26.96025 38.67572
2021-09-04T17:00:00 25.21025 45.24787
2021-09-04T18:00:00 22.18024 57.62707
2021-09-04T19:00:00 20.10025 66.24997
2021-09-04T20:00:00 18.37025 73.10591
2021-09-04T21:00:00 16.70025 81.37898
2021-09-04T22:00:00 16.22025 82.06631
2021-09-04T23:00:00 16.11025 81.83688
2021-09-05T00:00:00 16.10025 81.35292
2021-09-05T01:00:00 14.71025 84.46122
2021-09-05T02:00:00 14.24025 85.64838
2021-09-05T03:00:00 14.00025 86.25021
2021-09-05T04:00:00 14.14025 85.12755
2021-09-05T05:00:00 14.09025 85.23515
2021-09-05T06:00:00 15.01025 87.32497
2021-09-05T07:00:00 18.00025 77.26668
2021-09-05T08:00:00 20.32025 68.80305
2021-09-05T09:00:00 22.36025 60.08944
2021-09-05T10:00:00 23.74025 56.04821
2021-09-05T11:00:00 24.97025 52.59001
2021-09-05T12:00:00 26.21025 48.398
2021-09-05T13:00:00 27.10025 44.3293
2021-09-05T14:00:00 27.28025 41.92678
2021-09-05T15:00:00 27.35025 40.29893
2021-09-05T16:00:00 26.98025 41.73338
2021-09-05T17:00:00 25.62025 48.61871
2021-09-05T18:00:00 22.58025 57.31183
2021-09-05T19:00:00 19.89025 68.27084
2021-09-05T20:00:00 18.30025 75.47217
2021-09-05T21:00:00 17.06025 80.7381
2021-09-05T22:00:00 16.57025 79.46281
2021-09-05T23:00:00 15.36025 85.09331
2021-09-06T00:00:00 14.30025 89.4739
2021-09-06T01:00:00 13.32025 92.89755
2021-09-06T02:00:00 13.09025 93.68738
2021-09-06T03:00:00 12.67025 94.79106
2021-09-06T04:00:00 11.98025 95.07678
2021-09-06T05:00:00 11.92025 94.88419
2021-09-06T06:00:00 14.38025 89.53931
2021-09-06T07:00:00 17.41025 78.34508
2021-09-06T08:00:00 20.03025 67.76683
2021-09-06T09:00:00 22.06025 59.51201
2021-09-06T10:00:00 23.57025 53.78801
2021-09-06T11:00:00 25.11025 48.41848
2021-09-06T12:00:00 26.24025 43.71751
2021-09-06T13:00:00 27.22025 39.78734
2021-09-06T14:00:00 27.68024 37.14362
2021-09-06T15:00:00 27.83025 34.90894
2021-09-06T16:00:00 27.52025 34.79808
2021-09-06T17:00:00 25.89025 44.40265
2021-09-06T18:00:00 22.75025 51.39728
2021-09-06T19:00:00 21.30025 55.98803
2021-09-06T20:00:00 19.72025 61.95356
2021-09-06T21:00:00 18.97025 63.61021
2021-09-06T22:00:00 15.84025 77.59154
2021-09-06T23:00:00 14.87025 82.3814
2021-09-07T00:00:00 14.09025 85.12199
2021-09-07T01:00:00 13.54025 88.11574
2021-09-07T02:00:00 12.86025 90.85629
2021-09-07T03:00:00 11.91025 93.31292
2021-09-07T04:00:00 11.42025 93.85013
2021-09-07T05:00:00 11.30025 93.52928
2021-09-07T06:00:00 13.51025 86.89084
2021-09-07T07:00:00 16.32025 77.51273
2021-09-07T08:00:00 18.85025 66.46449
2021-09-07T09:00:00 20.81025 57.74564
2021-09-07T10:00:00 22.51024 53.69168
2021-09-07T11:00:00 24.01024 49.73278
2021-09-07T12:00:00 25.48025 44.81787
2021-09-07T13:00:00 26.51024 41.24661
2021-09-07T14:00:00 27.04025 38.31504
2021-09-07T15:00:00 27.19025 37.15341
2021-09-07T16:00:00 26.76024 36.90821
2021-09-07T17:00:00 25.72025 40.2942
2021-09-07T18:00:00 23.67025 45.36209
2021-09-07T19:00:00 19.55025 63.99321
2021-09-07T20:00:00 17.93024 71.2712
2021-09-07T21:00:00 16.89025 75.68446
2021-09-07T22:00:00 15.60025 80.06023
2021-09-07T23:00:00 14.81025 82.31908
2021-09-08T00:00:00 14.05025 85.00449
2021-09-08T01:00:00 13.33025 86.75705
2021-09-08T02:00:00 12.63025 88.32674
2021-09-08T03:00:00 12.29025 88.71108
2021-09-08T04:00:00 12.26025 87.52557
2021-09-08T05:00:00 12.05025 87.85899
2021-09-08T06:00:00 13.16025 86.62406
2021-09-08T07:00:00 16.11025 75.65433
2021-09-08T08:00:00 18.75025 65.09549
2021-09-08T09:00:00 20.89025 59.1929
2021-09-08T10:00:00 22.72025 56.30705
2021-09-08T11:00:00 24.50025 52.26405
2021-09-08T12:00:00 26.02025 47.90886
2021-09-08T13:00:00 27.17025 44.72557
2021-09-08T14:00:00 27.77025 43.2023
2021-09-08T15:00:00 27.95025 42.94362
2021-09-08T16:00:00 27.85025 40.09528
2021-09-08T17:00:00 26.67025 47.40247
2021-09-08T18:00:00 24.82025 54.49256
2021-09-08T19:00:00 21.50025 67.06135
2021-09-08T20:00:00 20.05025 74.49979
2021-09-08T21:00:00 19.47025 76.20342
2021-09-08T22:00:00 18.80025 78.39845
2021-09-08T23:00:00 18.35025 80.75391
2021-09-09T00:00:00 17.69025 85.06733
2021-09-09T01:00:00 17.48025 87.89184
2021-09-09T02:00:00 17.21025 89.29669
2021-09-09T03:00:00 17.20025 88.15143
2021-09-09T04:00:00 17.13025 88.48756
2021-09-09T05:00:00 17.45025 85.26214
2021-09-09T06:00:00 18.20025 80.78619
2021-09-09T07:00:00 19.63025 75.05705
2021-09-09T08:00:00 21.27025 67.18772
2021-09-09T09:00:00 22.42025 61.16665
2021-09-09T10:00:00 23.42025 59.64034
2021-09-09T11:00:00 24.02025 55.86367
2021-09-09T12:00:00 25.05025 50.73156
2021-09-09T13:00:00 25.25025 48.7419
2021-09-09T14:00:00 25.55025 46.42596
2021-09-09T15:00:00 25.05025 47.21129
2021-09-09T16:00:00 24.37025 49.30861
2021-09-09T17:00:00 22.87025 53.2569
2021-09-09T18:00:00 21.34025 61.1557
2021-09-09T19:00:00 19.74025 69.90726
2021-09-09T20:00:00 19.18024 72.91696
2021-09-09T21:00:00 18.19025 76.49474
2021-09-09T22:00:00 18.02025 82.88052
2021-09-09T23:00:00 17.05025 86.66842
2021-09-10T00:00:00 16.73025 88.05376
2021-09-10T01:00:00 16.60025 89.01795
2021-09-10T02:00:00 16.52025 91.10986
2021-09-10T03:00:00 16.49025 92.71037
2021-09-10T04:00:00 16.09025 95.23805
2021-09-10T05:00:00 16.02025 95.29698
2021-09-10T06:00:00 16.94025 91.25483
2021-09-10T07:00:00 17.68024 88.59021
2021-09-10T08:00:00 19.09025 82.8484
2021-09-10T09:00:00 20.35025 76.29369
2021-09-10T10:00:00 20.81025 75.34718
2021-09-10T11:00:00 21.78025 71.1119
2021-09-10T12:00:00 22.92025 66.75044
2021-09-10T13:00:00 22.83025 63.80141
2021-09-10T14:00:00 21.31025 72.49795
2021-09-10T15:00:00 21.17025 74.0685
2021-09-10T16:00:00 20.98025 75.23032
2021-09-10T17:00:00 20.21025 78.80494
2021-09-10T18:00:00 18.67025 85.93758
2021-09-10T19:00:00 18.07025 89.99402
2021-09-10T20:00:00 17.77025 90.31905
2021-09-10T21:00:00 17.07025 92.62248
2021-09-10T22:00:00 16.60025 93.25551
2021-09-10T23:00:00 16.01025 95.60456
2021-09-11T00:00:00 15.44025 97.20776
2021-09-11T01:00:00 15.45025 97.27087
2021-09-11T02:00:00 15.04025 97.13594
2021-09-11T03:00:00 15.18025 96.51137
2021-09-11T04:00:00 15.02025 96.63239
2021-09-11T05:00:00 14.98025 95.50736
2021-09-11T06:00:00 15.28025 94.28533
2021-09-11T07:00:00 16.79025 90.13324
2021-09-11T08:00:00 18.35025 83.99507
2021-09-11T09:00:00 20.02025 75.55806
2021-09-11T10:00:00 21.47025 70.10324
2021-09-11T11:00:00 22.36025 65.27844
2021-09-11T12:00:00 22.40025 63.33804
2021-09-11T13:00:00 22.72025 60.99834
2021-09-11T14:00:00 22.97025 58.19702
2021-09-11T15:00:00 23.20025 56.42626
2021-09-11T16:00:00 23.06025 56.35479
2021-09-11T17:00:00 22.14025 63.89751
2021-09-11T18:00:00 20.89025 65.09043
2021-09-11T19:00:00 19.34025 71.95599
2021-09-11T20:00:00 18.15025 76.93832
2021-09-11T21:00:00 17.81025 76.73429
2021-09-11T22:00:00 16.82025 81.02301
2021-09-11T23:00:00 16.26025 82.341
2021-09-12T00:00:00 15.91025 83.60442
2021-09-12T01:00:00 15.63025 84.95534
2021-09-12T02:00:00 15.22025 86.71622
2021-09-12T03:00:00 14.77025 88.2846
2021-09-12T04:00:00 14.19025 90.23525
2021-09-12T05:00:00 13.01025 96.13055
2021-09-12T06:00:00 13.66025 95.33392
2021-09-12T07:00:00 15.44025 91.51354
2021-09-12T08:00:00 17.68024 81.98454
2021-09-12T09:00:00 19.67025 70.85583
2021-09-12T10:00:00 20.88025 66.76003
2021-09-12T11:00:00 22.09025 61.01099
2021-09-12T12:00:00 23.16025 57.19289
2021-09-12T13:00:00 23.89025 54.04564
2021-09-12T14:00:00 24.27025 51.9664
2021-09-12T15:00:00 24.35025 51.54803
2021-09-12T16:00:00 24.02025 51.90114
2021-09-12T17:00:00 22.52025 57.03556
2021-09-12T18:00:00 18.69025 73.16293
2021-09-12T19:00:00 17.18024 78.25934
2021-09-12T20:00:00 16.35025 80.80048
2021-09-12T21:00:00 15.04025 85.79006
2021-09-12T22:00:00 15.23025 83.52327
2021-09-12T23:00:00 14.35025 86.97402
2021-09-13T00:00:00 13.86025 89.55661
2021-09-13T01:00:00 13.25025 92.28068
2021-09-13T02:00:00 12.68025 94.22732
2021-09-13T03:00:00 12.02025 95.45927
2021-09-13T04:00:00 11.74025 95.76714
2021-09-13T05:00:00 11.65025 95.50826
2021-09-13T06:00:00 12.93025 94.2393
2021-09-13T07:00:00 15.62025 86.6987
2021-09-13T08:00:00 17.75025 79.32069
2021-09-13T09:00:00 20.08025 71.57946
2021-09-13T10:00:00 22.00025 67.64041
2021-09-13T11:00:00 23.86025 59.66676
2021-09-13T12:00:00 25.12025 53.97279
2021-09-13T13:00:00 26.08025 48.96358
2021-09-13T14:00:00 26.67025 46.33699
2021-09-13T15:00:00 26.88025 44.4136
2021-09-13T16:00:00 26.58025 44.41818
2021-09-13T17:00:00 24.91025 55.47316
2021-09-13T18:00:00 21.23025 67.13606
2021-09-13T19:00:00 19.29025 74.13042
2021-09-13T20:00:00 18.32025 79.1449
2021-09-13T21:00:00 16.83025 84.64419
2021-09-13T22:00:00 17.06025 84.77953
2021-09-13T23:00:00 16.58025 86.84839
2021-09-14T00:00:00 15.61025 90.69415
2021-09-14T01:00:00 14.75025 92.49228
2021-09-14T02:00:00 14.51025 93.26921
2021-09-14T03:00:00 13.97025 94.22604
2021-09-14T04:00:00 13.53025 95.32891
2021-09-14T05:00:00 13.34025 95.00786
2021-09-14T06:00:00 14.27025 91.79832
2021-09-14T07:00:00 17.35025 81.67651
2021-09-14T08:00:00 20.05025 73.07121
2021-09-14T09:00:00 22.38025 65.15669
2021-09-14T10:00:00 24.55025 60.09658
2021-09-14T11:00:00 26.07025 54.52567
2021-09-14T12:00:00 26.80025 52.75341
2021-09-14T13:00:00 26.12025 54.39868
2021-09-14T14:00:00 25.56025 57.84774
2021-09-14T15:00:00 25.34025 55.97369
2021-09-14T16:00:00 25.07025 57.17802
2021-09-14T17:00:00 24.49025 57.88787
2021-09-14T18:00:00 21.32025 75.86341
2021-09-14T19:00:00 20.61025 80.12721
2021-09-14T20:00:00 20.92025 79.10651
2021-09-14T21:00:00 20.25025 83.51329
2021-09-14T22:00:00 19.63025 85.92242
2021-09-14T23:00:00 19.27025 88.15685
2021-09-15T00:00:00 19.05025 90.52165
2021-09-15T01:00:00 18.37025 93.57888
2021-09-15T02:00:00 17.91025 96.39687
2021-09-15T03:00:00 18.06025 96.4006
2021-09-15T04:00:00 18.20025 96.58736
2021-09-15T05:00:00 18.03025 97.93912
2021-09-15T06:00:00 18.33025 96.65147
2021-09-15T07:00:00 18.80025 95.75177
2021-09-15T08:00:00 18.98025 95.39546
2021-09-15T09:00:00 19.67025 93.51882
2021-09-15T10:00:00 20.73025 81.94336
2021-09-15T11:00:00 21.35025 75.29033
2021-09-15T12:00:00 21.74025 73.27192
2021-09-15T13:00:00 21.40025 75.25045
2021-09-15T14:00:00 21.63025 75.4314
2021-09-15T15:00:00 21.82025 73.14573
2021-09-15T16:00:00 21.75025 74.26057
2021-09-15T17:00:00 21.00025 79.36933
2021-09-15T18:00:00 20.18024 85.27132
2021-09-15T19:00:00 19.63025 89.25344
2021-09-15T20:00:00 19.02025 91.67444
2021-09-15T21:00:00 18.54025 92.9948
2021-09-15T22:00:00 17.47025 95.10387
2021-09-15T23:00:00 17.43024 95.22396
2021-09-16T00:00:00 17.22025 95.09504
2021-09-16T01:00:00 17.04025 95.33244
2021-09-16T02:00:00 17.48025 95.04356
2021-09-16T03:00:00 17.53025 95.28812
2021-09-16T04:00:00 17.69025 94.86948
2021-09-16T05:00:00 17.89025 94.69583
2021-09-16T06:00:00 17.92025 95.24058
2021-09-16T07:00:00 18.47025 93.82117
2021-09-16T08:00:00 19.33025 90.48296
2021-09-16T09:00:00 20.32025 85.60973
2021-09-16T10:00:00 20.76024 82.57219
2021-09-16T11:00:00 20.93024 82.8537
2021-09-16T12:00:00 20.93024 83.0109
2021-09-16T13:00:00 21.32025 79.56438
2021-09-16T14:00:00 21.23025 78.49963
2021-09-16T15:00:00 20.81025 77.99095
2021-09-16T16:00:00 20.33025 77.82065
2021-09-16T17:00:00 19.65025 76.33041
2021-09-16T18:00:00 18.50025 82.35243
2021-09-16T19:00:00 17.55025 87.05249
2021-09-16T20:00:00 17.31025 86.69339
2021-09-16T21:00:00 16.61025 88.50115
2021-09-16T22:00:00 15.66025 89.05742
2021-09-16T23:00:00 15.43025 88.28472
2021-09-17T00:00:00 14.73025 89.74387
2021-09-17T01:00:00 15.37025 85.82468
2021-09-17T02:00:00 15.43025 84.9333
2021-09-17T03:00:00 14.67025 87.81191
2021-09-17T04:00:00 14.31025 88.47704
2021-09-17T05:00:00 13.73025 90.6189
2021-09-17T06:00:00 13.86025 92.56167
2021-09-17T07:00:00 15.36025 86.6731
2021-09-17T08:00:00 16.92025 76.94565
2021-09-17T09:00:00 18.38025 68.41322
2021-09-17T10:00:00 19.61025 62.62801
2021-09-17T11:00:00 20.23025 57.22057
2021-09-17T12:00:00 20.81025 55.27346
2021-09-17T13:00:00 21.76024 51.68168
2021-09-17T14:00:00 22.08025 49.57517
2021-09-17T15:00:00 22.29025 48.61645
2021-09-17T16:00:00 22.05025 48.61589
2021-09-17T17:00:00 20.29025 59.71565
2021-09-17T18:00:00 17.93024 64.31198
2021-09-17T19:00:00 15.94025 71.84396
2021-09-17T20:00:00 14.98025 75.26144
2021-09-17T21:00:00 14.41025 76.84794
2021-09-17T22:00:00 13.76025 79.36769
2021-09-17T23:00:00 13.22025 81.12395
2021-09-18T00:00:00 12.24025 85.25661
2021-09-18T01:00:00 11.22025 89.15544
2021-09-18T02:00:00 10.58025 90.37817
2021-09-18T03:00:00 10.31025 91.53011
2021-09-18T04:00:00 9.760245 93.56905
2021-09-18T05:00:00 9.450245 94.83414
2021-09-18T06:00:00 10.47025 93.60922
2021-09-18T07:00:00 13.32025 85.72022
2021-09-18T08:00:00 15.62025 76.89027
2021-09-18T09:00:00 17.64025 69.03595
2021-09-18T10:00:00 19.07025 66.86237
2021-09-18T11:00:00 20.46025 62.00183
2021-09-18T12:00:00 21.43024 57.48045
2021-09-18T13:00:00 21.96025 55.74905
2021-09-18T14:00:00 22.81025 52.16523
2021-09-18T15:00:00 23.03025 50.56195
2021-09-18T16:00:00 22.83025 50.81028
2021-09-18T17:00:00 20.75025 64.46877
2021-09-18T18:00:00 18.35025 69.26959
2021-09-18T19:00:00 16.88025 74.88815
2021-09-18T20:00:00 15.34025 82.27818
2021-09-18T21:00:00 14.61025 84.78586
2021-09-18T22:00:00 13.67025 86.38816
2021-09-18T23:00:00 12.69025 89.34139
2021-09-19T00:00:00 12.19025 90.5037
2021-09-19T01:00:00 11.42025 92.22631
2021-09-19T02:00:00 11.49025 92.41686
2021-09-19T03:00:00 11.58025 91.98934
2021-09-19T04:00:00 11.71025 92.80312
2021-09-19T05:00:00 11.97025 92.32344
2021-09-19T06:00:00 12.62025 92.24135
2021-09-19T07:00:00 14.06025 86.94548
2021-09-19T08:00:00 15.13025 83.8981
2021-09-19T09:00:00 14.93025 86.23195
2021-09-19T10:00:00 14.44025 91.38818
2021-09-19T11:00:00 13.93025 92.62675
2021-09-19T12:00:00 13.81025 93.29326
2021-09-19T13:00:00 13.64025 92.36559
2021-09-19T14:00:00 13.56025 93.03394
2021-09-19T15:00:00 13.62025 92.36439
2021-09-19T16:00:00 13.53025 93.21664
2021-09-19T17:00:00 13.30025 95.06889
2021-09-19T18:00:00 13.15025 96.0718
2021-09-19T19:00:00 13.04025 96.32205
2021-09-19T20:00:00 13.04025 96.51289
2021-09-19T21:00:00 13.11025 96.70608
2021-09-19T22:00:00 12.83025 97.46731
2021-09-19T23:00:00 12.73025 98.11068
2021-09-20T00:00:00 12.83025 97.46731
2021-09-20T01:00:00 12.72025 97.91639
2021-09-20T02:00:00 12.58025 98.75814
2021-09-20T03:00:00 12.47025 99.5426
2021-09-20T04:00:00 12.71025 98.69473
2021-09-20T05:00:00 12.84025 98.30694
2021-09-20T06:00:00 12.85025 98.76169
2021-09-20T07:00:00 13.41025 96.4605
2021-09-20T08:00:00 14.04025 90.76113
2021-09-20T09:00:00 14.69025 86.83531
2021-09-20T10:00:00 15.67025 82.2119
2021-09-20T11:00:00 16.63025 77.91937
2021-09-20T12:00:00 17.20025 74.54885
2021-09-20T13:00:00 17.53025 72.76292
2021-09-20T14:00:00 17.60025 72.96761
2021-09-20T15:00:00 17.33025 74.37512
2021-09-20T16:00:00 17.03025 78.08292
2021-09-20T17:00:00 16.57025 81.30854
2021-09-20T18:00:00 15.47025 88.51952
2021-09-20T19:00:00 14.72025 92.36958
2021-09-20T20:00:00 14.14025 95.47714
2021-09-20T21:00:00 14.09025 94.41723
2021-09-20T22:00:00 14.33025 91.62138
2021-09-20T23:00:00 13.84025 92.49952
2021-09-21T00:00:00 13.06025 94.37024
2021-09-21T01:00:00 12.78025 95.11037
2021-09-21T02:00:00 12.24025 96.16837
2021-09-21T03:00:00 11.39025 97.49757
2021-09-21T04:00:00 11.16025 97.55705
2021-09-21T05:00:00 11.06025 98.07825
2021-09-21T06:00:00 10.85025 97.8113
2021-09-21T07:00:00 11.85025 94.37567
2021-09-21T08:00:00 13.01025 89.96513
2021-09-21T09:00:00 14.92025 83.04515
2021-09-21T10:00:00 16.47025 75.11572
2021-09-21T11:00:00 17.69025 69.13757
2021-09-21T12:00:00 18.46025 64.85949
2021-09-21T13:00:00 18.94025 61.56703
2021-09-21T14:00:00 19.18024 59.21025
2021-09-21T15:00:00 18.75025 59.98165
2021-09-21T16:00:00 18.10025 61.45144
2021-09-21T17:00:00 17.01024 63.0782
2021-09-21T18:00:00 14.98025 71.6609
2021-09-21T19:00:00 13.56025 77.07167
2021-09-21T20:00:00 12.57025 80.26914
2021-09-21T21:00:00 11.83025 81.7028
2021-09-21T22:00:00 10.70025 86.01321
2021-09-21T23:00:00 9.920245 88.13178
2021-09-22T00:00:00 9.630245 88.7094
2021-09-22T01:00:00 9.150246 89.58314
2021-09-22T02:00:00 8.910245 90.49073
2021-09-22T03:00:00 8.170245 91.68819
2021-09-22T04:00:00 7.720245 92.74007
2021-09-22T05:00:00 7.550245 93.69691
2021-09-22T06:00:00 8.130245 93.40882
2021-09-22T07:00:00 10.60025 85.88492
2021-09-22T08:00:00 12.25025 78.76392
2021-09-22T09:00:00 14.18025 71.21613
2021-09-22T10:00:00 15.95025 65.9265
2021-09-22T11:00:00 17.52025 59.40132
2021-09-22T12:00:00 18.65025 54.27291
2021-09-22T13:00:00 19.55025 51.22767
2021-09-22T14:00:00 19.96025 49.63128
2021-09-22T15:00:00 20.03025 49.78515
2021-09-22T16:00:00 19.29025 55.92471
2021-09-22T17:00:00 17.13025 65.7865
2021-09-22T18:00:00 14.49025 74.32217
2021-09-22T19:00:00 12.98025 80.49123
2021-09-22T20:00:00 11.63025 85.82397
2021-09-22T21:00:00 10.85025 87.98157
2021-09-22T22:00:00 10.34025 89.62482
2021-09-22T23:00:00 9.520246 91.28564
2021-09-23T00:00:00 8.950245 92.18648
2021-09-23T01:00:00 8.320246 93.48465
2021-09-23T02:00:00 7.950245 94.62947
2021-09-23T03:00:00 7.750245 94.61906
2021-09-23T04:00:00 7.560246 94.08723
2021-09-23T05:00:00 7.500245 93.95371
2021-09-23T06:00:00 7.960245 94.36954
2021-09-23T07:00:00 10.28025 89.13297
2021-09-23T08:00:00 12.53025 82.07507
2021-09-23T09:00:00 14.45025 74.91769
2021-09-23T10:00:00 16.18025 70.27512
2021-09-23T11:00:00 18.22025 64.6343
2021-09-23T12:00:00 19.76024 60.06454
2021-09-23T13:00:00 21.03025 57.11675
2021-09-23T14:00:00 21.77025 55.77458
2021-09-23T15:00:00 22.08025 54.54411
2021-09-23T16:00:00 21.64025 57.60789
2021-09-23T17:00:00 19.75025 65.70016
2021-09-23T18:00:00 17.52025 75.63972
2021-09-23T19:00:00 14.75025 86.21348
2021-09-23T20:00:00 13.33025 89.9306
2021-09-23T21:00:00 12.71025 91.45245
2021-09-23T22:00:00 11.42025 94.41805
2021-09-23T23:00:00 11.00025 95.09802
2021-09-24T00:00:00 11.04025 95.22759
2021-09-24T01:00:00 10.76025 94.89562
2021-09-24T02:00:00 10.29025 95.25932
2021-09-24T03:00:00 9.940246 94.85748
2021-09-24T04:00:00 9.930245 94.66431
2021-09-24T05:00:00 9.540245 94.96752
2021-09-24T06:00:00 10.07025 95.18522
2021-09-24T07:00:00 12.45025 91.1908
2021-09-24T08:00:00 14.76025 84.74669
2021-09-24T09:00:00 16.74025 78.29574
2021-09-24T10:00:00 18.40025 73.35081
2021-09-24T11:00:00 20.36025 64.00489
2021-09-24T12:00:00 21.88025 55.43584
2021-09-24T13:00:00 22.98025 50.11574
2021-09-24T14:00:00 23.45025 47.68336
2021-09-24T15:00:00 23.56025 47.87182
2021-09-24T16:00:00 23.15025 48.01446
2021-09-24T17:00:00 20.85025 59.889
2021-09-24T18:00:00 17.15025 74.197
2021-09-24T19:00:00 14.43025 84.82175
2021-09-24T20:00:00 13.19025 88.84949
2021-09-24T21:00:00 12.02025 92.14153
2021-09-24T22:00:00 10.65025 95.59623
2021-09-24T23:00:00 10.59025 95.72264
2021-09-25T00:00:00 10.29025 96.09907
2021-09-25T01:00:00 10.30025 95.06687
2021-09-25T02:00:00 9.920245 95.37215
2021-09-25T03:00:00 9.780245 94.65698
2021-09-25T04:00:00 9.790245 94.08079
2021-09-25T05:00:00 9.480246 94.32069
2021-09-25T06:00:00 10.19025 93.91101
2021-09-25T07:00:00 12.76025 86.64098
2021-09-25T08:00:00 15.58025 79.74023
2021-09-25T09:00:00 17.81025 75.98537
2021-09-25T10:00:00 20.36025 68.72166
2021-09-25T11:00:00 22.05025 62.64836
2021-09-25T12:00:00 23.46025 58.80774
2021-09-25T13:00:00 24.38025 56.35201
2021-09-25T14:00:00 25.04025 53.36279
2021-09-25T15:00:00 24.91025 54.05919
2021-09-25T16:00:00 23.90025 60.60404
2021-09-25T17:00:00 22.45025 66.69682
2021-09-25T18:00:00 19.75025 80.26779
2021-09-25T19:00:00 19.10025 85.05188
2021-09-25T20:00:00 18.23025 90.12051
2021-09-25T21:00:00 17.81025 92.42567
2021-09-25T22:00:00 18.40025 90.76672
2021-09-25T23:00:00 17.63025 92.4158
2021-09-26T00:00:00 16.83025 94.53363
2021-09-26T01:00:00 15.69025 97.71621
2021-09-26T02:00:00 14.79025 99.16928
2021-09-26T03:00:00 14.73025 99.04026
2021-09-26T04:00:00 14.82025 98.8485
2021-09-26T05:00:00 15.13025 98.53217
2021-09-26T06:00:00 15.92025 97.72019
2021-09-26T07:00:00 17.10025 93.04125
2021-09-26T08:00:00 18.13025 87.66668
2021-09-26T09:00:00 18.59025 86.86987
2021-09-26T10:00:00 18.52025 87.58876
2021-09-26T11:00:00 19.59025 81.69793
2021-09-26T12:00:00 20.22025 77.35706
2021-09-26T13:00:00 20.58025 73.92088
2021-09-26T14:00:00 21.87025 67.9193
2021-09-26T15:00:00 21.62025 65.88351
2021-09-26T16:00:00 21.12025 69.09464
2021-09-26T17:00:00 19.86025 77.05438
2021-09-26T18:00:00 17.75025 86.45642
2021-09-26T19:00:00 16.71025 90.71152
2021-09-26T20:00:00 16.11025 92.45001
2021-09-26T21:00:00 15.69025 93.1488
2021-09-26T22:00:00 15.01025 93.05228
2021-09-26T23:00:00 14.11025 94.54205
2021-09-27T00:00:00 13.49025 95.95676
2021-09-27T01:00:00 13.40025 96.4602
2021-09-27T02:00:00 13.01025 96.89478
2021-09-27T03:00:00 12.79025 97.27351
2021-09-27T04:00:00 12.73025 97.465
2021-09-27T05:00:00 12.29025 96.48981
2021-09-27T06:00:00 12.53025 96.36952
2021-09-27T07:00:00 14.34025 91.56184
2021-09-27T08:00:00 16.56025 83.8998
2021-09-27T09:00:00 18.57025 76.40603
2021-09-27T10:00:00 20.08025 68.93455
2021-09-27T11:00:00 20.97025 64.93839
2021-09-27T12:00:00 21.47025 62.47681
2021-09-27T13:00:00 21.69025 62.08057
2021-09-27T14:00:00 21.96025 61.57905
2021-09-27T15:00:00 21.88025 62.32603
2021-09-27T16:00:00 21.46025 65.80714
2021-09-27T17:00:00 20.90025 68.42904
2021-09-27T18:00:00 19.12025 76.94001
2021-09-27T19:00:00 17.67025 84.35349
2021-09-27T20:00:00 17.24025 86.18346
2021-09-27T21:00:00 17.18024 83.48151
2021-09-27T22:00:00 16.63025 81.15686
2021-09-27T23:00:00 15.96025 83.77506
2021-09-28T00:00:00 15.27025 83.91455
2021-09-28T01:00:00 14.55025 84.10776
2021-09-28T02:00:00 13.95025 84.59835
2021-09-28T03:00:00 13.51025 84.04071
2021-09-28T04:00:00 12.96025 84.42683
2021-09-28T05:00:00 12.46025 84.93778
2021-09-28T06:00:00 11.93025 86.43823
2021-09-28T07:00:00 12.75025 83.61124
2021-09-28T08:00:00 13.83025 77.11569
2021-09-28T09:00:00 15.17025 70.97727
2021-09-28T10:00:00 16.30025 67.12249
2021-09-28T11:00:00 17.28025 61.3808
2021-09-28T12:00:00 18.11025 56.37964
2021-09-28T13:00:00 18.64025 54.60191
2021-09-28T14:00:00 18.87025 54.11067
2021-09-28T15:00:00 18.79025 55.16025
2021-09-28T16:00:00 18.12025 60.03037
2021-09-28T17:00:00 16.33025 70.3047
2021-09-28T18:00:00 15.20025 72.13808
2021-09-28T19:00:00 14.89025 73.59824
2021-09-28T20:00:00 14.77025 74.37189
2021-09-28T21:00:00 13.68025 82.55801
2021-09-28T22:00:00 13.85025 82.46961
2021-09-28T23:00:00 13.39025 86.64754
2021-09-29T00:00:00 13.28025 87.216
2021-09-29T01:00:00 13.29025 87.85852
2021-09-29T02:00:00 13.19025 86.91673
2021-09-29T03:00:00 12.99025 81.64016
2021-09-29T04:00:00 12.50025 80.85904
2021-09-29T05:00:00 11.39025 85.04414
2021-09-29T06:00:00 12.29025 82.87955
2021-09-29T07:00:00 14.48025 74.87254
2021-09-29T08:00:00 16.07025 68.53206
2021-09-29T09:00:00 17.27025 64.24967
2021-09-29T10:00:00 17.98025 62.29327
2021-09-29T11:00:00 18.53025 60.53313
2021-09-29T12:00:00 18.34025 62.1691
2021-09-29T13:00:00 17.00025 70.67045
2021-09-29T14:00:00 16.96025 68.25815
2021-09-29T15:00:00 16.32025 68.21683
2021-09-29T16:00:00 15.48025 68.59451
2021-09-29T17:00:00 14.32025 69.28861
2021-09-29T18:00:00 13.15025 72.8304
2021-09-29T19:00:00 12.33025 77.50006
2021-09-29T20:00:00 11.82025 81.42416
2021-09-29T21:00:00 11.19025 83.2456
2021-09-29T22:00:00 10.79025 82.007
2021-09-29T23:00:00 10.08025 83.44537
2021-09-30T00:00:00 9.620245 83.84737
2021-09-30T01:00:00 8.470245 87.92829
2021-09-30T02:00:00 8.080246 89.30239
2021-09-30T03:00:00 7.580246 90.19244
2021-09-30T04:00:00 6.470245 93.04469
2021-09-30T05:00:00 6.160245 93.48124
2021-09-30T06:00:00 6.040245 93.86742
2021-09-30T07:00:00 8.880245 86.70314
2021-09-30T08:00:00 11.21025 78.70908
2021-09-30T09:00:00 13.07025 69.36193
2021-09-30T10:00:00 14.92025 53.83653
2021-09-30T11:00:00 15.78025 49.52887
2021-09-30T12:00:00 16.34025 47.58136
2021-09-30T13:00:00 16.55025 45.74474
2021-09-30T14:00:00 17.05025 43.41512
2021-09-30T15:00:00 17.11025 42.28534
2021-09-30T16:00:00 16.62025 44.90518
2021-09-30T17:00:00 14.80025 51.80968
2021-09-30T18:00:00 12.12025 65.24651
2021-09-30T19:00:00 11.62025 66.37161
2021-09-30T20:00:00 10.45025 70.56565
2021-09-30T21:00:00 8.490246 78.98843
2021-09-30T22:00:00 7.170245 88.53552
2021-09-30T23:00:00 6.750245 90.24686
2021-10-01T00:00:00 6.500245 89.97246
2021-10-01T01:00:00 5.630245 93.11934
2021-10-01T02:00:00 5.170245 94.61121
2021-10-01T03:00:00 4.680245 94.24927
2021-10-01T04:00:00 4.530245 94.37397
2021-10-01T05:00:00 4.340245 94.36273
2021-10-01T06:00:00 4.820245 93.1964
2021-10-01T07:00:00 7.540245 86.25391
2021-10-01T08:00:00 10.43025 77.93692
2021-10-01T09:00:00 12.92025 69.47385
2021-10-01T10:00:00 15.16025 62.13413
2021-10-01T11:00:00 17.40025 55.39883
2021-10-01T12:00:00 19.12025 52.7668
2021-10-01T13:00:00 20.65025 51.66214
2021-10-01T14:00:00 21.44025 51.32187
2021-10-01T15:00:00 21.62025 52.05878
2021-10-01T16:00:00 20.54025 62.10175
2021-10-01T17:00:00 17.43024 71.12915
2021-10-01T18:00:00 15.18025 81.06842
2021-10-01T19:00:00 14.16025 85.6966
2021-10-01T20:00:00 13.78025 88.37167
2021-10-01T21:00:00 14.05025 88.10376
2021-10-01T22:00:00 13.80025 86.34415
2021-10-01T23:00:00 13.85025 85.77728
2021-10-02T00:00:00 13.29025 88.62203
2021-10-02T01:00:00 12.80025 91.33699
2021-10-02T02:00:00 12.49025 93.03508
2021-10-02T03:00:00 12.19025 94.20352
2021-10-02T04:00:00 11.87025 94.6922
2021-10-02T05:00:00 11.86025 94.06152
2021-10-02T06:00:00 11.83025 93.68354
2021-10-02T07:00:00 12.91025 90.55814
2021-10-02T08:00:00 15.30025 80.65638
2021-10-02T09:00:00 17.92025 69.82674
2021-10-02T10:00:00 19.71025 63.69235
2021-10-02T11:00:00 20.96025 59.67924
2021-10-02T12:00:00 21.67025 57.27541
2021-10-02T13:00:00 22.56025 54.05919
2021-10-02T14:00:00 23.07025 52.30217
2021-10-02T15:00:00 22.89025 53.7896
2021-10-02T16:00:00 21.53025 59.4245
2021-10-02T17:00:00 19.84025 65.80567
2021-10-02T18:00:00 18.15025 72.39855
2021-10-02T19:00:00 16.98025 76.70255
2021-10-02T20:00:00 16.07025 81.34895
2021-10-02T21:00:00 14.94025 87.43328
2021-10-02T22:00:00 14.74025 90.45429
2021-10-02T23:00:00 14.08025 93.61458
2021-10-03T00:00:00 14.24025 92.70561
2021-10-03T01:00:00 13.84025 92.68254
2021-10-03T02:00:00 14.29025 89.17859
2021-10-03T03:00:00 14.36025 87.32063
2021-10-03T04:00:00 14.11025 87.70209
2021-10-03T05:00:00 13.81025 87.61583
2021-10-03T06:00:00 14.09025 85.46187
2021-10-03T07:00:00 15.17025 79.52246
2021-10-03T08:00:00 16.47025 73.68576
2021-10-03T09:00:00 17.53025 71.61984
2021-10-03T10:00:00 19.55025 64.75654
2021-10-03T11:00:00 21.03025 57.72361
2021-10-03T12:00:00 19.85025 66.19704
2021-10-03T13:00:00 19.37025 72.38404
2021-10-03T14:00:00 18.79025 72.79966
2021-10-03T15:00:00 17.64025 78.78958
2021-10-03T16:00:00 16.92025 81.2485
2021-10-03T17:00:00 16.22025 84.6318
2021-10-03T18:00:00 15.90025 83.71304
2021-10-03T19:00:00 15.03025 85.16933
2021-10-03T20:00:00 14.37025 86.45985
2021-10-03T21:00:00 13.55025 86.7215
2021-10-03T22:00:00 12.73025 91.45383
2021-10-03T23:00:00 12.47025 92.04765
2021-10-04T00:00:00 12.22025 92.6479
2021-10-04T01:00:00 12.04025 94.63683
2021-10-04T02:00:00 11.90025 90.7246
2021-10-04T03:00:00 11.61025 90.27673
2021-10-04T04:00:00 11.30025 90.19135
2021-10-04T05:00:00 11.00025 89.86292
2021-10-04T06:00:00 10.67025 90.20172
2021-10-04T07:00:00 10.78025 89.11676
2021-10-04T08:00:00 10.97025 89.01285
2021-10-04T09:00:00 11.22025 88.49481
2021-10-04T10:00:00 12.33025 87.47364
2021-10-04T11:00:00 12.84025 85.38126
2021-10-04T12:00:00 13.34025 81.74241
2021-10-04T13:00:00 13.66025 79.94145
2021-10-04T14:00:00 14.12025 76.3883
2021-10-04T15:00:00 14.23025 75.99664
2021-10-04T16:00:00 13.97025 78.65663
2021-10-04T17:00:00 13.05025 84.32425
2021-10-04T18:00:00 12.21025 90.08208
2021-10-04T19:00:00 12.12025 90.92353
2021-10-04T20:00:00 12.49025 87.4306
2021-10-04T21:00:00 12.22025 88.11152
2021-10-04T22:00:00 11.87025 93.811
2021-10-04T23:00:00 11.81025 93.74513
2021-10-05T00:00:00 11.69025 93.55074
2021-10-05T01:00:00 11.63025 93.79835
2021-10-05T02:00:00 11.59025 94.17382
2021-10-05T03:00:00 11.57025 94.74176
2021-10-05T04:00:00 11.52025 94.86636
2021-10-05T05:00:00 11.50025 95.05612
2021-10-05T06:00:00 11.60025 95.18765
2021-10-05T07:00:00 11.95025 94.44349
2021-10-05T08:00:00 12.64025 90.53783
2021-10-05T09:00:00 13.56025 87.70866
2021-10-05T10:00:00 14.16025 84.56622
2021-10-05T11:00:00 15.31025 78.49364
2021-10-05T12:00:00 16.72025 70.89857
2021-10-05T13:00:00 17.63025 65.15234
2021-10-05T14:00:00 17.69025 63.74462
2021-10-05T15:00:00 16.86025 66.52523
2021-10-05T16:00:00 15.59025 72.794
2021-10-05T17:00:00 14.57025 78.80063
2021-10-05T18:00:00 13.72025 83.9536
2021-10-05T19:00:00 12.92025 87.47241
2021-10-05T20:00:00 12.20025 87.34342
2021-10-05T21:00:00 11.79025 86.13207
2021-10-05T22:00:00 11.33025 86.90286
2021-10-05T23:00:00 11.35025 84.34911
2021-10-06T00:00:00 10.91025 84.64143
2021-10-06T01:00:00 10.33025 85.7961
2021-10-06T02:00:00 9.900246 86.21942
2021-10-06T03:00:00 9.870245 86.15701
2021-10-06T04:00:00 9.720245 86.49602
2021-10-06T05:00:00 9.600245 87.97997
2021-10-06T06:00:00 9.530245 89.37114
2021-10-06T07:00:00 10.45025 85.75095
2021-10-06T08:00:00 11.36025 81.02736
2021-10-06T09:00:00 12.06025 74.18681
2021-10-06T10:00:00 12.40025 71.25456
2021-10-06T11:00:00 12.56025 69.44698
2021-10-06T12:00:00 12.89025 68.66029
2021-10-06T13:00:00 13.38025 66.90095
2021-10-06T14:00:00 13.64025 64.42815
2021-10-06T15:00:00 13.19025 69.67278
2021-10-06T16:00:00 12.65025 76.29639
2021-10-06T17:00:00 12.08025 80.85424
2021-10-06T18:00:00 11.47025 83.22478
2021-10-06T19:00:00 11.24025 84.45065
2021-10-06T20:00:00 10.93025 86.6845
2021-10-06T21:00:00 10.37025 89.74935
2021-10-06T22:00:00 10.68025 87.7859
2021-10-06T23:00:00 10.52025 89.09369
2021-10-07T00:00:00 10.10025 92.01393
2021-10-07T01:00:00 9.530245 95.41998
2021-10-07T02:00:00 9.480246 94.38491
2021-10-07T03:00:00 9.450245 96.00198
2021-10-07T04:00:00 9.590245 92.98759
2021-10-07T05:00:00 9.760245 92.61912
2021-10-07T06:00:00 9.780245 93.37956
2021-10-07T07:00:00 10.35025 93.34947
2021-10-07T08:00:00 11.18025 89.93851
2021-10-07T09:00:00 12.06025 84.32007
2021-10-07T10:00:00 13.28025 77.23457
2021-10-07T11:00:00 13.89025 71.98589
2021-10-07T12:00:00 14.59025 67.89942
2021-10-07T13:00:00 14.65025 65.14753
2021-10-07T14:00:00 14.88025 65.11048
2021-10-07T15:00:00 14.71025 67.92489
2021-10-07T16:00:00 14.27025 70.89647
2021-10-07T17:00:00 12.56025 78.91892
2021-10-07T18:00:00 11.50025 84.82642
2021-10-07T19:00:00 10.77025 85.84531
2021-10-07T20:00:00 10.18025 86.96086
2021-10-07T21:00:00 9.480246 88.57384
2021-10-07T22:00:00 9.330245 89.66034
2021-10-07T23:00:00 8.840245 90.36066
2021-10-08T00:00:00 8.580245 91.02641
2021-10-08T01:00:00 8.380245 90.88528
2021-10-08T02:00:00 7.930245 91.60706
2021-10-08T03:00:00 7.950245 91.29224
2021-10-08T04:00:00 8.250245 90.56165
2021-10-08T05:00:00 8.320246 90.25517
2021-10-08T06:00:00 8.650246 90.28276
2021-10-08T07:00:00 10.01025 86.40894
2021-10-08T08:00:00 11.18025 82.96103
2021-10-08T09:00:00 12.46025 79.54884
2021-10-08T10:00:00 14.36025 72.85949
2021-10-08T11:00:00 15.92025 67.44902
2021-10-08T12:00:00 16.93024 62.93236
2021-10-08T13:00:00 17.17025 63.54079
2021-10-08T14:00:00 17.21025 63.7209
2021-10-08T15:00:00 16.76024 66.5929
2021-10-08T16:00:00 15.98025 70.18855
2021-10-08T17:00:00 14.73025 74.36479
2021-10-08T18:00:00 13.09025 80.23605
2021-10-08T19:00:00 11.93025 83.22694
2021-10-08T20:00:00 11.00025 86.69186
2021-10-08T21:00:00 10.16025 88.39591
2021-10-08T22:00:00 9.370245 90.65197
2021-10-08T23:00:00 8.750245 91.73058
2021-10-09T00:00:00 8.050245 93.14667
2021-10-09T01:00:00 7.880245 92.94314
2021-10-09T02:00:00 7.930245 92.17896
2021-10-09T03:00:00 8.250245 91.56764
2021-10-09T04:00:00 8.180245 91.49924
2021-10-09T05:00:00 8.030246 91.23528
2021-10-09T06:00:00 7.470245 91.38193
2021-10-09T07:00:00 9.020246 89.01903
2021-10-09T08:00:00 10.17025 83.85909
2021-10-09T09:00:00 11.42025 76.55814
2021-10-09T10:00:00 13.14025 66.20618
2021-10-09T11:00:00 14.33025 62.23467
2021-10-09T12:00:00 15.47025 58.56916
2021-10-09T13:00:00 16.31025 55.53149
2021-10-09T14:00:00 16.71025 53.7219
2021-10-09T15:00:00 16.72025 54.99413
2021-10-09T16:00:00 15.26025 66.94455
2021-10-09T17:00:00 14.32025 64.3633
2021-10-09T18:00:00 10.77025 80.22375
2021-10-09T19:00:00 8.670245 88.55788
2021-10-09T20:00:00 7.610245 91.39269
2021-10-09T21:00:00 6.780245 92.74129
2021-10-09T22:00:00 6.620246 91.12428
2021-10-09T23:00:00 6.490245 90.16106
2021-10-10T00:00:00 6.210245 89.6309
2021-10-10T01:00:00 6.460245 88.40305
2021-10-10T02:00:00 6.710245 87.01128
2021-10-10T03:00:00 6.360245 86.60555
2021-10-10T04:00:00 6.040245 88.54794
2021-10-10T05:00:00 5.500245 89.43848
2021-10-10T06:00:00 5.540245 88.93738
2021-10-10T07:00:00 6.300245 90.84319
2021-10-10T08:00:00 7.640245 87.23389
2021-10-10T09:00:00 9.350245 81.4111
2021-10-10T10:00:00 10.12025 79.96087
2021-10-10T11:00:00 11.62025 74.77231
2021-10-10T12:00:00 13.01025 69.49248
2021-10-10T13:00:00 14.00025 65.44802
2021-10-10T14:00:00 14.75025 63.49913
2021-10-10T15:00:00 14.74025 62.54673
2021-10-10T16:00:00 13.67025 68.91843
2021-10-10T17:00:00 10.82025 78.21559
2021-10-10T18:00:00 10.51025 80.29553
2021-10-10T19:00:00 8.800245 84.85374
2021-10-10T20:00:00 8.220245 86.0311
2021-10-10T21:00:00 7.750245 86.27772
2021-10-10T22:00:00 4.810246 93.79138
2021-10-10T23:00:00 3.990245 94.409
2021-10-11T00:00:00 3.170245 95.10604
2021-10-11T01:00:00 3.370246 94.30415
2021-10-11T02:00:00 3.020246 94.35022
2021-10-11T03:00:00 2.020246 96.07663
2021-10-11T04:00:00 1.990246 95.93642
2021-10-11T05:00:00 1.760245 95.7859
2021-10-11T06:00:00 1.500245 96.67933
2021-10-11T07:00:00 3.680245 93.25123
2021-10-11T08:00:00 6.120246 87.43867
2021-10-11T09:00:00 7.800245 82.91291
2021-10-11T10:00:00 9.300245 82.19803
2021-10-11T11:00:00 10.89025 76.57332
2021-10-11T12:00:00 12.35025 71.63772
2021-10-11T13:00:00 13.39025 66.49027
2021-10-11T14:00:00 13.90025 63.69392
2021-10-11T15:00:00 13.68025 64.2157
2021-10-11T16:00:00 12.79025 68.68645
2021-10-11T17:00:00 10.63025 81.08968
2021-10-11T18:00:00 10.12025 83.8528
2021-10-11T19:00:00 9.650246 86.48841
2021-10-11T20:00:00 10.08025 84.89038
2021-10-11T21:00:00 9.440246 87.72291
2021-10-11T22:00:00 8.170245 93.92725
2021-10-11T23:00:00 8.390245 92.78417
2021-10-12T00:00:00 7.410245 94.86339
2021-10-12T01:00:00 6.950245 95.23566
2021-10-12T02:00:00 8.110246 92.51023
2021-10-12T03:00:00 7.100246 95.309
2021-10-12T04:00:00 6.880245 96.02882
2021-10-12T05:00:00 7.170245 95.77554
2021-10-12T06:00:00 7.250245 96.04448
2021-10-12T07:00:00 7.970245 93.59256
2021-10-12T08:00:00 9.090245 89.02544
2021-10-12T09:00:00 10.12025 85.47913
2021-10-12T10:00:00 11.19025 82.11762
2021-10-12T11:00:00 12.15025 76.68147
2021-10-12T12:00:00 12.92025 70.53089
2021-10-12T13:00:00 13.03025 67.10104
2021-10-12T14:00:00 13.18025 65.80531
2021-10-12T15:00:00 13.06025 66.83064
2021-10-12T16:00:00 12.54025 70.40569
2021-10-12T17:00:00 11.71025 76.29277
2021-10-12T18:00:00 11.05025 80.37528
2021-10-12T19:00:00 10.79025 82.57043
2021-10-12T20:00:00 10.33025 85.26951
2021-10-12T21:00:00 10.09025 87.42844
2021-10-12T22:00:00 10.02025 87.90082
2021-10-12T23:00:00 9.850245 90.99954
2021-10-13T00:00:00 9.820246 91.93209
2021-10-13T01:00:00 9.780245 92.3057
2021-10-13T02:00:00 9.680245 90.49092
2021-10-13T03:00:00 9.180245 92.51817
2021-10-13T04:00:00 8.290245 94.84225
2021-10-13T05:00:00 7.830246 96.59888
2021-10-13T06:00:00 7.460245 95.58996
2021-10-13T07:00:00 7.550245 94.73945
2021-10-13T08:00:00 8.370246 89.57609
2021-10-13T09:00:00 9.330245 79.95171
2021-10-13T10:00:00 10.36025 71.64053
2021-10-13T11:00:00 11.41025 64.13156
2021-10-13T12:00:00 11.90025 59.63936
2021-10-13T13:00:00 12.35025 57.80913
2021-10-13T14:00:00 12.34025 58.751
2021-10-13T15:00:00 11.86025 61.41897
2021-10-13T16:00:00 11.09025 63.786
2021-10-13T17:00:00 8.170245 82.21262
2021-10-13T18:00:00 6.620246 89.92008
2021-10-13T19:00:00 5.910245 91.77412
2021-10-13T20:00:00 6.310246 87.8915
2021-10-13T21:00:00 5.910245 88.16055
2021-10-13T22:00:00 5.340245 89.80422
2021-10-13T23:00:00 4.830246 91.17112
2021-10-14T00:00:00 4.680245 91.54816
2021-10-14T01:00:00 3.490245 93.57237
2021-10-14T02:00:00 2.650245 94.80371
2021-10-14T03:00:00 1.840245 95.37505
2021-10-14T04:00:00 1.390245 95.55791
2021-10-14T05:00:00 1.210245 96.31537
2021-10-14T06:00:00 1.090246 96.73071
2021-10-14T07:00:00 3.040246 94.82643
2021-10-14T08:00:00 5.870246 89.28407
2021-10-14T09:00:00 8.070246 82.08362
2021-10-14T10:00:00 9.560246 76.71748
2021-10-14T11:00:00 11.49025 68.12419
2021-10-14T12:00:00 12.87025 60.94014
2021-10-14T13:00:00 13.79025 56.65888
2021-10-14T14:00:00 14.42025 53.81398
2021-10-14T15:00:00 14.58025 53.59437
2021-10-14T16:00:00 13.32025 63.8666
2021-10-14T17:00:00 12.49025 63.00948
2021-10-14T18:00:00 10.15025 74.03895
2021-10-14T19:00:00 8.500245 81.51583
2021-10-14T20:00:00 6.150245 88.74629
2021-10-14T21:00:00 5.200245 90.68651
2021-10-14T22:00:00 4.400245 91.00555
2021-10-14T23:00:00 3.400245 93.16507
2021-10-15T00:00:00 3.190246 93.08347
2021-10-15T01:00:00 2.800245 92.72106
2021-10-15T02:00:00 2.460245 94.24742
2021-10-15T03:00:00 2.280245 95.26178
2021-10-15T04:00:00 1.960245 96.00426
2021-10-15T05:00:00 1.890245 96.69704
2021-10-15T06:00:00 2.210245 96.36352
2021-10-15T07:00:00 3.690246 92.32297
2021-10-15T08:00:00 6.580246 86.6914
2021-10-15T09:00:00 9.430245 79.08263
2021-10-15T10:00:00 11.43025 72.25171
2021-10-15T11:00:00 13.64025 61.98301
2021-10-15T12:00:00 14.99025 57.36752
2021-10-15T13:00:00 15.66025 55.74424
2021-10-15T14:00:00 15.76025 54.77799
2021-10-15T15:00:00 15.45025 57.36712
2021-10-15T16:00:00 14.67025 60.58336
2021-10-15T17:00:00 13.04025 69.11801
2021-10-15T18:00:00 9.980246 82.0648
2021-10-15T19:00:00 7.990245 87.94091
2021-10-15T20:00:00 7.450245 89.24446
2021-10-15T21:00:00 6.750245 89.68016
2021-10-15T22:00:00 5.970245 91.26402
2021-10-15T23:00:00 5.110245 92.88716
2021-10-16T00:00:00 4.360245 94.29696
2021-10-16T01:00:00 3.960246 95.76019
2021-10-16T02:00:00 4.040246 94.41197
2021-10-16T03:00:00 3.880245 94.13371
2021-10-16T04:00:00 3.160245 95.51493
2021-10-16T05:00:00 2.680245 96.17806
2021-10-16T06:00:00 2.640245 96.31441
2021-10-16T07:00:00 4.100246 95.22442
2021-10-16T08:00:00 6.350246 93.55861
2021-10-16T09:00:00 8.850245 89.1261
2021-10-16T10:00:00 10.44025 84.64299
2021-10-16T11:00:00 11.70025 79.48838
2021-10-16T12:00:00 13.07025 74.77589
2021-10-16T13:00:00 13.96025 71.95049
2021-10-16T14:00:00 14.46025 69.50585
2021-10-16T15:00:00 14.30025 69.33161
2021-10-16T16:00:00 13.02025 76.15184
2021-10-16T17:00:00 9.240245 92.83886
2021-10-16T18:00:00 9.620245 91.29311
2021-10-16T19:00:00 8.950245 93.13875
2021-10-16T20:00:00 8.380245 94.32716
2021-10-16T21:00:00 7.630245 94.74358
2021-10-16T22:00:00 6.440245 93.49889
2021-10-16T23:00:00 6.030245 94.19609
2021-10-17T00:00:00 5.320245 95.89267
2021-10-17T01:00:00 5.170245 94.94515
2021-10-17T02:00:00 4.900245 95.9408
2021-10-17T03:00:00 4.870246 97.30142
2021-10-17T04:00:00 4.810246 97.84909
2021-10-17T05:00:00 5.100246 98.20236
2021-10-17T06:00:00 5.290245 97.86396
2021-10-17T07:00:00 5.470245 98.55693
2021-10-17T08:00:00 6.330246 97.62286
2021-10-17T09:00:00 7.590245 94.15402
2021-10-17T10:00:00 9.050245 90.56425
2021-10-17T11:00:00 10.48025 85.11216
2021-10-17T12:00:00 11.77025 79.82497
2021-10-17T13:00:00 13.16025 75.66048
2021-10-17T14:00:00 14.09025 72.02422
2021-10-17T15:00:00 14.24025 71.37286
2021-10-17T16:00:00 13.36025 74.8781
2021-10-17T17:00:00 9.560246 91.16399
2021-10-17T18:00:00 7.450245 99.07887
2021-10-17T19:00:00 6.790245 98.99834
2021-10-17T20:00:00 6.470245 98.30753
2021-10-17T21:00:00 5.970245 98.56909
2021-10-17T22:00:00 6.080246 97.75123
2021-10-17T23:00:00 5.750245 97.87783
2021-10-18T00:00:00 6.130245 97.14157
2021-10-18T01:00:00 6.000245 96.25927
2021-10-18T02:00:00 5.570245 97.94095
2021-10-18T03:00:00 5.080246 97.58285
2021-10-18T04:00:00 4.780245 96.68278
2021-10-18T05:00:00 4.510245 98.11622
2021-10-18T06:00:00 4.330246 98.2496
2021-10-18T07:00:00 4.700245 98.46801
2021-10-18T08:00:00 6.740245 95.2254
2021-10-18T09:00:00 8.980246 87.73697
2021-10-18T10:00:00 11.24025 79.74547
2021-10-18T11:00:00 13.28025 72.31078
2021-10-18T12:00:00 15.04025 67.85661
2021-10-18T13:00:00 16.24025 63.58462
2021-10-18T14:00:00 16.77025 62.42991
2021-10-18T15:00:00 16.08025 71.2491
2021-10-18T16:00:00 13.64025 82.33216
2021-10-18T17:00:00 11.93025 83.62252
2021-10-18T18:00:00 8.980246 94.16564
2021-10-18T19:00:00 7.240245 98.53018
2021-10-18T20:00:00 7.320245 98.32843
2021-10-18T21:00:00 6.980245 97.03626
2021-10-18T22:00:00 7.480245 92.14707
2021-10-18T23:00:00 7.500245 93.04726
2021-10-19T00:00:00 7.270245 93.35575
2021-10-19T01:00:00 7.120246 94.5202
2021-10-19T02:00:00 7.290245 92.71127
2021-10-19T03:00:00 7.820245 91.47208
2021-10-19T04:00:00 7.910245 91.92294
2021-10-19T05:00:00 8.380245 90.50977
2021-10-19T06:00:00 9.000245 88.34563
2021-10-19T07:00:00 9.670245 86.37186
2021-10-19T08:00:00 10.54025 85.23555
2021-10-19T09:00:00 12.29025 80.17394
2021-10-19T10:00:00 13.59025 77.1286
2021-10-19T11:00:00 14.90025 72.22703
2021-10-19T12:00:00 16.37025 65.48729
2021-10-19T13:00:00 17.30025 63.18753
2021-10-19T14:00:00 18.15025 58.64117
2021-10-19T15:00:00 18.26024 60.10455
2021-10-19T16:00:00 16.28025 71.38272
2021-10-19T17:00:00 13.22025 85.48053
2021-10-19T18:00:00 12.09025 88.87209
2021-10-19T19:00:00 10.68025 91.2472
2021-10-19T20:00:00 9.990245 91.38266
2021-10-19T21:00:00 9.190246 92.20292
2021-10-19T22:00:00 9.080245 86.78462
2021-10-19T23:00:00 8.550245 87.57208
2021-10-20T00:00:00 8.360246 88.1001
2021-10-20T01:00:00 8.040245 90.48177
2021-10-20T02:00:00 7.960245 90.85183
2021-10-20T03:00:00 7.490245 92.53204
2021-10-20T04:00:00 7.570245 92.28133
2021-10-20T05:00:00 7.520245 92.79101
2021-10-20T06:00:00 7.750245 91.3401
2021-10-20T07:00:00 9.650246 86.48841
2021-10-20T08:00:00 12.60025 78.81808
2021-10-20T09:00:00 15.84025 68.9929
2021-10-20T10:00:00 18.82025 60.44089
2021-10-20T11:00:00 20.32025 57.73929
2021-10-20T12:00:00 20.60025 57.2748
2021-10-20T13:00:00 20.31025 55.62561
2021-10-20T14:00:00 20.17025 56.97768
2021-10-20T15:00:00 20.22025 57.44674
2021-10-20T16:00:00 19.95025 60.79007
2021-10-20T17:00:00 19.28025 62.63529
2021-10-20T18:00:00 18.89025 63.00423
2021-10-20T19:00:00 19.03025 61.1391
2021-10-20T20:00:00 19.25025 60.022
2021-10-20T21:00:00 18.99025 61.49688
2021-10-20T22:00:00 19.02025 61.87304
2021-10-20T23:00:00 18.77025 64.03062
2021-10-21T00:00:00 17.92025 70.94129
2021-10-21T01:00:00 17.95025 76.75647
2021-10-21T02:00:00 17.36025 82.63948
2021-10-21T03:00:00 17.00025 79.31651
2021-10-21T04:00:00 15.63025 71.25775
2021-10-21T05:00:00 14.41025 64.25173
2021-10-21T06:00:00 13.79025 60.19873
2021-10-21T07:00:00 13.49025 58.43016
2021-10-21T08:00:00 13.57025 58.40989
2021-10-21T09:00:00 13.79025 57.77756
2021-10-21T10:00:00 13.90025 62.51893
2021-10-21T11:00:00 14.79025 59.61897
2021-10-21T12:00:00 15.41025 55.75561
2021-10-21T13:00:00 15.78025 52.55231
2021-10-21T14:00:00 16.07025 48.44545
2021-10-21T15:00:00 15.65025 47.38409
2021-10-21T16:00:00 14.97025 48.33648
2021-10-21T17:00:00 13.76025 52.32756
2021-10-21T18:00:00 13.08025 57.63386
2021-10-21T19:00:00 12.85025 61.36194
2021-10-21T20:00:00 12.68025 62.39933
2021-10-21T21:00:00 11.91025 68.49939
2021-10-21T22:00:00 12.16025 71.84724
2021-10-21T23:00:00 11.83025 78.05613
2021-10-22T00:00:00 11.44025 82.60027
2021-10-22T01:00:00 10.86025 86.73608
2021-10-22T02:00:00 10.06025 91.44994
2021-10-22T03:00:00 9.240245 92.39571
2021-10-22T04:00:00 8.580245 92.03423
2021-10-22T05:00:00 7.800245 92.23359
2021-10-22T06:00:00 7.370246 92.39547
2021-10-22T07:00:00 7.060246 90.7788
2021-10-22T08:00:00 7.770245 85.50066
2021-10-22T09:00:00 8.780245 78.10027
2021-10-22T10:00:00 9.580245 74.92136
2021-10-22T11:00:00 10.46025 66.0157
2021-10-22T12:00:00 11.34025 57.50343
2021-10-22T13:00:00 11.88025 53.68907
2021-10-22T14:00:00 11.95025 52.75777
2021-10-22T15:00:00 11.75025 52.4759
2021-10-22T16:00:00 9.950245 61.77374
2021-10-22T17:00:00 7.370246 70.52315
2021-10-22T18:00:00 6.330246 76.31084
2021-10-22T19:00:00 5.660245 77.57194
2021-10-22T20:00:00 4.980245 79.54874
2021-10-22T21:00:00 4.480246 82.98333
2021-10-22T22:00:00 4.860245 83.09635
2021-10-22T23:00:00 4.550245 83.83278
2021-10-23T00:00:00 4.160245 84.44651
2021-10-23T01:00:00 4.000246 84.73032
2021-10-23T02:00:00 3.320245 88.14006
2021-10-23T03:00:00 2.890245 90.28661
2021-10-23T04:00:00 2.720245 91.32076
2021-10-23T05:00:00 2.020246 94.90351
2021-10-23T06:00:00 2.200245 94.70866
2021-10-23T07:00:00 3.220245 94.15985
2021-10-23T08:00:00 5.630245 88.00691
2021-10-23T09:00:00 8.340245 76.07546
2021-10-23T10:00:00 10.58025 66.50948
2021-10-23T11:00:00 12.01025 60.3857
2021-10-23T12:00:00 13.01025 55.70305
2021-10-23T13:00:00 13.91025 50.65909
2021-10-23T14:00:00 14.02025 50.65421
2021-10-23T15:00:00 13.63025 53.26004
2021-10-23T16:00:00 11.11025 65.65536
2021-10-23T17:00:00 8.100245 75.65762
2021-10-23T18:00:00 6.540245 81.86495
2021-10-23T19:00:00 5.500245 85.04356
2021-10-23T20:00:00 4.630245 86.46797
2021-10-23T21:00:00 4.150245 87.34708
2021-10-23T22:00:00 3.530245 88.54433
2021-10-23T23:00:00 2.600246 91.70736
2021-10-24T00:00:00 2.780245 91.92088
2021-10-24T01:00:00 2.430245 92.22549
2021-10-24T02:00:00 1.660245 93.71847
2021-10-24T03:00:00 1.540245 93.37006
2021-10-24T04:00:00 0.620245 94.19633
2021-10-24T05:00:00 0.410245 93.7685
2021-10-24T06:00:00 0.300245 93.34825
2021-10-24T07:00:00 1.460245 91.54515
2021-10-24T08:00:00 4.060246 87.46252
2021-10-24T09:00:00 6.500245 81.74311
2021-10-24T10:00:00 8.780245 76.63616
2021-10-24T11:00:00 11.05025 67.50743
2021-10-24T12:00:00 12.72025 63.06438
2021-10-24T13:00:00 14.33025 56.99821
2021-10-24T14:00:00 15.16025 55.1134
2021-10-24T15:00:00 14.92025 60.10487
2021-10-24T16:00:00 12.01025 71.17694
2021-10-24T17:00:00 7.690245 86.15056
2021-10-24T18:00:00 6.420245 91.23595
2021-10-24T19:00:00 4.960245 95.33661
2021-10-24T20:00:00 4.400245 95.98536
2021-10-24T21:00:00 4.090245 95.22388
2021-10-24T22:00:00 3.950245 91.68541
2021-10-24T23:00:00 4.040246 91.43108
2021-10-25T00:00:00 3.950245 90.38332
2021-10-25T01:00:00 3.880245 90.76612
2021-10-25T02:00:00 4.020246 90.64858
2021-10-25T03:00:00 3.860245 92.13812
2021-10-25T04:00:00 3.530245 94.1119
2021-10-25T05:00:00 3.160245 95.99461
2021-10-25T06:00:00 3.100246 96.33578
2021-10-25T07:00:00 4.010245 92.67721
2021-10-25T08:00:00 6.440245 88.71233
2021-10-25T09:00:00 9.000245 81.24773
2021-10-25T10:00:00 11.59025 78.178
2021-10-25T11:00:00 13.83025 69.85136
2021-10-25T12:00:00 15.66025 62.89211
2021-10-25T13:00:00 16.58025 59.97959
2021-10-25T14:00:00 17.05025 59.56755
2021-10-25T15:00:00 16.92025 58.2949
2021-10-25T16:00:00 15.26025 67.99503
2021-10-25T17:00:00 11.59025 81.44759
2021-10-25T18:00:00 10.07025 87.42639
2021-10-25T19:00:00 8.280246 93.35366
2021-10-25T20:00:00 7.850246 94.2335
2021-10-25T21:00:00 7.710245 93.77119
2021-10-25T22:00:00 8.270246 92.77635
2021-10-25T23:00:00 8.470245 93.49363
2021-10-26T00:00:00 8.790245 94.21986
2021-10-26T01:00:00 9.080245 94.23537
2021-10-26T02:00:00 9.650246 94.26539
2021-10-26T03:00:00 9.910245 94.40688
2021-10-26T04:00:00 9.720245 95.29879
2021-10-26T05:00:00 9.420245 96.39299
2021-10-26T06:00:00 9.250245 97.04446
2021-10-26T07:00:00 9.290245 96.65078
2021-10-26T08:00:00 10.49025 93.2945
2021-10-26T09:00:00 11.73025 88.36276
2021-10-26T10:00:00 13.11025 82.92868
2021-10-26T11:00:00 14.15025 78.10584
2021-10-26T12:00:00 14.68025 75.61458
2021-10-26T13:00:00 15.25025 71.71262
2021-10-26T14:00:00 15.57025 69.17005
2021-10-26T15:00:00 15.28025 69.76646
2021-10-26T16:00:00 13.42025 80.82517
2021-10-26T17:00:00 10.90025 92.00586
2021-10-26T18:00:00 9.870245 92.56323
2021-10-26T19:00:00 9.360246 92.65647
2021-10-26T20:00:00 8.110246 94.50758
2021-10-26T21:00:00 6.520245 96.01336
2021-10-26T22:00:00 6.650245 94.69225
2021-10-26T23:00:00 5.920245 95.25118
2021-10-27T00:00:00 5.260245 97.72583
2021-10-27T01:00:00 5.250245 97.86273
2021-10-27T02:00:00 4.920245 98.12824
2021-10-27T03:00:00 4.770245 98.88648
2021-10-27T04:00:00 4.670245 98.81456
2021-10-27T05:00:00 4.730245 98.74647
2021-10-27T06:00:00 4.960245 98.33655
2021-10-27T07:00:00 5.330246 98.89918
2021-10-27T08:00:00 6.470245 97.01838
2021-10-27T09:00:00 7.740245 94.1624
2021-10-27T10:00:00 9.660245 88.59078
2021-10-27T11:00:00 11.06025 83.74138
2021-10-27T12:00:00 12.30025 78.07797
2021-10-27T13:00:00 13.38025 73.27144
2021-10-27T14:00:00 14.29025 69.0003
2021-10-27T15:00:00 14.40025 67.99781
2021-10-27T16:00:00 14.14025 67.57261
2021-10-27T17:00:00 12.41025 75.73705
2021-10-27T18:00:00 10.06025 83.61506
2021-10-27T19:00:00 6.780245 90.75573
2021-10-27T20:00:00 6.390245 90.59615
2021-10-27T21:00:00 5.960245 90.36855
2021-10-27T22:00:00 5.940245 89.03915
2021-10-27T23:00:00 5.870246 89.85265
2021-10-28T00:00:00 5.340245 92.05464
2021-10-28T01:00:00 5.150245 94.07785
2021-10-28T02:00:00 4.820245 94.85922
2021-10-28T03:00:00 4.630245 96.13184
2021-10-28T04:00:00 4.760245 95.93429
2021-10-28T05:00:00 4.590245 96.47031
2021-10-28T06:00:00 4.230246 96.31822
2021-10-28T07:00:00 4.550245 95.24811
2021-10-28T08:00:00 6.540245 92.40152
2021-10-28T09:00:00 8.320246 87.42705
2021-10-28T10:00:00 9.540245 85.35332
2021-10-28T11:00:00 11.48025 80.32849
2021-10-28T12:00:00 13.02025 74.97076
2021-10-28T13:00:00 14.22025 71.12742
2021-10-28T14:00:00 15.05025 67.53754
2021-10-28T15:00:00 14.87025 73.24917
2021-10-28T16:00:00 14.22025 67.31358
2021-10-28T17:00:00 10.07025 82.81512
2021-10-28T18:00:00 8.260245 88.15122
2021-10-28T19:00:00 7.110245 91.41773
2021-10-28T20:00:00 6.240245 92.44491
2021-10-28T21:00:00 5.570245 92.13682
2021-10-28T22:00:00 4.640245 93.58147
2021-10-28T23:00:00 4.560246 93.77556
2021-10-29T00:00:00 4.380245 94.36509
2021-10-29T01:00:00 4.510245 93.90552
2021-10-29T02:00:00 4.220245 95.5693
2021-10-29T03:00:00 4.010245 96.71954
2021-10-29T04:00:00 3.970245 96.23823
2021-10-29T05:00:00 3.710246 97.12064
2021-10-29T06:00:00 3.730246 96.77665
2021-10-29T07:00:00 4.080246 95.9022
2021-10-29T08:00:00 5.380245 91.9927
2021-10-29T09:00:00 7.190245 87.12464
2021-10-29T10:00:00 9.750245 82.88678
2021-10-29T11:00:00 11.42025 78.84995
2021-10-29T12:00:00 12.84025 75.14339
2021-10-29T13:00:00 13.92025 72.04052
2021-10-29T14:00:00 14.66025 69.35836
2021-10-29T15:00:00 14.47025 67.22989
2021-10-29T16:00:00 13.09025 74.98313
2021-10-29T17:00:00 9.140245 87.99506
2021-10-29T18:00:00 8.210245 90.68363
2021-10-29T19:00:00 7.060246 93.60243
2021-10-29T20:00:00 6.200245 94.93302
2021-10-29T21:00:00 5.700245 95.44064
2021-10-29T22:00:00 5.330246 94.82016
2021-10-29T23:00:00 5.130245 94.47562
2021-10-30T00:00:00 5.370246 93.10189
2021-10-30T01:00:00 5.720245 92.47273
2021-10-30T02:00:00 5.760245 92.60577
2021-10-30T03:00:00 5.290245 93.09649
2021-10-30T04:00:00 4.890245 94.99712
2021-10-30T05:00:00 5.140245 94.54285
2021-10-30T06:00:00 5.340245 94.28825
2021-10-30T07:00:00 6.000245 92.55766
2021-10-30T08:00:00 6.710245 89.73936
2021-10-30T09:00:00 7.230245 89.91129
2021-10-30T10:00:00 7.560246 93.43847
2021-10-30T11:00:00 8.200246 90.99663
2021-10-30T12:00:00 8.880245 90.17774
2021-10-30T13:00:00 9.240245 91.26468
2021-10-30T14:00:00 9.970245 88.07639
2021-10-30T15:00:00 10.49025 87.23071
2021-10-30T16:00:00 10.27025 90.96954
2021-10-30T17:00:00 10.06025 93.33257
2021-10-30T18:00:00 10.30025 91.65371
2021-10-30T19:00:00 9.760245 94.07917
2021-10-30T20:00:00 10.38025 91.72155
2021-10-30T21:00:00 10.26025 93.34424
2021-10-30T22:00:00 11.25025 92.27733
2021-10-30T23:00:00 11.39025 93.34615
2021-10-31T00:00:00 11.44025 94.48231
2021-10-31T01:00:00 11.63025 94.87128
2021-10-31T02:00:00 11.57025 95.25004
2021-10-31T03:00:00 11.42025 95.88316
2021-10-31T04:00:00 11.14025 96.71138
2021-10-31T05:00:00 10.40025 98.46068
2021-10-31T06:00:00 10.06025 97.72664
2021-10-31T07:00:00 10.39025 96.03799
2021-10-31T08:00:00 11.34025 92.78072
2021-10-31T09:00:00 12.68025 89.63931
2021-10-31T10:00:00 14.53025 84.77685
2021-10-31T11:00:00 16.20025 74.82102
2021-10-31T12:00:00 17.36025 67.52676
2021-10-31T13:00:00 18.05025 64.55351
2021-10-31T14:00:00 18.15025 65.52743
2021-10-31T15:00:00 17.37025 67.52885
2021-10-31T16:00:00 15.61025 77.76163
2021-10-31T17:00:00 13.37025 88.04159
2021-10-31T18:00:00 12.52025 92.17362
2021-10-31T19:00:00 12.07025 94.32332
2021-10-31T20:00:00 11.78025 95.3224
2021-10-31T21:00:00 11.68025 94.36747
2021-10-31T22:00:00 11.43025 94.73534
2021-10-31T23:00:00 11.52025 95.88688
2021-11-01T00:00:00 11.91025 95.32771
2021-11-01T01:00:00 12.80025 90.85193
2021-11-01T02:00:00 12.47025 92.72472
2021-11-01T03:00:00 12.83025 91.15694
2021-11-01T04:00:00 11.78025 88.66541
2021-11-01T05:00:00 10.97025 85.98441
2021-11-01T06:00:00 10.23025 87.86141
2021-11-01T07:00:00 9.710245 89.08185
2021-11-01T08:00:00 9.660245 89.75019
2021-11-01T09:00:00 10.13025 88.39306
2021-11-01T10:00:00 11.09025 85.24092
2021-11-01T11:00:00 11.94025 82.21861
2021-11-01T12:00:00 12.36025 79.91264
2021-11-01T13:00:00 13.07025 75.03058
2021-11-01T14:00:00 13.23025 73.34338
2021-11-01T15:00:00 12.76025 75.23177
2021-11-01T16:00:00 11.93025 80.39422
2021-11-01T17:00:00 10.67025 85.8927
2021-11-01T18:00:00 9.660245 89.81158
2021-11-01T19:00:00 8.140245 92.9599
2021-11-01T20:00:00 7.720245 92.93275
2021-11-01T21:00:00 7.470245 92.01856
2021-11-01T22:00:00 7.990245 90.72853
2021-11-01T23:00:00 7.780245 91.08956
2021-11-02T00:00:00 7.590245 91.45459
2021-11-02T01:00:00 7.570245 91.0098
2021-11-02T02:00:00 7.160245 91.61272
2021-11-02T03:00:00 6.100246 94.3981
2021-11-02T04:00:00 5.980245 95.32083
2021-11-02T05:00:00 6.450245 95.14475
2021-11-02T06:00:00 7.440245 92.46446
2021-11-02T07:00:00 7.960245 91.41942
2021-11-02T08:00:00 8.440246 90.32755
2021-11-02T09:00:00 9.000245 89.63161
2021-11-02T10:00:00 9.980246 83.71993
2021-11-02T11:00:00 10.93025 80.85502
2021-11-02T12:00:00 10.52025 79.63629
2021-11-02T13:00:00 10.45025 77.99406
2021-11-02T14:00:00 10.89025 73.91992
2021-11-02T15:00:00 10.89025 72.19634
2021-11-02T16:00:00 9.460245 78.97747
2021-11-02T17:00:00 9.050245 80.13186
2021-11-02T18:00:00 6.260245 92.51111
2021-11-02T19:00:00 5.400245 95.42587
2021-11-02T20:00:00 4.470245 97.56234
2021-11-02T21:00:00 4.830246 97.43717
2021-11-02T22:00:00 5.630245 92.85763
2021-11-02T23:00:00 5.860245 92.93868
2021-11-03T00:00:00 6.230245 92.83355
2021-11-03T01:00:00 6.060246 95.59168
2021-11-03T02:00:00 6.280245 94.8047
2021-11-03T03:00:00 6.480245 93.95941
2021-11-03T04:00:00 6.230245 95.39973
2021-11-03T05:00:00 6.170245 94.93144
2021-11-03T06:00:00 6.220245 95.13316
2021-11-03T07:00:00 6.470245 94.55064
2021-11-03T08:00:00 6.800245 94.37145
2021-11-03T09:00:00 7.520245 92.85533
2021-11-03T10:00:00 8.330246 88.83212
2021-11-03T11:00:00 8.530246 90.08617
2021-11-03T12:00:00 8.510245 91.08367
2021-11-03T13:00:00 9.000245 88.71138
2021-11-03T14:00:00 9.180245 88.1202
2021-11-03T15:00:00 9.120245 86.84877
2021-11-03T16:00:00 8.570246 88.54829
2021-11-03T17:00:00 8.020246 89.98026
2021-11-03T18:00:00 8.040245 88.98969
2021-11-03T19:00:00 8.010245 88.31014
2021-11-03T20:00:00 7.660245 89.20182
2021-11-03T21:00:00 7.310246 90.4208
2021-11-03T22:00:00 7.060246 89.39536
2021-11-03T23:00:00 6.920245 86.42544
2021-11-04T00:00:00 6.570245 85.59783
2021-11-04T01:00:00 6.450245 84.86129
2021-11-04T02:00:00 6.420245 84.85754
2021-11-04T03:00:00 6.550245 83.56474
2021-11-04T04:00:00 6.660245 83.40242
2021-11-04T05:00:00 6.580246 84.10199
2021-11-04T06:00:00 6.590245 85.17873
2021-11-04T07:00:00 6.530245 86.01653
2021-11-04T08:00:00 6.580246 87.54948
2021-11-04T09:00:00 6.920245 87.58543
2021-11-04T10:00:00 7.180245 82.42069
2021-11-04T11:00:00 7.970245 78.6276
2021-11-04T12:00:00 8.130245 77.33608
2021-11-04T13:00:00 7.850246 78.27618
2021-11-04T14:00:00 7.850246 73.75883
2021-11-04T15:00:00 7.670245 78.57854
2021-11-04T16:00:00 7.130245 82.64636
2021-11-04T17:00:00 6.500245 85.40846
2021-11-04T18:00:00 6.320245 87.39854
2021-11-04T19:00:00 6.330246 87.27651
2021-11-04T20:00:00 6.360245 87.83484
2021-11-04T21:00:00 6.450245 87.16665
2021-11-04T22:00:00 6.040245 89.61527
2021-11-04T23:00:00 6.390245 88.14762
2021-11-05T00:00:00 6.010245 89.73884
2021-11-05T01:00:00 6.140245 89.24675
2021-11-05T02:00:00 6.890245 87.82829
2021-11-05T03:00:00 7.180245 87.06259
2021-11-05T04:00:00 7.430245 88.49923
2021-11-05T05:00:00 7.350246 88.67682
2021-11-05T06:00:00 7.160245 89.71711
2021-11-05T07:00:00 7.200245 90.98019
2021-11-05T08:00:00 7.620246 88.08728
2021-11-05T09:00:00 8.030246 85.17444
2021-11-05T10:00:00 8.670245 83.20364
2021-11-05T11:00:00 9.170245 81.04676
2021-11-05T12:00:00 9.630245 77.75137
2021-11-05T13:00:00 9.760245 76.96581
2021-11-05T14:00:00 9.550245 79.98521
2021-11-05T15:00:00 9.280245 82.13831
2021-11-05T16:00:00 7.550245 91.76937
2021-11-05T17:00:00 6.210245 96.80651
2021-11-05T18:00:00 6.110245 96.93788
2021-11-05T19:00:00 5.250245 97.7255
2021-11-05T20:00:00 5.040245 97.30745
2021-11-05T21:00:00 4.760245 97.29748
2021-11-05T22:00:00 3.800245 98.72312
2021-11-05T23:00:00 3.120246 97.72374
2021-11-06T00:00:00 2.940246 97.71742
2021-11-06T01:00:00 3.370246 96.55466
2021-11-06T02:00:00 2.990245 97.02274
2021-11-06T03:00:00 2.870246 96.87895
2021-11-06T04:00:00 2.720245 97.29033
2021-11-06T05:00:00 2.850246 96.80873
2021-11-06T06:00:00 2.990245 97.09219
2021-11-06T07:00:00 3.060246 96.33394
2021-11-06T08:00:00 3.670245 96.29308
2021-11-06T09:00:00 4.730245 91.74741
2021-11-06T10:00:00 5.900245 87.9107
2021-11-06T11:00:00 6.910245 84.97833
2021-11-06T12:00:00 7.790245 80.95675
2021-11-06T13:00:00 8.520246 78.33153
2021-11-06T14:00:00 8.980246 74.54884
2021-11-06T15:00:00 8.900246 73.64749
2021-11-06T16:00:00 7.310246 82.55502
2021-11-06T17:00:00 5.510245 89.88338
2021-11-06T18:00:00 3.840245 95.41413
2021-11-06T19:00:00 4.050245 93.60944
2021-11-06T20:00:00 3.730246 93.99011
2021-11-06T21:00:00 2.260245 97.2022
2021-11-06T22:00:00 2.500246 94.93156
2021-11-06T23:00:00 2.580246 95.2784
2021-11-07T00:00:00 0.950245 99.7223
2021-11-07T01:00:00 0.990245 97.57417
2021-11-07T02:00:00 0.940245 98.14146
2021-11-07T03:00:00 0.850245 97.07256
2021-11-07T04:00:00 0.660245 97.06422
2021-11-07T05:00:00 0.490245 96.49089
2021-11-07T06:00:00 0.330245 95.63873
2021-11-07T07:00:00 0.860245 94.55709
2021-11-07T08:00:00 2.060246 92.53111
2021-11-07T09:00:00 3.670245 90.16373
2021-11-07T10:00:00 5.720245 85.7991
2021-11-07T11:00:00 7.370246 79.87297
2021-11-07T12:00:00 8.820246 74.15274
2021-11-07T13:00:00 9.790245 70.67734
2021-11-07T14:00:00 10.16025 69.37741
2021-11-07T15:00:00 10.16025 71.6506
2021-11-07T16:00:00 9.350245 78.74046
2021-11-07T17:00:00 8.670245 84.30959
2021-11-07T18:00:00 8.470245 86.95937
2021-11-07T19:00:00 8.170245 89.93095
2021-11-07T20:00:00 7.990245 90.98006
2021-11-07T21:00:00 7.860245 92.94183
2021-11-07T22:00:00 7.730245 92.86913
2021-11-07T23:00:00 7.840245 92.23638
2021-11-08T00:00:00 7.970245 91.99085
2021-11-08T01:00:00 7.640245 92.73473
2021-11-08T02:00:00 7.490245 93.69333
2021-11-08T03:00:00 7.170245 93.93457
2021-11-08T04:00:00 6.740245 94.3681
2021-11-08T05:00:00 5.360245 95.15588
2021-11-08T06:00:00 4.450245 96.12367
2021-11-08T07:00:00 4.580246 98.46481
2021-11-08T08:00:00 6.210245 96.13388
2021-11-08T09:00:00 7.560246 92.21668
2021-11-08T10:00:00 8.430245 84.98577
2021-11-08T11:00:00 9.630245 74.87814
2021-11-08T12:00:00 10.20025 68.61043
2021-11-08T13:00:00 10.50025 64.73385
2021-11-08T14:00:00 10.78025 61.41116
2021-11-08T15:00:00 10.38025 63.12241
2021-11-08T16:00:00 8.250245 73.47056
2021-11-08T17:00:00 6.180245 82.33765
2021-11-08T18:00:00 4.950245 86.44357
2021-11-08T19:00:00 4.250246 89.63853
2021-11-08T20:00:00 3.510245 91.64986
2021-11-08T21:00:00 3.070245 92.47475
2021-11-08T22:00:00 2.540246 91.96794
2021-11-08T23:00:00 1.840245 94.00308
2021-11-09T00:00:00 1.000245 95.18879
2021-11-09T01:00:00 0.670245 94.89144
2021-11-09T02:00:00 0.370245 95.22139
2021-11-09T03:00:00 0.230245 94.72512
2021-11-09T04:00:00 0.170245 93.75156
2021-11-09T05:00:00 0.120245 93.12898
2021-11-09T06:00:00 0.510245 91.3956
2021-11-09T07:00:00 0.780245 91.21827
2021-11-09T08:00:00 2.990245 86.46062
2021-11-09T09:00:00 4.530245 81.5682
2021-11-09T10:00:00 5.520245 79.2941
2021-11-09T11:00:00 6.790245 73.60595
2021-11-09T12:00:00 8.130245 68.01059
2021-11-09T13:00:00 9.080245 64.12214
2021-11-09T14:00:00 9.520246 61.93166
2021-11-09T15:00:00 8.880245 69.3489
2021-11-09T16:00:00 8.100245 67.08498
2021-11-09T17:00:00 6.590245 73.67251
2021-11-09T18:00:00 5.370246 78.81515
2021-11-09T19:00:00 2.660245 87.87714
2021-11-09T20:00:00 1.920245 90.39301
2021-11-09T21:00:00 1.840245 90.45139
2021-11-09T22:00:00 1.770245 91.10613
2021-11-09T23:00:00 2.320245 89.38587
2021-11-10T00:00:00 0.620245 92.07921
2021-11-10T01:00:00 0.610245 93.02928
2021-11-10T02:00:00 0.280245 94.03527
2021-11-10T03:00:00 -0.16975 95.18916
2021-11-10T04:00:00 0.030245 95.4113
2021-11-10T05:00:00 0.440245 94.73834
2021-11-10T06:00:00 0.520245 93.22752
2021-11-10T07:00:00 0.840245 93.04664
2021-11-10T08:00:00 1.890245 90.39021
2021-11-10T09:00:00 3.720245 87.36174
2021-11-10T10:00:00 5.700245 82.32768
2021-11-10T11:00:00 6.860245 79.22872
2021-11-10T12:00:00 7.530245 77.83675
2021-11-10T13:00:00 8.220245 75.25302
2021-11-10T14:00:00 8.800245 73.11097
2021-11-10T15:00:00 8.920245 75.69871
2021-11-10T16:00:00 8.280246 79.17675
2021-11-10T17:00:00 7.450245 82.69065
2021-11-10T18:00:00 6.730245 85.0759
2021-11-10T19:00:00 4.480246 90.23756
2021-11-10T20:00:00 3.830246 90.43728
2021-11-10T21:00:00 3.390245 90.85358
2021-11-10T22:00:00 1.760245 95.64728
2021-11-10T23:00:00 1.320245 96.11112
2021-11-11T00:00:00 0.870245 95.73843
2021-11-11T01:00:00 0.890245 94.90487
2021-11-11T02:00:00 1.270245 93.21462
2021-11-11T03:00:00 1.790245 91.57324
2021-11-11T04:00:00 1.740246 90.3103
2021-11-11T05:00:00 1.470245 90.21883
2021-11-11T06:00:00 0.740245 91.75194
2021-11-11T07:00:00 1.600245 90.09956
2021-11-11T08:00:00 2.890245 88.60538
2021-11-11T09:00:00 3.890245 88.90008
2021-11-11T10:00:00 5.330246 85.32568
2021-11-11T11:00:00 6.440245 79.55631
2021-11-11T12:00:00 7.680245 76.71423
2021-11-11T13:00:00 8.760245 72.84564
2021-11-11T14:00:00 9.440246 69.96075
2021-11-11T15:00:00 8.630245 82.0477
2021-11-11T16:00:00 8.150246 79.65795
2021-11-11T17:00:00 7.790245 80.10734
2021-11-11T18:00:00 6.450245 83.90682
2021-11-11T19:00:00 4.730245 87.5988
2021-11-11T20:00:00 3.400245 91.18141
2021-11-11T21:00:00 2.600246 92.50562
2021-11-11T22:00:00 1.720245 94.54231
2021-11-11T23:00:00 1.710245 93.58589
2021-11-12T00:00:00 1.760245 92.30635
2021-11-12T01:00:00 1.800245 91.2415
2021-11-12T02:00:00 1.770245 91.43835
2021-11-12T03:00:00 1.910245 89.80158
2021-11-12T04:00:00 1.930245 89.21654
2021-11-12T05:00:00 2.200245 87.31548
2021-11-12T06:00:00 2.290246 85.93602
2021-11-12T07:00:00 2.630245 84.73473
2021-11-12T08:00:00 3.300245 88.20156
2021-11-12T09:00:00 4.190246 86.66479
2021-11-12T10:00:00 4.960245 85.4017
2021-11-12T11:00:00 5.910245 81.83141
2021-11-12T12:00:00 7.270245 78.51272
2021-11-12T13:00:00 8.440246 73.24778
2021-11-12T14:00:00 8.790245 74.77615
2021-11-12T15:00:00 7.530245 78.83356
2021-11-12T16:00:00 6.770245 82.18842
2021-11-12T17:00:00 6.980245 82.39259
2021-11-12T18:00:00 5.390245 87.85699
2021-11-12T19:00:00 3.380245 93.83341
2021-11-12T20:00:00 3.710246 92.78787
2021-11-12T21:00:00 3.490245 93.77344
2021-11-12T22:00:00 3.510245 94.65033
2021-11-12T23:00:00 3.620246 94.92738
2021-11-13T00:00:00 3.760245 93.99202
2021-11-13T01:00:00 3.750246 92.8571
2021-11-13T02:00:00 3.510245 92.17705
2021-11-13T03:00:00 2.900245 93.66718
2021-11-13T04:00:00 2.850246 93.3275
2021-11-13T05:00:00 3.710246 91.73174
2021-11-13T06:00:00 4.140245 91.50456
2021-11-13T07:00:00 4.710245 90.19405
2021-11-13T08:00:00 5.300245 90.63092
2021-11-13T09:00:00 6.620246 87.73853
2021-11-13T10:00:00 7.730245 86.57694
2021-11-13T11:00:00 8.550245 86.66724
2021-11-13T12:00:00 9.330245 85.97836
2021-11-13T13:00:00 9.580245 85.71117
2021-11-13T14:00:00 9.660245 86.19293
2021-11-13T15:00:00 9.640245 87.80312
2021-11-13T16:00:00 8.870245 92.18098
2021-11-13T17:00:00 9.070246 92.25786
2021-11-13T18:00:00 8.840245 93.77211
2021-11-13T19:00:00 8.890245 94.548
2021-11-13T20:00:00 8.600245 96.75889
2021-11-13T21:00:00 8.250245 97.74603
2021-11-13T22:00:00 8.040245 96.20921
2021-11-13T23:00:00 7.940245 97.20214
2021-11-14T00:00:00 7.850246 97.86937
2021-11-14T01:00:00 7.810246 98.54269
2021-11-14T02:00:00 7.490245 99.48919
2021-11-14T03:00:00 7.450245 100.0373
2021-11-14T04:00:00 7.820245 99.08531
2021-11-14T05:00:00 7.970245 98.74896
2021-11-14T06:00:00 8.030246 98.95327
2021-11-14T07:00:00 8.210245 97.4775
2021-11-14T08:00:00 8.180245 98.21382
2021-11-14T09:00:00 8.600245 98.15659
2021-11-14T10:00:00 9.540245 94.45224
2021-11-14T11:00:00 10.08025 92.26294
2021-11-14T12:00:00 10.60025 90.0127
2021-11-14T13:00:00 10.92025 87.33373
2021-11-14T14:00:00 10.80025 87.49986
2021-11-14T15:00:00 10.42025 89.02421
2021-11-14T16:00:00 10.11025 89.48306
2021-11-14T17:00:00 10.04025 89.05074
2021-11-14T18:00:00 9.870245 89.03541
2021-11-14T19:00:00 9.650246 88.58983
2021-11-14T20:00:00 9.320246 88.61956
2021-11-14T21:00:00 9.050245 88.77714
2021-11-14T22:00:00 9.400246 88.74882
2021-11-14T23:00:00 9.250245 88.30899
2021-11-15T00:00:00 9.060246 88.59499
2021-11-15T01:00:00 8.980246 89.07663
2021-11-15T02:00:00 8.910245 89.2544
2021-11-15T03:00:00 8.830245 89.12428
2021-11-15T04:00:00 8.690246 88.2546
2021-11-15T05:00:00 8.420245 87.74081
2021-11-15T06:00:00 8.260245 87.05756
2021-11-15T07:00:00 7.840245 87.62035
2021-11-15T08:00:00 7.970245 86.0025
2021-11-15T09:00:00 7.920245 84.62782
2021-11-15T10:00:00 8.140245 82.43872
2021-11-15T11:00:00 8.160246 81.29581
2021-11-15T12:00:00 8.180245 80.56168
2021-11-15T13:00:00 8.270246 80.12485
2021-11-15T14:00:00 8.190246 80.11258
2021-11-15T15:00:00 8.030246 80.93558
2021-11-15T16:00:00 7.430245 84.62598
2021-11-15T17:00:00 6.640245 88.42107
2021-11-15T18:00:00 7.070245 85.77776
2021-11-15T19:00:00 7.270245 85.80126
2021-11-15T20:00:00 6.920245 86.91219
2021-11-15T21:00:00 6.810246 88.00498
2021-11-15T22:00:00 6.830246 87.88368
2021-11-15T23:00:00 6.620246 89.60553
2021-11-16T00:00:00 6.790245 89.49564
2021-11-16T01:00:00 6.940245 89.44682
2021-11-16T02:00:00 6.740245 89.61648
2021-11-16T03:00:00 6.510245 91.62711
2021-11-16T04:00:00 6.180245 93.41708
2021-11-16T05:00:00 6.340245 93.9511
2021-11-16T06:00:00 6.520245 93.37344
2021-11-16T07:00:00 6.710245 93.19038
2021-11-16T08:00:00 6.330246 92.7105
2021-11-16T09:00:00 6.250245 91.73566
2021-11-16T10:00:00 6.070245 92.04444
2021-11-16T11:00:00 6.070245 91.65752
2021-11-16T12:00:00 6.260245 90.77614
2021-11-16T13:00:00 6.280245 90.20599
2021-11-16T14:00:00 6.300245 90.58853
2021-11-16T15:00:00 6.430245 89.14879
2021-11-16T16:00:00 6.860245 89.37689
2021-11-16T17:00:00 6.820245 89.62376
2021-11-16T18:00:00 6.870246 89.81657
2021-11-16T19:00:00 6.710245 90.81343
2021-11-16T20:00:00 6.500245 91.81889
2021-11-16T21:00:00 6.580246 91.37646
2021-11-16T22:00:00 6.600246 90.80436
2021-11-16T23:00:00 6.460245 90.34833
2021-11-17T00:00:00 6.480245 90.85807
2021-11-17T01:00:00 6.440245 91.81438
2021-11-17T02:00:00 6.410245 91.36308
2021-11-17T03:00:00 6.230245 92.50899
2021-11-17T04:00:00 6.170245 93.22043
2021-11-17T05:00:00 6.150245 92.63313
2021-11-17T06:00:00 5.950245 92.55413
2021-11-17T07:00:00 5.890245 92.61493
2021-11-17T08:00:00 6.060246 91.14303
2021-11-17T09:00:00 6.160245 87.19647
2021-11-17T10:00:00 6.470245 84.92377
2021-11-17T11:00:00 6.690245 82.17702
2021-11-17T12:00:00 6.680245 81.82726
2021-11-17T13:00:00 6.730245 81.14195
2021-11-17T14:00:00 6.610245 80.55039
2021-11-17T15:00:00 6.530245 80.88203
2021-11-17T16:00:00 6.230245 82.69635
2021-11-17T17:00:00 5.620246 87.38453
2021-11-17T18:00:00 5.850246 86.85452
2021-11-17T19:00:00 6.070245 85.59819
2021-11-17T20:00:00 6.100246 84.45747
2021-11-17T21:00:00 6.120246 84.94014
2021-11-17T22:00:00 5.440245 90.00423
2021-11-17T23:00:00 5.630245 89.19814
2021-11-18T00:00:00 5.330246 90.50533
2021-11-18T01:00:00 5.320245 90.18475
2021-11-18T02:00:00 4.970245 92.15706
2021-11-18T03:00:00 4.630245 91.80473
2021-11-18T04:00:00 4.630245 91.86998
2021-11-18T05:00:00 4.580246 91.9314
2021-11-18T06:00:00 4.260245 93.49014
2021-11-18T07:00:00 4.480246 92.90899
2021-11-18T08:00:00 5.060246 91.31939
2021-11-18T09:00:00 6.280245 87.39423
2021-11-18T10:00:00 7.360245 82.44587
2021-11-18T11:00:00 8.390245 77.21735
2021-11-18T12:00:00 9.010245 75.44972
2021-11-18T13:00:00 9.270246 74.55034
2021-11-18T14:00:00 9.560246 73.92825
2021-11-18T15:00:00 8.830245 78.49199
2021-11-18T16:00:00 7.180245 83.00333
2021-11-18T17:00:00 6.610245 86.39015
2021-11-18T18:00:00 5.670245 89.45448
2021-11-18T19:00:00 4.530245 91.92752
2021-11-18T20:00:00 4.120246 91.82999
2021-11-18T21:00:00 3.810246 91.73975
2021-11-18T22:00:00 2.510245 94.59082
2021-11-18T23:00:00 1.460245 95.83962
2021-11-19T00:00:00 1.240245 95.48019
2021-11-19T01:00:00 0.630245 95.86537
2021-11-19T02:00:00 0.410245 96.13461
2021-11-19T03:00:00 0.350245 96.97949
2021-11-19T04:00:00 0.140245 97.11218
2021-11-19T05:00:00 0.050245 97.17939
2021-11-19T06:00:00 0.100245 96.89707
2021-11-19T07:00:00 0.410245 97.12414
2021-11-19T08:00:00 1.190245 94.99214
2021-11-19T09:00:00 2.570245 94.59444
2021-11-19T10:00:00 3.780245 90.88751
2021-11-19T11:00:00 4.900245 86.49946
2021-11-19T12:00:00 5.920245 85.03565
2021-11-19T13:00:00 6.490245 84.8663
2021-11-19T14:00:00 6.950245 84.86378
2021-11-19T15:00:00 6.090245 92.95424
2021-11-19T16:00:00 5.890245 89.22301
2021-11-19T17:00:00 5.510245 92.52285
2021-11-19T18:00:00 5.400245 92.12416
2021-11-19T19:00:00 5.350246 92.70739
2021-11-19T20:00:00 5.360245 93.42995
2021-11-19T21:00:00 4.650245 96.26866
2021-11-19T22:00:00 2.810246 94.88121
2021-11-19T23:00:00 2.520246 95.82517
2021-11-20T00:00:00 2.480245 96.09931
2021-11-20T01:00:00 2.500246 95.41127
2021-11-20T02:00:00 2.190245 95.67013
2021-11-20T03:00:00 2.020246 95.66113
2021-11-20T04:00:00 1.770245 95.92519
2021-11-20T05:00:00 1.760245 95.16356
2021-11-20T06:00:00 1.700245 95.09116
2021-11-20T07:00:00 2.150245 94.50055
2021-11-20T08:00:00 2.620246 93.37871
2021-11-20T09:00:00 3.610245 92.3169
2021-11-20T10:00:00 3.790246 93.52553
2021-11-20T11:00:00 4.340245 90.54735
2021-11-20T12:00:00 4.950245 88.12341
2021-11-20T13:00:00 5.690245 86.52919
2021-11-20T14:00:00 5.720245 86.16518
2021-11-20T15:00:00 5.180245 89.34476
2021-11-20T16:00:00 3.820245 92.99488
2021-11-20T17:00:00 3.610245 93.11311
2021-11-20T18:00:00 2.700245 95.35352
2021-11-20T19:00:00 2.840245 95.97897
2021-11-20T20:00:00 2.950245 95.5039
2021-11-20T21:00:00 3.190246 95.85883
2021-11-20T22:00:00 2.760245 93.32122
2021-11-20T23:00:00 2.680245 93.58495
2021-11-21T00:00:00 2.190245 94.7765
2021-11-21T01:00:00 1.900245 94.89642
2021-11-21T02:00:00 1.720245 94.74824
2021-11-21T03:00:00 1.630245 95.22514
2021-11-21T04:00:00 1.580245 95.56829
2021-11-21T05:00:00 1.930245 95.51811
2021-11-21T06:00:00 1.680245 95.99006
2021-11-21T07:00:00 1.420245 96.18595
2021-11-21T08:00:00 1.880245 94.21037
2021-11-21T09:00:00 2.970245 93.26877
2021-11-21T10:00:00 3.610245 91.78943
2021-11-21T11:00:00 4.110245 91.17604
2021-11-21T12:00:00 4.880245 91.36953
2021-11-21T13:00:00 5.340245 91.85982
2021-11-21T14:00:00 5.440245 91.09239
2021-11-21T15:00:00 5.590245 95.23454
2021-11-21T16:00:00 5.680245 91.75645
2021-11-21T17:00:00 5.860245 91.44803
2021-11-21T18:00:00 5.710245 92.27702
2021-11-21T19:00:00 5.240245 93.62005
2021-11-21T20:00:00 5.280245 92.96454
2021-11-21T21:00:00 5.160245 93.2851
2021-11-21T22:00:00 4.720245 91.6815
2021-11-21T23:00:00 4.560246 92.58531
2021-11-22T00:00:00 4.420245 93.89988
2021-11-22T01:00:00 4.450245 94.57023
2021-11-22T02:00:00 4.420245 95.10642
2021-11-22T03:00:00 4.520246 94.84267
2021-11-22T04:00:00 4.470245 95.31142
2021-11-22T05:00:00 4.520246 94.90987
2021-11-22T06:00:00 4.570245 93.97587
2021-11-22T07:00:00 4.660245 93.4502
2021-11-22T08:00:00 4.990245 91.3137
2021-11-22T09:00:00 5.290245 88.91281
2021-11-22T10:00:00 5.720245 87.70537
2021-11-22T11:00:00 6.180245 86.70754
2021-11-22T12:00:00 6.780245 85.02214
2021-11-22T13:00:00 6.930245 86.1236
2021-11-22T14:00:00 6.910245 86.85012
2021-11-22T15:00:00 6.980245 86.61443
2021-11-22T16:00:00 6.980245 84.92722
2021-11-22T17:00:00 6.930245 83.37985
2021-11-22T18:00:00 6.880245 82.49498
2021-11-22T19:00:00 6.840245 81.33088
2021-11-22T20:00:00 6.750245 79.15469
2021-11-22T21:00:00 6.550245 77.67
2021-11-22T22:00:00 6.280245 76.13802
2021-11-22T23:00:00 6.180245 75.08897
2021-11-23T00:00:00 5.870246 74.4384
2021-11-23T01:00:00 5.520245 74.31728
2021-11-23T02:00:00 5.100246 74.39751
2021-11-23T03:00:00 4.670245 74.69348
2021-11-23T04:00:00 4.400245 74.69579
2021-11-23T05:00:00 4.050245 75.45056
2021-11-23T06:00:00 3.930245 74.82337
2021-11-23T07:00:00 3.730246 75.11418
2021-11-23T08:00:00 3.680245 75.54611
2021-11-23T09:00:00 4.060246 74.24878
2021-11-23T10:00:00 4.360245 74.52478
2021-11-23T11:00:00 5.170245 71.70464
2021-11-23T12:00:00 5.820245 68.37872
2021-11-23T13:00:00 6.160245 67.71314
2021-11-23T14:00:00 6.140245 67.80711
2021-11-23T15:00:00 5.630245 69.69336
2021-11-23T16:00:00 4.450245 73.46242
2021-11-23T17:00:00 3.710246 76.66548
2021-11-23T18:00:00 3.080246 79.64163
2021-11-23T19:00:00 2.520246 81.20079
2021-11-23T20:00:00 1.860245 81.93806
2021-11-23T21:00:00 1.340246 82.52682
2021-11-23T22:00:00 1.260245 81.78534
2021-11-23T23:00:00 1.180245 81.53093
2021-11-24T00:00:00 0.590245 82.29119
2021-11-24T01:00:00 0.430245 82.63519
2021-11-24T02:00:00 0.300245 83.79306
2021-11-24T03:00:00 0.380245 82.81249
2021-11-24T04:00:00 0.290245 83.23199
2021-11-24T05:00:00 0.090245 83.26465
2021-11-24T06:00:00 0.360245 82.6862
2021-11-24T07:00:00 0.480245 82.45837
2021-11-24T08:00:00 1.680245 79.17238
2021-11-24T09:00:00 2.540246 75.66301
2021-11-24T10:00:00 3.470245 74.73411
2021-11-24T11:00:00 4.200245 73.19765
2021-11-24T12:00:00 4.400245 74.42392
2021-11-24T13:00:00 4.620246 74.68385
2021-11-24T14:00:00 4.630245 74.95799
2021-11-24T15:00:00 4.050245 78.53576
2021-11-24T16:00:00 3.840245 77.13837
2021-11-24T17:00:00 2.230245 83.6955
2021-11-24T18:00:00 1.560245 85.90731
2021-11-24T19:00:00 0.890245 87.41977
2021-11-24T20:00:00 0.740245 88.30934
2021-11-24T21:00:00 0.710245 89.81468
2021-11-24T22:00:00 0.550245 89.86489
2021-11-24T23:00:00 0.040245 90.48054
2021-11-25T00:00:00 -0.09975 90.2664
2021-11-25T01:00:00 -0.20975 90.72491
2021-11-25T02:00:00 -0.41975 90.63773
2021-11-25T03:00:00 -0.63975 91.02165
2021-11-25T04:00:00 -0.88975 91.74637
2021-11-25T05:00:00 -0.80975 92.09502
2021-11-25T06:00:00 -0.93975 92.84019
2021-11-25T07:00:00 -0.83975 94.37604
2021-11-25T08:00:00 0.190245 93.27146
2021-11-25T09:00:00 1.000245 91.90848
2021-11-25T10:00:00 1.790245 92.30874
2021-11-25T11:00:00 2.410245 90.43845
2021-11-25T12:00:00 2.760245 90.14414
2021-11-25T13:00:00 2.770246 89.94973
2021-11-25T14:00:00 2.730246 89.42669
2021-11-25T15:00:00 2.380245 90.10835
2021-11-25T16:00:00 1.910245 93.05827
2021-11-25T17:00:00 2.130245 90.87345
2021-11-25T18:00:00 1.850245 90.45232
2021-11-25T19:00:00 1.730245 89.84948
2021-11-25T20:00:00 1.150245 91.4516
2021-11-25T21:00:00 0.580245 93.98683
2021-11-25T22:00:00 0.910245 90.82923
2021-11-25T23:00:00 0.890245 90.62766
2021-11-26T00:00:00 0.780245 90.15246
2021-11-26T01:00:00 0.660245 90.40643
2021-11-26T02:00:00 0.270245 92.38954
2021-11-26T03:00:00 0.130245 93.12976
2021-11-26T04:00:00 0.150245 93.75014
2021-11-26T05:00:00 0.130245 92.92423
2021-11-26T06:00:00 0.330245 91.91964
2021-11-26T07:00:00 0.350245 91.92132
2021-11-26T08:00:00 0.560245 91.2657
2021-11-26T09:00:00 1.030245 89.71468
2021-11-26T10:00:00 1.890245 87.66322
2021-11-26T11:00:00 2.750246 83.09843
2021-11-26T12:00:00 3.260245 82.80917
2021-11-26T13:00:00 3.550245 83.69619
2021-11-26T14:00:00 3.720245 83.90151
2021-11-26T15:00:00 3.460246 85.1514
2021-11-26T16:00:00 3.040246 87.15852
2021-11-26T17:00:00 3.060246 87.47688
2021-11-26T18:00:00 3.170245 87.55254
2021-11-26T19:00:00 3.210246 87.178
2021-11-26T20:00:00 3.250246 84.632
2021-11-26T21:00:00 3.350246 81.3296
2021-11-26T22:00:00 3.840245 77.3074
2021-11-26T23:00:00 4.120246 74.86006
2021-11-27T00:00:00 4.330246 74.73676
2021-11-27T01:00:00 3.640245 81.84826
2021-11-27T02:00:00 3.400245 85.70013
2021-11-27T03:00:00 3.190246 90.83604
2021-11-27T04:00:00 3.580246 91.32757
2021-11-27T05:00:00 3.460246 91.1865
2021-11-27T06:00:00 3.420245 90.46527
2021-11-27T07:00:00 3.580246 89.63878
2021-11-27T08:00:00 3.560246 90.21837
2021-11-27T09:00:00 3.840245 90.37341
2021-11-27T10:00:00 4.170245 85.24173
2021-11-27T11:00:00 3.930245 86.57214
2021-11-27T12:00:00 4.090245 82.62914
2021-11-27T13:00:00 4.560246 74.67227
2021-11-27T14:00:00 4.580246 73.70312
2021-11-27T15:00:00 4.680245 69.73938
2021-11-27T16:00:00 4.280245 70.73454
2021-11-27T17:00:00 1.890245 82.12383
2021-11-27T18:00:00 -0.13975 88.34213
2021-11-27T19:00:00 -0.36975 90.10606
2021-11-27T20:00:00 -0.40975 91.38112
2021-11-27T21:00:00 -0.31975 91.52467
2021-11-27T22:00:00 0.010245 88.62129
2021-11-27T23:00:00 -0.17975 89.19422
2021-11-28T00:00:00 0.110245 88.82938
2021-11-28T01:00:00 0.570245 88.94431
2021-11-28T02:00:00 0.580245 88.87981
2021-11-28T03:00:00 1.460245 86.27422
2021-11-28T04:00:00 1.260245 90.9277
2021-11-28T05:00:00 1.190245 92.46322
2021-11-28T06:00:00 1.130245 92.5937
2021-11-28T07:00:00 1.140245 91.58463
2021-11-28T08:00:00 1.600245 89.31323
2021-11-28T09:00:00 2.060246 88.77599
2021-11-28T10:00:00 2.740245 85.80447
2021-11-28T11:00:00 3.100246 85.29059
2021-11-28T12:00:00 3.150245 84.74173
2021-11-28T13:00:00 2.570245 92.10334
2021-11-28T14:00:00 2.310246 94.03397
2021-11-28T15:00:00 2.030245 98.03715
2021-11-28T16:00:00 1.900245 99.31262
2021-11-28T17:00:00 2.090245 97.26537
2021-11-28T18:00:00 2.220245 97.34065
2021-11-28T19:00:00 2.310246 97.13431
2021-11-28T20:00:00 2.130245 96.6381
2021-11-28T21:00:00 2.150245 96.43019
2021-11-28T22:00:00 1.960245 92.32217
2021-11-28T23:00:00 1.860245 90.71706
2021-11-29T00:00:00 2.000246 91.39159
2021-11-29T01:00:00 1.850245 90.78222
2021-11-29T02:00:00 1.620246 91.02646
2021-11-29T03:00:00 1.490245 92.7567
2021-11-29T04:00:00 1.660245 92.16417
2021-11-29T05:00:00 1.400245 92.47975
2021-11-29T06:00:00 1.160245 94.71397
2021-11-29T07:00:00 1.300245 93.08098
2021-11-29T08:00:00 1.500245 91.68219
2021-11-29T09:00:00 1.960245 88.95985
2021-11-29T10:00:00 2.930245 82.09985
2021-11-29T11:00:00 3.480246 75.67452
2021-11-29T12:00:00 3.820245 69.18998
2021-11-29T13:00:00 3.830246 65.40133
2021-11-29T14:00:00 3.360245 65.82462
2021-11-29T15:00:00 3.150245 66.71352
2021-11-29T16:00:00 2.580246 71.47198
2021-11-29T17:00:00 2.280245 75.05492
2021-11-29T18:00:00 2.200245 75.42993
2021-11-29T19:00:00 2.230245 76.4483
2021-11-29T20:00:00 2.150245 77.86035
2021-11-29T21:00:00 2.260245 79.56362
2021-11-29T22:00:00 1.720245 80.4187
2021-11-29T23:00:00 1.880245 79.32372
2021-11-30T00:00:00 1.990246 79.04986
2021-11-30T01:00:00 1.910245 79.1531
2021-11-30T02:00:00 1.760245 79.18605
2021-11-30T03:00:00 1.890245 77.58362
2021-11-30T04:00:00 2.010245 75.89868
2021-11-30T05:00:00 1.920245 75.48791
2021-11-30T06:00:00 2.100246 74.24342
2021-11-30T07:00:00 2.310246 72.59364
2021-11-30T08:00:00 2.540246 72.64167
2021-11-30T09:00:00 2.450245 74.92143
2021-11-30T10:00:00 3.000246 74.91798
2021-11-30T11:00:00 2.990245 76.19603
2021-11-30T12:00:00 3.330246 75.42416
2021-11-30T13:00:00 3.240245 75.40696
2021-11-30T14:00:00 2.890245 80.37171
2021-11-30T15:00:00 2.740245 84.19534
2021-11-30T16:00:00 2.550245 88.05666
2021-11-30T17:00:00 2.560246 89.73444
2021-11-30T18:00:00 2.660245 90.98625
2021-11-30T19:00:00 2.710246 92.18094
2021-11-30T20:00:00 3.000246 92.536
2021-11-30T21:00:00 3.350246 91.83444
2021-11-30T22:00:00 3.830246 88.00457
2021-11-30T23:00:00 3.920245 89.47869
2021-12-01T00:00:00 4.260245 89.89603
2021-12-01T01:00:00 4.400245 90.35913
2021-12-01T02:00:00 4.910245 88.87521
2021-12-01T03:00:00 5.200245 87.40072
2021-12-01T04:00:00 5.450245 85.8277
2021-12-01T05:00:00 5.880245 83.1191
2021-12-01T06:00:00 6.230245 81.35582
2021-12-01T07:00:00 6.580246 80.0325
2021-12-01T08:00:00 7.190245 79.33794
2021-12-01T09:00:00 7.640245 79.52176
2021-12-01T10:00:00 8.180245 79.60674
2021-12-01T11:00:00 8.600245 78.72985
2021-12-01T12:00:00 8.950245 77.91007
2021-12-01T13:00:00 8.640245 81.42231
2021-12-01T14:00:00 8.200246 86.6289
2021-12-01T15:00:00 8.240246 87.7833
2021-12-01T16:00:00 8.130245 87.46792
2021-12-01T17:00:00 8.120246 85.72084
2021-12-01T18:00:00 7.940245 85.40157
2021-12-01T19:00:00 7.620246 86.80675
2021-12-01T20:00:00 7.300245 88.23966
2021-12-01T21:00:00 7.200245 87.86031
2021-12-01T22:00:00 6.690245 91.12988
2021-12-01T23:00:00 6.450245 91.43024
2021-12-02T00:00:00 6.350246 89.89595
2021-12-02T01:00:00 6.090245 90.25278
2021-12-02T02:00:00 6.180245 88.74925
2021-12-02T03:00:00 5.740245 89.27172
2021-12-02T04:00:00 5.240245 90.04992
2021-12-02T05:00:00 5.190245 89.7904
2021-12-02T06:00:00 4.940245 90.53555
2021-12-02T07:00:00 5.020245 91.25145
2021-12-02T08:00:00 5.020245 90.79974
2021-12-02T09:00:00 5.530245 88.18375
2021-12-02T10:00:00 5.120246 91.19502
2021-12-02T11:00:00 4.560246 94.17531
2021-12-02T12:00:00 4.430245 91.07295
2021-12-02T13:00:00 3.950245 86.76151
2021-12-02T14:00:00 3.960246 83.87354
2021-12-02T15:00:00 3.540246 83.63418
2021-12-02T16:00:00 2.650245 82.47903
2021-12-02T17:00:00 2.510245 83.00321
2021-12-02T18:00:00 2.310246 82.67076
2021-12-02T19:00:00 2.280245 82.48467
2021-12-02T20:00:00 2.200245 83.32409
2021-12-02T21:00:00 1.720245 85.23675
2021-12-02T22:00:00 1.650245 87.124
2021-12-02T23:00:00 1.340246 87.72926
2021-12-03T00:00:00 1.140245 88.48326
2021-12-03T01:00:00 1.080245 89.12899
2021-12-03T02:00:00 0.900245 89.63578
2021-12-03T03:00:00 0.000245 91.55293
2021-12-03T04:00:00 -0.30975 92.20554
2021-12-03T05:00:00 -0.82975 92.09332
2021-12-03T06:00:00 -1.34975 92.39279
2021-12-03T07:00:00 -1.71975 92.22339
2021-12-03T08:00:00 -1.11975 90.43513
2021-12-03T09:00:00 0.430245 84.75087
2021-12-03T10:00:00 1.630245 75.31944
2021-12-03T11:00:00 2.570245 71.46983
2021-12-03T12:00:00 2.960246 71.5004
2021-12-03T13:00:00 3.130245 70.37989
2021-12-03T14:00:00 3.240245 70.66536
2021-12-03T15:00:00 3.070245 70.99585
2021-12-03T16:00:00 2.090245 75.52069
2021-12-03T17:00:00 2.260245 74.27541
2021-12-03T18:00:00 2.800245 69.78591
2021-12-03T19:00:00 2.900245 67.80891
2021-12-03T20:00:00 3.120246 66.21011
2021-12-03T21:00:00 3.360245 64.55866
2021-12-03T22:00:00 3.590245 63.56262
2021-12-03T23:00:00 3.310246 75.08847
2021-12-04T00:00:00 2.960246 91.47287
2021-12-04T01:00:00 3.750246 92.98992
2021-12-04T02:00:00 4.780245 91.29656
2021-12-04T03:00:00 5.380245 92.05766
2021-12-04T04:00:00 5.920245 92.35718
2021-12-04T05:00:00 6.400245 92.52096
2021-12-04T06:00:00 6.920245 92.6862
2021-12-04T07:00:00 7.430245 92.39964
2021-12-04T08:00:00 7.770245 92.35922
2021-12-04T09:00:00 8.130245 91.93881
2021-12-04T10:00:00 8.550245 91.14954
2021-12-04T11:00:00 8.620245 91.97379
2021-12-04T12:00:00 8.910245 91.11455
2021-12-04T13:00:00 9.340245 89.47694
2021-12-04T14:00:00 9.500245 88.75812
2021-12-04T15:00:00 9.210245 90.01978
2021-12-04T16:00:00 8.990245 89.32303
2021-12-04T17:00:00 8.050245 86.2515
2021-12-04T18:00:00 7.640245 86.62738
2021-12-04T19:00:00 6.450245 83.19721
2021-12-04T20:00:00 4.630245 86.22082
2021-12-04T21:00:00 4.630245 85.23843
2021-12-04T22:00:00 4.570245 85.47566
2021-12-04T23:00:00 4.520246 84.73677
2021-12-05T00:00:00 4.220245 84.63697
2021-12-05T01:00:00 4.120246 85.23541
2021-12-05T02:00:00 4.110245 85.72616
2021-12-05T03:00:00 3.800245 86.24561
2021-12-05T04:00:00 3.770246 87.36734
2021-12-05T05:00:00 3.230246 91.23253
2021-12-05T06:00:00 3.300245 90.5847
2021-12-05T07:00:00 2.820245 91.19753
2021-12-05T08:00:00 3.100246 89.52776
2021-12-05T09:00:00 3.830246 87.24845
2021-12-05T10:00:00 4.380245 87.49789
2021-12-05T11:00:00 4.800245 85.07687
2021-12-05T12:00:00 4.910245 84.24253
2021-12-05T13:00:00 4.960245 85.15791
2021-12-05T14:00:00 4.450245 88.19675
2021-12-05T15:00:00 4.040246 90.32678
2021-12-05T16:00:00 3.350246 94.10061
2021-12-05T17:00:00 2.790246 95.49543
2021-12-05T18:00:00 2.350246 96.92656
2021-12-05T19:00:00 2.480245 94.65719
2021-12-05T20:00:00 1.790245 96.41324
2021-12-05T21:00:00 1.110246 98.57565
2021-12-05T22:00:00 0.150245 99.92275
2021-12-05T23:00:00 0.530245 99.78548
2021-12-06T00:00:00 0.800245 98.85306
2021-12-06T01:00:00 0.810245 97.42503
2021-12-06T02:00:00 0.710245 96.50161
2021-12-06T03:00:00 0.890245 97.07431
2021-12-06T04:00:00 0.660245 97.48993
2021-12-06T05:00:00 0.250245 98.83658
2021-12-06T06:00:00 0.270245 98.90941
2021-12-06T07:00:00 0.330245 98.62276
2021-12-06T08:00:00 0.590245 98.27228
2021-12-06T09:00:00 1.200245 98.15048
2021-12-06T10:00:00 2.330246 95.33328
2021-12-06T11:00:00 3.470245 85.77083
2021-12-06T12:00:00 3.900245 81.88718
2021-12-06T13:00:00 4.360245 77.79433
2021-12-06T14:00:00 4.270246 77.55286
2021-12-06T15:00:00 3.540246 84.85419
2021-12-06T16:00:00 4.110245 78.71736
2021-12-06T17:00:00 1.590245 88.79131
2021-12-06T18:00:00 1.130245 88.93814
2021-12-06T19:00:00 1.500245 87.36228
2021-12-06T20:00:00 1.680245 85.79646
2021-12-06T21:00:00 1.950245 84.70612
2021-12-06T22:00:00 2.660245 81.69981
2021-12-06T23:00:00 2.980246 82.22723
2021-12-07T00:00:00 2.920245 86.51498
2021-12-07T01:00:00 2.830246 92.99078
2021-12-07T02:00:00 2.770246 95.3573
2021-12-07T03:00:00 3.270246 94.36556
2021-12-07T04:00:00 3.130245 93.88443
2021-12-07T05:00:00 3.020246 92.80409
2021-12-07T06:00:00 3.060246 91.87718
2021-12-07T07:00:00 3.120246 91.48619
2021-12-07T08:00:00 3.140245 91.42206
2021-12-07T09:00:00 4.050245 89.42719
2021-12-07T10:00:00 4.680245 86.59757
2021-12-07T11:00:00 5.480245 83.18245
2021-12-07T12:00:00 6.180245 79.06192
2021-12-07T13:00:00 6.590245 74.78991
2021-12-07T14:00:00 6.760245 74.39494
2021-12-07T15:00:00 5.580246 80.21848
2021-12-07T16:00:00 3.010245 91.34532
2021-12-07T17:00:00 2.750246 91.32331
2021-12-07T18:00:00 2.580246 91.83836
2021-12-07T19:00:00 2.320245 93.15546
2021-12-07T20:00:00 2.290246 92.21445
2021-12-07T21:00:00 2.390245 91.62366
2021-12-07T22:00:00 2.730246 89.42669
2021-12-07T23:00:00 2.860245 90.1535
2021-12-08T00:00:00 3.000246 91.60809
2021-12-08T01:00:00 3.230246 95.10936
2021-12-08T02:00:00 3.590245 97.25433
2021-12-08T03:00:00 4.520246 95.58428
2021-12-08T04:00:00 5.070245 94.73914
2021-12-08T05:00:00 5.310246 94.95263
2021-12-08T06:00:00 5.400245 93.89434
2021-12-08T07:00:00 5.340245 93.29701
2021-12-08T08:00:00 5.100246 92.68972
2021-12-08T09:00:00 4.960245 92.48316
2021-12-08T10:00:00 4.940245 93.33645
2021-12-08T11:00:00 5.110245 91.97215
2021-12-08T12:00:00 5.250245 90.88357
2021-12-08T13:00:00 5.210245 90.36678
2021-12-08T14:00:00 5.000245 91.31451
2021-12-08T15:00:00 4.670245 93.31846
2021-12-08T16:00:00 3.770246 94.86815
2021-12-08T17:00:00 3.320245 94.70693
2021-12-08T18:00:00 2.840245 95.01936
2021-12-08T19:00:00 2.710246 94.67095
2021-12-08T20:00:00 2.530245 94.18393
2021-12-08T21:00:00 2.380245 93.56445
2021-12-08T22:00:00 2.250246 96.1573
2021-12-08T23:00:00 2.480245 95.06726
2021-12-09T00:00:00 2.460245 94.3154
2021-12-09T01:00:00 2.640245 94.32666
2021-12-09T02:00:00 2.920245 94.14095
2021-12-09T03:00:00 3.180245 93.95503
2021-12-09T04:00:00 3.270246 93.42356
2021-12-09T05:00:00 3.270246 93.69185
2021-12-09T06:00:00 3.240245 93.8243
2021-12-09T07:00:00 3.310246 93.62738
2021-12-09T08:00:00 3.460246 92.2393
2021-12-09T09:00:00 3.670245 92.38755
2021-12-09T10:00:00 3.870246 90.18211
2021-12-09T11:00:00 4.300245 86.80198
2021-12-09T12:00:00 4.860245 81.38325
2021-12-09T13:00:00 5.090245 79.45213
2021-12-09T14:00:00 5.290245 76.61817
2021-12-09T15:00:00 4.650245 79.03667
2021-12-09T16:00:00 3.730246 84.26769
2021-12-09T17:00:00 3.470245 86.14362
2021-12-09T18:00:00 3.620246 86.47321
2021-12-09T19:00:00 2.730246 88.33212
2021-12-09T20:00:00 1.720245 89.65202
2021-12-09T21:00:00 1.520245 88.97903
2021-12-09T22:00:00 0.620245 90.53576
2021-12-09T23:00:00 0.400245 90.18187
2021-12-10T00:00:00 -0.30975 90.71544
2021-12-10T01:00:00 -0.81975 92.98772
2021-12-10T02:00:00 -0.90975 93.39592
2021-12-10T03:00:00 -0.11975 91.20453
2021-12-10T04:00:00 -0.01975 91.07887
2021-12-10T05:00:00 -0.06975 91.54678
2021-12-10T06:00:00 0.030245 92.36999
2021-12-10T07:00:00 0.510245 92.40894
2021-12-10T08:00:00 0.450245 96.3479
2021-12-10T09:00:00 0.830245 95.52689
2021-12-10T10:00:00 1.130245 95.05779
2021-12-10T11:00:00 1.730245 96.06213
2021-12-10T12:00:00 2.380245 97.55707
2021-12-10T13:00:00 3.350246 95.79828
2021-12-10T14:00:00 3.810246 95.88921
2021-12-10T15:00:00 3.990245 94.8805
2021-12-10T16:00:00 4.150245 91.83236
2021-12-10T17:00:00 4.170245 89.31091
2021-12-10T18:00:00 4.100246 87.46696
2021-12-10T19:00:00 4.020246 85.59177
2021-12-10T20:00:00 3.760245 85.18973
2021-12-10T21:00:00 3.480246 87.33472
2021-12-10T22:00:00 3.140245 90.30966
2021-12-10T23:00:00 3.380245 88.65641
2021-12-11T00:00:00 3.460246 87.83788
2021-12-11T01:00:00 3.420245 87.83351
2021-12-11T02:00:00 3.290246 87.94618
2021-12-11T03:00:00 2.990245 89.51699
2021-12-11T04:00:00 2.900245 90.74495
2021-12-11T05:00:00 2.760245 91.91927
2021-12-11T06:00:00 2.670245 92.9792
2021-12-11T07:00:00 2.540246 94.52451
2021-12-11T08:00:00 2.630245 94.73432
2021-12-11T09:00:00 2.850246 95.15648
2021-12-11T10:00:00 3.740245 88.12154
2021-12-11T11:00:00 3.930245 88.77665
2021-12-11T12:00:00 4.090245 88.47533
2021-12-11T13:00:00 4.270246 88.1778
2021-12-11T14:00:00 4.070245 90.20038
2021-12-11T15:00:00 4.090245 90.00887
2021-12-11T16:00:00 3.890245 91.09235
2021-12-11T17:00:00 3.630245 92.31841
2021-12-11T18:00:00 3.440246 93.23462
2021-12-11T19:00:00 3.360245 92.89552
2021-12-11T20:00:00 2.870246 93.26177
2021-12-11T21:00:00 2.060246 93.54236
2021-12-11T22:00:00 1.480245 93.56982
2021-12-11T23:00:00 1.310245 93.62607
2021-12-12T00:00:00 0.970245 93.87611
2021-12-12T01:00:00 -0.10975 94.21645
2021-12-12T02:00:00 -0.15975 93.79718
2021-12-12T03:00:00 -0.28975 94.06526
2021-12-12T04:00:00 -0.46975 93.4289
2021-12-12T05:00:00 -0.36975 92.95401
2021-12-12T06:00:00 -0.35975 91.65682
2021-12-12T07:00:00 -0.11975 92.28952
2021-12-12T08:00:00 0.220245 92.31745
2021-12-12T09:00:00 0.770245 91.55275
2021-12-12T10:00:00 1.730245 89.26125
2021-12-12T11:00:00 2.600246 87.42484
2021-12-12T12:00:00 3.320245 84.15156
2021-12-12T13:00:00 3.870246 82.65717
2021-12-12T14:00:00 4.080246 82.62771
2021-12-12T15:00:00 4.080246 83.04655
2021-12-12T16:00:00 3.590245 84.55432
2021-12-12T17:00:00 3.260245 86.49288
2021-12-12T18:00:00 2.990245 87.15276
2021-12-12T19:00:00 2.640245 87.93874
2021-12-12T20:00:00 2.440245 89.33302
2021-12-12T21:00:00 2.170245 91.2074
2021-12-12T22:00:00 2.140245 87.49983
2021-12-12T23:00:00 2.200245 90.55045
2021-12-13T00:00:00 2.300245 90.3627
2021-12-13T01:00:00 2.670245 90.26622
2021-12-13T02:00:00 2.680245 90.85656
2021-12-13T03:00:00 2.340245 94.03593
2021-12-13T04:00:00 1.230245 96.66689
2021-12-13T05:00:00 0.910245 97.99777
2021-12-13T06:00:00 0.840245 97.92396
2021-12-13T07:00:00 0.650245 98.34596
2021-12-13T08:00:00 0.460245 97.90981
2021-12-13T09:00:00 1.460245 96.81778
2021-12-13T10:00:00 3.420245 88.21437
2021-12-13T11:00:00 4.570245 85.04774
2021-12-13T12:00:00 5.520245 83.06934
2021-12-13T13:00:00 5.980245 81.43452
2021-12-13T14:00:00 6.320245 81.02286
2021-12-13T15:00:00 6.430245 82.66568
2021-12-13T16:00:00 4.720245 88.98301
2021-12-13T17:00:00 2.040246 94.90468
2021-12-13T18:00:00 1.150245 96.9446
2021-12-13T19:00:00 0.590245 97.13202
2021-12-13T20:00:00 0.510245 97.62625
2021-12-13T21:00:00 0.370245 97.83491
2021-12-13T22:00:00 1.260245 97.23137
2021-12-13T23:00:00 1.020245 97.78834
2021-12-14T00:00:00 0.900245 97.35783
2021-12-14T01:00:00 0.740245 97.56424
2021-12-14T02:00:00 1.020245 96.79789
2021-12-14T03:00:00 1.080245 95.8893
2021-12-14T04:00:00 0.730245 96.92585
2021-12-14T05:00:00 0.970245 96.09331
2021-12-14T06:00:00 1.060245 96.30798
2021-12-14T07:00:00 1.230245 95.61863
2021-12-14T08:00:00 1.240245 95.06428
2021-12-14T09:00:00 1.440245 94.04484
2021-12-14T10:00:00 2.000246 95.38391
2021-12-14T11:00:00 3.030245 91.34702
2021-12-14T12:00:00 3.990245 88.71912
2021-12-14T13:00:00 4.820245 87.85886
2021-12-14T14:00:00 5.480245 86.13697
2021-12-14T15:00:00 4.150245 93.88284
2021-12-14T16:00:00 2.660245 96.38454
2021-12-14T17:00:00 2.330246 97.27498
2021-12-14T18:00:00 1.960245 98.38865
2021-12-14T19:00:00 1.520245 99.08837
2021-12-14T20:00:00 1.470245 99.37393
2021-12-14T21:00:00 1.350246 99.44293
2021-12-14T22:00:00 1.540245 98.44646
2021-12-14T23:00:00 1.250245 98.93775
2021-12-15T00:00:00 1.360246 98.3695
2021-12-15T01:00:00 1.280245 98.36689
2021-12-15T02:00:00 1.380245 98.37013
2021-12-15T03:00:00 1.170245 98.36328
2021-12-15T04:00:00 1.370246 97.94325
2021-12-15T05:00:00 1.550245 97.24341
2021-12-15T06:00:00 1.590245 96.75349
2021-12-15T07:00:00 1.490245 96.46884
2021-12-15T08:00:00 1.950245 94.96807
2021-12-15T09:00:00 2.040246 93.67656
2021-12-15T10:00:00 2.250246 97.34182
2021-12-15T11:00:00 2.820245 97.92326
2021-12-15T12:00:00 3.620246 95.06295
2021-12-15T13:00:00 4.020246 94.27648
2021-12-15T14:00:00 4.490245 92.58022
2021-12-15T15:00:00 4.790245 93.39259
2021-12-15T16:00:00 4.160245 94.88998
2021-12-15T17:00:00 4.240245 94.55808
2021-12-15T18:00:00 4.050245 96.03707
2021-12-15T19:00:00 4.170245 95.16052
2021-12-15T20:00:00 4.100246 95.2921
2021-12-15T21:00:00 4.110245 95.36034
2021-12-15T22:00:00 3.600246 95.1297
2021-12-15T23:00:00 3.520246 94.78624
2021-12-16T00:00:00 3.240245 94.90589
2021-12-16T01:00:00 2.810246 95.15424
2021-12-16T02:00:00 2.650245 95.28225
2021-12-16T03:00:00 3.130245 94.42467
2021-12-16T04:00:00 3.000246 94.96026
2021-12-16T05:00:00 2.940246 96.46652
2021-12-16T06:00:00 2.690246 96.10951
2021-12-16T07:00:00 2.650245 96.10757
2021-12-16T08:00:00 2.660245 95.83228
2021-12-16T09:00:00 2.880245 94.54514
2021-12-16T10:00:00 3.380245 93.29728
2021-12-16T11:00:00 4.140245 90.20676
2021-12-16T12:00:00 4.960245 87.24993
2021-12-16T13:00:00 5.490245 84.499
2021-12-16T14:00:00 6.000245 81.32152
2021-12-16T15:00:00 6.060246 81.04128
2021-12-16T16:00:00 4.690245 85.98152
2021-12-16T17:00:00 4.330246 86.74323
2021-12-16T18:00:00 4.120246 87.53196
2021-12-16T19:00:00 3.400245 88.65849
2021-12-16T20:00:00 3.170245 89.21226
2021-12-16T21:00:00 2.750246 89.62304
2021-12-16T22:00:00 2.240245 91.01523
2021-12-16T23:00:00 2.070245 91.66338
2021-12-17T00:00:00 2.160245 90.87613
2021-12-17T01:00:00 1.870246 92.31506
2021-12-17T02:00:00 1.900245 91.11758
2021-12-17T03:00:00 1.840245 90.71523
2021-12-17T04:00:00 1.610245 89.70661
2021-12-17T05:00:00 1.860245 90.12445
2021-12-17T06:00:00 2.160245 90.08746
2021-12-17T07:00:00 2.480245 90.8388
2021-12-17T08:00:00 3.310246 89.67731
2021-12-17T09:00:00 3.740245 89.07665
2021-12-17T10:00:00 4.610245 88.78193
2021-12-17T11:00:00 5.250245 85.55939
2021-12-17T12:00:00 5.840245 84.424
2021-12-17T13:00:00 5.960245 85.22172
2021-12-17T14:00:00 5.990245 85.52792
2021-12-17T15:00:00 4.940245 89.95879
2021-12-17T16:00:00 3.030245 93.07208
2021-12-17T17:00:00 2.360245 94.37719
2021-12-17T18:00:00 2.170245 94.02481
2021-12-17T19:00:00 2.020246 93.13379
2021-12-17T20:00:00 1.890245 92.71972
2021-12-17T21:00:00 1.550245 91.82017
2021-12-17T22:00:00 1.880245 91.7141
2021-12-17T23:00:00 1.390245 92.68148
2021-12-18T00:00:00 1.180245 92.80068
2021-12-18T01:00:00 1.040245 92.51897
2021-12-18T02:00:00 1.250245 92.87378
2021-12-18T03:00:00 0.820245 93.31799
2021-12-18T04:00:00 0.900245 92.98309
2021-12-18T05:00:00 1.070245 93.3362
2021-12-18T06:00:00 1.050245 93.53948
2021-12-18T07:00:00 0.870245 93.45828
2021-12-18T08:00:00 1.170245 92.32664
2021-12-18T09:00:00 1.880245 90.38928
2021-12-18T10:00:00 3.160245 86.29325
2021-12-18T11:00:00 3.990245 84.79012
2021-12-18T12:00:00 4.810246 82.67283
2021-12-18T13:00:00 5.440245 79.7948
2021-12-18T14:00:00 5.500245 79.91895
2021-12-18T15:00:00 4.350246 86.80774
2021-12-18T16:00:00 2.520246 91.70077
2021-12-18T17:00:00 2.340245 92.68659
2021-12-18T18:00:00 2.250246 93.89425
2021-12-18T19:00:00 1.640245 95.5023
2021-12-18T20:00:00 0.370245 96.55565
2021-12-18T21:00:00 -0.65975 97.29096
2021-12-18T22:00:00 -0.28975 94.90166
2021-12-18T23:00:00 -0.10975 93.52451
2021-12-19T00:00:00 -0.36975 92.74798
2021-12-19T01:00:00 -0.19975 92.5561
2021-12-19T02:00:00 -0.23975 90.7893
2021-12-19T03:00:00 -0.21975 90.32156
2021-12-19T04:00:00 -0.39975 89.9694
2021-12-19T05:00:00 -0.43975 90.30006
2021-12-19T06:00:00 -0.48975 90.02722
2021-12-19T07:00:00 -0.55975 90.96151
2021-12-19T08:00:00 -0.05975 90.5379
2021-12-19T09:00:00 0.480245 89.59329
2021-12-19T10:00:00 0.870245 90.49283
2021-12-19T11:00:00 1.610245 89.31423
2021-12-19T12:00:00 1.750246 89.00298
2021-12-19T13:00:00 2.150245 88.14111
2021-12-19T14:00:00 2.230245 87.7655
2021-12-19T15:00:00 1.620246 93.92022
2021-12-19T16:00:00 0.520245 95.85947
2021-12-19T17:00:00 0.400245 96.48648
2021-12-19T18:00:00 -0.05975 97.67485
2021-12-19T19:00:00 -0.11975 97.74414
2021-12-19T20:00:00 -0.22975 97.66798
2021-12-19T21:00:00 -0.64975 98.37288
2021-12-19T22:00:00 -1.62975 96.95808
2021-12-19T23:00:00 -1.22975 96.11806
2021-12-20T00:00:00 -1.30975 96.68616
2021-12-20T01:00:00 -1.43975 97.32795
2021-12-20T02:00:00 -1.29975 97.76814
2021-12-20T03:00:00 -1.18975 97.48353
2021-12-20T04:00:00 -1.26975 97.48003
2021-12-20T05:00:00 -0.97975 97.56477
2021-12-20T06:00:00 -0.85975 96.63714
2021-12-20T07:00:00 -0.78975 95.92891
2021-12-20T08:00:00 -0.83975 95.2893
2021-12-20T09:00:00 0.330245 91.98733
2021-12-20T10:00:00 1.460245 87.87164
2021-12-20T11:00:00 2.480245 84.5295
2021-12-20T12:00:00 3.230246 81.42971
2021-12-20T13:00:00 3.890245 78.28011
2021-12-20T14:00:00 4.020246 77.67819
2021-12-20T15:00:00 2.280245 83.51883
2021-12-20T16:00:00 1.150245 85.22469
2021-12-20T17:00:00 -0.12975 87.62439
2021-12-20T18:00:00 -0.42975 89.49972
2021-12-20T19:00:00 -0.51975 89.75692
2021-12-20T20:00:00 -1.09975 90.4371
2021-12-20T21:00:00 -1.92975 90.83131
2021-12-20T22:00:00 -1.61975 90.31794
2021-12-20T23:00:00 -2.04975 90.00329
2021-12-21T00:00:00 -2.19975 89.17699
2021-12-21T01:00:00 -2.27975 88.36345
2021-12-21T02:00:00 -1.78975 87.75642
2021-12-21T03:00:00 -1.42975 85.32474
2021-12-21T04:00:00 -0.62975 81.91777
2021-12-21T05:00:00 -0.63975 80.51012
2021-12-21T06:00:00 -0.84975 80.29297
2021-12-21T07:00:00 -1.03975 80.50401
2021-12-21T08:00:00 -1.96975 85.12204
2021-12-21T09:00:00 -0.60975 81.24589
2021-12-21T10:00:00 -0.02975 77.1152
2021-12-21T11:00:00 0.220245 75.0418
2021-12-21T12:00:00 0.590245 74.94601
2021-12-21T13:00:00 0.550245 75.95883
2021-12-21T14:00:00 0.580245 76.9398
2021-12-21T15:00:00 -0.22975 81.85774
2021-12-21T16:00:00 0.150245 78.31726
2021-12-21T17:00:00 -0.31975 80.80579
2021-12-21T18:00:00 -0.52975 81.62621
2021-12-21T19:00:00 -0.90975 81.93531
2021-12-21T20:00:00 -2.07975 84.39995
2021-12-21T21:00:00 -2.55975 85.49411
2021-12-21T22:00:00 -2.27975 83.60495
2021-12-21T23:00:00 -2.23975 83.86559
2021-12-22T00:00:00 -2.27975 84.37121
2021-12-22T01:00:00 -2.04975 84.21241
2021-12-22T02:00:00 -2.42975 84.54232
2021-12-22T03:00:00 -2.93975 85.18155
2021-12-22T04:00:00 -2.80975 84.74602
2021-12-22T05:00:00 -2.56975 84.00868
2021-12-22T06:00:00 -2.56975 83.49786
2021-12-22T07:00:00 -2.50975 83.31611
2021-12-22T08:00:00 -2.54975 83.88367
2021-12-22T09:00:00 -1.82975 82.47485
2021-12-22T10:00:00 -1.30975 77.10779
2021-12-22T11:00:00 -1.11975 77.26112
2021-12-22T12:00:00 -0.70975 76.11657
2021-12-22T13:00:00 -0.21975 74.72724
2021-12-22T14:00:00 -0.13975 79.69058
2021-12-22T15:00:00 0.320245 72.55438
2021-12-22T16:00:00 -0.39975 75.71676
2021-12-22T17:00:00 -1.88975 80.42176
2021-12-22T18:00:00 -2.45975 83.8331
2021-12-22T19:00:00 -2.88975 85.25355
2021-12-22T20:00:00 -3.22975 86.32089
2021-12-22T21:00:00 -2.83975 86.24073
2021-12-22T22:00:00 -3.35975 86.63431
2021-12-22T23:00:00 -3.85975 87.43691
2021-12-23T00:00:00 -3.40975 86.29706
2021-12-23T01:00:00 -2.94975 83.24912
2021-12-23T02:00:00 -2.44975 79.897
2021-12-23T03:00:00 -2.15975 78.85496
2021-12-23T04:00:00 -2.43975 79.71542
2021-12-23T05:00:00 -2.54975 81.29858
2021-12-23T06:00:00 -2.38975 82.07338
2021-12-23T07:00:00 -2.11975 84.13838
2021-12-23T08:00:00 -1.94975 87.27507
2021-12-23T09:00:00 -0.65975 85.04548
2021-12-23T10:00:00 0.760245 82.37829
2021-12-23T11:00:00 2.800245 78.14776
2021-12-23T12:00:00 4.320245 74.19135
2021-12-23T13:00:00 5.150245 72.54011
2021-12-23T14:00:00 5.460245 72.3404
2021-12-23T15:00:00 5.000245 75.35564
2021-12-23T16:00:00 5.460245 73.87679
2021-12-23T17:00:00 5.190245 77.37825
2021-12-23T18:00:00 4.790245 80.03566
2021-12-23T19:00:00 4.710245 82.06632
2021-12-23T20:00:00 4.890245 83.51872
2021-12-23T21:00:00 4.790245 85.87063
2021-12-23T22:00:00 4.600246 84.26199
2021-12-23T23:00:00 4.430245 84.6035
2021-12-24T00:00:00 4.160245 85.24047
2021-12-24T01:00:00 4.270246 84.15761
2021-12-24T02:00:00 4.290246 82.95649
2021-12-24T03:00:00 4.320245 83.44031
2021-12-24T04:00:00 4.010245 86.95577
2021-12-24T05:00:00 4.420245 87.56496
2021-12-24T06:00:00 4.350246 89.58401
2021-12-24T07:00:00 4.400245 90.4881
2021-12-24T08:00:00 4.970245 89.26117
2021-12-24T09:00:00 5.270245 90.94959
2021-12-24T10:00:00 6.490245 89.0919
2021-12-24T11:00:00 7.100246 88.65253
2021-12-24T12:00:00 7.900245 86.95837
2021-12-24T13:00:00 8.220245 86.33065
2021-12-24T14:00:00 8.290245 87.18167
2021-12-24T15:00:00 8.240246 88.14925
2021-12-24T16:00:00 8.130245 88.87482
2021-12-24T17:00:00 7.600246 92.47546
2021-12-24T18:00:00 6.950245 94.77394
2021-12-24T19:00:00 6.950245 94.90566
2021-12-24T20:00:00 6.360245 95.27304
2021-12-24T21:00:00 6.100246 95.79411
2021-12-24T22:00:00 5.800245 95.24515
2021-12-24T23:00:00 5.730245 95.37524
2021-12-25T00:00:00 5.910245 94.25516
2021-12-25T01:00:00 5.890245 93.39852
2021-12-25T02:00:00 5.820245 93.19746
2021-12-25T03:00:00 5.990245 92.49201
2021-12-25T04:00:00 5.700245 93.18951
2021-12-25T05:00:00 5.790245 93.06462
2021-12-25T06:00:00 5.930245 93.59782
2021-12-25T07:00:00 5.940245 94.05894
2021-12-25T08:00:00 6.120246 94.33322
2021-12-25T09:00:00 6.370246 94.80946
2021-12-25T10:00:00 7.260245 94.65879
2021-12-25T11:00:00 7.470245 94.86643
2021-12-25T12:00:00 7.830246 95.27779
2021-12-25T13:00:00 8.130245 94.50864
2021-12-25T14:00:00 8.270246 95.1022
2021-12-25T15:00:00 8.050245 97.40594
2021-12-25T16:00:00 7.710245 98.87952
2021-12-25T17:00:00 7.400245 98.80553
2021-12-25T18:00:00 7.100246 99.41489
2021-12-25T19:00:00 6.910245 99.82471
2021-12-25T20:00:00 6.590245 99.68251
2021-12-25T21:00:00 6.220245 99.88507
2021-12-25T22:00:00 5.790245 100.0186
2021-12-25T23:00:00 5.800245 99.94909
2021-12-26T00:00:00 5.640245 99.94699
2021-12-26T01:00:00 5.420245 99.94403
2021-12-26T02:00:00 5.410245 99.94389
2021-12-26T03:00:00 5.640245 99.73803
2021-12-26T04:00:00 5.620246 99.39024
2021-12-26T05:00:00 5.540245 99.04216
2021-12-26T06:00:00 5.740245 98.97719
2021-12-26T07:00:00 5.710245 98.63167
2021-12-26T08:00:00 5.780245 98.2897
2021-12-26T09:00:00 6.200245 97.95921
2021-12-26T10:00:00 7.040245 96.90411
2021-12-26T11:00:00 7.710245 94.94405
2021-12-26T12:00:00 7.940245 94.69418
2021-12-26T13:00:00 8.190246 93.73463
2021-12-26T14:00:00 7.720245 96.39546
2021-12-26T15:00:00 7.950245 96.33803
2021-12-26T16:00:00 7.900245 96.1375
2021-12-26T17:00:00 7.650245 95.46671
2021-12-26T18:00:00 7.880245 94.62584
2021-12-26T19:00:00 8.030246 94.76401
2021-12-26T20:00:00 8.100245 95.42154
2021-12-26T21:00:00 8.030246 96.53987
2021-12-26T22:00:00 7.100246 96.30454
2021-12-26T23:00:00 6.910245 96.36366
2021-12-27T00:00:00 6.980245 96.09967
2021-12-27T01:00:00 6.680245 96.08701
2021-12-27T02:00:00 6.860245 95.76177
2021-12-27T03:00:00 6.840245 96.29403
2021-12-27T04:00:00 6.770245 96.62592
2021-12-27T05:00:00 5.980245 98.08959
2021-12-27T06:00:00 4.880245 99.16739
2021-12-27T07:00:00 4.440246 99.01836
2021-12-27T08:00:00 4.380245 98.66818
2021-12-27T09:00:00 5.500245 96.84727
2021-12-27T10:00:00 6.710245 94.30077
2021-12-27T11:00:00 7.270245 92.64556
2021-12-27T12:00:00 7.690245 92.48164
2021-12-27T13:00:00 7.820245 93.58357
2021-12-27T14:00:00 7.650245 94.61383
2021-12-27T15:00:00 7.970245 89.78904
2021-12-27T16:00:00 8.350245 90.32003
2021-12-27T17:00:00 8.570246 92.16019
2021-12-27T18:00:00 8.840245 93.06814
2021-12-27T19:00:00 9.100245 94.49416
2021-12-27T20:00:00 9.180245 93.40783
2021-12-27T21:00:00 8.820246 92.24078
2021-12-27T22:00:00 9.020246 90.06559
2021-12-27T23:00:00 8.780245 89.9214
2021-12-28T00:00:00 8.240246 90.18607
2021-12-28T01:00:00 8.320246 89.38602
2021-12-28T02:00:00 8.680245 87.58541
2021-12-28T03:00:00 9.040245 86.96011
2021-12-28T04:00:00 9.260245 87.64449
2021-12-28T05:00:00 9.570246 86.30155
2021-12-28T06:00:00 10.29025 86.20326
2021-12-28T07:00:00 10.66025 87.12936
2021-12-28T08:00:00 10.69025 88.86715
2021-12-28T09:00:00 10.99025 90.83932
2021-12-28T10:00:00 11.03025 91.14955
2021-12-28T11:00:00 11.46025 91.1809
2021-12-28T12:00:00 12.14025 89.17516
2021-12-28T13:00:00 12.55025 84.03824
2021-12-28T14:00:00 12.50025 79.33929
2021-12-28T15:00:00 11.63025 73.14385
2021-12-28T16:00:00 10.56025 76.83507
2021-12-28T17:00:00 9.930245 80.09814
2021-12-28T18:00:00 9.550245 82.68855
2021-12-28T19:00:00 9.550245 83.2043
2021-12-28T20:00:00 9.790245 80.91257
2021-12-28T21:00:00 9.780245 80.9111
2021-12-28T22:00:00 9.660245 82.47518
2021-12-28T23:00:00 9.630245 79.33414
2021-12-29T00:00:00 9.400246 78.80328
2021-12-29T01:00:00 9.370245 80.29179
2021-12-29T02:00:00 9.340245 81.24043
2021-12-29T03:00:00 9.370245 81.18843
2021-12-29T04:00:00 9.340245 80.51066
2021-12-29T05:00:00 9.210245 81.05259
2021-12-29T06:00:00 9.150246 82.06329
2021-12-29T07:00:00 9.110246 83.43495
2021-12-29T08:00:00 8.980246 85.70148
2021-12-29T09:00:00 8.850245 86.04296
2021-12-29T10:00:00 8.550245 90.83614
2021-12-29T11:00:00 8.360246 93.80897
2021-12-29T12:00:00 8.620245 93.50256
2021-12-29T13:00:00 8.740245 94.02377
2021-12-29T14:00:00 9.210245 94.88722
2021-12-29T15:00:00 9.730246 97.05927
2021-12-29T16:00:00 10.03025 98.18849
2021-12-29T17:00:00 10.45025 98.13129
2021-12-29T18:00:00 10.97025 97.87957
2021-12-29T19:00:00 12.00025 96.67335
2021-12-29T20:00:00 12.72025 95.73988
2021-12-29T21:00:00 13.32025 95.13242
2021-12-29T22:00:00 13.78025 93.16885
2021-12-29T23:00:00 13.69025 93.71803
2021-12-30T00:00:00 13.59025 94.02229
2021-12-30T01:00:00 13.56025 93.52624
2021-12-30T02:00:00 13.26025 94.1927
2021-12-30T03:00:00 13.13025 94.49832
2021-12-30T04:00:00 12.95025 95.11736
2021-12-30T05:00:00 13.12025 94.18601
2021-12-30T06:00:00 13.19025 93.94066
2021-12-30T07:00:00 13.05025 94.18267
2021-12-30T08:00:00 12.98025 94.61661
2021-12-30T09:00:00 13.26025 94.44185
2021-12-30T10:00:00 14.37025 93.01756
2021-12-30T11:00:00 14.84025 91.41473
2021-12-30T12:00:00 14.99025 90.41326
2021-12-30T13:00:00 15.01025 89.41336
2021-12-30T14:00:00 14.86025 87.65615
2021-12-30T15:00:00 14.54025 88.03181
2021-12-30T16:00:00 14.14025 89.99378
2021-12-30T17:00:00 13.36025 91.13372
2021-12-30T18:00:00 12.39025 92.10389
2021-12-30T19:00:00 11.37025 93.28237
2021-12-30T20:00:00 11.23025 93.27436
2021-12-30T21:00:00 11.38025 93.34559
2021-12-30T22:00:00 11.34025 96.33031
2021-12-30T23:00:00 10.70025 96.89262
2021-12-31T00:00:00 10.16025 97.40019
2021-12-31T01:00:00 9.870245 98.11881
2021-12-31T02:00:00 9.330245 98.57356
2021-12-31T03:00:00 9.300245 98.57296
2021-12-31T04:00:00 9.010245 98.63437
2021-12-31T05:00:00 8.540245 98.49072
2021-12-31T06:00:00 8.610246 97.82245
2021-12-31T07:00:00 8.580245 97.88849
2021-12-31T08:00:00 8.090245 98.34635
2021-12-31T09:00:00 8.510245 97.02085
2021-12-31T10:00:00 9.560246 94.26068
2021-12-31T11:00:00 10.48025 90.61583
2021-12-31T12:00:00 11.62025 84.26721
2021-12-31T13:00:00 12.32025 80.6146
2021-12-31T14:00:00 13.00025 76.45926
2021-12-31T15:00:00 12.20025 81.20109
2021-12-31T16:00:00 9.900246 87.94917
2021-12-31T17:00:00 9.180245 89.52428
2021-12-31T18:00:00 8.150246 92.25803
2021-12-31T19:00:00 7.210245 94.13259
2021-12-31T20:00:00 6.900245 93.85346
2021-12-31T21:00:00 6.270245 94.80416
2021-12-31T22:00:00 6.490245 93.82894
2021-12-31T23:00:00 6.060246 94.19782
2022-01-01T00:00:00 5.560246 94.83262
2022-01-01T01:00:00 4.630245 96.47203
2022-01-01T02:00:00 3.660245 97.1187
2022-01-01T03:00:00 3.880245 96.16575
2022-01-01T04:00:00 3.650245 96.98019
2022-01-01T05:00:00 3.110245 97.79321
2022-01-01T06:00:00 2.730246 98.20113
2022-01-01T07:00:00 2.510245 98.19411
2022-01-01T08:00:00 2.440245 97.83999
2022-01-01T09:00:00 4.250246 95.36762
2022-01-01T10:00:00 6.530245 92.20724
2022-01-01T11:00:00 8.290245 88.76688
2022-01-01T12:00:00 10.09025 83.10312
2022-01-01T13:00:00 11.31025 79.97462
2022-01-01T14:00:00 12.10025 77.46256
2022-01-01T15:00:00 10.53025 84.3071
2022-01-01T16:00:00 7.300245 93.68196
2022-01-01T17:00:00 5.990245 95.78908
2022-01-01T18:00:00 5.800245 95.44553
2022-01-01T19:00:00 5.170245 94.87827
2022-01-01T20:00:00 4.490245 95.85379
2022-01-01T21:00:00 3.910245 95.96225
2022-01-01T22:00:00 3.570245 98.1573
2022-01-01T23:00:00 3.420245 98.01299
2022-01-02T00:00:00 2.880245 97.08778
2022-01-02T01:00:00 3.020246 96.88525
2022-01-02T02:00:00 2.360245 97.48621
2022-01-02T03:00:00 2.310246 96.64618
2022-01-02T04:00:00 2.380245 96.09441
2022-01-02T05:00:00 2.420245 95.54446
2022-01-02T06:00:00 2.580246 95.07294
2022-01-02T07:00:00 2.940246 91.53713
2022-01-02T08:00:00 3.560246 88.35643
2022-01-02T09:00:00 5.060246 83.72151
2022-01-02T10:00:00 6.540245 81.80693
2022-01-02T11:00:00 8.340245 74.79823
2022-01-02T12:00:00 9.950245 69.9202
2022-01-02T13:00:00 11.59025 67.95638
2022-01-02T14:00:00 12.15025 66.07579
2022-01-02T15:00:00 12.02025 64.09562
2022-01-02T16:00:00 11.27025 66.47852
2022-01-02T17:00:00 10.74025 67.77081
2022-01-02T18:00:00 10.66025 68.37353
2022-01-02T19:00:00 11.00025 68.68648
2022-01-02T20:00:00 11.72025 66.30155
2022-01-02T21:00:00 12.56025 64.98528
2022-01-02T22:00:00 12.24025 68.42762
2022-01-02T23:00:00 12.30025 69.68086
2022-01-03T00:00:00 12.29025 70.50054
2022-01-03T01:00:00 12.46025 70.05099
2022-01-03T02:00:00 12.46025 71.11963
2022-01-03T03:00:00 12.55025 70.89352
2022-01-03T04:00:00 12.37025 71.83889
2022-01-03T05:00:00 11.91025 73.24715
2022-01-03T06:00:00 11.74025 73.56902
2022-01-03T07:00:00 11.67025 72.89961
2022-01-03T08:00:00 11.67025 72.64854
2022-01-03T09:00:00 11.68025 72.85125
2022-01-03T10:00:00 11.80025 73.9864
2022-01-03T11:00:00 11.92025 72.89697
2022-01-03T12:00:00 12.19025 72.44865
2022-01-03T13:00:00 12.37025 71.98713
2022-01-03T14:00:00 12.33025 71.92989
2022-01-03T15:00:00 12.27025 72.06669
2022-01-03T16:00:00 12.04025 72.61942
2022-01-03T17:00:00 11.86025 72.58489
2022-01-03T18:00:00 11.51025 73.57673
2022-01-03T19:00:00 11.42025 73.71239
2022-01-03T20:00:00 11.35025 75.96923
2022-01-03T21:00:00 11.42025 77.24474
2022-01-03T22:00:00 11.15025 79.7319
2022-01-03T23:00:00 11.44025 77.14209
2022-01-04T00:00:00 11.40025 77.56019
2022-01-04T01:00:00 11.42025 76.55814
2022-01-04T02:00:00 11.95025 73.25468
2022-01-04T03:00:00 12.01025 75.77127
2022-01-04T04:00:00 12.32025 78.98929
2022-01-04T05:00:00 12.14025 82.46845
2022-01-04T06:00:00 12.13025 83.42142
2022-01-04T07:00:00 12.90025 77.64504
2022-01-04T08:00:00 13.72025 70.25891
2022-01-04T09:00:00 14.15025 65.52666
2022-01-04T10:00:00 15.31025 58.60934
2022-01-04T11:00:00 15.92025 56.12078
2022-01-04T12:00:00 16.25025 53.89537
2022-01-04T13:00:00 15.07025 59.72979
2022-01-04T14:00:00 13.38025 70.96174
2022-01-04T15:00:00 13.03025 71.6236
2022-01-04T16:00:00 13.27025 70.9399
2022-01-04T17:00:00 12.55025 75.29755
2022-01-04T18:00:00 11.42025 83.1052
2022-01-04T19:00:00 9.620245 89.5015
2022-01-04T20:00:00 8.080246 89.30239
2022-01-04T21:00:00 7.250245 86.82677
2022-01-04T22:00:00 6.290245 81.13365
2022-01-04T23:00:00 5.670245 84.04244
2022-01-05T00:00:00 5.610245 85.42093
2022-01-05T01:00:00 5.600246 87.19667
2022-01-05T02:00:00 5.480245 88.49162
2022-01-05T03:00:00 5.470245 88.49059
2022-01-05T04:00:00 5.310246 87.78614
2022-01-05T05:00:00 4.850246 83.45338
2022-01-05T06:00:00 4.210246 82.22981
2022-01-05T07:00:00 3.880245 80.47135
2022-01-05T08:00:00 3.440246 79.12154
2022-01-05T09:00:00 3.130245 73.68332
2022-01-05T10:00:00 3.200245 72.77863
2022-01-05T11:00:00 3.250246 67.89054
2022-01-05T12:00:00 3.700245 63.87598
2022-01-05T13:00:00 4.100246 58.1778
2022-01-05T14:00:00 4.040246 56.22099
2022-01-05T15:00:00 3.740245 58.6067
2022-01-05T16:00:00 2.400245 65.6889
2022-01-05T17:00:00 1.950245 70.53971
2022-01-05T18:00:00 0.900245 78.56799
2022-01-05T19:00:00 0.840245 80.27422
2022-01-05T20:00:00 1.200245 80.51266
2022-01-05T21:00:00 1.360246 81.2578
2022-01-05T22:00:00 1.200245 86.55992
2022-01-05T23:00:00 1.070245 87.69847
2022-01-06T00:00:00 1.560245 86.73093
2022-01-06T01:00:00 1.730245 86.87855
2022-01-06T02:00:00 1.810245 86.63403
2022-01-06T03:00:00 2.000246 86.3407
2022-01-06T04:00:00 1.990246 87.03653
2022-01-06T05:00:00 1.810245 88.94427
2022-01-06T06:00:00 1.800245 90.9762
2022-01-06T07:00:00 1.670245 92.83788
2022-01-06T08:00:00 2.100246 89.55911
2022-01-06T09:00:00 2.470245 89.27122
2022-01-06T10:00:00 3.250246 85.93003
2022-01-06T11:00:00 3.560246 81.24367
2022-01-06T12:00:00 4.170245 77.64807
2022-01-06T13:00:00 4.480246 75.91737
2022-01-06T14:00:00 4.150245 79.12522
2022-01-06T15:00:00 3.940246 81.36101
2022-01-06T16:00:00 2.190245 88.20972
2022-01-06T17:00:00 2.150245 88.01276
2022-01-06T18:00:00 1.580245 90.95654
2022-01-06T19:00:00 0.870245 91.96498
2022-01-06T20:00:00 0.310245 92.05339
2022-01-06T21:00:00 -0.00975 91.89073
2022-01-06T22:00:00 -1.18975 92.95853
2022-01-06T23:00:00 -1.46975 92.86688
2022-01-07T00:00:00 -2.05975 92.61025
2022-01-07T01:00:00 -1.62975 91.5434
2022-01-07T02:00:00 -0.88975 90.93057
2022-01-07T03:00:00 -0.95975 91.7402
2022-01-07T04:00:00 -1.04975 91.80061
2022-01-07T05:00:00 -0.89975 91.13299
2022-01-07T06:00:00 -0.62975 90.21425
2022-01-07T07:00:00 -0.45975 88.43775
2022-01-07T08:00:00 0.080245 85.59016
2022-01-07T09:00:00 0.840245 85.05783
2022-01-07T10:00:00 1.830245 83.45493
2022-01-07T11:00:00 2.010245 83.48057
2022-01-07T12:00:00 2.020246 86.91298
2022-01-07T13:00:00 1.660245 93.17524
2022-01-07T14:00:00 1.600245 97.1048
2022-01-07T15:00:00 1.770245 96.76157
2022-01-07T16:00:00 1.960245 95.72713
2022-01-07T17:00:00 1.780245 97.67529
2022-01-07T18:00:00 1.920245 98.17486
2022-01-07T19:00:00 2.150245 95.39217
2022-01-07T20:00:00 2.530245 93.84504
2022-01-07T21:00:00 2.820245 93.52713
2022-01-07T22:00:00 2.920245 90.02898
2022-01-07T23:00:00 3.270246 86.93311
2022-01-08T00:00:00 3.450245 84.84248
2022-01-08T01:00:00 3.370246 87.76469
2022-01-08T02:00:00 3.200245 92.75064
2022-01-08T03:00:00 3.340245 93.3614
2022-01-08T04:00:00 3.600246 94.31821
2022-01-08T05:00:00 3.570245 91.78622
2022-01-08T06:00:00 3.240245 90.05904
2022-01-08T07:00:00 2.710246 88.58649
2022-01-08T08:00:00 2.600246 87.42484
2022-01-08T09:00:00 2.670245 87.05258
2022-01-08T10:00:00 3.090245 80.46265
2022-01-08T11:00:00 3.740245 76.55896
2022-01-08T12:00:00 4.470245 71.1396
2022-01-08T13:00:00 4.840245 69.57048
2022-01-08T14:00:00 5.050245 69.00832
2022-01-08T15:00:00 5.070245 68.00919
2022-01-08T16:00:00 4.990245 68.79307
2022-01-08T17:00:00 5.410245 69.54366
2022-01-08T18:00:00 5.240245 74.91126
2022-01-08T19:00:00 5.440245 79.33797
2022-01-08T20:00:00 5.590245 81.31815
2022-01-08T21:00:00 5.630245 85.12032
2022-01-08T22:00:00 5.880245 84.66931
2022-01-08T23:00:00 5.580246 88.62711
2022-01-09T00:00:00 5.750245 90.66939
2022-01-09T01:00:00 6.220245 89.69488
2022-01-09T02:00:00 5.710245 90.858
2022-01-09T03:00:00 5.200245 89.34666
2022-01-09T04:00:00 4.600246 89.16169
2022-01-09T05:00:00 4.160245 87.28555
2022-01-09T06:00:00 4.190246 84.75498
2022-01-09T07:00:00 4.270246 84.27884
2022-01-09T08:00:00 4.050245 85.28793
2022-01-09T09:00:00 4.270246 85.43835
2022-01-09T10:00:00 4.420245 83.33408
2022-01-09T11:00:00 4.480246 83.28247
2022-01-09T12:00:00 4.590245 83.95871
2022-01-09T13:00:00 4.650245 84.26861
2022-01-09T14:00:00 4.590245 83.47755
2022-01-09T15:00:00 4.070245 87.46362
2022-01-09T16:00:00 3.790246 89.981
2022-01-09T17:00:00 3.200245 92.88393
2022-01-09T18:00:00 2.760245 93.99543
2022-01-09T19:00:00 2.490245 94.72601
2022-01-09T20:00:00 2.210245 95.74022
2022-01-09T21:00:00 1.940245 95.93388
2022-01-09T22:00:00 1.650245 99.73735
2022-01-09T23:00:00 1.810245 99.52536
2022-01-10T00:00:00 1.780245 98.17019
2022-01-10T01:00:00 1.920245 95.86355
2022-01-10T02:00:00 2.100246 95.52731
2022-01-10T03:00:00 1.590245 96.89371
2022-01-10T04:00:00 1.490245 96.88931
2022-01-10T05:00:00 1.590245 96.61344
2022-01-10T06:00:00 1.860245 96.97553
2022-01-10T07:00:00 1.760245 97.46307
2022-01-10T08:00:00 1.730245 97.32111
2022-01-10T09:00:00 2.250246 94.23408
2022-01-10T10:00:00 2.800245 92.52085
2022-01-10T11:00:00 3.260245 91.8932
2022-01-10T12:00:00 4.150245 84.20221
2022-01-10T13:00:00 4.590245 82.87953
2022-01-10T14:00:00 4.830246 80.96983
2022-01-10T15:00:00 4.440246 82.26345
2022-01-10T16:00:00 3.180245 87.17457
2022-01-10T17:00:00 2.050245 90.86629
2022-01-10T18:00:00 1.360246 91.53658
2022-01-10T19:00:00 0.910245 91.22982
2022-01-10T20:00:00 0.250245 91.37257
2022-01-10T21:00:00 -0.04975 91.54854
2022-01-10T22:00:00 -0.30975 92.0692
2022-01-10T23:00:00 -0.51975 90.76286
2022-01-11T00:00:00 -0.12975 90.06312
2022-01-11T01:00:00 -0.31975 90.44586
2022-01-11T02:00:00 -0.39975 91.0439
2022-01-11T03:00:00 -0.26975 91.46137
2022-01-11T04:00:00 -0.57975 91.56948
2022-01-11T05:00:00 -0.29975 91.4587
2022-01-11T06:00:00 0.630245 89.14759
2022-01-11T07:00:00 0.910245 89.1768
2022-01-11T08:00:00 1.120246 88.8066
2022-01-11T09:00:00 1.690245 88.02613
2022-01-11T10:00:00 1.990246 87.35501
2022-01-11T11:00:00 2.770246 81.77639
2022-01-11T12:00:00 3.490245 77.75489
2022-01-11T13:00:00 3.980246 73.15308
2022-01-11T14:00:00 4.320245 70.89914
2022-01-11T15:00:00 3.910245 75.58963
2022-01-11T16:00:00 1.540245 83.35201
2022-01-11T17:00:00 0.690245 84.03543
2022-01-11T18:00:00 0.160245 85.02969
2022-01-11T19:00:00 -0.48975 84.94145
2022-01-11T20:00:00 -0.85975 84.63624
2022-01-11T21:00:00 -1.00975 83.79212
2022-01-11T22:00:00 -1.32975 84.63414
2022-01-11T23:00:00 -1.73975 84.76843
2022-01-12T00:00:00 -2.18975 85.54449
2022-01-12T01:00:00 -2.54975 85.95168
2022-01-12T02:00:00 -2.79975 85.26605
2022-01-12T03:00:00 -2.97975 85.56699
2022-01-12T04:00:00 -3.18975 85.27692
2022-01-12T05:00:00 -3.10975 84.18629
2022-01-12T06:00:00 -3.11975 83.41466
2022-01-12T07:00:00 -3.25975 81.80736
2022-01-12T08:00:00 -1.94975 79.37598
2022-01-12T09:00:00 -0.71975 76.11462
2022-01-12T10:00:00 0.270245 72.05113
2022-01-12T11:00:00 1.220245 68.33605
2022-01-12T12:00:00 1.750246 67.79295
2022-01-12T13:00:00 2.420245 66.88893
2022-01-12T14:00:00 2.820245 65.79163
2022-01-12T15:00:00 2.470245 71.18279
2022-01-12T16:00:00 0.300245 79.88505
2022-01-12T17:00:00 -1.00975 84.55171
2022-01-12T18:00:00 -1.79975 86.63756
2022-01-12T19:00:00 -2.20975 87.97177
2022-01-12T20:00:00 -2.51975 89.27682
2022-01-12T21:00:00 -3.04975 90.24075
2022-01-12T22:00:00 -3.38975 89.3848
2022-01-12T23:00:00 -3.66975 89.76422
2022-01-13T00:00:00 -3.89975 90.56654
2022-01-13T01:00:00 -3.97976 91.25326
2022-01-13T02:00:00 -3.91975 89.25767
2022-01-13T03:00:00 -4.19975 90.46639
2022-01-13T04:00:00 -4.25975 89.76898
2022-01-13T05:00:00 -4.19975 88.27203
2022-01-13T06:00:00 -4.08975 88.21745
2022-01-13T07:00:00 -4.08975 88.42084
2022-01-13T08:00:00 -3.43975 85.11142
2022-01-13T09:00:00 -1.44975 81.10887
2022-01-13T10:00:00 -0.06975 76.87557
2022-01-13T11:00:00 1.010245 74.35736
2022-01-13T12:00:00 2.180245 71.33248
2022-01-13T13:00:00 2.970245 70.39694
2022-01-13T14:00:00 3.360245 71.85072
2022-01-13T15:00:00 2.580246 78.51259
2022-01-13T16:00:00 0.260245 83.84973
2022-01-13T17:00:00 -0.55975 86.92281
2022-01-13T18:00:00 -1.00975 88.24377
2022-01-13T19:00:00 -1.44975 88.4585
2022-01-13T20:00:00 -2.07975 89.32468
2022-01-13T21:00:00 -2.56975 92.14954
2022-01-13T22:00:00 -2.66975 89.73482
2022-01-13T23:00:00 -2.93975 89.50202
2022-01-14T00:00:00 -3.09975 90.51005
2022-01-14T01:00:00 -3.25975 90.28766
2022-01-14T02:00:00 -3.38975 90.48057
2022-01-14T03:00:00 -3.51976 90.81249
2022-01-14T04:00:00 -3.86975 91.1247
2022-01-14T05:00:00 -3.98975 90.90421
2022-01-14T06:00:00 -4.18975 91.16296
2022-01-14T07:00:00 -4.10975 91.24059
2022-01-14T08:00:00 -3.33975 90.21072
2022-01-14T09:00:00 -1.38975 88.93092
2022-01-14T10:00:00 0.170245 84.65231
2022-01-14T11:00:00 1.820245 78.49607
2022-01-14T12:00:00 3.120246 74.39115
2022-01-14T13:00:00 4.110245 71.27184
2022-01-14T14:00:00 4.810246 69.30942
2022-01-14T15:00:00 5.780245 62.80375
2022-01-14T16:00:00 3.620246 72.97239
2022-01-14T17:00:00 0.110245 85.08624
2022-01-14T18:00:00 -0.64975 88.0874
2022-01-14T19:00:00 -1.45975 90.6727
2022-01-14T20:00:00 -1.99975 91.92284
2022-01-14T21:00:00 -2.13975 92.74275
2022-01-14T22:00:00 -2.25975 91.9689
2022-01-14T23:00:00 -2.31975 91.89436
2022-01-15T00:00:00 -2.56975 92.63716
2022-01-15T01:00:00 -2.80975 93.38918
2022-01-15T02:00:00 -3.24975 94.77796
2022-01-15T03:00:00 -3.42975 95.34119
2022-01-15T04:00:00 -3.64975 95.25468
2022-01-15T05:00:00 -3.80975 95.38886
2022-01-15T06:00:00 -3.79975 95.10026
2022-01-15T07:00:00 -4.12975 95.07797
2022-01-15T08:00:00 -3.14975 93.64522
2022-01-15T09:00:00 -1.43975 91.56062
2022-01-15T10:00:00 -0.46975 89.56211
2022-01-15T11:00:00 0.720245 85.48355
2022-01-15T12:00:00 2.040246 82.0258
2022-01-15T13:00:00 3.310246 79.7378
2022-01-15T14:00:00 3.550245 78.96703
2022-01-15T15:00:00 3.760245 75.67195
2022-01-15T16:00:00 2.900245 81.73642
2022-01-15T17:00:00 -0.24975 89.12063
2022-01-15T18:00:00 -0.87975 90.86382
2022-01-15T19:00:00 -1.55975 93.06796
2022-01-15T20:00:00 -1.89975 93.7402
2022-01-15T21:00:00 -2.03975 95.00155
2022-01-15T22:00:00 -2.04975 94.71696
2022-01-15T23:00:00 -2.17975 95.49171
2022-01-16T00:00:00 -2.28975 95.98696
2022-01-16T01:00:00 -2.30975 95.26925
2022-01-16T02:00:00 -2.01975 92.61359
2022-01-16T03:00:00 -1.82975 92.00683
2022-01-16T04:00:00 -1.86975 90.63267
2022-01-16T05:00:00 -1.94975 89.47334
2022-01-16T06:00:00 -2.10975 88.5834
2022-01-16T07:00:00 -2.32975 89.09541
2022-01-16T08:00:00 -1.95975 88.73407
2022-01-16T09:00:00 -0.84975 88.32796
2022-01-16T10:00:00 0.180245 83.27787
2022-01-16T11:00:00 0.760245 82.13383
2022-01-16T12:00:00 1.640245 77.07898
2022-01-16T13:00:00 2.310246 74.56149
2022-01-16T14:00:00 2.240245 74.43704
2022-01-16T15:00:00 2.010245 80.46583
2022-01-16T16:00:00 0.240245 86.05725
2022-01-16T17:00:00 -0.52975 88.23251
2022-01-16T18:00:00 -0.37975 87.39954
2022-01-16T19:00:00 0.130245 85.66037
2022-01-16T20:00:00 0.190245 83.83972
2022-01-16T21:00:00 0.590245 80.954
2022-01-16T22:00:00 0.660245 85.09678
2022-01-16T23:00:00 0.930245 83.63461
2022-01-17T00:00:00 0.930245 84.63074
2022-01-17T01:00:00 0.860245 86.19943
2022-01-17T02:00:00 0.750245 86.88882
2022-01-17T03:00:00 0.440245 89.72147
2022-01-17T04:00:00 0.840245 89.16953
2022-01-17T05:00:00 0.770245 89.35931
2022-01-17T06:00:00 0.680245 89.54763
2022-01-17T07:00:00 -0.06975 91.14165
2022-01-17T08:00:00 0.410245 90.38253
2022-01-17T09:00:00 1.720245 86.75017
2022-01-17T10:00:00 2.600246 83.381
2022-01-17T11:00:00 3.760245 80.1022
2022-01-17T12:00:00 4.590245 77.94728
2022-01-17T13:00:00 5.510245 74.69229
2022-01-17T14:00:00 5.910245 73.22135
2022-01-17T15:00:00 5.770245 74.74191
2022-01-17T16:00:00 4.580246 81.92911
2022-01-17T17:00:00 4.790245 80.73078
2022-01-17T18:00:00 3.670245 85.3014
2022-01-17T19:00:00 3.250246 86.93078
2022-01-17T20:00:00 2.960246 87.71939
2022-01-17T21:00:00 2.380245 89.65183
2022-01-17T22:00:00 2.320245 90.62714
2022-01-17T23:00:00 1.380245 92.88361
2022-01-18T00:00:00 1.040245 93.53877
2022-01-18T01:00:00 0.780245 94.55202
2022-01-18T02:00:00 0.560245 94.81526
2022-01-18T03:00:00 0.680245 94.54562
2022-01-18T04:00:00 0.640245 94.54308
2022-01-18T05:00:00 0.690245 94.68469
2022-01-18T06:00:00 0.690245 94.33896
2022-01-18T07:00:00 0.890245 94.21425
2022-01-18T08:00:00 1.430245 93.49822
2022-01-18T09:00:00 2.570245 92.30315
2022-01-18T10:00:00 3.790246 90.49851
2022-01-18T11:00:00 4.620246 87.33682
2022-01-18T12:00:00 5.630245 80.3988
2022-01-18T13:00:00 5.930245 75.69257
2022-01-18T14:00:00 6.060246 74.42126
2022-01-18T15:00:00 5.610245 75.41554
2022-01-18T16:00:00 3.850246 77.87499
2022-01-18T17:00:00 3.140245 80.2945
2022-01-18T18:00:00 2.600246 81.09433
2022-01-18T19:00:00 1.780245 83.38644
2022-01-18T20:00:00 1.210245 84.04615
2022-01-18T21:00:00 1.390245 83.7001
2022-01-18T22:00:00 0.900245 85.76006
2022-01-18T23:00:00 0.930245 86.84646
2022-01-19T00:00:00 1.210245 85.86297
2022-01-19T01:00:00 0.590245 88.22757
2022-01-19T02:00:00 0.320245 90.04107
2022-01-19T03:00:00 -0.02975 91.28013
2022-01-19T04:00:00 0.280245 90.57028
2022-01-19T05:00:00 0.020245 90.61251
2022-01-19T06:00:00 0.210245 91.16708
2022-01-19T07:00:00 -0.04975 91.81947
2022-01-19T08:00:00 -0.13975 91.40532
2022-01-19T09:00:00 1.290245 87.01757
2022-01-19T10:00:00 2.320245 83.46335
2022-01-19T11:00:00 2.830246 83.17055
2022-01-19T12:00:00 3.310246 81.32343
2022-01-19T13:00:00 3.600246 80.48537
2022-01-19T14:00:00 3.430245 80.57561
2022-01-19T15:00:00 3.370246 79.45715
2022-01-19T16:00:00 3.350246 78.41561
2022-01-19T17:00:00 3.350246 76.65568
2022-01-19T18:00:00 3.310246 75.47578
2022-01-19T19:00:00 3.050245 76.54421
2022-01-19T20:00:00 2.890245 78.10614
2022-01-19T21:00:00 2.850246 78.09913
2022-01-19T22:00:00 2.690246 78.47393
2022-01-19T23:00:00 2.610245 79.44677
2022-01-20T00:00:00 2.750246 80.34914
2022-01-20T01:00:00 2.570245 82.82996
2022-01-20T02:00:00 2.420245 86.1404
2022-01-20T03:00:00 2.180245 90.54862
2022-01-20T04:00:00 2.070245 92.9352
2022-01-20T05:00:00 2.060246 92.86711
2022-01-20T06:00:00 1.920245 93.1941
2022-01-20T07:00:00 1.960245 92.05446
2022-01-20T08:00:00 2.050245 91.46228
2022-01-20T09:00:00 2.600246 90.12911
2022-01-20T10:00:00 3.120246 90.17772
2022-01-20T11:00:00 4.240245 81.17164
2022-01-20T12:00:00 4.860245 74.62156
2022-01-20T13:00:00 5.200245 72.76151
2022-01-20T14:00:00 5.120246 73.16951
2022-01-20T15:00:00 4.570245 76.82157
2022-01-20T16:00:00 3.630245 80.9009
2022-01-20T17:00:00 3.030245 83.07795
2022-01-20T18:00:00 2.850246 85.32058
2022-01-20T19:00:00 1.930245 84.20783
2022-01-20T20:00:00 1.620246 84.41313
2022-01-20T21:00:00 1.010245 82.11118
2022-01-20T22:00:00 -0.18975 83.78519
2022-01-20T23:00:00 -0.19975 84.79093
2022-01-21T00:00:00 0.740245 83.48344
2022-01-21T01:00:00 1.010245 83.89395
2022-01-21T02:00:00 0.030245 88.3611
2022-01-21T03:00:00 0.230245 88.44878
2022-01-21T04:00:00 0.340245 89.05132
2022-01-21T05:00:00 -0.27975 90.92018
2022-01-21T06:00:00 -0.58975 90.82369
2022-01-21T07:00:00 -0.88975 90.45766
2022-01-21T08:00:00 -0.54975 89.55383
2022-01-21T09:00:00 0.720245 87.52899
2022-01-21T10:00:00 1.850245 78.85068
2022-01-21T11:00:00 2.570245 72.8099
2022-01-21T12:00:00 3.140245 66.71114
2022-01-21T13:00:00 3.510245 61.80475
2022-01-21T14:00:00 3.620246 60.13883
2022-01-21T15:00:00 3.490245 61.0612
2022-01-21T16:00:00 2.450245 66.7958
2022-01-21T17:00:00 1.570245 72.00516
2022-01-21T18:00:00 1.600245 73.04305
2022-01-21T19:00:00 1.050245 76.96984
2022-01-21T20:00:00 0.910245 78.21879
2022-01-21T21:00:00 0.680245 79.82986
2022-01-21T22:00:00 0.520245 81.00308
2022-01-21T23:00:00 0.720245 81.15601
2022-01-22T00:00:00 0.520245 81.30562
2022-01-22T01:00:00 -0.18975 83.47264
2022-01-22T02:00:00 -0.30975 83.95606
2022-01-22T03:00:00 -0.39975 85.01726
2022-01-22T04:00:00 -0.34975 85.02406
2022-01-22T05:00:00 -0.40975 84.88889
2022-01-22T06:00:00 -0.15975 83.85214
2022-01-22T07:00:00 0.300245 82.06295
2022-01-22T08:00:00 0.420245 82.57216
2022-01-22T09:00:00 1.230245 80.21937
2022-01-22T10:00:00 2.350246 75.68268
2022-01-22T11:00:00 3.520246 72.63023
2022-01-22T12:00:00 4.530245 69.50185
2022-01-22T13:00:00 5.250245 67.01136
2022-01-22T14:00:00 5.440245 66.66393
2022-01-22T15:00:00 5.550245 65.81625
2022-01-22T16:00:00 4.960245 68.13382
2022-01-22T17:00:00 3.440246 75.55597
2022-01-22T18:00:00 1.040245 85.33609
2022-01-22T19:00:00 0.490245 88.15128
2022-01-22T20:00:00 -0.01975 90.67575
2022-01-22T21:00:00 -0.98975 92.76719
2022-01-22T22:00:00 -0.57975 92.59389
2022-01-22T23:00:00 -0.84975 94.09589
2022-01-23T00:00:00 -0.80975 94.30815
2022-01-23T01:00:00 -0.95975 94.78883
2022-01-23T02:00:00 -1.15975 95.1991
2022-01-23T03:00:00 -1.25975 95.47621
2022-01-23T04:00:00 -1.28975 95.54538
2022-01-23T05:00:00 -1.33975 95.68454
2022-01-23T06:00:00 -0.70975 95.57944
2022-01-23T07:00:00 -0.76975 95.50528
2022-01-23T08:00:00 0.240245 93.82544
2022-01-23T09:00:00 1.050245 92.58744
2022-01-23T10:00:00 2.550245 88.12064
2022-01-23T11:00:00 3.710246 85.55316
2022-01-23T12:00:00 4.710245 79.33268
2022-01-23T13:00:00 5.590245 72.31457
2022-01-23T14:00:00 5.990245 69.97469
2022-01-23T15:00:00 5.640245 73.00885
2022-01-23T16:00:00 3.450245 77.52066
2022-01-23T17:00:00 2.400245 79.82155
2022-01-23T18:00:00 1.740246 82.10108
2022-01-23T19:00:00 0.910245 84.37795
2022-01-23T20:00:00 0.000245 86.79751
2022-01-23T21:00:00 -0.26975 87.08792
2022-01-23T22:00:00 -0.84975 87.2127
2022-01-23T23:00:00 -1.04975 88.30524
2022-01-24T00:00:00 -1.42975 88.66012
2022-01-24T01:00:00 -1.60975 89.17418
2022-01-24T02:00:00 -1.41975 90.47323
2022-01-24T03:00:00 -1.69975 90.17448
2022-01-24T04:00:00 -1.86975 90.0895
2022-01-24T05:00:00 -1.92975 89.61025
2022-01-24T06:00:00 -1.88975 89.47974
2022-01-24T07:00:00 -1.62975 89.03816
2022-01-24T08:00:00 -0.73975 86.96564
2022-01-24T09:00:00 0.430245 85.76296
2022-01-24T10:00:00 1.580245 81.71397
2022-01-24T11:00:00 2.580246 78.45484
2022-01-24T12:00:00 3.290246 75.86109
2022-01-24T13:00:00 4.010245 73.69732
2022-01-24T14:00:00 4.440246 72.87238
2022-01-24T15:00:00 4.260245 78.00317
2022-01-24T16:00:00 5.310246 68.76426
2022-01-24T17:00:00 3.850246 75.96612
2022-01-24T18:00:00 0.530245 85.83944
2022-01-24T19:00:00 -0.40975 89.03735
2022-01-24T20:00:00 -0.65975 90.01015
2022-01-24T21:00:00 -0.63975 89.81146
2022-01-24T22:00:00 -0.38975 88.31406
2022-01-24T23:00:00 -0.56975 87.31168
2022-01-25T00:00:00 -0.98975 88.31207
2022-01-25T01:00:00 -1.49975 90.05962
2022-01-25T02:00:00 -1.73975 90.23816
2022-01-25T03:00:00 -1.86975 90.90534
2022-01-25T04:00:00 -2.09975 91.70699
2022-01-25T05:00:00 -2.08975 92.05308
2022-01-25T06:00:00 -2.36975 92.72369
2022-01-25T07:00:00 -2.57975 93.54802
2022-01-25T08:00:00 -1.60975 92.44
2022-01-25T09:00:00 0.110245 91.15803
2022-01-25T10:00:00 0.640245 88.42862
2022-01-25T11:00:00 2.120246 82.09824
2022-01-25T12:00:00 3.470245 77.12813
2022-01-25T13:00:00 4.610245 71.90202
2022-01-25T14:00:00 5.180245 72.1254
2022-01-25T15:00:00 5.600246 69.1308
2022-01-25T16:00:00 4.290246 76.38094
2022-01-25T17:00:00 2.040246 83.85315
2022-01-25T18:00:00 0.250245 89.63604
2022-01-25T19:00:00 -1.03975 93.03956
2022-01-25T20:00:00 -1.06975 93.24503
2022-01-25T21:00:00 -1.52975 93.13985
2022-01-25T22:00:00 -1.28975 92.12254
2022-01-25T23:00:00 -1.60975 92.02605
2022-01-26T00:00:00 -1.97975 92.33946
2022-01-26T01:00:00 -2.28975 92.45182
2022-01-26T02:00:00 -2.54975 92.1513
2022-01-26T03:00:00 -2.78975 92.26946
2022-01-26T04:00:00 -2.66975 91.9323
2022-01-26T05:00:00 -2.72975 91.85749
2022-01-26T06:00:00 -2.61975 91.72884
2022-01-26T07:00:00 -2.82975 92.96558
2022-01-26T08:00:00 -1.92975 92.48232
2022-01-26T09:00:00 -0.76975 90.94186
2022-01-26T10:00:00 -0.58975 91.56858
2022-01-26T11:00:00 0.000245 87.63958
2022-01-26T12:00:00 0.710245 85.29267
2022-01-26T13:00:00 1.370246 83.02048
2022-01-26T14:00:00 1.840245 80.91454
2022-01-26T15:00:00 2.040246 86.53514
2022-01-26T16:00:00 2.700245 83.21272
2022-01-26T17:00:00 1.650245 87.50774
2022-01-26T18:00:00 0.870245 91.62856
2022-01-26T19:00:00 -0.16975 92.42187
2022-01-26T20:00:00 -1.10975 93.17262
2022-01-26T21:00:00 -1.96975 94.29805
2022-01-26T22:00:00 -1.60975 92.44
2022-01-26T23:00:00 -1.77975 93.46912
2022-01-27T00:00:00 -2.55975 93.26823
2022-01-27T01:00:00 -2.90975 94.01789
2022-01-27T02:00:00 -3.07975 94.00526
2022-01-27T03:00:00 -3.26975 94.20472
2022-01-27T04:00:00 -3.26975 94.06223
2022-01-27T05:00:00 -3.33975 92.92337
2022-01-27T06:00:00 -3.13975 92.16885
2022-01-27T07:00:00 -3.82975 93.87727
2022-01-27T08:00:00 -2.45975 91.32928
2022-01-27T09:00:00 -1.66975 90.17752
2022-01-27T10:00:00 -1.62975 87.05167
2022-01-27T11:00:00 -1.05975 81.78803
2022-01-27T12:00:00 -0.38975 78.81211
2022-01-27T13:00:00 0.560245 76.07494
2022-01-27T14:00:00 1.220245 75.29562
2022-01-27T15:00:00 1.590245 77.41422
2022-01-27T16:00:00 0.440245 85.51025
2022-01-27T17:00:00 0.360245 86.07254
2022-01-27T18:00:00 0.310245 85.93855
2022-01-27T19:00:00 0.030245 87.57807
2022-01-27T20:00:00 0.540245 86.0954
2022-01-27T21:00:00 1.070245 86.67162
2022-01-27T22:00:00 1.320245 90.46886
2022-01-27T23:00:00 1.440245 92.95583
2022-01-28T00:00:00 1.380245 94.45232
2022-01-28T01:00:00 1.420245 93.77017
2022-01-28T02:00:00 1.330245 94.31176
2022-01-28T03:00:00 1.440245 94.18175
2022-01-28T04:00:00 1.330245 93.42305
2022-01-28T05:00:00 1.130245 93.40871
2022-01-28T06:00:00 1.390245 92.8167
2022-01-28T07:00:00 1.400245 93.22411
2022-01-28T08:00:00 1.080245 93.7467
2022-01-28T09:00:00 1.700245 92.1674
2022-01-28T10:00:00 2.680245 92.17857
2022-01-28T11:00:00 3.610245 90.93797
2022-01-28T12:00:00 4.360245 89.90533
2022-01-28T13:00:00 5.130245 85.36179
2022-01-28T14:00:00 5.600246 79.87762
2022-01-28T15:00:00 5.650245 79.82838
2022-01-28T16:00:00 4.670245 83.30884
2022-01-28T17:00:00 4.340245 83.98547
2022-01-28T18:00:00 3.910245 84.77974
2022-01-28T19:00:00 3.400245 86.82265
2022-01-28T20:00:00 2.320245 89.51582
2022-01-28T21:00:00 1.330245 92.13747
2022-01-28T22:00:00 0.620245 93.1666
2022-01-28T23:00:00 0.000245 93.326
2022-01-29T00:00:00 -0.05975 92.49907
2022-01-29T01:00:00 -0.73975 93.89463
2022-01-29T02:00:00 -0.77975 95.08159
2022-01-29T03:00:00 -0.29975 94.27307
2022-01-29T04:00:00 -0.25975 94.76371
2022-01-29T05:00:00 -0.39975 93.64154
2022-01-29T06:00:00 -0.40975 94.05695
2022-01-29T07:00:00 0.070245 95.62412
2022-01-29T08:00:00 0.500245 93.91248
2022-01-29T09:00:00 1.310245 91.86717
2022-01-29T10:00:00 2.700245 84.00591
2022-01-29T11:00:00 4.070245 76.22923
2022-01-29T12:00:00 4.970245 72.45052
2022-01-29T13:00:00 5.840245 71.42886
2022-01-29T14:00:00 6.430245 71.34567
2022-01-29T15:00:00 6.290245 73.08603
2022-01-29T16:00:00 5.900245 76.67247
2022-01-29T17:00:00 5.580246 81.02638
2022-01-29T18:00:00 5.540245 84.14509
2022-01-29T19:00:00 5.630245 84.33681
2022-01-29T20:00:00 5.840245 84.30412
2022-01-29T21:00:00 6.010245 83.61088
2022-01-29T22:00:00 5.720245 85.55582
2022-01-29T23:00:00 5.810246 85.50606
2022-01-30T00:00:00 5.640245 86.76931
2022-01-30T01:00:00 5.790245 86.72482
2022-01-30T02:00:00 5.680245 88.95107
2022-01-30T03:00:00 5.650245 90.15039
2022-01-30T04:00:00 5.630245 90.02137
2022-01-30T05:00:00 5.560246 91.03799
2022-01-30T06:00:00 5.500245 91.41945
2022-01-30T07:00:00 5.300245 91.79186
2022-01-30T08:00:00 5.390245 91.92852
2022-01-30T09:00:00 6.020245 89.36123
2022-01-30T10:00:00 6.940245 86.00383
2022-01-30T11:00:00 7.880245 80.51638
2022-01-30T12:00:00 8.400246 74.33548
2022-01-30T13:00:00 8.910245 66.98169
2022-01-30T14:00:00 8.660245 67.69294
2022-01-30T15:00:00 8.560246 65.85819
2022-01-30T16:00:00 7.360245 69.06873
2022-01-30T17:00:00 7.050245 71.47434
2022-01-30T18:00:00 5.790245 77.87341
2022-01-30T19:00:00 4.540246 81.92319
2022-01-30T20:00:00 2.790246 87.25627
2022-01-30T21:00:00 0.570245 92.68554
2022-01-30T22:00:00 1.120246 90.25142
2022-01-30T23:00:00 1.130245 90.31855
2022-01-31T00:00:00 1.130245 89.46179
2022-01-31T01:00:00 1.710245 87.89967
2022-01-31T02:00:00 1.930245 85.70246
2022-01-31T03:00:00 3.900245 81.70941
2022-01-31T04:00:00 5.070245 81.64899
2022-01-31T05:00:00 5.340245 82.51167
2022-01-31T06:00:00 5.380245 81.81206
2022-01-31T07:00:00 5.280245 82.79876
2022-01-31T08:00:00 4.700245 86.29083
2022-01-31T09:00:00 4.430245 89.20871
2022-01-31T10:00:00 5.090245 88.51485
2022-01-31T11:00:00 5.180245 88.27278
2022-01-31T12:00:00 5.580246 86.76252
2022-01-31T13:00:00 5.550245 81.95411
2022-01-31T14:00:00 5.700245 78.86994
2022-01-31T15:00:00 5.630245 74.49975
2022-01-31T16:00:00 5.140245 75.43656
2022-01-31T17:00:00 4.530245 76.7029
2022-01-31T18:00:00 4.440246 73.72909
2022-01-31T19:00:00 4.220245 72.93424
2022-01-31T20:00:00 3.730246 76.16625
2022-01-31T21:00:00 3.240245 79.43554
2022-01-31T22:00:00 3.190246 80.30256
2022-01-31T23:00:00 3.080246 81.34725
2022-02-01T00:00:00 3.130245 81.11788
2022-02-01T01:00:00 3.240245 79.55172
2022-02-01T02:00:00 3.270246 78.34444
2022-02-01T03:00:00 3.130245 79.41721
2022-02-01T04:00:00 3.100246 79.64494
2022-02-01T05:00:00 2.890245 80.84357
2022-02-01T06:00:00 2.680245 80.81032
2022-02-01T07:00:00 2.620246 80.15151
2022-02-01T08:00:00 2.760245 79.41358
2022-02-01T09:00:00 2.980246 78.06462
2022-02-01T10:00:00 3.240245 74.14127
2022-02-01T11:00:00 3.330246 72.32349
2022-02-01T12:00:00 3.420245 73.09282
2022-02-01T13:00:00 3.760245 70.36186
2022-02-01T14:00:00 3.780245 70.73052
2022-02-01T15:00:00 3.760245 73.80964
2022-02-01T16:00:00 3.790246 76.84831
2022-02-01T17:00:00 3.210246 87.43051
2022-02-01T18:00:00 3.040246 92.14044
2022-02-01T19:00:00 3.340245 92.23003
2022-02-01T20:00:00 3.870246 92.07307
2022-02-01T21:00:00 4.200245 92.95538
2022-02-01T22:00:00 4.500246 93.57235
2022-02-01T23:00:00 4.970245 93.60277
2022-02-02T00:00:00 5.320245 93.9556
2022-02-02T01:00:00 5.650245 94.37252
2022-02-02T02:00:00 6.080246 94.72778
2022-02-02T03:00:00 6.320245 95.13823
2022-02-02T04:00:00 6.780245 93.781
2022-02-02T05:00:00 7.090245 93.2148
2022-02-02T06:00:00 7.260245 93.54967
2022-02-02T07:00:00 7.460245 92.85136
2022-02-02T08:00:00 7.770245 91.9128
2022-02-02T09:00:00 8.150246 90.42831
2022-02-02T10:00:00 8.490246 88.97006
2022-02-02T11:00:00 8.560246 89.22266
2022-02-02T12:00:00 8.740245 90.2281
2022-02-02T13:00:00 8.880245 90.42611
2022-02-02T14:00:00 9.060246 90.37873
2022-02-02T15:00:00 9.100245 91.06664
2022-02-02T16:00:00 9.080245 91.44051
2022-02-02T17:00:00 8.790245 93.12885
2022-02-02T18:00:00 8.590245 94.20907
2022-02-02T19:00:00 8.320246 95.30062
2022-02-02T20:00:00 8.120246 96.01434
2022-02-02T21:00:00 7.990245 96.33957
2022-02-02T22:00:00 7.700245 97.32829
2022-02-02T23:00:00 7.420245 97.3866
2022-02-03T00:00:00 7.340245 97.45132
2022-02-03T01:00:00 7.100246 97.04041
2022-02-03T02:00:00 6.900245 96.76491
2022-02-03T03:00:00 6.520245 96.75077
2022-02-03T04:00:00 6.530245 96.68391
2022-02-03T05:00:00 6.320245 96.67589
2022-02-03T06:00:00 6.020245 97.61318
2022-02-03T07:00:00 5.830246 98.22244
2022-02-03T08:00:00 5.980245 97.54385
2022-02-03T09:00:00 6.210245 95.59875
2022-02-03T10:00:00 6.670245 91.89585
2022-02-03T11:00:00 6.970245 90.83479
2022-02-03T12:00:00 7.450245 89.30666
2022-02-03T13:00:00 8.330246 85.92416
2022-02-03T14:00:00 8.700245 83.43933
2022-02-03T15:00:00 8.710245 85.01954
2022-02-03T16:00:00 7.380245 89.54945
2022-02-03T17:00:00 6.850246 90.76152
2022-02-03T18:00:00 6.470245 91.81664
2022-02-03T19:00:00 5.980245 92.81646
2022-02-03T20:00:00 5.450245 91.86826
2022-02-03T21:00:00 5.160245 91.45687
2022-02-03T22:00:00 4.490245 92.77777
2022-02-03T23:00:00 3.720245 93.58769
2022-02-04T00:00:00 3.960246 94.34
2022-02-04T01:00:00 4.440246 95.44501
2022-02-04T02:00:00 5.450245 95.29436
2022-02-04T03:00:00 5.660245 95.50563
2022-02-04T04:00:00 5.440245 93.56683
2022-02-04T05:00:00 5.420245 91.99572
2022-02-04T06:00:00 5.520245 90.71384
2022-02-04T07:00:00 5.360245 90.31605
2022-02-04T08:00:00 4.980245 88.88217
2022-02-04T09:00:00 4.980245 88.12654
2022-02-04T10:00:00 5.780245 87.5877
2022-02-04T11:00:00 6.230245 85.92059
2022-02-04T12:00:00 6.880245 83.72671
2022-02-04T13:00:00 7.050245 82.11222
2022-02-04T14:00:00 7.270245 79.80088
2022-02-04T15:00:00 7.520245 75.65956
2022-02-04T16:00:00 7.600246 73.81561
2022-02-04T17:00:00 7.860245 73.18662
2022-02-04T18:00:00 8.000245 74.1548
2022-02-04T19:00:00 7.990245 75.79833
2022-02-04T20:00:00 7.980245 77.63829
2022-02-04T21:00:00 8.010245 79.13368
2022-02-04T22:00:00 7.890245 81.94323
2022-02-04T23:00:00 7.410245 83.79631
2022-02-05T00:00:00 6.430245 84.97879
2022-02-05T01:00:00 4.950245 84.79208
2022-02-05T02:00:00 3.880245 84.47047
2022-02-05T03:00:00 3.170245 82.97713
2022-02-05T04:00:00 2.370246 84.51473
2022-02-05T05:00:00 1.350246 86.1338
2022-02-05T06:00:00 0.870245 87.16003
2022-02-05T07:00:00 0.500245 87.95725
2022-02-05T08:00:00 0.950245 88.91913
2022-02-05T09:00:00 2.880245 82.21233
2022-02-05T10:00:00 4.100246 74.52864
2022-02-05T11:00:00 5.740245 68.76022
2022-02-05T12:00:00 6.770245 64.21114
2022-02-05T13:00:00 7.470245 62.1788
2022-02-05T14:00:00 8.060246 57.03872
2022-02-05T15:00:00 7.920245 56.25469
2022-02-05T16:00:00 6.670245 62.79728
2022-02-05T17:00:00 4.060246 73.76128
2022-02-05T18:00:00 3.190246 78.44537
2022-02-05T19:00:00 2.550245 81.74284
2022-02-05T20:00:00 1.420245 84.88446
2022-02-05T21:00:00 1.050245 85.14864
2022-02-05T22:00:00 1.320245 86.76571
2022-02-05T23:00:00 1.460245 85.07742
2022-02-06T00:00:00 1.460245 83.71002
2022-02-06T01:00:00 1.500245 84.02465
2022-02-06T02:00:00 1.410245 84.38442
2022-02-06T03:00:00 1.980245 84.09123
2022-02-06T04:00:00 2.630245 81.33704
2022-02-06T05:00:00 2.970245 79.44866
2022-02-06T06:00:00 3.640245 76.0381
2022-02-06T07:00:00 4.100246 74.09387
2022-02-06T08:00:00 4.590245 72.47821
2022-02-06T09:00:00 5.630245 70.92
2022-02-06T10:00:00 6.290245 70.85441
2022-02-06T11:00:00 6.590245 72.20559
2022-02-06T12:00:00 6.850246 69.55601
2022-02-06T13:00:00 7.170245 70.07713
2022-02-06T14:00:00 7.460245 70.34034
2022-02-06T15:00:00 6.860245 77.66777
2022-02-06T16:00:00 6.330246 86.48003
2022-02-06T17:00:00 6.300245 88.94854
2022-02-06T18:00:00 6.410245 88.39803
2022-02-06T19:00:00 6.550245 86.99368
2022-02-06T20:00:00 6.890245 85.81685
2022-02-06T21:00:00 7.150245 85.54672
2022-02-06T22:00:00 7.400245 84.44437
2022-02-06T23:00:00 7.780245 83.78582
2022-02-07T00:00:00 8.170245 84.95425
2022-02-07T01:00:00 8.490246 86.30093
2022-02-07T02:00:00 7.930245 83.57125
2022-02-07T03:00:00 5.990245 74.99931
2022-02-07T04:00:00 5.340245 70.75521
2022-02-07T05:00:00 4.560246 70.2778
2022-02-07T06:00:00 3.930245 70.45091
2022-02-07T07:00:00 3.300245 72.4776
2022-02-07T08:00:00 4.050245 70.84103
2022-02-07T09:00:00 5.060246 63.64843
2022-02-07T10:00:00 5.450245 65.1197
2022-02-07T11:00:00 6.060246 60.60422
2022-02-07T12:00:00 6.890245 54.70134
2022-02-07T13:00:00 7.230245 53.15947
2022-02-07T14:00:00 7.490245 50.05322
2022-02-07T15:00:00 7.660245 48.16227
2022-02-07T16:00:00 6.320245 56.22757
2022-02-07T17:00:00 3.310246 66.65227
2022-02-07T18:00:00 1.970245 74.16215
2022-02-07T19:00:00 0.910245 78.1021
2022-02-07T20:00:00 0.060245 81.11051
2022-02-07T21:00:00 -0.47975 82.99345
2022-02-07T22:00:00 -1.36975 84.69233
2022-02-07T23:00:00 -1.68975 85.48277
2022-02-08T00:00:00 -1.48975 84.73943
2022-02-08T01:00:00 -1.19975 84.33428
2022-02-08T02:00:00 -0.81975 84.19827
2022-02-08T03:00:00 -0.46975 84.81721
2022-02-08T04:00:00 -0.43975 86.227
2022-02-08T05:00:00 -0.19975 86.70834
2022-02-08T06:00:00 0.060245 85.84255
2022-02-08T07:00:00 0.490245 83.014
2022-02-08T08:00:00 1.360246 80.718
2022-02-08T09:00:00 3.240245 73.92308
2022-02-08T10:00:00 5.140245 65.04449
2022-02-08T11:00:00 7.300245 58.9982
2022-02-08T12:00:00 8.650246 54.95175
2022-02-08T13:00:00 9.760245 51.27383
2022-02-08T14:00:00 10.29025 49.91391
2022-02-08T15:00:00 10.82025 47.1993
2022-02-08T16:00:00 10.10025 52.96266
2022-02-08T17:00:00 7.950245 60.95968
2022-02-08T18:00:00 4.950245 73.61569
2022-02-08T19:00:00 2.720245 82.30869
2022-02-08T20:00:00 2.120246 84.60487
2022-02-08T21:00:00 1.730245 86.68784
2022-02-08T22:00:00 1.280245 89.54256
2022-02-08T23:00:00 0.560245 91.06455
2022-02-09T00:00:00 0.050245 91.82806
2022-02-09T01:00:00 -0.30975 91.93302
2022-02-09T02:00:00 -0.48975 92.66977
2022-02-09T03:00:00 -0.56975 94.39425
2022-02-09T04:00:00 -0.78975 95.15137
2022-02-09T05:00:00 -1.13975 95.55427
2022-02-09T06:00:00 -1.39975 94.76012
2022-02-09T07:00:00 -1.59975 95.3136
2022-02-09T08:00:00 -0.05975 92.15828
2022-02-09T09:00:00 2.880245 84.15305
2022-02-09T10:00:00 4.840245 77.09306
2022-02-09T11:00:00 7.180245 69.77784
2022-02-09T12:00:00 9.180245 62.69477
2022-02-09T13:00:00 10.93025 56.37906
2022-02-09T14:00:00 12.14025 51.10131
2022-02-09T15:00:00 12.77025 49.44453
2022-02-09T16:00:00 10.45025 62.73793
2022-02-09T17:00:00 6.300245 74.62782
2022-02-09T18:00:00 4.450245 80.91121
2022-02-09T19:00:00 3.220245 84.87399
2022-02-09T20:00:00 2.790246 85.68602
2022-02-09T21:00:00 2.190245 87.56934
2022-02-09T22:00:00 1.640245 87.63484
2022-02-09T23:00:00 1.180245 89.66386
2022-02-10T00:00:00 0.940245 90.03565
2022-02-10T01:00:00 0.440245 90.98663
2022-02-10T02:00:00 0.710245 90.27835
2022-02-10T03:00:00 0.700245 88.89261
2022-02-10T04:00:00 0.630245 90.73669
2022-02-10T05:00:00 0.840245 90.35718
2022-02-10T06:00:00 1.240245 89.34188
2022-02-10T07:00:00 1.210245 89.4699
2022-02-10T08:00:00 2.960246 84.83997
2022-02-10T09:00:00 5.880245 77.9447
2022-02-10T10:00:00 8.400246 69.49248
2022-02-10T11:00:00 9.750245 67.50436
2022-02-10T12:00:00 10.27025 67.19264
2022-02-10T13:00:00 10.69025 66.02177
2022-02-10T14:00:00 10.52025 67.39027
2022-02-10T15:00:00 10.31025 69.02074
2022-02-10T16:00:00 9.560246 74.813
2022-02-10T17:00:00 10.62025 69.18372
2022-02-10T18:00:00 9.130245 75.63023
2022-02-10T19:00:00 8.640245 79.67852
2022-02-10T20:00:00 8.890245 80.16341
2022-02-10T21:00:00 8.790245 83.50908
2022-02-10T22:00:00 8.760245 82.40932
2022-02-10T23:00:00 7.790245 88.47283
2022-02-11T00:00:00 7.750245 89.76965
2022-02-11T01:00:00 8.030246 89.35976
2022-02-11T02:00:00 7.790245 90.7123
2022-02-11T03:00:00 7.260245 89.97662
2022-02-11T04:00:00 6.490245 87.66319
2022-02-11T05:00:00 5.390245 86.98785
2022-02-11T06:00:00 4.590245 85.4169
2022-02-11T07:00:00 3.970245 84.78753
2022-02-11T08:00:00 4.250246 81.23189
2022-02-11T09:00:00 4.870246 77.15422
2022-02-11T10:00:00 5.470245 69.50618
2022-02-11T11:00:00 5.990245 66.59798
2022-02-11T12:00:00 6.800245 62.10013
2022-02-11T13:00:00 7.040245 60.63666
2022-02-11T14:00:00 6.990245 59.30611
2022-02-11T15:00:00 6.870246 58.66787
2022-02-11T16:00:00 6.390245 58.62563
2022-02-11T17:00:00 4.340245 69.15366
2022-02-11T18:00:00 4.050245 69.85692
2022-02-11T19:00:00 3.100246 73.29749
2022-02-11T20:00:00 1.890245 77.06774
2022-02-11T21:00:00 -0.31975 84.64787
2022-02-11T22:00:00 -0.89975 87.53346
2022-02-11T23:00:00 -1.86975 90.29285
2022-02-12T00:00:00 -2.20975 90.87253
2022-02-12T01:00:00 -2.42975 90.64571
2022-02-12T02:00:00 -2.46975 90.77869
2022-02-12T03:00:00 -2.40975 90.57931
2022-02-12T04:00:00 -2.91975 90.66557
2022-02-12T05:00:00 -2.99975 90.45152
2022-02-12T06:00:00 -3.05975 90.37682
2022-02-12T07:00:00 -2.92975 91.21574
2022-02-12T08:00:00 -0.96975 89.64373
2022-02-12T09:00:00 0.820245 82.93955
2022-02-12T10:00:00 2.390245 74.96521
2022-02-12T11:00:00 3.680245 66.74041
2022-02-12T12:00:00 4.790245 59.82264
2022-02-12T13:00:00 5.560246 56.22522
2022-02-12T14:00:00 6.040245 53.89446
2022-02-12T15:00:00 6.120246 53.6362
2022-02-12T16:00:00 4.960245 66.64891
2022-02-12T17:00:00 2.630245 73.63674
2022-02-12T18:00:00 1.350246 79.94218
2022-02-12T19:00:00 0.510245 84.25996
2022-02-12T20:00:00 0.290245 85.49056
2022-02-12T21:00:00 -0.23975 87.74191
2022-02-12T22:00:00 -0.51975 86.08808
2022-02-12T23:00:00 -0.66975 86.71467
2022-02-13T00:00:00 -0.86975 86.30109
2022-02-13T01:00:00 -0.68975 86.77701
2022-02-13T02:00:00 -0.74975 85.73686
2022-02-13T03:00:00 -0.94975 86.48508
2022-02-13T04:00:00 -0.92975 86.87717
2022-02-13T05:00:00 -1.13975 87.37372
2022-02-13T06:00:00 -1.39975 88.06674
2022-02-13T07:00:00 -1.28975 87.02827
2022-02-13T08:00:00 0.540245 83.82732
2022-02-13T09:00:00 3.200245 77.41927
2022-02-13T10:00:00 5.870246 69.34161
2022-02-13T11:00:00 8.120246 61.66929
2022-02-13T12:00:00 9.850245 54.33119
2022-02-13T13:00:00 11.16025 48.94418
2022-02-13T14:00:00 11.80025 47.28162
2022-02-13T15:00:00 11.67025 45.32412
2022-02-13T16:00:00 10.06025 52.41611
2022-02-13T17:00:00 5.820245 66.55816
2022-02-13T18:00:00 3.830246 75.79594
2022-02-13T19:00:00 3.120246 77.34816
2022-02-13T20:00:00 2.910245 77.7091
2022-02-13T21:00:00 2.800245 75.60095
2022-02-13T22:00:00 2.510245 76.89684
2022-02-13T23:00:00 1.920245 78.2236
2022-02-14T00:00:00 1.490245 80.32166
2022-02-14T01:00:00 1.470245 79.96216
2022-02-14T02:00:00 0.990245 80.23931
2022-02-14T03:00:00 0.610245 81.68411
2022-02-14T04:00:00 0.480245 81.96854
2022-02-14T05:00:00 0.780245 80.44384
2022-02-14T06:00:00 1.490245 76.82231
2022-02-14T07:00:00 2.290246 73.95122
2022-02-14T08:00:00 2.760245 77.34019
2022-02-14T09:00:00 3.870246 77.99207
2022-02-14T10:00:00 5.510245 76.98973
2022-02-14T11:00:00 5.800245 83.70163
2022-02-14T12:00:00 6.450245 84.38287
2022-02-14T13:00:00 7.540245 80.69183
2022-02-14T14:00:00 7.280245 81.97147
2022-02-14T15:00:00 7.030245 84.8737
2022-02-14T16:00:00 6.960245 85.7648
2022-02-14T17:00:00 6.680245 88.6114
2022-02-14T18:00:00 6.520245 89.78514
2022-02-14T19:00:00 6.340245 90.33796
2022-02-14T20:00:00 5.850246 91.76952
2022-02-14T21:00:00 5.540245 92.52499
2022-02-14T22:00:00 5.120246 92.56019
2022-02-14T23:00:00 4.930245 93.53405
2022-02-15T00:00:00 4.630245 93.8465
2022-02-15T01:00:00 4.880245 92.41184
2022-02-15T02:00:00 5.090245 91.45126
2022-02-15T03:00:00 5.390245 91.92852
2022-02-15T04:00:00 5.890245 92.68001
2022-02-15T05:00:00 5.790245 94.24821
2022-02-15T06:00:00 5.870246 93.98883
2022-02-15T07:00:00 5.870246 93.33168
2022-02-15T08:00:00 5.880245 93.136
2022-02-15T09:00:00 6.250245 91.6071
2022-02-15T10:00:00 7.020245 85.29115
2022-02-15T11:00:00 7.540245 82.06625
2022-02-15T12:00:00 7.460245 77.82493
2022-02-15T13:00:00 7.660245 75.73869
2022-02-15T14:00:00 7.980245 71.35977
2022-02-15T15:00:00 7.530245 72.39552
2022-02-15T16:00:00 6.900245 74.84827
2022-02-15T17:00:00 6.120246 80.01719
2022-02-15T18:00:00 4.970245 84.67344
2022-02-15T19:00:00 4.360245 85.32694
2022-02-15T20:00:00 3.930245 83.68794
2022-02-15T21:00:00 3.910245 81.00328
2022-02-15T22:00:00 4.800245 74.936
2022-02-15T23:00:00 5.180245 73.3944
2022-02-16T00:00:00 5.540245 72.51432
2022-02-16T01:00:00 5.960245 72.65203
2022-02-16T02:00:00 6.250245 72.39677
2022-02-16T03:00:00 6.420245 74.38329
2022-02-16T04:00:00 6.500245 77.88337
2022-02-16T05:00:00 6.490245 80.81854
2022-02-16T06:00:00 6.570245 83.80405
2022-02-16T07:00:00 6.630245 86.21015
2022-02-16T08:00:00 6.850246 87.39391
2022-02-16T09:00:00 7.190245 87.55252
2022-02-16T10:00:00 7.290245 88.11547
2022-02-16T11:00:00 7.780245 88.22604
2022-02-16T12:00:00 8.240246 88.57788
2022-02-16T13:00:00 8.760245 87.65414
2022-02-16T14:00:00 9.000245 87.67853
2022-02-16T15:00:00 9.240245 87.82355
2022-02-16T16:00:00 9.500245 88.15144
2022-02-16T17:00:00 9.530245 90.10828
2022-02-16T18:00:00 9.860246 89.82855
2022-02-16T19:00:00 10.10025 89.97133
2022-02-16T20:00:00 10.29025 91.09472
2022-02-16T21:00:00 10.75025 90.51418
2022-02-16T22:00:00 10.94025 90.16245
2022-02-16T23:00:00 11.24025 90.55235
2022-02-17T00:00:00 11.62025 87.99572
2022-02-17T01:00:00 11.71025 86.12343
2022-02-17T02:00:00 11.93025 83.79256
2022-02-17T03:00:00 11.74025 85.6042
2022-02-17T04:00:00 11.77025 87.24188
2022-02-17T05:00:00 12.15025 85.36147
2022-02-17T06:00:00 12.48025 82.79215
2022-02-17T07:00:00 12.66025 81.04584
2022-02-17T08:00:00 12.91025 77.80471
2022-02-17T09:00:00 12.62025 77.7054
2022-02-17T10:00:00 12.35025 73.32974
2022-02-17T11:00:00 12.37025 69.31172
2022-02-17T12:00:00 12.62025 65.81562
2022-02-17T13:00:00 12.90025 63.5472
2022-02-17T14:00:00 12.50025 68.38855
2022-02-17T15:00:00 12.12025 67.97676
2022-02-17T16:00:00 11.83025 67.20945
2022-02-17T17:00:00 11.23025 67.0298
2022-02-17T18:00:00 10.89025 65.78951
2022-02-17T19:00:00 10.56025 66.17816
2022-02-17T20:00:00 10.24025 66.43246
2022-02-17T21:00:00 10.00025 67.36955
2022-02-17T22:00:00 9.420245 66.29237
2022-02-17T23:00:00 8.460245 70.70141
2022-02-18T00:00:00 8.400246 71.64893
2022-02-18T01:00:00 8.170245 73.71576
2022-02-18T02:00:00 7.490245 78.49346
2022-02-18T03:00:00 7.700245 79.41921
2022-02-18T04:00:00 8.220245 80.17338
2022-02-18T05:00:00 8.790245 78.65038
2022-02-18T06:00:00 8.980246 78.84603
2022-02-18T07:00:00 9.540245 76.28711
2022-02-18T08:00:00 10.29025 74.84198
2022-02-18T09:00:00 11.79025 70.83853
2022-02-18T10:00:00 12.71025 71.80664
2022-02-18T11:00:00 13.38025 68.8578
2022-02-18T12:00:00 14.09025 65.73808
2022-02-18T13:00:00 14.78025 62.59912
2022-02-18T14:00:00 15.23025 60.30543
2022-02-18T15:00:00 15.24025 59.44432
2022-02-18T16:00:00 15.03025 60.67165
2022-02-18T17:00:00 15.27025 61.06414
2022-02-18T18:00:00 13.67025 69.01271
2022-02-18T19:00:00 11.08025 73.9041
2022-02-18T20:00:00 8.590245 67.77386
2022-02-18T21:00:00 7.870246 70.42703
2022-02-18T22:00:00 7.690245 75.90533
2022-02-18T23:00:00 7.420245 75.85658
2022-02-19T00:00:00 7.260245 76.96758
2022-02-19T01:00:00 7.100246 74.9392
2022-02-19T02:00:00 6.710245 74.97327
2022-02-19T03:00:00 6.060246 76.42644
2022-02-19T04:00:00 5.620246 77.7324
2022-02-19T05:00:00 5.440245 78.26223
2022-02-19T06:00:00 5.230245 79.47492
2022-02-19T07:00:00 5.100246 80.48911
2022-02-19T08:00:00 5.830246 76.88056
2022-02-19T09:00:00 6.720245 71.56023
2022-02-19T10:00:00 7.420245 60.86787
2022-02-19T11:00:00 8.040245 54.06227
2022-02-19T12:00:00 8.720245 46.88615
2022-02-19T13:00:00 8.870245 44.34856
2022-02-19T14:00:00 9.140245 43.41438
2022-02-19T15:00:00 9.130245 42.83072
2022-02-19T16:00:00 8.520246 44.9766
2022-02-19T17:00:00 6.350246 52.2777
2022-02-19T18:00:00 5.160245 57.98958
2022-02-19T19:00:00 5.010245 57.64622
2022-02-19T20:00:00 4.480246 60.36797
2022-02-19T21:00:00 4.110245 61.4996
2022-02-19T22:00:00 4.700245 58.69223
2022-02-19T23:00:00 5.100246 57.11338
2022-02-20T00:00:00 5.790245 54.83867
2022-02-20T01:00:00 6.070245 57.46557
2022-02-20T02:00:00 5.940245 61.65381
2022-02-20T03:00:00 5.980245 64.20541
2022-02-20T04:00:00 5.950245 68.2092
2022-02-20T05:00:00 5.950245 71.34848
2022-02-20T06:00:00 5.920245 73.80681
2022-02-20T07:00:00 5.980245 75.59305
2022-02-20T08:00:00 6.520245 74.29579
2022-02-20T09:00:00 7.350246 72.61829
2022-02-20T10:00:00 8.400246 71.8525
2022-02-20T11:00:00 9.150246 68.62463
2022-02-20T12:00:00 9.730246 67.02423
2022-02-20T13:00:00 9.780245 67.74992
2022-02-20T14:00:00 10.19025 66.56184
2022-02-20T15:00:00 10.35025 65.6191
2022-02-20T16:00:00 10.20025 65.72363
2022-02-20T17:00:00 10.09025 66.49222
2022-02-20T18:00:00 9.900246 67.63311
2022-02-20T19:00:00 9.870245 68.87782
2022-02-20T20:00:00 9.900246 69.3709
2022-02-20T21:00:00 10.32025 67.63077
2022-02-20T22:00:00 10.32025 69.5575
2022-02-20T23:00:00 10.42025 68.60976
2022-02-21T00:00:00 10.36025 68.59681
2022-02-21T01:00:00 10.20025 70.51418
2022-02-21T02:00:00 9.380245 77.76405
2022-02-21T03:00:00 8.840245 83.28394
2022-02-21T04:00:00 8.370246 82.35546
2022-02-21T05:00:00 7.130245 84.52892
2022-02-21T06:00:00 5.280245 78.97038
2022-02-21T07:00:00 4.910245 76.77148
2022-02-21T08:00:00 5.480245 74.20212
2022-02-21T09:00:00 6.130245 72.05965
2022-02-21T10:00:00 6.790245 67.95445
2022-02-21T11:00:00 6.960245 66.29357
2022-02-21T12:00:00 7.090245 69.40805
2022-02-21T13:00:00 7.190245 70.94166
2022-02-21T14:00:00 6.890245 70.8278
2022-02-21T15:00:00 6.560246 71.37274
2022-02-21T16:00:00 6.210245 79.17976
2022-02-21T17:00:00 6.120246 81.16588
2022-02-21T18:00:00 6.190245 81.17639
2022-02-21T19:00:00 6.340245 82.65307
2022-02-21T20:00:00 6.390245 82.19241
2022-02-21T21:00:00 5.960245 83.2484
2022-02-21T22:00:00 6.100246 86.14861
2022-02-21T23:00:00 5.750245 86.78175
2022-02-22T00:00:00 5.420245 87.42475
2022-02-22T01:00:00 5.550245 87.50092
2022-02-22T02:00:00 5.730245 88.07965
2022-02-22T03:00:00 5.940245 87.66676
2022-02-22T04:00:00 6.150245 87.50364
2022-02-22T05:00:00 6.120246 87.68587
2022-02-22T06:00:00 6.350246 85.20941
2022-02-22T07:00:00 6.500245 85.34821
2022-02-22T08:00:00 6.980245 85.1066
2022-02-22T09:00:00 7.290245 85.86375
2022-02-22T10:00:00 7.370246 80.38209
2022-02-22T11:00:00 8.360246 75.22552
2022-02-22T12:00:00 9.140245 67.46378
2022-02-22T13:00:00 9.160245 66.27984
2022-02-22T14:00:00 9.460245 62.31662
2022-02-22T15:00:00 9.210245 64.38271
2022-02-22T16:00:00 8.850245 67.25491
2022-02-22T17:00:00 8.460245 71.05365
2022-02-22T18:00:00 8.180245 74.66284
2022-02-22T19:00:00 8.060246 76.67239
2022-02-22T20:00:00 8.090245 77.98576
2022-02-22T21:00:00 8.190246 79.10684
2022-02-22T22:00:00 8.250245 80.06563
2022-02-22T23:00:00 8.220245 81.41845
2022-02-23T00:00:00 8.320246 82.34851
2022-02-23T01:00:00 8.280246 84.49568
2022-02-23T02:00:00 8.190246 87.71733
2022-02-23T03:00:00 7.910245 91.28915
2022-02-23T04:00:00 7.670245 92.99383
2022-02-23T05:00:00 7.410245 94.0136
2022-02-23T06:00:00 6.830246 95.69394
2022-02-23T07:00:00 6.670245 96.62209
2022-02-23T08:00:00 7.880245 93.39356
2022-02-23T09:00:00 8.880245 82.59788
2022-02-23T10:00:00 9.740245 76.48167
2022-02-23T11:00:00 10.44025 74.92125
2022-02-23T12:00:00 11.05025 70.29597
2022-02-23T13:00:00 11.64025 66.98055
2022-02-23T14:00:00 12.16025 64.08376
2022-02-23T15:00:00 12.29025 62.47947
2022-02-23T16:00:00 11.86025 63.03478
2022-02-23T17:00:00 9.400246 77.44273
2022-02-23T18:00:00 7.860245 83.38681
2022-02-23T19:00:00 6.180245 90.00716
2022-02-23T20:00:00 3.710246 96.70699
2022-02-23T21:00:00 3.170245 97.8651
2022-02-23T22:00:00 3.290246 94.09683
2022-02-23T23:00:00 2.960246 95.57294
2022-02-24T00:00:00 2.630245 95.96858
2022-02-24T01:00:00 2.460245 95.96014
2022-02-24T02:00:00 2.340245 96.23095
2022-02-24T03:00:00 2.310246 95.88349
2022-02-24T04:00:00 2.430245 95.27011
2022-02-24T05:00:00 2.220245 96.15583
2022-02-24T06:00:00 2.260245 96.43533
2022-02-24T07:00:00 2.250246 95.74229
2022-02-24T08:00:00 3.670245 91.99163
2022-02-24T09:00:00 6.550245 83.15196
2022-02-24T10:00:00 9.160245 70.49712
2022-02-24T11:00:00 11.05025 61.73969
2022-02-24T12:00:00 11.92025 57.98322
2022-02-24T13:00:00 12.23025 55.96788
2022-02-24T14:00:00 12.57025 56.01914
2022-02-24T15:00:00 12.56025 56.69304
2022-02-24T16:00:00 12.28025 56.57882
2022-02-24T17:00:00 11.98025 58.86564
2022-02-24T18:00:00 11.11025 62.85393
2022-02-24T19:00:00 10.72025 64.23955
2022-02-24T20:00:00 10.03025 65.96373
2022-02-24T21:00:00 8.820246 70.42617
2022-02-24T22:00:00 6.700245 74.70367
2022-02-24T23:00:00 5.500245 75.83147
2022-02-25T00:00:00 4.750245 78.42741
2022-02-25T01:00:00 4.180245 80.6355
2022-02-25T02:00:00 3.520246 81.47413
2022-02-25T03:00:00 2.970245 82.16576
2022-02-25T04:00:00 2.180245 83.13814
2022-02-25T05:00:00 1.790245 83.75658
2022-02-25T06:00:00 1.240245 85.6142
2022-02-25T07:00:00 0.970245 86.72334
2022-02-25T08:00:00 2.780245 81.77791
2022-02-25T09:00:00 4.520246 75.64923
2022-02-25T10:00:00 5.730245 62.42242
2022-02-25T11:00:00 6.760245 54.22033
2022-02-25T12:00:00 7.340245 48.90107
2022-02-25T13:00:00 7.400245 49.61797
2022-02-25T14:00:00 7.500245 50.24289
2022-02-25T15:00:00 7.160245 51.81423
2022-02-25T16:00:00 6.670245 55.12784
2022-02-25T17:00:00 5.700245 58.87483
2022-02-25T18:00:00 4.230246 66.82121
2022-02-25T19:00:00 3.320245 75.6442
2022-02-25T20:00:00 3.310246 79.91262
2022-02-25T21:00:00 2.120246 89.5611
2022-02-25T22:00:00 1.840245 88.10709
2022-02-25T23:00:00 1.880245 89.14639
2022-02-26T00:00:00 2.060246 91.2641
2022-02-26T01:00:00 2.460245 88.94682
2022-02-26T02:00:00 2.380245 88.1662
2022-02-26T03:00:00 1.980245 88.96193
2022-02-26T04:00:00 1.510245 90.55273
2022-02-26T05:00:00 -0.23975 94.48594
2022-02-26T06:00:00 0.250245 93.00189
2022-02-26T07:00:00 0.900245 92.57565
2022-02-26T08:00:00 1.870246 91.44691
2022-02-26T09:00:00 3.570245 82.79375
2022-02-26T10:00:00 5.220245 72.13365
2022-02-26T11:00:00 6.310246 61.65808
2022-02-26T12:00:00 6.910245 53.8219
2022-02-26T13:00:00 7.740245 49.90369
2022-02-26T14:00:00 8.210245 45.59407
2022-02-26T15:00:00 8.260245 43.11221
2022-02-26T16:00:00 7.520245 46.7696
2022-02-26T17:00:00 5.080246 55.79738
2022-02-26T18:00:00 3.340245 62.31965
2022-02-26T19:00:00 2.220245 66.34021
2022-02-26T20:00:00 1.380245 69.20383
2022-02-26T21:00:00 0.830245 69.33918
2022-02-26T22:00:00 0.560245 67.8703
2022-02-26T23:00:00 0.200245 68.56418
2022-02-27T00:00:00 -0.34975 71.15346
2022-02-27T01:00:00 -1.06975 74.10081
2022-02-27T02:00:00 -1.79975 76.60326
2022-02-27T03:00:00 -1.80975 76.30873
2022-02-27T04:00:00 -2.05975 77.85406
2022-02-27T05:00:00 -1.48975 74.92576
2022-02-27T06:00:00 -1.23975 73.27658
2022-02-27T07:00:00 -2.05975 82.18844
2022-02-27T08:00:00 1.340246 69.50838
2022-02-27T09:00:00 3.300245 61.33328
2022-02-27T10:00:00 5.260245 54.27897
2022-02-27T11:00:00 6.760245 48.83784
2022-02-27T12:00:00 8.160246 43.70239
2022-02-27T13:00:00 9.400246 38.04826
2022-02-27T14:00:00 10.03025 34.08112
2022-02-27T15:00:00 9.940246 33.66519
2022-02-27T16:00:00 9.270246 36.03783
2022-02-27T17:00:00 7.310246 40.96973
2022-02-27T18:00:00 4.750245 51.92729
2022-02-27T19:00:00 3.420245 57.72765
2022-02-27T20:00:00 2.050245 63.21729
2022-02-27T21:00:00 1.050245 66.30582
2022-02-27T22:00:00 0.430245 68.46178
2022-02-27T23:00:00 0.120245 68.59764
2022-02-28T00:00:00 -0.73975 72.27131
2022-02-28T01:00:00 -1.67975 76.86106
2022-02-28T02:00:00 -2.30975 80.28883
2022-02-28T03:00:00 -2.21975 78.96491
2022-02-28T04:00:00 -2.80975 80.82054
2022-02-28T05:00:00 -3.17975 81.88329
2022-02-28T06:00:00 -3.24975 81.99787
2022-02-28T07:00:00 -2.27975 79.01458
2022-02-28T08:00:00 0.590245 74.10487
2022-02-28T09:00:00 2.680245 64.77723
2022-02-28T10:00:00 4.240245 61.90198
2022-02-28T11:00:00 5.870246 57.4108
2022-02-28T12:00:00 7.440245 51.24439
2022-02-28T13:00:00 8.660245 46.90303
2022-02-28T14:00:00 9.390245 44.20949
2022-02-28T15:00:00 9.800245 44.53157
2022-02-28T16:00:00 8.830245 53.84953
2022-02-28T17:00:00 8.720245 47.13067
2022-02-28T18:00:00 6.260245 56.04425
2022-02-28T19:00:00 2.080246 71.15115
2022-02-28T20:00:00 0.770245 77.43747
2022-02-28T21:00:00 0.370245 78.59185
2022-02-28T22:00:00 0.290245 77.11694
2022-02-28T23:00:00 -0.18975 77.84454
2022-03-01T00:00:00 -0.36975 76.81886
2022-03-01T01:00:00 -1.05975 76.57081
2022-03-01T02:00:00 -1.81975 78.07739
2022-03-01T03:00:00 -2.46975 79.28375
2022-03-01T04:00:00 -2.69975 78.33445
2022-03-01T05:00:00 -2.68975 77.79583
2022-03-01T06:00:00 -3.37975 79.24265
2022-03-01T07:00:00 -2.53975 80.31081
2022-03-01T08:00:00 0.780245 69.96041
2022-03-01T09:00:00 3.200245 56.06833
2022-03-01T10:00:00 4.780245 50.65165
2022-03-01T11:00:00 6.140245 47.16586
2022-03-01T12:00:00 7.580246 44.82475
2022-03-01T13:00:00 8.690246 41.05594
2022-03-01T14:00:00 9.410245 40.17656
2022-03-01T15:00:00 9.760245 38.65235
2022-03-01T16:00:00 8.890245 47.00682
2022-03-01T17:00:00 6.760245 49.68821
2022-03-01T18:00:00 2.660245 64.33534
2022-03-01T19:00:00 2.260245 67.50649
2022-03-01T20:00:00 0.760245 75.99929
2022-03-01T21:00:00 0.100245 78.89856
2022-03-01T22:00:00 0.220245 77.21989
2022-03-01T23:00:00 -0.67975 81.29575
2022-03-02T00:00:00 -1.76975 83.49074
2022-03-02T01:00:00 -1.52975 81.46554
2022-03-02T02:00:00 -1.56975 80.4759
2022-03-02T03:00:00 -2.01975 81.32378
2022-03-02T04:00:00 -2.52975 83.12268
2022-03-02T05:00:00 -2.44975 82.50334
2022-03-02T06:00:00 -2.78975 81.82106
2022-03-02T07:00:00 -2.33975 84.42673
2022-03-02T08:00:00 0.700245 77.48259
2022-03-02T09:00:00 3.170245 69.09449
2022-03-02T10:00:00 5.420245 63.27025
2022-03-02T11:00:00 7.160245 59.61235
2022-03-02T12:00:00 8.580245 54.73195
2022-03-02T13:00:00 9.810246 51.21342
2022-03-02T14:00:00 10.23025 50.37161
2022-03-02T15:00:00 9.720245 59.50362
2022-03-02T16:00:00 9.560246 54.64577
2022-03-02T17:00:00 8.890245 58.69078
2022-03-02T18:00:00 7.680245 63.18591
2022-03-02T19:00:00 5.050245 75.14692
2022-03-02T20:00:00 4.530245 77.82398
2022-03-02T21:00:00 3.970245 80.25238
2022-03-02T22:00:00 3.240245 79.03007
2022-03-02T23:00:00 1.980245 80.6986
2022-03-03T00:00:00 1.950245 82.80007
2022-03-03T01:00:00 1.250245 84.1759
2022-03-03T02:00:00 0.270245 86.44505
2022-03-03T03:00:00 -0.77975 89.46317
2022-03-03T04:00:00 -1.42975 89.93193
2022-03-03T05:00:00 -1.71975 90.51145
2022-03-03T06:00:00 -1.66975 89.5704
2022-03-03T07:00:00 -0.66975 87.10429
2022-03-03T08:00:00 2.270246 78.16973
2022-03-03T09:00:00 5.080246 71.00971
2022-03-03T10:00:00 7.580246 60.73195
2022-03-03T11:00:00 9.650246 53.37652
2022-03-03T12:00:00 11.26025 48.02266
2022-03-03T13:00:00 12.40025 44.95009
2022-03-03T14:00:00 12.87025 44.0887
2022-03-03T15:00:00 12.94025 43.31688
2022-03-03T16:00:00 12.07025 51.33845
2022-03-03T17:00:00 9.500245 54.94719
2022-03-03T18:00:00 6.400245 64.96841
2022-03-03T19:00:00 4.700245 69.94858
2022-03-03T20:00:00 4.580246 70.64368
2022-03-03T21:00:00 3.070245 74.65599
2022-03-03T22:00:00 2.070245 77.15786
2022-03-03T23:00:00 1.050245 78.65297
2022-03-04T00:00:00 0.210245 78.38682
2022-03-04T01:00:00 -0.30975 79.2429
2022-03-04T02:00:00 -1.15975 80.17985
2022-03-04T03:00:00 -1.63975 80.34188
2022-03-04T04:00:00 -2.42975 81.38054
2022-03-04T05:00:00 -2.76975 81.57403
2022-03-04T06:00:00 -2.79975 79.40766
2022-03-04T07:00:00 -0.84975 75.74319
2022-03-04T08:00:00 1.750246 65.67765
2022-03-04T09:00:00 4.070245 53.81357
2022-03-04T10:00:00 6.040245 46.99261
2022-03-04T11:00:00 7.800245 41.87835
2022-03-04T12:00:00 9.150246 38.40502
2022-03-04T13:00:00 10.02025 34.83962
2022-03-04T14:00:00 10.53025 32.48197
2022-03-04T15:00:00 10.56025 31.85136
2022-03-04T16:00:00 9.860246 35.27033
2022-03-04T17:00:00 7.610245 41.69253
2022-03-04T18:00:00 4.380245 53.25396
2022-03-04T19:00:00 2.280245 59.55025
2022-03-04T20:00:00 0.930245 64.09152
2022-03-04T21:00:00 -0.20975 67.68605
2022-03-04T22:00:00 -0.95975 70.36675
2022-03-04T23:00:00 -1.54975 71.70744
2022-03-05T00:00:00 -2.01975 72.04652
2022-03-05T01:00:00 -2.81975 74.94215
2022-03-05T02:00:00 -3.30975 75.89414
2022-03-05T03:00:00 -3.32975 75.53758
2022-03-05T04:00:00 -2.75975 73.23359
2022-03-05T05:00:00 -2.08975 69.7819
2022-03-05T06:00:00 -2.43975 69.97143
2022-03-05T07:00:00 -2.67975 80.59506
2022-03-05T08:00:00 0.480245 66.87618
2022-03-05T09:00:00 2.460245 57.10981
2022-03-05T10:00:00 4.190246 51.60439
2022-03-05T11:00:00 5.650245 47.99163
2022-03-05T12:00:00 6.770245 44.17173
2022-03-05T13:00:00 7.550245 40.91966
2022-03-05T14:00:00 8.190246 36.92856
2022-03-05T15:00:00 8.320246 36.79964
2022-03-05T16:00:00 7.530245 40.88226
2022-03-05T17:00:00 5.140245 50.03279
2022-03-05T18:00:00 2.100246 57.31461
2022-03-05T19:00:00 3.370246 52.87737
2022-03-05T20:00:00 2.350246 57.07878
2022-03-05T21:00:00 0.600245 64.00694
2022-03-05T22:00:00 -1.30975 70.17868
2022-03-05T23:00:00 -1.76975 70.99852
2022-03-06T00:00:00 -1.96975 71.72468
2022-03-06T01:00:00 -2.16975 71.90212
2022-03-06T02:00:00 -2.26975 71.93555
2022-03-06T03:00:00 -2.00975 71.21888
2022-03-06T04:00:00 -2.34975 72.70101
2022-03-06T05:00:00 -2.74975 74.72506
2022-03-06T06:00:00 -3.13975 76.28185
2022-03-06T07:00:00 -3.07975 83.42072
2022-03-06T08:00:00 -0.26975 70.68476
2022-03-06T09:00:00 1.560245 63.86282
2022-03-06T10:00:00 3.290246 60.18634
2022-03-06T11:00:00 4.970245 54.0328
2022-03-06T12:00:00 6.270245 49.13356
2022-03-06T13:00:00 6.940245 46.13894
2022-03-06T14:00:00 7.410245 43.76888
2022-03-06T15:00:00 7.330246 42.89033
2022-03-06T16:00:00 6.340245 48.05486
2022-03-06T17:00:00 4.640245 51.65911
2022-03-06T18:00:00 2.480245 59.78618
2022-03-06T19:00:00 1.090246 64.8694
2022-03-06T20:00:00 0.130245 67.87119
2022-03-06T21:00:00 -0.90975 71.02839
2022-03-06T22:00:00 -0.67975 67.98943
2022-03-06T23:00:00 -1.18975 69.56116
2022-03-07T00:00:00 -1.71975 70.68192
2022-03-07T01:00:00 -2.18975 72.06463
2022-03-07T02:00:00 -2.76975 73.57281
2022-03-07T03:00:00 -3.18975 75.04032
2022-03-07T04:00:00 -3.62975 76.30284
2022-03-07T05:00:00 -3.81975 76.92065
2022-03-07T06:00:00 -4.00975 77.72614
2022-03-07T07:00:00 -1.94975 73.52023
2022-03-07T08:00:00 0.100245 65.41676
2022-03-07T09:00:00 1.610245 59.18522
2022-03-07T10:00:00 3.200245 53.11119
2022-03-07T11:00:00 4.670245 48.72574
2022-03-07T12:00:00 5.700245 46.10959
2022-03-07T13:00:00 6.550245 43.07378
2022-03-07T14:00:00 7.170245 41.2713
2022-03-07T15:00:00 7.290245 40.03501
2022-03-07T16:00:00 6.750245 43.99801
2022-03-07T17:00:00 3.990245 53.34258
2022-03-07T18:00:00 1.450245 60.23871
2022-03-07T19:00:00 0.250245 64.40932
2022-03-07T20:00:00 -0.67975 67.10649
2022-03-07T21:00:00 -1.23975 69.22888
2022-03-07T22:00:00 -1.53975 67.8869
2022-03-07T23:00:00 -2.10975 68.80954
2022-03-08T00:00:00 -2.56975 69.77802
2022-03-08T01:00:00 -2.96975 70.66969
2022-03-08T02:00:00 -3.57975 72.77101
2022-03-08T03:00:00 -4.09976 74.09404
2022-03-08T04:00:00 -3.75975 71.37703
2022-03-08T05:00:00 -4.13976 72.76149
2022-03-08T06:00:00 -4.29975 73.64573
2022-03-08T07:00:00 -2.62975 71.13375
2022-03-08T08:00:00 -0.00975 58.96323
2022-03-08T09:00:00 1.640245 51.39605
2022-03-08T10:00:00 3.090245 51.47398
2022-03-08T11:00:00 4.690245 50.16464
2022-03-08T12:00:00 6.110245 47.55146
2022-03-08T13:00:00 7.420245 45.31942
2022-03-08T14:00:00 8.360246 42.65841
2022-03-08T15:00:00 8.740245 40.70103
2022-03-08T16:00:00 8.300245 50.06824
2022-03-08T17:00:00 9.060246 35.42652
2022-03-08T18:00:00 4.840245 51.32756
2022-03-08T19:00:00 2.390245 60.30918
2022-03-08T20:00:00 0.840245 66.30475
2022-03-08T21:00:00 -0.11975 69.96817
2022-03-08T22:00:00 -0.61975 69.48008
2022-03-08T23:00:00 -1.09975 71.04022
2022-03-09T00:00:00 -1.51975 72.43427
2022-03-09T01:00:00 -2.50975 77.35253
2022-03-09T02:00:00 -3.13975 80.08384
2022-03-09T03:00:00 -3.62975 82.88876
2022-03-09T04:00:00 -4.15975 85.53519
2022-03-09T05:00:00 -4.42975 87.23045
2022-03-09T06:00:00 -4.43975 87.36378
2022-03-09T07:00:00 -2.41975 81.6312
2022-03-09T08:00:00 0.920245 74.84293
2022-03-09T09:00:00 3.980246 67.00987
2022-03-09T10:00:00 6.690245 57.1265
2022-03-09T11:00:00 9.050245 49.69868
2022-03-09T12:00:00 11.03025 44.93488
2022-03-09T13:00:00 12.25025 42.7337
2022-03-09T14:00:00 13.10025 40.3781
2022-03-09T15:00:00 13.50025 38.93273
2022-03-09T16:00:00 13.20025 42.73871
2022-03-09T17:00:00 12.07025 43.24527
2022-03-09T18:00:00 7.220245 57.90562
2022-03-09T19:00:00 3.550245 69.38561
2022-03-09T20:00:00 2.740245 73.44121
2022-03-09T21:00:00 1.990246 76.74406
2022-03-09T22:00:00 1.430245 76.69682
2022-03-09T23:00:00 0.720245 80.31417
2022-03-10T00:00:00 0.070245 81.72121
2022-03-10T01:00:00 -0.10975 81.08301
2022-03-10T02:00:00 -0.53975 81.37952
2022-03-10T03:00:00 -0.98975 82.35619
2022-03-10T04:00:00 -1.33975 83.0514
2022-03-10T05:00:00 -1.87975 84.49252
2022-03-10T06:00:00 -1.99975 84.53946
2022-03-10T07:00:00 -0.67975 83.27554
2022-03-10T08:00:00 2.530245 76.22226
2022-03-10T09:00:00 5.460245 65.40965
2022-03-10T10:00:00 8.200246 55.75777
2022-03-10T11:00:00 10.30025 49.59028
2022-03-10T12:00:00 12.12025 43.29193
2022-03-10T13:00:00 13.42025 38.937
2022-03-10T14:00:00 14.40025 35.67908
2022-03-10T15:00:00 14.69025 35.55764
2022-03-10T16:00:00 14.80025 33.50914
2022-03-10T17:00:00 13.81025 36.00131
2022-03-10T18:00:00 8.850245 50.78682
2022-03-10T19:00:00 5.490245 63.10154
2022-03-10T20:00:00 4.010245 67.51493
2022-03-10T21:00:00 2.770246 70.35287
2022-03-10T22:00:00 2.310246 69.10502
2022-03-10T23:00:00 1.710245 71.55129
2022-03-11T00:00:00 0.820245 74.26319
2022-03-11T01:00:00 0.050245 76.72462
2022-03-11T02:00:00 -0.83975 78.67253
2022-03-11T03:00:00 -1.09975 80.37228
2022-03-11T04:00:00 -1.32975 80.33344
2022-03-11T05:00:00 -1.36975 80.20492
2022-03-11T06:00:00 -1.02975 78.99686
2022-03-11T07:00:00 0.410245 78.36376
2022-03-11T08:00:00 3.750246 68.96987
2022-03-11T09:00:00 6.550245 57.51152
2022-03-11T10:00:00 8.590245 52.68905
2022-03-11T11:00:00 10.83025 48.00142
2022-03-11T12:00:00 12.54025 44.4078
2022-03-11T13:00:00 13.48025 41.77958
2022-03-11T14:00:00 13.90025 40.56038
2022-03-11T15:00:00 13.85025 42.34757
2022-03-11T16:00:00 13.34025 42.68765
2022-03-11T17:00:00 11.62025 49.68414
2022-03-11T18:00:00 9.010245 58.7224
2022-03-11T19:00:00 6.890245 68.22295
2022-03-11T20:00:00 6.520245 69.13338
2022-03-11T21:00:00 5.290245 75.73791
2022-03-11T22:00:00 4.770245 75.09377
2022-03-11T23:00:00 5.000245 74.75694
2022-03-12T00:00:00 4.940245 77.16665
2022-03-12T01:00:00 4.620246 79.08884
2022-03-12T02:00:00 4.660245 79.15267
2022-03-12T03:00:00 4.400245 80.4371
2022-03-12T04:00:00 4.380245 81.25176
2022-03-12T05:00:00 4.140245 82.63635
2022-03-12T06:00:00 3.760245 83.78567
2022-03-12T07:00:00 4.650245 80.1867
2022-03-12T08:00:00 6.790245 70.80674
2022-03-12T09:00:00 8.870245 62.17008
2022-03-12T10:00:00 11.32025 52.61941
2022-03-12T11:00:00 12.51025 48.98161
2022-03-12T12:00:00 13.52025 46.76813
2022-03-12T13:00:00 14.12025 45.29551
2022-03-12T14:00:00 14.57025 44.05294
2022-03-12T15:00:00 14.52025 43.50498
2022-03-12T16:00:00 14.15025 46.95142
2022-03-12T17:00:00 12.78025 49.23541
2022-03-12T18:00:00 11.57025 54.80461
2022-03-12T19:00:00 8.220245 69.65212
2022-03-12T20:00:00 7.220245 74.05862
2022-03-12T21:00:00 5.550245 79.64095
2022-03-12T22:00:00 4.840245 82.14437
2022-03-12T23:00:00 4.530245 82.75184
2022-03-13T00:00:00 3.210246 85.67645
2022-03-13T01:00:00 2.400245 86.76796
2022-03-13T02:00:00 2.020246 88.12688
2022-03-13T03:00:00 2.180245 86.80511
2022-03-13T04:00:00 2.200245 86.93424
2022-03-13T05:00:00 2.230245 86.68448
2022-03-13T06:00:00 2.240245 87.83056
2022-03-13T07:00:00 3.650245 81.96867
2022-03-13T08:00:00 6.550245 71.93816
2022-03-13T09:00:00 9.530245 58.22675
2022-03-13T10:00:00 11.83025 48.32879
2022-03-13T11:00:00 13.51025 42.36854
2022-03-13T12:00:00 14.79025 39.12299
2022-03-13T13:00:00 15.75025 37.66151
2022-03-13T14:00:00 16.15025 36.89288
2022-03-13T15:00:00 16.48025 35.68073
2022-03-13T16:00:00 15.90025 41.98856
2022-03-13T17:00:00 15.22025 35.71749
2022-03-13T18:00:00 12.47025 50.43139
2022-03-13T19:00:00 10.96025 62.6404
2022-03-13T20:00:00 12.41025 54.91595
2022-03-13T21:00:00 9.990245 68.80673
2022-03-13T22:00:00 10.31025 76.68619
2022-03-13T23:00:00 9.690246 77.54527
2022-03-14T00:00:00 9.140245 80.03402
2022-03-14T01:00:00 8.500245 82.31603
2022-03-14T02:00:00 8.210245 83.54961
2022-03-14T03:00:00 8.040245 84.64272
2022-03-14T04:00:00 6.560246 87.73225
2022-03-14T05:00:00 5.670245 89.32815
2022-03-14T06:00:00 5.160245 91.13377
2022-03-14T07:00:00 5.960245 88.85285
2022-03-14T08:00:00 8.040245 82.48255
2022-03-14T09:00:00 9.770246 72.43075
2022-03-14T10:00:00 10.49025 67.57329
2022-03-14T11:00:00 11.87025 60.1807
2022-03-14T12:00:00 13.09025 53.45102
2022-03-14T13:00:00 13.96025 48.94331
2022-03-14T14:00:00 14.43025 45.74414
2022-03-14T15:00:00 14.69025 43.15148
2022-03-14T16:00:00 14.30025 43.47102
2022-03-14T17:00:00 12.02025 54.61536
2022-03-14T18:00:00 9.820246 57.55341
2022-03-14T19:00:00 7.650245 66.45408
2022-03-14T20:00:00 6.640245 72.47572
2022-03-14T21:00:00 6.030245 75.06079
2022-03-14T22:00:00 5.490245 79.06186
2022-03-14T23:00:00 5.830246 78.60941
2022-03-15T00:00:00 6.240245 77.78336
2022-03-15T01:00:00 6.380245 78.36472
2022-03-15T02:00:00 6.370246 80.91528
2022-03-15T03:00:00 6.310246 84.60403
2022-03-15T04:00:00 6.440245 87.59625
2022-03-15T05:00:00 6.290245 92.70774
2022-03-15T06:00:00 6.390245 96.27557
2022-03-15T07:00:00 6.670245 96.68922
2022-03-15T08:00:00 7.080246 95.57266
2022-03-15T09:00:00 7.990245 93.27151
2022-03-15T10:00:00 9.190246 88.12118
2022-03-15T11:00:00 9.850245 86.03663
2022-03-15T12:00:00 10.25025 85.43552
2022-03-15T13:00:00 10.09025 86.12228
2022-03-15T14:00:00 10.55025 83.67726
2022-03-15T15:00:00 10.75025 83.70248
2022-03-15T16:00:00 10.80025 84.62828
2022-03-15T17:00:00 9.960245 89.65335
2022-03-15T18:00:00 8.280246 96.81411
2022-03-15T19:00:00 8.670245 97.29139
2022-03-15T20:00:00 8.490246 97.7525
2022-03-15T21:00:00 8.060246 98.9538
2022-03-15T22:00:00 7.180245 98.80111
2022-03-15T23:00:00 6.970245 99.13864
2022-03-16T00:00:00 6.450245 99.33558
2022-03-16T01:00:00 6.190245 99.26209
2022-03-16T02:00:00 5.840245 98.35989
2022-03-16T03:00:00 5.570245 98.21539
2022-03-16T04:00:00 5.670245 98.21811
2022-03-16T05:00:00 5.950245 97.81549
2022-03-16T06:00:00 5.500245 98.69566
2022-03-16T07:00:00 6.270245 99.05688
2022-03-16T08:00:00 7.450245 95.52348
2022-03-16T09:00:00 8.770246 93.57555
2022-03-16T10:00:00 9.340245 93.03555
2022-03-16T11:00:00 11.12025 85.36037
2022-03-16T12:00:00 12.48025 79.3901
2022-03-16T13:00:00 13.44025 74.53748
2022-03-16T14:00:00 14.10025 70.1443
2022-03-16T15:00:00 14.34025 69.67037
2022-03-16T16:00:00 13.74025 74.59089
2022-03-16T17:00:00 11.79025 83.83207
2022-03-16T18:00:00 10.17025 85.54343
2022-03-16T19:00:00 8.910245 91.11455
2022-03-16T20:00:00 8.850245 92.17959
2022-03-16T21:00:00 8.350245 93.29374
2022-03-16T22:00:00 8.490246 92.91836
2022-03-16T23:00:00 8.610246 92.73473
2022-03-17T00:00:00 7.580246 94.74099
2022-03-17T01:00:00 7.490245 94.93304
2022-03-17T02:00:00 7.240245 95.51384
2022-03-17T03:00:00 7.000245 96.9698
2022-03-17T04:00:00 6.660245 98.10806
2022-03-17T05:00:00 6.380245 98.44192
2022-03-17T06:00:00 6.230245 98.50674
2022-03-17T07:00:00 6.850246 98.0452
2022-03-17T08:00:00 8.850245 92.62324
2022-03-17T09:00:00 10.52025 87.77019
2022-03-17T10:00:00 12.03025 81.95229
2022-03-17T11:00:00 13.49025 75.05347
2022-03-17T12:00:00 14.48025 69.98306
2022-03-17T13:00:00 14.67025 68.5187
2022-03-17T14:00:00 14.24025 71.27617
2022-03-17T15:00:00 13.63025 74.1179
2022-03-17T16:00:00 12.76025 75.64282
2022-03-17T17:00:00 11.78025 77.14568
2022-03-17T18:00:00 10.81025 78.70013
2022-03-17T19:00:00 10.07025 79.12834
2022-03-17T20:00:00 9.670245 78.3549
2022-03-17T21:00:00 9.160245 79.42641
2022-03-17T22:00:00 8.720245 83.9653
2022-03-17T23:00:00 8.610246 85.06651
2022-03-18T00:00:00 8.500245 85.58652
2022-03-18T01:00:00 8.310246 86.34071
2022-03-18T02:00:00 8.040245 87.94595
2022-03-18T03:00:00 7.890245 89.03744
2022-03-18T04:00:00 7.850246 88.66335
2022-03-18T05:00:00 7.700245 89.01963
2022-03-18T06:00:00 7.660245 88.15268
2022-03-18T07:00:00 7.860245 86.41053
2022-03-18T08:00:00 8.290245 83.50182
2022-03-18T09:00:00 9.130245 78.10332
2022-03-18T10:00:00 9.960245 73.43714
2022-03-18T11:00:00 10.81025 68.50177
2022-03-18T12:00:00 11.86025 63.07896
2022-03-18T13:00:00 12.84025 56.09112
2022-03-18T14:00:00 13.12025 55.45834
2022-03-18T15:00:00 12.95025 55.84425
2022-03-18T16:00:00 12.45025 57.38843
2022-03-18T17:00:00 11.93025 57.17067
2022-03-18T18:00:00 11.29025 56.23441
2022-03-18T19:00:00 10.96025 53.05076
2022-03-18T20:00:00 10.69025 51.13069
2022-03-18T21:00:00 10.33025 50.80549
2022-03-18T22:00:00 10.08025 50.07185
2022-03-18T23:00:00 9.710245 49.70891
2022-03-19T00:00:00 9.260245 49.79668
2022-03-19T01:00:00 8.640245 50.72583
2022-03-19T02:00:00 7.870246 52.36689
2022-03-19T03:00:00 7.400245 54.80426
2022-03-19T04:00:00 6.780245 58.6438
2022-03-19T05:00:00 5.610245 66.2174
2022-03-19T06:00:00 4.590245 74.89581
2022-03-19T07:00:00 6.150245 71.59692
2022-03-19T08:00:00 7.920245 63.84166
2022-03-19T09:00:00 9.550245 56.33079
2022-03-19T10:00:00 11.20025 50.03164
2022-03-19T11:00:00 12.70025 43.08799
2022-03-19T12:00:00 13.64025 39.34713
2022-03-19T13:00:00 14.27025 37.05274
2022-03-19T14:00:00 14.37025 35.95928
2022-03-19T15:00:00 14.12025 35.77816
2022-03-19T16:00:00 13.21025 38.19407
2022-03-19T17:00:00 11.58025 42.84526
2022-03-19T18:00:00 9.370245 47.85176
2022-03-19T19:00:00 8.080246 51.31646
2022-03-19T20:00:00 6.740245 56.51072
2022-03-19T21:00:00 5.640245 62.58374
2022-03-19T22:00:00 5.360245 64.2889
2022-03-19T23:00:00 4.430245 67.81226
2022-03-20T00:00:00 3.140245 76.8989
2022-03-20T01:00:00 3.080246 78.25408
2022-03-20T02:00:00 2.840245 80.0699
2022-03-20T03:00:00 3.460246 76.84451
2022-03-20T04:00:00 3.360245 77.6182
2022-03-20T05:00:00 3.180245 80.65349
2022-03-20T06:00:00 3.660245 79.56311
2022-03-20T07:00:00 4.630245 76.38766
2022-03-20T08:00:00 5.630245 74.01697
2022-03-20T09:00:00 8.360246 68.15903
2022-03-20T10:00:00 12.14025 52.62249
2022-03-20T11:00:00 14.39025 42.84635
2022-03-20T12:00:00 15.83025 36.79696
2022-03-20T13:00:00 16.93024 34.49552
2022-03-20T14:00:00 17.52025 32.4408
2022-03-20T15:00:00 17.76024 31.03571
2022-03-20T16:00:00 17.59025 32.06355
2022-03-20T17:00:00 15.95025 35.75484
2022-03-20T18:00:00 12.27025 47.41933
2022-03-20T19:00:00 9.370245 58.98669
2022-03-20T20:00:00 6.940245 68.92682
2022-03-20T21:00:00 6.240245 73.07608
2022-03-20T22:00:00 6.210245 70.68401
2022-03-20T23:00:00 5.140245 74.8922
2022-03-21T00:00:00 4.890245 76.6568
2022-03-21T01:00:00 4.290246 79.49345
2022-03-21T02:00:00 3.090245 84.857
2022-03-21T03:00:00 2.500246 87.41347
2022-03-21T04:00:00 1.810245 90.18537
2022-03-21T05:00:00 2.100246 89.03915
2022-03-21T06:00:00 2.390245 86.89327
2022-03-21T07:00:00 4.890245 79.93635
2022-03-21T08:00:00 8.350245 69.08681
2022-03-21T09:00:00 11.27025 57.8542
2022-03-21T10:00:00 13.47025 47.93957
2022-03-21T11:00:00 14.89025 46.07431
2022-03-21T12:00:00 16.08025 43.6539
2022-03-21T13:00:00 16.84025 41.17271
2022-03-21T14:00:00 17.40025 38.78383
2022-03-21T15:00:00 17.34025 37.16829
2022-03-21T16:00:00 16.83025 39.42211
2022-03-21T17:00:00 15.08025 50.06504
2022-03-21T18:00:00 12.62025 53.89259
2022-03-21T19:00:00 11.50025 57.01638
2022-03-21T20:00:00 10.64025 60.6828
2022-03-21T21:00:00 7.290245 72.91821
2022-03-21T22:00:00 5.370246 77.52145
2022-03-21T23:00:00 4.630245 79.1477
2022-03-22T00:00:00 4.150245 79.70132
2022-03-22T01:00:00 3.620246 79.325
2022-03-22T02:00:00 3.390245 78.99767
2022-03-22T03:00:00 2.840245 79.71864
2022-03-22T04:00:00 2.090245 83.18617
2022-03-22T05:00:00 1.310245 84.99491
2022-03-22T06:00:00 1.570245 84.90447
2022-03-22T07:00:00 4.300245 78.57832
2022-03-22T08:00:00 7.930245 65.7582
2022-03-22T09:00:00 10.41025 56.97033
2022-03-22T10:00:00 12.55025 47.05802
2022-03-22T11:00:00 14.27025 41.68384
2022-03-22T12:00:00 15.53025 36.60042
2022-03-22T13:00:00 16.47025 33.17852
2022-03-22T14:00:00 17.02025 31.45512
2022-03-22T15:00:00 17.34025 30.02
2022-03-22T16:00:00 16.99025 31.58443
2022-03-22T17:00:00 15.46025 42.52142
2022-03-22T18:00:00 11.26025 52.33838
2022-03-22T19:00:00 10.05025 52.87182
2022-03-22T20:00:00 7.710245 61.43144
2022-03-22T21:00:00 6.340245 67.60673
2022-03-22T22:00:00 6.130245 63.12284
2022-03-22T23:00:00 5.030245 66.86165
2022-03-23T00:00:00 4.600246 69.21181
2022-03-23T01:00:00 3.840245 72.27002
2022-03-23T02:00:00 3.040246 76.88066
2022-03-23T03:00:00 2.580246 77.87939
2022-03-23T04:00:00 1.820245 80.1385
2022-03-23T05:00:00 1.520245 80.68408
2022-03-23T06:00:00 1.180245 82.62504
2022-03-23T07:00:00 4.620246 75.22917
2022-03-23T08:00:00 8.010245 60.44648
2022-03-23T09:00:00 10.43025 53.94427
2022-03-23T10:00:00 12.84025 47.51727
2022-03-23T11:00:00 14.61025 43.15871
2022-03-23T12:00:00 16.20025 39.63001
2022-03-23T13:00:00 17.39025 36.8127
2022-03-23T14:00:00 18.13025 34.65322
2022-03-23T15:00:00 18.46025 33.81829
2022-03-23T16:00:00 18.05025 34.65435
2022-03-23T17:00:00 16.49025 42.04331
2022-03-23T18:00:00 10.87025 60.52568
2022-03-23T19:00:00 9.970245 59.78183
2022-03-23T20:00:00 9.500245 60.30663
2022-03-23T21:00:00 8.510245 63.89295
2022-03-23T22:00:00 7.490245 63.23058
2022-03-23T23:00:00 5.230245 71.87387
2022-03-24T00:00:00 3.640245 77.895
2022-03-24T01:00:00 2.480245 81.91207
2022-03-24T02:00:00 1.440245 85.26278
2022-03-24T03:00:00 1.270245 85.61806
2022-03-24T04:00:00 0.900245 86.2681
2022-03-24T05:00:00 0.610245 86.48731
2022-03-24T06:00:00 1.440245 84.45071
2022-03-24T07:00:00 5.010245 76.51224
2022-03-24T08:00:00 8.670245 61.63004
2022-03-24T09:00:00 11.43025 49.16477
2022-03-24T10:00:00 13.84025 42.96088
2022-03-24T11:00:00 15.89025 37.32424
2022-03-24T12:00:00 17.39025 34.33419
2022-03-24T13:00:00 18.61025 31.64957
2022-03-24T14:00:00 19.30025 30.19973
2022-03-24T15:00:00 19.47025 28.98621
2022-03-24T16:00:00 18.99025 30.52603
2022-03-24T17:00:00 17.34025 39.12612
2022-03-24T18:00:00 12.28025 53.18979
2022-03-24T19:00:00 9.300245 60.82074
2022-03-24T20:00:00 9.870245 56.41744
2022-03-24T21:00:00 8.970245 58.62705
2022-03-24T22:00:00 7.490245 62.50077
2022-03-24T23:00:00 6.310246 66.57575
2022-03-25T00:00:00 5.580246 70.8064
2022-03-25T01:00:00 4.600246 74.46281
2022-03-25T02:00:00 3.760245 78.20063
2022-03-25T03:00:00 2.620246 82.0533
2022-03-25T04:00:00 1.940245 84.51863
2022-03-25T05:00:00 1.520245 85.71314
2022-03-25T06:00:00 2.140245 85.35378
2022-03-25T07:00:00 5.380245 79.10055
2022-03-25T08:00:00 9.110246 61.56355
2022-03-25T09:00:00 11.80025 50.05954
2022-03-25T10:00:00 14.25025 41.97981
2022-03-25T11:00:00 16.35025 38.66505
2022-03-25T12:00:00 17.93024 35.42219
2022-03-25T13:00:00 19.09025 32.15818
2022-03-25T14:00:00 19.56025 30.1666
2022-03-25T15:00:00 19.60025 30.02635
2022-03-25T16:00:00 18.86025 32.25251
2022-03-25T17:00:00 17.77025 32.84593
2022-03-25T18:00:00 15.13025 40.8701
2022-03-25T19:00:00 11.95025 53.02243
2022-03-25T20:00:00 10.08025 58.87581
2022-03-25T21:00:00 8.820246 63.55656
2022-03-25T22:00:00 7.870246 63.00459
2022-03-25T23:00:00 7.200245 64.64303
2022-03-26T00:00:00 6.580246 66.20456
2022-03-26T01:00:00 5.820245 68.08054
2022-03-26T02:00:00 5.110245 70.55138
2022-03-26T03:00:00 4.540246 71.99265
2022-03-26T04:00:00 3.850246 74.31632
2022-03-26T05:00:00 3.370246 76.37882
2022-03-26T06:00:00 3.780245 76.79038
2022-03-26T07:00:00 6.750245 68.14225
2022-03-26T08:00:00 9.570246 56.25481
2022-03-26T09:00:00 11.73025 49.93137
2022-03-26T10:00:00 14.04025 45.14245
2022-03-26T11:00:00 16.06025 42.15568
2022-03-26T12:00:00 17.76024 38.45145
2022-03-26T13:00:00 19.24025 34.8574
2022-03-26T14:00:00 20.02025 32.17764
2022-03-26T15:00:00 20.20025 30.9454
2022-03-26T16:00:00 19.53025 33.2704
2022-03-26T17:00:00 17.81025 36.70113
2022-03-26T18:00:00 14.77025 44.4916
2022-03-26T19:00:00 12.79025 49.73417
2022-03-26T20:00:00 11.12025 53.63242
2022-03-26T21:00:00 9.490245 57.7147
2022-03-26T22:00:00 8.610246 57.98244
2022-03-26T23:00:00 8.030246 58.59094
2022-03-27T00:00:00 7.240245 61.08831
2022-03-27T01:00:00 6.570245 61.99638
2022-03-27T02:00:00 5.710245 65.66181
2022-03-27T03:00:00 4.650245 69.22298
2022-03-27T04:00:00 3.770246 71.88419
2022-03-27T05:00:00 2.820245 76.1081
2022-03-27T06:00:00 3.120246 77.23472
2022-03-27T07:00:00 6.830246 68.06178
2022-03-27T08:00:00 10.00025 53.62996
2022-03-27T09:00:00 12.63025 42.53668
2022-03-27T10:00:00 14.67025 41.32438
2022-03-27T11:00:00 16.36025 39.76282
2022-03-27T12:00:00 17.82025 38.00753
2022-03-27T13:00:00 18.99025 35.40765
2022-03-27T14:00:00 19.81025 34.6064
2022-03-27T15:00:00 20.12025 33.99315
2022-03-27T16:00:00 19.88025 35.12016
2022-03-27T17:00:00 18.38025 43.80151
2022-03-27T18:00:00 13.47025 55.51295
2022-03-27T19:00:00 11.90025 57.5691
2022-03-27T20:00:00 10.69025 61.5195
2022-03-27T21:00:00 8.370246 69.28835
2022-03-27T22:00:00 8.010245 65.91892
2022-03-27T23:00:00 7.240245 69.89108
2022-03-28T00:00:00 6.090245 73.20433
2022-03-28T01:00:00 5.530245 75.12894
2022-03-28T02:00:00 4.670245 77.23048
2022-03-28T03:00:00 3.830246 78.38388
2022-03-28T04:00:00 3.120246 82.30797
2022-03-28T05:00:00 2.800245 83.16628
2022-03-28T06:00:00 3.760245 79.17518
2022-03-28T07:00:00 7.190245 71.24749
2022-03-28T08:00:00 10.69025 57.16765
2022-03-28T09:00:00 13.64025 49.44633
2022-03-28T10:00:00 16.33025 42.74773
2022-03-28T11:00:00 18.46025 35.3013
2022-03-28T12:00:00 19.97025 27.95414
2022-03-28T13:00:00 20.92025 23.26035
2022-03-28T14:00:00 21.37025 21.12168
2022-03-28T15:00:00 21.34025 21.00435
2022-03-28T16:00:00 20.78025 25.43068
2022-03-28T17:00:00 18.80025 35.05078
2022-03-28T18:00:00 14.66025 40.14532
2022-03-28T19:00:00 12.64025 45.81025
2022-03-28T20:00:00 10.17025 55.25101
2022-03-28T21:00:00 8.750245 62.90415
2022-03-28T22:00:00 8.660245 59.48535
2022-03-28T23:00:00 7.680245 66.31765
2022-03-29T00:00:00 7.620246 67.65302
2022-03-29T01:00:00 7.300245 69.00597
2022-03-29T02:00:00 6.910245 70.12227
2022-03-29T03:00:00 6.480245 72.86144
2022-03-29T04:00:00 6.180245 73.64524
2022-03-29T05:00:00 6.270245 72.81938
2022-03-29T06:00:00 6.630245 72.73451
2022-03-29T07:00:00 8.800245 67.43551
2022-03-29T08:00:00 11.07025 59.21659
2022-03-29T09:00:00 13.82025 49.95643
2022-03-29T10:00:00 15.18025 46.81679
2022-03-29T11:00:00 16.82025 39.05526
2022-03-29T12:00:00 18.09025 33.952
2022-03-29T13:00:00 18.83025 32.17418
2022-03-29T14:00:00 18.87025 31.77174
2022-03-29T15:00:00 18.70025 32.04347
2022-03-29T16:00:00 18.01024 39.4078
2022-03-29T17:00:00 17.03025 39.6504
2022-03-29T18:00:00 15.64025 40.9927
2022-03-29T19:00:00 13.98025 48.81014
2022-03-29T20:00:00 12.70025 54.45211
2022-03-29T21:00:00 12.25025 57.6608
2022-03-29T22:00:00 11.72025 62.20995
2022-03-29T23:00:00 12.04025 61.72271
2022-03-30T00:00:00 11.90025 62.51636
2022-03-30T01:00:00 12.09025 61.13154
2022-03-30T02:00:00 11.69025 66.1562
2022-03-30T03:00:00 10.85025 75.25519
2022-03-30T04:00:00 10.59025 79.7567
2022-03-30T05:00:00 10.44025 83.54876
2022-03-30T06:00:00 10.10025 88.51097
2022-03-30T07:00:00 10.32025 90.41882
2022-03-30T08:00:00 10.51025 91.54441
2022-03-30T09:00:00 11.13025 89.9344
2022-03-30T10:00:00 11.47025 88.57756
2022-03-30T11:00:00 12.19025 84.735
2022-03-30T12:00:00 13.01025 80.27862
2022-03-30T13:00:00 13.06025 77.82868
2022-03-30T14:00:00 13.02025 75.175
2022-03-30T15:00:00 12.60025 77.01839
2022-03-30T16:00:00 11.94025 80.17713
2022-03-30T17:00:00 11.17025 84.04082
2022-03-30T18:00:00 10.39025 87.87709
2022-03-30T19:00:00 10.14025 91.82935
2022-03-30T20:00:00 9.370245 95.99885
2022-03-30T21:00:00 8.920245 97.10017
2022-03-30T22:00:00 9.370245 93.93008
2022-03-30T23:00:00 8.150246 96.87605
2022-03-31T00:00:00 7.530245 98.53661
2022-03-31T01:00:00 7.480245 98.53552
2022-03-31T02:00:00 7.810246 98.20498
2022-03-31T03:00:00 7.890245 97.73614
2022-03-31T04:00:00 7.640245 97.52759
2022-03-31T05:00:00 7.750245 96.52945
2022-03-31T06:00:00 7.740245 96.13103
2022-03-31T07:00:00 8.530246 94.72416
2022-03-31T08:00:00 9.220245 92.20497
2022-03-31T09:00:00 9.840245 85.62309
2022-03-31T10:00:00 10.57025 87.53642
2022-03-31T11:00:00 10.53025 88.19038
2022-03-31T12:00:00 10.43025 87.3436
2022-03-31T13:00:00 10.00025 88.38075
2022-03-31T14:00:00 9.740245 85.25929
2022-03-31T15:00:00 9.070246 85.06267
2022-03-31T16:00:00 8.410246 84.86526
2022-03-31T17:00:00 7.940245 88.24193
2022-03-31T18:00:00 7.290245 88.48549
2022-03-31T19:00:00 7.020245 88.76884
2022-03-31T20:00:00 6.680245 89.36018
2022-03-31T21:00:00 6.470245 89.15258
2022-03-31T22:00:00 6.320245 87.64523
2022-03-31T23:00:00 6.050245 88.4865
2022-04-01T00:00:00 5.660245 88.76059
2022-04-01T01:00:00 5.300245 89.60988
2022-04-01T02:00:00 5.170245 88.39729
2022-04-01T03:00:00 4.880245 86.93039
2022-04-01T04:00:00 4.510245 86.26833
2022-04-01T05:00:00 4.030245 87.08311
2022-04-01T06:00:00 3.600246 88.17003
2022-04-01T07:00:00 3.100246 89.07654
2022-04-01T08:00:00 2.890245 88.66953
2022-04-01T09:00:00 2.870246 86.69756
2022-04-01T10:00:00 2.810246 85.8756
2022-04-01T11:00:00 2.900245 86.44983
2022-04-01T12:00:00 3.110245 87.29281
2022-04-01T13:00:00 3.270246 87.62698
2022-04-01T14:00:00 2.740245 91.38843
2022-04-01T15:00:00 2.850246 91.2001
2022-04-01T16:00:00 2.560246 93.71182
2022-04-01T17:00:00 2.080246 98.03884
2022-04-01T18:00:00 1.880245 98.52808
2022-04-01T19:00:00 1.600245 96.75393
2022-04-01T20:00:00 1.180245 94.92239
2022-04-01T21:00:00 0.750245 93.03987
2022-04-01T22:00:00 0.290245 92.59535
2022-04-01T23:00:00 0.140245 89.82385
2022-04-02T00:00:00 0.060245 89.683
2022-04-02T01:00:00 0.050245 90.34781
2022-04-02T02:00:00 0.140245 90.55698
2022-04-02T03:00:00 0.180245 92.11035
2022-04-02T04:00:00 0.190245 93.82193
2022-04-02T05:00:00 0.240245 94.5173
2022-04-02T06:00:00 0.360245 94.45575
2022-04-02T07:00:00 0.610245 93.71383
2022-04-02T08:00:00 1.080245 92.11709
2022-04-02T09:00:00 1.560245 89.04831
2022-04-02T10:00:00 2.260245 83.51601
2022-04-02T11:00:00 2.660245 81.28216
2022-04-02T12:00:00 2.510245 80.60565
2022-04-02T13:00:00 2.450245 79.24484
2022-04-02T14:00:00 2.150245 78.72782
2022-04-02T15:00:00 1.880245 78.91421
2022-04-02T16:00:00 1.740246 78.01807
2022-04-02T17:00:00 1.610245 78.16874
2022-04-02T18:00:00 1.460245 79.13471
2022-04-02T19:00:00 1.230245 81.84128
2022-04-02T20:00:00 1.180245 83.11547
2022-04-02T21:00:00 1.130245 85.41085
2022-04-02T22:00:00 0.620245 87.51736
2022-04-02T23:00:00 0.630245 88.55806
2022-04-03T00:00:00 0.510245 88.21866
2022-04-03T01:00:00 0.430245 89.1266
2022-04-03T02:00:00 0.550245 88.87662
2022-04-03T03:00:00 0.290245 89.90527
2022-04-03T04:00:00 0.320245 89.97464
2022-04-03T05:00:00 0.380245 90.37965
2022-04-03T06:00:00 0.590245 90.26678
2022-04-03T07:00:00 1.000245 88.92442
2022-04-03T08:00:00 1.840245 80.67606
2022-04-03T09:00:00 2.890245 75.06253
2022-04-03T10:00:00 3.180245 72.6134
2022-04-03T11:00:00 3.410245 68.94393
2022-04-03T12:00:00 3.820245 66.92245
2022-04-03T13:00:00 4.150245 66.26043
2022-04-03T14:00:00 4.140245 65.72004
2022-04-03T15:00:00 3.980246 67.35816
2022-04-03T16:00:00 3.870246 67.73265
2022-04-03T17:00:00 3.550245 68.16224
2022-04-03T18:00:00 3.480246 67.14086
2022-04-03T19:00:00 2.860245 68.46043
2022-04-03T20:00:00 2.330246 71.79163
2022-04-03T21:00:00 1.560245 76.26566
2022-04-03T22:00:00 0.530245 81.97629
2022-04-03T23:00:00 1.050245 77.72036
2022-04-04T00:00:00 0.710245 78.24152
2022-04-04T01:00:00 0.150245 78.96656
2022-04-04T02:00:00 -0.30975 80.86815
2022-04-04T03:00:00 -0.39975 80.00654
2022-04-04T04:00:00 -1.06975 82.59255
2022-04-04T05:00:00 -1.45975 83.28468
2022-04-04T06:00:00 -1.57975 88.84327
2022-04-04T07:00:00 0.570245 78.68604
2022-04-04T08:00:00 2.200245 71.55003
2022-04-04T09:00:00 3.870246 65.45973
2022-04-04T10:00:00 4.980245 58.54928
2022-04-04T11:00:00 5.920245 56.53538
2022-04-04T12:00:00 6.700245 53.72211
2022-04-04T13:00:00 7.530245 53.60056
2022-04-04T14:00:00 8.150246 51.83196
2022-04-04T15:00:00 8.490246 50.6448
2022-04-04T16:00:00 8.390245 50.13167
2022-04-04T17:00:00 7.800245 51.84583
2022-04-04T18:00:00 6.710245 54.81297
2022-04-04T19:00:00 6.610245 55.19281
2022-04-04T20:00:00 6.660245 54.92099
2022-04-04T21:00:00 6.570245 56.25522
2022-04-04T22:00:00 6.120246 63.16663
2022-04-04T23:00:00 6.190245 63.50893
2022-04-05T00:00:00 6.090245 64.13843
2022-04-05T01:00:00 6.010245 63.88432
2022-04-05T02:00:00 5.970245 64.15593
2022-04-05T03:00:00 5.910245 65.66154
2022-04-05T04:00:00 5.400245 70.51093
2022-04-05T05:00:00 5.300245 73.84538
2022-04-05T06:00:00 5.340245 75.74717
2022-04-05T07:00:00 5.600246 75.68607
2022-04-05T08:00:00 6.320245 74.89996
2022-04-05T09:00:00 7.120246 71.64271
2022-04-05T10:00:00 7.850246 64.93941
2022-04-05T11:00:00 8.690246 62.52873
2022-04-05T12:00:00 9.830245 61.21699
2022-04-05T13:00:00 10.45025 62.64904
2022-04-05T14:00:00 11.08025 63.91847
2022-04-05T15:00:00 11.34025 65.52421
2022-04-05T16:00:00 11.37025 68.3359
2022-04-05T17:00:00 10.93025 71.35593
2022-04-05T18:00:00 10.34025 75.53
2022-04-05T19:00:00 9.870245 78.06155
2022-04-05T20:00:00 9.630245 79.77574
2022-04-05T21:00:00 9.240245 82.64674
2022-04-05T22:00:00 8.650246 86.07993
2022-04-05T23:00:00 9.040245 85.23574
2022-04-06T00:00:00 9.120245 85.83604
2022-04-06T01:00:00 9.360246 85.1559
2022-04-06T02:00:00 9.720245 85.43299
2022-04-06T03:00:00 9.910245 86.27967
2022-04-06T04:00:00 10.15025 85.95221
2022-04-06T05:00:00 10.37025 85.91795
2022-04-06T06:00:00 10.31025 86.38237
2022-04-06T07:00:00 10.48025 84.24331
2022-04-06T08:00:00 10.77025 81.50001
2022-04-06T09:00:00 11.65025 76.07337
2022-04-06T10:00:00 12.35025 73.88464
2022-04-06T11:00:00 12.93025 71.35935
2022-04-06T12:00:00 13.78025 68.09835
2022-04-06T13:00:00 14.04025 65.36729
2022-04-06T14:00:00 14.10025 65.06767
2022-04-06T15:00:00 14.21025 62.72224
2022-04-06T16:00:00 13.96025 63.35787
2022-04-06T17:00:00 13.01025 67.09665
2022-04-06T18:00:00 12.20025 71.26388
2022-04-06T19:00:00 11.64025 74.9819
2022-04-06T20:00:00 11.74025 74.99978
2022-04-06T21:00:00 11.90025 74.20852
2022-04-06T22:00:00 11.73025 77.82685
2022-04-06T23:00:00 10.84025 83.08691
2022-04-07T00:00:00 10.44025 83.20581
2022-04-07T01:00:00 10.06025 82.13238
2022-04-07T02:00:00 10.05025 79.45433
2022-04-07T03:00:00 10.11025 76.49243
2022-04-07T04:00:00 10.30025 73.86099
2022-04-07T05:00:00 10.63025 72.29617
2022-04-07T06:00:00 10.99025 70.52877
2022-04-07T07:00:00 11.24025 69.89625
2022-04-07T08:00:00 11.45025 71.36083
2022-04-07T09:00:00 11.30025 75.75161
2022-04-07T10:00:00 11.69025 76.55141
2022-04-07T11:00:00 11.56025 77.32092
2022-04-07T12:00:00 11.37025 77.55527
2022-04-07T13:00:00 12.06025 74.33969
2022-04-07T14:00:00 12.33025 75.8785
2022-04-07T15:00:00 12.44025 75.12412
2022-04-07T16:00:00 11.93025 79.95764
2022-04-07T17:00:00 11.81025 81.20156
2022-04-07T18:00:00 11.59025 80.78421
2022-04-07T19:00:00 11.80025 81.69867
2022-04-07T20:00:00 11.92025 83.11293
2022-04-07T21:00:00 11.74025 86.82764
2022-04-07T22:00:00 11.49025 86.74311
2022-04-07T23:00:00 10.95025 83.04442
2022-04-08T00:00:00 10.32025 80.15669
2022-04-08T01:00:00 9.620245 82.4128
2022-04-08T02:00:00 9.220245 84.55317
2022-04-08T03:00:00 8.960245 86.35323
2022-04-08T04:00:00 8.880245 88.39494
2022-04-08T05:00:00 8.810246 90.73184
2022-04-08T06:00:00 8.950245 89.87412
2022-04-08T07:00:00 9.150246 90.26216
2022-04-08T08:00:00 9.670245 90.05833
2022-04-08T09:00:00 10.37025 89.01972
2022-04-08T10:00:00 11.56025 85.06379
2022-04-08T11:00:00 12.59025 82.41621
2022-04-08T12:00:00 12.95025 78.92527
2022-04-08T13:00:00 12.59025 78.44299
2022-04-08T14:00:00 12.46025 80.14443
2022-04-08T15:00:00 13.17025 77.05994
2022-04-08T16:00:00 13.27025 78.12563
2022-04-08T17:00:00 13.05025 79.42206
2022-04-08T18:00:00 13.13025 76.68874
2022-04-08T19:00:00 13.03025 75.38148
2022-04-08T20:00:00 13.21025 72.74246
2022-04-08T21:00:00 12.93025 72.14496
2022-04-08T22:00:00 11.78025 73.17223
2022-04-08T23:00:00 10.33025 81.83112
2022-04-09T00:00:00 7.860245 90.15379
2022-04-09T01:00:00 4.370246 93.23203
2022-04-09T02:00:00 3.430245 90.40117
2022-04-09T03:00:00 3.250246 85.74352
2022-04-09T04:00:00 3.190246 87.17571
2022-04-09T05:00:00 3.250246 87.62476
2022-04-09T06:00:00 3.580246 84.73673
2022-04-09T07:00:00 4.250246 80.23894
2022-04-09T08:00:00 4.780245 75.64294
2022-04-09T09:00:00 5.600246 66.45785
2022-04-09T10:00:00 6.180245 72.06991
2022-04-09T11:00:00 7.020245 68.20284
2022-04-09T12:00:00 7.800245 64.13589
2022-04-09T13:00:00 8.320246 60.52638
2022-04-09T14:00:00 8.240246 60.1124
2022-04-09T15:00:00 8.750245 57.18377
2022-04-09T16:00:00 8.580245 58.3544
2022-04-09T17:00:00 8.000245 60.66365
2022-04-09T18:00:00 6.990245 66.73383
2022-04-09T19:00:00 5.220245 73.2959
2022-04-09T20:00:00 4.670245 81.23737
2022-04-09T21:00:00 4.660245 83.12808
2022-04-09T22:00:00 4.390245 83.21
2022-04-09T23:00:00 4.140245 86.78352
2022-04-10T00:00:00 3.290246 90.64899
2022-04-10T01:00:00 2.500246 92.69865
2022-04-10T02:00:00 1.960245 93.46764
2022-04-10T03:00:00 1.230245 94.92539
2022-04-10T04:00:00 0.890245 95.94918
2022-04-10T05:00:00 0.880245 95.25127
2022-04-10T06:00:00 2.180245 92.27258
2022-04-10T07:00:00 4.070245 88.47327
2022-04-10T08:00:00 5.870246 81.82555
2022-04-10T09:00:00 7.450245 66.79181
2022-04-10T10:00:00 8.720245 54.85095
2022-04-10T11:00:00 9.760245 46.43724
2022-04-10T12:00:00 10.55025 42.56457
2022-04-10T13:00:00 11.08025 40.32877
2022-04-10T14:00:00 11.46025 39.14646
2022-04-10T15:00:00 11.82025 37.8826
2022-04-10T16:00:00 11.97025 37.70373
2022-04-10T17:00:00 11.34025 40.95035
2022-04-10T18:00:00 8.500245 51.62783
2022-04-10T19:00:00 5.550245 66.2032
2022-04-10T20:00:00 4.230246 73.36459
2022-04-10T21:00:00 3.360245 78.18827
2022-04-10T22:00:00 2.670245 82.48199
2022-04-10T23:00:00 2.380245 83.47186
2022-04-11T00:00:00 2.440245 83.78615
2022-04-11T01:00:00 2.150245 84.42325
2022-04-11T02:00:00 2.100246 83.92302
2022-04-11T03:00:00 1.950245 84.45802
2022-04-11T04:00:00 1.690245 83.92753
2022-04-11T05:00:00 1.140245 84.34732
2022-04-11T06:00:00 2.930245 80.49587
2022-04-11T07:00:00 5.730245 70.01996
2022-04-11T08:00:00 7.790245 62.93922
2022-04-11T09:00:00 9.800245 56.76579
2022-04-11T10:00:00 11.74025 53.07785
2022-04-11T11:00:00 13.55025 48.61747
2022-04-11T12:00:00 14.91025 45.78643
2022-04-11T13:00:00 16.13025 40.96254
2022-04-11T14:00:00 17.01024 38.28342
2022-04-11T15:00:00 17.52025 36.09435
2022-04-11T16:00:00 17.41025 37.2157
2022-04-11T17:00:00 16.39025 46.67129
2022-04-11T18:00:00 14.29025 48.89874
2022-04-11T19:00:00 12.01025 59.08139
2022-04-11T20:00:00 10.53025 66.54499
2022-04-11T21:00:00 9.570246 69.84025
2022-04-11T22:00:00 8.890245 71.79888
2022-04-11T23:00:00 8.740245 71.66715
2022-04-12T00:00:00 7.220245 78.67149
2022-04-12T01:00:00 6.700245 79.82427
2022-04-12T02:00:00 6.690245 78.92019
2022-04-12T03:00:00 6.120246 80.81975
2022-04-12T04:00:00 5.410245 83.76864
2022-04-12T05:00:00 4.980245 84.85658
2022-04-12T06:00:00 6.800245 81.38255
2022-04-12T07:00:00 9.690246 72.2628
2022-04-12T08:00:00 11.94025 61.91507
2022-04-12T09:00:00 14.12025 55.06652
2022-04-12T10:00:00 16.05025 51.57739
2022-04-12T11:00:00 17.92025 47.27107
2022-04-12T12:00:00 19.73025 44.28126
2022-04-12T13:00:00 20.94025 41.19054
2022-04-12T14:00:00 21.82025 39.28703
2022-04-12T15:00:00 22.05025 39.38052
2022-04-12T16:00:00 21.89025 39.8233
2022-04-12T17:00:00 20.70025 56.20825
2022-04-12T18:00:00 20.82025 44.50074
2022-04-12T19:00:00 18.24025 56.41292
2022-04-12T20:00:00 16.99025 63.24368
2022-04-12T21:00:00 14.22025 75.84171
2022-04-12T22:00:00 12.99025 81.31085
2022-04-12T23:00:00 13.23025 79.39539
2022-04-13T00:00:00 12.91025 79.18655
2022-04-13T01:00:00 12.32025 81.60384
2022-04-13T02:00:00 11.77025 82.64371
2022-04-13T03:00:00 10.66025 85.36589
2022-04-13T04:00:00 9.920245 87.89098
2022-04-13T05:00:00 9.200245 89.03552
2022-04-13T06:00:00 10.55025 86.05534
2022-04-13T07:00:00 13.48025 74.7471
2022-04-13T08:00:00 16.02025 60.04658
2022-04-13T09:00:00 18.06025 50.37097
2022-04-13T10:00:00 19.90025 44.91204
2022-04-13T11:00:00 21.03025 42.24774
2022-04-13T12:00:00 21.89025 40.78954
2022-04-13T13:00:00 22.57025 39.53048
2022-04-13T14:00:00 23.00025 38.95773
2022-04-13T15:00:00 23.03025 39.68976
2022-04-13T16:00:00 22.57025 42.68774
2022-04-13T17:00:00 21.62025 42.70707
2022-04-13T18:00:00 19.34025 51.69385
2022-04-13T19:00:00 17.74025 56.20831
2022-04-13T20:00:00 17.30025 59.30704
2022-04-13T21:00:00 15.57025 66.46978
2022-04-13T22:00:00 16.08025 67.52836
2022-04-13T23:00:00 15.23025 71.66061
2022-04-14T00:00:00 13.28025 79.51002
2022-04-14T01:00:00 11.89025 84.7572
2022-04-14T02:00:00 11.74025 86.24315
2022-04-14T03:00:00 11.53025 86.3374
2022-04-14T04:00:00 11.79025 85.72561
2022-04-14T05:00:00 11.27025 87.25061
2022-04-14T06:00:00 11.92025 87.31567
2022-04-14T07:00:00 14.28025 77.60405
2022-04-14T08:00:00 15.51025 72.00326
2022-04-14T09:00:00 17.19025 63.71634
2022-04-14T10:00:00 18.40025 63.48126
2022-04-14T11:00:00 19.66025 60.52052
2022-04-14T12:00:00 20.56025 56.92397
2022-04-14T13:00:00 21.25025 55.16597
2022-04-14T14:00:00 21.44025 53.76995
2022-04-14T15:00:00 21.80025 52.48852
2022-04-14T16:00:00 21.56025 51.49105
2022-04-14T17:00:00 20.69025 54.47562
2022-04-14T18:00:00 19.03025 63.32935
2022-04-14T19:00:00 17.95025 66.05245
2022-04-14T20:00:00 16.98025 71.13736
2022-04-14T21:00:00 15.66025 76.08321
2022-04-14T22:00:00 13.49025 85.73859
2022-04-14T23:00:00 13.58025 86.66684
2022-04-15T00:00:00 14.11025 86.43334
2022-04-15T01:00:00 13.80025 87.84767
2022-04-15T02:00:00 13.43025 89.40295
2022-04-15T03:00:00 12.84025 91.21832
2022-04-15T04:00:00 12.37025 93.89942
2022-04-15T05:00:00 11.74025 93.67873
2022-04-15T06:00:00 12.23025 92.15508
2022-04-15T07:00:00 13.74025 85.59441
2022-04-15T08:00:00 15.44025 76.60585
2022-04-15T09:00:00 17.19025 69.7749
2022-04-15T10:00:00 18.31025 65.95483
2022-04-15T11:00:00 19.58025 59.34699
2022-04-15T12:00:00 20.25025 53.85466
2022-04-15T13:00:00 20.90025 49.02223
2022-04-15T14:00:00 21.16025 46.6082
2022-04-15T15:00:00 21.19025 43.91264
2022-04-15T16:00:00 20.72025 44.26021
2022-04-15T17:00:00 19.93024 45.94767
2022-04-15T18:00:00 18.42025 48.83617
2022-04-15T19:00:00 16.01025 58.02558
2022-04-15T20:00:00 14.59025 63.11464
2022-04-15T21:00:00 13.35025 67.63409
2022-04-15T22:00:00 12.44025 70.82275
2022-04-15T23:00:00 11.97025 72.05793
2022-04-16T00:00:00 11.05025 75.08312
2022-04-16T01:00:00 9.560246 79.26815
2022-04-16T02:00:00 8.830245 81.56319
2022-04-16T03:00:00 8.160246 83.71816
2022-04-16T04:00:00 7.400245 86.05712
2022-04-16T05:00:00 6.860245 87.5177
2022-04-16T06:00:00 9.080245 82.73978
2022-04-16T07:00:00 10.72025 76.70309
2022-04-16T08:00:00 12.52025 67.59419
2022-04-16T09:00:00 13.90025 62.08861
2022-04-16T10:00:00 14.75025 56.75196
2022-04-16T11:00:00 15.54025 52.37727
2022-04-16T12:00:00 15.96025 48.89109
2022-04-16T13:00:00 16.53025 44.97389
2022-04-16T14:00:00 16.91025 43.06958
2022-04-16T15:00:00 16.81025 42.01845
2022-04-16T16:00:00 16.41025 41.54487
2022-04-16T17:00:00 15.40025 45.47575
2022-04-16T18:00:00 13.66025 49.06656
2022-04-16T19:00:00 11.70025 54.06271
2022-04-16T20:00:00 10.62025 56.45734
2022-04-16T21:00:00 9.840245 57.72461
2022-04-16T22:00:00 8.890245 60.5415
2022-04-16T23:00:00 8.600245 58.9124
2022-04-17T00:00:00 7.730245 59.11202
2022-04-17T01:00:00 6.410245 61.05317
2022-04-17T02:00:00 5.160245 64.47683
2022-04-17T03:00:00 4.250246 66.82593
2022-04-17T04:00:00 3.710246 68.30024
2022-04-17T05:00:00 3.410245 68.79065
2022-04-17T06:00:00 5.780245 61.4312
2022-04-17T07:00:00 7.810246 51.84872
2022-04-17T08:00:00 9.600245 46.01356
2022-04-17T09:00:00 11.51025 40.04292
2022-04-17T10:00:00 13.41025 35.40505
2022-04-17T11:00:00 15.16025 32.73797
2022-04-17T12:00:00 16.57025 30.12451
2022-04-17T13:00:00 17.55025 27.11591
2022-04-17T14:00:00 18.16025 24.87861
2022-04-17T15:00:00 18.37025 23.10948
2022-04-17T16:00:00 17.87025 23.90425
2022-04-17T17:00:00 16.65025 28.06138
2022-04-17T18:00:00 14.48025 32.413
2022-04-17T19:00:00 11.56025 41.38225
2022-04-17T20:00:00 9.670245 48.47245
2022-04-17T21:00:00 8.430245 53.5009
2022-04-17T22:00:00 7.510245 54.5931
2022-04-17T23:00:00 6.260245 60.8799
2022-04-18T00:00:00 5.430245 64.30614
2022-04-18T01:00:00 4.350246 69.10502
2022-04-18T02:00:00 3.780245 71.04409
2022-04-18T03:00:00 2.810246 75.43572
2022-04-18T04:00:00 2.100246 78.31318
2022-04-18T05:00:00 1.690245 81.18984
2022-04-18T06:00:00 4.930245 72.49512
2022-04-18T07:00:00 7.930245 58.01167
2022-04-18T08:00:00 10.08025 48.98595
2022-04-18T09:00:00 11.81025 44.90518
2022-04-18T10:00:00 13.43025 43.36892
2022-04-18T11:00:00 14.96025 41.56
2022-04-18T12:00:00 16.30025 38.92829
2022-04-18T13:00:00 17.40025 36.1363
2022-04-18T14:00:00 18.08025 33.51231
2022-04-18T15:00:00 18.49025 32.49293
2022-04-18T16:00:00 18.48025 32.56026
2022-04-18T17:00:00 17.55025 36.0774
2022-04-18T18:00:00 14.34025 50.92332
2022-04-18T19:00:00 11.09025 57.84809
2022-04-18T20:00:00 10.92025 55.09902
2022-04-18T21:00:00 10.19025 59.92391
2022-04-18T22:00:00 8.650246 63.19664
2022-04-18T23:00:00 6.370246 73.57659
2022-04-19T00:00:00 4.620246 81.28832
2022-04-19T01:00:00 3.680245 85.73488
2022-04-19T02:00:00 3.090245 88.56226
2022-04-19T03:00:00 2.440245 90.90105
2022-04-19T04:00:00 2.030245 91.72661
2022-04-19T05:00:00 2.210245 91.01258
2022-04-19T06:00:00 5.580246 81.95848
2022-04-19T07:00:00 9.240245 67.62997
2022-04-19T08:00:00 11.75025 57.16367
2022-04-19T09:00:00 13.93025 51.16883
2022-04-19T10:00:00 15.96025 44.74486
2022-04-19T11:00:00 17.31025 39.98786
2022-04-19T12:00:00 18.11025 37.05286
2022-04-19T13:00:00 18.76024 35.13895
2022-04-19T14:00:00 18.90025 34.38736
2022-04-19T15:00:00 18.95025 33.52892
2022-04-19T16:00:00 18.15025 35.15909
2022-04-19T17:00:00 17.03025 37.88107
2022-04-19T18:00:00 14.96025 43.91639
2022-04-19T19:00:00 12.39025 54.09797
2022-04-19T20:00:00 11.16025 58.52876
2022-04-19T21:00:00 10.12025 62.39055
2022-04-19T22:00:00 9.020246 67.0543
2022-04-19T23:00:00 8.300245 70.81894
2022-04-20T00:00:00 7.860245 71.99887
2022-04-20T01:00:00 7.750245 71.4652
2022-04-20T02:00:00 6.560246 75.32169
2022-04-20T03:00:00 5.720245 78.64739
2022-04-20T04:00:00 5.230245 79.7038
2022-04-20T05:00:00 5.110245 79.11292
2022-04-20T06:00:00 7.160245 71.24126
2022-04-20T07:00:00 9.580245 60.45701
2022-04-20T08:00:00 11.63025 53.08526
2022-04-20T09:00:00 13.36025 47.73666
2022-04-20T10:00:00 14.95025 45.08715
2022-04-20T11:00:00 16.13025 42.29644
2022-04-20T12:00:00 17.01024 39.61626
2022-04-20T13:00:00 17.70025 37.51516
2022-04-20T14:00:00 18.06025 35.58778
2022-04-20T15:00:00 18.14025 34.55695
2022-04-20T16:00:00 17.62025 34.35307
2022-04-20T17:00:00 16.39025 37.79871
2022-04-20T18:00:00 14.25025 42.40577
2022-04-20T19:00:00 11.68025 50.35066
2022-04-20T20:00:00 9.870245 57.69108
2022-04-20T21:00:00 8.900246 60.63138
2022-04-20T22:00:00 8.200246 60.75903
2022-04-20T23:00:00 6.890245 65.32285
2022-04-21T00:00:00 5.800245 69.52809
2022-04-21T01:00:00 4.820245 73.26909
2022-04-21T02:00:00 4.020246 75.99782
2022-04-21T03:00:00 3.220245 79.83956
2022-04-21T04:00:00 2.390245 83.10747
2022-04-21T05:00:00 2.440245 83.78615
2022-04-21T06:00:00 5.760245 73.45642
2022-04-21T07:00:00 8.480246 61.18331
2022-04-21T08:00:00 10.72025 51.96018
2022-04-21T09:00:00 12.66025 46.44933
2022-04-21T10:00:00 14.54025 42.89091
2022-04-21T11:00:00 15.96025 40.18707
2022-04-21T12:00:00 17.17025 37.27747
2022-04-21T13:00:00 18.31025 35.3325
2022-04-21T14:00:00 18.91025 34.02407
2022-04-21T15:00:00 19.20025 32.9841
2022-04-21T16:00:00 19.07025 33.94995
2022-04-21T17:00:00 17.88025 41.3041
2022-04-21T18:00:00 15.75025 48.21905
2022-04-21T19:00:00 13.23025 58.15955
2022-04-21T20:00:00 11.61025 64.94714
2022-04-21T21:00:00 10.37025 68.98517
2022-04-21T22:00:00 9.470245 72.16853
2022-04-21T23:00:00 8.590245 74.21396
2022-04-22T00:00:00 7.860245 75.82853
2022-04-22T01:00:00 6.890245 78.50555
2022-04-22T02:00:00 6.310246 79.76251
2022-04-22T03:00:00 6.520245 79.34295
2022-04-22T04:00:00 5.660245 82.91122
2022-04-22T05:00:00 5.090245 86.0908
2022-04-22T06:00:00 7.200245 81.90227
2022-04-22T07:00:00 9.370245 73.582
2022-04-22T08:00:00 10.99025 67.92055
2022-04-22T09:00:00 12.61025 62.86268
2022-04-22T10:00:00 14.12025 60.74123
2022-04-22T11:00:00 15.83025 54.91029
2022-04-22T12:00:00 17.11025 51.2282
2022-04-22T13:00:00 17.99025 48.98543
2022-04-22T14:00:00 18.79025 46.86739
2022-04-22T15:00:00 18.50025 49.02641
2022-04-22T16:00:00 17.92025 53.0578
2022-04-22T17:00:00 17.17025 54.69938
2022-04-22T18:00:00 15.87025 56.92452
2022-04-22T19:00:00 13.77025 67.03219
2022-04-22T20:00:00 11.79025 76.77846
2022-04-22T21:00:00 10.95025 79.5923
2022-04-22T22:00:00 10.08025 84.4256
2022-04-22T23:00:00 9.060246 86.90227
2022-04-23T00:00:00 8.450246 88.72065
2022-04-23T01:00:00 8.690246 87.647
2022-04-23T02:00:00 9.180245 86.13953
2022-04-23T03:00:00 9.090245 85.71413
2022-04-23T04:00:00 8.910245 87.79044
2022-04-23T05:00:00 8.980246 88.16128
2022-04-23T06:00:00 10.09025 85.12479
2022-04-23T07:00:00 10.76025 83.13338
2022-04-23T08:00:00 11.51025 79.67709
2022-04-23T09:00:00 12.09025 77.09158
2022-04-23T10:00:00 12.61025 77.86234
2022-04-23T11:00:00 12.96025 77.13
2022-04-23T12:00:00 12.88025 79.07493
2022-04-23T13:00:00 13.50025 78.32004
2022-04-23T14:00:00 13.61025 78.17902
2022-04-23T15:00:00 14.36025 75.86543
2022-04-23T16:00:00 14.62025 74.09569
2022-04-23T17:00:00 14.31025 75.34838
2022-04-23T18:00:00 13.43025 79.10497
2022-04-23T19:00:00 12.23025 84.22662
2022-04-23T20:00:00 11.84025 85.21118
2022-04-23T21:00:00 11.12025 88.90579
2022-04-23T22:00:00 10.43025 82.40905
2022-04-23T23:00:00 11.08025 77.93524
2022-04-24T00:00:00 9.810246 84.16058
2022-04-24T01:00:00 9.120245 88.72264
2022-04-24T02:00:00 9.020246 87.37884
2022-04-24T03:00:00 8.150246 84.65633
2022-04-24T04:00:00 7.810246 86.58582
2022-04-24T05:00:00 7.830246 88.41524
2022-04-24T06:00:00 8.320246 89.81966
2022-04-24T07:00:00 9.100245 87.14653
2022-04-24T08:00:00 9.730246 83.8613
2022-04-24T09:00:00 10.22025 82.04135
2022-04-24T10:00:00 10.57025 82.88122
2022-04-24T11:00:00 10.97025 82.99033
2022-04-24T12:00:00 11.25025 83.48042
2022-04-24T13:00:00 11.30025 85.78748
2022-04-24T14:00:00 11.15025 86.7076
2022-04-24T15:00:00 10.97025 88.83215
2022-04-24T16:00:00 10.62025 91.24283
2022-04-24T17:00:00 10.51025 92.1665
2022-04-24T18:00:00 10.28025 93.85233
2022-04-24T19:00:00 10.19025 95.25493
2022-04-24T20:00:00 10.16025 96.67999
2022-04-24T21:00:00 10.20025 97.59845
2022-04-24T22:00:00 10.18025 97.26945
2022-04-24T23:00:00 9.940246 97.92181
2022-04-25T00:00:00 9.950245 98.65165
2022-04-25T01:00:00 9.870245 96.80129
2022-04-25T02:00:00 9.950245 97.06595
2022-04-25T03:00:00 10.45025 94.56162
2022-04-25T04:00:00 10.28025 94.5533
2022-04-25T05:00:00 9.820246 98.18401
2022-04-25T06:00:00 11.04025 94.39953
2022-04-25T07:00:00 11.73025 89.74153
2022-04-25T08:00:00 12.06025 90.55442
2022-04-25T09:00:00 12.09025 88.87209
2022-04-25T10:00:00 12.50025 85.68826
2022-04-25T11:00:00 13.16025 82.49071
2022-04-25T12:00:00 13.20025 81.66862
2022-04-25T13:00:00 13.52025 80.13626
2022-04-25T14:00:00 13.83025 76.08285
2022-04-25T15:00:00 13.87025 76.81111
2022-04-25T16:00:00 13.13025 80.56696
2022-04-25T17:00:00 12.40025 83.79376
2022-04-25T18:00:00 11.28025 89.28123
2022-04-25T19:00:00 11.07025 91.64574
2022-04-25T20:00:00 10.99025 92.01191
2022-04-25T21:00:00 10.76025 94.06825
2022-04-25T22:00:00 9.950245 95.051
2022-04-25T23:00:00 9.650246 97.05684
2022-04-26T00:00:00 9.180245 97.70419
2022-04-26T01:00:00 8.910245 98.09699
2022-04-26T02:00:00 9.100245 97.56931
2022-04-26T03:00:00 9.230246 96.84608
2022-04-26T04:00:00 9.110246 96.18497
2022-04-26T05:00:00 9.070246 93.8493
2022-04-26T06:00:00 8.920245 94.2913
2022-04-26T07:00:00 9.120245 91.44347
2022-04-26T08:00:00 10.04025 86.17577
2022-04-26T09:00:00 11.34025 76.75532
2022-04-26T10:00:00 12.20025 68.08828
2022-04-26T11:00:00 13.00025 64.19094
2022-04-26T12:00:00 13.23025 65.04876
2022-04-26T13:00:00 13.38025 64.32364
2022-04-26T14:00:00 13.43025 64.02489
2022-04-26T15:00:00 13.99025 62.02455
2022-04-26T16:00:00 14.20025 59.38897
2022-04-26T17:00:00 13.76025 59.3606
2022-04-26T18:00:00 12.13025 70.17683
2022-04-26T19:00:00 11.13025 70.36137
2022-04-26T20:00:00 10.91025 71.79993
2022-04-26T21:00:00 9.620245 76.19474
2022-04-26T22:00:00 8.810246 80.37524
2022-04-26T23:00:00 8.520246 80.89488
2022-04-27T00:00:00 5.530245 91.35735
2022-04-27T01:00:00 5.650245 92.72842
2022-04-27T02:00:00 4.640245 95.79319
2022-04-27T03:00:00 4.060246 98.24173
2022-04-27T04:00:00 3.740245 98.79165
2022-04-27T05:00:00 4.650245 97.70617
2022-04-27T06:00:00 6.410245 95.34193
2022-04-27T07:00:00 8.410246 88.28821
2022-04-27T08:00:00 10.43025 76.44153
2022-04-27T09:00:00 11.74025 68.84438
2022-04-27T10:00:00 13.24025 64.33568
2022-04-27T11:00:00 14.28025 59.32683
2022-04-27T12:00:00 15.36025 55.54987
2022-04-27T13:00:00 16.32025 52.26349
2022-04-27T14:00:00 17.21025 49.37906
2022-04-27T15:00:00 17.62025 47.81172
2022-04-27T16:00:00 17.52025 48.55084
2022-04-27T17:00:00 16.73025 53.43231
2022-04-27T18:00:00 14.53025 64.89817
2022-04-27T19:00:00 11.81025 74.7551
2022-04-27T20:00:00 10.43025 79.1299
2022-04-27T21:00:00 9.230246 82.41658
2022-04-27T22:00:00 8.330246 83.56529
2022-04-27T23:00:00 7.670245 85.96798
2022-04-28T00:00:00 6.860245 88.01012
2022-04-28T01:00:00 6.170245 90.51389
2022-04-28T02:00:00 5.650245 92.14276
2022-04-28T03:00:00 5.110245 93.41364
2022-04-28T04:00:00 4.440246 94.90549
2022-04-28T05:00:00 5.270245 93.688
2022-04-28T06:00:00 8.110246 86.67923
2022-04-28T07:00:00 10.55025 77.09948
2022-04-28T08:00:00 12.78025 68.44818
2022-04-28T09:00:00 14.79025 61.0732
2022-04-28T10:00:00 16.54025 56.1664
2022-04-28T11:00:00 17.96025 51.10915
2022-04-28T12:00:00 19.08025 46.08583
2022-04-28T13:00:00 19.93024 42.45547
2022-04-28T14:00:00 20.57025 39.0052
2022-04-28T15:00:00 20.84025 36.84119
2022-04-28T16:00:00 20.71025 35.66246
2022-04-28T17:00:00 19.87025 40.40067
2022-04-28T18:00:00 17.18024 51.24741
2022-04-28T19:00:00 13.80025 60.32668
2022-04-28T20:00:00 11.90025 67.41205
2022-04-28T21:00:00 10.42025 72.35584
2022-04-28T22:00:00 9.440246 77.44945
2022-04-28T23:00:00 8.550245 79.33066
2022-04-29T00:00:00 7.430245 82.80422
2022-04-29T01:00:00 6.670245 85.36884
2022-04-29T02:00:00 5.730245 88.95594
2022-04-29T03:00:00 4.950245 91.56975
2022-04-29T04:00:00 4.260245 93.15824
2022-04-29T05:00:00 5.360245 90.95712
2022-04-29T06:00:00 8.080246 84.11784
2022-04-29T07:00:00 10.91025 71.25269
2022-04-29T08:00:00 13.23025 60.35274
2022-04-29T09:00:00 15.36025 53.3955
2022-04-29T10:00:00 16.68024 48.85544
2022-04-29T11:00:00 17.82025 46.75409
2022-04-29T12:00:00 18.45025 44.80685
2022-04-29T13:00:00 18.97025 42.82769
2022-04-29T14:00:00 19.06025 41.38861
2022-04-29T15:00:00 18.93024 41.09169
2022-04-29T16:00:00 18.35025 41.87946
2022-04-29T17:00:00 17.76024 48.21669
2022-04-29T18:00:00 17.36025 40.8903
2022-04-29T19:00:00 14.69025 56.22638
2022-04-29T20:00:00 13.14025 64.58006
2022-04-29T21:00:00 12.76025 68.06752
2022-04-29T22:00:00 12.30025 69.2971
2022-04-29T23:00:00 12.09025 71.93255
2022-04-30T00:00:00 11.64025 76.96401
2022-04-30T01:00:00 10.94025 83.55508
2022-04-30T02:00:00 9.920245 88.43358
2022-04-30T03:00:00 9.020246 91.24809
2022-04-30T04:00:00 9.220245 92.39436
2022-04-30T05:00:00 9.070246 93.20986
2022-04-30T06:00:00 10.37025 89.68835
2022-04-30T07:00:00 12.28025 82.0971
2022-04-30T08:00:00 13.61025 74.06405
2022-04-30T09:00:00 14.83025 67.9042
2022-04-30T10:00:00 15.08025 63.57587
2022-04-30T11:00:00 15.40025 61.85232
2022-04-30T12:00:00 15.32025 62.34234
2022-04-30T13:00:00 15.50025 60.62022
2022-04-30T14:00:00 15.33025 60.37139
2022-04-30T15:00:00 14.77025 64.95254
2022-04-30T16:00:00 13.71025 69.35188
2022-04-30T17:00:00 12.83025 75.55203
2022-04-30T18:00:00 12.27025 76.70161
2022-04-30T19:00:00 11.25025 81.4557
2022-04-30T20:00:00 10.24025 86.07993
2022-04-30T21:00:00 9.510245 89.55317
2022-04-30T22:00:00 8.290245 93.86948
2022-04-30T23:00:00 7.610245 95.86091
2022-05-01T00:00:00 7.620246 95.86134
2022-05-01T01:00:00 7.060246 96.9719
2022-05-01T02:00:00 6.320245 96.74324
2022-05-01T03:00:00 6.050245 97.5461
2022-05-01T04:00:00 5.740245 97.94595
2022-05-01T05:00:00 6.120246 97.75243
2022-05-01T06:00:00 7.370246 95.25596
2022-05-01T07:00:00 8.790245 90.98014
2022-05-01T08:00:00 10.00025 85.05583
2022-05-01T09:00:00 11.19025 79.5742
2022-05-01T10:00:00 12.38025 72.08804
2022-05-01T11:00:00 13.58025 65.98576
2022-05-01T12:00:00 14.73025 59.1532
2022-05-01T13:00:00 15.55025 53.40982
2022-05-01T14:00:00 16.19025 50.58629
2022-05-01T15:00:00 16.35025 50.385
2022-05-01T16:00:00 16.14025 52.10585
2022-05-01T17:00:00 15.47025 55.61733
2022-05-01T18:00:00 14.04025 61.31235
2022-05-01T19:00:00 11.61025 75.02813
2022-05-01T20:00:00 10.22025 81.59084
2022-05-01T21:00:00 9.400246 86.28281
2022-05-01T22:00:00 7.680245 92.41695
2022-05-01T23:00:00 7.830246 92.68327
2022-05-02T00:00:00 7.690245 92.99511
2022-05-02T01:00:00 7.000245 94.12063
2022-05-02T02:00:00 5.950245 96.12268
2022-05-02T03:00:00 4.940245 98.54358
2022-05-02T04:00:00 4.430245 98.66946
2022-05-02T05:00:00 5.270245 97.52065
2022-05-02T06:00:00 8.360246 90.57063
2022-05-02T07:00:00 10.73025 82.73218
2022-05-02T08:00:00 12.85025 76.53799
2022-05-02T09:00:00 14.83025 70.86285
2022-05-02T10:00:00 16.52025 60.82654
2022-05-02T11:00:00 17.91025 54.29936
2022-05-02T12:00:00 18.68024 49.34606
2022-05-02T13:00:00 19.00025 46.44519
2022-05-02T14:00:00 19.04025 47.91412
2022-05-02T15:00:00 18.94025 49.18213
2022-05-02T16:00:00 18.65025 51.29719
2022-05-02T17:00:00 17.88025 53.84937
2022-05-02T18:00:00 16.46025 57.66478
2022-05-02T19:00:00 13.83025 71.34128
2022-05-02T20:00:00 12.30025 78.6646
2022-05-02T21:00:00 11.78025 80.81143
2022-05-02T22:00:00 10.90025 82.92451
2022-05-02T23:00:00 9.990245 86.58451
2022-05-03T00:00:00 9.590245 89.07098
2022-05-03T01:00:00 9.510245 87.66972
2022-05-03T02:00:00 8.990245 90.18692
2022-05-03T03:00:00 7.990245 93.33588
2022-05-03T04:00:00 7.570245 94.02275
2022-05-03T05:00:00 7.790245 94.81715
2022-05-03T06:00:00 10.32025 88.59187
2022-05-03T07:00:00 12.56025 78.65158
2022-05-03T08:00:00 14.93025 69.60156
2022-05-03T09:00:00 16.71025 64.33933
2022-05-03T10:00:00 18.55025 56.98926
2022-05-03T11:00:00 19.71025 49.86642
2022-05-03T12:00:00 20.11025 45.15695
2022-05-03T13:00:00 20.24025 43.07529
2022-05-03T14:00:00 19.28025 44.45818
2022-05-03T15:00:00 18.77025 47.51093
2022-05-03T16:00:00 18.50025 50.35392
2022-05-03T17:00:00 17.89025 57.40139
2022-05-03T18:00:00 16.39025 63.6191
2022-05-03T19:00:00 15.16025 68.57441
2022-05-03T20:00:00 14.28025 73.78534
2022-05-03T21:00:00 13.10025 78.31042
2022-05-03T22:00:00 11.23025 85.66332
2022-05-03T23:00:00 10.88025 87.09267
2022-05-04T00:00:00 9.780245 90.68438
2022-05-04T01:00:00 8.950245 92.56635
2022-05-04T02:00:00 8.150246 94.83527
2022-05-04T03:00:00 7.760245 96.72936
2022-05-04T04:00:00 7.830246 96.39969
2022-05-04T05:00:00 8.770246 95.45164
2022-05-04T06:00:00 10.66025 90.50713
2022-05-04T07:00:00 12.82025 83.22707
2022-05-04T08:00:00 15.24025 73.26772
2022-05-04T09:00:00 17.32025 63.83151
2022-05-04T10:00:00 18.19025 58.57217
2022-05-04T11:00:00 19.33025 51.37677
2022-05-04T12:00:00 19.32025 48.98568
2022-05-04T13:00:00 18.37025 53.06957
2022-05-04T14:00:00 18.42025 52.83073
2022-05-04T15:00:00 17.95025 54.86689
2022-05-04T16:00:00 17.90025 55.83131
2022-05-04T17:00:00 17.61025 59.58407
2022-05-04T18:00:00 15.57025 65.88743
2022-05-04T19:00:00 13.70025 79.41209
2022-05-04T20:00:00 13.78025 76.48619
2022-05-04T21:00:00 13.81025 75.82315
2022-05-04T22:00:00 11.40025 92.34907
2022-05-04T23:00:00 11.95025 92.07538
2022-05-05T00:00:00 12.18025 91.66056
2022-05-05T01:00:00 12.12025 93.01374
2022-05-05T02:00:00 12.29025 93.14767
2022-05-05T03:00:00 12.29025 93.89533
2022-05-05T04:00:00 12.36025 94.52566
2022-05-05T05:00:00 12.15025 95.02074
2022-05-05T06:00:00 12.15025 94.39006
2022-05-05T07:00:00 12.28025 93.70739
2022-05-05T08:00:00 12.63025 90.05511
2022-05-05T09:00:00 12.83025 88.75886
2022-05-05T10:00:00 12.89025 87.11932
2022-05-05T11:00:00 12.81025 86.99484
2022-05-05T12:00:00 12.52025 87.55082
2022-05-05T13:00:00 12.42025 87.65865
2022-05-05T14:00:00 12.68025 85.19162
2022-05-05T15:00:00 13.07025 83.59446
2022-05-05T16:00:00 13.02025 84.37726
2022-05-05T17:00:00 12.71025 87.9803
2022-05-05T18:00:00 12.44025 90.28111
2022-05-05T19:00:00 11.15025 95.74458
2022-05-05T20:00:00 11.29025 96.52216
2022-05-05T21:00:00 11.06025 96.38535
2022-05-05T22:00:00 11.15025 93.89891
2022-05-05T23:00:00 10.93025 93.44575
2022-05-06T00:00:00 11.14025 92.33237
2022-05-06T01:00:00 11.07025 92.14138
2022-05-06T02:00:00 11.06025 92.57636
2022-05-06T03:00:00 11.09025 94.02208
2022-05-06T04:00:00 10.99025 95.67413
2022-05-06T05:00:00 11.06025 96.51465
2022-05-06T06:00:00 11.38025 97.88862
2022-05-06T07:00:00 12.14025 93.63756
2022-05-06T08:00:00 12.99025 88.77289
2022-05-06T09:00:00 13.94025 83.81214
2022-05-06T10:00:00 13.12025 88.01847
2022-05-06T11:00:00 13.99025 81.93879
2022-05-06T12:00:00 15.01025 77.6676
2022-05-06T13:00:00 16.12025 73.28096
2022-05-06T14:00:00 16.50025 71.6152
2022-05-06T15:00:00 16.76024 69.41112
2022-05-06T16:00:00 17.03025 69.6504
2022-05-06T17:00:00 16.79025 69.23225
2022-05-06T18:00:00 15.76025 72.92273
2022-05-06T19:00:00 14.23025 77.44003
2022-05-06T20:00:00 13.29025 80.15689
2022-05-06T21:00:00 12.79025 81.11879
2022-05-06T22:00:00 11.82025 86.07713
2022-05-06T23:00:00 11.73025 84.62374
2022-05-07T00:00:00 11.40025 86.03153
2022-05-07T01:00:00 11.01025 86.86973
2022-05-07T02:00:00 10.57025 88.73558
2022-05-07T03:00:00 10.13025 90.09644
2022-05-07T04:00:00 9.610246 91.60443
2022-05-07T05:00:00 9.190246 93.53612
2022-05-07T06:00:00 10.96025 88.29102
2022-05-07T07:00:00 12.86025 80.47405
2022-05-07T08:00:00 14.70025 73.81159
2022-05-07T09:00:00 16.44025 67.42323
2022-05-07T10:00:00 17.85025 61.63994
2022-05-07T11:00:00 18.87025 54.2939
2022-05-07T12:00:00 19.54025 50.87906
2022-05-07T13:00:00 20.01024 47.43622
2022-05-07T14:00:00 20.20025 45.43038
2022-05-07T15:00:00 20.26024 45.10688
2022-05-07T16:00:00 19.50025 49.74118
2022-05-07T17:00:00 18.33025 57.04885
2022-05-07T18:00:00 17.01024 63.58967
2022-05-07T19:00:00 17.13025 56.51139
2022-05-07T20:00:00 15.12025 65.92221
2022-05-07T21:00:00 12.56025 80.15904
2022-05-07T22:00:00 13.11025 78.25904
2022-05-07T23:00:00 12.68025 81.21309
2022-05-08T00:00:00 11.52025 85.00152
2022-05-08T01:00:00 10.88025 87.15187
2022-05-08T02:00:00 10.18025 89.36729
2022-05-08T03:00:00 9.390245 91.83928
2022-05-08T04:00:00 8.900246 93.3272
2022-05-08T05:00:00 9.720245 92.67963
2022-05-08T06:00:00 11.92025 86.78761
2022-05-08T07:00:00 14.18025 79.69629
2022-05-08T08:00:00 15.93025 75.87565
2022-05-08T09:00:00 17.46025 70.9
2022-05-08T10:00:00 18.45025 63.95884
2022-05-08T11:00:00 19.46025 59.04198
2022-05-08T12:00:00 19.56025 58.12938
2022-05-08T13:00:00 19.73025 55.2546
2022-05-08T14:00:00 19.90025 53.43901
2022-05-08T15:00:00 19.79025 51.6402
2022-05-08T16:00:00 19.73025 52.75092
2022-05-08T17:00:00 19.52025 53.30289
2022-05-08T18:00:00 18.30025 60.11422
2022-05-08T19:00:00 16.92025 62.84526
2022-05-08T20:00:00 16.52025 64.51345
2022-05-08T21:00:00 15.27025 70.94904
2022-05-08T22:00:00 13.76025 78.14986
2022-05-08T23:00:00 12.44025 83.91173
2022-05-09T00:00:00 11.62025 87.40374
2022-05-09T01:00:00 11.52025 89.96623
2022-05-09T02:00:00 11.83025 91.26876
2022-05-09T03:00:00 12.90025 89.35898
2022-05-09T04:00:00 13.06025 89.67026
2022-05-09T05:00:00 12.42025 91.86044
2022-05-09T06:00:00 13.87025 86.35139
2022-05-09T07:00:00 15.32025 78.91335
2022-05-09T08:00:00 16.65025 73.71783
2022-05-09T09:00:00 18.12025 67.19399
2022-05-09T10:00:00 19.84025 60.36303
2022-05-09T11:00:00 20.80025 56.12168
2022-05-09T12:00:00 21.56025 53.33901
2022-05-09T13:00:00 22.31025 51.41678
2022-05-09T14:00:00 23.02025 49.76279
2022-05-09T15:00:00 23.40025 49.14509
2022-05-09T16:00:00 23.36025 49.65685
2022-05-09T17:00:00 23.07025 51.82229
2022-05-09T18:00:00 21.15025 62.48578
2022-05-09T19:00:00 17.74025 76.52274
2022-05-09T20:00:00 15.43025 82.88904
2022-05-09T21:00:00 14.60025 84.1136
2022-05-09T22:00:00 13.99025 87.86528
2022-05-09T23:00:00 13.26025 88.79645
2022-05-10T00:00:00 12.37025 90.94182
2022-05-10T01:00:00 12.12025 89.95428
2022-05-10T02:00:00 12.49025 89.38433
2022-05-10T03:00:00 11.82025 91.39054
2022-05-10T04:00:00 11.11025 92.45488
2022-05-10T05:00:00 11.84025 91.45326
2022-05-10T06:00:00 14.00025 87.80803
2022-05-10T07:00:00 16.38025 80.69852
2022-05-10T08:00:00 18.59025 74.63985
2022-05-10T09:00:00 20.67025 66.93361
2022-05-10T10:00:00 22.41025 58.06132
2022-05-10T11:00:00 23.74025 52.13443
2022-05-10T12:00:00 24.33025 48.4944
2022-05-10T13:00:00 24.93024 44.078
2022-05-10T14:00:00 25.18024 42.31313
2022-05-10T15:00:00 24.96025 43.1316
2022-05-10T16:00:00 24.57025 44.65448
2022-05-10T17:00:00 24.13025 45.06852
2022-05-10T18:00:00 22.29025 57.72945
2022-05-10T19:00:00 20.41025 66.44523
2022-05-10T20:00:00 18.55025 74.82791
2022-05-10T21:00:00 17.12025 79.02289
2022-05-10T22:00:00 15.89025 85.15102
2022-05-10T23:00:00 14.72025 89.39008
2022-05-11T00:00:00 14.00025 91.47914
2022-05-11T01:00:00 13.39025 92.90154
2022-05-11T02:00:00 12.84025 94.11016
2022-05-11T03:00:00 12.74025 93.79362
2022-05-11T04:00:00 12.48025 93.84261
2022-05-11T05:00:00 13.06025 91.47636
2022-05-11T06:00:00 16.18025 83.52688
2022-05-11T07:00:00 19.09025 72.38041
2022-05-11T08:00:00 21.53025 61.52024
2022-05-11T09:00:00 23.20025 55.80451
2022-05-11T10:00:00 24.84025 50.87486
2022-05-11T11:00:00 26.00025 46.51815
2022-05-11T12:00:00 26.89025 42.48274
2022-05-11T13:00:00 27.38025 38.71715
2022-05-11T14:00:00 27.76024 36.26428
2022-05-11T15:00:00 27.94025 34.49961
2022-05-11T16:00:00 27.76024 35.38168
2022-05-11T17:00:00 27.29025 36.61666
2022-05-11T18:00:00 25.81025 38.32455
2022-05-11T19:00:00 24.55025 36.84974
2022-05-11T20:00:00 19.97025 56.09811
2022-05-11T21:00:00 19.15025 60.03796
2022-05-11T22:00:00 18.76024 60.02416
2022-05-11T23:00:00 18.74025 58.23756
2022-05-12T00:00:00 18.65025 55.87346
2022-05-12T01:00:00 17.76024 55.90893
2022-05-12T02:00:00 17.29025 56.28361
2022-05-12T03:00:00 16.72025 61.12277
2022-05-12T04:00:00 16.12025 64.03208
2022-05-12T05:00:00 16.79025 65.668
2022-05-12T06:00:00 18.74025 60.13982
2022-05-12T07:00:00 19.99025 53.60645
2022-05-12T08:00:00 20.90025 53.23737
2022-05-12T09:00:00 21.98025 53.02545
2022-05-12T10:00:00 23.09025 51.93005
2022-05-12T11:00:00 24.34025 49.59266
2022-05-12T12:00:00 24.95025 48.72515
2022-05-12T13:00:00 25.44025 48.50714
2022-05-12T14:00:00 25.07025 50.73682
2022-05-12T15:00:00 24.23025 53.85146
2022-05-12T16:00:00 22.15025 62.50855
2022-05-12T17:00:00 21.10025 66.37391
2022-05-12T18:00:00 20.33025 74.25958
2022-05-12T19:00:00 20.25025 68.43227
2022-05-12T20:00:00 17.58025 83.47422
2022-05-12T21:00:00 17.48025 83.73349
2022-05-12T22:00:00 17.99025 82.71632
2022-05-12T23:00:00 17.51024 86.48894
2022-05-13T00:00:00 17.14025 90.33284
2022-05-13T01:00:00 16.61025 93.73756
2022-05-13T02:00:00 16.32025 95.30759
2022-05-13T03:00:00 16.59025 95.19462
2022-05-13T04:00:00 16.44025 95.43445
2022-05-13T05:00:00 16.32025 95.18493
2022-05-13T06:00:00 16.41025 92.70602
2022-05-13T07:00:00 16.57025 85.61353
2022-05-13T08:00:00 16.81025 82.94965
2022-05-13T09:00:00 17.36025 77.42004
2022-05-13T10:00:00 18.93024 72.77734
2022-05-13T11:00:00 19.48025 67.78727
2022-05-13T12:00:00 20.40025 64.43423
2022-05-13T13:00:00 20.77025 63.3045
2022-05-13T14:00:00 21.27025 61.70178
2022-05-13T15:00:00 21.68024 58.87904
2022-05-13T16:00:00 21.65025 57.34585
2022-05-13T17:00:00 21.33025 58.60161
2022-05-13T18:00:00 20.19025 70.22157
2022-05-13T19:00:00 19.46025 63.09223
2022-05-13T20:00:00 17.84025 69.39683
2022-05-13T21:00:00 16.54025 74.28678
2022-05-13T22:00:00 16.35025 72.88515
2022-05-13T23:00:00 15.70025 75.9887
2022-05-14T00:00:00 14.59025 79.70287
2022-05-14T01:00:00 13.88025 83.4703
2022-05-14T02:00:00 13.08025 86.26921
2022-05-14T03:00:00 12.41025 87.77538
2022-05-14T04:00:00 12.32025 88.77325
2022-05-14T05:00:00 12.39025 90.15661
2022-05-14T06:00:00 14.77025 81.49835
2022-05-14T07:00:00 16.60025 71.11173
2022-05-14T08:00:00 18.46025 61.04488
2022-05-14T09:00:00 19.99025 56.10317
2022-05-14T10:00:00 21.41025 53.86933
2022-05-14T11:00:00 22.27025 53.70048
2022-05-14T12:00:00 23.06025 50.70375
2022-05-14T13:00:00 23.74025 45.08011
2022-05-14T14:00:00 24.24025 40.8524
2022-05-14T15:00:00 24.36025 37.73152
2022-05-14T16:00:00 23.92025 38.56272
2022-05-14T17:00:00 23.09025 41.97677
2022-05-14T18:00:00 21.16025 48.33915
2022-05-14T19:00:00 17.00025 62.14755
2022-05-14T20:00:00 15.13025 68.89347
2022-05-14T21:00:00 13.85025 74.45918
2022-05-14T22:00:00 12.32025 79.90672
2022-05-14T23:00:00 11.73025 82.30227
2022-05-15T00:00:00 11.43025 84.53079
2022-05-15T01:00:00 10.68025 87.1314
2022-05-15T02:00:00 10.28025 90.47712
2022-05-15T03:00:00 9.850245 92.87721
2022-05-15T04:00:00 10.03025 90.76572
2022-05-15T05:00:00 11.50025 88.34148
2022-05-15T06:00:00 14.45025 77.37142
2022-05-15T07:00:00 17.37025 66.72364
2022-05-15T08:00:00 19.69025 57.85225
2022-05-15T09:00:00 21.53025 53.86471
2022-05-15T10:00:00 23.25025 50.85481
2022-05-15T11:00:00 24.58025 48.78552
2022-05-15T12:00:00 25.75025 47.86741
2022-05-15T13:00:00 26.59025 44.8294
2022-05-15T14:00:00 27.30025 43.55328
2022-05-15T15:00:00 27.68024 42.25815
2022-05-15T16:00:00 27.39025 43.46457
2022-05-15T17:00:00 26.25025 57.68148
2022-05-15T18:00:00 24.40025 62.48925
2022-05-15T19:00:00 23.81025 57.72383
2022-05-15T20:00:00 19.79025 73.16729
2022-05-15T21:00:00 18.98025 76.42167
2022-05-15T22:00:00 18.18024 80.00224
2022-05-15T23:00:00 17.47025 84.82407
2022-05-16T00:00:00 16.52025 89.30036
2022-05-16T01:00:00 15.72025 91.65057
2022-05-16T02:00:00 15.47025 92.89547
2022-05-16T03:00:00 15.55025 92.8998
2022-05-16T04:00:00 16.16025 88.4055
2022-05-16T05:00:00 16.49025 84.99368
2022-05-16T06:00:00 18.49025 77.9978
2022-05-16T07:00:00 20.51024 67.11847
2022-05-16T08:00:00 21.08025 60.53692
2022-05-16T09:00:00 20.89025 59.93794
2022-05-16T10:00:00 20.68024 70.49694
2022-05-16T11:00:00 21.10025 69.00157
2022-05-16T12:00:00 21.68024 66.06672
2022-05-16T13:00:00 22.75025 60.57224
2022-05-16T14:00:00 22.95025 60.30574
2022-05-16T15:00:00 23.81025 56.17482
2022-05-16T16:00:00 24.26024 51.32279
2022-05-16T17:00:00 23.81025 51.77832
2022-05-16T18:00:00 22.72025 57.34618
2022-05-16T19:00:00 19.90025 70.07479
2022-05-16T20:00:00 16.93024 82.91016
2022-05-16T21:00:00 15.89025 87.29348
2022-05-16T22:00:00 15.02025 88.19075
2022-05-16T23:00:00 14.48025 91.69128
2022-05-17T00:00:00 13.84025 93.78727
2022-05-17T01:00:00 13.20025 95.88362
2022-05-17T02:00:00 12.59025 96.30765
2022-05-17T03:00:00 12.45025 95.98433
2022-05-17T04:00:00 12.34025 95.66231
2022-05-17T05:00:00 14.16025 91.36944
2022-05-17T06:00:00 16.49025 83.89169
2022-05-17T07:00:00 18.93024 76.86063
2022-05-17T08:00:00 20.88025 66.6301
2022-05-17T09:00:00 22.53025 58.66127
2022-05-17T10:00:00 23.63025 55.47716
2022-05-17T11:00:00 24.62025 51.04964
2022-05-17T12:00:00 25.75025 45.5457
2022-05-17T13:00:00 26.23025 42.57879
2022-05-17T14:00:00 26.70025 40.38282
2022-05-17T15:00:00 26.84025 39.86481
2022-05-17T16:00:00 26.77025 41.3194
2022-05-17T17:00:00 25.82025 45.5948
2022-05-17T18:00:00 24.36025 50.5826
2022-05-17T19:00:00 20.90025 65.21986
2022-05-17T20:00:00 19.18024 70.48624
2022-05-17T21:00:00 18.03025 75.13211
2022-05-17T22:00:00 15.67025 83.5759
2022-05-17T23:00:00 14.55025 87.62734
2022-05-18T00:00:00 14.16025 88.52232
2022-05-18T01:00:00 13.66025 90.61376
2022-05-18T02:00:00 13.21025 92.89125
2022-05-18T03:00:00 13.84025 89.20016
2022-05-18T04:00:00 13.49025 89.64546
2022-05-18T05:00:00 14.53025 88.4963
2022-05-18T06:00:00 17.19025 79.29202
2022-05-18T07:00:00 20.15025 66.78192
2022-05-18T08:00:00 22.18024 59.23069
2022-05-18T09:00:00 23.99025 54.81466
2022-05-18T10:00:00 25.60025 50.35077
2022-05-18T11:00:00 26.72025 45.33582
2022-05-18T12:00:00 27.67025 42.42124
2022-05-18T13:00:00 28.32025 40.62276
2022-05-18T14:00:00 28.89025 38.22885
2022-05-18T15:00:00 29.05025 37.45464
2022-05-18T16:00:00 29.13025 36.26558
2022-05-18T17:00:00 28.85025 35.0333
2022-05-18T18:00:00 26.83025 50.47784
2022-05-18T19:00:00 24.85025 50.34945
2022-05-18T20:00:00 21.95025 61.4567
2022-05-18T21:00:00 20.49025 66.0733
2022-05-18T22:00:00 19.52025 65.09183
2022-05-18T23:00:00 18.51024 69.30142
2022-05-19T00:00:00 17.66025 72.49947
2022-05-19T01:00:00 16.77025 76.41671
2022-05-19T02:00:00 16.68024 78.02966
2022-05-19T03:00:00 15.39025 84.31638
2022-05-19T04:00:00 15.17025 85.57815
2022-05-19T05:00:00 16.17025 82.70853
2022-05-19T06:00:00 18.71025 75.83491
2022-05-19T07:00:00 21.75025 65.52866
2022-05-19T08:00:00 24.15025 59.77304
2022-05-19T09:00:00 26.35025 52.10053
2022-05-19T10:00:00 27.95025 47.80644
2022-05-19T11:00:00 28.32025 46.57211
2022-05-19T12:00:00 28.56025 45.95322
2022-05-19T13:00:00 28.21025 46.33353
2022-05-19T14:00:00 27.87025 46.81167
2022-05-19T15:00:00 27.55025 50.85986
2022-05-19T16:00:00 27.70025 51.3552
2022-05-19T17:00:00 27.04025 52.71335
2022-05-19T18:00:00 25.90025 56.61496
2022-05-19T19:00:00 23.58025 65.74493
2022-05-19T20:00:00 21.91025 72.5114
2022-05-19T21:00:00 20.77025 77.73688
2022-05-19T22:00:00 19.33025 77.22141
2022-05-19T23:00:00 18.77025 80.75762
2022-05-20T00:00:00 18.25025 84.52627
2022-05-20T01:00:00 17.86025 86.18916
2022-05-20T02:00:00 17.29025 89.13052
2022-05-20T03:00:00 17.19025 89.75662
2022-05-20T04:00:00 16.98025 89.27871
2022-05-20T05:00:00 17.85025 84.21014
2022-05-20T06:00:00 20.55025 72.73631
2022-05-20T07:00:00 23.02025 62.62287
2022-05-20T08:00:00 25.13025 56.39097
2022-05-20T09:00:00 26.68024 52.79038
2022-05-20T10:00:00 27.50025 50.26484
2022-05-20T11:00:00 28.60025 47.79546
2022-05-20T12:00:00 29.83025 44.9281
2022-05-20T13:00:00 30.94025 38.94902
2022-05-20T14:00:00 31.36025 32.8264
2022-05-20T15:00:00 30.92025 31.58037
2022-05-20T16:00:00 30.46025 29.18967
2022-05-20T17:00:00 29.61025 31.32126
2022-05-20T18:00:00 28.17025 34.98152
2022-05-20T19:00:00 26.10025 46.63657
2022-05-20T20:00:00 24.24025 56.42683
2022-05-20T21:00:00 23.65025 58.96712
2022-05-20T22:00:00 22.54025 61.47245
2022-05-20T23:00:00 21.00025 71.88645
2022-05-21T00:00:00 19.88025 78.10378
2022-05-21T01:00:00 18.54025 85.10224
2022-05-21T02:00:00 18.37025 84.59371
2022-05-21T03:00:00 17.87025 84.64842
2022-05-21T04:00:00 17.11025 85.28152
2022-05-21T05:00:00 17.05025 83.68367
2022-05-21T06:00:00 17.77025 78.60347
2022-05-21T07:00:00 18.58025 71.44048
2022-05-21T08:00:00 19.56025 63.36541
2022-05-21T09:00:00 20.88025 54.66998
2022-05-21T10:00:00 21.49025 52.68656
2022-05-21T11:00:00 22.34025 49.67857
2022-05-21T12:00:00 22.89025 50.32435
2022-05-21T13:00:00 23.67025 49.7728
2022-05-21T14:00:00 24.32025 47.51135
2022-05-21T15:00:00 24.47025 45.34283
2022-05-21T16:00:00 24.36025 44.47769
2022-05-21T17:00:00 24.16025 44.45152
2022-05-21T18:00:00 23.35025 46.0043
2022-05-21T19:00:00 21.05025 56.40839
2022-05-21T20:00:00 18.31025 67.36737
2022-05-21T21:00:00 17.54025 70.44787
2022-05-21T22:00:00 14.44025 76.6469
2022-05-21T23:00:00 13.78025 78.89222
2022-05-22T00:00:00 12.84025 82.44898
2022-05-22T01:00:00 12.27025 85.31744
2022-05-22T02:00:00 11.97025 87.79224
2022-05-22T03:00:00 11.91025 88.97575
2022-05-22T04:00:00 11.97025 89.10066
2022-05-22T05:00:00 13.77025 82.40416
2022-05-22T06:00:00 15.50025 75.09956
2022-05-22T07:00:00 16.99025 66.95502
2022-05-22T08:00:00 18.32025 60.92998
2022-05-22T09:00:00 19.52025 57.42524
2022-05-22T10:00:00 21.35025 53.88955
2022-05-22T11:00:00 22.90025 54.07539
2022-05-22T12:00:00 23.85025 54.88634
2022-05-22T13:00:00 24.03025 55.46912
2022-05-22T14:00:00 24.09025 56.57258
2022-05-22T15:00:00 24.51024 53.71323
2022-05-22T16:00:00 24.19025 54.40402
2022-05-22T17:00:00 23.53025 58.10584
2022-05-22T18:00:00 22.48025 66.14871
2022-05-22T19:00:00 20.13025 71.96028
2022-05-22T20:00:00 18.58025 76.4573
2022-05-22T21:00:00 17.93024 77.6599
2022-05-22T22:00:00 16.33025 75.49092
2022-05-22T23:00:00 15.84025 78.72993
2022-05-23T00:00:00 15.39025 83.21269
2022-05-23T01:00:00 15.26025 83.58199
2022-05-23T02:00:00 16.31025 81.16736
2022-05-23T03:00:00 17.20025 79.50109
2022-05-23T04:00:00 17.31025 81.24699
2022-05-23T05:00:00 17.43024 82.75548
2022-05-23T06:00:00 18.37025 80.70438
2022-05-23T07:00:00 19.98025 74.15237
2022-05-23T08:00:00 21.13025 71.44952
2022-05-23T09:00:00 21.80025 71.7092
2022-05-23T10:00:00 20.55025 78.45194
2022-05-23T11:00:00 20.52025 78.64809
2022-05-23T12:00:00 23.15025 66.24527
2022-05-23T13:00:00 24.89025 59.63972
2022-05-23T14:00:00 23.56025 57.58857
2022-05-23T15:00:00 21.96025 65.61551
2022-05-23T16:00:00 21.43024 67.69965
2022-05-23T17:00:00 21.01024 68.71697
2022-05-23T18:00:00 20.10025 72.65627
2022-05-23T19:00:00 19.30025 76.96795
2022-05-23T20:00:00 18.78025 79.41554
2022-05-23T21:00:00 18.23025 80.47697
2022-05-23T22:00:00 17.36025 81.78416
2022-05-23T23:00:00 16.96025 83.23852
2022-05-24T00:00:00 16.35025 85.03395
2022-05-24T01:00:00 15.90025 85.71136
2022-05-24T02:00:00 15.61025 86.86822
2022-05-24T03:00:00 15.42025 88.16834
2022-05-24T04:00:00 15.34025 85.87795
2022-05-24T05:00:00 14.84025 85.31733
2022-05-24T06:00:00 14.49025 83.26778
2022-05-24T07:00:00 13.86025 80.61627
2022-05-24T08:00:00 14.17025 78.16137
2022-05-24T09:00:00 15.63025 69.55566
2022-05-24T10:00:00 17.09025 56.15531
2022-05-24T11:00:00 17.98025 52.21093
2022-05-24T12:00:00 18.51024 49.50213
2022-05-24T13:00:00 18.59025 49.11871
2022-05-24T14:00:00 18.68024 48.27524
2022-05-24T15:00:00 18.74025 49.63358
2022-05-24T16:00:00 18.44025 50.44087
2022-05-24T17:00:00 18.00025 52.68218
2022-05-24T18:00:00 17.45025 56.36316
2022-05-24T19:00:00 16.09025 61.01258
2022-05-24T20:00:00 14.42025 71.4562
2022-05-24T21:00:00 13.88025 75.5286
2022-05-24T22:00:00 13.12025 77.4179
2022-05-24T23:00:00 12.65025 78.87925
2022-05-25T00:00:00 13.25025 73.74753
2022-05-25T01:00:00 13.00025 76.09674
2022-05-25T02:00:00 12.82025 78.85194
2022-05-25T03:00:00 12.49025 80.80291
2022-05-25T04:00:00 12.33025 79.74563
2022-05-25T05:00:00 12.20025 90.26244
2022-05-25T06:00:00 14.44025 77.26618
2022-05-25T07:00:00 16.33025 66.76897
2022-05-25T08:00:00 17.65025 56.91456
2022-05-25T09:00:00 18.75025 49.9768
2022-05-25T10:00:00 19.55025 49.61981
2022-05-25T11:00:00 20.28025 47.15754
2022-05-25T12:00:00 20.82025 43.8372
2022-05-25T13:00:00 21.31025 41.52439
2022-05-25T14:00:00 21.63025 41.07889
2022-05-25T15:00:00 22.17025 38.40033
2022-05-25T16:00:00 22.01024 37.82914
2022-05-25T17:00:00 21.46025 39.18277
2022-05-25T18:00:00 20.43024 42.59957
2022-05-25T19:00:00 18.17025 49.00189
2022-05-25T20:00:00 16.40025 55.25056
2022-05-25T21:00:00 15.08025 62.03005
2022-05-25T22:00:00 14.41025 66.39653
2022-05-25T23:00:00 13.18025 73.4841
2022-05-26T00:00:00 12.66025 76.14241
2022-05-26T01:00:00 12.00025 80.8978
2022-05-26T02:00:00 11.74025 83.76907
2022-05-26T03:00:00 11.58025 84.43404
2022-05-26T04:00:00 11.62025 85.18605
2022-05-26T05:00:00 12.86025 80.5284
2022-05-26T06:00:00 15.04025 70.76079
2022-05-26T07:00:00 16.89025 61.28777
2022-05-26T08:00:00 18.30025 54.92109
2022-05-26T09:00:00 19.23025 50.62249
2022-05-26T10:00:00 19.87025 48.57327
2022-05-26T11:00:00 20.24025 48.28104
2022-05-26T12:00:00 20.72025 48.05498
2022-05-26T13:00:00 21.08025 48.74226
2022-05-26T14:00:00 21.13025 48.49401
2022-05-26T15:00:00 21.18024 48.34467
2022-05-26T16:00:00 21.37025 47.87854
2022-05-26T17:00:00 21.18024 47.63279
2022-05-26T18:00:00 20.34025 50.54748
2022-05-26T19:00:00 17.79025 60.64008
2022-05-26T20:00:00 15.98025 69.02152
2022-05-26T21:00:00 14.78025 74.72401
2022-05-26T22:00:00 13.32025 79.14166
2022-05-26T23:00:00 11.99025 87.26387
2022-05-27T00:00:00 11.77025 88.72423
2022-05-27T01:00:00 11.10025 90.4193
2022-05-27T02:00:00 10.91025 91.01762
2022-05-27T03:00:00 11.04025 90.23148
2022-05-27T04:00:00 11.49025 88.6392
2022-05-27T05:00:00 13.19025 83.27344
2022-05-27T06:00:00 15.30025 74.61496
2022-05-27T07:00:00 16.57025 70.72805
2022-05-27T08:00:00 17.84025 66.0287
2022-05-27T09:00:00 18.80025 62.56651
2022-05-27T10:00:00 19.60025 58.87985
2022-05-27T11:00:00 20.23025 55.8654
2022-05-27T12:00:00 20.86025 52.69627
2022-05-27T13:00:00 21.79025 47.92993
2022-05-27T14:00:00 22.09025 46.89854
2022-05-27T15:00:00 21.74025 47.33995
2022-05-27T16:00:00 21.10025 49.60787
2022-05-27T17:00:00 20.29025 52.89927
2022-05-27T18:00:00 19.13025 56.75374
2022-05-27T19:00:00 18.17025 60.16349
2022-05-27T20:00:00 16.73025 66.54181
2022-05-27T21:00:00 15.45025 72.62201
2022-05-27T22:00:00 14.72025 72.53444
2022-05-27T23:00:00 13.50025 77.06186
2022-05-28T00:00:00 12.69025 79.90717
2022-05-28T01:00:00 12.04025 81.73155
2022-05-28T02:00:00 12.33025 79.74563
2022-05-28T03:00:00 11.64025 83.13348
2022-05-28T04:00:00 11.08025 85.53012
2022-05-28T05:00:00 12.43025 81.39832
2022-05-28T06:00:00 13.79025 69.98622
2022-05-28T07:00:00 14.95025 59.24927
2022-05-28T08:00:00 15.94025 50.65779
2022-05-28T09:00:00 16.93024 44.71176
2022-05-28T10:00:00 17.67025 42.09293
2022-05-28T11:00:00 18.58025 37.0079
2022-05-28T12:00:00 18.84025 34.54173
2022-05-28T13:00:00 19.10025 33.23886
2022-05-28T14:00:00 19.27025 31.38913
2022-05-28T15:00:00 19.68024 29.25782
2022-05-28T16:00:00 19.73025 27.74369
2022-05-28T17:00:00 18.71025 29.61597
2022-05-28T18:00:00 17.70025 29.66661
2022-05-28T19:00:00 16.17025 34.94801
2022-05-28T20:00:00 14.17025 44.09277
2022-05-28T21:00:00 12.53025 54.05948
2022-05-28T22:00:00 11.44025 60.19951
2022-05-28T23:00:00 10.88025 62.97585
2022-05-29T00:00:00 10.40025 64.80188
2022-05-29T01:00:00 9.530245 68.17512
2022-05-29T02:00:00 8.970245 69.46661
2022-05-29T03:00:00 8.680245 70.14759
2022-05-29T04:00:00 8.680245 69.45377
2022-05-29T05:00:00 9.510245 67.78594
2022-05-29T06:00:00 10.81025 64.8978
2022-05-29T07:00:00 12.57025 58.5626
2022-05-29T08:00:00 14.03025 53.33205
2022-05-29T09:00:00 15.03025 45.49705
2022-05-29T10:00:00 16.01025 41.99118
2022-05-29T11:00:00 16.32025 40.93131
2022-05-29T12:00:00 16.82025 39.3349
2022-05-29T13:00:00 17.38025 39.72587
2022-05-29T14:00:00 17.63025 39.54694
2022-05-29T15:00:00 17.45025 38.27767
2022-05-29T16:00:00 17.29025 37.28652
2022-05-29T17:00:00 16.64025 38.42011
2022-05-29T18:00:00 15.67025 39.33018
2022-05-29T19:00:00 13.99025 44.35716
2022-05-29T20:00:00 12.65025 49.80099
2022-05-29T21:00:00 11.80025 53.66697
2022-05-29T22:00:00 9.890245 64.54433
2022-05-29T23:00:00 9.340245 66.84129
2022-05-30T00:00:00 8.860246 69.00094
2022-05-30T01:00:00 8.170245 71.70395
2022-05-30T02:00:00 7.420245 76.28868
2022-05-30T03:00:00 6.890245 79.9675
2022-05-30T04:00:00 6.670245 80.96058
2022-05-30T05:00:00 8.470245 78.32333
2022-05-30T06:00:00 10.68025 67.37844
2022-05-30T07:00:00 12.82025 57.8094
2022-05-30T08:00:00 14.71025 49.26124
2022-05-30T09:00:00 16.10025 40.86604
2022-05-30T10:00:00 17.73025 32.36203
2022-05-30T11:00:00 18.52025 29.23926
2022-05-30T12:00:00 19.51024 25.97478
2022-05-30T13:00:00 20.19025 24.14047
2022-05-30T14:00:00 20.75025 23.21379
2022-05-30T15:00:00 21.19025 22.1132
2022-05-30T16:00:00 21.12025 22.07801
2022-05-30T17:00:00 20.94025 22.34126
2022-05-30T18:00:00 20.18024 24.10217
2022-05-30T19:00:00 18.00025 27.22572
2022-05-30T20:00:00 15.28025 37.79342
2022-05-30T21:00:00 12.27025 52.88456
2022-05-30T22:00:00 11.73025 56.39232
2022-05-30T23:00:00 11.02025 62.12625
2022-05-31T00:00:00 10.11025 68.68752
2022-05-31T01:00:00 9.430245 73.90372
2022-05-31T02:00:00 9.400246 75.99664
2022-05-31T03:00:00 9.470245 77.88741
2022-05-31T04:00:00 9.650246 78.0798
2022-05-31T05:00:00 11.11025 73.29839
2022-05-31T06:00:00 13.68025 59.87936
2022-05-31T07:00:00 15.83025 51.55265
2022-05-31T08:00:00 17.61025 48.008
2022-05-31T09:00:00 20.09025 40.8311
2022-05-31T10:00:00 21.16025 36.65286
2022-05-31T11:00:00 21.07025 39.3406
2022-05-31T12:00:00 22.09025 38.69515
2022-05-31T13:00:00 22.42025 38.52546
2022-05-31T14:00:00 22.02025 40.91069
2022-05-31T15:00:00 21.17025 43.72771
2022-05-31T16:00:00 20.59025 46.86078
2022-05-31T17:00:00 20.47025 47.43554
2022-05-31T18:00:00 19.94025 48.758
2022-05-31T19:00:00 18.41025 57.1076
2022-05-31T20:00:00 17.31025 57.64462
2022-05-31T21:00:00 16.36025 62.75727
2022-05-31T22:00:00 14.25025 82.02777
2022-05-31T23:00:00 13.36025 85.55302
2022-06-01T00:00:00 12.67025 87.62398
2022-06-01T01:00:00 11.92025 89.87779
2022-06-01T02:00:00 11.08025 92.07996
2022-06-01T03:00:00 11.15025 93.08175
2022-06-01T04:00:00 11.06025 93.2646
2022-06-01T05:00:00 12.55025 87.31931
2022-06-01T06:00:00 15.34025 75.77687
2022-06-01T07:00:00 18.00025 67.70516
2022-06-01T08:00:00 19.37025 62.20122
2022-06-01T09:00:00 20.82025 53.78759
2022-06-01T10:00:00 21.71025 43.28891
2022-06-01T11:00:00 21.68024 41.60228
2022-06-01T12:00:00 21.87025 40.61669
2022-06-01T13:00:00 21.51024 44.33363
2022-06-01T14:00:00 21.23025 46.34468
2022-06-01T15:00:00 21.03025 48.36855
2022-06-01T16:00:00 20.71025 51.74755
2022-06-01T17:00:00 20.33025 54.89339
2022-06-01T18:00:00 19.61025 59.9091
2022-06-01T19:00:00 18.55025 67.86371
2022-06-01T20:00:00 17.60025 73.01569
2022-06-01T21:00:00 16.84025 75.82601
2022-06-01T22:00:00 15.98025 72.18824
2022-06-01T23:00:00 15.19025 77.02587
2022-06-02T00:00:00 14.61025 79.28157
2022-06-02T01:00:00 14.12025 79.90115
2022-06-02T02:00:00 13.18025 83.049
2022-06-02T03:00:00 13.47025 81.48608
2022-06-02T04:00:00 13.11025 81.38213
2022-06-02T05:00:00 14.12025 75.56979
2022-06-02T06:00:00 15.33025 65.34463
2022-06-02T07:00:00 16.78025 59.54151
2022-06-02T08:00:00 18.48025 54.44924
2022-06-02T09:00:00 20.19025 52.16704
2022-06-02T10:00:00 21.57025 47.54829
2022-06-02T11:00:00 22.46025 45.20643
2022-06-02T12:00:00 23.00025 45.75386
2022-06-02T13:00:00 23.00025 50.08794
2022-06-02T14:00:00 23.70025 50.3081
2022-06-02T15:00:00 24.39025 48.70235
2022-06-02T16:00:00 24.57025 48.52726
2022-06-02T17:00:00 24.34025 49.2682
2022-06-02T18:00:00 23.38025 51.90371
2022-06-02T19:00:00 21.03025 64.36203
2022-06-02T20:00:00 19.79025 70.00802
2022-06-02T21:00:00 18.92025 72.823
2022-06-02T22:00:00 15.99025 78.07851
2022-06-02T23:00:00 15.21025 82.91647
2022-06-03T00:00:00 14.70025 85.98099
2022-06-03T01:00:00 14.27025 87.83302
2022-06-03T02:00:00 14.30025 88.53458
2022-06-03T03:00:00 14.42025 89.30692
2022-06-03T04:00:00 13.96025 91.23557
2022-06-03T05:00:00 15.72025 84.63142
2022-06-03T06:00:00 17.33025 79.93602
2022-06-03T07:00:00 18.88025 71.35648
2022-06-03T08:00:00 20.84025 65.41961
2022-06-03T09:00:00 22.26024 62.41191
2022-06-03T10:00:00 23.23025 60.95826
2022-06-03T11:00:00 23.44025 59.64506
2022-06-03T12:00:00 22.99025 61.85402
2022-06-03T13:00:00 22.98025 64.20425
2022-06-03T14:00:00 23.44025 61.20326
2022-06-03T15:00:00 23.91025 58.04717
2022-06-03T16:00:00 24.12025 57.2789
2022-06-03T17:00:00 23.92025 56.60402
2022-06-03T18:00:00 23.19025 58.36359
2022-06-03T19:00:00 20.82025 72.55052
2022-06-03T20:00:00 19.51024 78.75514
2022-06-03T21:00:00 18.61025 82.95104
2022-06-03T22:00:00 17.15025 91.15097
2022-06-03T23:00:00 16.86025 91.83944
2022-06-04T00:00:00 16.83025 91.89681
2022-06-04T01:00:00 16.98025 92.49861
2022-06-04T02:00:00 17.28025 92.27806
2022-06-04T03:00:00 17.32025 93.0524
2022-06-04T04:00:00 17.19025 93.10551
2022-06-04T05:00:00 17.49025 91.99474
2022-06-04T06:00:00 18.25025 89.71993
2022-06-04T07:00:00 19.78025 81.56532
2022-06-04T08:00:00 21.35025 74.05155
2022-06-04T09:00:00 22.99025 67.9687
2022-06-04T10:00:00 24.59025 60.918
2022-06-04T11:00:00 25.99025 55.13749
2022-06-04T12:00:00 27.16025 49.5038
2022-06-04T13:00:00 27.95025 46.35305
2022-06-04T14:00:00 28.87025 43.36409
2022-06-04T15:00:00 29.32025 41.89115
2022-06-04T16:00:00 29.15025 42.11584
2022-06-04T17:00:00 27.81025 47.18897
2022-06-04T18:00:00 26.28025 52.99364
2022-06-04T19:00:00 24.31025 62.15117
2022-06-04T20:00:00 22.96025 67.70312
2022-06-04T21:00:00 21.80025 73.329
2022-06-04T22:00:00 21.95025 62.22051
2022-06-04T23:00:00 20.42025 71.18055
2022-06-05T00:00:00 20.16025 72.0123
2022-06-05T01:00:00 19.70025 78.63087
2022-06-05T02:00:00 18.70025 85.06448
2022-06-05T03:00:00 18.55025 87.70345
2022-06-05T04:00:00 18.49025 89.85198
2022-06-05T05:00:00 18.33025 92.04293
2022-06-05T06:00:00 18.87025 91.84016
2022-06-05T07:00:00 20.24025 87.1852
2022-06-05T08:00:00 20.66025 85.3197
2022-06-05T09:00:00 20.94025 83.117
2022-06-05T10:00:00 22.48025 66.74577
2022-06-05T11:00:00 23.19025 60.08923
2022-06-05T12:00:00 22.94025 60.49885
2022-06-05T13:00:00 24.56025 55.52941
2022-06-05T14:00:00 22.26024 64.00642
2022-06-05T15:00:00 21.19025 70.63848
2022-06-05T16:00:00 20.83025 70.43432
2022-06-05T17:00:00 20.96025 65.19032
2022-06-05T18:00:00 20.68024 65.47062
2022-06-05T19:00:00 19.06025 71.67033
2022-06-05T20:00:00 17.91025 76.75012
2022-06-05T21:00:00 17.41025 78.08933
2022-06-05T22:00:00 16.14025 86.24159
2022-06-05T23:00:00 15.63025 87.55494
2022-06-06T00:00:00 14.98025 89.17673
2022-06-06T01:00:00 14.36025 91.08299
2022-06-06T02:00:00 14.01025 92.38791
2022-06-06T03:00:00 13.86025 93.35735
2022-06-06T04:00:00 13.93025 93.48393
2022-06-06T05:00:00 15.42025 88.80518
2022-06-06T06:00:00 16.95025 82.1592
2022-06-06T07:00:00 18.08025 75.18961
2022-06-06T08:00:00 19.44025 69.89467
2022-06-06T09:00:00 20.73025 61.53672
2022-06-06T10:00:00 21.58025 57.51743
2022-06-06T11:00:00 22.65025 52.95505
2022-06-06T12:00:00 23.11025 50.48314
2022-06-06T13:00:00 23.34025 50.378
2022-06-06T14:00:00 23.23025 50.74898
2022-06-06T15:00:00 23.40025 49.01522
2022-06-06T16:00:00 23.24025 49.13441
2022-06-06T17:00:00 22.48025 51.53006
2022-06-06T18:00:00 21.55025 53.01853
2022-06-06T19:00:00 20.17025 61.64995
2022-06-06T20:00:00 19.56025 64.80137
2022-06-06T21:00:00 17.78025 77.08128
2022-06-06T22:00:00 17.26024 83.70805
2022-06-06T23:00:00 16.93024 86.04087
2022-06-07T00:00:00 16.34025 89.63434
2022-06-07T01:00:00 15.83025 91.71703
2022-06-07T02:00:00 15.64025 91.05121
2022-06-07T03:00:00 15.40025 92.04909
2022-06-07T04:00:00 14.96025 93.23194
2022-06-07T05:00:00 15.23025 92.15886
2022-06-07T06:00:00 15.60025 88.76224
2022-06-07T07:00:00 16.63025 82.87357
2022-06-07T08:00:00 17.71025 75.91933
2022-06-07T09:00:00 18.66025 69.65082
2022-06-07T10:00:00 19.59025 70.33509
2022-06-07T11:00:00 19.69025 69.85206
2022-06-07T12:00:00 19.28025 72.36774
2022-06-07T13:00:00 20.23025 65.71686
2022-06-07T14:00:00 20.17025 62.921
2022-06-07T15:00:00 19.70025 64.74683
2022-06-07T16:00:00 19.91025 60.57985
2022-06-07T17:00:00 20.16025 57.46999
2022-06-07T18:00:00 19.94025 57.37698
2022-06-07T19:00:00 18.42025 63.82461
2022-06-07T20:00:00 16.70025 70.9419
2022-06-07T21:00:00 15.76025 72.63095
2022-06-07T22:00:00 14.30025 74.84104
2022-06-07T23:00:00 13.50025 79.00907
2022-06-08T00:00:00 13.17025 78.63957
2022-06-08T01:00:00 12.19025 83.8812
2022-06-08T02:00:00 11.35025 87.85106
2022-06-08T03:00:00 11.41025 87.79748
2022-06-08T04:00:00 11.55025 87.33775
2022-06-08T05:00:00 13.00025 82.24825
2022-06-08T06:00:00 15.48025 74.00102
2022-06-08T07:00:00 17.54025 65.21954
2022-06-08T08:00:00 19.09025 59.1093
2022-06-08T09:00:00 20.22025 55.04863
2022-06-08T10:00:00 21.39025 45.67307
2022-06-08T11:00:00 22.06025 43.2122
2022-06-08T12:00:00 20.17025 57.43429
2022-06-08T13:00:00 18.12025 70.09676
2022-06-08T14:00:00 16.69025 81.91176
2022-06-08T15:00:00 16.73025 81.59613
2022-06-08T16:00:00 16.90025 81.45848
2022-06-08T17:00:00 17.88025 77.34892
2022-06-08T18:00:00 17.75025 76.67461
2022-06-08T19:00:00 17.20025 79.55309
2022-06-08T20:00:00 16.57025 82.32616
2022-06-08T21:00:00 15.77025 85.30559
2022-06-08T22:00:00 15.25025 89.96055
2022-06-08T23:00:00 15.16025 89.60117
2022-06-09T00:00:00 15.06025 88.13644
2022-06-09T01:00:00 14.31025 86.68292
2022-06-09T02:00:00 13.94025 88.26895
2022-06-09T03:00:00 14.07025 88.45593
2022-06-09T04:00:00 13.48025 90.18124
2022-06-09T05:00:00 13.72025 89.01305
2022-06-09T06:00:00 14.94025 81.95472
2022-06-09T07:00:00 15.93025 75.17321
2022-06-09T08:00:00 16.77025 67.1325
2022-06-09T09:00:00 17.11025 59.98713
2022-06-09T10:00:00 17.14025 62.64282
2022-06-09T11:00:00 17.69025 61.14846
2022-06-09T12:00:00 17.83025 58.79942
2022-06-09T13:00:00 18.13025 54.28347
2022-06-09T14:00:00 18.44025 53.30522
2022-06-09T15:00:00 18.69025 50.75131
2022-06-09T16:00:00 18.65025 52.60549
2022-06-09T17:00:00 18.14025 54.582
2022-06-09T18:00:00 17.84025 57.31113
2022-06-09T19:00:00 16.20025 65.62648
2022-06-09T20:00:00 15.33025 67.50575
2022-06-09T21:00:00 13.36025 74.52319
2022-06-09T22:00:00 12.46025 78.10341
2022-06-09T23:00:00 11.77025 80.86504
2022-06-10T00:00:00 10.20025 87.0819
2022-06-10T01:00:00 9.120245 91.44347
2022-06-10T02:00:00 8.740245 93.83069
2022-06-10T03:00:00 8.400246 95.43512
2022-06-10T04:00:00 8.420245 96.29003
2022-06-10T05:00:00 10.64025 90.68974
2022-06-10T06:00:00 13.46025 79.91229
2022-06-10T07:00:00 15.93025 70.50858
2022-06-10T08:00:00 18.18024 60.5303
2022-06-10T09:00:00 19.97025 53.02812
2022-06-10T10:00:00 20.90025 48.82434
2022-06-10T11:00:00 22.05025 44.3661
2022-06-10T12:00:00 22.93024 40.28661
2022-06-10T13:00:00 23.74025 38.40656
2022-06-10T14:00:00 24.25025 36.14268
2022-06-10T15:00:00 24.63025 35.61575
2022-06-10T16:00:00 24.80025 35.30206
2022-06-10T17:00:00 24.56025 35.8147
2022-06-10T18:00:00 23.60025 43.00828
2022-06-10T19:00:00 22.64025 39.84865
2022-06-10T20:00:00 19.74025 54.30177
2022-06-10T21:00:00 15.91025 70.12763
2022-06-10T22:00:00 14.33025 76.11575
2022-06-10T23:00:00 13.25025 82.06042
2022-06-11T00:00:00 12.56025 85.57976
2022-06-11T01:00:00 11.93025 88.02509
2022-06-11T02:00:00 11.91025 88.49834
2022-06-11T03:00:00 11.43025 87.85877
2022-06-11T04:00:00 11.45025 88.39649
2022-06-11T05:00:00 13.95025 80.79102
2022-06-11T06:00:00 16.58025 70.07294
2022-06-11T07:00:00 18.87025 62.20937
2022-06-11T08:00:00 21.22025 53.21476
2022-06-11T09:00:00 23.18024 47.83157
2022-06-11T10:00:00 24.50025 44.87262
2022-06-11T11:00:00 25.60025 41.26443
2022-06-11T12:00:00 26.46025 38.79195
2022-06-11T13:00:00 27.13025 36.20697
2022-06-11T14:00:00 27.85025 33.42817
2022-06-11T15:00:00 28.23025 31.86774
2022-06-11T16:00:00 28.41025 30.42656
2022-06-11T17:00:00 28.17025 29.95068
2022-06-11T18:00:00 27.53025 27.6869
2022-06-11T19:00:00 25.28025 38.0712
2022-06-11T20:00:00 22.26024 49.16293
2022-06-11T21:00:00 18.74025 63.30555
2022-06-11T22:00:00 16.65025 70.88504
2022-06-11T23:00:00 15.40025 78.76833
2022-06-12T00:00:00 14.25025 85.53596
2022-06-12T01:00:00 13.33025 89.45411
2022-06-12T02:00:00 13.00025 90.38433
2022-06-12T03:00:00 12.64025 91.56953
2022-06-12T04:00:00 12.62025 91.26363
2022-06-12T05:00:00 15.56025 83.06912
2022-06-12T06:00:00 18.33025 70.83299
2022-06-12T07:00:00 20.77025 62.15449
2022-06-12T08:00:00 22.83025 55.45726
2022-06-12T09:00:00 24.92025 49.45562
2022-06-12T10:00:00 26.92025 42.71464
2022-06-12T11:00:00 28.28025 38.66374
2022-06-12T12:00:00 29.42025 34.52563
2022-06-12T13:00:00 30.20025 30.73955
2022-06-12T14:00:00 30.76024 28.19469
2022-06-12T15:00:00 30.22025 31.5537
2022-06-12T16:00:00 29.47025 34.44843
2022-06-12T17:00:00 28.15025 38.67816
2022-06-12T18:00:00 26.68024 41.29422
2022-06-12T19:00:00 24.30025 54.11478
2022-06-12T20:00:00 22.31025 67.31311
2022-06-12T21:00:00 21.10025 77.04659
2022-06-12T22:00:00 20.20025 81.67004
2022-06-12T23:00:00 19.92025 83.05196
2022-06-13T00:00:00 19.09025 86.91601
2022-06-13T01:00:00 19.27025 85.83239
2022-06-13T02:00:00 19.07025 87.025
2022-06-13T03:00:00 18.56025 89.00182
2022-06-13T04:00:00 17.61025 92.71071
2022-06-13T05:00:00 18.17025 88.74373
2022-06-13T06:00:00 19.05025 80.17324
2022-06-13T07:00:00 20.00025 70.32207
2022-06-13T08:00:00 20.77025 60.38437
2022-06-13T09:00:00 21.95025 49.27587
2022-06-13T10:00:00 22.65025 43.85038
2022-06-13T11:00:00 23.57025 38.59333
2022-06-13T12:00:00 24.52025 33.80433
2022-06-13T13:00:00 25.03025 31.41601
2022-06-13T14:00:00 25.51024 30.27519
2022-06-13T15:00:00 25.69025 29.21543
2022-06-13T16:00:00 25.56025 29.58588
2022-06-13T17:00:00 24.85025 30.02565
2022-06-13T18:00:00 23.65025 31.04368
2022-06-13T19:00:00 21.16025 37.97527
2022-06-13T20:00:00 18.75025 47.30971
2022-06-13T21:00:00 16.57025 57.29995
2022-06-13T22:00:00 14.79025 67.11607
2022-06-13T23:00:00 13.63025 73.567
2022-06-14T00:00:00 13.37025 75.23625
2022-06-14T01:00:00 12.96025 77.02543
2022-06-14T02:00:00 12.52025 79.93625
2022-06-14T03:00:00 12.44025 80.0872
2022-06-14T04:00:00 12.02025 82.06218
2022-06-14T05:00:00 13.75025 77.99067
2022-06-14T06:00:00 16.24025 64.58099
2022-06-14T07:00:00 18.39025 55.88204
2022-06-14T08:00:00 20.39025 49.51423
2022-06-14T09:00:00 22.44025 44.74663
2022-06-14T10:00:00 24.38025 38.22612
2022-06-14T11:00:00 25.95025 32.93498
2022-06-14T12:00:00 27.00025 29.44154
2022-06-14T13:00:00 28.02025 27.06884
2022-06-14T14:00:00 28.56025 24.78507
2022-06-14T15:00:00 28.93024 23.80673
2022-06-14T16:00:00 28.77025 23.91318
2022-06-14T17:00:00 28.36025 23.19765
2022-06-14T18:00:00 27.00025 32.72002
2022-06-14T19:00:00 25.04025 33.65282
2022-06-14T20:00:00 21.11025 48.58661
2022-06-14T21:00:00 19.56025 55.91872
2022-06-14T22:00:00 17.56025 61.69574
2022-06-14T23:00:00 16.52025 68.71664
2022-06-15T00:00:00 15.91025 71.74227
2022-06-15T01:00:00 15.52025 73.41689
2022-06-15T02:00:00 15.30025 74.76475
2022-06-15T03:00:00 14.97025 77.09329
2022-06-15T04:00:00 14.80025 77.73827
2022-06-15T05:00:00 16.27025 73.84606
2022-06-15T06:00:00 18.95025 59.15412
2022-06-15T07:00:00 21.29025 50.39739
2022-06-15T08:00:00 23.52025 47.7658
2022-06-15T09:00:00 25.89025 42.79382
2022-06-15T10:00:00 27.94025 36.53263
2022-06-15T11:00:00 29.64025 30.97566
2022-06-15T12:00:00 30.98025 28.31159
2022-06-15T13:00:00 31.96025 27.16697
2022-06-15T14:00:00 32.47025 27.35909
2022-06-15T15:00:00 32.34025 28.9684
2022-06-15T16:00:00 32.32025 28.98212
2022-06-15T17:00:00 32.44025 26.64875
2022-06-15T18:00:00 30.81025 39.95439
2022-06-15T19:00:00 28.19025 39.87557
2022-06-15T20:00:00 25.22025 51.50696
2022-06-15T21:00:00 22.88025 62.39011
2022-06-15T22:00:00 22.06025 62.48826
2022-06-15T23:00:00 20.77025 70.01487
2022-06-16T00:00:00 20.06025 75.85676
2022-06-16T01:00:00 19.62025 79.43115
2022-06-16T02:00:00 19.32025 84.31818
2022-06-16T03:00:00 19.27025 85.94186
2022-06-16T04:00:00 19.38025 85.08101
2022-06-16T05:00:00 20.56025 80.37582
2022-06-16T06:00:00 22.86025 70.58875
2022-06-16T07:00:00 25.59025 59.31006
2022-06-16T08:00:00 27.87025 48.93281
2022-06-16T09:00:00 29.93024 37.74948
2022-06-16T10:00:00 29.12025 40.92441
2022-06-16T11:00:00 30.27025 30.37163
2022-06-16T12:00:00 30.92025 26.54343
2022-06-16T13:00:00 31.46025 23.90117
2022-06-16T14:00:00 31.95025 22.8963
2022-06-16T15:00:00 31.93024 23.97577
2022-06-16T16:00:00 31.75025 24.23939
2022-06-16T17:00:00 31.07025 23.42707
2022-06-16T18:00:00 29.95025 22.62686
2022-06-16T19:00:00 26.75025 29.98232
2022-06-16T20:00:00 23.05025 38.9987
2022-06-16T21:00:00 21.77025 41.88466
2022-06-16T22:00:00 19.45025 58.33527
2022-06-16T23:00:00 19.22025 59.45746
2022-06-17T00:00:00 18.46025 62.36317
2022-06-17T01:00:00 18.07025 62.69033
2022-06-17T02:00:00 16.81025 67.59168
2022-06-17T03:00:00 17.27025 64.59512
2022-06-17T04:00:00 15.88025 71.59278
2022-06-17T05:00:00 17.45025 65.1126
2022-06-17T06:00:00 19.71025 54.18465
2022-06-17T07:00:00 21.89025 43.72418
2022-06-17T08:00:00 24.35025 36.34433
2022-06-17T09:00:00 26.49025 32.61992
2022-06-17T10:00:00 28.78025 27.53934
2022-06-17T11:00:00 29.85025 24.38401
2022-06-17T12:00:00 30.36025 22.98614
2022-06-17T13:00:00 31.11025 20.90361
2022-06-17T14:00:00 31.81025 19.38418
2022-06-17T15:00:00 31.98025 18.72105
2022-06-17T16:00:00 32.17025 17.11906
2022-06-17T17:00:00 31.73025 15.75772
2022-06-17T18:00:00 30.18024 25.46187
2022-06-17T19:00:00 28.64025 19.54308
2022-06-17T20:00:00 26.43024 27.21175
2022-06-17T21:00:00 23.10025 38.74796
2022-06-17T22:00:00 21.14025 43.80871
2022-06-17T23:00:00 18.45025 57.07923
2022-06-18T00:00:00 18.45025 59.86899
2022-06-18T01:00:00 17.15025 67.12337
2022-06-18T02:00:00 16.20025 72.27759
2022-06-18T03:00:00 15.97025 74.68192
2022-06-18T04:00:00 17.04025 70.49072
2022-06-18T05:00:00 18.67025 66.60197
2022-06-18T06:00:00 21.88025 50.58994
2022-06-18T07:00:00 24.73025 40.06747
2022-06-18T08:00:00 27.37025 35.43698
2022-06-18T09:00:00 29.67025 31.69546
2022-06-18T10:00:00 31.87025 27.50807
2022-06-18T11:00:00 33.62025 23.86823
2022-06-18T12:00:00 34.93025 21.51897
2022-06-18T13:00:00 35.75025 20.12137
2022-06-18T14:00:00 36.37025 18.7963
2022-06-18T15:00:00 36.58025 18.83366
2022-06-18T16:00:00 36.44025 17.87738
2022-06-18T17:00:00 35.77025 16.14479
2022-06-18T18:00:00 34.23025 17.67621
2022-06-18T19:00:00 29.94025 31.6651
2022-06-18T20:00:00 26.72025 40.79076
2022-06-18T21:00:00 25.16025 46.19767
2022-06-18T22:00:00 24.57025 48.08287
2022-06-18T23:00:00 23.23025 52.93166
2022-06-19T00:00:00 22.18024 59.19206
2022-06-19T01:00:00 21.22025 65.03458
2022-06-19T02:00:00 20.83025 68.9485
2022-06-19T03:00:00 20.48025 71.51432
2022-06-19T04:00:00 20.40025 74.03291
2022-06-19T05:00:00 22.38025 65.83096
2022-06-19T06:00:00 25.64025 54.66324
2022-06-19T07:00:00 28.49025 44.24997
2022-06-19T08:00:00 30.85025 35.98859
2022-06-19T09:00:00 32.39025 33.41391
2022-06-19T10:00:00 33.05025 34.51907
2022-06-19T11:00:00 34.34025 30.92359
2022-06-19T12:00:00 35.29025 28.15276
2022-06-19T13:00:00 36.17025 24.64345
2022-06-19T14:00:00 37.04025 22.10711
2022-06-19T15:00:00 37.64025 18.88255
2022-06-19T16:00:00 37.43025 17.63692
2022-06-19T17:00:00 35.48025 22.55964
2022-06-19T18:00:00 33.93025 28.6969
2022-06-19T19:00:00 31.34025 34.76512
2022-06-19T20:00:00 28.13025 46.55101
2022-06-19T21:00:00 26.28025 57.14152
2022-06-19T22:00:00 24.46025 48.75323
2022-06-19T23:00:00 23.62025 54.5076
2022-06-20T00:00:00 22.50025 61.86266
2022-06-20T01:00:00 23.00025 62.61841
2022-06-20T02:00:00 24.16025 55.35786
2022-06-20T03:00:00 23.93024 52.04763
2022-06-20T04:00:00 24.30025 46.6354
2022-06-20T05:00:00 24.71025 43.29144
2022-06-20T06:00:00 25.48025 40.30699
2022-06-20T07:00:00 26.66025 39.05549
2022-06-20T08:00:00 27.84025 37.73425
2022-06-20T09:00:00 29.16025 35.35308
2022-06-20T10:00:00 30.16025 28.22028
2022-06-20T11:00:00 31.47025 25.39249
2022-06-20T12:00:00 32.25025 24.14131
2022-06-20T13:00:00 32.44025 24.07698
2022-06-20T14:00:00 32.30025 25.80355
2022-06-20T15:00:00 30.05025 36.37978
2022-06-20T16:00:00 29.12025 42.82075
2022-06-20T17:00:00 28.38025 44.02034
2022-06-20T18:00:00 27.05025 47.68918
2022-06-20T19:00:00 25.38025 52.72955
2022-06-20T20:00:00 23.05025 61.82776
2022-06-20T21:00:00 21.79025 66.00449
2022-06-20T22:00:00 20.38025 70.80576
2022-06-20T23:00:00 19.54025 73.40825
2022-06-21T00:00:00 18.81025 75.40901
2022-06-21T01:00:00 17.94025 77.61083
2022-06-21T02:00:00 17.52025 77.64775
2022-06-21T03:00:00 17.30025 76.85445
2022-06-21T04:00:00 17.17025 77.74659
2022-06-21T05:00:00 18.03025 72.61472
2022-06-21T06:00:00 19.04025 66.41723
2022-06-21T07:00:00 20.55025 62.10405
2022-06-21T08:00:00 22.69025 58.16715
2022-06-21T09:00:00 24.67025 54.10339
2022-06-21T10:00:00 26.41025 49.11482
2022-06-21T11:00:00 28.29025 43.99574
2022-06-21T12:00:00 30.13025 39.71533
2022-06-21T13:00:00 31.61025 33.89975
2022-06-21T14:00:00 32.73025 28.94052
2022-06-21T15:00:00 33.60025 24.18547
2022-06-21T16:00:00 33.73025 19.63979
2022-06-21T17:00:00 32.40025 21.09924
2022-06-21T18:00:00 29.39025 33.459
2022-06-21T19:00:00 27.63025 43.47404
2022-06-21T20:00:00 25.25025 54.31997
2022-06-21T21:00:00 23.26024 66.22571
2022-06-21T22:00:00 23.96025 55.16436
2022-06-21T23:00:00 23.76024 57.41376
2022-06-22T00:00:00 22.36025 65.15246
2022-06-22T01:00:00 21.17025 71.82493
2022-06-22T02:00:00 20.86025 75.83873
2022-06-22T03:00:00 20.55025 79.91546
2022-06-22T04:00:00 20.28025 83.14648
2022-06-22T05:00:00 20.75025 81.94582
2022-06-22T06:00:00 21.47025 77.69208
2022-06-22T07:00:00 21.33025 79.41473
2022-06-22T08:00:00 20.96025 84.4407
2022-06-22T09:00:00 20.91025 86.91576
2022-06-22T10:00:00 22.72025 71.10304
2022-06-22T11:00:00 24.09025 64.36095
2022-06-22T12:00:00 26.09025 58.23238
2022-06-22T13:00:00 26.69025 56.16085
2022-06-22T14:00:00 25.63025 60.38364
2022-06-22T15:00:00 26.06025 57.70949
2022-06-22T16:00:00 23.94025 67.46911
2022-06-22T17:00:00 21.77025 73.60476
2022-06-22T18:00:00 20.98025 76.34364
2022-06-22T19:00:00 21.03025 77.77533
2022-06-22T20:00:00 20.28025 79.16818
2022-06-22T21:00:00 19.19025 83.28577
2022-06-22T22:00:00 17.89025 96.09078
2022-06-22T23:00:00 17.62025 96.38963
2022-06-23T00:00:00 17.36025 96.3216
2022-06-23T01:00:00 17.26024 95.15727
2022-06-23T02:00:00 17.32025 93.95031
2022-06-23T03:00:00 17.12025 94.90909
2022-06-23T04:00:00 17.15025 94.66753
2022-06-23T05:00:00 18.18024 91.04222
2022-06-23T06:00:00 19.47025 82.36517
2022-06-23T07:00:00 21.10025 75.49046
2022-06-23T08:00:00 23.13025 67.43553
2022-06-23T09:00:00 24.81025 61.5144
2022-06-23T10:00:00 26.01024 58.47289
2022-06-23T11:00:00 27.04025 54.62791
2022-06-23T12:00:00 28.28025 50.01973
2022-06-23T13:00:00 29.30025 44.58446
2022-06-23T14:00:00 29.94025 40.80714
2022-06-23T15:00:00 30.32025 39.20648
2022-06-23T16:00:00 30.18024 37.67175
2022-06-23T17:00:00 28.44025 41.43198
2022-06-23T18:00:00 25.06025 52.37503
2022-06-23T19:00:00 21.37025 67.73124
2022-06-23T20:00:00 19.90025 79.67389
2022-06-23T21:00:00 19.47025 83.15862
2022-06-23T22:00:00 17.83025 91.4866
2022-06-23T23:00:00 17.43024 95.28475
2022-06-24T00:00:00 17.35025 97.49465
2022-06-24T01:00:00 17.19025 97.42978
2022-06-24T02:00:00 17.57025 93.12451
2022-06-24T03:00:00 17.52025 93.06249
2022-06-24T04:00:00 17.64025 92.83089
2022-06-24T05:00:00 17.97025 92.25763
2022-06-24T06:00:00 18.90025 87.62203
2022-06-24T07:00:00 20.22025 82.45561
2022-06-24T08:00:00 21.57025 75.90294
2022-06-24T09:00:00 22.29025 70.9337
2022-06-24T10:00:00 22.88025 64.34777
2022-06-24T11:00:00 21.88025 67.74681
2022-06-24T12:00:00 20.55025 76.374
2022-06-24T13:00:00 20.07025 78.03166
2022-06-24T14:00:00 19.74025 78.53574
2022-06-24T15:00:00 18.34025 81.80302
2022-06-24T16:00:00 17.56025 87.16573
2022-06-24T17:00:00 18.17025 87.27753
2022-06-24T18:00:00 19.02025 83.47974
2022-06-24T19:00:00 18.66025 84.35403
2022-06-24T20:00:00 17.36025 88.79231
2022-06-24T21:00:00 16.78025 89.09003
2022-06-24T22:00:00 16.00025 88.96921
2022-06-24T23:00:00 15.66025 89.87426
2022-06-25T00:00:00 15.41025 90.38473
2022-06-25T01:00:00 14.98025 91.72328
2022-06-25T02:00:00 14.45025 94.06328
2022-06-25T03:00:00 14.28025 94.79744
2022-06-25T04:00:00 14.15025 95.16537
2022-06-25T05:00:00 15.44025 91.03767
2022-06-25T06:00:00 17.22025 85.51446
2022-06-25T07:00:00 18.92025 78.82236
2022-06-25T08:00:00 20.56025 72.36417
2022-06-25T09:00:00 22.24025 65.08492
2022-06-25T10:00:00 23.62025 54.40106
2022-06-25T11:00:00 24.72025 48.91924
2022-06-25T12:00:00 25.75025 44.4809
2022-06-25T13:00:00 26.47025 41.97681
2022-06-25T14:00:00 26.99025 40.51762
2022-06-25T15:00:00 27.38025 38.15733
2022-06-25T16:00:00 27.45025 37.47486
2022-06-25T17:00:00 27.52025 36.58416
2022-06-25T18:00:00 26.72025 41.08803
2022-06-25T19:00:00 24.38025 51.92728
2022-06-25T20:00:00 21.46025 64.74934
2022-06-25T21:00:00 20.74025 66.12611
2022-06-25T22:00:00 19.34025 76.28124
2022-06-25T23:00:00 19.10025 79.66552
2022-06-26T00:00:00 18.44025 84.87347
2022-06-26T01:00:00 17.57025 90.5952
2022-06-26T02:00:00 17.35025 92.16372
2022-06-26T03:00:00 16.99025 94.47945
2022-06-26T04:00:00 16.67025 95.31975
2022-06-26T05:00:00 17.70025 90.72022
2022-06-26T06:00:00 18.65025 85.6609
2022-06-26T07:00:00 19.51024 83.26954
2022-06-26T08:00:00 20.48025 78.54203
2022-06-26T09:00:00 21.43024 73.31199
2022-06-26T10:00:00 21.74025 70.15442
2022-06-26T11:00:00 23.28025 64.93078
2022-06-26T12:00:00 24.69025 59.06136
2022-06-26T13:00:00 26.17025 53.75301
2022-06-26T14:00:00 26.79025 52.75085
2022-06-26T15:00:00 26.96025 52.96292
2022-06-26T16:00:00 27.32025 50.76775
2022-06-26T17:00:00 26.43024 52.92991
2022-06-26T18:00:00 25.31025 56.03819
2022-06-26T19:00:00 23.86025 60.32283
2022-06-26T20:00:00 22.16025 70.36845
2022-06-26T21:00:00 20.76024 76.99483
2022-06-26T22:00:00 20.41025 83.26696
2022-06-26T23:00:00 19.68024 84.30357
2022-06-27T00:00:00 18.54025 88.83003
2022-06-27T01:00:00 18.19025 87.1675
2022-06-27T02:00:00 17.93024 88.0439
2022-06-27T03:00:00 17.70025 90.54601
2022-06-27T04:00:00 17.51024 91.17414
2022-06-27T05:00:00 17.92025 89.35148
2022-06-27T06:00:00 18.35025 87.34975
2022-06-27T07:00:00 18.89025 85.79465
2022-06-27T08:00:00 19.13025 85.59976
2022-06-27T09:00:00 19.76024 83.19226
2022-06-27T10:00:00 20.19025 69.85801
2022-06-27T11:00:00 21.53025 64.26222
2022-06-27T12:00:00 22.15025 58.72296
2022-06-27T13:00:00 22.09025 58.97763
2022-06-27T14:00:00 22.40025 57.56792
2022-06-27T15:00:00 22.16025 59.49697
2022-06-27T16:00:00 21.22025 64.78153
2022-06-27T17:00:00 20.40025 66.22685
2022-06-27T18:00:00 19.40025 72.01383
2022-06-27T19:00:00 18.44025 81.76291
2022-06-27T20:00:00 17.84025 82.85886
2022-06-27T21:00:00 16.94025 86.93904
2022-06-27T22:00:00 15.82025 85.59079
2022-06-27T23:00:00 15.04025 88.77318
2022-06-28T00:00:00 15.66025 83.73974
2022-06-28T01:00:00 15.08025 86.98791
2022-06-28T02:00:00 13.78025 94.09334
2022-06-28T03:00:00 13.69025 96.91297
2022-06-28T04:00:00 13.86025 96.22125
2022-06-28T05:00:00 15.28025 90.73017
2022-06-28T06:00:00 16.60025 85.67239
2022-06-28T07:00:00 18.09025 78.29334
2022-06-28T08:00:00 19.49025 72.68845
2022-06-28T09:00:00 20.72025 67.29277
2022-06-28T10:00:00 21.95025 63.07441
2022-06-28T11:00:00 22.95025 59.56811
2022-06-28T12:00:00 23.08025 58.64079
2022-06-28T13:00:00 23.24025 58.03581
2022-06-28T14:00:00 23.39025 58.22278
2022-06-28T15:00:00 23.41025 57.92651
2022-06-28T16:00:00 23.35025 59.01019
2022-06-28T17:00:00 23.12025 60.42342
2022-06-28T18:00:00 22.69025 63.97645
2022-06-28T19:00:00 21.79025 65.66431
2022-06-28T20:00:00 20.64025 68.8218
2022-06-28T21:00:00 19.77025 70.23233
2022-06-28T22:00:00 18.09025 85.99032
2022-06-28T23:00:00 17.64025 86.89272
2022-06-29T00:00:00 17.26024 88.27039
2022-06-29T01:00:00 16.88025 89.61756
2022-06-29T02:00:00 16.86025 89.03885
2022-06-29T03:00:00 16.57025 90.58472
2022-06-29T04:00:00 16.30025 91.92433
2022-06-29T05:00:00 17.07025 87.74236
2022-06-29T06:00:00 18.59025 82.25745
2022-06-29T07:00:00 20.25025 75.88719
2022-06-29T08:00:00 21.84025 69.45731
2022-06-29T09:00:00 23.18024 64.32992
2022-06-29T10:00:00 25.01024 53.77086
2022-06-29T11:00:00 25.65025 50.10318
2022-06-29T12:00:00 25.69025 50.57077
2022-06-29T13:00:00 26.32025 48.27057
2022-06-29T14:00:00 27.18024 44.43803
2022-06-29T15:00:00 27.66025 42.55713
2022-06-29T16:00:00 27.67025 41.16408
2022-06-29T17:00:00 27.50025 42.40186
2022-06-29T18:00:00 26.74025 44.6368
2022-06-29T19:00:00 24.99025 50.32081
2022-06-29T20:00:00 21.85025 65.54986
2022-06-29T21:00:00 20.03025 73.54125
2022-06-29T22:00:00 18.38025 81.12412
2022-06-29T23:00:00 17.57025 84.56096
2022-06-30T00:00:00 16.54025 87.75191
2022-06-30T01:00:00 15.32025 92.40472
2022-06-30T02:00:00 15.38025 93.07201
2022-06-30T03:00:00 14.79025 94.01774
2022-06-30T04:00:00 14.44025 95.61289
2022-06-30T05:00:00 17.06025 89.05483
2022-06-30T06:00:00 19.82025 78.14509
2022-06-30T07:00:00 22.21025 69.52847
2022-06-30T08:00:00 24.51024 61.83996
2022-06-30T09:00:00 26.20025 56.79608
2022-06-30T10:00:00 27.91025 47.55079
2022-06-30T11:00:00 28.90025 44.79163
2022-06-30T12:00:00 29.67025 43.22035
2022-06-30T13:00:00 30.12025 41.20028
2022-06-30T14:00:00 28.98025 40.83255
2022-06-30T15:00:00 28.24025 40.28315
2022-06-30T16:00:00 25.91025 48.28624
2022-06-30T17:00:00 24.27025 57.09396
2022-06-30T18:00:00 22.16025 66.03944
2022-06-30T19:00:00 19.35025 81.04186
2022-06-30T20:00:00 17.10025 88.42795
2022-06-30T21:00:00 15.73025 87.96552
2022-06-30T22:00:00 15.88025 86.61086
2022-06-30T23:00:00 15.45025 88.74965
2022-07-01T00:00:00 15.22025 89.89946
2022-07-01T01:00:00 15.04025 90.29862
2022-07-01T02:00:00 14.74025 88.86452
2022-07-01T03:00:00 14.31025 90.18488
2022-07-01T04:00:00 13.92025 91.17266
2022-07-01T05:00:00 13.85025 91.58989
2022-07-01T06:00:00 14.02025 91.54076
2022-07-01T07:00:00 14.31025 88.53546
2022-07-01T08:00:00 15.23025 84.0206
2022-07-01T09:00:00 16.69025 76.70658
2022-07-01T10:00:00 17.42025 69.35889
2022-07-01T11:00:00 18.47025 65.20684
2022-07-01T12:00:00 19.67025 57.96308
2022-07-01T13:00:00 21.02025 52.07337
2022-07-01T14:00:00 21.71025 47.20443
2022-07-01T15:00:00 21.75025 46.45855
2022-07-01T16:00:00 21.91025 45.14345
2022-07-01T17:00:00 21.95025 46.73383
2022-07-01T18:00:00 21.56025 48.6774
2022-07-01T19:00:00 20.42025 51.04822
2022-07-01T20:00:00 18.23025 59.81562
2022-07-01T21:00:00 15.31025 75.62027
2022-07-01T22:00:00 14.87025 76.10405
2022-07-01T23:00:00 14.17025 79.96187
2022-07-02T00:00:00 13.67025 83.1662
2022-07-02T01:00:00 12.26025 90.50904
2022-07-02T02:00:00 12.02025 91.71101
2022-07-02T03:00:00 12.03025 92.57446
2022-07-02T04:00:00 11.28025 95.30165
2022-07-02T05:00:00 13.07025 92.76017
2022-07-02T06:00:00 15.37025 84.4808
2022-07-02T07:00:00 17.31025 76.10319
2022-07-02T08:00:00 19.30025 66.91061
2022-07-02T09:00:00 21.19025 59.30407
2022-07-02T10:00:00 22.75025 53.82427
2022-07-02T11:00:00 24.22025 47.86161
2022-07-02T12:00:00 25.27025 44.26018
2022-07-02T13:00:00 26.13025 41.16729
2022-07-02T14:00:00 27.00025 38.30375
2022-07-02T15:00:00 27.51024 36.38707
2022-07-02T16:00:00 27.77025 35.66866
2022-07-02T17:00:00 27.65025 35.92094
2022-07-02T18:00:00 26.85025 39.60461
2022-07-02T19:00:00 23.88025 53.44746
2022-07-02T20:00:00 22.59025 54.4951
2022-07-02T21:00:00 20.19025 66.09604
2022-07-02T22:00:00 17.03025 82.81437
2022-07-02T23:00:00 16.14025 86.86267
2022-07-03T00:00:00 15.62025 88.18597
2022-07-03T01:00:00 14.99025 89.76412
2022-07-03T02:00:00 14.51025 90.85434
2022-07-03T03:00:00 14.07025 90.46455
2022-07-03T04:00:00 14.00025 90.10185
2022-07-03T05:00:00 16.20025 83.20162
2022-07-03T06:00:00 18.83025 71.86212
2022-07-03T07:00:00 21.41025 60.85282
2022-07-03T08:00:00 23.85025 51.18133
2022-07-03T09:00:00 25.76024 42.3914
2022-07-03T10:00:00 27.24025 38.14315
2022-07-03T11:00:00 28.36025 35.71632
2022-07-03T12:00:00 29.19025 34.23361
2022-07-03T13:00:00 29.95025 33.68222
2022-07-03T14:00:00 30.61025 32.0627
2022-07-03T15:00:00 30.98025 31.223
2022-07-03T16:00:00 30.79025 31.98558
2022-07-03T17:00:00 30.60025 29.93961
2022-07-03T18:00:00 29.64025 32.02684
2022-07-03T19:00:00 27.60025 38.57466
2022-07-03T20:00:00 26.01024 45.70667
2022-07-03T21:00:00 24.85025 52.01573
2022-07-03T22:00:00 21.64025 65.80257
2022-07-03T23:00:00 21.71025 63.18478
2022-07-04T00:00:00 20.57025 69.48
2022-07-04T01:00:00 19.16025 78.19865
2022-07-04T02:00:00 18.84025 81.13183
2022-07-04T03:00:00 18.64025 84.29773
2022-07-04T04:00:00 18.90025 84.11044
2022-07-04T05:00:00 19.09025 82.00257
2022-07-04T06:00:00 19.51024 77.39845
2022-07-04T07:00:00 20.55025 73.2061
2022-07-04T08:00:00 21.95025 68.15393
2022-07-04T09:00:00 23.18024 63.02217
2022-07-04T10:00:00 24.57025 60.13968
2022-07-04T11:00:00 25.32025 55.75359
2022-07-04T12:00:00 25.66025 53.04013
2022-07-04T13:00:00 25.65025 51.6856
2022-07-04T14:00:00 24.95025 52.58484
2022-07-04T15:00:00 24.75025 56.00831
2022-07-04T16:00:00 25.27025 51.85511
2022-07-04T17:00:00 25.21025 51.10464
2022-07-04T18:00:00 24.96025 49.59572
2022-07-04T19:00:00 24.36025 50.74836
2022-07-04T20:00:00 21.75025 61.09123
2022-07-04T21:00:00 20.55025 65.22956
2022-07-04T22:00:00 19.65025 78.72472
2022-07-04T23:00:00 18.77025 78.14082
2022-07-05T00:00:00 18.49025 77.79562
2022-07-05T01:00:00 17.71025 81.40512
2022-07-05T02:00:00 17.03025 84.88644
2022-07-05T03:00:00 16.77025 87.26188
2022-07-05T04:00:00 16.13025 90.73032
2022-07-05T05:00:00 17.72025 80.40772
2022-07-05T06:00:00 19.37025 73.37846
2022-07-05T07:00:00 20.95025 67.33993
2022-07-05T08:00:00 22.38025 62.56028
2022-07-05T09:00:00 23.72025 54.85355
2022-07-05T10:00:00 24.97025 44.05994
2022-07-05T11:00:00 26.02025 38.51268
2022-07-05T12:00:00 26.69025 36.56894
2022-07-05T13:00:00 27.17025 34.07512
2022-07-05T14:00:00 27.84025 32.10297
2022-07-05T15:00:00 28.05025 29.69445
2022-07-05T16:00:00 27.95025 28.20577
2022-07-05T17:00:00 27.73025 27.91412
2022-07-05T18:00:00 26.88025 27.58325
2022-07-05T19:00:00 24.06025 37.36493
2022-07-05T20:00:00 21.40025 44.78657
2022-07-05T21:00:00 19.79025 51.15398
2022-07-05T22:00:00 18.63025 57.82049
2022-07-05T23:00:00 16.93024 66.58485
2022-07-06T00:00:00 16.54025 68.12553
2022-07-06T01:00:00 16.32025 68.95216
2022-07-06T02:00:00 16.14025 69.19318
2022-07-06T03:00:00 15.82025 70.2981
2022-07-06T04:00:00 15.56025 71.05325
2022-07-06T05:00:00 16.11025 71.58878
2022-07-06T06:00:00 17.94025 61.08486
2022-07-06T07:00:00 19.42025 57.93975
2022-07-06T08:00:00 20.90025 53.05999
2022-07-06T09:00:00 22.38025 48.31739
2022-07-06T10:00:00 23.43024 44.0404
2022-07-06T11:00:00 24.42025 41.2618
2022-07-06T12:00:00 25.32025 38.18518
2022-07-06T13:00:00 25.74025 35.69124
2022-07-06T14:00:00 26.37025 33.59692
2022-07-06T15:00:00 26.13025 33.66555
2022-07-06T16:00:00 25.57025 33.96572
2022-07-06T17:00:00 24.38025 35.59257
2022-07-06T18:00:00 22.96025 37.02266
2022-07-06T19:00:00 21.79025 36.35426
2022-07-06T20:00:00 20.00025 40.29836
2022-07-06T21:00:00 17.53025 50.74635
2022-07-06T22:00:00 16.57025 54.80381
2022-07-06T23:00:00 14.62025 65.0518
2022-07-07T00:00:00 14.49025 65.0669
2022-07-07T01:00:00 14.73025 63.71218
2022-07-07T02:00:00 14.48025 64.17983
2022-07-07T03:00:00 13.43025 70.48871
2022-07-07T04:00:00 12.87025 73.17638
2022-07-07T05:00:00 13.94025 73.27572
2022-07-07T06:00:00 16.67025 58.55034
2022-07-07T07:00:00 18.94025 52.25594
2022-07-07T08:00:00 21.05025 45.85677
2022-07-07T09:00:00 22.51024 41.92517
2022-07-07T10:00:00 23.24025 40.81553
2022-07-07T11:00:00 23.87025 40.9399
2022-07-07T12:00:00 24.07025 42.0567
2022-07-07T13:00:00 23.93024 43.44874
2022-07-07T14:00:00 23.64025 45.80932
2022-07-07T15:00:00 22.64025 51.30022
2022-07-07T16:00:00 21.90025 55.80736
2022-07-07T17:00:00 21.72025 55.76196
2022-07-07T18:00:00 21.17025 55.40203
2022-07-07T19:00:00 20.50025 56.98456
2022-07-07T20:00:00 18.55025 64.96543
2022-07-07T21:00:00 17.47025 68.8187
2022-07-07T22:00:00 17.49025 69.74181
2022-07-07T23:00:00 16.80025 71.52934
2022-07-08T00:00:00 16.03025 74.19728
2022-07-08T01:00:00 15.11025 78.04643
2022-07-08T02:00:00 15.02025 78.81596
2022-07-08T03:00:00 15.09025 76.95841
2022-07-08T04:00:00 14.67025 77.25138
2022-07-08T05:00:00 15.17025 73.15669
2022-07-08T06:00:00 16.52025 64.29636
2022-07-08T07:00:00 17.85025 57.6247
2022-07-08T08:00:00 19.03025 53.10119
2022-07-08T09:00:00 20.24025 48.37941
2022-07-08T10:00:00 21.65025 44.07317
2022-07-08T11:00:00 22.76024 40.43
2022-07-08T12:00:00 23.80025 36.98622
2022-07-08T13:00:00 24.55025 33.69711
2022-07-08T14:00:00 24.98025 31.20728
2022-07-08T15:00:00 25.29025 30.02536
2022-07-08T16:00:00 25.28025 29.5069
2022-07-08T17:00:00 24.91025 29.34106
2022-07-08T18:00:00 23.91025 28.71321
2022-07-08T19:00:00 22.08025 32.2981
2022-07-08T20:00:00 19.77025 42.05861
2022-07-08T21:00:00 17.34025 52.82963
2022-07-08T22:00:00 15.83025 60.24638
2022-07-08T23:00:00 15.55025 61.21562
2022-07-09T00:00:00 14.61025 66.80365
2022-07-09T01:00:00 13.39025 73.2733
2022-07-09T02:00:00 12.61025 77.28238
2022-07-09T03:00:00 12.27025 79.79086
2022-07-09T04:00:00 11.74025 82.58366
2022-07-09T05:00:00 13.91025 76.40476
2022-07-09T06:00:00 16.79025 63.49647
2022-07-09T07:00:00 19.22025 54.01999
2022-07-09T08:00:00 21.54025 46.80884
2022-07-09T09:00:00 23.29025 40.82981
2022-07-09T10:00:00 24.47025 37.58431
2022-07-09T11:00:00 25.65025 35.54513
2022-07-09T12:00:00 26.67025 33.88759
2022-07-09T13:00:00 27.50025 32.07225
2022-07-09T14:00:00 28.06025 30.41115
2022-07-09T15:00:00 28.14025 29.65902
2022-07-09T16:00:00 28.03025 29.62838
2022-07-09T17:00:00 27.66025 28.61151
2022-07-09T18:00:00 26.70025 28.77762
2022-07-09T19:00:00 24.43024 34.36287
2022-07-09T20:00:00 21.00025 49.3477
2022-07-09T21:00:00 18.98025 58.57087
2022-07-09T22:00:00 17.98025 69.60836
2022-07-09T23:00:00 17.51024 69.83824
2022-07-10T00:00:00 17.89025 66.87867
2022-07-10T01:00:00 17.32025 70.07904
2022-07-10T02:00:00 16.40025 75.5027
2022-07-10T03:00:00 15.61025 81.23391
2022-07-10T04:00:00 15.57025 82.09074
2022-07-10T05:00:00 16.56025 77.65246
2022-07-10T06:00:00 17.72025 71.84473
2022-07-10T07:00:00 19.06025 66.77231
2022-07-10T08:00:00 20.55025 59.77794
2022-07-10T09:00:00 21.66025 55.34348
2022-07-10T10:00:00 22.61025 51.05512
2022-07-10T11:00:00 23.34025 45.78718
2022-07-10T12:00:00 24.32025 41.53883
2022-07-10T13:00:00 25.04025 37.21577
2022-07-10T14:00:00 25.22025 34.70715
2022-07-10T15:00:00 25.10025 33.76218
2022-07-10T16:00:00 24.78025 33.30319
2022-07-10T17:00:00 24.16025 34.00374
2022-07-10T18:00:00 23.06025 35.01827
2022-07-10T19:00:00 21.40025 39.11137
2022-07-10T20:00:00 19.54025 45.1187
2022-07-10T21:00:00 18.27025 49.67374
2022-07-10T22:00:00 16.63025 55.46293
2022-07-10T23:00:00 15.44025 61.02181
2022-07-11T00:00:00 14.55025 65.5267
2022-07-11T01:00:00 13.42025 72.04248
2022-07-11T02:00:00 12.84025 76.38044
2022-07-11T03:00:00 12.63025 78.71584
2022-07-11T04:00:00 12.16025 81.52658
2022-07-11T05:00:00 14.29025 73.04359
2022-07-11T06:00:00 16.79025 62.0981
2022-07-11T07:00:00 18.93024 53.07462
2022-07-11T08:00:00 20.81025 45.9764
2022-07-11T09:00:00 22.31025 41.49952
2022-07-11T10:00:00 23.81025 38.68846
2022-07-11T11:00:00 25.14025 37.6741
2022-07-11T12:00:00 26.31025 36.29005
2022-07-11T13:00:00 27.46025 34.54886
2022-07-11T14:00:00 28.26024 32.59103
2022-07-11T15:00:00 28.52025 31.56492
2022-07-11T16:00:00 28.38025 31.6107
2022-07-11T17:00:00 27.69025 32.76013
2022-07-11T18:00:00 26.34025 33.83969
2022-07-11T19:00:00 24.69025 37.72379
2022-07-11T20:00:00 22.88025 45.17216
2022-07-11T21:00:00 20.76024 54.31247
2022-07-11T22:00:00 18.87025 63.50337
2022-07-11T23:00:00 17.64025 68.8988
2022-07-12T00:00:00 16.52025 74.1849
2022-07-12T01:00:00 15.91025 77.14115
2022-07-12T02:00:00 15.37025 80.50604
2022-07-12T03:00:00 15.39025 80.82915
2022-07-12T04:00:00 15.30025 81.56902
2022-07-12T05:00:00 16.63025 78.43374
2022-07-12T06:00:00 18.92025 65.65109
2022-07-12T07:00:00 20.92025 58.57914
2022-07-12T08:00:00 23.00025 51.49736
2022-07-12T09:00:00 24.78025 45.79014
2022-07-12T10:00:00 26.18024 40.23652
2022-07-12T11:00:00 27.35025 35.31301
2022-07-12T12:00:00 28.44025 30.78641
2022-07-12T13:00:00 29.42025 26.55163
2022-07-12T14:00:00 29.99025 24.13771
2022-07-12T15:00:00 30.15025 22.7261
2022-07-12T16:00:00 29.78025 22.9773
2022-07-12T17:00:00 29.27025 24.60018
2022-07-12T18:00:00 28.41025 23.52059
2022-07-12T19:00:00 25.71025 31.58765
2022-07-12T20:00:00 22.55025 43.76304
2022-07-12T21:00:00 20.74025 50.92872
2022-07-12T22:00:00 19.63025 51.77187
2022-07-12T23:00:00 17.82025 60.56578
2022-07-13T00:00:00 16.56025 66.50517
2022-07-13T01:00:00 15.41025 71.98431
2022-07-13T02:00:00 15.26025 73.41882
2022-07-13T03:00:00 14.84025 76.15
2022-07-13T04:00:00 14.18025 80.55355
2022-07-13T05:00:00 16.30025 72.15191
2022-07-13T06:00:00 19.36025 59.37265
2022-07-13T07:00:00 22.47025 49.05628
2022-07-13T08:00:00 25.03025 41.51729
2022-07-13T09:00:00 27.20025 34.42902
2022-07-13T10:00:00 28.85025 30.20119
2022-07-13T11:00:00 30.50025 25.44363
2022-07-13T12:00:00 31.87025 21.49204
2022-07-13T13:00:00 32.88025 18.56197
2022-07-13T14:00:00 33.30025 17.28734
2022-07-13T15:00:00 33.48025 16.14459
2022-07-13T16:00:00 33.11025 16.46173
2022-07-13T17:00:00 32.22025 16.26869
2022-07-13T18:00:00 30.69025 25.40802
2022-07-13T19:00:00 30.66025 16.00243
2022-07-13T20:00:00 28.88025 20.15258
2022-07-13T21:00:00 27.11025 26.30295
2022-07-13T22:00:00 26.33025 30.11156
2022-07-13T23:00:00 24.69025 34.4846
2022-07-14T00:00:00 22.48025 42.00204
2022-07-14T01:00:00 21.38025 45.26968
2022-07-14T02:00:00 21.13025 46.19133
2022-07-14T03:00:00 20.87025 49.41192
2022-07-14T04:00:00 20.69025 48.96462
2022-07-14T05:00:00 21.55025 46.62252
2022-07-14T06:00:00 23.85025 43.02108
2022-07-14T07:00:00 27.19025 33.78391
2022-07-14T08:00:00 29.31025 32.45028
2022-07-14T09:00:00 30.95025 30.72214
2022-07-14T10:00:00 32.36025 27.20221
2022-07-14T11:00:00 33.71025 22.15431
2022-07-14T12:00:00 34.61025 19.76094
2022-07-14T13:00:00 35.21025 18.06776
2022-07-14T14:00:00 35.63025 17.35043
2022-07-14T15:00:00 35.79025 16.4998
2022-07-14T16:00:00 35.45025 17.32053
2022-07-14T17:00:00 34.35025 17.8645
2022-07-14T18:00:00 33.04025 18.88669
2022-07-14T19:00:00 30.61025 24.55253
2022-07-14T20:00:00 27.97025 32.64094
2022-07-14T21:00:00 26.63025 39.07298
2022-07-14T22:00:00 24.43024 45.4521
2022-07-14T23:00:00 23.21025 47.58604
2022-07-15T00:00:00 21.38025 51.27158
2022-07-15T01:00:00 19.92025 54.16671
2022-07-15T02:00:00 18.76024 55.56345
2022-07-15T03:00:00 17.87025 58.29559
2022-07-15T04:00:00 17.10025 60.55554
2022-07-15T05:00:00 18.17025 56.20454
2022-07-15T06:00:00 20.05025 49.12047
2022-07-15T07:00:00 21.93024 42.8829
2022-07-15T08:00:00 23.58025 38.49134
2022-07-15T09:00:00 25.06025 35.54525
2022-07-15T10:00:00 26.51024 33.93385
2022-07-15T11:00:00 27.61025 32.05988
2022-07-15T12:00:00 28.40025 29.93361
2022-07-15T13:00:00 28.93024 27.84479
2022-07-15T14:00:00 29.37025 26.5743
2022-07-15T15:00:00 29.57025 25.54186
2022-07-15T16:00:00 29.35025 25.81666
2022-07-15T17:00:00 28.47025 26.71188
2022-07-15T18:00:00 27.11025 28.12758
2022-07-15T19:00:00 25.25025 33.34626
2022-07-15T20:00:00 23.02025 40.61462
2022-07-15T21:00:00 20.42025 49.489
2022-07-15T22:00:00 18.48025 56.05645
2022-07-15T23:00:00 18.00025 57.00364
2022-07-16T00:00:00 18.42025 54.95237
2022-07-16T01:00:00 17.45025 58.78468
2022-07-16T02:00:00 16.96025 60.97381
2022-07-16T03:00:00 15.94025 64.25161
2022-07-16T04:00:00 14.15025 71.25858
2022-07-16T05:00:00 15.41025 65.45128
2022-07-16T06:00:00 17.60025 55.22487
2022-07-16T07:00:00 19.75025 47.59029
2022-07-16T08:00:00 22.01024 41.83922
2022-07-16T09:00:00 24.03025 36.80071
2022-07-16T10:00:00 25.65025 32.09443
2022-07-16T11:00:00 26.82025 28.7715
2022-07-16T12:00:00 27.67025 26.38336
2022-07-16T13:00:00 28.22025 24.13379
2022-07-16T14:00:00 28.69025 23.26866
2022-07-16T15:00:00 28.62025 23.04032
2022-07-16T16:00:00 28.28025 23.38794
2022-07-16T17:00:00 27.61025 24.03775
2022-07-16T18:00:00 26.50025 23.53989
2022-07-16T19:00:00 24.76024 27.53053
2022-07-16T20:00:00 22.10025 36.39395
2022-07-16T21:00:00 19.73025 44.15951
2022-07-16T22:00:00 18.45025 48.71052
2022-07-16T23:00:00 17.72025 52.06922
2022-07-17T00:00:00 16.87025 55.48773
2022-07-17T01:00:00 15.82025 59.62927
2022-07-17T02:00:00 15.21025 61.89148
2022-07-17T03:00:00 14.43025 65.14239
2022-07-17T04:00:00 14.10025 67.10396
2022-07-17T05:00:00 15.94025 61.64454
2022-07-17T06:00:00 18.81025 49.48346
2022-07-17T07:00:00 21.04025 42.95064
2022-07-17T08:00:00 23.48025 37.70974
2022-07-17T09:00:00 25.67025 34.36599
2022-07-17T10:00:00 27.40025 30.28824
2022-07-17T11:00:00 28.74025 27.86844
2022-07-17T12:00:00 30.18024 26.1295
2022-07-17T13:00:00 31.10025 24.48181
2022-07-17T14:00:00 31.60025 22.99357
2022-07-17T15:00:00 31.75025 22.50312
2022-07-17T16:00:00 31.60025 22.20383
2022-07-17T17:00:00 30.93024 22.18394
2022-07-17T18:00:00 29.74025 20.83239
2022-07-17T19:00:00 27.21025 25.20168
2022-07-17T20:00:00 24.02025 32.72151
2022-07-17T21:00:00 21.14025 40.10099
2022-07-17T22:00:00 19.64025 44.77631
2022-07-17T23:00:00 18.97025 46.46866
2022-07-18T00:00:00 18.15025 50.01687
2022-07-18T01:00:00 16.69025 55.7836
2022-07-18T02:00:00 15.67025 61.28639
2022-07-18T03:00:00 15.16025 64.99634
2022-07-18T04:00:00 14.57025 69.2459
2022-07-18T05:00:00 16.55025 63.14206
2022-07-18T06:00:00 19.83025 51.16479
2022-07-18T07:00:00 23.07025 40.0265
2022-07-18T08:00:00 25.73025 33.59738
2022-07-18T09:00:00 28.18024 30.46532
2022-07-18T10:00:00 30.05025 29.29249
2022-07-18T11:00:00 31.83025 25.74745
2022-07-18T12:00:00 33.17025 22.37865
2022-07-18T13:00:00 34.22025 20.71232
2022-07-18T14:00:00 34.92025 19.46193
2022-07-18T15:00:00 35.35025 18.5275
2022-07-18T16:00:00 35.18025 18.16019
2022-07-18T17:00:00 34.64025 18.30773
2022-07-18T18:00:00 33.34025 16.32981
2022-07-18T19:00:00 30.31025 22.33122
2022-07-18T20:00:00 26.51024 31.79271
2022-07-18T21:00:00 23.84025 39.76005
2022-07-18T22:00:00 21.90025 48.15356
2022-07-18T23:00:00 20.73025 51.78759
2022-07-19T00:00:00 19.50025 56.12864
2022-07-19T01:00:00 18.31025 59.7548
2022-07-19T02:00:00 17.40025 64.02109
2022-07-19T03:00:00 17.02025 66.38177
2022-07-19T04:00:00 16.60025 67.68337
2022-07-19T05:00:00 18.06025 63.10828
2022-07-19T06:00:00 21.44025 51.56219
2022-07-19T07:00:00 24.78025 40.67735
2022-07-19T08:00:00 27.72025 33.84281
2022-07-19T09:00:00 30.03025 29.62299
2022-07-19T10:00:00 31.92025 27.50322
2022-07-19T11:00:00 33.47025 24.97417
2022-07-19T12:00:00 34.75025 23.02845
2022-07-19T13:00:00 35.74025 21.51962
2022-07-19T14:00:00 36.47025 19.5467
2022-07-19T15:00:00 36.88025 18.67655
2022-07-19T16:00:00 36.93025 18.73905
2022-07-19T17:00:00 36.37025 17.88538
2022-07-19T18:00:00 34.71025 26.53147
2022-07-19T19:00:00 31.89025 27.18442
2022-07-19T20:00:00 28.21025 36.03103
2022-07-19T21:00:00 26.68024 40.2705
2022-07-19T22:00:00 25.49025 40.57956
2022-07-19T23:00:00 25.41025 40.58402
2022-07-20T00:00:00 24.74025 42.38686
2022-07-20T01:00:00 23.39025 46.88153
2022-07-20T02:00:00 22.57025 49.50974
2022-07-20T03:00:00 22.33025 53.4685
2022-07-20T04:00:00 22.04025 56.69313
2022-07-20T05:00:00 23.55025 53.11875
2022-07-20T06:00:00 25.85025 48.1446
2022-07-20T07:00:00 27.57025 46.28042
2022-07-20T08:00:00 28.82025 47.18631
2022-07-20T09:00:00 29.81025 45.12383
2022-07-20T10:00:00 29.92025 45.18222
2022-07-20T11:00:00 31.71025 40.15027
2022-07-20T12:00:00 32.95025 36.61588
2022-07-20T13:00:00 33.51025 34.64547
2022-07-20T14:00:00 31.96025 40.94204
2022-07-20T15:00:00 30.27025 45.6227
2022-07-20T16:00:00 29.03025 50.56496
2022-07-20T17:00:00 25.19025 67.29287
2022-07-20T18:00:00 21.43024 86.25707
2022-07-20T19:00:00 21.04025 87.47445
2022-07-20T20:00:00 20.98025 89.63276
2022-07-20T21:00:00 20.72025 91.14227
2022-07-20T22:00:00 19.93024 91.78458
2022-07-20T23:00:00 19.82025 92.4156
2022-07-21T00:00:00 19.63025 93.87046
2022-07-21T01:00:00 19.06025 95.81945
2022-07-21T02:00:00 18.72025 95.56828
2022-07-21T03:00:00 18.65025 94.4846
2022-07-21T04:00:00 18.30025 94.59106
2022-07-21T05:00:00 18.59025 92.76157
2022-07-21T06:00:00 20.06025 86.45545
2022-07-21T07:00:00 21.32025 78.81179
2022-07-21T08:00:00 22.81025 66.38712
2022-07-21T09:00:00 24.21025 57.22689
2022-07-21T10:00:00 25.56025 50.27492
2022-07-21T11:00:00 26.75025 45.90861
2022-07-21T12:00:00 27.52025 43.16149
2022-07-21T13:00:00 28.16025 40.20816
2022-07-21T14:00:00 28.65025 38.7165
2022-07-21T15:00:00 28.94025 37.79419
2022-07-21T16:00:00 29.28025 37.24947
2022-07-21T17:00:00 29.01024 37.34524
2022-07-21T18:00:00 27.87025 42.22808
2022-07-21T19:00:00 25.71025 46.74414
2022-07-21T20:00:00 22.21025 60.24995
2022-07-21T21:00:00 20.66025 66.84454
2022-07-21T22:00:00 18.73025 78.69302
2022-07-21T23:00:00 18.03025 81.76366
2022-07-22T00:00:00 17.22025 85.40373
2022-07-22T01:00:00 16.80025 86.86941
2022-07-22T02:00:00 16.53025 87.86503
2022-07-22T03:00:00 16.19025 90.14791
2022-07-22T04:00:00 15.84025 91.47974
2022-07-22T05:00:00 17.11025 87.80265
2022-07-22T06:00:00 19.39025 77.98103
2022-07-22T07:00:00 21.72025 67.45337
2022-07-22T08:00:00 24.01024 59.51025
2022-07-22T09:00:00 25.84025 54.29367
2022-07-22T10:00:00 27.69025 49.96169
2022-07-22T11:00:00 29.26024 45.75951
2022-07-22T12:00:00 30.62025 40.65339
2022-07-22T13:00:00 31.66025 37.69166
2022-07-22T14:00:00 32.44025 35.93966
2022-07-22T15:00:00 32.92025 34.86333
2022-07-22T16:00:00 33.23025 32.07066
2022-07-22T17:00:00 31.74025 32.14287
2022-07-22T18:00:00 30.08025 41.24234
2022-07-22T19:00:00 30.13025 31.25713
2022-07-22T20:00:00 28.56025 35.60709
2022-07-22T21:00:00 25.84025 46.14124
2022-07-22T22:00:00 25.00025 55.49553
2022-07-22T23:00:00 22.68024 66.40279
2022-07-23T00:00:00 20.95025 78.35976
2022-07-23T01:00:00 20.45025 80.36121
2022-07-23T02:00:00 19.66025 86.41785
2022-07-23T03:00:00 19.22025 92.91066
2022-07-23T04:00:00 19.42025 92.04558
2022-07-23T05:00:00 19.33025 94.03542
2022-07-23T06:00:00 20.00025 93.35753
2022-07-23T07:00:00 21.06025 88.85687
2022-07-23T08:00:00 22.20025 82.22376
2022-07-23T09:00:00 23.51024 73.80513
2022-07-23T10:00:00 24.59025 69.27821
2022-07-23T11:00:00 25.57025 66.98943
2022-07-23T12:00:00 26.71025 62.83759
2022-07-23T13:00:00 27.64025 57.28582
2022-07-23T14:00:00 28.43024 52.86376
2022-07-23T15:00:00 29.24025 46.4611
2022-07-23T16:00:00 29.26024 44.80287
2022-07-23T17:00:00 28.71025 44.82656
2022-07-23T18:00:00 27.71025 50.93375
2022-07-23T19:00:00 25.74025 58.33481
2022-07-23T20:00:00 23.90025 65.31108
2022-07-23T21:00:00 23.54025 64.98597
2022-07-23T22:00:00 22.49025 64.55383
2022-07-23T23:00:00 22.25025 64.25269
2022-07-24T00:00:00 21.50025 68.59238
2022-07-24T01:00:00 20.62025 72.84242
2022-07-24T02:00:00 19.65025 77.17099
2022-07-24T03:00:00 18.68024 81.89867
2022-07-24T04:00:00 18.28025 84.1496
2022-07-24T05:00:00 18.60025 85.21775
2022-07-24T06:00:00 21.16025 73.40613
2022-07-24T07:00:00 23.34025 63.58563
2022-07-24T08:00:00 25.42025 55.84989
2022-07-24T09:00:00 27.18024 50.24577
2022-07-24T10:00:00 28.33025 48.43119
2022-07-24T11:00:00 29.45025 44.0849
2022-07-24T12:00:00 30.31025 39.91942
2022-07-24T13:00:00 31.10025 36.15187
2022-07-24T14:00:00 31.66025 33.62712
2022-07-24T15:00:00 32.18024 31.45068
2022-07-24T16:00:00 32.29025 30.68536
2022-07-24T17:00:00 32.01025 30.79048
2022-07-24T18:00:00 30.44025 35.89797
2022-07-24T19:00:00 26.61025 46.08011
2022-07-24T20:00:00 23.39025 57.92168
2022-07-24T21:00:00 21.78025 65.28132
2022-07-24T22:00:00 21.19025 65.62209
2022-07-24T23:00:00 21.04025 67.31474
2022-07-25T00:00:00 20.79025 70.01868
2022-07-25T01:00:00 19.86025 74.37167
2022-07-25T02:00:00 19.31025 78.27124
2022-07-25T03:00:00 18.57025 82.09615
2022-07-25T04:00:00 18.30025 82.64714
2022-07-25T05:00:00 19.44025 77.23829
2022-07-25T06:00:00 22.20025 67.98532
2022-07-25T07:00:00 25.23025 58.43736
2022-07-25T08:00:00 28.18024 48.92054
2022-07-25T09:00:00 30.48025 41.59166
2022-07-25T10:00:00 32.22025 35.23592
2022-07-25T11:00:00 33.66025 30.22204
2022-07-25T12:00:00 34.71025 25.78996
2022-07-25T13:00:00 34.64025 25.75447
2022-07-25T14:00:00 33.85025 29.74538
2022-07-25T15:00:00 33.42025 32.01872
2022-07-25T16:00:00 32.85025 32.23819
2022-07-25T17:00:00 31.52025 35.43148
2022-07-25T18:00:00 30.05025 36.33222
2022-07-25T19:00:00 28.82025 37.26748
2022-07-25T20:00:00 26.84025 42.74849
2022-07-25T21:00:00 25.56025 46.70333
2022-07-25T22:00:00 25.11025 41.29126
2022-07-25T23:00:00 24.61025 42.26554
2022-07-26T00:00:00 23.86025 46.26812
2022-07-26T01:00:00 22.25025 58.40281
2022-07-26T02:00:00 21.54025 65.44164
2022-07-26T03:00:00 20.94025 71.64478
2022-07-26T04:00:00 20.36025 74.98435
2022-07-26T05:00:00 20.18024 76.21794
2022-07-26T06:00:00 20.88025 70.76246
2022-07-26T07:00:00 21.81025 62.79798
2022-07-26T08:00:00 23.16025 54.39061
2022-07-26T09:00:00 24.38025 46.41125
2022-07-26T10:00:00 25.22025 43.63582
2022-07-26T11:00:00 26.23025 38.21335
2022-07-26T12:00:00 26.27025 36.20561
2022-07-26T13:00:00 27.00025 33.73011
2022-07-26T14:00:00 27.31025 32.36725
2022-07-26T15:00:00 27.29025 32.23051
2022-07-26T16:00:00 27.15025 31.58542
2022-07-26T17:00:00 26.50025 32.62275
2022-07-26T18:00:00 25.56025 32.77911
2022-07-26T19:00:00 24.24025 36.26326
2022-07-26T20:00:00 22.67025 40.02066
2022-07-26T21:00:00 21.71025 43.52498
2022-07-26T22:00:00 20.53025 51.73417
2022-07-26T23:00:00 19.88025 54.15627
2022-07-27T00:00:00 19.47025 55.8208
2022-07-27T01:00:00 18.90025 56.69545
2022-07-27T02:00:00 17.98025 61.17639
2022-07-27T03:00:00 17.72025 62.10752
2022-07-27T04:00:00 16.98025 64.27052
2022-07-27T05:00:00 17.18024 65.48992
2022-07-27T06:00:00 18.46025 64.34477
2022-07-27T07:00:00 20.42025 57.87904
2022-07-27T08:00:00 22.00025 52.61077
2022-07-27T09:00:00 23.75025 45.77883
2022-07-27T10:00:00 24.13025 42.52708
2022-07-27T11:00:00 25.10025 39.82424
2022-07-27T12:00:00 25.59025 38.39059
2022-07-27T13:00:00 26.13025 37.27565
2022-07-27T14:00:00 26.80025 35.65642
2022-07-27T15:00:00 26.87025 35.0591
2022-07-27T16:00:00 26.48025 35.68536
2022-07-27T17:00:00 25.71025 37.58326
2022-07-27T18:00:00 24.60025 39.76226
2022-07-27T19:00:00 23.04025 43.48975
2022-07-27T20:00:00 21.51024 49.05722
2022-07-27T21:00:00 20.24025 53.20635
2022-07-27T22:00:00 19.36025 56.47035
2022-07-27T23:00:00 18.45025 59.34939
2022-07-28T00:00:00 17.90025 60.46299
2022-07-28T01:00:00 16.53025 65.39052
2022-07-28T02:00:00 15.59025 68.57108
2022-07-28T03:00:00 15.02025 70.99579
2022-07-28T04:00:00 15.02025 70.56622
2022-07-28T05:00:00 15.26025 72.05258
2022-07-28T06:00:00 17.66025 59.11559
2022-07-28T07:00:00 20.00025 50.90043
2022-07-28T08:00:00 22.15025 45.14993
2022-07-28T09:00:00 23.91025 42.6076
2022-07-28T10:00:00 25.90025 39.28398
2022-07-28T11:00:00 27.60025 35.83508
2022-07-28T12:00:00 29.24025 31.44903
2022-07-28T13:00:00 30.15025 28.35095
2022-07-28T14:00:00 30.75025 27.05819
2022-07-28T15:00:00 30.86025 26.10012
2022-07-28T16:00:00 30.78025 25.17406
2022-07-28T17:00:00 29.89025 27.59974
2022-07-28T18:00:00 28.09025 38.83984
2022-07-28T19:00:00 26.59025 38.16243
2022-07-28T20:00:00 24.33025 47.70244
2022-07-28T21:00:00 23.28025 52.90991
2022-07-28T22:00:00 21.50025 67.32166
2022-07-28T23:00:00 20.33025 72.93208
2022-07-29T00:00:00 19.91025 74.14043
2022-07-29T01:00:00 19.26024 75.09283
2022-07-29T02:00:00 18.78025 77.33687
2022-07-29T03:00:00 18.58025 78.97737
2022-07-29T04:00:00 18.46025 78.75568
2022-07-29T05:00:00 19.23025 73.92791
2022-07-29T06:00:00 20.40025 65.92506
2022-07-29T07:00:00 21.40025 60.45362
2022-07-29T08:00:00 22.28025 59.95345
2022-07-29T09:00:00 23.64025 54.79763
2022-07-29T10:00:00 25.55025 46.4564
2022-07-29T11:00:00 26.96025 39.63556
2022-07-29T12:00:00 26.79025 38.04137
2022-07-29T13:00:00 26.27025 38.76404
2022-07-29T14:00:00 25.52025 42.18407
2022-07-29T15:00:00 25.85025 42.05322
2022-07-29T16:00:00 26.16025 40.79546
2022-07-29T17:00:00 26.24025 38.88495
2022-07-29T18:00:00 25.82025 38.40447
2022-07-29T19:00:00 22.81025 48.3382
2022-07-29T20:00:00 21.57025 53.12952
2022-07-29T21:00:00 21.06025 56.63531
2022-07-29T22:00:00 19.00025 60.16217
2022-07-29T23:00:00 18.29025 62.65743
2022-07-30T00:00:00 17.92025 64.09555
2022-07-30T01:00:00 17.44025 66.38352
2022-07-30T02:00:00 16.56025 70.25619
2022-07-30T03:00:00 15.84025 73.32791
2022-07-30T04:00:00 15.43025 76.29874
2022-07-30T05:00:00 16.51025 72.23917
2022-07-30T06:00:00 19.02025 65.45637
2022-07-30T07:00:00 21.49025 59.22046
2022-07-30T08:00:00 23.95025 51.37576
2022-07-30T09:00:00 25.86025 43.09738
2022-07-30T10:00:00 26.76024 37.50435
2022-07-30T11:00:00 27.51024 33.62495
2022-07-30T12:00:00 28.17025 32.02291
2022-07-30T13:00:00 28.53025 30.50122
2022-07-30T14:00:00 28.96025 28.91305
2022-07-30T15:00:00 29.16025 27.98394
2022-07-30T16:00:00 28.87025 28.69285
2022-07-30T17:00:00 28.42025 28.95993
2022-07-30T18:00:00 27.40025 35.30355
2022-07-30T19:00:00 25.99025 36.93698
2022-07-30T20:00:00 24.78025 39.81348
2022-07-30T21:00:00 22.66025 46.46182
2022-07-30T22:00:00 21.41025 53.44173
2022-07-30T23:00:00 20.29025 57.57876
2022-07-31T00:00:00 19.87025 58.39981
2022-07-31T01:00:00 19.36025 60.69064
2022-07-31T02:00:00 17.76024 65.83582
2022-07-31T03:00:00 16.22025 74.2307
2022-07-31T04:00:00 15.67025 77.15408
2022-07-31T05:00:00 16.65025 73.91342
2022-07-31T06:00:00 19.85025 61.49421
2022-07-31T07:00:00 22.88025 51.77227
2022-07-31T08:00:00 25.45025 44.66216
2022-07-31T09:00:00 27.45025 39.09683
2022-07-31T10:00:00 28.55025 34.94898
2022-07-31T11:00:00 29.39025 33.01741
2022-07-31T12:00:00 29.66025 32.76502
2022-07-31T13:00:00 30.64025 29.69197
2022-07-31T14:00:00 31.01024 27.71859
2022-07-31T15:00:00 31.78025 25.97789
2022-07-31T16:00:00 31.81025 25.22645
2022-07-31T17:00:00 31.53025 25.03305
2022-07-31T18:00:00 30.36025 26.91593
2022-07-31T19:00:00 26.90025 37.02192
2022-07-31T20:00:00 24.45025 44.03194
2022-07-31T21:00:00 23.09025 48.15786
2022-07-31T22:00:00 21.33025 52.67954
2022-07-31T23:00:00 22.35025 48.66529
2022-08-01T00:00:00 21.14025 52.62949
2022-08-01T01:00:00 19.02025 61.29969
2022-08-01T02:00:00 17.28025 68.00649
2022-08-01T03:00:00 16.33025 72.68781
2022-08-01T04:00:00 15.57025 75.86598
2022-08-01T05:00:00 16.93024 71.08058
2022-08-01T06:00:00 20.18024 59.45269
2022-08-01T07:00:00 23.07025 51.68589
2022-08-01T08:00:00 25.61025 46.01798
2022-08-01T09:00:00 27.49025 40.47095
2022-08-01T10:00:00 29.14025 36.24451
2022-08-01T11:00:00 30.05025 32.44103
2022-08-01T12:00:00 30.70025 29.72832
2022-08-01T13:00:00 31.28025 28.3745
2022-08-01T14:00:00 31.38025 28.17499
2022-08-01T15:00:00 31.10025 29.44381
2022-08-01T16:00:00 28.41025 40.27784
2022-08-01T17:00:00 26.45025 48.80858
2022-08-01T18:00:00 25.23025 54.77176
2022-08-01T19:00:00 24.22025 60.36742
2022-08-01T20:00:00 23.00025 66.42629
2022-08-01T21:00:00 22.00025 74.72816
2022-08-01T22:00:00 19.79025 82.08902
2022-08-01T23:00:00 19.59025 82.37971
2022-08-02T00:00:00 19.40025 83.04427
2022-08-02T01:00:00 18.73025 84.68687
2022-08-02T02:00:00 18.34025 86.56867
2022-08-02T03:00:00 17.99025 88.27525
2022-08-02T04:00:00 17.37025 89.94338
2022-08-02T05:00:00 17.20025 91.38886
2022-08-02T06:00:00 18.88025 85.62926
2022-08-02T07:00:00 20.84025 76.37052
2022-08-02T08:00:00 23.23025 65.50415
2022-08-02T09:00:00 24.94025 58.85613
2022-08-02T10:00:00 26.38025 51.7744
2022-08-02T11:00:00 28.03025 45.66266
2022-08-02T12:00:00 29.07025 40.88401
2022-08-02T13:00:00 30.02025 36.87407
2022-08-02T14:00:00 30.67025 33.50639
2022-08-02T15:00:00 31.07025 31.02124
2022-08-02T16:00:00 30.96025 30.29952
2022-08-02T17:00:00 30.43024 30.31464
2022-08-02T18:00:00 29.24025 28.54273
2022-08-02T19:00:00 25.54025 41.71626
2022-08-02T20:00:00 22.58025 52.07039
2022-08-02T21:00:00 20.95025 58.97384
2022-08-02T22:00:00 19.56025 66.22235
2022-08-02T23:00:00 19.04025 68.63697
2022-08-03T00:00:00 19.59025 65.62265
2022-08-03T01:00:00 18.71025 69.25004
2022-08-03T02:00:00 17.86025 72.91856
2022-08-03T03:00:00 16.68024 79.4265
2022-08-03T04:00:00 15.76025 84.8026
2022-08-03T05:00:00 17.30025 81.08701
2022-08-03T06:00:00 20.84025 64.95256
2022-08-03T07:00:00 23.58025 56.19077
2022-08-03T08:00:00 26.16025 49.78461
2022-08-03T09:00:00 28.40025 44.39715
2022-08-03T10:00:00 30.27025 40.42658
2022-08-03T11:00:00 31.91025 36.39966
2022-08-03T12:00:00 32.97025 32.0202
2022-08-03T13:00:00 33.95025 28.72112
2022-08-03T14:00:00 34.37025 26.63377
2022-08-03T15:00:00 34.76025 24.48802
2022-08-03T16:00:00 34.72025 24.20245
2022-08-03T17:00:00 34.46025 23.60891
2022-08-03T18:00:00 32.95025 26.20308
2022-08-03T19:00:00 29.18024 32.26284
2022-08-03T20:00:00 28.40025 35.63293
2022-08-03T21:00:00 25.85025 43.75328
2022-08-03T22:00:00 24.12025 49.11214
2022-08-03T23:00:00 22.75025 54.25028
2022-08-04T00:00:00 21.63025 59.52628
2022-08-04T01:00:00 21.16025 61.95944
2022-08-04T02:00:00 20.67025 64.70425
2022-08-04T03:00:00 20.16025 68.14751
2022-08-04T04:00:00 19.62025 70.8003
2022-08-04T05:00:00 19.87025 72.09955
2022-08-04T06:00:00 22.94025 60.14745
2022-08-04T07:00:00 26.04025 50.17344
2022-08-04T08:00:00 29.03025 43.74477
2022-08-04T09:00:00 31.59025 37.30986
2022-08-04T10:00:00 33.54025 31.45398
2022-08-04T11:00:00 35.06025 26.92274
2022-08-04T12:00:00 36.06025 23.95861
2022-08-04T13:00:00 36.94025 21.57487
2022-08-04T14:00:00 37.38025 19.41213
2022-08-04T15:00:00 37.36025 18.90492
2022-08-04T16:00:00 37.02025 19.31258
2022-08-04T17:00:00 36.22025 20.04661
2022-08-04T18:00:00 33.66025 35.24676
2022-08-04T19:00:00 31.00025 30.94036
2022-08-04T20:00:00 28.71025 37.26117
2022-08-04T21:00:00 27.58025 40.70942
2022-08-04T22:00:00 26.15025 46.46786
2022-08-04T23:00:00 25.26024 49.93503
2022-08-05T00:00:00 25.37025 48.9334
2022-08-05T01:00:00 24.58025 51.20591
2022-08-05T02:00:00 23.39025 57.02656
2022-08-05T03:00:00 22.79025 61.56943
2022-08-05T04:00:00 22.26024 65.29923
2022-08-05T05:00:00 22.47025 66.57264
2022-08-05T06:00:00 23.98025 61.91855
2022-08-05T07:00:00 25.83025 54.85119
2022-08-05T08:00:00 27.13025 50.32953
2022-08-05T09:00:00 28.73025 46.2059
2022-08-05T10:00:00 30.80025 40.28687
2022-08-05T11:00:00 31.70025 37.67846
2022-08-05T12:00:00 32.48025 34.98996
2022-08-05T13:00:00 33.11025 32.9659
2022-08-05T14:00:00 33.46025 32.44755
2022-08-05T15:00:00 31.45025 39.59429
2022-08-05T16:00:00 31.60025 38.18773
2022-08-05T17:00:00 29.38025 45.03673
2022-08-05T18:00:00 26.65025 53.87383
2022-08-05T19:00:00 25.26024 58.2581
2022-08-05T20:00:00 24.41025 58.12981
2022-08-05T21:00:00 23.03025 63.39536
2022-08-05T22:00:00 20.41025 87.14521
2022-08-05T23:00:00 20.36025 85.34347
2022-08-06T00:00:00 20.11025 83.12687
2022-08-06T01:00:00 19.64025 80.25301
2022-08-06T02:00:00 19.23025 77.50575
2022-08-06T03:00:00 18.91025 73.96876
2022-08-06T04:00:00 18.68024 70.94616
2022-08-06T05:00:00 18.37025 69.09123
2022-08-06T06:00:00 18.49025 65.29773
2022-08-06T07:00:00 18.98025 62.02842
2022-08-06T08:00:00 19.68024 60.28491
2022-08-06T09:00:00 20.58025 57.99525
2022-08-06T10:00:00 21.56025 57.21055
2022-08-06T11:00:00 22.30025 55.79796
2022-08-06T12:00:00 23.77025 51.46325
2022-08-06T13:00:00 24.68024 48.46141
2022-08-06T14:00:00 25.18024 45.65896
2022-08-06T15:00:00 25.45025 43.84448
2022-08-06T16:00:00 25.54025 42.4422
2022-08-06T17:00:00 24.79025 43.83489
2022-08-06T18:00:00 23.80025 46.34382
2022-08-06T19:00:00 21.95025 50.47403
2022-08-06T20:00:00 20.78025 52.21896
2022-08-06T21:00:00 19.66025 52.83909
2022-08-06T22:00:00 19.00025 62.19815
2022-08-06T23:00:00 17.53025 62.98644
2022-08-07T00:00:00 16.90025 61.4977
2022-08-07T01:00:00 16.51025 59.84021
2022-08-07T02:00:00 15.75025 59.98018
2022-08-07T03:00:00 15.35025 60.21093
2022-08-07T04:00:00 15.01025 61.46313
2022-08-07T05:00:00 15.43025 61.94406
2022-08-07T06:00:00 17.09025 57.39333
2022-08-07T07:00:00 18.55025 55.32195
2022-08-07T08:00:00 20.18024 54.59855
2022-08-07T09:00:00 22.14025 53.84433
2022-08-07T10:00:00 23.95025 51.95079
2022-08-07T11:00:00 25.06025 49.65474
2022-08-07T12:00:00 25.73025 47.39571
2022-08-07T13:00:00 26.44025 44.75892
2022-08-07T14:00:00 27.05025 41.86275
2022-08-07T15:00:00 27.36025 39.87918
2022-08-07T16:00:00 27.20025 39.12993
2022-08-07T17:00:00 26.49025 40.56482
2022-08-07T18:00:00 25.21025 45.06919
2022-08-07T19:00:00 23.75025 45.44483
2022-08-07T20:00:00 22.29025 48.71392
2022-08-07T21:00:00 20.99025 51.92631
2022-08-07T22:00:00 17.84025 68.71138
2022-08-07T23:00:00 18.06025 66.0323
2022-08-08T00:00:00 17.38025 68.43559
2022-08-08T01:00:00 16.78025 69.73979
2022-08-08T02:00:00 15.25025 73.12232
2022-08-08T03:00:00 15.32025 74.22035
2022-08-08T04:00:00 14.51025 76.24816
2022-08-08T05:00:00 13.89025 79.068
2022-08-08T06:00:00 17.20025 68.08054
2022-08-08T07:00:00 19.92025 56.16036
2022-08-08T08:00:00 22.58025 47.16013
2022-08-08T09:00:00 24.66025 41.16407
2022-08-08T10:00:00 26.28025 38.40657
2022-08-08T11:00:00 27.75025 35.21402
2022-08-08T12:00:00 28.86025 32.2164
2022-08-08T13:00:00 29.62025 30.00979
2022-08-08T14:00:00 30.17025 28.45206
2022-08-08T15:00:00 30.38025 27.23263
2022-08-08T16:00:00 30.26024 27.55156
2022-08-08T17:00:00 29.51024 28.71396
2022-08-08T18:00:00 27.73025 35.27893
2022-08-08T19:00:00 25.04025 40.47934
2022-08-08T20:00:00 23.02025 47.50232
2022-08-08T21:00:00 21.61025 51.74514
2022-08-08T22:00:00 19.58025 58.36732
2022-08-08T23:00:00 17.96025 64.44747
2022-08-09T00:00:00 16.85025 67.6453
2022-08-09T01:00:00 15.85025 71.15711
2022-08-09T02:00:00 15.26025 74.01129
2022-08-09T03:00:00 14.75025 76.85189
2022-08-09T04:00:00 14.27025 79.28407
2022-08-09T05:00:00 14.95025 77.76186
2022-08-09T06:00:00 18.25025 65.1586
2022-08-09T07:00:00 21.14025 53.79922
2022-08-09T08:00:00 24.01024 44.14395
2022-08-09T09:00:00 26.40025 36.80608
2022-08-09T10:00:00 28.33025 31.34228
2022-08-09T11:00:00 29.47025 28.52884
2022-08-09T12:00:00 30.34025 26.45847
2022-08-09T13:00:00 31.02025 24.77917
2022-08-09T14:00:00 31.36025 24.10377
2022-08-09T15:00:00 31.34025 23.82083
2022-08-09T16:00:00 31.06025 23.79601
2022-08-09T17:00:00 30.33025 23.78306
2022-08-09T18:00:00 28.50025 27.46244
2022-08-09T19:00:00 25.14025 35.93207
2022-08-09T20:00:00 23.03025 42.21568
2022-08-09T21:00:00 21.31025 47.99113
2022-08-09T22:00:00 19.51024 54.71799
2022-08-09T23:00:00 18.52025 58.18288
2022-08-10T00:00:00 17.57025 61.44968
2022-08-10T01:00:00 16.75025 64.47839
2022-08-10T02:00:00 16.39025 65.62415
2022-08-10T03:00:00 15.81025 67.28941
2022-08-10T04:00:00 15.33025 68.37843
2022-08-10T05:00:00 15.85025 68.21062
2022-08-10T06:00:00 19.36025 55.41924
2022-08-10T07:00:00 22.14025 45.63664
2022-08-10T08:00:00 24.45025 38.53172
2022-08-10T09:00:00 26.13025 34.73123
2022-08-10T10:00:00 27.66025 31.26008
2022-08-10T11:00:00 28.87025 28.67339
2022-08-10T12:00:00 29.89025 26.39053
2022-08-10T13:00:00 30.48025 24.9744
2022-08-10T14:00:00 30.90025 23.81904
2022-08-10T15:00:00 30.98025 22.91093
2022-08-10T16:00:00 30.63025 22.56941
2022-08-10T17:00:00 29.96025 22.39534
2022-08-10T18:00:00 28.14025 25.31335
2022-08-10T19:00:00 24.60025 34.27059
2022-08-10T20:00:00 22.60025 40.05514
2022-08-10T21:00:00 20.70025 46.13331
2022-08-10T22:00:00 19.50025 50.42157
2022-08-10T23:00:00 18.29025 54.88125
2022-08-11T00:00:00 17.26024 58.34052
2022-08-11T01:00:00 16.12025 63.04226
2022-08-11T02:00:00 15.63025 64.53043
2022-08-11T03:00:00 14.88025 68.46967
2022-08-11T04:00:00 14.23025 71.75884
2022-08-11T05:00:00 14.53025 73.13733
2022-08-11T06:00:00 17.85025 60.81776
2022-08-11T07:00:00 20.90025 48.13727
2022-08-11T08:00:00 23.17025 41.21203
2022-08-11T09:00:00 25.17025 37.10227
2022-08-11T10:00:00 26.79025 34.01332
2022-08-11T11:00:00 28.26024 30.86097
2022-08-11T12:00:00 29.40025 28.08793
2022-08-11T13:00:00 30.38025 26.00622
2022-08-11T14:00:00 30.99025 24.61987
2022-08-11T15:00:00 31.22025 24.51359
2022-08-11T16:00:00 30.92025 25.40051
2022-08-11T17:00:00 30.22025 26.78701
2022-08-11T18:00:00 28.20025 32.85963
2022-08-11T19:00:00 25.52025 35.36397
2022-08-11T20:00:00 23.57025 40.66167
2022-08-11T21:00:00 21.54025 46.74573
2022-08-11T22:00:00 19.90025 53.25972
2022-08-11T23:00:00 18.84025 57.33159
2022-08-12T00:00:00 17.58025 62.57681
2022-08-12T01:00:00 16.70025 65.07722
2022-08-12T02:00:00 15.94025 66.77492
2022-08-12T03:00:00 15.30025 68.55716
2022-08-12T04:00:00 14.58025 70.62221
2022-08-12T05:00:00 14.87025 70.91856
2022-08-12T06:00:00 18.45025 57.19476
2022-08-12T07:00:00 21.65025 45.34567
2022-08-12T08:00:00 24.10025 37.12296
2022-08-12T09:00:00 26.24025 31.71627
2022-08-12T10:00:00 27.64025 29.58007
2022-08-12T11:00:00 28.60025 27.41485
2022-08-12T12:00:00 29.63025 25.21024
2022-08-12T13:00:00 30.18024 23.59689
2022-08-12T14:00:00 30.57025 22.1216
2022-08-12T15:00:00 30.62025 21.33619
2022-08-12T16:00:00 30.26024 21.58706
2022-08-12T17:00:00 29.48025 22.47301
2022-08-12T18:00:00 27.45025 28.82847
2022-08-12T19:00:00 23.88025 36.234
2022-08-12T20:00:00 22.12025 40.66083
2022-08-12T21:00:00 20.20025 45.64826
2022-08-12T22:00:00 18.73025 51.07471
2022-08-12T23:00:00 17.83025 54.27826
2022-08-13T00:00:00 16.58025 59.1289
2022-08-13T01:00:00 15.70025 61.54506
2022-08-13T02:00:00 14.97025 64.95345
2022-08-13T03:00:00 14.07025 68.3928
2022-08-13T04:00:00 13.81025 70.4688
2022-08-13T05:00:00 13.91025 72.52903
2022-08-13T06:00:00 17.56025 58.6531
2022-08-13T07:00:00 20.31025 48.69489
2022-08-13T08:00:00 22.56025 43.12026
2022-08-13T09:00:00 24.62025 39.47471
2022-08-13T10:00:00 26.31025 36.8546
2022-08-13T11:00:00 27.82025 33.19605
2022-08-13T12:00:00 29.06025 29.75393
2022-08-13T13:00:00 30.07025 26.76446
2022-08-13T14:00:00 30.73025 24.50064
2022-08-13T15:00:00 31.10025 23.02103
2022-08-13T16:00:00 30.90025 22.28355
2022-08-13T17:00:00 30.32025 22.44226
2022-08-13T18:00:00 28.33025 25.68212
2022-08-13T19:00:00 24.56025 32.33714
2022-08-13T20:00:00 22.60025 37.14797
2022-08-13T21:00:00 20.77025 43.28651
2022-08-13T22:00:00 19.18024 47.78941
2022-08-13T23:00:00 17.85025 52.35462
2022-08-14T00:00:00 17.36025 53.63765
2022-08-14T01:00:00 15.96025 60.36056
2022-08-14T02:00:00 14.80025 65.76164
2022-08-14T03:00:00 14.63025 66.67162
2022-08-14T04:00:00 13.99025 69.50419
2022-08-14T05:00:00 13.83025 72.0722
2022-08-14T06:00:00 16.94025 61.29972
2022-08-14T07:00:00 20.12025 50.62439
2022-08-14T08:00:00 22.51024 45.80149
2022-08-14T09:00:00 24.46025 41.77378
2022-08-14T10:00:00 26.25025 39.46167
2022-08-14T11:00:00 26.89025 37.59119
2022-08-14T12:00:00 27.59025 36.11994
2022-08-14T13:00:00 27.42025 36.09597
2022-08-14T14:00:00 27.03025 37.40601
2022-08-14T15:00:00 26.74025 39.23397
2022-08-14T16:00:00 26.51024 42.32121
2022-08-14T17:00:00 25.45025 48.57317
2022-08-14T18:00:00 24.53025 54.41942
2022-08-14T19:00:00 23.42025 60.4151
2022-08-14T20:00:00 23.02025 61.74125
2022-08-14T21:00:00 21.80025 64.82274
2022-08-14T22:00:00 19.96025 71.4646
2022-08-14T23:00:00 18.41025 80.65755
2022-08-15T00:00:00 17.29025 88.10229
2022-08-15T01:00:00 16.73025 91.47702
2022-08-15T02:00:00 16.30025 93.72308
2022-08-15T03:00:00 16.16025 94.44533
2022-08-15T04:00:00 15.89025 95.35393
2022-08-15T05:00:00 16.05025 92.80641
2022-08-15T06:00:00 17.73025 86.56596
2022-08-15T07:00:00 19.50025 77.54668
2022-08-15T08:00:00 21.48025 68.58843
2022-08-15T09:00:00 23.25025 60.21985
2022-08-15T10:00:00 24.68024 56.71724
2022-08-15T11:00:00 24.93024 54.4499
2022-08-15T12:00:00 24.95025 52.85828
2022-08-15T13:00:00 23.28025 55.13692
2022-08-15T14:00:00 22.87025 54.96128
2022-08-15T15:00:00 23.94025 50.77035
2022-08-15T16:00:00 23.93024 49.32027
2022-08-15T17:00:00 23.49025 51.62648
2022-08-15T18:00:00 22.47025 57.09784
2022-08-15T19:00:00 20.98025 65.06747
2022-08-15T20:00:00 20.02025 71.05988
2022-08-15T21:00:00 18.90025 76.90575
2022-08-15T22:00:00 18.55025 80.52011
2022-08-15T23:00:00 18.26024 81.79288
2022-08-16T00:00:00 17.63025 83.80502
2022-08-16T01:00:00 17.01024 84.88428
2022-08-16T02:00:00 15.98025 90.07393
2022-08-16T03:00:00 15.70025 91.76851
2022-08-16T04:00:00 15.19025 92.69881
2022-08-16T05:00:00 15.28025 91.86198
2022-08-16T06:00:00 17.56025 83.68849
2022-08-16T07:00:00 19.93024 71.18148
2022-08-16T08:00:00 22.08025 62.24997
2022-08-16T09:00:00 24.17025 53.97636
2022-08-16T10:00:00 25.97025 47.58445
2022-08-16T11:00:00 27.29025 41.27446
2022-08-16T12:00:00 28.41025 37.15244
2022-08-16T13:00:00 29.32025 33.5061
2022-08-16T14:00:00 30.09025 30.99719
2022-08-16T15:00:00 30.39025 29.96164
2022-08-16T16:00:00 30.56025 29.17807
2022-08-16T17:00:00 29.95025 29.7203
2022-08-16T18:00:00 27.27025 37.57357
2022-08-16T19:00:00 23.46025 47.62285
2022-08-16T20:00:00 22.02025 52.19907
2022-08-16T21:00:00 20.59025 56.66762
2022-08-16T22:00:00 19.41025 66.45191
2022-08-16T23:00:00 18.81025 70.55376
2022-08-17T00:00:00 18.84025 72.33496
2022-08-17T01:00:00 19.43024 69.80152
2022-08-17T02:00:00 19.14025 72.6256
2022-08-17T03:00:00 18.48025 77.29067
2022-08-17T04:00:00 18.22025 77.85589
2022-08-17T05:00:00 18.42025 78.24075
2022-08-17T06:00:00 19.67025 73.09876
2022-08-17T07:00:00 21.48025 65.13271
2022-08-17T08:00:00 22.54025 61.59201
2022-08-17T09:00:00 24.12025 54.98999
2022-08-17T10:00:00 24.69025 58.68408
2022-08-17T11:00:00 26.07025 50.73589
2022-08-17T12:00:00 27.73025 43.58653
2022-08-17T13:00:00 28.94025 40.11063
2022-08-17T14:00:00 28.78025 40.51251
2022-08-17T15:00:00 28.02025 41.72201
2022-08-17T16:00:00 26.70025 42.90637
2022-08-17T17:00:00 25.38025 48.87228
2022-08-17T18:00:00 23.57025 60.72297
2022-08-17T19:00:00 22.29025 61.61467
2022-08-17T20:00:00 20.56025 68.05117
2022-08-17T21:00:00 20.18024 68.95437
2022-08-17T22:00:00 18.33025 94.5922
2022-08-17T23:00:00 18.06025 95.5481
2022-08-18T00:00:00 18.28025 93.93211
2022-08-18T01:00:00 17.92025 93.8568
2022-08-18T02:00:00 17.75025 95.11366
2022-08-18T03:00:00 17.53025 95.04535
2022-08-18T04:00:00 17.75025 94.44952
2022-08-18T05:00:00 17.34025 96.75194
2022-08-18T06:00:00 17.68024 96.20741
2022-08-18T07:00:00 18.38025 92.45647
2022-08-18T08:00:00 19.06025 87.02408
2022-08-18T09:00:00 20.17025 79.86387
2022-08-18T10:00:00 19.51024 88.6249
2022-08-18T11:00:00 20.71025 82.51403
2022-08-18T12:00:00 21.11025 81.731
2022-08-18T13:00:00 21.01024 82.39317
2022-08-18T14:00:00 21.45025 81.25862
2022-08-18T15:00:00 21.37025 83.27079
2022-08-18T16:00:00 20.98025 85.29804
2022-08-18T17:00:00 20.23025 92.72682
2022-08-18T18:00:00 19.45025 97.34441
2022-08-18T19:00:00 18.81025 99.87546
2022-08-18T20:00:00 18.64025 100.0645
2022-08-18T21:00:00 18.50025 99.87642
2022-08-18T22:00:00 18.87025 96.60246
2022-08-18T23:00:00 18.76024 96.60001
2022-08-19T00:00:00 18.36025 98.19087
2022-08-19T01:00:00 18.14025 98.6863
2022-08-19T02:00:00 18.15025 98.18864
2022-08-19T03:00:00 18.21025 97.94138
2022-08-19T04:00:00 18.29025 98.00427
2022-08-19T05:00:00 18.41025 96.95916
2022-08-19T06:00:00 18.53025 96.16861
2022-08-19T07:00:00 18.54025 95.50239
2022-08-19T08:00:00 18.91025 94.19655
2022-08-19T09:00:00 19.75025 90.91117
2022-08-19T10:00:00 21.24025 77.36247
2022-08-19T11:00:00 21.97025 73.26489
2022-08-19T12:00:00 22.53025 71.24934
2022-08-19T13:00:00 22.82025 70.268
2022-08-19T14:00:00 22.87025 68.64175
2022-08-19T15:00:00 22.67025 68.69027
2022-08-19T16:00:00 22.69025 69.48727
2022-08-19T17:00:00 22.38025 71.17661
2022-08-19T18:00:00 21.64025 74.05319
2022-08-19T19:00:00 20.55025 77.50587
2022-08-19T20:00:00 19.68024 81.03279
2022-08-19T21:00:00 18.73025 84.90426
2022-08-19T22:00:00 18.15025 91.97407
2022-08-19T23:00:00 17.86025 92.84224
2022-08-20T00:00:00 17.95025 92.84687
2022-08-20T01:00:00 17.66025 95.04992
2022-08-20T02:00:00 18.02025 94.88149
2022-08-20T03:00:00 17.96025 96.21475
2022-08-20T04:00:00 18.11025 96.89175
2022-08-20T05:00:00 17.94025 97.5045
2022-08-20T06:00:00 18.04025 96.8289
2022-08-20T07:00:00 18.29025 96.65057
2022-08-20T08:00:00 19.00025 92.48937
2022-08-20T09:00:00 19.68024 88.97544
2022-08-20T10:00:00 21.39025 83.43038
2022-08-20T11:00:00 21.97025 81.0685
2022-08-20T12:00:00 23.22025 72.74046
2022-08-20T13:00:00 23.60025 67.18731
2022-08-20T14:00:00 24.07025 64.64406
2022-08-20T15:00:00 24.17025 66.70785
2022-08-20T16:00:00 24.31025 64.77728
2022-08-20T17:00:00 23.72025 65.48154
2022-08-20T18:00:00 22.63025 68.41979
2022-08-20T19:00:00 21.84025 69.36827
2022-08-20T20:00:00 20.01024 75.79995
2022-08-20T21:00:00 18.33025 83.50751
2022-08-20T22:00:00 15.89025 96.21961
2022-08-20T23:00:00 15.00025 96.44376
2022-08-21T00:00:00 14.44025 96.8059
2022-08-21T01:00:00 14.05025 95.59904
2022-08-21T02:00:00 13.99025 94.41276
2022-08-21T03:00:00 14.24025 94.79576
2022-08-21T04:00:00 14.33025 93.5659
2022-08-21T05:00:00 14.40025 93.20229
2022-08-21T06:00:00 15.22025 93.00295
2022-08-21T07:00:00 16.91025 90.90077
2022-08-21T08:00:00 18.85025 84.75398
2022-08-21T09:00:00 20.83025 77.0055
2022-08-21T10:00:00 22.56025 67.8397
2022-08-21T11:00:00 23.94025 60.30263
2022-08-21T12:00:00 24.83025 54.63612
2022-08-21T13:00:00 25.32025 50.50629
2022-08-21T14:00:00 25.84025 45.27244
2022-08-21T15:00:00 26.28025 41.37328
2022-08-21T16:00:00 26.10025 40.9955
2022-08-21T17:00:00 24.95025 47.09114
2022-08-21T18:00:00 23.07025 54.94
2022-08-21T19:00:00 21.99025 53.41557
2022-08-21T20:00:00 20.63025 58.62458
2022-08-21T21:00:00 19.15025 67.27608
2022-08-21T22:00:00 18.78025 70.68681
2022-08-21T23:00:00 18.46025 72.17096
2022-08-22T00:00:00 16.92025 79.93076
2022-08-22T01:00:00 15.74025 87.33648
2022-08-22T02:00:00 15.21025 89.60511
2022-08-22T03:00:00 15.02025 90.29713
2022-08-22T04:00:00 14.66025 88.97472
2022-08-22T05:00:00 14.66025 88.39117
2022-08-22T06:00:00 16.94025 81.83688
2022-08-22T07:00:00 19.35025 71.63064
2022-08-22T08:00:00 21.36025 65.19149
2022-08-22T09:00:00 23.29025 59.03412
2022-08-22T10:00:00 24.59025 53.73363
2022-08-22T11:00:00 25.91025 47.04361
2022-08-22T12:00:00 26.42025 43.62395
2022-08-22T13:00:00 27.01024 40.36314
2022-08-22T14:00:00 27.02025 40.20643
2022-08-22T15:00:00 27.35025 39.5359
2022-08-22T16:00:00 27.12025 39.94348
2022-08-22T17:00:00 26.65025 38.84564
2022-08-22T18:00:00 23.87025 52.68261
2022-08-22T19:00:00 20.16025 69.53539
2022-08-22T20:00:00 18.78025 76.98679
2022-08-22T21:00:00 18.29025 80.43299
2022-08-22T22:00:00 16.69025 81.96534
2022-08-22T23:00:00 16.05025 86.9107
2022-08-23T00:00:00 15.52025 89.33723
2022-08-23T01:00:00 14.47025 92.41531
2022-08-23T02:00:00 13.94025 93.54593
2022-08-23T03:00:00 13.76025 94.09238
2022-08-23T04:00:00 13.78025 92.435
2022-08-23T05:00:00 13.84025 90.20875
2022-08-23T06:00:00 16.63025 80.46841
2022-08-23T07:00:00 19.67025 69.0331
2022-08-23T08:00:00 21.97025 60.50832
2022-08-23T09:00:00 23.99025 54.45948
2022-08-23T10:00:00 25.50025 50.29175
2022-08-23T11:00:00 26.89025 44.97025
2022-08-23T12:00:00 27.53025 41.99625
2022-08-23T13:00:00 28.19025 38.79128
2022-08-23T14:00:00 28.76024 35.97117
2022-08-23T15:00:00 28.80025 35.58027
2022-08-23T16:00:00 28.71025 36.79768
2022-08-23T17:00:00 27.96025 40.25779
2022-08-23T18:00:00 25.25025 50.42223
2022-08-23T19:00:00 24.32025 47.04327
2022-08-23T20:00:00 22.61025 53.82363
2022-08-23T21:00:00 19.62025 65.88821
2022-08-23T22:00:00 18.86025 69.64442
2022-08-23T23:00:00 18.04025 73.09477
2022-08-24T00:00:00 16.85025 78.05556
2022-08-24T01:00:00 15.43025 84.76592
2022-08-24T02:00:00 14.13025 90.11179
2022-08-24T03:00:00 13.89025 91.83441
2022-08-24T04:00:00 13.54025 91.99407
2022-08-24T05:00:00 13.54025 90.48502
2022-08-24T06:00:00 16.23025 81.05006
2022-08-24T07:00:00 19.50025 68.41538
2022-08-24T08:00:00 22.31025 58.45548
2022-08-24T09:00:00 24.64025 49.41322
2022-08-24T10:00:00 26.54025 44.20413
2022-08-24T11:00:00 28.21025 37.98823
2022-08-24T12:00:00 29.17025 33.75438
2022-08-24T13:00:00 29.86025 31.01608
2022-08-24T14:00:00 30.26024 29.42913
2022-08-24T15:00:00 30.40025 28.9394
2022-08-24T16:00:00 30.23025 28.9121
2022-08-24T17:00:00 29.22025 37.69928
2022-08-24T18:00:00 27.65025 37.93106
2022-08-24T19:00:00 23.00025 55.35509
2022-08-24T20:00:00 21.67025 59.53582
2022-08-24T21:00:00 20.35025 65.91443
2022-08-24T22:00:00 18.88025 71.68374
2022-08-24T23:00:00 17.91025 77.00105
2022-08-25T00:00:00 16.92025 81.30161
2022-08-25T01:00:00 15.96025 85.60556
2022-08-25T02:00:00 15.13025 88.66447
2022-08-25T03:00:00 14.71025 90.86839
2022-08-25T04:00:00 14.67025 90.98487
2022-08-25T05:00:00 14.80025 90.45866
2022-08-25T06:00:00 17.24025 83.10965
2022-08-25T07:00:00 20.15025 73.3251
2022-08-25T08:00:00 22.55025 63.24863
2022-08-25T09:00:00 24.32025 58.22053
2022-08-25T10:00:00 25.81025 54.81106
2022-08-25T11:00:00 27.24025 50.22921
2022-08-25T12:00:00 28.56025 45.51236
2022-08-25T13:00:00 29.42025 42.13566
2022-08-25T14:00:00 30.15025 38.98223
2022-08-25T15:00:00 30.56025 36.78432
2022-08-25T16:00:00 30.28025 37.45517
2022-08-25T17:00:00 29.43024 41.89436
2022-08-25T18:00:00 26.59025 51.2327
2022-08-25T19:00:00 25.90025 46.97953
2022-08-25T20:00:00 24.11025 53.43681
2022-08-25T21:00:00 21.84025 62.11472
2022-08-25T22:00:00 19.12025 73.86089
2022-08-25T23:00:00 17.91025 80.06877
2022-08-26T00:00:00 17.28025 82.79099
2022-08-26T01:00:00 16.95025 84.49247
2022-08-26T02:00:00 16.69025 85.96073
2022-08-26T03:00:00 16.30025 90.09751
2022-08-26T04:00:00 15.73025 92.42836
2022-08-26T05:00:00 15.71025 92.72772
2022-08-26T06:00:00 18.38025 83.08407
2022-08-26T07:00:00 20.84025 73.0218
2022-08-26T08:00:00 22.42025 69.52428
2022-08-26T09:00:00 23.66025 65.5107
2022-08-26T10:00:00 25.62025 55.68467
2022-08-26T11:00:00 26.85025 50.28869
2022-08-26T12:00:00 27.83025 47.9898
2022-08-26T13:00:00 28.13025 45.42527
2022-08-26T14:00:00 26.96025 51.03314
2022-08-26T15:00:00 26.34025 55.11852
2022-08-26T16:00:00 24.54025 64.70275
2022-08-26T17:00:00 23.59025 70.76803
2022-08-26T18:00:00 21.89025 78.79223
2022-08-26T19:00:00 20.84025 84.69468
2022-08-26T20:00:00 19.84025 89.94773
2022-08-26T21:00:00 19.25025 93.02949
2022-08-26T22:00:00 19.80025 81.4637
2022-08-26T23:00:00 18.98025 87.01679
2022-08-27T00:00:00 18.94025 87.5697
2022-08-27T01:00:00 19.17025 86.75742
2022-08-27T02:00:00 18.81025 88.39973
2022-08-27T03:00:00 18.88025 87.73206
2022-08-27T04:00:00 18.57025 88.77574
2022-08-27T05:00:00 18.75025 88.62048
2022-08-27T06:00:00 18.64025 90.66705
2022-08-27T07:00:00 19.05025 90.29228
2022-08-27T08:00:00 19.84025 87.70312
2022-08-27T09:00:00 20.45025 85.46043
2022-08-27T10:00:00 21.71025 79.86906
2022-08-27T11:00:00 22.47025 74.85227
2022-08-27T12:00:00 23.74025 68.76717
2022-08-27T13:00:00 24.33025 65.73367
2022-08-27T14:00:00 24.43024 63.33726
2022-08-27T15:00:00 24.08025 64.3588
2022-08-27T16:00:00 23.35025 69.34863
2022-08-27T17:00:00 21.54025 80.30144
2022-08-27T18:00:00 20.93024 84.70406
2022-08-27T19:00:00 19.26024 89.90701
2022-08-27T20:00:00 18.45025 91.8159
2022-08-27T21:00:00 18.10025 92.97289
2022-08-27T22:00:00 17.89025 89.75085
2022-08-27T23:00:00 17.26024 91.62771
2022-08-28T00:00:00 16.90025 92.97122
2022-08-28T01:00:00 17.37025 91.3409
2022-08-28T02:00:00 16.84025 92.37193
2022-08-28T03:00:00 16.87025 92.07685
2022-08-28T04:00:00 17.05025 93.03869
2022-08-28T05:00:00 16.22025 95.54996
2022-08-28T06:00:00 17.48025 92.17114
2022-08-28T07:00:00 18.45025 87.97558
2022-08-28T08:00:00 19.34025 84.37419
2022-08-28T09:00:00 20.76024 77.68581
2022-08-28T10:00:00 21.97025 72.15305
2022-08-28T11:00:00 23.43024 66.38762
2022-08-28T12:00:00 24.50025 62.39208
2022-08-28T13:00:00 25.54025 59.33614
2022-08-28T14:00:00 26.05025 57.30464
2022-08-28T15:00:00 25.83025 57.94903
2022-08-28T16:00:00 25.55025 59.717
2022-08-28T17:00:00 24.93024 61.50229
2022-08-28T18:00:00 23.52025 66.15279
2022-08-28T19:00:00 21.21025 76.62309
2022-08-28T20:00:00 19.98025 81.64254
2022-08-28T21:00:00 18.81025 85.62222
2022-08-28T22:00:00 17.70025 89.62174
2022-08-28T23:00:00 17.14025 89.81072
2022-08-29T00:00:00 16.83025 89.7876
2022-08-29T01:00:00 16.05025 91.19696
2022-08-29T02:00:00 15.66025 91.23047
2022-08-29T03:00:00 15.14025 92.09335
2022-08-29T04:00:00 14.44025 92.89954
2022-08-29T05:00:00 14.24025 93.74557
2022-08-29T06:00:00 16.62025 89.07724
2022-08-29T07:00:00 19.15025 79.82646
2022-08-29T08:00:00 21.21025 70.55141
2022-08-29T09:00:00 22.93024 65.77729
2022-08-29T10:00:00 24.14025 63.35465
2022-08-29T11:00:00 25.49025 60.42828
2022-08-29T12:00:00 26.79025 56.07829
2022-08-29T13:00:00 27.62025 51.92701
2022-08-29T14:00:00 28.24025 48.00636
2022-08-29T15:00:00 28.38025 45.63964
2022-08-29T16:00:00 28.43024 44.80827
2022-08-29T17:00:00 27.63025 46.14729
2022-08-29T18:00:00 24.61025 57.7309
2022-08-29T19:00:00 22.55025 62.96345
2022-08-29T20:00:00 20.83025 68.37077
2022-08-29T21:00:00 19.17025 75.71304
2022-08-29T22:00:00 18.20025 80.42082
2022-08-29T23:00:00 17.25025 85.02037
2022-08-30T00:00:00 16.82025 86.59
2022-08-30T01:00:00 16.17025 88.75199
2022-08-30T02:00:00 15.86025 90.12363
2022-08-30T03:00:00 15.19025 92.27674
2022-08-30T04:00:00 14.73025 93.40279
2022-08-30T05:00:00 14.97025 91.78263
2022-08-30T06:00:00 17.16025 85.28679
2022-08-30T07:00:00 19.65025 75.98663
2022-08-30T08:00:00 21.66025 69.19992
2022-08-30T09:00:00 23.16025 65.11336
2022-08-30T10:00:00 25.22025 62.23504
2022-08-30T11:00:00 26.79025 57.19134
2022-08-30T12:00:00 28.12025 52.58537
2022-08-30T13:00:00 28.46025 50.70688
2022-08-30T14:00:00 27.26024 55.41539
2022-08-30T15:00:00 26.31025 58.39531
2022-08-30T16:00:00 25.31025 58.56838
2022-08-30T17:00:00 24.11025 60.76917
2022-08-30T18:00:00 22.53025 68.75069
2022-08-30T19:00:00 21.82025 72.12627
2022-08-30T20:00:00 20.34025 82.46993
2022-08-30T21:00:00 20.01024 83.69872
2022-08-30T22:00:00 17.92025 95.48304
2022-08-30T23:00:00 17.69025 97.43848
2022-08-31T00:00:00 17.41025 97.9932
2022-08-31T01:00:00 17.41025 97.80637
2022-08-31T02:00:00 17.45025 97.74477
2022-08-31T03:00:00 17.55025 97.49806
2022-08-31T04:00:00 17.18024 97.99016
2022-08-31T05:00:00 16.83025 97.7352
2022-08-31T06:00:00 17.45025 96.13994
2022-08-31T07:00:00 18.15025 94.04601
2022-08-31T08:00:00 19.10025 87.97468
2022-08-31T09:00:00 19.90025 82.52227
2022-08-31T10:00:00 20.20025 76.56435
2022-08-31T11:00:00 21.41025 65.28682
2022-08-31T12:00:00 23.05025 57.72656
2022-08-31T13:00:00 23.65025 52.93642
2022-08-31T14:00:00 23.65025 51.33046
2022-08-31T15:00:00 23.58025 52.02433
2022-08-31T16:00:00 23.24025 53.73852
2022-08-31T17:00:00 22.73025 58.48059
2022-08-31T18:00:00 20.48025 67.28718
2022-08-31T19:00:00 20.28025 65.59882
2022-08-31T20:00:00 19.38025 70.89335
2022-08-31T21:00:00 18.23025 76.5011
2022-08-31T22:00:00 17.06025 80.36968
2022-08-31T23:00:00 15.95025 86.56119
2022-09-01T00:00:00 15.15025 89.6004
2022-09-01T01:00:00 14.95025 89.81987
2022-09-01T02:00:00 14.60025 90.26597
2022-09-01T03:00:00 14.04025 91.66277
2022-09-01T04:00:00 14.05025 91.36203
2022-09-01T05:00:00 14.10025 90.46677
2022-09-01T06:00:00 15.31025 87.92787
2022-09-01T07:00:00 16.82025 82.14275
2022-09-01T08:00:00 18.13025 75.14885
2022-09-01T09:00:00 19.53025 68.8252
2022-09-01T10:00:00 20.72025 65.56456
2022-09-01T11:00:00 22.01024 59.96787
2022-09-01T12:00:00 23.18024 55.25588
2022-09-01T13:00:00 23.89025 51.73147
2022-09-01T14:00:00 24.64025 48.41881
2022-09-01T15:00:00 24.50025 47.78009
2022-09-01T16:00:00 24.28025 47.90948
2022-09-01T17:00:00 23.43024 51.88274
2022-09-01T18:00:00 21.05025 60.13378
2022-09-01T19:00:00 18.82025 68.45747
2022-09-01T20:00:00 17.88025 71.96924
2022-09-01T21:00:00 16.23025 78.89207
2022-09-01T22:00:00 14.88025 84.3691
2022-09-01T23:00:00 14.03025 87.05785
2022-09-02T00:00:00 13.41025 89.10496
2022-09-02T01:00:00 12.69025 91.14703
2022-09-02T02:00:00 12.37025 91.85716
2022-09-02T03:00:00 11.84025 93.37141
2022-09-02T04:00:00 11.64025 93.29771
2022-09-02T05:00:00 11.40025 93.53483
2022-09-02T06:00:00 13.36025 87.45654
2022-09-02T07:00:00 16.05025 75.44371
2022-09-02T08:00:00 18.12025 64.65512
2022-09-02T09:00:00 19.58025 59.62388
2022-09-02T10:00:00 21.50025 57.42207
2022-09-02T11:00:00 22.87025 55.50363
2022-09-02T12:00:00 24.08025 52.87478
2022-09-02T13:00:00 24.65025 51.62647
2022-09-02T14:00:00 24.43024 51.83881
2022-09-02T15:00:00 23.88025 54.8939
2022-09-02T16:00:00 21.99025 62.35091
2022-09-02T17:00:00 20.64025 69.9447
2022-09-02T18:00:00 19.52025 75.62311
2022-09-02T19:00:00 17.89025 84.92407
2022-09-02T20:00:00 16.51025 90.81516
2022-09-02T21:00:00 16.10025 92.5093
2022-09-02T22:00:00 15.57025 94.29804
2022-09-02T23:00:00 15.21025 95.45345
2022-09-03T00:00:00 15.74025 95.10226
2022-09-03T01:00:00 15.84025 94.37083
2022-09-03T02:00:00 15.78025 94.85804
2022-09-03T03:00:00 15.90025 94.80144
2022-09-03T04:00:00 15.95025 94.98731
2022-09-03T05:00:00 16.19025 94.26396
2022-09-03T06:00:00 16.35025 93.90691
2022-09-03T07:00:00 17.94025 87.59367
2022-09-03T08:00:00 18.93024 81.87737
2022-09-03T09:00:00 19.06025 81.16041
2022-09-03T10:00:00 18.86025 81.13446
2022-09-03T11:00:00 19.55025 75.72572
2022-09-03T12:00:00 20.78025 69.70082
2022-09-03T13:00:00 22.00025 65.66631
2022-09-03T14:00:00 22.63025 62.17295
2022-09-03T15:00:00 22.03025 67.16979
2022-09-03T16:00:00 22.19025 66.04573
2022-09-03T17:00:00 21.90025 69.15772
2022-09-03T18:00:00 19.72025 82.23779
2022-09-03T19:00:00 17.78025 90.37763
2022-09-03T20:00:00 16.54025 94.52188
2022-09-03T21:00:00 16.58025 92.89468
2022-09-03T22:00:00 16.56025 93.49411
2022-09-03T23:00:00 15.95025 94.61981
2022-09-04T00:00:00 15.05025 96.00768
2022-09-04T01:00:00 14.28025 98.00926
2022-09-04T02:00:00 13.79025 98.70863
2022-09-04T03:00:00 13.48025 99.35379
2022-09-04T04:00:00 13.54025 98.89977
2022-09-04T05:00:00 13.29025 99.15697
2022-09-04T06:00:00 14.73025 95.93504
2022-09-04T07:00:00 16.75025 91.41931
2022-09-04T08:00:00 19.02025 85.31574
2022-09-04T09:00:00 21.28025 76.09909
2022-09-04T10:00:00 22.56025 72.39553
2022-09-04T11:00:00 24.30025 59.31115
2022-09-04T12:00:00 25.44025 48.16
2022-09-04T13:00:00 26.30025 42.62637
2022-09-04T14:00:00 26.68024 40.3505
2022-09-04T15:00:00 27.02025 38.53895
2022-09-04T16:00:00 26.81025 39.46241
2022-09-04T17:00:00 25.84025 49.31442
2022-09-04T18:00:00 24.60025 45.68007
2022-09-04T19:00:00 21.22025 59.23338
2022-09-04T20:00:00 18.55025 71.06115
2022-09-04T21:00:00 16.85025 79.86859
2022-09-04T22:00:00 16.73025 82.13133
2022-09-04T23:00:00 15.99025 85.44089
2022-09-05T00:00:00 15.48025 86.74178
2022-09-05T01:00:00 15.31025 86.15741
2022-09-05T02:00:00 14.96025 86.74759
2022-09-05T03:00:00 14.45025 87.73373
2022-09-05T04:00:00 14.00025 89.62708
2022-09-05T05:00:00 13.95025 90.27669
2022-09-05T06:00:00 15.23025 88.67297
2022-09-05T07:00:00 17.83025 79.17738
2022-09-05T08:00:00 19.38025 78.83781
2022-09-05T09:00:00 20.86025 74.01602
2022-09-05T10:00:00 22.99025 68.57777
2022-09-05T11:00:00 24.83025 62.46523
2022-09-05T12:00:00 25.97025 56.99418
2022-09-05T13:00:00 27.74025 50.45609
2022-09-05T14:00:00 28.23025 47.69717
2022-09-05T15:00:00 28.49025 46.20071
2022-09-05T16:00:00 28.52025 46.74549
2022-09-05T17:00:00 27.16025 53.14891
2022-09-05T18:00:00 23.39025 65.12042
2022-09-05T19:00:00 21.68024 70.41346
2022-09-05T20:00:00 20.80025 74.10082
2022-09-05T21:00:00 19.54025 80.91089
2022-09-05T22:00:00 19.58025 75.58402
2022-09-05T23:00:00 18.31025 81.69362
2022-09-06T00:00:00 17.95025 83.62531
2022-09-06T01:00:00 17.87025 85.25119
2022-09-06T02:00:00 17.78025 87.18597
2022-09-06T03:00:00 17.47025 90.00848
2022-09-06T04:00:00 17.21025 92.03748
2022-09-06T05:00:00 17.00025 93.81574
2022-09-06T06:00:00 18.11025 88.51186
2022-09-06T07:00:00 19.51024 84.55412
2022-09-06T08:00:00 20.83025 79.39629
2022-09-06T09:00:00 21.66025 80.67256
2022-09-06T10:00:00 22.55025 77.948
2022-09-06T11:00:00 22.70025 76.56052
2022-09-06T12:00:00 22.56025 76.53916
2022-09-06T13:00:00 22.42025 75.84443
2022-09-06T14:00:00 22.95025 72.69359
2022-09-06T15:00:00 23.22025 70.83451
2022-09-06T16:00:00 23.23025 71.01594
2022-09-06T17:00:00 22.79025 73.63773
2022-09-06T18:00:00 22.40025 71.77165
2022-09-06T19:00:00 19.01024 87.35294
2022-09-06T20:00:00 18.62025 88.72312
2022-09-06T21:00:00 18.35025 90.64777
2022-09-06T22:00:00 18.90025 88.57612
2022-09-06T23:00:00 17.97025 92.61142
2022-09-07T00:00:00 17.90025 92.66679
2022-09-07T01:00:00 17.90025 93.6767
2022-09-07T02:00:00 18.03025 94.28056
2022-09-07T03:00:00 18.24025 93.03907
2022-09-07T04:00:00 17.86025 93.79434
2022-09-07T05:00:00 17.42025 94.73845
2022-09-07T06:00:00 17.69025 93.54766
2022-09-07T07:00:00 19.44025 88.84431
2022-09-07T08:00:00 20.92025 84.703
2022-09-07T09:00:00 22.41025 79.16282
2022-09-07T10:00:00 24.38025 69.28195
2022-09-07T11:00:00 25.24025 62.67474
2022-09-07T12:00:00 25.77025 58.75161
2022-09-07T13:00:00 25.96025 57.57557
2022-09-07T14:00:00 26.11025 54.11815
2022-09-07T15:00:00 25.50025 56.22878
2022-09-07T16:00:00 23.69025 65.97756
2022-09-07T17:00:00 22.07025 73.65582
2022-09-07T18:00:00 19.97025 84.12089
2022-09-07T19:00:00 18.50025 91.35284
2022-09-07T20:00:00 18.09025 92.44086
2022-09-07T21:00:00 17.59025 97.56069
2022-09-07T22:00:00 16.60025 90.35286
2022-09-07T23:00:00 16.41025 92.46693
2022-09-08T00:00:00 16.44025 93.00723
2022-09-08T01:00:00 16.38025 94.1507
2022-09-08T02:00:00 16.37025 94.45407
2022-09-08T03:00:00 16.54025 93.73431
2022-09-08T04:00:00 16.36025 94.39282
2022-09-08T05:00:00 16.04025 94.01418
2022-09-08T06:00:00 15.97025 92.56194
2022-09-08T07:00:00 16.75025 87.71381
2022-09-08T08:00:00 17.95025 79.76286
2022-09-08T09:00:00 18.95025 73.0185
2022-09-08T10:00:00 20.01024 68.16162
2022-09-08T11:00:00 21.22025 59.00024
2022-09-08T12:00:00 21.55025 54.69702
2022-09-08T13:00:00 22.21025 49.70964
2022-09-08T14:00:00 22.89025 45.50934
2022-09-08T15:00:00 23.01024 43.21854
2022-09-08T16:00:00 22.80025 42.75306
2022-09-08T17:00:00 21.81025 49.76738
2022-09-08T18:00:00 18.80025 62.31737
2022-09-08T19:00:00 16.95025 72.46478
2022-09-08T20:00:00 16.21025 76.57854
2022-09-08T21:00:00 15.64025 78.96101
2022-09-08T22:00:00 15.84025 79.14751
2022-09-08T23:00:00 15.92025 78.482
2022-09-09T00:00:00 15.66025 81.72436
2022-09-09T01:00:00 15.56025 84.3913
2022-09-09T02:00:00 15.57025 86.18395
2022-09-09T03:00:00 15.80025 86.77306
2022-09-09T04:00:00 15.72025 86.93572
2022-09-09T05:00:00 15.54025 88.58338
2022-09-09T06:00:00 15.76025 88.65989
2022-09-09T07:00:00 16.87025 84.0449
2022-09-09T08:00:00 18.23025 73.5611
2022-09-09T09:00:00 18.95025 66.96935
2022-09-09T10:00:00 19.24025 62.33627
2022-09-09T11:00:00 20.36025 56.04757
2022-09-09T12:00:00 21.13025 51.58289
2022-09-09T13:00:00 21.36025 46.98027
2022-09-09T14:00:00 21.76024 45.31527
2022-09-09T15:00:00 21.24025 44.13675
2022-09-09T16:00:00 20.27025 49.98565
2022-09-09T17:00:00 19.15025 55.29064
2022-09-09T18:00:00 18.24025 59.33788
2022-09-09T19:00:00 17.35025 64.48332
2022-09-09T20:00:00 16.37025 68.87009
2022-09-09T21:00:00 15.95025 71.27173
2022-09-09T22:00:00 15.61025 80.8059
2022-09-09T23:00:00 15.20025 84.29456
2022-09-10T00:00:00 15.19025 84.85081
2022-09-10T01:00:00 15.01025 87.32497
2022-09-10T02:00:00 14.86025 89.16689
2022-09-10T03:00:00 14.81025 92.13351
2022-09-10T04:00:00 15.17025 91.31704
2022-09-10T05:00:00 15.01025 91.24672
2022-09-10T06:00:00 15.04025 89.70922
2022-09-10T07:00:00 15.47025 86.96854
2022-09-10T08:00:00 15.85025 84.70145
2022-09-10T09:00:00 16.54025 81.30454
2022-09-10T10:00:00 17.29025 73.92854
2022-09-10T11:00:00 17.88025 70.70011
2022-09-10T12:00:00 18.37025 66.93578
2022-09-10T13:00:00 19.01024 62.28315
2022-09-10T14:00:00 18.90025 61.63965
2022-09-10T15:00:00 18.81025 63.53193
2022-09-10T16:00:00 18.22025 66.68287
2022-09-10T17:00:00 17.70025 68.81967
2022-09-10T18:00:00 16.92025 72.17169
2022-09-10T19:00:00 16.57025 74.98377
2022-09-10T20:00:00 16.18025 78.4694
2022-09-10T21:00:00 15.79025 81.31164
2022-09-10T22:00:00 14.93025 87.25996
2022-09-10T23:00:00 14.30025 89.94684
2022-09-11T00:00:00 14.04025 91.06081
2022-09-11T01:00:00 14.36025 90.06999
2022-09-11T02:00:00 14.55025 88.38151
2022-09-11T03:00:00 14.07025 91.42357
2022-09-11T04:00:00 13.81025 92.43681
2022-09-11T05:00:00 13.66025 92.12325
2022-09-11T06:00:00 14.01025 91.23899
2022-09-11T07:00:00 15.76025 84.85824
2022-09-11T08:00:00 17.28025 78.53092
2022-09-11T09:00:00 18.51024 72.46422
2022-09-11T10:00:00 19.55025 68.73929
2022-09-11T11:00:00 20.58025 63.88616
2022-09-11T12:00:00 21.03025 61.36445
2022-09-11T13:00:00 21.93024 57.03926
2022-09-11T14:00:00 22.29025 54.5619
2022-09-11T15:00:00 22.39025 53.0622
2022-09-11T16:00:00 22.21025 53.54336
2022-09-11T17:00:00 21.11025 58.89612
2022-09-11T18:00:00 17.60025 73.30467
2022-09-11T19:00:00 15.74025 81.62719
2022-09-11T20:00:00 14.79025 85.14298
2022-09-11T21:00:00 14.07025 87.35061
2022-09-11T22:00:00 13.05025 90.99093
2022-09-11T23:00:00 12.11025 94.70312
2022-09-12T00:00:00 11.53025 96.01549
2022-09-12T01:00:00 10.81025 97.41754
2022-09-12T02:00:00 10.33025 97.86495
2022-09-12T03:00:00 10.26025 97.07521
2022-09-12T04:00:00 10.13025 96.7443
2022-09-12T05:00:00 10.30025 95.84036
2022-09-12T06:00:00 11.07025 94.21085
2022-09-12T07:00:00 13.91025 86.87297
2022-09-12T08:00:00 16.47025 79.55295
2022-09-12T09:00:00 18.60025 71.25722
2022-09-12T10:00:00 19.57025 69.14858
2022-09-12T11:00:00 21.55025 63.39592
2022-09-12T12:00:00 23.02025 58.24692
2022-09-12T13:00:00 24.27025 52.54585
2022-09-12T14:00:00 24.83025 49.3347
2022-09-12T15:00:00 25.07025 47.74632
2022-09-12T16:00:00 24.78025 48.42479
2022-09-12T17:00:00 22.88025 59.43578
2022-09-12T18:00:00 19.28025 72.46196
2022-09-12T19:00:00 17.12025 81.11599
2022-09-12T20:00:00 16.25025 84.96758
2022-09-12T21:00:00 15.40025 87.24731
2022-09-12T22:00:00 14.77025 89.9239
2022-09-12T23:00:00 14.52025 89.96379
2022-09-13T00:00:00 14.25025 89.94297
2022-09-13T01:00:00 13.68025 90.91534
2022-09-13T02:00:00 13.04025 92.69694
2022-09-13T03:00:00 12.79025 93.67183
2022-09-13T04:00:00 12.84025 92.13265
2022-09-13T05:00:00 13.14025 89.85582
2022-09-13T06:00:00 14.11025 86.14726
2022-09-13T07:00:00 16.99025 78.07684
2022-09-13T08:00:00 19.51024 71.33463
2022-09-13T09:00:00 21.91025 66.62835
2022-09-13T10:00:00 24.14025 60.93205
2022-09-13T11:00:00 26.04025 55.46817
2022-09-13T12:00:00 27.12025 51.40271
2022-09-13T13:00:00 27.67025 50.02041
2022-09-13T14:00:00 27.28025 50.92011
2022-09-13T15:00:00 27.13025 52.26699
2022-09-13T16:00:00 26.73025 54.89946
2022-09-13T17:00:00 26.23025 54.56563
2022-09-13T18:00:00 23.14025 67.30868
2022-09-13T19:00:00 22.54025 70.84434
2022-09-13T20:00:00 21.25025 80.26323
2022-09-13T21:00:00 21.13025 79.48801
2022-09-13T22:00:00 20.49025 85.08729
2022-09-13T23:00:00 20.50025 84.76621
2022-09-14T00:00:00 20.46025 84.01448
2022-09-14T01:00:00 20.31025 84.26464
2022-09-14T02:00:00 20.22025 85.32935
2022-09-14T03:00:00 20.00025 87.05373
2022-09-14T04:00:00 19.94025 87.3242
2022-09-14T05:00:00 19.67025 89.25642
2022-09-14T06:00:00 19.64025 89.93375
2022-09-14T07:00:00 20.91025 87.02505
2022-09-14T08:00:00 22.30025 80.14874
2022-09-14T09:00:00 23.18024 75.01428
2022-09-14T10:00:00 23.24025 73.20422
2022-09-14T11:00:00 23.58025 70.5876
2022-09-14T12:00:00 23.30025 70.31294
2022-09-14T13:00:00 22.21025 76.77611
2022-09-14T14:00:00 22.53025 77.40743
2022-09-14T15:00:00 22.86025 73.92926
2022-09-14T16:00:00 22.35025 77.18589
2022-09-14T17:00:00 21.51024 79.64058
2022-09-14T18:00:00 20.57025 82.60202
2022-09-14T19:00:00 19.72025 84.95398
2022-09-14T20:00:00 19.26024 85.94086
2022-09-14T21:00:00 19.04025 85.09998
2022-09-14T22:00:00 18.51024 88.43153
2022-09-14T23:00:00 18.38025 89.44353
2022-09-15T00:00:00 18.08025 90.10989
2022-09-15T01:00:00 18.08025 89.9372
2022-09-15T02:00:00 17.94025 88.66834
2022-09-15T03:00:00 17.42025 90.17853
2022-09-15T04:00:00 17.16025 91.9164
2022-09-15T05:00:00 16.98025 93.21452
2022-09-15T06:00:00 16.79025 95.07962
2022-09-15T07:00:00 17.30025 94.31081
2022-09-15T08:00:00 18.04025 92.2615
2022-09-15T09:00:00 18.57025 89.05936
2022-09-15T10:00:00 19.12025 85.59876
2022-09-15T11:00:00 19.19025 87.81463
2022-09-15T12:00:00 18.97025 89.88641
2022-09-15T13:00:00 18.51024 89.39626
2022-09-15T14:00:00 18.53025 90.89086
2022-09-15T15:00:00 19.01024 87.24168
2022-09-15T16:00:00 18.38025 84.86706
2022-09-15T17:00:00 18.35025 88.87171
2022-09-15T18:00:00 17.55025 88.63648
2022-09-15T19:00:00 16.95025 89.33405
2022-09-15T20:00:00 16.38025 92.10754
2022-09-15T21:00:00 16.41025 90.28083
2022-09-15T22:00:00 14.64025 96.55924
2022-09-15T23:00:00 14.41025 96.48984
2022-09-16T00:00:00 14.23025 95.41798
2022-09-16T01:00:00 14.03025 94.84917
2022-09-16T02:00:00 14.23025 94.11459
2022-09-16T03:00:00 14.45025 93.57197
2022-09-16T04:00:00 14.50025 93.02467
2022-09-16T05:00:00 14.69025 90.27271
2022-09-16T06:00:00 14.45025 92.05112
2022-09-16T07:00:00 15.21025 88.55515
2022-09-16T08:00:00 15.84025 83.54125
2022-09-16T09:00:00 16.71025 76.65926
2022-09-16T10:00:00 16.51025 84.66397
2022-09-16T11:00:00 16.45025 81.55954
2022-09-16T12:00:00 16.26025 76.73875
2022-09-16T13:00:00 16.43025 72.5131
2022-09-16T14:00:00 16.14025 70.12629
2022-09-16T15:00:00 16.17025 67.82027
2022-09-16T16:00:00 15.65025 68.16884
2022-09-16T17:00:00 14.59025 73.1484
2022-09-16T18:00:00 13.64025 75.89668
2022-09-16T19:00:00 13.45025 71.60774
2022-09-16T20:00:00 12.83025 71.43748
2022-09-16T21:00:00 12.30025 73.01918
2022-09-16T22:00:00 12.15025 77.57649
2022-09-16T23:00:00 11.67025 78.88886
2022-09-17T00:00:00 11.15025 81.10828
2022-09-17T01:00:00 11.00025 80.53335
2022-09-17T02:00:00 10.61025 81.92608
2022-09-17T03:00:00 10.23025 82.55213
2022-09-17T04:00:00 9.830245 82.61209
2022-09-17T05:00:00 9.520246 81.60474
2022-09-17T06:00:00 9.880245 78.9343
2022-09-17T07:00:00 10.38025 74.18497
2022-09-17T08:00:00 11.18025 69.25399
2022-09-17T09:00:00 11.64025 66.23731
2022-09-17T10:00:00 12.28025 59.60998
2022-09-17T11:00:00 13.03025 57.29814
2022-09-17T12:00:00 13.21025 59.63641
2022-09-17T13:00:00 13.44025 61.16561
2022-09-17T14:00:00 13.95025 61.63041
2022-09-17T15:00:00 14.53025 61.64325
2022-09-17T16:00:00 14.10025 60.23401
2022-09-17T17:00:00 13.21025 61.92189
2022-09-17T18:00:00 12.29025 66.52165
2022-09-17T19:00:00 11.48025 73.0145
2022-09-17T20:00:00 11.18025 77.57736
2022-09-17T21:00:00 10.86025 79.74278
2022-09-17T22:00:00 10.77025 81.83587
2022-09-17T23:00:00 10.46025 82.86674
2022-09-18T00:00:00 10.05025 83.9593
2022-09-18T01:00:00 9.460245 86.11147
2022-09-18T02:00:00 8.950245 88.09761
2022-09-18T03:00:00 8.420245 88.65646
2022-09-18T04:00:00 8.300245 88.03312
2022-09-18T05:00:00 7.910245 88.42308
2022-09-18T06:00:00 8.000245 88.00304
2022-09-18T07:00:00 9.810246 82.04132
2022-09-18T08:00:00 11.37025 74.36733
2022-09-18T09:00:00 12.93025 66.66381
2022-09-18T10:00:00 14.04025 62.20808
2022-09-18T11:00:00 15.17025 55.92447
2022-09-18T12:00:00 15.85025 53.49085
2022-09-18T13:00:00 16.31025 50.69
2022-09-18T14:00:00 16.51025 48.94376
2022-09-18T15:00:00 16.24025 49.00432
2022-09-18T16:00:00 15.80025 49.98669
2022-09-18T17:00:00 15.16025 51.00901
2022-09-18T18:00:00 14.53025 53.8438
2022-09-18T19:00:00 14.07025 55.98484
2022-09-18T20:00:00 13.86025 57.19411
2022-09-18T21:00:00 13.74025 57.24276
2022-09-18T22:00:00 13.67025 59.00834
2022-09-18T23:00:00 13.41025 60.81912
2022-09-19T00:00:00 13.28025 59.77902
2022-09-19T01:00:00 12.72025 62.40897
2022-09-19T02:00:00 12.22025 64.77148
2022-09-19T03:00:00 11.64025 68.01453
2022-09-19T04:00:00 10.89025 72.9017
2022-09-19T05:00:00 9.580245 79.32635
2022-09-19T06:00:00 9.760245 81.75156
2022-09-19T07:00:00 11.79025 71.77467
2022-09-19T08:00:00 12.92025 66.02002
2022-09-19T09:00:00 13.80025 61.50879
2022-09-19T10:00:00 14.40025 56.18926
2022-09-19T11:00:00 15.20025 50.62851
2022-09-19T12:00:00 16.03025 45.11439
2022-09-19T13:00:00 16.46025 42.27366
2022-09-19T14:00:00 16.87025 42.1552
2022-09-19T15:00:00 16.86025 41.53035
2022-09-19T16:00:00 16.59025 44.0199
2022-09-19T17:00:00 16.00025 41.30549
2022-09-19T18:00:00 13.92025 53.67807
2022-09-19T19:00:00 12.17025 63.81832
2022-09-19T20:00:00 11.85025 64.9573
2022-09-19T21:00:00 11.42025 67.072
2022-09-19T22:00:00 10.15025 72.80971
2022-09-19T23:00:00 9.870245 73.67703
2022-09-20T00:00:00 9.430245 74.68449
2022-09-20T01:00:00 8.740245 76.41432
2022-09-20T02:00:00 8.300245 78.51569
2022-09-20T03:00:00 7.850246 80.51183
2022-09-20T04:00:00 7.050245 83.21985
2022-09-20T05:00:00 6.490245 85.16644
2022-09-20T06:00:00 6.610245 87.3682
2022-09-20T07:00:00 9.290245 84.3284
2022-09-20T08:00:00 11.88025 72.73891
2022-09-20T09:00:00 13.60025 67.27148
2022-09-20T10:00:00 15.03025 59.22851
2022-09-20T11:00:00 15.78025 54.63203
2022-09-20T12:00:00 16.21025 52.66937
2022-09-20T13:00:00 16.72025 49.896
2022-09-20T14:00:00 16.42025 50.29951
2022-09-20T15:00:00 15.91025 50.26242
2022-09-20T16:00:00 15.38025 51.68036
2022-09-20T17:00:00 14.31025 56.28312
2022-09-20T18:00:00 11.92025 67.41643
2022-09-20T19:00:00 11.00025 71.76787
2022-09-20T20:00:00 10.70025 73.67963
2022-09-20T21:00:00 10.46025 74.61337
2022-09-20T22:00:00 9.840245 85.32956
2022-09-20T23:00:00 9.240245 88.12608
2022-09-21T00:00:00 8.510245 90.45802
2022-09-21T01:00:00 7.590245 93.05305
2022-09-21T02:00:00 6.580246 94.95269
2022-09-21T03:00:00 6.060246 95.65849
2022-09-21T04:00:00 5.400245 96.30123
2022-09-21T05:00:00 5.070245 95.8811
2022-09-21T06:00:00 6.150245 94.46698
2022-09-21T07:00:00 9.100245 85.30176
2022-09-21T08:00:00 11.24025 75.89783
2022-09-21T09:00:00 13.22025 67.74563
2022-09-21T10:00:00 15.17025 58.41274
2022-09-21T11:00:00 16.70025 49.47642
2022-09-21T12:00:00 17.62025 42.88407
2022-09-21T13:00:00 18.05025 40.51901
2022-09-21T14:00:00 18.45025 38.81948
2022-09-21T15:00:00 18.43024 38.81359
2022-09-21T16:00:00 17.86025 41.00855
2022-09-21T17:00:00 15.71025 51.26885
2022-09-21T18:00:00 13.03025 60.59815
2022-09-21T19:00:00 11.18025 69.25399
2022-09-21T20:00:00 9.690246 75.78306
2022-09-21T21:00:00 8.970245 78.18621
2022-09-21T22:00:00 8.030246 81.9631
2022-09-21T23:00:00 7.220245 84.83764
2022-09-22T00:00:00 7.160245 84.83019
2022-09-22T01:00:00 6.670245 85.91181
2022-09-22T02:00:00 6.070245 87.86644
2022-09-22T03:00:00 6.040245 87.61549
2022-09-22T04:00:00 5.410245 89.62014
2022-09-22T05:00:00 4.450245 92.77493
2022-09-22T06:00:00 4.940245 94.39801
2022-09-22T07:00:00 8.310246 82.57745
2022-09-22T08:00:00 10.92025 68.5734
2022-09-22T09:00:00 12.78025 61.51622
2022-09-22T10:00:00 14.70025 58.05172
2022-09-22T11:00:00 16.16025 55.26341
2022-09-22T12:00:00 17.46025 52.75333
2022-09-22T13:00:00 18.30025 49.9554
2022-09-22T14:00:00 18.84025 47.66137
2022-09-22T15:00:00 18.91025 46.35582
2022-09-22T16:00:00 18.56025 47.64821
2022-09-22T17:00:00 16.01025 61.45181
2022-09-22T18:00:00 13.46025 68.26379
2022-09-22T19:00:00 12.42025 71.55305
2022-09-22T20:00:00 10.37025 79.06596
2022-09-22T21:00:00 8.750245 85.37868
2022-09-22T22:00:00 8.770246 84.49776
2022-09-22T23:00:00 8.350245 85.92645
2022-09-23T00:00:00 7.460245 88.68746
2022-09-23T01:00:00 6.560246 91.0557
2022-09-23T02:00:00 6.450245 91.23834
2022-09-23T03:00:00 6.310246 92.32049
2022-09-23T04:00:00 5.730245 94.04645
2022-09-23T05:00:00 5.550245 94.76548
2022-09-23T06:00:00 6.200245 93.87707
2022-09-23T07:00:00 8.800245 87.59771
2022-09-23T08:00:00 11.65025 81.06854
2022-09-23T09:00:00 14.43025 73.91206
2022-09-23T10:00:00 16.80025 63.37051
2022-09-23T11:00:00 18.58025 56.95848
2022-09-23T12:00:00 19.77025 53.90983
2022-09-23T13:00:00 20.50025 51.51807
2022-09-23T14:00:00 20.46025 51.88943
2022-09-23T15:00:00 20.19025 54.34604
2022-09-23T16:00:00 19.69025 56.13944
2022-09-23T17:00:00 17.64025 69.03595
2022-09-23T18:00:00 15.65025 76.58913
2022-09-23T19:00:00 14.81025 80.80283
2022-09-23T20:00:00 14.41025 84.59485
2022-09-23T21:00:00 13.89025 88.08922
2022-09-23T22:00:00 13.78025 89.78749
2022-09-23T23:00:00 13.88025 90.33106
2022-09-24T00:00:00 13.58025 91.45098
2022-09-24T01:00:00 13.26025 93.57233
2022-09-24T02:00:00 13.44025 94.45004
2022-09-24T03:00:00 13.45025 95.0124
2022-09-24T04:00:00 13.47025 96.08243
2022-09-24T05:00:00 13.56025 96.6553
2022-09-24T06:00:00 13.63025 95.58383
2022-09-24T07:00:00 13.91025 94.96877
2022-09-24T08:00:00 14.40025 94.43104
2022-09-24T09:00:00 14.89025 90.94051
2022-09-24T10:00:00 15.65025 83.90386
2022-09-24T11:00:00 16.40025 80.4367
2022-09-24T12:00:00 16.57025 78.16708
2022-09-24T13:00:00 17.20025 75.14032
2022-09-24T14:00:00 17.63025 68.94247
2022-09-24T15:00:00 17.70025 66.52782
2022-09-24T16:00:00 17.37025 69.21092
2022-09-24T17:00:00 15.92025 76.32859
2022-09-24T18:00:00 14.92025 79.59178
2022-09-24T19:00:00 13.47025 87.35078
2022-09-24T20:00:00 12.76025 90.54688
2022-09-24T21:00:00 11.50025 93.54033
2022-09-24T22:00:00 10.52025 99.99413
2022-09-24T23:00:00 10.74025 98.07154
2022-09-25T00:00:00 10.18025 97.86143
2022-09-25T01:00:00 10.44025 97.27674
2022-09-25T02:00:00 10.53025 96.49699
2022-09-25T03:00:00 10.73025 96.3093
2022-09-25T04:00:00 10.59025 95.85164
2022-09-25T05:00:00 10.20025 97.20446
2022-09-25T06:00:00 10.72025 98.20279
2022-09-25T07:00:00 11.41025 98.87331
2022-09-25T08:00:00 12.33025 94.21036
2022-09-25T09:00:00 13.14025 89.85582
2022-09-25T10:00:00 13.88025 86.29507
2022-09-25T11:00:00 14.84025 81.02203
2022-09-25T12:00:00 15.40025 79.50321
2022-09-25T13:00:00 15.89025 75.46678
2022-09-25T14:00:00 15.81025 77.02297
2022-09-25T15:00:00 15.47025 81.00064
2022-09-25T16:00:00 14.79025 82.15284
2022-09-25T17:00:00 14.16025 86.43845
2022-09-25T18:00:00 13.53025 88.58431
2022-09-25T19:00:00 12.58025 94.28508
2022-09-25T20:00:00 12.58025 92.36172
2022-09-25T21:00:00 12.50025 90.28577
2022-09-25T22:00:00 11.80025 90.83894
2022-09-25T23:00:00 11.39025 93.47154
2022-09-26T00:00:00 11.22025 94.66209
2022-09-26T01:00:00 10.94025 95.80071
2022-09-26T02:00:00 11.16025 96.51793
2022-09-26T03:00:00 11.31025 95.87906
2022-09-26T04:00:00 10.96025 97.09555
2022-09-26T05:00:00 10.69025 97.349
2022-09-26T06:00:00 10.49025 96.82101
2022-09-26T07:00:00 11.33025 92.84249
2022-09-26T08:00:00 12.44025 86.25958
2022-09-26T09:00:00 13.65025 75.23408
2022-09-26T10:00:00 14.94025 62.29472
2022-09-26T11:00:00 15.30025 59.05199
2022-09-26T12:00:00 15.04025 60.79922
2022-09-26T13:00:00 14.52025 65.25188
2022-09-26T14:00:00 14.74025 64.90144
2022-09-26T15:00:00 14.64025 65.9956
2022-09-26T16:00:00 14.42025 66.899
2022-09-26T17:00:00 14.17025 66.89024
2022-09-26T18:00:00 13.83025 69.28201
2022-09-26T19:00:00 12.99025 72.89967
2022-09-26T20:00:00 12.25025 77.17067
2022-09-26T21:00:00 11.72025 80.8579
2022-09-26T22:00:00 11.58025 86.22598
2022-09-26T23:00:00 11.47025 87.21173
2022-09-27T00:00:00 11.64025 86.46597
2022-09-27T01:00:00 11.39025 89.77389
2022-09-27T02:00:00 10.97025 90.34795
2022-09-27T03:00:00 10.49025 90.371
2022-09-27T04:00:00 10.31025 87.92921
2022-09-27T05:00:00 10.16025 85.133
2022-09-27T06:00:00 10.02025 84.65048
2022-09-27T07:00:00 10.40025 82.80196
2022-09-27T08:00:00 10.71025 79.66525
2022-09-27T09:00:00 11.24025 78.49812
2022-09-27T10:00:00 11.11025 78.42359
2022-09-27T11:00:00 11.33025 79.16064
2022-09-27T12:00:00 11.27025 77.75217
2022-09-27T13:00:00 12.33025 75.20744
2022-09-27T14:00:00 12.22025 73.0542
2022-09-27T15:00:00 12.02025 75.87685
2022-09-27T16:00:00 11.61025 76.53785
2022-09-27T17:00:00 10.99025 81.69835
2022-09-27T18:00:00 10.88025 83.83322
2022-09-27T19:00:00 10.78025 84.74147
2022-09-27T20:00:00 10.75025 85.60935
2022-09-27T21:00:00 10.81025 87.08547
2022-09-27T22:00:00 10.90025 85.21905
2022-09-27T23:00:00 11.13025 82.95453
2022-09-28T00:00:00 11.15025 82.84403
2022-09-28T01:00:00 11.28025 83.14379
2022-09-28T02:00:00 11.17025 86.6509
2022-09-28T03:00:00 11.20025 89.27428
2022-09-28T04:00:00 11.23025 91.41023
2022-09-28T05:00:00 11.41025 93.59814
2022-09-28T06:00:00 11.47025 95.18211
2022-09-28T07:00:00 11.61025 95.5705
2022-09-28T08:00:00 11.83025 94.31171
2022-09-28T09:00:00 12.08025 91.83787
2022-09-28T10:00:00 11.75025 88.48374
2022-09-28T11:00:00 11.62025 87.6993
2022-09-28T12:00:00 11.75025 85.14329
2022-09-28T13:00:00 11.75025 83.20401
2022-09-28T14:00:00 11.76025 81.47123
2022-09-28T15:00:00 11.80025 80.92437
2022-09-28T16:00:00 11.47025 84.99572
2022-09-28T17:00:00 10.66025 90.0787
2022-09-28T18:00:00 10.03025 93.64794
2022-09-28T19:00:00 9.880245 93.57592
2022-09-28T20:00:00 9.860246 94.53252
2022-09-28T21:00:00 9.540245 95.74507
2022-09-28T22:00:00 9.090245 96.7097
2022-09-28T23:00:00 9.070246 97.63487
2022-09-29T00:00:00 9.350245 97.24548
2022-09-29T01:00:00 9.260245 97.2428
2022-09-29T02:00:00 9.360246 95.34765
2022-09-29T03:00:00 9.350245 94.89392
2022-09-29T04:00:00 9.340245 95.02277
2022-09-29T05:00:00 9.300245 94.82691
2022-09-29T06:00:00 9.240245 94.69482
2022-09-29T07:00:00 9.700245 91.79851
2022-09-29T08:00:00 9.900246 92.62811
2022-09-29T09:00:00 10.62025 89.58785
2022-09-29T10:00:00 11.38025 89.83362
2022-09-29T11:00:00 12.02025 89.52473
2022-09-29T12:00:00 12.50025 87.72513
2022-09-29T13:00:00 12.54025 85.92325
2022-09-29T14:00:00 12.49025 83.69188
2022-09-29T15:00:00 12.12025 84.04287
2022-09-29T16:00:00 12.09025 85.29714
2022-09-29T17:00:00 11.40025 91.5454
2022-09-29T18:00:00 10.85025 92.81328
2022-09-29T19:00:00 10.28025 95.51659
2022-09-29T20:00:00 9.640245 97.71608
2022-09-29T21:00:00 9.840245 96.73483
2022-09-29T22:00:00 10.37025 94.87764
2022-09-29T23:00:00 10.32025 95.84116
2022-09-30T00:00:00 10.07025 96.87312
2022-09-30T01:00:00 10.05025 96.35027
2022-09-30T02:00:00 9.630245 97.78201
2022-09-30T03:00:00 10.27025 96.16319
2022-09-30T04:00:00 10.07025 96.41611
2022-09-30T05:00:00 9.740245 96.9939
2022-09-30T06:00:00 8.900246 98.43114
2022-09-30T07:00:00 9.440246 97.18217
2022-09-30T08:00:00 10.13025 93.33666
2022-09-30T09:00:00 11.12025 88.90579
2022-09-30T10:00:00 12.23025 84.62542
2022-09-30T11:00:00 13.25025 79.07771
2022-09-30T12:00:00 14.31025 71.48325
2022-09-30T13:00:00 15.01025 66.66375
2022-09-30T14:00:00 15.22025 65.18694
2022-09-30T15:00:00 15.10025 66.18709
2022-09-30T16:00:00 14.70025 70.02739
2022-09-30T17:00:00 13.49025 75.61477
2022-09-30T18:00:00 11.56025 85.5841
2022-09-30T19:00:00 10.68025 89.47147
2022-09-30T20:00:00 10.97025 83.04702
2022-09-30T21:00:00 9.190246 89.40229
2022-09-30T22:00:00 7.510245 93.69453
2022-09-30T23:00:00 8.080246 91.87175
2022-10-01T00:00:00 7.780245 92.04086
2022-10-01T01:00:00 7.920245 90.8486
2022-10-01T02:00:00 8.280246 90.00265
2022-10-01T03:00:00 8.910245 87.48813
2022-10-01T04:00:00 9.650246 82.75912
2022-10-01T05:00:00 10.07025 80.50748
2022-10-01T06:00:00 10.75025 79.83581
2022-10-01T07:00:00 10.74025 83.07391
2022-10-01T08:00:00 11.06025 83.51328
2022-10-01T09:00:00 11.52025 84.19794
2022-10-01T10:00:00 12.08025 83.64117
2022-10-01T11:00:00 12.95025 81.85497
2022-10-01T12:00:00 12.72025 86.17352
2022-10-01T13:00:00 12.95025 89.3036
2022-10-01T14:00:00 12.82025 92.13138
2022-10-01T15:00:00 13.17025 92.33689
2022-10-01T16:00:00 13.58025 91.57198
2022-10-01T17:00:00 13.52025 93.64762
2022-10-01T18:00:00 13.72025 92.61446
2022-10-01T19:00:00 13.75025 94.03002
2022-10-01T20:00:00 14.08025 93.7376
2022-10-01T21:00:00 14.42025 94.18507
2022-10-01T22:00:00 14.35025 92.89452
2022-10-01T23:00:00 14.23025 94.79535
2022-10-02T00:00:00 14.41025 94.55511
2022-10-02T01:00:00 14.62025 93.70301
2022-10-02T02:00:00 14.66025 93.46027
2022-10-02T03:00:00 14.67025 95.37187
2022-10-02T04:00:00 14.94025 94.70112
2022-10-02T05:00:00 15.19025 93.79189
2022-10-02T06:00:00 15.40025 93.74101
2022-10-02T07:00:00 15.93025 93.04067
2022-10-02T08:00:00 16.70025 91.41615
2022-10-02T09:00:00 17.33025 90.69528
2022-10-02T10:00:00 17.62025 89.55822
2022-10-02T11:00:00 18.30025 88.3577
2022-10-02T12:00:00 18.84025 83.352
2022-10-02T13:00:00 19.25025 78.01048
2022-10-02T14:00:00 19.15025 75.26952
2022-10-02T15:00:00 18.69025 72.16592
2022-10-02T16:00:00 17.93024 71.31816
2022-10-02T17:00:00 17.10025 75.27201
2022-10-02T18:00:00 16.77025 77.12467
2022-10-02T19:00:00 16.15025 82.54347
2022-10-02T20:00:00 16.11025 85.17479
2022-10-02T21:00:00 15.75025 89.76407
2022-10-02T22:00:00 15.03025 95.323
2022-10-02T23:00:00 14.86025 95.25467
2022-10-03T00:00:00 14.37025 95.48553
2022-10-03T01:00:00 13.63025 96.59385
2022-10-03T02:00:00 12.97025 97.14969
2022-10-03T03:00:00 12.41025 96.81393
2022-10-03T04:00:00 11.78025 97.83208
2022-10-03T05:00:00 11.35025 97.6921
2022-10-03T06:00:00 11.37025 96.7832
2022-10-03T07:00:00 11.86025 94.31316
2022-10-03T08:00:00 12.57025 88.55801
2022-10-03T09:00:00 13.57025 84.83717
2022-10-03T10:00:00 14.53025 81.03342
2022-10-03T11:00:00 15.04025 77.00171
2022-10-03T12:00:00 15.71025 72.04104
2022-10-03T13:00:00 16.29025 67.98218
2022-10-03T14:00:00 16.56025 64.39217
2022-10-03T15:00:00 16.47025 63.63747
2022-10-03T16:00:00 15.68025 70.36481
2022-10-03T17:00:00 12.89025 82.51102
2022-10-03T18:00:00 11.13025 88.7264
2022-10-03T19:00:00 10.16025 91.58155
2022-10-03T20:00:00 9.860246 92.06009
2022-10-03T21:00:00 9.170245 93.21595
2022-10-03T22:00:00 8.690246 93.76355
2022-10-03T23:00:00 8.220245 94.25374
2022-10-04T00:00:00 7.940245 94.69418
2022-10-04T01:00:00 8.000245 92.82266
2022-10-04T02:00:00 7.480245 94.60488
2022-10-04T03:00:00 8.680245 92.61204
2022-10-04T04:00:00 8.280246 93.09698
2022-10-04T05:00:00 8.020246 92.75993
2022-10-04T06:00:00 7.770245 93.70996
2022-10-04T07:00:00 8.820246 92.36746
2022-10-04T08:00:00 10.39025 88.35736
2022-10-04T09:00:00 11.82025 83.26937
2022-10-04T10:00:00 14.08025 76.58752
2022-10-04T11:00:00 15.72025 71.94656
2022-10-04T12:00:00 17.37025 67.75404
2022-10-04T13:00:00 18.60025 63.02173
2022-10-04T14:00:00 19.30025 60.55548
2022-10-04T15:00:00 19.50025 60.88525
2022-10-04T16:00:00 18.49025 71.32999
2022-10-04T17:00:00 16.26025 75.37915
2022-10-04T18:00:00 12.84025 89.95167
2022-10-04T19:00:00 11.12025 96.32281
2022-10-04T20:00:00 9.940246 99.38587
2022-10-04T21:00:00 9.730246 99.65205
2022-10-04T22:00:00 10.12025 95.57449
2022-10-04T23:00:00 9.570246 96.98861
2022-10-05T00:00:00 9.340245 97.04726
2022-10-05T01:00:00 9.090245 97.70183
2022-10-05T02:00:00 9.040245 98.50098
2022-10-05T03:00:00 8.870245 98.29662
2022-10-05T04:00:00 8.750245 98.36096
2022-10-05T05:00:00 8.670245 98.56059
2022-10-05T06:00:00 8.960245 98.63342
2022-10-05T07:00:00 10.74025 94.83081
2022-10-05T08:00:00 13.33025 87.57023
2022-10-05T09:00:00 15.97025 81.98029
2022-10-05T10:00:00 18.08025 74.01804
2022-10-05T11:00:00 19.93024 66.99827
2022-10-05T12:00:00 21.50025 61.59365
2022-10-05T13:00:00 22.67025 56.29459
2022-10-05T14:00:00 23.32025 52.33311
2022-10-05T15:00:00 23.23025 52.00099
2022-10-05T16:00:00 22.02025 57.17394
2022-10-05T17:00:00 20.60025 57.3888
2022-10-05T18:00:00 16.31025 75.6377
2022-10-05T19:00:00 14.92025 81.41033
2022-10-05T20:00:00 14.26025 81.75617
2022-10-05T21:00:00 13.74025 81.63197
2022-10-05T22:00:00 12.78025 85.08859
2022-10-05T23:00:00 12.24025 86.41264
2022-10-06T00:00:00 12.15025 86.17072
2022-10-06T01:00:00 12.24025 84.798
2022-10-06T02:00:00 11.94025 86.38099
2022-10-06T03:00:00 11.88025 87.72448
2022-10-06T04:00:00 11.93025 88.14364
2022-10-06T05:00:00 11.79025 89.26499
2022-10-06T06:00:00 12.18025 88.8204
2022-10-06T07:00:00 13.76025 86.39745
2022-10-06T08:00:00 14.77025 83.96662
2022-10-06T09:00:00 15.90025 81.8096
2022-10-06T10:00:00 16.87025 79.6102
2022-10-06T11:00:00 17.62025 75.7555
2022-10-06T12:00:00 18.13025 73.11089
2022-10-06T13:00:00 18.63025 71.44985
2022-10-06T14:00:00 18.61025 70.60795
2022-10-06T15:00:00 18.50025 70.35541
2022-10-06T16:00:00 18.03025 69.98679
2022-10-06T17:00:00 16.25025 80.04648
2022-10-06T18:00:00 14.58025 87.11144
2022-10-06T19:00:00 13.65025 90.73299
2022-10-06T20:00:00 12.95025 92.3233
2022-10-06T21:00:00 12.32025 92.59218
2022-10-06T22:00:00 12.00025 90.18627
2022-10-06T23:00:00 12.27025 88.35301
2022-10-07T00:00:00 11.67025 91.62566
2022-10-07T01:00:00 11.00025 92.38558
2022-10-07T02:00:00 10.87025 92.81449
2022-10-07T03:00:00 11.43025 92.10309
2022-10-07T04:00:00 11.41025 93.097
2022-10-07T05:00:00 11.43025 93.59924
2022-10-07T06:00:00 11.57025 94.17281
2022-10-07T07:00:00 12.43025 92.04506
2022-10-07T08:00:00 13.35025 89.69369
2022-10-07T09:00:00 14.68025 87.17856
2022-10-07T10:00:00 16.48025 82.26096
2022-10-07T11:00:00 17.95025 77.05759
2022-10-07T12:00:00 19.12025 72.90626
2022-10-07T13:00:00 20.09025 67.64661
2022-10-07T14:00:00 20.63025 64.48462
2022-10-07T15:00:00 20.63025 64.56892
2022-10-07T16:00:00 19.55025 71.66762
2022-10-07T17:00:00 17.21025 82.08505
2022-10-07T18:00:00 16.78025 83.65218
2022-10-07T19:00:00 16.23025 85.85769
2022-10-07T20:00:00 15.40025 88.3399
2022-10-07T21:00:00 14.85025 90.16626
2022-10-07T22:00:00 13.03025 97.21527
2022-10-07T23:00:00 12.94025 97.40558
2022-10-08T00:00:00 12.93025 97.40536
2022-10-08T01:00:00 12.92025 97.46938
2022-10-08T02:00:00 12.69025 97.65743
2022-10-08T03:00:00 13.10025 96.45108
2022-10-08T04:00:00 13.29025 96.32993
2022-10-08T05:00:00 13.34025 96.77629
2022-10-08T06:00:00 13.41025 96.08044
2022-10-08T07:00:00 13.85025 95.15358
2022-10-08T08:00:00 15.13025 90.89767
2022-10-08T09:00:00 15.80025 88.1442
2022-10-08T10:00:00 16.46025 79.34254
2022-10-08T11:00:00 16.68024 73.23622
2022-10-08T12:00:00 16.97025 70.14989
2022-10-08T13:00:00 17.20025 65.36292
2022-10-08T14:00:00 17.41025 61.90973
2022-10-08T15:00:00 17.27025 60.76046
2022-10-08T16:00:00 16.50025 68.66659
2022-10-08T17:00:00 14.64025 74.19901
2022-10-08T18:00:00 12.74025 82.82564
2022-10-08T19:00:00 12.09025 86.10625
2022-10-08T20:00:00 11.27025 89.76394
2022-10-08T21:00:00 10.90025 91.01688
2022-10-08T22:00:00 10.75025 90.20818
2022-10-08T23:00:00 10.38025 89.62824
2022-10-09T00:00:00 9.760245 90.06582
2022-10-09T01:00:00 9.240245 90.26959
2022-10-09T02:00:00 8.600245 90.77756
2022-10-09T03:00:00 8.040245 91.29916
2022-10-09T04:00:00 7.530245 92.98474
2022-10-09T05:00:00 7.230245 93.54783
2022-10-09T06:00:00 6.990245 95.10553
2022-10-09T07:00:00 8.820246 92.43085
2022-10-09T08:00:00 10.52025 85.99332
2022-10-09T09:00:00 11.96025 80.18007
2022-10-09T10:00:00 13.80025 73.89793
2022-10-09T11:00:00 15.58025 66.96823
2022-10-09T12:00:00 16.74025 62.88826
2022-10-09T13:00:00 17.13025 62.42994
2022-10-09T14:00:00 16.97025 62.72994
2022-10-09T15:00:00 16.65025 63.89376
2022-10-09T16:00:00 16.01025 66.97025
2022-10-09T17:00:00 14.20025 77.33132
2022-10-09T18:00:00 13.35025 80.59824
2022-10-09T19:00:00 12.76025 82.99571
2022-10-09T20:00:00 12.07025 86.10409
2022-10-09T21:00:00 11.66025 87.99952
2022-10-09T22:00:00 10.53025 93.80248
2022-10-09T23:00:00 10.49025 94.43597
2022-10-10T00:00:00 10.69025 94.44585
2022-10-10T01:00:00 10.99025 93.51207
2022-10-10T02:00:00 10.82025 95.34629
2022-10-10T03:00:00 11.08025 95.8704
2022-10-10T04:00:00 11.17025 96.26001
2022-10-10T05:00:00 11.44025 94.79926
2022-10-10T06:00:00 11.33025 96.13683
2022-10-10T07:00:00 12.20025 93.26688
2022-10-10T08:00:00 14.35025 87.0891
2022-10-10T09:00:00 16.23025 82.17534
2022-10-10T10:00:00 17.72025 76.9209
2022-10-10T11:00:00 19.71025 69.71953
2022-10-10T12:00:00 20.93024 65.86585
2022-10-10T13:00:00 21.58025 62.5424
2022-10-10T14:00:00 22.10025 59.87192
2022-10-10T15:00:00 22.19025 58.96313
2022-10-10T16:00:00 21.58025 58.54683
2022-10-10T17:00:00 19.38025 70.93958
2022-10-10T18:00:00 17.76024 78.44843
2022-10-10T19:00:00 17.34025 78.74551
2022-10-10T20:00:00 17.36025 76.76325
2022-10-10T21:00:00 16.50025 80.8739
2022-10-10T22:00:00 14.50025 90.1992
2022-10-10T23:00:00 14.16025 90.11408
2022-10-11T00:00:00 14.11025 90.58687
2022-10-11T01:00:00 13.30025 92.5284
2022-10-11T02:00:00 12.93025 94.42667
2022-10-11T03:00:00 12.21025 95.33989
2022-10-11T04:00:00 12.28025 95.02629
2022-10-11T05:00:00 12.26025 95.46876
2022-10-11T06:00:00 12.02025 95.52287
2022-10-11T07:00:00 13.25025 93.57182
2022-10-11T08:00:00 14.99025 88.47811
2022-10-11T09:00:00 16.14025 85.2337
2022-10-11T10:00:00 16.79025 81.76413
2022-10-11T11:00:00 17.52025 78.00392
2022-10-11T12:00:00 17.90025 76.19901
2022-10-11T13:00:00 18.16025 75.3505
2022-10-11T14:00:00 17.81025 77.08599
2022-10-11T15:00:00 17.52025 78.36153
2022-10-11T16:00:00 16.91025 79.45956
2022-10-11T17:00:00 15.39025 86.67606
2022-10-11T18:00:00 14.34025 90.06847
2022-10-11T19:00:00 13.29025 93.26516
2022-10-11T20:00:00 12.67025 94.47723
2022-10-11T21:00:00 11.94025 96.03014
2022-10-11T22:00:00 11.71025 93.86535
2022-10-11T23:00:00 11.43025 93.9766
2022-10-12T00:00:00 12.22025 92.70976
2022-10-12T01:00:00 12.18025 91.84453
2022-10-12T02:00:00 12.06025 92.20576
2022-10-12T03:00:00 11.92025 93.12653
2022-10-12T04:00:00 11.85025 94.06101
2022-10-12T05:00:00 11.84025 94.88064
2022-10-12T06:00:00 11.92025 94.69448
2022-10-12T07:00:00 12.73025 92.43246
2022-10-12T08:00:00 13.73025 88.0162
2022-10-12T09:00:00 14.33025 85.8853
2022-10-12T10:00:00 15.94025 78.79694
2022-10-12T11:00:00 16.85025 74.34087
2022-10-12T12:00:00 17.59025 71.6311
2022-10-12T13:00:00 18.01024 70.35312
2022-10-12T14:00:00 18.20025 70.15857
2022-10-12T15:00:00 18.04025 71.66824
2022-10-12T16:00:00 17.12025 74.97847
2022-10-12T17:00:00 15.88025 78.94439
2022-10-12T18:00:00 15.42025 80.08769
2022-10-12T19:00:00 13.77025 86.34105
2022-10-12T20:00:00 12.97025 89.42438
2022-10-12T21:00:00 11.97025 93.37864
2022-10-12T22:00:00 12.65025 90.41792
2022-10-12T23:00:00 11.42025 92.22631
2022-10-13T00:00:00 11.12025 92.5178
2022-10-13T01:00:00 10.82025 93.62867
2022-10-13T02:00:00 10.11025 96.1573
2022-10-13T03:00:00 10.79025 96.89536
2022-10-13T04:00:00 11.00025 96.96664
2022-10-13T05:00:00 11.39025 97.04283
2022-10-13T06:00:00 11.75025 96.66571
2022-10-13T07:00:00 12.00025 96.03226
2022-10-13T08:00:00 12.93025 93.18362
2022-10-13T09:00:00 13.98025 90.93661
2022-10-13T10:00:00 15.11025 88.19873
2022-10-13T11:00:00 16.15025 82.76033
2022-10-13T12:00:00 17.13025 77.94464
2022-10-13T13:00:00 17.75025 74.25243
2022-10-13T14:00:00 17.26024 76.79768
2022-10-13T15:00:00 16.17025 84.57089
2022-10-13T16:00:00 16.03025 85.11047
2022-10-13T17:00:00 15.40025 89.09435
2022-10-13T18:00:00 14.63025 92.91007
2022-10-13T19:00:00 14.43025 93.08183
2022-10-13T20:00:00 14.05025 94.35352
2022-10-13T21:00:00 13.27025 96.26587
2022-10-13T22:00:00 13.46025 95.89263
2022-10-13T23:00:00 13.11025 96.70608
2022-10-14T00:00:00 12.97025 96.06575
2022-10-14T01:00:00 13.01025 94.36792
2022-10-14T02:00:00 13.00025 93.9312
2022-10-14T03:00:00 12.82025 95.61694
2022-10-14T04:00:00 12.82025 96.12421
2022-10-14T05:00:00 13.00025 97.02239
2022-10-14T06:00:00 12.65025 98.95476
2022-10-14T07:00:00 13.30025 97.28587
2022-10-14T08:00:00 13.92025 97.42783
2022-10-14T09:00:00 15.29025 93.00669
2022-10-14T10:00:00 16.63025 86.5715
2022-10-14T11:00:00 17.31025 83.9859
2022-10-14T12:00:00 17.52025 82.87391
2022-10-14T13:00:00 17.21025 84.85088
2022-10-14T14:00:00 17.08025 86.33518
2022-10-14T15:00:00 16.50025 90.05386
2022-10-14T16:00:00 16.06025 91.25678
2022-10-14T17:00:00 15.72025 91.17513
2022-10-14T18:00:00 15.54025 91.87803
2022-10-14T19:00:00 15.47025 92.8351
2022-10-14T20:00:00 15.62025 91.70388
2022-10-14T21:00:00 15.66025 92.72496
2022-10-14T22:00:00 15.87025 92.7365
2022-10-14T23:00:00 16.23025 91.68246
2022-10-15T00:00:00 16.63025 90.06336
2022-10-15T01:00:00 16.76024 90.71493
2022-10-15T02:00:00 16.62025 90.99883
2022-10-15T03:00:00 16.70025 88.9684
2022-10-15T04:00:00 16.32025 90.45
2022-10-15T05:00:00 15.99025 91.90557
2022-10-15T06:00:00 16.27025 89.8036
2022-10-15T07:00:00 16.42025 88.1983
2022-10-15T08:00:00 16.98025 83.67551
2022-10-15T09:00:00 17.58025 80.7556
2022-10-15T10:00:00 17.97025 79.40372
2022-10-15T11:00:00 18.99025 73.59849
2022-10-15T12:00:00 19.67025 69.48488
2022-10-15T13:00:00 19.67025 70.16741
2022-10-15T14:00:00 19.50025 69.27034
2022-10-15T15:00:00 19.29025 69.91117
2022-10-15T16:00:00 18.45025 73.98553
2022-10-15T17:00:00 16.88025 84.37484
2022-10-15T18:00:00 15.85025 90.3577
2022-10-15T19:00:00 15.36025 92.52744
2022-10-15T20:00:00 15.39025 91.39109
2022-10-15T21:00:00 14.76025 93.70991
2022-10-15T22:00:00 14.39025 95.9866
2022-10-15T23:00:00 14.43025 95.92526
2022-10-16T00:00:00 14.30025 96.10922
2022-10-16T01:00:00 14.51025 94.49764
2022-10-16T02:00:00 14.37025 95.17392
2022-10-16T03:00:00 14.30025 95.17121
2022-10-16T04:00:00 14.03025 95.03597
2022-10-16T05:00:00 14.00025 94.84792
2022-10-16T06:00:00 14.04025 93.73561
2022-10-16T07:00:00 14.49025 93.574
2022-10-16T08:00:00 15.96025 90.95454
2022-10-16T09:00:00 17.80025 84.259
2022-10-16T10:00:00 19.76024 77.18783
2022-10-16T11:00:00 21.28025 67.75681
2022-10-16T12:00:00 22.34025 64.43829
2022-10-16T13:00:00 22.99025 60.78497
2022-10-16T14:00:00 23.43024 58.61066
2022-10-16T15:00:00 23.09025 60.22143
2022-10-16T16:00:00 20.89025 71.58955
2022-10-16T17:00:00 17.08025 86.11173
2022-10-16T18:00:00 15.73025 90.05534
2022-10-16T19:00:00 14.42025 93.75446
2022-10-16T20:00:00 13.85025 94.28243
2022-10-16T21:00:00 13.42025 94.20029
2022-10-16T22:00:00 13.15025 96.38905
2022-10-16T23:00:00 12.84025 96.6983
2022-10-17T00:00:00 12.62025 96.3086
2022-10-17T01:00:00 12.52025 95.54227
2022-10-17T02:00:00 11.90025 96.92799
2022-10-17T03:00:00 11.70025 96.59974
2022-10-17T04:00:00 11.60025 95.57011
2022-10-17T05:00:00 11.38025 96.07431
2022-10-17T06:00:00 11.18025 96.97192
2022-10-17T07:00:00 12.70025 93.29465
2022-10-17T08:00:00 15.20025 87.45765
2022-10-17T09:00:00 17.52025 81.27459
2022-10-17T10:00:00 19.23025 74.99059
2022-10-17T11:00:00 21.15025 65.86962
2022-10-17T12:00:00 22.56025 59.82473
2022-10-17T13:00:00 23.06025 56.90839
2022-10-17T14:00:00 23.40025 55.31123
2022-10-17T15:00:00 22.97025 59.49566
2022-10-17T16:00:00 20.23025 76.91357
2022-10-17T17:00:00 16.62025 86.51429
2022-10-17T18:00:00 14.71025 93.34074
2022-10-17T19:00:00 14.19025 94.05102
2022-10-17T20:00:00 13.77025 94.52707
2022-10-17T21:00:00 14.21025 92.88671
2022-10-17T22:00:00 14.08025 93.92242
2022-10-17T23:00:00 14.09025 93.36948
2022-10-18T00:00:00 14.18025 93.00711
2022-10-18T01:00:00 13.75025 93.90633
2022-10-18T02:00:00 13.71025 94.02808
2022-10-18T03:00:00 13.15025 95.44003
2022-10-18T04:00:00 13.00025 94.55493
2022-10-18T05:00:00 13.07025 94.3083
2022-10-18T06:00:00 13.10025 93.93619
2022-10-18T07:00:00 14.62025 89.20581
2022-10-18T08:00:00 16.98025 82.86221
2022-10-18T09:00:00 19.00025 76.67274
2022-10-18T10:00:00 19.97025 71.88453
2022-10-18T11:00:00 21.30025 65.98682
2022-10-18T12:00:00 22.10025 62.13343
2022-10-18T13:00:00 22.61025 59.95321
2022-10-18T14:00:00 22.77025 59.4483
2022-10-18T15:00:00 22.28025 61.41281
2022-10-18T16:00:00 20.43024 74.70741
2022-10-18T17:00:00 18.18024 80.57451
2022-10-18T18:00:00 16.39025 87.39688
2022-10-18T19:00:00 15.32025 91.32694
2022-10-18T20:00:00 14.08025 94.41679
2022-10-18T21:00:00 13.47025 95.13847
2022-10-18T22:00:00 13.29025 96.07647
2022-10-18T23:00:00 12.92025 95.55747
2022-10-19T00:00:00 12.36025 95.34593
2022-10-19T01:00:00 11.60025 95.12402
2022-10-19T02:00:00 11.46025 94.80018
2022-10-19T03:00:00 11.82025 96.41061
2022-10-19T04:00:00 11.92025 97.90012
2022-10-19T05:00:00 12.20025 97.90592
2022-10-19T06:00:00 12.39025 97.97463
2022-10-19T07:00:00 12.85025 97.66091
2022-10-19T08:00:00 13.82025 94.90272
2022-10-19T09:00:00 14.55025 93.94502
2022-10-19T10:00:00 16.63025 88.04503
2022-10-19T11:00:00 17.65025 82.99712
2022-10-19T12:00:00 18.24025 80.27011
2022-10-19T13:00:00 18.85025 77.95075
2022-10-19T14:00:00 19.09025 76.93534
2022-10-19T15:00:00 18.93024 77.35989
2022-10-19T16:00:00 17.06025 86.95038
2022-10-19T17:00:00 15.03025 90.17973
2022-10-19T18:00:00 14.57025 91.03767
2022-10-19T19:00:00 14.66025 91.46274
2022-10-19T20:00:00 14.79025 90.69547
2022-10-19T21:00:00 14.16025 91.55002
2022-10-19T22:00:00 14.27025 91.73801
2022-10-19T23:00:00 14.26025 91.43626
2022-10-20T00:00:00 14.13025 91.60832
2022-10-20T01:00:00 13.71025 93.47246
2022-10-20T02:00:00 13.42025 94.76101
2022-10-20T03:00:00 13.38025 95.38593
2022-10-20T04:00:00 13.44025 95.7658
2022-10-20T05:00:00 13.26025 96.1388
2022-10-20T06:00:00 13.43025 95.89161
2022-10-20T07:00:00 13.65025 94.52174
2022-10-20T08:00:00 14.34025 92.46827
2022-10-20T09:00:00 15.47025 87.94228
2022-10-20T10:00:00 16.15025 86.2989
2022-10-20T11:00:00 17.23025 81.39543
2022-10-20T12:00:00 17.69025 80.09041
2022-10-20T13:00:00 17.78025 80.83493
2022-10-20T14:00:00 17.67025 82.19629
2022-10-20T15:00:00 17.40025 85.31206
2022-10-20T16:00:00 16.83025 89.15165
2022-10-20T17:00:00 16.35025 91.45299
2022-10-20T18:00:00 15.95025 93.22263
2022-10-20T19:00:00 15.63025 93.38779
2022-10-20T20:00:00 15.22025 94.28267
2022-10-20T21:00:00 14.88025 93.89939
2022-10-20T22:00:00 14.72025 94.38349
2022-10-20T23:00:00 14.60025 94.68691
2022-10-21T00:00:00 14.50025 95.24113
2022-10-21T01:00:00 14.28025 95.29506
2022-10-21T02:00:00 14.24025 97.24416
2022-10-21T03:00:00 14.50025 97.69447
2022-10-21T04:00:00 14.66025 97.95191
2022-10-21T05:00:00 14.86025 97.57444
2022-10-21T06:00:00 14.88025 98.27389
2022-10-21T07:00:00 14.94025 97.63937
2022-10-21T08:00:00 15.06025 97.95858
2022-10-21T09:00:00 15.47025 95.77233
2022-10-21T10:00:00 16.17025 93.05322
2022-10-21T11:00:00 17.02025 86.10574
2022-10-21T12:00:00 17.51024 84.28111
2022-10-21T13:00:00 17.64025 84.35016
2022-10-21T14:00:00 17.51024 84.3357
2022-10-21T15:00:00 17.00025 86.38326
2022-10-21T16:00:00 16.55025 88.72591
2022-10-21T17:00:00 16.01025 91.19431
2022-10-21T18:00:00 15.70025 91.05524
2022-10-21T19:00:00 15.28025 92.28207
2022-10-21T20:00:00 14.86025 94.5744
2022-10-21T21:00:00 14.52025 96.80798
2022-10-21T22:00:00 14.57025 95.43044
2022-10-21T23:00:00 14.56025 92.4812
2022-10-22T00:00:00 14.13025 91.97071
2022-10-22T01:00:00 13.70025 93.16447
2022-10-22T02:00:00 13.58025 93.89796
2022-10-22T03:00:00 13.54025 94.5791
2022-10-22T04:00:00 13.25025 96.32868
2022-10-22T05:00:00 12.86025 97.91913
2022-10-22T06:00:00 12.51025 99.41156
2022-10-22T07:00:00 12.61025 98.62822
2022-10-22T08:00:00 14.25025 96.42223
2022-10-22T09:00:00 16.40025 88.94405
2022-10-22T10:00:00 17.95025 80.54349
2022-10-22T11:00:00 19.09025 76.78619
2022-10-22T12:00:00 20.03025 71.98866
2022-10-22T13:00:00 20.50025 68.17176
2022-10-22T14:00:00 20.69025 65.51545
2022-10-22T15:00:00 20.36025 65.31652
2022-10-22T16:00:00 18.10025 79.83564
2022-10-22T17:00:00 15.67025 88.94208
2022-10-22T18:00:00 14.97025 91.24405
2022-10-22T19:00:00 14.24025 93.5613
2022-10-22T20:00:00 13.60025 93.77526
2022-10-22T21:00:00 13.25025 93.57182
2022-10-22T22:00:00 12.96025 93.5566
2022-10-22T23:00:00 12.12025 94.5775
2022-10-23T00:00:00 12.01025 94.38335
2022-10-23T01:00:00 12.11025 93.63596
2022-10-23T02:00:00 11.51025 94.67561
2022-10-23T03:00:00 11.47025 93.72702
2022-10-23T04:00:00 11.17025 94.21589
2022-10-23T05:00:00 11.04025 93.76688
2022-10-23T06:00:00 10.73025 94.00327
2022-10-23T07:00:00 11.36025 92.28444
2022-10-23T08:00:00 13.00025 89.12946
2022-10-23T09:00:00 14.40025 84.14595
2022-10-23T10:00:00 15.44025 83.87926
2022-10-23T11:00:00 17.13025 80.11717
2022-10-23T12:00:00 18.27025 73.56816
2022-10-23T13:00:00 18.88025 71.12352
2022-10-23T14:00:00 19.20025 71.50952
2022-10-23T15:00:00 18.45025 78.29599
2022-10-23T16:00:00 17.39025 87.03759
2022-10-23T17:00:00 16.47025 93.67068
2022-10-23T18:00:00 16.44025 94.57869
2022-10-23T19:00:00 16.16025 95.91797
2022-10-23T20:00:00 16.72025 93.8633
2022-10-23T21:00:00 16.91025 91.48831
2022-10-23T22:00:00 18.53025 72.32571
2022-10-23T23:00:00 18.46025 74.61778
2022-10-24T00:00:00 17.44025 81.05279
2022-10-24T01:00:00 16.61025 83.52316
2022-10-24T02:00:00 16.94025 81.51693
2022-10-24T03:00:00 16.73025 82.61564
2022-10-24T04:00:00 16.26025 85.19095
2022-10-24T05:00:00 16.02025 86.7378
2022-10-24T06:00:00 15.73025 89.12122
2022-10-24T07:00:00 15.76025 88.89151
2022-10-24T08:00:00 15.74025 89.47131
2022-10-24T09:00:00 15.94025 88.15649
2022-10-24T10:00:00 15.48025 90.33087
2022-10-24T11:00:00 15.60025 88.87825
2022-10-24T12:00:00 16.17025 85.51579
2022-10-24T13:00:00 16.59025 84.12251
2022-10-24T14:00:00 16.75025 83.75779
2022-10-24T15:00:00 17.06025 81.58579
2022-10-24T16:00:00 16.12025 83.9586
2022-10-24T17:00:00 14.85025 86.85104
2022-10-24T18:00:00 14.33025 87.20239
2022-10-24T19:00:00 13.71025 89.13025
2022-10-24T20:00:00 13.11025 90.09275
2022-10-24T21:00:00 12.94025 91.40742
2022-10-24T22:00:00 12.02025 92.14153
2022-10-24T23:00:00 11.70025 93.80205
2022-10-25T00:00:00 11.54025 94.80382
2022-10-25T01:00:00 11.38025 95.49744
2022-10-25T02:00:00 11.44025 95.49986
2022-10-25T03:00:00 11.40025 95.94659
2022-10-25T04:00:00 11.42025 95.3075
2022-10-25T05:00:00 11.16025 95.5526
2022-10-25T06:00:00 10.82025 95.92495
2022-10-25T07:00:00 11.36025 95.43272
2022-10-25T08:00:00 13.34025 91.19273
2022-10-25T09:00:00 15.40025 83.54366
2022-10-25T10:00:00 16.36025 82.73206
2022-10-25T11:00:00 17.32025 76.30492
2022-10-25T12:00:00 18.12025 71.11972
2022-10-25T13:00:00 18.51024 67.58733
2022-10-25T14:00:00 18.68024 66.20927
2022-10-25T15:00:00 18.00025 70.25845
2022-10-25T16:00:00 15.41025 83.8205
2022-10-25T17:00:00 14.13025 88.46121
2022-10-25T18:00:00 14.05025 87.40657
2022-10-25T19:00:00 14.05025 86.42723
2022-10-25T20:00:00 14.02025 85.1142
2022-10-25T21:00:00 13.87025 85.89356
2022-10-25T22:00:00 13.83025 86.98045
2022-10-25T23:00:00 13.90025 87.16067
2022-10-26T00:00:00 13.57025 90.54717
2022-10-26T01:00:00 13.11025 93.31708
2022-10-26T02:00:00 13.11025 95.69083
2022-10-26T03:00:00 13.27025 96.26587
2022-10-26T04:00:00 13.42025 95.38747
2022-10-26T05:00:00 13.60025 93.71348
2022-10-26T06:00:00 14.02025 91.66145
2022-10-26T07:00:00 14.27025 91.31673
2022-10-26T08:00:00 15.45025 88.8077
2022-10-26T09:00:00 17.20025 81.60396
2022-10-26T10:00:00 18.68024 76.8215
2022-10-26T11:00:00 19.86025 71.58528
2022-10-26T12:00:00 20.80025 69.47977
2022-10-26T13:00:00 21.47025 67.79517
2022-10-26T14:00:00 21.76024 65.95557
2022-10-26T15:00:00 21.11025 68.60368
2022-10-26T16:00:00 18.40025 82.65924
2022-10-26T17:00:00 15.74025 91.35446
2022-10-26T18:00:00 14.29025 96.17172
2022-10-26T19:00:00 13.28025 98.31407
2022-10-26T20:00:00 12.71025 98.95544
2022-10-26T21:00:00 12.40025 98.4297
2022-10-26T22:00:00 12.06025 96.4184
2022-10-26T23:00:00 11.64025 95.95536
2022-10-27T00:00:00 11.50025 95.1834
2022-10-27T01:00:00 11.61025 94.93385
2022-10-27T02:00:00 11.19025 94.78782
2022-10-27T03:00:00 10.93025 95.28687
2022-10-27T04:00:00 11.06025 95.35638
2022-10-27T05:00:00 11.07025 94.84597
2022-10-27T06:00:00 10.74025 94.95859
2022-10-27T07:00:00 11.25025 93.84113
2022-10-27T08:00:00 13.22025 89.8622
2022-10-27T09:00:00 15.18025 84.01476
2022-10-27T10:00:00 16.18025 82.43899
2022-10-27T11:00:00 17.95025 77.71359
2022-10-27T12:00:00 19.61025 70.66029
2022-10-27T13:00:00 20.81025 66.83226
2022-10-27T14:00:00 21.15025 65.95518
2022-10-27T15:00:00 20.37025 71.26335
2022-10-27T16:00:00 17.18024 85.89897
2022-10-27T17:00:00 15.12025 92.57406
2022-10-27T18:00:00 14.19025 96.10573
2022-10-27T19:00:00 13.73025 96.59673
2022-10-27T20:00:00 13.56025 95.33007
2022-10-27T21:00:00 13.57025 92.36134
2022-10-27T22:00:00 13.24025 88.67662
2022-10-27T23:00:00 13.23025 88.43996
2022-10-28T00:00:00 13.42025 88.69241
2022-10-28T01:00:00 13.37025 88.74702
2022-10-28T02:00:00 13.22025 87.96913
2022-10-28T03:00:00 12.86025 89.89333
2022-10-28T04:00:00 13.00025 89.42685
2022-10-28T05:00:00 13.47025 86.65568
2022-10-28T06:00:00 13.75025 85.42473
2022-10-28T07:00:00 14.65025 81.10381
2022-10-28T08:00:00 15.89025 80.47196
2022-10-28T09:00:00 17.82025 76.93663
2022-10-28T10:00:00 18.76024 73.27091
2022-10-28T11:00:00 20.26024 69.82621
2022-10-28T12:00:00 21.58025 64.85929
2022-10-28T13:00:00 22.44025 62.57377
2022-10-28T14:00:00 22.97025 61.25351
2022-10-28T15:00:00 22.21025 67.20646
2022-10-28T16:00:00 18.19025 82.68715
2022-10-28T17:00:00 15.87025 89.36506
2022-10-28T18:00:00 14.80025 92.91945
2022-10-28T19:00:00 14.06025 94.29206
2022-10-28T20:00:00 14.09025 92.81894
2022-10-28T21:00:00 14.01025 91.17886
2022-10-28T22:00:00 13.35025 91.31435
2022-10-28T23:00:00 13.55025 88.88055
2022-10-29T00:00:00 13.28025 88.73915
2022-10-29T01:00:00 13.00025 88.65547
2022-10-29T02:00:00 13.25025 87.15492
2022-10-29T03:00:00 12.59025 89.15404
2022-10-29T04:00:00 11.99025 90.36713
2022-10-29T05:00:00 11.85025 90.17441
2022-10-29T06:00:00 11.26025 92.3401
2022-10-29T07:00:00 11.66025 89.97759
2022-10-29T08:00:00 13.78025 85.76979
2022-10-29T09:00:00 16.54025 75.77625
2022-10-29T10:00:00 18.26024 71.28666
2022-10-29T11:00:00 20.14025 65.01311
2022-10-29T12:00:00 21.64025 62.55597
2022-10-29T13:00:00 22.26024 61.72784
2022-10-29T14:00:00 22.27025 64.25705
2022-10-29T15:00:00 21.15025 71.86744
2022-10-29T16:00:00 17.96025 85.92205
2022-10-29T17:00:00 15.68025 92.54562
2022-10-29T18:00:00 14.45025 94.37149
2022-10-29T19:00:00 13.68025 95.20943
2022-10-29T20:00:00 13.23025 95.31725
2022-10-29T21:00:00 13.16025 93.3198
2022-10-29T22:00:00 12.61025 92.05668
2022-10-29T23:00:00 12.50025 90.76934
2022-10-30T00:00:00 12.11025 90.43698
2022-10-30T01:00:00 11.78025 92.43513
2022-10-30T02:00:00 11.32025 92.7795
2022-10-30T03:00:00 10.74025 93.62424
2022-10-30T04:00:00 10.39025 93.54145
2022-10-30T05:00:00 10.42025 93.29041
2022-10-30T06:00:00 10.43025 93.41727
2022-10-30T07:00:00 11.25025 90.79769
2022-10-30T08:00:00 12.79025 87.51835
2022-10-30T09:00:00 15.36025 80.98565
2022-10-30T10:00:00 17.18024 76.58353
2022-10-30T11:00:00 18.71025 72.16958
2022-10-30T12:00:00 20.21025 69.09488
2022-10-30T13:00:00 21.04025 66.23228
2022-10-30T14:00:00 21.63025 63.95124
2022-10-30T15:00:00 21.13025 63.67489
2022-10-30T16:00:00 18.86025 76.10582
2022-10-30T17:00:00 14.62025 90.08977
2022-10-30T18:00:00 13.45025 92.47622
2022-10-30T19:00:00 11.88025 94.31413
2022-10-30T20:00:00 10.81025 95.7957
2022-10-30T21:00:00 10.39025 95.84388
2022-10-30T22:00:00 10.55025 94.31156
2022-10-30T23:00:00 10.23025 94.29531
2022-10-31T00:00:00 10.10025 93.65188
2022-10-31T01:00:00 10.12025 92.95702
2022-10-31T02:00:00 10.16025 92.20564
2022-10-31T03:00:00 10.21025 90.84142
2022-10-31T04:00:00 10.03025 90.45721
2022-10-31T05:00:00 9.510245 91.59722
2022-10-31T06:00:00 8.910245 93.96881
2022-10-31T07:00:00 9.640245 91.85689
2022-10-31T08:00:00 11.13025 90.05601
2022-10-31T09:00:00 12.68025 87.62494
2022-10-31T10:00:00 14.16025 82.12539
2022-10-31T11:00:00 15.43025 79.34963
2022-10-31T12:00:00 16.65025 75.9448
2022-10-31T13:00:00 18.35025 69.45237
2022-10-31T14:00:00 18.70025 66.96101
2022-10-31T15:00:00 18.08025 71.77004
2022-10-31T16:00:00 16.06025 77.88302
2022-10-31T17:00:00 14.03025 85.96758
2022-10-31T18:00:00 12.56025 91.8085
2022-10-31T19:00:00 11.93025 93.68889
2022-10-31T20:00:00 11.54025 95.05786
2022-10-31T21:00:00 11.68025 94.68349
2022-10-31T22:00:00 11.83025 94.94355
2022-10-31T23:00:00 11.87025 95.3261
2022-11-01T00:00:00 12.29025 93.2719
2022-11-01T01:00:00 12.49025 93.59384
2022-11-01T02:00:00 12.44025 94.84392
2022-11-01T03:00:00 13.33025 91.55528
2022-11-01T04:00:00 14.02025 89.51034
2022-11-01T05:00:00 14.41025 89.42384
2022-11-01T06:00:00 14.41025 89.83698
2022-11-01T07:00:00 14.32025 90.72146
2022-11-01T08:00:00 14.84025 89.63475
2022-11-01T09:00:00 15.57025 87.77882
2022-11-01T10:00:00 15.86025 86.04434
2022-11-01T11:00:00 16.55025 81.78659
2022-11-01T12:00:00 16.63025 79.68043
2022-11-01T13:00:00 16.64025 76.79975
2022-11-01T14:00:00 16.30025 74.14623
2022-11-01T15:00:00 15.96025 71.65593
2022-11-01T16:00:00 14.59025 76.31264
2022-11-01T17:00:00 13.26025 80.31464
2022-11-01T18:00:00 12.27025 84.6872
2022-11-01T19:00:00 11.59025 87.22382
2022-11-01T20:00:00 10.08025 91.63812
2022-11-01T21:00:00 8.770246 94.15427
2022-11-01T22:00:00 8.260245 95.4288
2022-11-01T23:00:00 8.420245 94.78363
2022-11-02T00:00:00 9.110246 93.97986
2022-11-02T01:00:00 10.06025 92.2616
2022-11-02T02:00:00 10.84025 90.5825
2022-11-02T03:00:00 10.80025 89.84634
2022-11-02T04:00:00 10.89025 90.40276
2022-11-02T05:00:00 10.62025 91.55222
2022-11-02T06:00:00 10.57025 92.04582
2022-11-02T07:00:00 11.17025 89.63442
2022-11-02T08:00:00 12.20025 86.00214
2022-11-02T09:00:00 13.28025 80.58831
2022-11-02T10:00:00 13.70025 81.19027
2022-11-02T11:00:00 14.54025 75.69233
2022-11-02T12:00:00 15.33025 69.96483
2022-11-02T13:00:00 15.92025 66.63565
2022-11-02T14:00:00 16.06025 66.39689
2022-11-02T15:00:00 15.53025 71.23845
2022-11-02T16:00:00 13.13025 82.09965
2022-11-02T17:00:00 10.71025 90.57238
2022-11-02T18:00:00 9.340245 92.97205
2022-11-02T19:00:00 8.550245 94.79012
2022-11-02T20:00:00 7.550245 96.5885
2022-11-02T21:00:00 6.800245 97.36692
2022-11-02T22:00:00 7.290245 94.7916
2022-11-02T23:00:00 6.870246 94.37533
2022-11-03T00:00:00 6.360245 94.80892
2022-11-03T01:00:00 5.820245 95.91545
2022-11-03T02:00:00 5.590245 96.37685
2022-11-03T03:00:00 5.620246 96.71628
2022-11-03T04:00:00 5.640245 96.04185
2022-11-03T05:00:00 5.740245 96.85641
2022-11-03T06:00:00 6.170245 97.54992
2022-11-03T07:00:00 6.650245 97.49729
2022-11-03T08:00:00 7.700245 95.14029
2022-11-03T09:00:00 9.320246 91.20824
2022-11-03T10:00:00 10.81025 88.39682
2022-11-03T11:00:00 11.88025 85.90942
2022-11-03T12:00:00 12.35025 83.67459
2022-11-03T13:00:00 12.61025 83.53766
2022-11-03T14:00:00 12.77025 83.44511
2022-11-03T15:00:00 12.65025 83.93726
2022-11-03T16:00:00 11.83025 88.72959
2022-11-03T17:00:00 11.47025 90.87539
2022-11-03T18:00:00 11.19025 92.14928
2022-11-03T19:00:00 11.07025 93.64243
2022-11-03T20:00:00 11.37025 92.16109
2022-11-03T21:00:00 11.85025 88.31435
2022-11-03T22:00:00 11.22025 84.73589
2022-11-03T23:00:00 10.81025 87.382
2022-11-04T00:00:00 10.58025 88.01534
2022-11-04T01:00:00 10.37025 87.75542
2022-11-04T02:00:00 9.900246 89.09895
2022-11-04T03:00:00 9.630245 89.19666
2022-11-04T04:00:00 9.220245 89.83554
2022-11-04T05:00:00 8.310246 92.46001
2022-11-04T06:00:00 8.090245 91.49247
2022-11-04T07:00:00 8.030246 91.42472
2022-11-04T08:00:00 9.000245 90.68467
2022-11-04T09:00:00 10.42025 83.31741
2022-11-04T10:00:00 11.03025 79.00568
2022-11-04T11:00:00 11.05025 79.28043
2022-11-04T12:00:00 11.02025 79.60296
2022-11-04T13:00:00 10.92025 79.69711
2022-11-04T14:00:00 10.76025 80.99706
2022-11-04T15:00:00 10.49025 81.68481
2022-11-04T16:00:00 9.330245 87.17062
2022-11-04T17:00:00 8.820246 87.41846
2022-11-04T18:00:00 8.770246 87.65515
2022-11-04T19:00:00 8.550245 88.24089
2022-11-04T20:00:00 8.440246 89.27338
2022-11-04T21:00:00 8.340245 90.88212
2022-11-04T22:00:00 7.900245 92.11313
2022-11-04T23:00:00 7.940245 92.88286
2022-11-05T00:00:00 8.100245 93.21405
2022-11-05T01:00:00 8.440246 92.65986
2022-11-05T02:00:00 8.580245 93.17976
2022-11-05T03:00:00 8.700245 93.76411
2022-11-05T04:00:00 8.650246 94.01877
2022-11-05T05:00:00 8.500245 93.36705
2022-11-05T06:00:00 8.420245 91.39114
2022-11-05T07:00:00 8.230246 91.18771
2022-11-05T08:00:00 8.540245 88.17891
2022-11-05T09:00:00 9.200245 86.32016
2022-11-05T10:00:00 9.870245 87.40605
2022-11-05T11:00:00 10.24025 84.09835
2022-11-05T12:00:00 10.41025 81.00238
2022-11-05T13:00:00 10.65025 76.37366
2022-11-05T14:00:00 10.62025 75.52736
2022-11-05T15:00:00 10.33025 74.33065
2022-11-05T16:00:00 8.400246 83.34184
2022-11-05T17:00:00 8.060246 84.58616
2022-11-05T18:00:00 6.830246 89.12416
2022-11-05T19:00:00 4.960245 94.79993
2022-11-05T20:00:00 3.340245 97.73138
2022-11-05T21:00:00 2.970245 98.70106
2022-11-05T22:00:00 4.320245 92.10775
2022-11-05T23:00:00 3.580246 94.85739
2022-11-06T00:00:00 4.110245 93.8135
2022-11-06T01:00:00 4.090245 92.35319
2022-11-06T02:00:00 3.910245 93.20052
2022-11-06T03:00:00 3.620246 94.5892
2022-11-06T04:00:00 3.440246 96.00813
2022-11-06T05:00:00 3.140245 98.14391
2022-11-06T06:00:00 2.800245 98.41438
2022-11-06T07:00:00 2.840245 97.64397
2022-11-06T08:00:00 3.700245 95.74735
2022-11-06T09:00:00 4.740245 92.46711
2022-11-06T10:00:00 6.530245 84.45277
2022-11-06T11:00:00 7.520245 80.12209
2022-11-06T12:00:00 8.350245 77.48251
2022-11-06T13:00:00 8.590245 77.1431
2022-11-06T14:00:00 8.970245 75.92042
2022-11-06T15:00:00 8.910245 77.46848
2022-11-06T16:00:00 8.420245 82.88104
2022-11-06T17:00:00 7.330246 89.60736
2022-11-06T18:00:00 8.210245 84.36929
2022-11-06T19:00:00 8.980246 79.06651
2022-11-06T20:00:00 9.300245 74.60819
2022-11-06T21:00:00 10.34025 67.39771
2022-11-06T22:00:00 9.340245 84.27636
2022-11-06T23:00:00 9.310246 85.32642
2022-11-07T00:00:00 9.010245 87.19721
2022-11-07T01:00:00 9.490245 85.17126
2022-11-07T02:00:00 9.020246 87.62014
2022-11-07T03:00:00 8.120246 89.67793
2022-11-07T04:00:00 7.950245 91.10291
2022-11-07T05:00:00 7.730245 91.08563
2022-11-07T06:00:00 7.500245 91.25741
2022-11-07T07:00:00 7.880245 90.53123
2022-11-07T08:00:00 9.560246 86.3598
2022-11-07T09:00:00 11.34025 82.19395
2022-11-07T10:00:00 13.41025 73.32686
2022-11-07T11:00:00 14.80025 67.94395
2022-11-07T12:00:00 15.69025 63.9771
2022-11-07T13:00:00 16.38025 59.80826
2022-11-07T14:00:00 16.29025 60.1128
2022-11-07T15:00:00 15.13025 66.46392
2022-11-07T16:00:00 14.16025 69.539
2022-11-07T17:00:00 9.890245 87.76783
2022-11-07T18:00:00 8.030246 94.69878
2022-11-07T19:00:00 7.290245 97.31532
2022-11-07T20:00:00 6.500245 98.78691
2022-11-07T21:00:00 6.340245 97.75903
2022-11-07T22:00:00 5.890245 96.32195
2022-11-07T23:00:00 5.520245 95.49883
2022-11-08T00:00:00 5.480245 94.96169
2022-11-08T01:00:00 5.380245 94.42343
2022-11-08T02:00:00 5.330246 93.75781
2022-11-08T03:00:00 5.000245 93.73708
2022-11-08T04:00:00 4.960245 93.86714
2022-11-08T05:00:00 5.090245 93.54438
2022-11-08T06:00:00 5.520245 93.04645
2022-11-08T07:00:00 6.270245 91.41613
2022-11-08T08:00:00 7.620246 87.84209
2022-11-08T09:00:00 9.680245 84.26041
2022-11-08T10:00:00 11.44025 80.3775
2022-11-08T11:00:00 13.59025 70.52082
2022-11-08T12:00:00 15.35025 63.16311
2022-11-08T13:00:00 16.54025 58.75759
2022-11-08T14:00:00 16.52025 61.69907
2022-11-08T15:00:00 15.49025 67.1756
2022-11-08T16:00:00 12.67025 80.7738
2022-11-08T17:00:00 11.21025 86.30312
2022-11-08T18:00:00 10.39025 90.5473
2022-11-08T19:00:00 10.35025 90.66724
2022-11-08T20:00:00 10.20025 91.3359
2022-11-08T21:00:00 9.950245 90.26605
2022-11-08T22:00:00 9.690246 87.02875
2022-11-08T23:00:00 10.13025 84.83813
2022-11-09T00:00:00 10.41025 84.35016
2022-11-09T01:00:00 10.59025 83.22522
2022-11-09T02:00:00 10.84025 86.85204
2022-11-09T03:00:00 10.91025 92.31748
2022-11-09T04:00:00 11.02025 94.97122
2022-11-09T05:00:00 11.42025 94.54468
2022-11-09T06:00:00 11.47025 95.4372
2022-11-09T07:00:00 11.60025 95.88984
2022-11-09T08:00:00 11.68025 95.31829
2022-11-09T09:00:00 12.28025 94.14523
2022-11-09T10:00:00 13.11025 88.72425
2022-11-09T11:00:00 13.36025 88.86419
2022-11-09T12:00:00 13.56025 89.29514
2022-11-09T13:00:00 13.21025 91.91208
2022-11-09T14:00:00 12.72025 94.41692
2022-11-09T15:00:00 12.54025 95.92387
2022-11-09T16:00:00 12.31025 95.97938
2022-11-09T17:00:00 12.16025 94.95795
2022-11-09T18:00:00 11.93025 95.96585
2022-11-09T19:00:00 11.69025 96.53503
2022-11-09T20:00:00 11.51025 96.78744
2022-11-09T21:00:00 11.35025 96.71792
2022-11-09T22:00:00 11.34025 94.47749
2022-11-09T23:00:00 11.21025 94.85235
2022-11-10T00:00:00 10.24025 96.55225
2022-11-10T01:00:00 10.24025 97.20561
2022-11-10T02:00:00 9.490245 98.84389
2022-11-10T03:00:00 10.13025 97.79428
2022-11-10T04:00:00 10.03025 97.7259
2022-11-10T05:00:00 9.580245 98.24529
2022-11-10T06:00:00 8.670245 98.56059
2022-11-10T07:00:00 8.950245 96.31012
2022-11-10T08:00:00 9.380245 95.02464
2022-11-10T09:00:00 10.31025 92.90567
2022-11-10T10:00:00 11.37025 88.98813
2022-11-10T11:00:00 12.42025 85.33431
2022-11-10T12:00:00 13.20025 81.99866
2022-11-10T13:00:00 13.80025 78.314
2022-11-10T14:00:00 14.01025 76.42143
2022-11-10T15:00:00 13.16025 82.71261
2022-11-10T16:00:00 11.39025 85.50704
2022-11-10T17:00:00 8.980246 94.35893
2022-11-10T18:00:00 7.500245 97.38909
2022-11-10T19:00:00 6.750245 97.29782
2022-11-10T20:00:00 6.520245 95.87982
2022-11-10T21:00:00 6.320245 95.27107
2022-11-10T22:00:00 5.930245 94.91885
2022-11-10T23:00:00 5.620246 95.63776
2022-11-11T00:00:00 5.600246 95.50272
2022-11-11T01:00:00 5.250245 95.35128
2022-11-11T02:00:00 4.900245 95.19906
2022-11-11T03:00:00 5.550245 93.114
2022-11-11T04:00:00 5.860245 92.48275
2022-11-11T05:00:00 6.120246 93.41326
2022-11-11T06:00:00 6.110245 93.67468
2022-11-11T07:00:00 6.350246 92.77677
2022-11-11T08:00:00 6.940245 93.07555
2022-11-11T09:00:00 8.110246 91.49397
2022-11-11T10:00:00 9.410245 90.28358
2022-11-11T11:00:00 10.38025 86.80383
2022-11-11T12:00:00 11.23025 83.42104
2022-11-11T13:00:00 11.91025 80.00915
2022-11-11T14:00:00 12.07025 80.52391
2022-11-11T15:00:00 11.18025 85.54141
2022-11-11T16:00:00 10.48025 85.57876
2022-11-11T17:00:00 8.500245 93.17479
2022-11-11T18:00:00 7.800245 94.88308
2022-11-11T19:00:00 7.200245 95.512
2022-11-11T20:00:00 6.750245 94.10628
2022-11-11T21:00:00 6.640245 93.44621
2022-11-11T22:00:00 6.200245 93.74581
2022-11-11T23:00:00 6.210245 93.74642
2022-11-12T00:00:00 6.080246 93.01875
2022-11-12T01:00:00 6.050245 91.78481
2022-11-12T02:00:00 6.170245 90.70488
2022-11-12T03:00:00 6.180245 90.19722
2022-11-12T04:00:00 5.920245 92.87751
2022-11-12T05:00:00 5.490245 92.58664
2022-11-12T06:00:00 5.740245 91.37415
2022-11-12T07:00:00 5.520245 93.11199
2022-11-12T08:00:00 6.310246 92.25585
2022-11-12T09:00:00 7.310246 91.43314
2022-11-12T10:00:00 7.880245 90.65678
2022-11-12T11:00:00 8.710245 87.34666
2022-11-12T12:00:00 9.220245 84.61163
2022-11-12T13:00:00 9.640245 84.48797
2022-11-12T14:00:00 9.700245 86.61269
2022-11-12T15:00:00 9.640245 88.95364
2022-11-12T16:00:00 9.530245 86.41592
2022-11-12T17:00:00 7.970245 93.78641
2022-11-12T18:00:00 7.620246 94.48161
2022-11-12T19:00:00 6.990245 95.90046
2022-11-12T20:00:00 6.310246 95.80364
2022-11-12T21:00:00 6.120246 96.66817
2022-11-12T22:00:00 5.570245 94.83316
2022-11-12T23:00:00 5.450245 94.22836
2022-11-13T00:00:00 5.230245 92.56809
2022-11-13T01:00:00 5.200245 91.5248
2022-11-13T02:00:00 4.900245 91.56575
2022-11-13T03:00:00 4.510245 91.66484
2022-11-13T04:00:00 4.490245 91.9898
2022-11-13T05:00:00 4.640245 90.38053
2022-11-13T06:00:00 4.330246 90.93478
2022-11-13T07:00:00 4.290246 91.97434
2022-11-13T08:00:00 5.280245 88.91184
2022-11-13T09:00:00 6.050245 88.54894
2022-11-13T10:00:00 6.450245 87.28951
2022-11-13T11:00:00 6.900245 85.51686
2022-11-13T12:00:00 7.160245 84.8898
2022-11-13T13:00:00 7.420245 83.56261
2022-11-13T14:00:00 7.350246 84.43805
2022-11-13T15:00:00 7.150245 89.09204
2022-11-13T16:00:00 7.370246 84.44058
2022-11-13T17:00:00 6.080246 89.61896
2022-11-13T18:00:00 5.190245 93.15547
2022-11-13T19:00:00 4.760245 95.7989
2022-11-13T20:00:00 4.590245 95.92635
2022-11-13T21:00:00 4.640245 96.20024
2022-11-13T22:00:00 4.480246 93.23949
2022-11-13T23:00:00 4.200245 93.88599
2022-11-14T00:00:00 4.160245 94.68793
2022-11-14T01:00:00 4.260245 94.15707
2022-11-14T02:00:00 4.290246 94.35975
2022-11-14T03:00:00 4.610245 95.18388
2022-11-14T04:00:00 4.600246 95.72356
2022-11-14T05:00:00 5.240245 94.34887
2022-11-14T06:00:00 6.170245 92.11644
2022-11-14T07:00:00 7.010245 90.1433
2022-11-14T08:00:00 7.810246 89.40176
2022-11-14T09:00:00 8.790245 86.57356
2022-11-14T10:00:00 9.870245 89.76811
2022-11-14T11:00:00 10.60025 89.70782
2022-11-14T12:00:00 11.50025 86.62685
2022-11-14T13:00:00 12.26025 80.11514
2022-11-14T14:00:00 12.86025 78.11379
2022-11-14T15:00:00 12.87025 75.71333
2022-11-14T16:00:00 12.32025 77.6041
2022-11-14T17:00:00 11.55025 79.95572
2022-11-14T18:00:00 10.61025 85.53512
2022-11-14T19:00:00 9.420245 90.47001
2022-11-14T20:00:00 8.350245 94.19604
2022-11-14T21:00:00 7.950245 95.54612
2022-11-14T22:00:00 8.040245 93.40334
2022-11-14T23:00:00 8.000245 93.78816
2022-11-15T00:00:00 7.900245 93.97663
2022-11-15T01:00:00 8.640245 90.90583
2022-11-15T02:00:00 9.100245 88.23374
2022-11-15T03:00:00 9.520246 87.01088
2022-11-15T04:00:00 9.550245 87.67374
2022-11-15T05:00:00 9.620245 88.34456
2022-11-15T06:00:00 9.480246 89.3055
2022-11-15T07:00:00 9.230246 91.32644
2022-11-15T08:00:00 9.540245 89.80135
2022-11-15T09:00:00 9.930245 89.04083
2022-11-15T10:00:00 10.26025 90.41402
2022-11-15T11:00:00 10.96025 89.85961
2022-11-15T12:00:00 11.88025 86.02552
2022-11-15T13:00:00 12.23025 83.04011
2022-11-15T14:00:00 12.23025 83.37759
2022-11-15T15:00:00 11.79025 85.43631
2022-11-15T16:00:00 11.57025 85.93362
2022-11-15T17:00:00 10.86025 88.46149
2022-11-15T18:00:00 10.43025 89.51073
2022-11-15T19:00:00 9.940246 91.62813
2022-11-15T20:00:00 9.800245 92.74783
2022-11-15T21:00:00 9.570246 94.71102
2022-11-15T22:00:00 9.980246 95.95752
2022-11-15T23:00:00 9.970245 96.8045
2022-11-16T00:00:00 9.920245 96.86836
2022-11-16T01:00:00 10.14025 95.9637
2022-11-16T02:00:00 10.64025 94.37974
2022-11-16T03:00:00 10.53025 93.80248
2022-11-16T04:00:00 9.860246 94.8537
2022-11-16T05:00:00 9.160245 94.62628
2022-11-16T06:00:00 9.150246 94.1105
2022-11-16T07:00:00 9.170245 94.04736
2022-11-16T08:00:00 9.630245 93.6253
2022-11-16T09:00:00 11.09025 88.30322
2022-11-16T10:00:00 12.38025 81.94405
2022-11-16T11:00:00 13.10025 76.57983
2022-11-16T12:00:00 13.62025 72.57272
2022-11-16T13:00:00 13.94025 69.96896
2022-11-16T14:00:00 14.02025 68.94427
2022-11-16T15:00:00 12.90025 75.71851
2022-11-16T16:00:00 12.52025 72.91066
2022-11-16T17:00:00 10.22025 83.23438
2022-11-16T18:00:00 9.190246 87.03597
2022-11-16T19:00:00 7.800245 92.55316
2022-11-16T20:00:00 7.240245 95.38169
2022-11-16T21:00:00 7.910245 93.13783
2022-11-16T22:00:00 8.660245 91.97662
2022-11-16T23:00:00 8.810246 92.93874
2022-11-17T00:00:00 9.330245 90.46274
2022-11-17T01:00:00 9.900246 87.22974
2022-11-17T02:00:00 10.56025 84.71527
2022-11-17T03:00:00 10.70025 84.15515
2022-11-17T04:00:00 11.90025 80.00767
2022-11-17T05:00:00 12.55025 79.83241
2022-11-17T06:00:00 12.52025 82.35136
2022-11-17T07:00:00 11.85025 80.98657
2022-11-17T08:00:00 12.27025 75.81633
2022-11-17T09:00:00 12.68025 72.49288
2022-11-17T10:00:00 13.29025 66.37664
2022-11-17T11:00:00 13.91025 65.33794
2022-11-17T12:00:00 14.24025 63.59815
2022-11-17T13:00:00 14.39025 61.60941
2022-11-17T14:00:00 14.09025 64.44306
2022-11-17T15:00:00 13.85025 65.05558
2022-11-17T16:00:00 12.46025 74.97383
2022-11-17T17:00:00 11.90025 80.88357
2022-11-17T18:00:00 11.30025 84.74533
2022-11-17T19:00:00 11.01025 86.81075
2022-11-17T20:00:00 10.67025 90.56925
2022-11-17T21:00:00 10.60025 90.19607
2022-11-17T22:00:00 10.08025 91.51359
2022-11-17T23:00:00 9.770246 92.61977
2022-11-18T00:00:00 9.560246 93.11253
2022-11-18T01:00:00 9.510245 90.23002
2022-11-18T02:00:00 9.520246 87.61054
2022-11-18T03:00:00 9.380245 87.77718
2022-11-18T04:00:00 8.960245 89.01352
2022-11-18T05:00:00 8.800245 90.54404
2022-11-18T06:00:00 8.490246 91.83803
2022-11-18T07:00:00 8.460245 92.47015
2022-11-18T08:00:00 8.680245 91.28503
2022-11-18T09:00:00 9.080245 88.7189
2022-11-18T10:00:00 9.320246 86.21454
2022-11-18T11:00:00 9.670245 87.20598
2022-11-18T12:00:00 9.970245 85.28612
2022-11-18T13:00:00 9.950245 82.85622
2022-11-18T14:00:00 9.930245 79.05164
2022-11-18T15:00:00 9.480246 79.58673
2022-11-18T16:00:00 8.390245 82.9348
2022-11-18T17:00:00 7.840245 84.61787
2022-11-18T18:00:00 7.690245 85.49117
2022-11-18T19:00:00 8.050245 85.35513
2022-11-18T20:00:00 7.620246 88.4562
2022-11-18T21:00:00 7.610245 89.01118
2022-11-18T22:00:00 7.090245 93.0206
2022-11-18T23:00:00 7.100246 93.86529
2022-11-19T00:00:00 6.560246 94.35806
2022-11-19T01:00:00 6.520245 94.42163
2022-11-19T02:00:00 6.880245 93.26626
2022-11-19T03:00:00 6.810246 92.80798
2022-11-19T04:00:00 6.630245 93.25023
2022-11-19T05:00:00 6.210245 93.41901
2022-11-19T06:00:00 6.270245 93.88129
2022-11-19T07:00:00 6.410245 93.88966
2022-11-19T08:00:00 7.290245 92.45408
2022-11-19T09:00:00 7.880245 89.71886
2022-11-19T10:00:00 8.440246 87.98616
2022-11-19T11:00:00 9.160245 82.75057
2022-11-19T12:00:00 9.550245 79.37677
2022-11-19T13:00:00 9.790245 76.54359
2022-11-19T14:00:00 9.670245 74.20805
2022-11-19T15:00:00 9.270246 76.66745
2022-11-19T16:00:00 8.380245 80.93075
2022-11-19T17:00:00 8.190246 82.44564
2022-11-19T18:00:00 7.750245 85.14066
2022-11-19T19:00:00 7.760245 85.3205
2022-11-19T20:00:00 7.420245 85.63876
2022-11-19T21:00:00 6.950245 88.14272
2022-11-19T22:00:00 6.150245 91.40669
2022-11-19T23:00:00 5.610245 92.07491
2022-11-20T00:00:00 5.340245 92.18472
2022-11-20T01:00:00 5.390245 92.18844
2022-11-20T02:00:00 6.030245 91.01254
2022-11-20T03:00:00 6.370246 90.40397
2022-11-20T04:00:00 6.460245 89.65379
2022-11-20T05:00:00 6.350246 90.78363
2022-11-20T06:00:00 6.440245 90.3466
2022-11-20T07:00:00 6.630245 88.79321
2022-11-20T08:00:00 6.740245 88.05959
2022-11-20T09:00:00 7.100246 86.20366
2022-11-20T10:00:00 7.690245 81.91476
2022-11-20T11:00:00 8.470245 77.01418
2022-11-20T12:00:00 8.660245 73.86164
2022-11-20T13:00:00 8.970245 69.71318
2022-11-20T14:00:00 8.830245 70.27873
2022-11-20T15:00:00 8.270246 73.83939
2022-11-20T16:00:00 7.250245 78.89957
2022-11-20T17:00:00 7.260245 79.46146
2022-11-20T18:00:00 7.120246 77.82255
2022-11-20T19:00:00 6.660245 80.61523
2022-11-20T20:00:00 5.790245 87.65078
2022-11-20T21:00:00 5.920245 89.47791
2022-11-20T22:00:00 6.320245 91.35599
2022-11-20T23:00:00 6.410245 89.96444
2022-11-21T00:00:00 6.880245 87.091
2022-11-21T01:00:00 6.900245 85.99918
2022-11-21T02:00:00 6.950245 86.48954
2022-11-21T03:00:00 6.960245 87.8971
2022-11-21T04:00:00 7.050245 88.39994
2022-11-21T05:00:00 6.900245 89.38059
2022-11-21T06:00:00 6.780245 89.80853
2022-11-21T07:00:00 6.950245 89.44774
2022-11-21T08:00:00 7.220245 88.29331
2022-11-21T09:00:00 7.810246 85.44573
2022-11-21T10:00:00 8.950245 75.91686
2022-11-21T11:00:00 9.540245 72.74202
2022-11-21T12:00:00 9.600245 72.24501
2022-11-21T13:00:00 9.670245 71.20115
2022-11-21T14:00:00 9.460245 72.06516
2022-11-21T15:00:00 8.520246 79.38149
2022-11-21T16:00:00 6.870246 84.85384
2022-11-21T17:00:00 7.290245 83.66293
2022-11-21T18:00:00 7.700245 82.66705
2022-11-21T19:00:00 7.160245 89.40456
2022-11-21T20:00:00 7.340245 88.9857
2022-11-21T21:00:00 7.570245 88.14367
2022-11-21T22:00:00 7.090245 92.6333
2022-11-21T23:00:00 7.480245 90.62392
2022-11-22T00:00:00 8.110246 90.36244
2022-11-22T01:00:00 7.880245 91.85722
2022-11-22T02:00:00 7.640245 90.76304
2022-11-22T03:00:00 7.380245 89.67431
2022-11-22T04:00:00 6.990245 89.26402
2022-11-22T05:00:00 6.700245 89.42468
2022-11-22T06:00:00 6.540245 88.28692
2022-11-22T07:00:00 6.430245 86.9192
2022-11-22T08:00:00 6.510245 85.59062
2022-11-22T09:00:00 6.870246 82.78541
2022-11-22T10:00:00 7.740245 78.97897
2022-11-22T11:00:00 8.210245 75.5174
2022-11-22T12:00:00 8.780245 70.46773
2022-11-22T13:00:00 8.910245 69.79929
2022-11-22T14:00:00 8.720245 71.208
2022-11-22T15:00:00 8.350245 75.70277
2022-11-22T16:00:00 8.050245 79.08445
2022-11-22T17:00:00 7.650245 82.37056
2022-11-22T18:00:00 7.480245 82.9858
2022-11-22T19:00:00 7.130245 84.82647
2022-11-22T20:00:00 6.970245 85.04553
2022-11-22T21:00:00 6.670245 85.54949
2022-11-22T22:00:00 6.120246 85.48314
2022-11-22T23:00:00 6.200245 86.22118
2022-11-23T00:00:00 6.020245 87.48967
2022-11-23T01:00:00 5.790245 88.71075
2022-11-23T02:00:00 4.740245 92.33604
2022-11-23T03:00:00 3.960246 94.60908
2022-11-23T04:00:00 2.910245 97.29771
2022-11-23T05:00:00 2.110245 98.11047
2022-11-23T06:00:00 1.880245 96.48721
2022-11-23T07:00:00 1.780245 95.78694
2022-11-23T08:00:00 3.080246 90.95733
2022-11-23T09:00:00 5.360245 84.7235
2022-11-23T10:00:00 7.730245 76.99484
2022-11-23T11:00:00 8.960245 71.40838
2022-11-23T12:00:00 9.860246 66.62817
2022-11-23T13:00:00 10.22025 62.63726
2022-11-23T14:00:00 10.14025 62.30678
2022-11-23T15:00:00 9.690246 64.35951
2022-11-23T16:00:00 8.100245 82.54857
2022-11-23T17:00:00 8.210245 89.62385
2022-11-23T18:00:00 8.800245 90.35738
2022-11-23T19:00:00 8.700245 89.60528
2022-11-23T20:00:00 8.300245 89.94218
2022-11-23T21:00:00 8.320246 90.94328
2022-11-23T22:00:00 8.510245 90.33335
2022-11-23T23:00:00 8.180245 90.80663
2022-11-24T00:00:00 8.260245 88.39589
2022-11-24T01:00:00 8.250245 89.93787
2022-11-24T02:00:00 8.020246 90.6682
2022-11-24T03:00:00 8.020246 90.79378
2022-11-24T04:00:00 8.030246 90.48094
2022-11-24T05:00:00 8.350245 88.89549
2022-11-24T06:00:00 8.730246 87.04734
2022-11-24T07:00:00 8.760245 86.69011
2022-11-24T08:00:00 8.870245 87.60486
2022-11-24T09:00:00 9.180245 88.30223
2022-11-24T10:00:00 9.550245 89.31171
2022-11-24T11:00:00 10.05025 84.24818
2022-11-24T12:00:00 10.73025 78.95886
2022-11-24T13:00:00 11.14025 74.47945
2022-11-24T14:00:00 11.02025 73.89295
2022-11-24T15:00:00 10.16025 80.13271
2022-11-24T16:00:00 7.390245 89.73769
2022-11-24T17:00:00 5.090245 96.96771
2022-11-24T18:00:00 4.020246 99.28939
2022-11-24T19:00:00 4.250246 98.87425
2022-11-24T20:00:00 3.840245 98.72417
2022-11-24T21:00:00 3.570245 98.5769
2022-11-24T22:00:00 3.930245 97.19811
2022-11-24T23:00:00 4.320245 96.18584
2022-11-25T00:00:00 4.590245 95.58775
2022-11-25T01:00:00 4.660245 93.98145
2022-11-25T02:00:00 4.690245 94.31661
2022-11-25T03:00:00 4.610245 94.64642
2022-11-25T04:00:00 4.640245 95.25282
2022-11-25T05:00:00 4.710245 95.93198
2022-11-25T06:00:00 4.730245 96.34017
2022-11-25T07:00:00 4.350246 97.28265
2022-11-25T08:00:00 5.360245 93.56172
2022-11-25T09:00:00 6.640245 92.92613
2022-11-25T10:00:00 7.930245 91.22754
2022-11-25T11:00:00 9.050245 90.56425
2022-11-25T12:00:00 10.03025 84.59358
2022-11-25T13:00:00 10.46025 83.09438
2022-11-25T14:00:00 10.50025 81.01534
2022-11-25T15:00:00 9.420245 88.14364
2022-11-25T16:00:00 8.030246 88.6191
2022-11-25T17:00:00 7.390245 91.56647
2022-11-25T18:00:00 6.480245 93.76288
2022-11-25T19:00:00 6.770245 93.7804
2022-11-25T20:00:00 6.430245 95.40939
2022-11-25T21:00:00 6.420245 96.34385
2022-11-25T22:00:00 6.000245 97.06924
2022-11-25T23:00:00 6.070245 96.46404
2022-11-26T00:00:00 5.670245 97.39746
2022-11-26T01:00:00 5.290245 96.83918
2022-11-26T02:00:00 4.820245 97.71172
2022-11-26T03:00:00 4.990245 97.71721
2022-11-26T04:00:00 4.340245 98.04182
2022-11-26T05:00:00 3.330246 98.85145
2022-11-26T06:00:00 3.590245 98.43743
2022-11-26T07:00:00 3.920245 98.16797
2022-11-26T08:00:00 4.200245 99.08289
2022-11-26T09:00:00 4.950245 96.62158
2022-11-26T10:00:00 6.110245 94.53085
2022-11-26T11:00:00 7.080246 93.99457
2022-11-26T12:00:00 7.880245 90.65678
2022-11-26T13:00:00 8.570246 85.00269
2022-11-26T14:00:00 8.520246 83.4738
2022-11-26T15:00:00 8.090245 82.95222
2022-11-26T16:00:00 8.080246 85.3587
2022-11-26T17:00:00 7.380245 87.57244
2022-11-26T18:00:00 5.180245 93.22059
2022-11-26T19:00:00 3.340245 95.72935
2022-11-26T20:00:00 3.190246 95.79029
2022-11-26T21:00:00 3.020246 95.57607
2022-11-26T22:00:00 3.240245 95.38255
2022-11-26T23:00:00 2.830246 96.25423
2022-11-27T00:00:00 2.490245 95.41072
2022-11-27T01:00:00 2.450245 94.99708
2022-11-27T02:00:00 2.120246 95.11533
2022-11-27T03:00:00 1.630245 95.50174
2022-11-27T04:00:00 1.940245 95.44961
2022-11-27T05:00:00 1.880245 97.82008
2022-11-27T06:00:00 1.910245 98.31617
2022-11-27T07:00:00 2.070245 97.68604
2022-11-27T08:00:00 2.560246 96.31067
2022-11-27T09:00:00 3.390245 91.96956
2022-11-27T10:00:00 4.680245 88.47295
2022-11-27T11:00:00 5.740245 84.4111
2022-11-27T12:00:00 6.780245 79.49758
2022-11-27T13:00:00 7.450245 74.26111
2022-11-27T14:00:00 7.490245 75.7616
2022-11-27T15:00:00 7.170245 82.24519
2022-11-27T16:00:00 5.410245 90.89702
2022-11-27T17:00:00 5.770245 90.16105
2022-11-27T18:00:00 5.450245 91.48002
2022-11-27T19:00:00 5.240245 91.14035
2022-11-27T20:00:00 5.040245 89.77654
2022-11-27T21:00:00 5.220245 87.96388
2022-11-27T22:00:00 4.970245 84.6129
2022-11-27T23:00:00 4.830246 85.50782
2022-11-28T00:00:00 4.820245 86.49014
2022-11-28T01:00:00 4.770245 86.54614
2022-11-28T02:00:00 4.660245 86.78122
2022-11-28T03:00:00 4.870246 85.81895
2022-11-28T04:00:00 4.890245 86.37486
2022-11-28T05:00:00 4.780245 87.72934
2022-11-28T06:00:00 4.580246 90.05392
2022-11-28T07:00:00 4.360245 91.45723
2022-11-28T08:00:00 4.930245 91.05013
2022-11-28T09:00:00 6.020245 87.79918
2022-11-28T10:00:00 6.930245 86.85233
2022-11-28T11:00:00 7.830246 86.6484
2022-11-28T12:00:00 8.480246 85.28754
2022-11-28T13:00:00 8.870245 84.97987
2022-11-28T14:00:00 8.850245 85.68649
2022-11-28T15:00:00 8.770246 86.63126
2022-11-28T16:00:00 8.480246 88.17299
2022-11-28T17:00:00 8.560246 86.30875
2022-11-28T18:00:00 8.610246 88.12487
2022-11-28T19:00:00 8.520246 91.27287
2022-11-28T20:00:00 8.380245 94.19766
2022-11-28T21:00:00 8.240246 94.44944
2022-11-28T22:00:00 7.860245 94.16907
2022-11-28T23:00:00 7.700245 93.83543
2022-11-29T00:00:00 7.570245 94.47894
2022-11-29T01:00:00 7.050245 95.43886
2022-11-29T02:00:00 7.010245 95.70207
2022-11-29T03:00:00 6.600246 96.95561
2022-11-29T04:00:00 6.670245 96.42098
2022-11-29T05:00:00 6.770245 96.22436
2022-11-29T06:00:00 6.450245 97.49096
2022-11-29T07:00:00 6.520245 97.56092
2022-11-29T08:00:00 6.840245 97.166
2022-11-29T09:00:00 7.560246 94.47839
2022-11-29T10:00:00 8.480246 90.20631
2022-11-29T11:00:00 8.990245 87.13497
2022-11-29T12:00:00 9.070246 84.76902
2022-11-29T13:00:00 9.180245 82.86804
2022-11-29T14:00:00 8.920245 85.45776
2022-11-29T15:00:00 8.470245 89.39954
2022-11-29T16:00:00 7.800245 94.16574
2022-11-29T17:00:00 7.570245 96.52268
2022-11-29T18:00:00 7.520245 96.25481
2022-11-29T19:00:00 7.590245 95.72787
2022-11-29T20:00:00 7.500245 96.38695
2022-11-29T21:00:00 7.490245 97.05368
2022-11-29T22:00:00 7.460245 98.80673
2022-11-29T23:00:00 7.230245 99.75989
2022-11-30T00:00:00 7.080246 99.8268
2022-11-30T01:00:00 6.910245 99.7558
2022-11-30T02:00:00 6.720245 99.40888
2022-11-30T03:00:00 6.640245 98.99542
2022-11-30T04:00:00 6.680245 98.72234
2022-11-30T05:00:00 6.600246 98.37901
2022-11-30T06:00:00 6.520245 98.10432
2022-11-30T07:00:00 6.690245 97.1609
2022-11-30T08:00:00 6.840245 95.82736
2022-11-30T09:00:00 6.970245 93.40186
2022-11-30T10:00:00 7.450245 89.30666
2022-11-30T11:00:00 7.560246 89.19254
2022-11-30T12:00:00 7.650245 88.0903
2022-11-30T13:00:00 7.730245 86.03494
2022-11-30T14:00:00 7.620246 82.25075
2022-11-30T15:00:00 7.090245 86.02126
2022-11-30T16:00:00 6.350246 88.70349
2022-11-30T17:00:00 5.720245 89.2698
2022-11-30T18:00:00 5.600246 89.38468
2022-11-30T19:00:00 5.560246 89.50742
2022-11-30T20:00:00 5.000245 90.92691
2022-11-30T21:00:00 5.140245 90.48879
2022-11-30T22:00:00 5.410245 91.80035
2022-11-30T23:00:00 5.280245 92.63704
2022-12-01T00:00:00 5.510245 92.06743
2022-12-01T01:00:00 5.030245 92.22682
2022-12-01T02:00:00 5.050245 92.16306
2022-12-01T03:00:00 5.030245 91.44646
2022-12-01T04:00:00 4.570245 92.38899
2022-12-01T05:00:00 4.270246 92.56418
2022-12-01T06:00:00 4.200245 92.49313
2022-12-01T07:00:00 4.000246 92.21469
2022-12-01T08:00:00 4.130245 91.24285
2022-12-01T09:00:00 4.230246 88.29995
2022-12-01T10:00:00 4.500246 83.46517
2022-12-01T11:00:00 4.760245 79.85786
2022-12-01T12:00:00 5.000245 76.95444
2022-12-01T13:00:00 5.060246 76.02467
2022-12-01T14:00:00 4.900245 77.60725
2022-12-01T15:00:00 4.710245 79.44734
2022-12-01T16:00:00 4.410245 83.27273
2022-12-01T17:00:00 4.420245 85.27322
2022-12-01T18:00:00 4.320245 86.86655
2022-12-01T19:00:00 3.850246 89.66463
2022-12-01T20:00:00 4.070245 88.85452
2022-12-01T21:00:00 3.810246 89.66081
2022-12-01T22:00:00 3.760245 90.36618
2022-12-01T23:00:00 3.880245 91.09149
2022-12-02T00:00:00 3.860245 92.00651
2022-12-02T01:00:00 3.730246 92.45818
2022-12-02T02:00:00 3.690246 93.45206
2022-12-02T03:00:00 3.700245 93.58633
2022-12-02T04:00:00 3.620246 94.31942
2022-12-02T05:00:00 3.500246 94.92062
2022-12-02T06:00:00 3.820245 93.46079
2022-12-02T07:00:00 3.750246 94.93466
2022-12-02T08:00:00 3.810246 94.46556
2022-12-02T09:00:00 4.110245 93.21427
2022-12-02T10:00:00 4.050245 93.47618
2022-12-02T11:00:00 4.360245 92.24202
2022-12-02T12:00:00 4.650245 88.72266
2022-12-02T13:00:00 4.910245 87.61835
2022-12-02T14:00:00 4.890245 87.92896
2022-12-02T15:00:00 4.670245 89.61434
2022-12-02T16:00:00 4.270246 93.95718
2022-12-02T17:00:00 3.590245 97.25433
2022-12-02T18:00:00 3.360245 97.73206
2022-12-02T19:00:00 2.730246 98.13083
2022-12-02T20:00:00 2.060246 98.25019
2022-12-02T21:00:00 1.810245 98.24206
2022-12-02T22:00:00 1.860245 96.41657
2022-12-02T23:00:00 1.900245 95.86251
2022-12-03T00:00:00 1.740246 95.57697
2022-12-03T01:00:00 1.530245 95.21943
2022-12-03T02:00:00 1.470245 94.18372
2022-12-03T03:00:00 1.520245 93.98181
2022-12-03T04:00:00 1.990246 93.40202
2022-12-03T05:00:00 1.640245 92.63325
2022-12-03T06:00:00 1.880245 92.24882
2022-12-03T07:00:00 1.940245 92.45472
2022-12-03T08:00:00 2.080246 91.19959
2022-12-03T09:00:00 2.170245 90.02297
2022-12-03T10:00:00 2.240245 90.61987
2022-12-03T11:00:00 2.540246 90.05819
2022-12-03T12:00:00 2.750246 89.75283
2022-12-03T13:00:00 3.220245 86.9273
2022-12-03T14:00:00 3.470245 86.70549
2022-12-03T15:00:00 3.340245 88.14222
2022-12-03T16:00:00 2.820245 91.32925
2022-12-03T17:00:00 2.190245 92.80957
2022-12-03T18:00:00 2.100246 92.5342
2022-12-03T19:00:00 2.030245 92.79758
2022-12-03T20:00:00 1.840245 92.71591
2022-12-03T21:00:00 1.590245 92.83185
2022-12-03T22:00:00 1.420245 90.94215
2022-12-03T23:00:00 1.400245 90.5425
2022-12-04T00:00:00 1.510245 90.35455
2022-12-04T01:00:00 1.400245 90.87393
2022-12-04T02:00:00 0.920245 91.36459
2022-12-04T03:00:00 0.800245 91.22006
2022-12-04T04:00:00 1.600245 87.75873
2022-12-04T05:00:00 1.550245 88.26875
2022-12-04T06:00:00 1.750246 87.45519
2022-12-04T07:00:00 1.830245 87.33655
2022-12-04T08:00:00 1.840245 86.25788
2022-12-04T09:00:00 1.930245 87.92422
2022-12-04T10:00:00 2.490245 86.96831
2022-12-04T11:00:00 2.650245 86.98702
2022-12-04T12:00:00 2.880245 87.39321
2022-12-04T13:00:00 3.100246 86.59917
2022-12-04T14:00:00 3.000246 89.45335
2022-12-04T15:00:00 2.850246 90.15256
2022-12-04T16:00:00 2.540246 92.70165
2022-12-04T17:00:00 2.500246 93.64021
2022-12-04T18:00:00 2.430245 94.44965
2022-12-04T19:00:00 2.400245 96.09539
2022-12-04T20:00:00 2.430245 95.68269
2022-12-04T21:00:00 2.470245 95.61594
2022-12-04T22:00:00 2.330246 93.02159
2022-12-04T23:00:00 2.160245 94.22833
2022-12-05T00:00:00 2.110245 93.47813
2022-12-05T01:00:00 2.020246 93.47184
2022-12-05T02:00:00 2.380245 93.36191
2022-12-05T03:00:00 2.900245 93.46534
2022-12-05T04:00:00 2.950245 94.41367
2022-12-05T05:00:00 3.120246 93.68188
2022-12-05T06:00:00 3.280245 93.29035
2022-12-05T07:00:00 3.940246 91.88136
2022-12-05T08:00:00 3.990245 92.41161
2022-12-05T09:00:00 4.770245 91.36058
2022-12-05T10:00:00 4.920245 91.1139
2022-12-05T11:00:00 5.160245 88.64782
2022-12-05T12:00:00 5.910245 83.59744
2022-12-05T13:00:00 6.210245 80.54618
2022-12-05T14:00:00 6.150245 80.42224
2022-12-05T15:00:00 5.650245 86.40189
2022-12-05T16:00:00 4.680245 88.28381
2022-12-05T17:00:00 2.690246 93.45087
2022-12-05T18:00:00 1.860245 95.03159
2022-12-05T19:00:00 0.850245 95.66752
2022-12-05T20:00:00 0.740245 95.03455
2022-12-05T21:00:00 0.180245 95.77074
2022-12-05T22:00:00 1.040245 93.74393
2022-12-05T23:00:00 0.820245 94.14076
2022-12-06T00:00:00 0.550245 94.95358
2022-12-06T01:00:00 0.300245 94.79908
2022-12-06T02:00:00 -0.27975 95.18251
2022-12-06T03:00:00 -0.45975 95.80568
2022-12-06T04:00:00 -0.08975 95.96722
2022-12-06T05:00:00 0.450245 95.50547
2022-12-06T06:00:00 0.460245 95.43613
2022-12-06T07:00:00 0.380245 96.20345
2022-12-06T08:00:00 1.050245 94.84538
2022-12-06T09:00:00 1.920245 92.45317
2022-12-06T10:00:00 2.260245 93.01648
2022-12-06T11:00:00 3.260245 89.86651
2022-12-06T12:00:00 3.940246 86.76035
2022-12-06T13:00:00 4.410245 83.93449
2022-12-06T14:00:00 4.460246 83.57982
2022-12-06T15:00:00 4.150245 86.90938
2022-12-06T16:00:00 2.530245 94.52389
2022-12-06T17:00:00 2.380245 94.58293
2022-12-06T18:00:00 2.620246 93.64832
2022-12-06T19:00:00 2.330246 93.96738
2022-12-06T20:00:00 2.520246 94.4552
2022-12-06T21:00:00 2.450245 94.38281
2022-12-06T22:00:00 2.610245 94.3248
2022-12-06T23:00:00 2.980246 94.89102
2022-12-07T00:00:00 2.950245 95.02557
2022-12-07T01:00:00 3.140245 95.78777
2022-12-07T02:00:00 3.180245 95.17471
2022-12-07T03:00:00 3.290246 93.55896
2022-12-07T04:00:00 2.940246 94.27754
2022-12-07T05:00:00 3.240245 93.55559
2022-12-07T06:00:00 2.800245 93.99802
2022-12-07T07:00:00 2.820245 94.33787
2022-12-07T08:00:00 2.550245 95.07123
2022-12-07T09:00:00 3.290246 90.58379
2022-12-07T10:00:00 3.590245 93.17834
2022-12-07T11:00:00 4.370246 86.74785
2022-12-07T12:00:00 4.720245 82.00877
2022-12-07T13:00:00 4.930245 79.54059
2022-12-07T14:00:00 4.900245 79.07818
2022-12-07T15:00:00 4.360245 83.32575
2022-12-07T16:00:00 3.790246 86.68045
2022-12-07T17:00:00 3.050245 87.85641
2022-12-07T18:00:00 2.680245 88.96943
2022-12-07T19:00:00 1.980245 90.53024
2022-12-07T20:00:00 1.820245 89.2704
2022-12-07T21:00:00 1.620246 88.34101
2022-12-07T22:00:00 0.960245 87.81506
2022-12-07T23:00:00 0.850245 90.02685
2022-12-08T00:00:00 0.730245 92.29116
2022-12-08T01:00:00 0.660245 92.82866
2022-12-08T02:00:00 0.760245 91.6191
2022-12-08T03:00:00 0.530245 91.46462
2022-12-08T04:00:00 0.380245 93.14861
2022-12-08T05:00:00 0.330245 92.59854
2022-12-08T06:00:00 0.470245 91.39207
2022-12-08T07:00:00 0.680245 90.67465
2022-12-08T08:00:00 0.230245 91.97891
2022-12-08T09:00:00 0.830245 91.62511
2022-12-08T10:00:00 1.850245 85.75511
2022-12-08T11:00:00 2.360245 82.01405
2022-12-08T12:00:00 3.010245 78.01262
2022-12-08T13:00:00 3.500246 73.86623
2022-12-08T14:00:00 3.510245 72.78886
2022-12-08T15:00:00 3.050245 71.83822
2022-12-08T16:00:00 3.230246 74.13929
2022-12-08T17:00:00 1.700245 80.59393
2022-12-08T18:00:00 -0.18975 86.2588
2022-12-08T19:00:00 -1.43975 90.94643
2022-12-08T20:00:00 -1.94975 92.20359
2022-12-08T21:00:00 -1.65975 92.50497
2022-12-08T22:00:00 -0.87975 90.93152
2022-12-08T23:00:00 -1.07975 92.00337
2022-12-09T00:00:00 -1.07975 91.93486
2022-12-09T01:00:00 -1.18975 93.86232
2022-12-09T02:00:00 -1.41975 95.39562
2022-12-09T03:00:00 -1.06975 94.64107
2022-12-09T04:00:00 -1.05975 95.2759
2022-12-09T05:00:00 -1.03975 96.27094
2022-12-09T06:00:00 -0.77975 96.42714
2022-12-09T07:00:00 -0.74975 97.14343
2022-12-09T08:00:00 -0.27975 95.32291
2022-12-09T09:00:00 -0.07975 94.70541
2022-12-09T10:00:00 0.410245 92.40087
2022-12-09T11:00:00 0.780245 91.48647
2022-12-09T12:00:00 1.100246 90.3819
2022-12-09T13:00:00 1.240245 89.53854
2022-12-09T14:00:00 0.940245 91.83617
2022-12-09T15:00:00 0.750245 93.51806
2022-12-09T16:00:00 0.400245 94.52765
2022-12-09T17:00:00 0.250245 95.21428
2022-12-09T18:00:00 0.430245 94.94626
2022-12-09T19:00:00 0.220245 95.21249
2022-12-09T20:00:00 0.190245 95.56074
2022-12-09T21:00:00 0.060245 95.9753
2022-12-09T22:00:00 0.120245 97.18247
2022-12-09T23:00:00 0.040245 97.03652
2022-12-10T00:00:00 0.370245 97.83491
2022-12-10T01:00:00 0.740245 98.27742
2022-12-10T02:00:00 0.800245 98.13654
2022-12-10T03:00:00 0.790245 98.13619
2022-12-10T04:00:00 0.750245 98.27776
2022-12-10T05:00:00 0.680245 98.34697
2022-12-10T06:00:00 0.710245 98.20486
2022-12-10T07:00:00 0.770245 97.92137
2022-12-10T08:00:00 0.810245 97.00012
2022-12-10T09:00:00 0.840245 96.22685
2022-12-10T10:00:00 0.840245 94.97116
2022-12-10T11:00:00 0.860245 93.79993
2022-12-10T12:00:00 0.970245 91.16831
2022-12-10T13:00:00 0.990245 90.90319
2022-12-10T14:00:00 0.950245 91.63541
2022-12-10T15:00:00 0.940245 91.09882
2022-12-10T16:00:00 0.690245 91.00942
2022-12-10T17:00:00 -0.11975 92.49423
2022-12-10T18:00:00 -0.28975 91.05406
2022-12-10T19:00:00 -0.82975 91.2752
2022-12-10T20:00:00 -1.44975 91.01355
2022-12-10T21:00:00 -2.27975 92.52222
2022-12-10T22:00:00 -1.23975 92.33315
2022-12-10T23:00:00 -1.19975 92.33652
2022-12-11T00:00:00 -1.44975 93.98344
2022-12-11T01:00:00 -1.24975 92.81535
2022-12-11T02:00:00 -1.83975 94.02554
2022-12-11T03:00:00 -1.99975 93.24237
2022-12-11T04:00:00 -2.42975 94.40721
2022-12-11T05:00:00 -2.97975 95.08286
2022-12-11T06:00:00 -3.49976 96.71707
2022-12-11T07:00:00 -4.10975 97.1256
2022-12-11T08:00:00 -3.86975 96.47724
2022-12-11T09:00:00 -3.11975 94.35819
2022-12-11T10:00:00 -2.89975 96.60352
2022-12-11T11:00:00 -1.87975 91.24627
2022-12-11T12:00:00 -1.58975 87.71419
2022-12-11T13:00:00 -1.56975 85.62803
2022-12-11T14:00:00 -0.52975 77.84101
2022-12-11T15:00:00 -1.46975 83.66164
2022-12-11T16:00:00 -2.73975 87.97544
2022-12-11T17:00:00 -3.88975 90.70608
2022-12-11T18:00:00 -4.44975 89.3352
2022-12-11T19:00:00 -5.14975 89.18672
2022-12-11T20:00:00 -6.31975 91.16053
2022-12-11T21:00:00 -7.12975 91.86639
2022-12-11T22:00:00 -5.70976 92.00361
2022-12-11T23:00:00 -6.28976 91.59081
2022-12-12T00:00:00 -6.57976 90.77837
2022-12-12T01:00:00 -6.56975 90.00185
2022-12-12T02:00:00 -6.56975 88.53375
2022-12-12T03:00:00 -6.55976 87.43082
2022-12-12T04:00:00 -6.69975 86.11594
2022-12-12T05:00:00 -6.84976 85.28394
2022-12-12T06:00:00 -7.04975 84.71699
2022-12-12T07:00:00 -7.09976 84.30811
2022-12-12T08:00:00 -6.55976 84.45725
2022-12-12T09:00:00 -4.99976 82.7357
2022-12-12T10:00:00 -4.43975 83.66383
2022-12-12T11:00:00 -4.02975 83.21068
2022-12-12T12:00:00 -3.25975 80.61999
2022-12-12T13:00:00 -2.54975 78.36211
2022-12-12T14:00:00 -2.15975 76.6509
2022-12-12T15:00:00 -2.93975 85.2466
2022-12-12T16:00:00 -3.04975 81.27799
2022-12-12T17:00:00 -4.06975 86.14261
2022-12-12T18:00:00 -4.38976 85.56911
2022-12-12T19:00:00 -5.03976 86.41174
2022-12-12T20:00:00 -5.37975 85.69602
2022-12-12T21:00:00 -5.70976 85.78333
2022-12-12T22:00:00 -5.92975 84.8176
2022-12-12T23:00:00 -5.91975 85.08518
2022-12-13T00:00:00 -6.00975 86.14459
2022-12-13T01:00:00 -6.06975 85.59827
2022-12-13T02:00:00 -6.34976 85.69268
2022-12-13T03:00:00 -6.99976 86.34585
2022-12-13T04:00:00 -7.19975 86.31793
2022-12-13T05:00:00 -7.05976 83.98118
2022-12-13T06:00:00 -6.90975 82.94764
2022-12-13T07:00:00 -6.60975 80.92212
2022-12-13T08:00:00 -6.10975 78.48993
2022-12-13T09:00:00 -5.39975 77.27452
2022-12-13T10:00:00 -4.11976 75.43498
2022-12-13T11:00:00 -3.26975 75.31562
2022-12-13T12:00:00 -2.51975 73.91125
2022-12-13T13:00:00 -2.05975 72.82016
2022-12-13T14:00:00 -1.88975 73.87306
2022-12-13T15:00:00 -2.17975 79.093
2022-12-13T16:00:00 -2.47975 81.8712
2022-12-13T17:00:00 -2.54975 84.91209
2022-12-13T18:00:00 -2.18975 84.06433
2022-12-13T19:00:00 -2.08975 83.00025
2022-12-13T20:00:00 -2.03975 83.64068
2022-12-13T21:00:00 -2.03975 83.83135
2022-12-13T22:00:00 -2.27975 82.65582
2022-12-13T23:00:00 -2.23975 84.05703
2022-12-14T00:00:00 -2.37975 87.35423
2022-12-14T01:00:00 -2.08975 87.58814
2022-12-14T02:00:00 -2.32975 89.43254
2022-12-14T03:00:00 -2.01975 87.7952
2022-12-14T04:00:00 -1.83975 88.48067
2022-12-14T05:00:00 -1.54975 88.98009
2022-12-14T06:00:00 -1.51975 90.87076
2022-12-14T07:00:00 -1.25975 91.91917
2022-12-14T08:00:00 -0.97975 93.32127
2022-12-14T09:00:00 -0.60975 94.252
2022-12-14T10:00:00 -0.13975 96.10576
2022-12-14T11:00:00 -0.03975 97.38953
2022-12-14T12:00:00 0.660245 97.56104
2022-12-14T13:00:00 1.220245 96.66643
2022-12-14T14:00:00 1.570245 97.03326
2022-12-14T15:00:00 2.240245 98.18536
2022-12-14T16:00:00 2.310246 98.68265
2022-12-14T17:00:00 2.320245 99.03782
2022-12-14T18:00:00 2.020246 99.53003
2022-12-14T19:00:00 2.130245 99.7472
2022-12-14T20:00:00 1.770245 99.73986
2022-12-14T21:00:00 1.360246 99.94775
2022-12-14T22:00:00 0.990245 98.71516
2022-12-14T23:00:00 0.950245 98.07049
2022-12-15T00:00:00 0.640245 98.27399
2022-12-15T01:00:00 0.390245 98.05029
2022-12-15T02:00:00 0.450245 97.12589
2022-12-15T03:00:00 0.350245 97.05047
2022-12-15T04:00:00 0.340245 96.48354
2022-12-15T05:00:00 0.350245 95.78008
2022-12-15T06:00:00 0.320245 95.49807
2022-12-15T07:00:00 0.150245 95.0686
2022-12-15T08:00:00 0.240245 94.86493
2022-12-15T09:00:00 0.360245 93.48992
2022-12-15T10:00:00 1.010245 92.17878
2022-12-15T11:00:00 1.040245 93.26586
2022-12-15T12:00:00 1.190245 92.39571
2022-12-15T13:00:00 1.170245 92.86771
2022-12-15T14:00:00 1.080245 93.13263
2022-12-15T15:00:00 0.840245 93.93583
2022-12-15T16:00:00 0.570245 93.84848
2022-12-15T17:00:00 0.440245 93.56438
2022-12-15T18:00:00 0.320245 93.1441
2022-12-15T19:00:00 0.050245 93.19233
2022-12-15T20:00:00 -0.17975 93.03745
2022-12-15T21:00:00 -0.38975 93.50394
2022-12-15T22:00:00 -0.43975 93.22405
2022-12-15T23:00:00 -0.48975 92.87585
2022-12-16T00:00:00 -0.61975 92.31638
2022-12-16T01:00:00 -0.70975 92.37743
2022-12-16T02:00:00 -0.84975 92.3658
2022-12-16T03:00:00 -1.07975 92.00337
2022-12-16T04:00:00 -1.25975 91.71364
2022-12-16T05:00:00 -1.31975 90.28027
2022-12-16T06:00:00 -1.45975 89.25732
2022-12-16T07:00:00 -1.45975 86.81114
2022-12-16T08:00:00 -1.58975 84.53368
2022-12-16T09:00:00 -1.57975 81.89092
2022-12-16T10:00:00 -1.26975 83.56489
2022-12-16T11:00:00 -0.95975 80.88316
2022-12-16T12:00:00 -0.70975 78.51749
2022-12-16T13:00:00 -0.51975 76.38453
2022-12-16T14:00:00 -0.43975 75.53703
2022-12-16T15:00:00 -0.65975 77.23035
2022-12-16T16:00:00 -1.63975 81.0776
2022-12-16T17:00:00 -2.45975 83.38722
2022-12-16T18:00:00 -3.22975 86.25494
2022-12-16T19:00:00 -3.28975 85.39359
2022-12-16T20:00:00 -2.65975 80.0443
2022-12-16T21:00:00 -2.70975 81.89668
2022-12-16T22:00:00 -3.23975 84.68455
2022-12-16T23:00:00 -3.35975 84.99236
2022-12-17T00:00:00 -3.68975 85.46905
2022-12-17T01:00:00 -3.90975 85.70168
2022-12-17T02:00:00 -4.39975 87.57105
2022-12-17T03:00:00 -5.28976 90.91254
2022-12-17T04:00:00 -5.12975 90.78858
2022-12-17T05:00:00 -5.16975 90.64433
2022-12-17T06:00:00 -5.37975 90.62242
2022-12-17T07:00:00 -5.12975 89.60387
2022-12-17T08:00:00 -4.28976 86.5788
2022-12-17T09:00:00 -3.33975 84.08791
2022-12-17T10:00:00 -2.34975 82.89719
2022-12-17T11:00:00 -1.78975 80.80669
2022-12-17T12:00:00 -1.25975 79.07598
2022-12-17T13:00:00 -0.91975 77.59247
2022-12-17T14:00:00 -0.96975 78.7685
2022-12-17T15:00:00 -2.84975 88.23006
2022-12-17T16:00:00 -3.27975 85.7879
2022-12-17T17:00:00 -3.66975 87.86333
2022-12-17T18:00:00 -3.68975 87.72646
2022-12-17T19:00:00 -3.84975 86.96986
2022-12-17T20:00:00 -4.34976 86.70445
2022-12-17T21:00:00 -4.41975 85.5649
2022-12-17T22:00:00 -4.03976 85.81577
2022-12-17T23:00:00 -4.04975 84.43692
2022-12-18T00:00:00 -4.07976 84.10739
2022-12-18T01:00:00 -4.16975 84.54973
2022-12-18T02:00:00 -4.22976 84.34525
2022-12-18T03:00:00 -4.32976 85.18193
2022-12-18T04:00:00 -4.11976 83.58337
2022-12-18T05:00:00 -4.06975 83.33314
2022-12-18T06:00:00 -3.87975 82.33933
2022-12-18T07:00:00 -3.82975 83.30589
2022-12-18T08:00:00 -3.61975 84.24045
2022-12-18T09:00:00 -2.58975 82.1041
2022-12-18T10:00:00 -1.57975 80.16914
2022-12-18T11:00:00 -0.97975 78.40942
2022-12-18T12:00:00 -0.00975 77.40988
2022-12-18T13:00:00 0.700245 76.50227
2022-12-18T14:00:00 0.670245 87.20063
2022-12-18T15:00:00 -0.78975 90.87234
2022-12-18T16:00:00 -1.52975 93.48814
2022-12-18T17:00:00 -1.43975 93.91414
2022-12-18T18:00:00 -1.51975 93.76834
2022-12-18T19:00:00 -1.31975 91.29826
2022-12-18T20:00:00 -1.00975 88.24377
2022-12-18T21:00:00 -0.64975 84.47534
2022-12-18T22:00:00 -0.61975 78.77129
2022-12-18T23:00:00 -0.64975 79.90377
2022-12-19T00:00:00 -0.09975 79.57779
2022-12-19T01:00:00 0.310245 79.35036
2022-12-19T02:00:00 0.270245 80.7813
2022-12-19T03:00:00 0.690245 79.89111
2022-12-19T04:00:00 0.690245 79.83154
2022-12-19T05:00:00 0.840245 79.67851
2022-12-19T06:00:00 0.720245 80.49391
2022-12-19T07:00:00 0.380245 81.58711
2022-12-19T08:00:00 0.220245 81.25768
2022-12-19T09:00:00 1.720245 80.00365
2022-12-19T10:00:00 2.910245 90.41893
2022-12-19T11:00:00 4.460246 85.15592
2022-12-19T12:00:00 5.300245 83.51489
2022-12-19T13:00:00 6.110245 82.32768
2022-12-19T14:00:00 6.200245 82.04849
2022-12-19T15:00:00 5.080246 86.70555
2022-12-19T16:00:00 3.010245 93.40572
2022-12-19T17:00:00 2.490245 93.03322
2022-12-19T18:00:00 2.160245 91.40529
2022-12-19T19:00:00 1.640245 91.5605
2022-12-19T20:00:00 2.110245 89.95181
2022-12-19T21:00:00 2.140245 89.04328
2022-12-19T22:00:00 2.160245 88.33505
2022-12-19T23:00:00 2.190245 88.46703
2022-12-20T00:00:00 2.550245 87.60998
2022-12-20T01:00:00 2.270246 88.60442
2022-12-20T02:00:00 2.180245 89.50194
2022-12-20T03:00:00 2.110245 89.82108
2022-12-20T04:00:00 2.010245 90.53299
2022-12-20T05:00:00 1.830245 91.51005
2022-12-20T06:00:00 1.820245 91.7758
2022-12-20T07:00:00 2.270246 90.82005
2022-12-20T08:00:00 3.180245 89.02034
2022-12-20T09:00:00 4.020246 88.65859
2022-12-20T10:00:00 5.580246 85.11409
2022-12-20T11:00:00 6.960245 81.29111
2022-12-20T12:00:00 7.500245 80.45866
2022-12-20T13:00:00 9.120245 76.10681
2022-12-20T14:00:00 9.150246 76.96901
2022-12-20T15:00:00 8.370246 82.52808
2022-12-20T16:00:00 6.940245 87.21981
2022-12-20T17:00:00 6.550245 88.41206
2022-12-20T18:00:00 6.980245 84.74818
2022-12-20T19:00:00 6.830246 84.61011
2022-12-20T20:00:00 6.760245 83.41587
2022-12-20T21:00:00 6.790245 82.42407
2022-12-20T22:00:00 7.140245 80.34678
2022-12-20T23:00:00 7.420245 86.05941
2022-12-21T00:00:00 7.710245 90.45435
2022-12-21T01:00:00 8.330246 90.4432
2022-12-21T02:00:00 8.680245 89.85088
2022-12-21T03:00:00 8.880245 90.23978
2022-12-21T04:00:00 8.910245 92.31023
2022-12-21T05:00:00 8.910245 94.2263
2022-12-21T06:00:00 8.820246 95.51912
2022-12-21T07:00:00 8.860246 95.32529
2022-12-21T08:00:00 9.000245 95.00676
2022-12-21T09:00:00 9.470245 93.93559
2022-12-21T10:00:00 9.450245 94.96328
2022-12-21T11:00:00 10.23025 91.83559
2022-12-21T12:00:00 10.85025 90.82871
2022-12-21T13:00:00 11.19025 90.67075
2022-12-21T14:00:00 11.20025 90.91645
2022-12-21T15:00:00 10.49025 92.91671
2022-12-21T16:00:00 9.760245 93.63268
2022-12-21T17:00:00 9.980246 92.94841
2022-12-21T18:00:00 9.560246 93.11253
2022-12-21T19:00:00 9.090245 93.21108
2022-12-21T20:00:00 9.150246 92.26331
2022-12-21T21:00:00 9.150246 90.51019
2022-12-21T22:00:00 9.700245 88.0501
2022-12-21T23:00:00 10.34025 86.44465
2022-12-22T00:00:00 10.86025 85.97229
2022-12-22T01:00:00 11.10025 87.4111
2022-12-22T02:00:00 11.41025 86.38306
2022-12-22T03:00:00 11.56025 84.03152
2022-12-22T04:00:00 11.73025 81.85589
2022-12-22T05:00:00 11.86025 80.43877
2022-12-22T06:00:00 12.00025 79.26336
2022-12-22T07:00:00 12.07025 77.61643
2022-12-22T08:00:00 11.70025 77.822
2022-12-22T09:00:00 11.76025 75.20971
2022-12-22T10:00:00 12.28025 71.52547
2022-12-22T11:00:00 12.57025 72.17432
2022-12-22T12:00:00 12.53025 72.21612
2022-12-22T13:00:00 12.19025 75.2342
2022-12-22T14:00:00 12.25025 76.2284
2022-12-22T15:00:00 12.21025 76.48235
2022-12-22T16:00:00 12.03025 78.67607
2022-12-22T17:00:00 11.79025 82.36621
2022-12-22T18:00:00 11.58025 83.8061
2022-12-22T19:00:00 11.42025 85.10533
2022-12-22T20:00:00 11.13025 86.64669
2022-12-22T21:00:00 10.91025 86.15347
2022-12-22T22:00:00 11.62025 83.5838
2022-12-22T23:00:00 12.36025 84.81192
2022-12-23T00:00:00 12.36025 89.19403
2022-12-23T01:00:00 12.33025 91.36517
2022-12-23T02:00:00 12.69025 91.39019
2022-12-23T03:00:00 12.79025 91.27554
2022-12-23T04:00:00 12.93025 92.19957
2022-12-23T05:00:00 13.03025 92.88091
2022-12-23T06:00:00 12.96025 93.18528
2022-12-23T07:00:00 12.86025 94.3609
2022-12-23T08:00:00 13.08025 94.49605
2022-12-23T09:00:00 13.39025 92.96296
2022-12-23T10:00:00 13.08025 93.43911
2022-12-23T11:00:00 13.48025 94.51415
2022-12-23T12:00:00 13.75025 93.53613
2022-12-23T13:00:00 13.89025 92.19829
2022-12-23T14:00:00 13.93025 90.81314
2022-12-23T15:00:00 13.92025 90.21483
2022-12-23T16:00:00 14.04025 88.92243
2022-12-23T17:00:00 13.71025 91.33899
2022-12-23T18:00:00 13.73025 92.24925
2022-12-23T19:00:00 14.14025 87.99545
2022-12-23T20:00:00 14.33025 82.20234
2022-12-23T21:00:00 13.77025 82.34908
2022-12-23T22:00:00 13.37025 83.79937
2022-12-23T23:00:00 12.94025 85.22087
2022-12-24T00:00:00 12.73025 85.4837
2022-12-24T01:00:00 12.61025 86.8582
2022-12-24T02:00:00 12.16025 85.9399
2022-12-24T03:00:00 11.94025 83.73708
2022-12-24T04:00:00 11.47025 82.9422
2022-12-24T05:00:00 11.17025 83.75513
2022-12-24T06:00:00 10.71025 85.66323
2022-12-24T07:00:00 10.29025 88.04727
2022-12-24T08:00:00 10.17025 88.63836
2022-12-24T09:00:00 10.60025 87.59902
2022-12-24T10:00:00 11.19025 82.28596
2022-12-24T11:00:00 11.30025 82.24462
2022-12-24T12:00:00 11.52025 80.55398
2022-12-24T13:00:00 11.73025 79.54718
2022-12-24T14:00:00 11.28025 83.14379
2022-12-24T15:00:00 10.69025 86.36452
2022-12-24T16:00:00 10.27025 88.1655
2022-12-24T17:00:00 9.720245 90.74157
2022-12-24T18:00:00 9.650246 91.42001
2022-12-24T19:00:00 9.600245 91.66625
2022-12-24T20:00:00 9.550245 92.66873
2022-12-24T21:00:00 9.540245 92.98449
2022-12-24T22:00:00 9.190246 96.25351
2022-12-24T23:00:00 9.340245 96.52121
2022-12-25T00:00:00 8.710245 98.69579
2022-12-25T01:00:00 8.360246 98.62163
2022-12-25T02:00:00 8.520246 98.02074
2022-12-25T03:00:00 7.950245 98.00645
2022-12-25T04:00:00 7.630245 98.26816
2022-12-25T05:00:00 7.270245 97.71859
2022-12-25T06:00:00 6.980245 97.57506
2022-12-25T07:00:00 6.820245 97.09799
2022-12-25T08:00:00 7.160245 96.24031
2022-12-25T09:00:00 8.080246 95.09309
2022-12-25T10:00:00 9.030245 94.94333
2022-12-25T11:00:00 10.03025 92.3223
2022-12-25T12:00:00 10.76025 90.33127
2022-12-25T13:00:00 11.12025 90.35983
2022-12-25T14:00:00 11.28025 91.04506
2022-12-25T15:00:00 11.11025 91.71034
2022-12-25T16:00:00 10.28025 92.96681
2022-12-25T17:00:00 9.630245 92.67387
2022-12-25T18:00:00 9.360246 91.14887
2022-12-25T19:00:00 9.430245 88.87344
2022-12-25T20:00:00 9.280245 88.85959
2022-12-25T21:00:00 9.040245 88.95964
2022-12-25T22:00:00 9.210245 91.07508
2022-12-25T23:00:00 9.590245 89.9901
2022-12-26T00:00:00 9.340245 91.14736
2022-12-26T01:00:00 9.420245 90.28439
2022-12-26T02:00:00 9.540245 89.6785
2022-12-26T03:00:00 9.620245 89.74677
2022-12-26T04:00:00 9.950245 89.22521
2022-12-26T05:00:00 9.940246 88.92019
2022-12-26T06:00:00 10.31025 87.74949
2022-12-26T07:00:00 11.00025 85.4629
2022-12-26T08:00:00 10.95025 86.56885
2022-12-26T09:00:00 11.10025 88.72368
2022-12-26T10:00:00 11.51025 91.92292
2022-12-26T11:00:00 11.29025 94.03244
2022-12-26T12:00:00 11.07025 94.02103
2022-12-26T13:00:00 10.92025 94.64795
2022-12-26T14:00:00 10.94025 92.75623
2022-12-26T15:00:00 10.88025 91.44698
2022-12-26T16:00:00 11.19025 86.53553
2022-12-26T17:00:00 11.23025 85.37292
2022-12-26T18:00:00 10.93025 85.33866
2022-12-26T19:00:00 10.84025 84.46004
2022-12-26T20:00:00 10.27025 85.08757
2022-12-26T21:00:00 9.530245 87.01193
2022-12-26T22:00:00 9.060246 86.00723
2022-12-26T23:00:00 8.290245 87.54526
2022-12-27T00:00:00 7.470245 86.97238
2022-12-27T01:00:00 6.730245 87.38107
2022-12-27T02:00:00 5.840245 88.84109
2022-12-27T03:00:00 5.830246 89.91241
2022-12-27T04:00:00 5.370246 91.66771
2022-12-27T05:00:00 5.240245 92.11217
2022-12-27T06:00:00 5.150245 91.97521
2022-12-27T07:00:00 4.650245 92.85501
2022-12-27T08:00:00 4.840245 92.21261
2022-12-27T09:00:00 5.710245 90.47434
2022-12-27T10:00:00 6.950245 85.70337
2022-12-27T11:00:00 7.960245 81.55204
2022-12-27T12:00:00 8.450246 77.2276
2022-12-27T13:00:00 8.690246 75.44485
2022-12-27T14:00:00 8.510245 77.61853
2022-12-27T15:00:00 8.330246 78.19037
2022-12-27T16:00:00 7.550245 83.11192
2022-12-27T17:00:00 5.560246 91.5533
2022-12-27T18:00:00 3.970245 94.20633
2022-12-27T19:00:00 3.490245 95.87361
2022-12-27T20:00:00 3.320245 95.25047
2022-12-27T21:00:00 3.160245 93.28201
2022-12-27T22:00:00 2.670245 94.66857
2022-12-27T23:00:00 2.830246 93.25894
2022-12-28T00:00:00 2.810246 93.79603
2022-12-28T01:00:00 3.650245 92.91637
2022-12-28T02:00:00 4.290246 92.36817
2022-12-28T03:00:00 4.010245 92.61112
2022-12-28T04:00:00 3.370246 92.76312
2022-12-28T05:00:00 3.420245 91.44537
2022-12-28T06:00:00 3.220245 90.96951
2022-12-28T07:00:00 3.420245 90.27037
2022-12-28T08:00:00 4.170245 86.47598
2022-12-28T09:00:00 4.980245 86.38541
2022-12-28T10:00:00 6.520245 84.09419
2022-12-28T11:00:00 8.000245 78.74328
2022-12-28T12:00:00 9.280245 72.28321
2022-12-28T13:00:00 10.20025 70.46479
2022-12-28T14:00:00 10.64025 64.03949
2022-12-28T15:00:00 10.12025 66.03104
2022-12-28T16:00:00 9.200245 66.95211
2022-12-28T17:00:00 8.910245 67.55626
2022-12-28T18:00:00 9.220245 66.38797
2022-12-28T19:00:00 9.050245 66.06601
2022-12-28T20:00:00 9.210245 65.12169
2022-12-28T21:00:00 9.250245 65.08469
2022-12-28T22:00:00 8.860246 62.7508
2022-12-28T23:00:00 9.280245 62.31663
2022-12-29T00:00:00 10.07025 60.45207
2022-12-29T01:00:00 10.48025 61.90529
2022-12-29T02:00:00 11.48025 61.49804
2022-12-29T03:00:00 11.87025 64.23978
2022-12-29T04:00:00 12.28025 64.74028
2022-12-29T05:00:00 12.23025 63.9216
2022-12-29T06:00:00 12.22025 63.96385
2022-12-29T07:00:00 12.59025 63.47392
2022-12-29T08:00:00 12.86025 63.05387
2022-12-29T09:00:00 13.12025 63.15952
2022-12-29T10:00:00 13.29025 66.0573
2022-12-29T11:00:00 12.95025 68.39008
2022-12-29T12:00:00 12.96025 67.31738
2022-12-29T13:00:00 13.04025 68.03381
2022-12-29T14:00:00 12.86025 67.94836
2022-12-29T15:00:00 12.59025 70.17408
2022-12-29T16:00:00 11.78025 79.12169
2022-12-29T17:00:00 11.31025 83.77258
2022-12-29T18:00:00 10.87025 87.80448
2022-12-29T19:00:00 10.43025 89.14629
2022-12-29T20:00:00 10.14025 90.15863
2022-12-29T21:00:00 9.820246 89.82517
2022-12-29T22:00:00 9.710245 90.86475
2022-12-29T23:00:00 9.360246 90.0324
2022-12-30T00:00:00 8.930245 88.88826
2022-12-30T01:00:00 8.340245 90.44402
2022-12-30T02:00:00 7.770245 91.65856
2022-12-30T03:00:00 7.340245 93.10146
2022-12-30T04:00:00 7.240245 92.57919
2022-12-30T05:00:00 6.520245 93.63452
2022-12-30T06:00:00 5.700245 95.50757
2022-12-30T07:00:00 4.880245 96.55064
2022-12-30T08:00:00 4.390245 96.94071
2022-12-30T09:00:00 5.790245 93.72054
2022-12-30T10:00:00 7.070245 91.79751
2022-12-30T11:00:00 7.920245 89.7224
2022-12-30T12:00:00 8.760245 88.01807
2022-12-30T13:00:00 8.700245 90.10057
2022-12-30T14:00:00 9.130245 88.60162
2022-12-30T15:00:00 10.13025 85.89114
2022-12-30T16:00:00 11.25025 83.93633
2022-12-30T17:00:00 12.24025 83.37886
2022-12-30T18:00:00 12.77025 84.06476
2022-12-30T19:00:00 13.22025 82.72034
2022-12-30T20:00:00 13.43025 83.63857
2022-12-30T21:00:00 13.81025 82.79572
2022-12-30T22:00:00 14.16025 79.64004
2022-12-30T23:00:00 14.72025 77.41457
2022-12-31T00:00:00 15.21025 74.99945
2022-12-31T01:00:00 15.27025 73.07697
2022-12-31T02:00:00 15.24025 71.56625
2022-12-31T03:00:00 14.84025 74.33438
2022-12-31T04:00:00 14.45025 77.21602
2022-12-31T05:00:00 13.92025 79.92564
2022-12-31T06:00:00 13.45025 81.21031
2022-12-31T07:00:00 12.97025 82.18897
2022-12-31T08:00:00 12.53025 83.47145
2022-12-31T09:00:00 14.02025 79.08756
2022-12-31T10:00:00 15.48025 73.26244
2022-12-31T11:00:00 16.62025 69.61491
2022-12-31T12:00:00 16.97025 68.99226
2022-12-31T13:00:00 16.97025 69.917
2022-12-31T14:00:00 16.59025 70.44969
2022-12-31T15:00:00 15.72025 74.48939
2022-12-31T16:00:00 14.24025 78.80336
2022-12-31T17:00:00 13.75025 78.83465
2022-12-31T18:00:00 13.55025 79.49661
2022-12-31T19:00:00 13.41025 79.4223
2022-12-31T20:00:00 12.94025 80.10606
2022-12-31T21:00:00 12.35025 81.49753
2022-12-31T22:00:00 12.34025 80.78157
2022-12-31T23:00:00 12.27025 80.88123
2023-01-01T00:00:00 12.27025 80.82639
2023-01-01T01:00:00 12.34025 79.09979
2023-01-01T02:00:00 11.84025 80.65517
2023-01-01T03:00:00 11.55025 81.8313
2023-01-01T04:00:00 11.26025 81.17936
2023-01-01T05:00:00 10.99025 81.0855
2023-01-01T06:00:00 10.35025 83.5946
2023-01-01T07:00:00 10.09025 84.19529
2023-01-01T08:00:00 10.40025 81.95338
2023-01-01T09:00:00 12.05025 76.76955
2023-01-01T10:00:00 14.29025 71.77039
2023-01-01T11:00:00 16.00025 66.29437
2023-01-01T12:00:00 16.83025 62.31762
2023-01-01T13:00:00 17.23025 61.6592
2023-01-01T14:00:00 16.96025 62.39017
2023-01-01T15:00:00 15.36025 70.77599
2023-01-01T16:00:00 12.27025 83.10137
2023-01-01T17:00:00 10.93025 87.81033
2023-01-01T18:00:00 10.41025 89.87482
2023-01-01T19:00:00 9.650246 92.42291
2023-01-01T20:00:00 9.340245 92.97205
2023-01-01T21:00:00 9.030245 92.82547
2023-01-01T22:00:00 8.890245 89.49869
2023-01-01T23:00:00 8.570246 89.16199
2023-01-02T00:00:00 8.490246 87.68721
2023-01-02T01:00:00 8.340245 88.3425
2023-01-02T02:00:00 7.840245 88.97092
2023-01-02T03:00:00 7.820245 88.47575
2023-01-02T04:00:00 7.760245 87.30747
2023-01-02T05:00:00 7.510245 86.55244
2023-01-02T06:00:00 7.470245 86.42705
2023-01-02T07:00:00 7.420245 85.99921
2023-01-02T08:00:00 7.540245 85.1748
2023-01-02T09:00:00 9.110246 80.14096
2023-01-02T10:00:00 11.15025 75.46466
2023-01-02T11:00:00 12.70025 70.4381
2023-01-02T12:00:00 14.21025 62.85191
2023-01-02T13:00:00 14.50025 58.4039
2023-01-02T14:00:00 13.99025 58.55801
2023-01-02T15:00:00 12.97025 69.05593
2023-01-02T16:00:00 12.43025 75.07104
2023-01-02T17:00:00 12.13025 79.82427
2023-01-02T18:00:00 11.47025 84.47819
2023-01-02T19:00:00 10.90025 86.68134
2023-01-02T20:00:00 10.50025 89.5776
2023-01-02T21:00:00 9.730246 91.8632
2023-01-02T22:00:00 9.120245 92.45091
2023-01-02T23:00:00 8.640245 93.05563
2023-01-03T00:00:00 8.300245 93.35488
2023-01-03T01:00:00 7.820245 94.29689
2023-01-03T02:00:00 7.370246 95.91685
2023-01-03T03:00:00 6.970245 96.56657
2023-01-03T04:00:00 6.730245 97.36467
2023-01-03T05:00:00 6.370246 97.2852
2023-01-03T06:00:00 6.090245 98.22938
2023-01-03T07:00:00 5.630245 98.76768
2023-01-03T08:00:00 5.670245 98.97572
2023-01-03T09:00:00 6.400245 98.10111
2023-01-03T10:00:00 7.410245 97.79001
2023-01-03T11:00:00 8.540245 94.72466
2023-01-03T12:00:00 9.410245 89.85177
2023-01-03T13:00:00 9.830245 86.44861
2023-01-03T14:00:00 9.970245 84.29622
2023-01-03T15:00:00 9.610246 83.61507
2023-01-03T16:00:00 8.050245 89.05236
2023-01-03T17:00:00 6.600246 90.93157
2023-01-03T18:00:00 3.560246 99.56197
2023-01-03T19:00:00 3.150245 99.83791
2023-01-03T20:00:00 3.190246 99.55466
2023-01-03T21:00:00 3.360245 99.27518
2023-01-03T22:00:00 4.680245 95.7951
2023-01-03T23:00:00 4.650245 95.52316
2023-01-04T00:00:00 4.550245 95.51815
2023-01-04T01:00:00 4.500246 95.3805
2023-01-04T02:00:00 4.700245 94.58457
2023-01-04T03:00:00 4.790245 93.52495
2023-01-04T04:00:00 5.170245 92.43305
2023-01-04T05:00:00 5.810246 91.37973
2023-01-04T06:00:00 6.240245 90.64709
2023-01-04T07:00:00 6.670245 89.17152
2023-01-04T08:00:00 7.360245 84.79547
2023-01-04T09:00:00 7.910245 81.60202
2023-01-04T10:00:00 8.500245 76.74909
2023-01-04T11:00:00 8.980246 74.75869
2023-01-04T12:00:00 9.550245 74.44571
2023-01-04T13:00:00 9.850245 72.64965
2023-01-04T14:00:00 10.06025 75.00873
2023-01-04T15:00:00 10.20025 78.54897
2023-01-04T16:00:00 10.24025 82.32675
2023-01-04T17:00:00 10.20025 84.73022
2023-01-04T18:00:00 10.33025 85.67883
2023-01-04T19:00:00 10.28025 86.73402
2023-01-04T20:00:00 10.56025 87.95353
2023-01-04T21:00:00 10.72025 89.17193
2023-01-04T22:00:00 10.86025 88.28161
2023-01-04T23:00:00 10.72025 90.94186
2023-01-05T00:00:00 10.72025 91.43554
2023-01-05T01:00:00 10.80025 91.071
2023-01-05T02:00:00 10.77025 91.81077
2023-01-05T03:00:00 10.62025 94.76135
2023-01-05T04:00:00 10.61025 94.63317
2023-01-05T05:00:00 10.62025 94.6975
2023-01-05T06:00:00 10.56025 95.20682
2023-01-05T07:00:00 10.55025 94.63029
2023-01-05T08:00:00 10.63025 94.63414
2023-01-05T09:00:00 11.03025 93.26286
2023-01-05T10:00:00 11.55025 90.94251
2023-01-05T11:00:00 11.95025 90.18233
2023-01-05T12:00:00 12.21025 88.9423
2023-01-05T13:00:00 12.41025 86.89619
2023-01-05T14:00:00 12.37025 84.75597
2023-01-05T15:00:00 12.23025 84.05621
2023-01-05T16:00:00 11.92025 84.93279
2023-01-05T17:00:00 11.31025 88.20442
2023-01-05T18:00:00 10.53025 91.85636
2023-01-05T19:00:00 9.400246 93.61213
2023-01-05T20:00:00 8.960245 93.58669
2023-01-05T21:00:00 8.640245 93.95377
2023-01-05T22:00:00 8.280246 93.6754
2023-01-05T23:00:00 7.720245 93.96636
2023-01-06T00:00:00 7.140245 94.98118
2023-01-06T01:00:00 6.860245 95.42991
2023-01-06T02:00:00 6.960245 97.37206
2023-01-06T03:00:00 6.970245 97.7775
2023-01-06T04:00:00 7.510245 97.72546
2023-01-06T05:00:00 7.920245 97.4689
2023-01-06T06:00:00 8.450246 96.81995
2023-01-06T07:00:00 8.620245 97.15706
2023-01-06T08:00:00 8.890245 96.63692
2023-01-06T09:00:00 9.220245 94.69382
2023-01-06T10:00:00 9.560246 94.51751
2023-01-06T11:00:00 9.980246 90.08406
2023-01-06T12:00:00 10.45025 82.92228
2023-01-06T13:00:00 10.50025 80.29404
2023-01-06T14:00:00 10.47025 79.62867
2023-01-06T15:00:00 10.13025 83.22269
2023-01-06T16:00:00 10.27025 78.07266
2023-01-06T17:00:00 10.08025 78.74753
2023-01-06T18:00:00 9.510245 80.14581
2023-01-06T19:00:00 8.650246 86.37859
2023-01-06T20:00:00 7.920245 88.23993
2023-01-06T21:00:00 8.000245 90.60384
2023-01-06T22:00:00 7.750245 92.67793
2023-01-06T23:00:00 7.060246 93.47243
2023-01-07T00:00:00 7.020245 95.56991
2023-01-07T01:00:00 6.960245 95.56715
2023-01-07T02:00:00 6.590245 96.95527
2023-01-07T03:00:00 6.460245 96.01077
2023-01-07T04:00:00 6.470245 96.07805
2023-01-07T05:00:00 6.770245 94.69863
2023-01-07T06:00:00 6.530245 94.42218
2023-01-07T07:00:00 6.680245 94.62795
2023-01-07T08:00:00 6.990245 93.33817
2023-01-07T09:00:00 7.600246 89.44482
2023-01-07T10:00:00 8.640245 82.79536
2023-01-07T11:00:00 9.580245 78.77721
2023-01-07T12:00:00 10.39025 76.17021
2023-01-07T13:00:00 10.92025 74.85244
2023-01-07T14:00:00 11.09025 73.75271
2023-01-07T15:00:00 10.29025 78.07593
2023-01-07T16:00:00 7.870246 87.92876
2023-01-07T17:00:00 6.680245 91.44819
2023-01-07T18:00:00 6.120246 93.15187
2023-01-07T19:00:00 5.880245 92.41921
2023-01-07T20:00:00 5.630245 91.81727
2023-01-07T21:00:00 5.570245 90.59007
2023-01-07T22:00:00 4.930245 92.0888
2023-01-07T23:00:00 4.830246 92.3427
2023-01-08T00:00:00 4.150245 94.15033
2023-01-08T01:00:00 4.180245 93.81798
2023-01-08T02:00:00 4.460246 93.23814
2023-01-08T03:00:00 4.870246 93.13383
2023-01-08T04:00:00 5.270245 92.37505
2023-01-08T05:00:00 5.840245 91.31781
2023-01-08T06:00:00 6.540245 93.24444
2023-01-08T07:00:00 7.110245 94.45409
2023-01-08T08:00:00 7.350246 94.79469
2023-01-08T09:00:00 7.470245 95.39249
2023-01-08T10:00:00 7.930245 93.91354
2023-01-08T11:00:00 8.080246 93.2771
2023-01-08T12:00:00 8.750245 91.35312
2023-01-08T13:00:00 8.750245 90.72706
2023-01-08T14:00:00 9.050245 89.57437
2023-01-08T15:00:00 9.050245 87.62318
2023-01-08T16:00:00 9.000245 88.77246
2023-01-08T17:00:00 8.170245 91.37219
2023-01-08T18:00:00 8.040245 92.82529
2023-01-08T19:00:00 7.820245 95.47448
2023-01-08T20:00:00 7.930245 96.40353
2023-01-08T21:00:00 7.930245 95.611
2023-01-08T22:00:00 8.380245 94.00372
2023-01-08T23:00:00 8.760245 90.2919
2023-01-09T00:00:00 8.690246 89.728
2023-01-09T01:00:00 9.050245 88.65505
2023-01-09T02:00:00 8.460245 89.33691
2023-01-09T03:00:00 7.700245 84.95622
2023-01-09T04:00:00 6.630245 84.28684
2023-01-09T05:00:00 6.240245 82.81522
2023-01-09T06:00:00 6.090245 82.03259
2023-01-09T07:00:00 6.150245 80.76678
2023-01-09T08:00:00 6.230245 80.09155
2023-01-09T09:00:00 6.840245 77.99657
2023-01-09T10:00:00 7.060246 76.87791
2023-01-09T11:00:00 7.060246 79.88091
2023-01-09T12:00:00 7.040245 81.9371
2023-01-09T13:00:00 7.320245 80.65859
2023-01-09T14:00:00 6.480245 80.1307
2023-01-09T15:00:00 5.890245 86.36842
2023-01-09T16:00:00 5.710245 86.16401
2023-01-09T17:00:00 5.500245 87.12378
2023-01-09T18:00:00 5.450245 86.44013
2023-01-09T19:00:00 5.280245 87.47163
2023-01-09T20:00:00 5.390245 85.82048
2023-01-09T21:00:00 5.180245 86.84056
2023-01-09T22:00:00 4.850246 90.33494
2023-01-09T23:00:00 5.040245 89.39483
2023-01-10T00:00:00 5.440245 87.489
2023-01-10T01:00:00 5.400245 86.61887
2023-01-10T02:00:00 5.270245 84.95404
2023-01-10T03:00:00 5.170245 83.73636
2023-01-10T04:00:00 5.000245 83.53375
2023-01-10T05:00:00 5.010245 82.64202
2023-01-10T06:00:00 4.880245 85.8815
2023-01-10T07:00:00 4.780245 87.22991
2023-01-10T08:00:00 4.790245 88.35819
2023-01-10T09:00:00 5.110245 88.14011
2023-01-10T10:00:00 5.680245 82.56005
2023-01-10T11:00:00 6.210245 81.52662
2023-01-10T12:00:00 7.130245 73.14752
2023-01-10T13:00:00 7.440245 68.34578
2023-01-10T14:00:00 7.520245 64.53312
2023-01-10T15:00:00 7.090245 66.95021
2023-01-10T16:00:00 6.250245 70.94843
2023-01-10T17:00:00 6.160245 71.44398
2023-01-10T18:00:00 6.480245 69.42519
2023-01-10T19:00:00 6.710245 68.77658
2023-01-10T20:00:00 6.790245 69.04307
2023-01-10T21:00:00 7.260245 67.96222
2023-01-10T22:00:00 7.280245 72.76012
2023-01-10T23:00:00 7.480245 73.84506
2023-01-11T00:00:00 7.650245 75.41526
2023-01-11T01:00:00 7.870246 75.93772
2023-01-11T02:00:00 8.200246 78.22386
2023-01-11T03:00:00 8.330246 80.24637
2023-01-11T04:00:00 8.590245 81.58567
2023-01-11T05:00:00 8.780245 82.0116
2023-01-11T06:00:00 8.910245 82.20109
2023-01-11T07:00:00 9.360246 80.56956
2023-01-11T08:00:00 9.680245 79.7834
2023-01-11T09:00:00 9.890245 79.31963
2023-01-11T10:00:00 9.540245 80.76405
2023-01-11T11:00:00 9.340245 86.69305
2023-01-11T12:00:00 9.350245 90.58833
2023-01-11T13:00:00 9.230246 92.20566
2023-01-11T14:00:00 9.390245 92.02774
2023-01-11T15:00:00 9.310246 89.16786
2023-01-11T16:00:00 8.860246 90.11406
2023-01-11T17:00:00 8.590245 89.28698
2023-01-11T18:00:00 8.290245 89.13629
2023-01-11T19:00:00 7.860245 89.40632
2023-01-11T20:00:00 7.840245 87.80346
2023-01-11T21:00:00 7.600246 87.22962
2023-01-11T22:00:00 7.440245 87.39545
2023-01-11T23:00:00 7.480245 84.86977
2023-01-12T00:00:00 7.410245 84.14994
2023-01-12T01:00:00 7.380245 83.49864
2023-01-12T02:00:00 7.650245 81.73657
2023-01-12T03:00:00 7.700245 81.80119
2023-01-12T04:00:00 8.020246 79.91787
2023-01-12T05:00:00 8.240246 78.28549
2023-01-12T06:00:00 8.470245 77.66633
2023-01-12T07:00:00 8.430245 77.16991
2023-01-12T08:00:00 8.650246 75.81001
2023-01-12T09:00:00 8.850245 74.83986
2023-01-12T10:00:00 9.060246 74.14576
2023-01-12T11:00:00 9.300245 73.56864
2023-01-12T12:00:00 9.740245 71.06546
2023-01-12T13:00:00 9.960245 71.31001
2023-01-12T14:00:00 10.07025 70.5368
2023-01-12T15:00:00 10.01025 70.32671
2023-01-12T16:00:00 9.720245 71.21132
2023-01-12T17:00:00 9.870245 69.658
2023-01-12T18:00:00 10.08025 68.29547
2023-01-12T19:00:00 10.10025 67.29687
2023-01-12T20:00:00 10.29025 66.72541
2023-01-12T21:00:00 10.41025 65.44799
2023-01-12T22:00:00 10.60025 65.35362
2023-01-12T23:00:00 10.72025 65.24343
2023-01-13T00:00:00 10.51025 67.86306
2023-01-13T01:00:00 10.44025 70.66234
2023-01-13T02:00:00 10.18025 74.51013
2023-01-13T03:00:00 9.930245 79.21607
2023-01-13T04:00:00 9.570246 83.84103
2023-01-13T05:00:00 9.530245 84.8246
2023-01-13T06:00:00 9.700245 82.13952
2023-01-13T07:00:00 9.780245 82.26404
2023-01-13T08:00:00 9.660245 83.96812
2023-01-13T09:00:00 9.550245 85.47209
2023-01-13T10:00:00 9.400246 87.17791
2023-01-13T11:00:00 9.310246 86.98873
2023-01-13T12:00:00 9.550245 79.48709
2023-01-13T13:00:00 9.320246 76.89063
2023-01-13T14:00:00 9.570246 72.13768
2023-01-13T15:00:00 8.750245 75.50879
2023-01-13T16:00:00 8.130245 79.54302
2023-01-13T17:00:00 7.620246 82.19299
2023-01-13T18:00:00 7.720245 80.66219
2023-01-13T19:00:00 7.720245 78.97572
2023-01-13T20:00:00 7.770245 76.67575
2023-01-13T21:00:00 7.700245 75.96095
2023-01-13T22:00:00 7.260245 78.51107
2023-01-13T23:00:00 6.940245 81.57605
2023-01-14T00:00:00 6.910245 82.55746
2023-01-14T01:00:00 6.520245 83.73822
2023-01-14T02:00:00 6.320245 84.66517
2023-01-14T03:00:00 6.590245 83.68831
2023-01-14T04:00:00 6.500245 83.97276
2023-01-14T05:00:00 6.880245 81.68274
2023-01-14T06:00:00 7.200245 80.2425
2023-01-14T07:00:00 7.330246 78.63387
2023-01-14T08:00:00 7.330246 78.35603
2023-01-14T09:00:00 8.030246 77.04679
2023-01-14T10:00:00 8.330246 77.64274
2023-01-14T11:00:00 9.170245 72.31232
2023-01-14T12:00:00 9.880245 67.20024
2023-01-14T13:00:00 10.56025 56.36029
2023-01-14T14:00:00 10.82025 49.88581
2023-01-14T15:00:00 10.33025 53.56699
2023-01-14T16:00:00 10.35025 63.69924
2023-01-14T17:00:00 10.18025 71.95586
2023-01-14T18:00:00 10.42025 75.85925
2023-01-14T19:00:00 10.71025 76.384
2023-01-14T20:00:00 10.74025 79.5056
2023-01-14T21:00:00 10.82025 80.61758
2023-01-14T22:00:00 10.94025 76.21286
2023-01-14T23:00:00 11.30025 73.18237
2023-01-15T00:00:00 11.95025 70.9687
2023-01-15T01:00:00 12.24025 73.00784
2023-01-15T02:00:00 12.13025 75.74026
2023-01-15T03:00:00 12.13025 76.88791
2023-01-15T04:00:00 12.16025 76.94544
2023-01-15T05:00:00 12.18025 75.59366
2023-01-15T06:00:00 11.86025 75.43417
2023-01-15T07:00:00 10.59025 80.80584
2023-01-15T08:00:00 7.640245 87.17307
2023-01-15T09:00:00 5.650245 86.83202
2023-01-15T10:00:00 5.160245 91.7161
2023-01-15T11:00:00 5.070245 88.57576
2023-01-15T12:00:00 4.940245 87.49682
2023-01-15T13:00:00 5.270245 82.67897
2023-01-15T14:00:00 5.840245 78.61107
2023-01-15T15:00:00 5.850246 74.97287
2023-01-15T16:00:00 5.120246 76.03572
2023-01-15T17:00:00 4.690245 75.51631
2023-01-15T18:00:00 4.540246 75.4881
2023-01-15T19:00:00 4.590245 74.19017
2023-01-15T20:00:00 4.420245 73.6713
2023-01-15T21:00:00 4.520246 72.78224
2023-01-15T22:00:00 4.270246 68.8838
2023-01-15T23:00:00 4.420245 68.96834
2023-01-16T00:00:00 4.690245 68.52387
2023-01-16T01:00:00 4.610245 69.11247
2023-01-16T02:00:00 4.890245 67.52018
2023-01-16T03:00:00 4.630245 68.25888
2023-01-16T04:00:00 3.820245 70.37499
2023-01-16T05:00:00 3.860245 67.93124
2023-01-16T06:00:00 3.590245 66.52084
2023-01-16T07:00:00 3.860245 63.96383
2023-01-16T08:00:00 3.980246 63.23534
2023-01-16T09:00:00 4.270246 65.0245
2023-01-16T10:00:00 5.060246 71.10911
2023-01-16T11:00:00 5.860245 72.89475
2023-01-16T12:00:00 6.370246 72.05684
2023-01-16T13:00:00 6.830246 67.81623
2023-01-16T14:00:00 6.310246 74.62972
2023-01-16T15:00:00 6.000245 78.41301
2023-01-16T16:00:00 5.900245 77.55792
2023-01-16T17:00:00 5.500245 75.12328
2023-01-16T18:00:00 5.530245 70.18053
2023-01-16T19:00:00 4.980245 73.19462
2023-01-16T20:00:00 4.300245 78.12346
2023-01-16T21:00:00 3.950245 80.8921
2023-01-16T22:00:00 3.770246 84.45593
2023-01-16T23:00:00 3.390245 86.44585
2023-01-17T00:00:00 3.360245 86.88073
2023-01-17T01:00:00 3.370246 87.44849
2023-01-17T02:00:00 3.260245 88.64397
2023-01-17T03:00:00 2.430245 92.55948
2023-01-17T04:00:00 1.870246 93.25813
2023-01-17T05:00:00 1.050245 94.70717
2023-01-17T06:00:00 1.340246 93.49185
2023-01-17T07:00:00 0.850245 93.73066
2023-01-17T08:00:00 0.820245 92.56936
2023-01-17T09:00:00 1.550245 91.02023
2023-01-17T10:00:00 2.280245 92.54802
2023-01-17T11:00:00 2.630245 91.97517
2023-01-17T12:00:00 3.020246 90.1034
2023-01-17T13:00:00 2.980246 89.96967
2023-01-17T14:00:00 2.260245 93.69155
2023-01-17T15:00:00 1.550245 99.66329
2023-01-17T16:00:00 1.350246 99.94756
2023-01-17T17:00:00 1.110246 99.94278
2023-01-17T18:00:00 1.010245 99.94077
2023-01-17T19:00:00 0.790245 99.79121
2023-01-17T20:00:00 1.050245 97.22255
2023-01-17T21:00:00 1.190245 94.30269
2023-01-17T22:00:00 0.840245 99.21409
2023-01-17T23:00:00 1.070245 96.80018
2023-01-18T00:00:00 1.980245 95.03855
2023-01-18T01:00:00 2.130245 96.35973
2023-01-18T02:00:00 2.260245 95.12331
2023-01-18T03:00:00 1.940245 95.38059
2023-01-18T04:00:00 1.670245 96.40754
2023-01-18T05:00:00 1.580245 96.1939
2023-01-18T06:00:00 1.760245 95.57806
2023-01-18T07:00:00 1.570245 96.96301
2023-01-18T08:00:00 1.570245 96.75259
2023-01-18T09:00:00 1.450245 96.04797
2023-01-18T10:00:00 1.380245 93.49469
2023-01-18T11:00:00 1.520245 89.82893
2023-01-18T12:00:00 1.900245 83.52626
2023-01-18T13:00:00 1.910245 82.97704
2023-01-18T14:00:00 1.940245 80.87083
2023-01-18T15:00:00 1.550245 81.10772
2023-01-18T16:00:00 1.130245 81.34193
2023-01-18T17:00:00 0.470245 81.66213
2023-01-18T18:00:00 0.160245 84.27369
2023-01-18T19:00:00 -0.01975 85.70453
2023-01-18T20:00:00 -0.23975 88.2653
2023-01-18T21:00:00 -0.39975 88.31294
2023-01-18T22:00:00 -0.22975 84.47086
2023-01-18T23:00:00 -1.00975 88.04595
2023-01-19T00:00:00 -1.37975 90.13927
2023-01-19T01:00:00 -1.51975 89.78796
2023-01-19T02:00:00 -2.15975 90.5359
2023-01-19T03:00:00 -2.50975 90.36434
2023-01-19T04:00:00 -2.30975 89.0976
2023-01-19T05:00:00 -2.16975 88.17613
2023-01-19T06:00:00 -2.18975 86.91607
2023-01-19T07:00:00 -1.93975 84.93307
2023-01-19T08:00:00 -1.96975 85.63904
2023-01-19T09:00:00 -1.24975 85.09261
2023-01-19T10:00:00 -0.05975 82.561
2023-01-19T11:00:00 0.510245 78.97033
2023-01-19T12:00:00 1.280245 74.35602
2023-01-19T13:00:00 1.730245 72.63451
2023-01-19T14:00:00 1.820245 72.32839
2023-01-19T15:00:00 1.490245 77.85766
2023-01-19T16:00:00 -0.01975 85.51334
2023-01-19T17:00:00 -1.00975 90.58094
2023-01-19T18:00:00 -1.39975 91.76971
2023-01-19T19:00:00 -1.99975 92.06096
2023-01-19T20:00:00 -2.58975 90.08337
2023-01-19T21:00:00 -3.10975 91.40621
2023-01-19T22:00:00 -3.70976 91.20988
2023-01-19T23:00:00 -3.45976 89.85528
2023-01-20T00:00:00 -3.59975 89.2934
2023-01-20T01:00:00 -3.50975 87.48058
2023-01-20T02:00:00 -3.44975 86.02789
2023-01-20T03:00:00 -3.19975 85.27553
2023-01-20T04:00:00 -2.95975 84.78938
2023-01-20T05:00:00 -2.31975 80.5945
2023-01-20T06:00:00 -2.29975 81.40189
2023-01-20T07:00:00 -2.49975 83.89106
2023-01-20T08:00:00 -1.01975 80.14297
2023-01-20T09:00:00 -0.18975 77.96195
2023-01-20T10:00:00 0.090245 80.81235
2023-01-20T11:00:00 0.820245 77.91116
2023-01-20T12:00:00 1.330245 73.31572
2023-01-20T13:00:00 1.650245 71.16392
2023-01-20T14:00:00 1.990246 68.87658
2023-01-20T15:00:00 1.620246 72.61137
2023-01-20T16:00:00 0.400245 77.83507
2023-01-20T17:00:00 -0.73975 81.46992
2023-01-20T18:00:00 -1.46975 86.94059
2023-01-20T19:00:00 -1.56975 88.57786
2023-01-20T20:00:00 -1.14975 86.20043
2023-01-20T21:00:00 -2.26975 92.1758
2023-01-20T22:00:00 -1.74975 85.86285
2023-01-20T23:00:00 -1.51975 84.47978
2023-01-21T00:00:00 -1.82975 83.98935
2023-01-21T01:00:00 -2.19975 83.7441
2023-01-21T02:00:00 -2.92975 85.70448
2023-01-21T03:00:00 -2.68975 82.33958
2023-01-21T04:00:00 -2.96975 81.10429
2023-01-21T05:00:00 -3.48975 84.0657
2023-01-21T06:00:00 -3.93975 85.30281
2023-01-21T07:00:00 -4.51976 87.15167
2023-01-21T08:00:00 -3.89975 87.43189
2023-01-21T09:00:00 -2.25975 82.59601
2023-01-21T10:00:00 -0.78975 77.97013
2023-01-21T11:00:00 0.260245 74.82375
2023-01-21T12:00:00 1.030245 70.86741
2023-01-21T13:00:00 1.070245 70.60957
2023-01-21T14:00:00 0.580245 74.43829
2023-01-21T15:00:00 0.010245 78.94201
2023-01-21T16:00:00 -0.58975 82.47999
2023-01-21T17:00:00 -0.56975 81.80415
2023-01-21T18:00:00 -0.46975 80.17555
2023-01-21T19:00:00 -0.38975 80.61229
2023-01-21T20:00:00 -0.37975 81.83413
2023-01-21T21:00:00 -0.49975 83.92881
2023-01-21T22:00:00 -0.61975 84.47954
2023-01-21T23:00:00 -0.65975 85.04548
2023-01-22T00:00:00 -0.71975 86.19116
2023-01-22T01:00:00 -0.69975 86.71093
2023-01-22T02:00:00 -0.70975 88.14627
2023-01-22T03:00:00 -0.72975 88.87026
2023-01-22T04:00:00 -0.60975 89.01583
2023-01-22T05:00:00 -0.39975 88.11599
2023-01-22T06:00:00 -0.29975 88.8509
2023-01-22T07:00:00 -0.23975 89.71888
2023-01-22T08:00:00 -0.13975 90.26248
2023-01-22T09:00:00 0.070245 89.94978
2023-01-22T10:00:00 0.600245 87.19231
2023-01-22T11:00:00 0.990245 85.83493
2023-01-22T12:00:00 1.330245 82.16003
2023-01-22T13:00:00 1.570245 80.03801
2023-01-22T14:00:00 1.670245 79.11205
2023-01-22T15:00:00 1.500245 80.44232
2023-01-22T16:00:00 1.490245 80.38116
2023-01-22T17:00:00 1.740246 81.79898
2023-01-22T18:00:00 1.520245 83.47209
2023-01-22T19:00:00 1.220245 85.73786
2023-01-22T20:00:00 0.740245 86.63129
2023-01-22T21:00:00 0.940245 86.33677
2023-01-22T22:00:00 0.510245 88.41431
2023-01-22T23:00:00 0.400245 88.01093
2023-01-23T00:00:00 0.480245 87.3717
2023-01-23T01:00:00 0.720245 87.07788
2023-01-23T02:00:00 0.670245 87.26505
2023-01-23T03:00:00 0.790245 86.25435
2023-01-23T04:00:00 0.840245 85.75235
2023-01-23T05:00:00 0.740245 84.47955
2023-01-23T06:00:00 0.730245 82.74169
2023-01-23T07:00:00 0.600245 80.95561
2023-01-23T08:00:00 0.730245 80.19621
2023-01-23T09:00:00 0.830245 80.51197
2023-01-23T10:00:00 1.670245 72.78502
2023-01-23T11:00:00 2.080246 72.06008
2023-01-23T12:00:00 2.400245 70.95573
2023-01-23T13:00:00 2.720245 71.18395
2023-01-23T14:00:00 2.900245 71.22283
2023-01-23T15:00:00 2.990245 72.35938
2023-01-23T16:00:00 2.880245 73.25261
2023-01-23T17:00:00 2.970245 73.10863
2023-01-23T18:00:00 3.010245 74.20496
2023-01-23T19:00:00 3.190246 75.84224
2023-01-23T20:00:00 3.250246 76.86255
2023-01-23T21:00:00 3.420245 76.50013
2023-01-23T22:00:00 3.460246 77.69275
2023-01-23T23:00:00 3.530245 77.5916
2023-01-24T00:00:00 3.520246 77.76018
2023-01-24T01:00:00 3.640245 77.21519
2023-01-24T02:00:00 3.560246 77.48357
2023-01-24T03:00:00 3.420245 77.97032
2023-01-24T04:00:00 3.320245 78.35309
2023-01-24T05:00:00 3.260245 78.91795
2023-01-24T06:00:00 3.270246 79.55669
2023-01-24T07:00:00 3.170245 80.12357
2023-01-24T08:00:00 3.300245 79.85268
2023-01-24T09:00:00 3.400245 80.21925
2023-01-24T10:00:00 3.870246 78.1058
2023-01-24T11:00:00 4.230246 77.09597
2023-01-24T12:00:00 4.630245 74.90347
2023-01-24T13:00:00 4.920245 74.68735
2023-01-24T14:00:00 5.040245 74.60209
2023-01-24T15:00:00 4.990245 75.95675
2023-01-24T16:00:00 3.900245 81.65023
2023-01-24T17:00:00 3.770246 82.88248
2023-01-24T18:00:00 3.450245 84.41343
2023-01-24T19:00:00 3.390245 85.94724
2023-01-24T20:00:00 3.480246 86.39414
2023-01-24T21:00:00 3.100246 86.85043
2023-01-24T22:00:00 2.590245 87.10658
2023-01-24T23:00:00 3.180245 86.98557
2023-01-25T00:00:00 2.580246 87.99603
2023-01-25T01:00:00 2.700245 89.03596
2023-01-25T02:00:00 2.540246 89.53757
2023-01-25T03:00:00 2.590245 89.73734
2023-01-25T04:00:00 2.710246 90.92491
2023-01-25T05:00:00 2.320245 91.35272
2023-01-25T06:00:00 2.460245 90.96867
2023-01-25T07:00:00 2.280245 90.49208
2023-01-25T08:00:00 2.620246 88.25626
2023-01-25T09:00:00 2.830246 85.00827
2023-01-25T10:00:00 3.040246 84.72725
2023-01-25T11:00:00 3.100246 84.24411
2023-01-25T12:00:00 3.310246 82.87663
2023-01-25T13:00:00 3.490245 82.78221
2023-01-25T14:00:00 3.570245 82.55381
2023-01-25T15:00:00 3.600246 81.42716
2023-01-25T16:00:00 2.790246 85.56149
2023-01-25T17:00:00 3.560246 79.1417
2023-01-25T18:00:00 3.390245 79.75094
2023-01-25T19:00:00 3.250246 80.42951
2023-01-25T20:00:00 3.130245 81.89066
2023-01-25T21:00:00 2.630245 83.38525
2023-01-25T22:00:00 2.420245 84.64502
2023-01-25T23:00:00 1.880245 86.95997
2023-01-26T00:00:00 1.470245 88.38939
2023-01-26T01:00:00 0.800245 89.231
2023-01-26T02:00:00 0.720245 89.94792
2023-01-26T03:00:00 0.680245 89.87781
2023-01-26T04:00:00 0.280245 89.90427
2023-01-26T05:00:00 0.580245 90.13299
2023-01-26T06:00:00 0.530245 89.92914
2023-01-26T07:00:00 0.640245 88.03806
2023-01-26T08:00:00 0.450245 87.56226
2023-01-26T09:00:00 0.490245 86.21668
2023-01-26T10:00:00 0.710245 86.4997
2023-01-26T11:00:00 0.940245 83.1419
2023-01-26T12:00:00 0.900245 82.15527
2023-01-26T13:00:00 0.930245 81.55222
2023-01-26T14:00:00 0.710245 81.51762
2023-01-26T15:00:00 0.560245 81.00952
2023-01-26T16:00:00 0.360245 79.83544
2023-01-26T17:00:00 0.000245 80.31464
2023-01-26T18:00:00 -0.24975 80.57491
2023-01-26T19:00:00 -0.48975 81.69395
2023-01-26T20:00:00 -0.55975 81.49879
2023-01-26T21:00:00 -0.71975 82.52201
2023-01-26T22:00:00 -0.72975 84.33751
2023-01-26T23:00:00 -0.90975 85.78007
2023-01-27T00:00:00 -0.87975 85.20701
2023-01-27T01:00:00 -0.92975 86.2934
2023-01-27T02:00:00 -1.07975 87.44644
2023-01-27T03:00:00 -1.08975 88.76438
2023-01-27T04:00:00 -0.91975 88.5844
2023-01-27T05:00:00 -0.95975 89.91275
2023-01-27T06:00:00 -0.67975 88.1497
2023-01-27T07:00:00 -0.63975 89.07892
2023-01-27T08:00:00 -0.45975 88.04355
2023-01-27T09:00:00 -0.11975 85.50015
2023-01-27T10:00:00 0.370245 80.97884
2023-01-27T11:00:00 0.860245 78.44376
2023-01-27T12:00:00 1.180245 77.10893
2023-01-27T13:00:00 1.470245 75.85186
2023-01-27T14:00:00 1.420245 75.61631
2023-01-27T15:00:00 1.400245 76.51999
2023-01-27T16:00:00 1.110246 77.84721
2023-01-27T17:00:00 0.610245 80.8969
2023-01-27T18:00:00 0.170245 83.40067
2023-01-27T19:00:00 0.170245 83.27641
2023-01-27T20:00:00 0.460245 81.5389
2023-01-27T21:00:00 0.380245 82.13653
2023-01-27T22:00:00 0.520245 82.46444
2023-01-27T23:00:00 0.190245 84.15249
2023-01-28T00:00:00 0.060245 85.26971
2023-01-28T01:00:00 0.050245 85.52257
2023-01-28T02:00:00 0.030245 85.90253
2023-01-28T03:00:00 -0.10975 87.49661
2023-01-28T04:00:00 0.380245 86.20281
2023-01-28T05:00:00 0.510245 86.09159
2023-01-28T06:00:00 0.770245 85.49009
2023-01-28T07:00:00 0.850245 85.56374
2023-01-28T08:00:00 1.210245 84.60632
2023-01-28T09:00:00 1.550245 82.98558
2023-01-28T10:00:00 2.030245 74.89468
2023-01-28T11:00:00 2.410245 72.56056
2023-01-28T12:00:00 2.700245 69.55587
2023-01-28T13:00:00 2.720245 69.405
2023-01-28T14:00:00 2.920245 68.42323
2023-01-28T15:00:00 2.870246 68.87225
2023-01-28T16:00:00 2.560246 72.05463
2023-01-28T17:00:00 2.210245 74.65245
2023-01-28T18:00:00 2.050245 76.869
2023-01-28T19:00:00 1.520245 80.50516
2023-01-28T20:00:00 1.060245 82.36264
2023-01-28T21:00:00 1.050245 83.09645
2023-01-28T22:00:00 0.660245 85.28606
2023-01-28T23:00:00 1.010245 84.82945
2023-01-29T00:00:00 0.660245 84.84498
2023-01-29T01:00:00 0.770245 83.54971
2023-01-29T02:00:00 -0.13975 84.04308
2023-01-29T03:00:00 0.080245 83.01499
2023-01-29T04:00:00 -0.32975 82.14949
2023-01-29T05:00:00 0.580245 77.92606
2023-01-29T06:00:00 0.090245 78.48317
2023-01-29T07:00:00 0.430245 78.42606
2023-01-29T08:00:00 0.600245 79.45956
2023-01-29T09:00:00 0.920245 76.65847
2023-01-29T10:00:00 1.380245 74.59885
2023-01-29T11:00:00 1.950245 71.2293
2023-01-29T12:00:00 2.130245 70.31609
2023-01-29T13:00:00 2.400245 68.30291
2023-01-29T14:00:00 2.480245 68.47499
2023-01-29T15:00:00 2.550245 67.57495
2023-01-29T16:00:00 2.010245 70.02673
2023-01-29T17:00:00 2.180245 69.17889
2023-01-29T18:00:00 1.010245 75.1418
2023-01-29T19:00:00 -0.08975 79.69914
2023-01-29T20:00:00 -2.34975 87.68929
2023-01-29T21:00:00 -2.72975 87.97664
2023-01-29T22:00:00 -1.98975 84.99045
2023-01-29T23:00:00 -1.97975 84.86319
2023-01-30T00:00:00 -2.62975 86.86041
2023-01-30T01:00:00 -2.81975 87.10085
2023-01-30T02:00:00 -3.13975 88.12868
2023-01-30T03:00:00 -2.67975 87.9826
2023-01-30T04:00:00 -2.04975 86.27878
2023-01-30T05:00:00 -1.75975 84.12679
2023-01-30T06:00:00 -2.16975 86.32848
2023-01-30T07:00:00 -1.83975 85.52712
2023-01-30T08:00:00 -1.24975 83.50484
2023-01-30T09:00:00 -0.03975 81.76505
2023-01-30T10:00:00 0.890245 79.62763
2023-01-30T11:00:00 1.930245 79.80235
2023-01-30T12:00:00 2.520246 78.55998
2023-01-30T13:00:00 3.030245 77.50251
2023-01-30T14:00:00 3.230246 78.9706
2023-01-30T15:00:00 3.080246 80.99174
2023-01-30T16:00:00 2.920245 83.73064
2023-01-30T17:00:00 2.610245 87.42599
2023-01-30T18:00:00 2.430245 89.65672
2023-01-30T19:00:00 2.120246 91.53463
2023-01-30T20:00:00 1.980245 91.72245
2023-01-30T21:00:00 1.930245 91.45204
2023-01-30T22:00:00 1.940245 91.4529
2023-01-30T23:00:00 1.720245 92.10196
2023-01-31T00:00:00 1.830245 91.70992
2023-01-31T01:00:00 1.500245 93.02802
2023-01-31T02:00:00 1.110246 93.40727
2023-01-31T03:00:00 0.850245 93.86785
2023-01-31T04:00:00 0.370245 94.24873
2023-01-31T05:00:00 0.020245 94.1559
2023-01-31T06:00:00 -0.08975 93.87132
2023-01-31T07:00:00 -0.42975 93.77791
2023-01-31T08:00:00 0.140245 93.61157
2023-01-31T09:00:00 1.510245 92.96106
2023-01-31T10:00:00 2.880245 89.18318
2023-01-31T11:00:00 4.040246 84.85773
2023-01-31T12:00:00 5.020245 79.09805
2023-01-31T13:00:00 5.110245 77.81216
2023-01-31T14:00:00 5.150245 75.27479
2023-01-31T15:00:00 5.050245 75.31047
2023-01-31T16:00:00 5.000245 76.51043
2023-01-31T17:00:00 4.960245 77.9549
2023-01-31T18:00:00 4.700245 80.60051
2023-01-31T19:00:00 4.450245 82.80005
2023-01-31T20:00:00 4.530245 82.81142
2023-01-31T21:00:00 4.480246 84.12512
2023-01-31T22:00:00 4.410245 86.25646
2023-01-31T23:00:00 4.380245 86.62473
2023-02-01T00:00:00 4.220245 85.86298
2023-02-01T01:00:00 3.660245 87.41795
2023-02-01T02:00:00 3.050245 88.81445
2023-02-01T03:00:00 2.990245 88.61584
2023-02-01T04:00:00 2.920245 88.41637
2023-02-01T05:00:00 3.240245 87.56036
2023-02-01T06:00:00 3.610245 87.28645
2023-02-01T07:00:00 3.860245 88.57856
2023-02-01T08:00:00 4.010245 91.03743
2023-02-01T09:00:00 4.470245 90.49428
2023-02-01T10:00:00 5.160245 87.33418
2023-02-01T11:00:00 5.800245 82.34199
2023-02-01T12:00:00 6.390245 78.25463
2023-02-01T13:00:00 6.640245 73.52389
2023-02-01T14:00:00 6.770245 69.9913
2023-02-01T15:00:00 6.580246 70.9156
2023-02-01T16:00:00 6.190245 71.55353
2023-02-01T17:00:00 5.990245 71.15058
2023-02-01T18:00:00 6.040245 70.69902
2023-02-01T19:00:00 5.760245 71.30866
2023-02-01T20:00:00 5.710245 70.88551
2023-02-01T21:00:00 5.770245 70.13044
2023-02-01T22:00:00 5.570245 71.57984
2023-02-01T23:00:00 5.430245 73.60393
2023-02-02T00:00:00 5.320245 75.96266
2023-02-02T01:00:00 5.280245 78.40419
2023-02-02T02:00:00 5.270245 79.93963
2023-02-02T03:00:00 5.090245 82.77194
2023-02-02T04:00:00 4.980245 84.37243
2023-02-02T05:00:00 5.040245 84.44062
2023-02-02T06:00:00 5.210245 83.68192
2023-02-02T07:00:00 5.260245 83.50945
2023-02-02T08:00:00 5.440245 83.53392
2023-02-02T09:00:00 5.750245 82.7467
2023-02-02T10:00:00 6.220245 79.35105
2023-02-02T11:00:00 6.610245 78.62679
2023-02-02T12:00:00 7.020245 77.69508
2023-02-02T13:00:00 7.390245 75.36755
2023-02-02T14:00:00 7.330246 75.19585
2023-02-02T15:00:00 7.340245 72.82404
2023-02-02T16:00:00 7.390245 71.95488
2023-02-02T17:00:00 7.100246 73.35111
2023-02-02T18:00:00 6.890245 74.89987
2023-02-02T19:00:00 6.410245 77.70142
2023-02-02T20:00:00 6.030245 80.34628
2023-02-02T21:00:00 5.710245 81.39427
2023-02-02T22:00:00 5.800245 81.40771
2023-02-02T23:00:00 5.630245 81.4987
2023-02-03T00:00:00 5.330246 81.98058
2023-02-03T01:00:00 5.270245 82.20693
2023-02-03T02:00:00 5.410245 81.11662
2023-02-03T03:00:00 5.470245 78.94511
2023-02-03T04:00:00 5.600246 78.12087
2023-02-03T05:00:00 5.340245 79.66427
2023-02-03T06:00:00 5.470245 80.95165
2023-02-03T07:00:00 5.710245 80.87255
2023-02-03T08:00:00 5.870246 81.30206
2023-02-03T09:00:00 6.570245 77.72885
2023-02-03T10:00:00 7.270245 72.44676
2023-02-03T11:00:00 8.020246 68.18099
2023-02-03T12:00:00 8.190246 67.82968
2023-02-03T13:00:00 8.400246 65.91528
2023-02-03T14:00:00 8.290245 66.07887
2023-02-03T15:00:00 7.980245 67.73407
2023-02-03T16:00:00 7.670245 68.88916
2023-02-03T17:00:00 7.570245 69.66177
2023-02-03T18:00:00 7.430245 70.53581
2023-02-03T19:00:00 7.290245 71.72894
2023-02-03T20:00:00 7.130245 73.30457
2023-02-03T21:00:00 7.220245 74.37623
2023-02-03T22:00:00 7.320245 76.86887
2023-02-03T23:00:00 7.080246 79.65812
2023-02-04T00:00:00 6.860245 82.90101
2023-02-04T01:00:00 6.720245 85.01473
2023-02-04T02:00:00 6.560246 87.36283
2023-02-04T03:00:00 6.610245 88.41808
2023-02-04T04:00:00 6.610245 88.8536
2023-02-04T05:00:00 6.570245 90.29452
2023-02-04T06:00:00 6.460245 91.43103
2023-02-04T07:00:00 6.340245 92.906
2023-02-04T08:00:00 6.550245 93.11496
2023-02-04T09:00:00 7.010245 92.1775
2023-02-04T10:00:00 7.340245 92.20109
2023-02-04T11:00:00 7.920245 89.5359
2023-02-04T12:00:00 8.430245 87.19648
2023-02-04T13:00:00 8.840245 81.05495
2023-02-04T14:00:00 8.590245 80.96174
2023-02-04T15:00:00 8.300245 79.96115
2023-02-04T16:00:00 7.550245 80.97797
2023-02-04T17:00:00 6.290245 85.68518
2023-02-04T18:00:00 4.750245 89.23988
2023-02-04T19:00:00 3.490245 91.25452
2023-02-04T20:00:00 2.460245 92.56178
2023-02-04T21:00:00 2.060246 94.35836
2023-02-04T22:00:00 2.200245 95.73968
2023-02-04T23:00:00 2.140245 95.73657
2023-02-05T00:00:00 1.650245 96.1277
2023-02-05T01:00:00 1.340246 95.97262
2023-02-05T02:00:00 1.060245 95.81845
2023-02-05T03:00:00 0.460245 96.63064
2023-02-05T04:00:00 0.350245 96.83771
2023-02-05T05:00:00 0.370245 96.83863
2023-02-05T06:00:00 0.420245 97.19558
2023-02-05T07:00:00 0.540245 97.69872
2023-02-05T08:00:00 1.120246 96.45115
2023-02-05T09:00:00 2.000246 95.79842
2023-02-05T10:00:00 3.150245 93.28133
2023-02-05T11:00:00 3.840245 92.99628
2023-02-05T12:00:00 4.850246 90.84972
2023-02-05T13:00:00 5.370246 90.25304
2023-02-05T14:00:00 5.490245 88.93247
2023-02-05T15:00:00 5.570245 87.19336
2023-02-05T16:00:00 5.360245 88.35401
2023-02-05T17:00:00 5.170245 91.2637
2023-02-05T18:00:00 4.910245 91.82658
2023-02-05T19:00:00 4.730245 92.79482
2023-02-05T20:00:00 4.500246 93.77176
2023-02-05T21:00:00 4.500246 94.90878
2023-02-05T22:00:00 4.400245 95.17279
2023-02-05T23:00:00 4.370246 94.29755
2023-02-06T00:00:00 4.390245 93.10098
2023-02-06T01:00:00 4.120246 92.81739
2023-02-06T02:00:00 3.800245 93.12639
2023-02-06T03:00:00 3.480246 92.90416
2023-02-06T04:00:00 3.260245 91.8272
2023-02-06T05:00:00 3.070245 91.0876
2023-02-06T06:00:00 2.890245 91.20354
2023-02-06T07:00:00 2.640245 91.18204
2023-02-06T08:00:00 2.800245 90.47421
2023-02-06T09:00:00 3.140245 88.95205
2023-02-06T10:00:00 3.980246 81.89913
2023-02-06T11:00:00 4.450245 78.0927
2023-02-06T12:00:00 4.900245 73.60576
2023-02-06T13:00:00 4.990245 71.04237
2023-02-06T14:00:00 4.880245 69.83449
2023-02-06T15:00:00 4.530245 69.50185
2023-02-06T16:00:00 3.850246 69.96742
2023-02-06T17:00:00 3.140245 72.60509
2023-02-06T18:00:00 2.660245 74.46514
2023-02-06T19:00:00 2.390245 73.97135
2023-02-06T20:00:00 2.230245 71.93094
2023-02-06T21:00:00 2.010245 70.23682
2023-02-06T22:00:00 1.080245 77.03291
2023-02-06T23:00:00 0.670245 78.52737
2023-02-07T00:00:00 0.690245 76.78758
2023-02-07T01:00:00 0.500245 73.64109
2023-02-07T02:00:00 -0.04975 72.86114
2023-02-07T03:00:00 -0.31975 71.59517
2023-02-07T04:00:00 -0.86975 72.35358
2023-02-07T05:00:00 -1.75975 76.08521
2023-02-07T06:00:00 -2.86975 79.94633
2023-02-07T07:00:00 -3.15975 79.9571
2023-02-07T08:00:00 -1.11975 75.57463
2023-02-07T09:00:00 0.150245 68.65702
2023-02-07T10:00:00 1.160245 67.04083
2023-02-07T11:00:00 2.080246 66.20641
2023-02-07T12:00:00 3.170245 64.36654
2023-02-07T13:00:00 4.110245 61.36185
2023-02-07T14:00:00 4.670245 61.0518
2023-02-07T15:00:00 4.800245 59.91457
2023-02-07T16:00:00 3.680245 68.29334
2023-02-07T17:00:00 0.790245 76.634
2023-02-07T18:00:00 -0.21975 80.57988
2023-02-07T19:00:00 -1.09975 84.41197
2023-02-07T20:00:00 -1.63975 86.5926
2023-02-07T21:00:00 -2.08975 88.11892
2023-02-07T22:00:00 -2.71975 86.65108
2023-02-07T23:00:00 -3.03975 86.60974
2023-02-08T00:00:00 -3.32975 86.63822
2023-02-08T01:00:00 -3.38975 84.20964
2023-02-08T02:00:00 -3.65975 83.20384
2023-02-08T03:00:00 -3.80975 81.654
2023-02-08T04:00:00 -4.16975 80.83855
2023-02-08T05:00:00 -4.44975 80.28913
2023-02-08T06:00:00 -4.24976 77.1969
2023-02-08T07:00:00 -3.50975 73.7006
2023-02-08T08:00:00 -2.32975 75.79742
2023-02-08T09:00:00 -0.69975 64.31407
2023-02-08T10:00:00 0.170245 57.56556
2023-02-08T11:00:00 0.960245 55.46728
2023-02-08T12:00:00 1.750246 54.08665
2023-02-08T13:00:00 2.340245 52.97968
2023-02-08T14:00:00 2.760245 52.17284
2023-02-08T15:00:00 2.980246 56.30528
2023-02-08T16:00:00 3.120246 48.55216
2023-02-08T17:00:00 2.710246 54.07632
2023-02-08T18:00:00 1.090246 60.65057
2023-02-08T19:00:00 -2.32975 75.73911
2023-02-08T20:00:00 -2.91975 78.41448
2023-02-08T21:00:00 -3.76976 82.61154
2023-02-08T22:00:00 -3.80975 79.78075
2023-02-08T23:00:00 -4.41975 83.08546
2023-02-09T00:00:00 -4.92975 85.75902
2023-02-09T01:00:00 -5.43975 88.25826
2023-02-09T02:00:00 -5.66975 89.5431
2023-02-09T03:00:00 -6.05976 91.11614
2023-02-09T04:00:00 -5.98975 90.69909
2023-02-09T05:00:00 -6.11976 89.70146
2023-02-09T06:00:00 -5.96975 89.30006
2023-02-09T07:00:00 -5.85975 88.75816
2023-02-09T08:00:00 -3.53975 84.64133
2023-02-09T09:00:00 -0.81975 80.90621
2023-02-09T10:00:00 0.950245 79.40093
2023-02-09T11:00:00 2.880245 72.76626
2023-02-09T12:00:00 4.470245 65.45985
2023-02-09T13:00:00 5.500245 60.18944
2023-02-09T14:00:00 6.030245 56.86075
2023-02-09T15:00:00 6.010245 58.56672
2023-02-09T16:00:00 5.010245 59.34857
2023-02-09T17:00:00 3.270246 65.65552
2023-02-09T18:00:00 1.340246 72.22644
2023-02-09T19:00:00 0.280245 76.1355
2023-02-09T20:00:00 -1.36975 81.06059
2023-02-09T21:00:00 -3.07975 86.80293
2023-02-09T22:00:00 -4.17975 92.49844
2023-02-09T23:00:00 -4.46975 92.33118
2023-02-10T00:00:00 -4.28976 91.29289
2023-02-10T01:00:00 -4.34976 90.72879
2023-02-10T02:00:00 -5.20976 93.04957
2023-02-10T03:00:00 -5.44975 94.11185
2023-02-10T04:00:00 -5.61976 93.66348
2023-02-10T05:00:00 -5.67975 93.65855
2023-02-10T06:00:00 -5.65975 92.86693
2023-02-10T07:00:00 -5.78976 92.85546
2023-02-10T08:00:00 -3.05975 88.47418
2023-02-10T09:00:00 -0.45975 83.30812
2023-02-10T10:00:00 1.610245 78.16874
2023-02-10T11:00:00 3.480246 71.03191
2023-02-10T12:00:00 4.910245 64.94055
2023-02-10T13:00:00 5.770245 60.97702
2023-02-10T14:00:00 6.370246 57.71797
2023-02-10T15:00:00 6.160245 58.00332
2023-02-10T16:00:00 4.410245 64.91431
2023-02-10T17:00:00 3.280245 71.04128
2023-02-10T18:00:00 1.800245 76.70876
2023-02-10T19:00:00 0.200245 81.98621
2023-02-10T20:00:00 -1.31975 86.24328
2023-02-10T21:00:00 -2.34975 87.68929
2023-02-10T22:00:00 -3.32975 89.73241
2023-02-10T23:00:00 -3.16975 88.7312
2023-02-11T00:00:00 -3.76976 89.47945
2023-02-11T01:00:00 -4.24976 90.66946
2023-02-11T02:00:00 -4.40975 90.23649
2023-02-11T03:00:00 -4.54975 90.01378
2023-02-11T04:00:00 -4.90975 91.09148
2023-02-11T05:00:00 -4.89975 91.23291
2023-02-11T06:00:00 -5.10975 93.48883
2023-02-11T07:00:00 -4.44975 93.471
2023-02-11T08:00:00 -2.26975 87.63261
2023-02-11T09:00:00 -0.86975 78.3106
2023-02-11T10:00:00 2.310246 74.12016
2023-02-11T11:00:00 4.560246 62.95989
2023-02-11T12:00:00 6.260245 56.2944
2023-02-11T13:00:00 7.520245 51.61137
2023-02-11T14:00:00 8.220245 49.85976
2023-02-11T15:00:00 8.300245 50.55204
2023-02-11T16:00:00 5.870246 65.4123
2023-02-11T17:00:00 4.990245 67.99089
2023-02-11T18:00:00 2.830246 74.99551
2023-02-11T19:00:00 0.070245 84.76472
2023-02-11T20:00:00 -1.06975 88.96595
2023-02-11T21:00:00 -1.65975 92.02171
2023-02-11T22:00:00 -2.02975 94.64743
2023-02-11T23:00:00 -2.04975 94.22183
2023-02-12T00:00:00 -2.06975 94.2204
2023-02-12T01:00:00 -2.07975 93.23609
2023-02-12T02:00:00 -2.48975 93.27378
2023-02-12T03:00:00 -2.35975 93.07388
2023-02-12T04:00:00 -2.63975 93.82564
2023-02-12T05:00:00 -2.90975 93.73448
2023-02-12T06:00:00 -3.10975 92.80189
2023-02-12T07:00:00 -2.78975 92.06054
2023-02-12T08:00:00 -0.77975 89.93105
2023-02-12T09:00:00 2.210245 86.93543
2023-02-12T10:00:00 4.980245 81.16771
2023-02-12T11:00:00 6.950245 75.28635
2023-02-12T12:00:00 8.450246 70.3986
2023-02-12T13:00:00 9.420245 66.29237
2023-02-12T14:00:00 10.18025 64.06593
2023-02-12T15:00:00 10.20025 67.17701
2023-02-12T16:00:00 8.340245 70.82726
2023-02-12T17:00:00 5.940245 77.3427
2023-02-12T18:00:00 3.780245 85.31532
2023-02-12T19:00:00 2.760245 87.88817
2023-02-12T20:00:00 2.050245 90.07699
2023-02-12T21:00:00 0.970245 91.77147
2023-02-12T22:00:00 0.600245 95.30462
2023-02-12T23:00:00 0.380245 95.15221
2023-02-13T00:00:00 0.260245 95.28474
2023-02-13T01:00:00 0.420245 94.73709
2023-02-13T02:00:00 0.580245 93.50583
2023-02-13T03:00:00 0.620245 93.37174
2023-02-13T04:00:00 0.660245 93.5116
2023-02-13T05:00:00 0.710245 95.10225
2023-02-13T06:00:00 0.480245 95.78719
2023-02-13T07:00:00 0.450245 96.27744
2023-02-13T08:00:00 1.260245 95.75942
2023-02-13T09:00:00 2.200245 91.2762
2023-02-13T10:00:00 3.540246 88.16362
2023-02-13T11:00:00 5.100246 83.96682
2023-02-13T12:00:00 6.640245 78.40817
2023-02-13T13:00:00 7.890245 75.19243
2023-02-13T14:00:00 8.810246 70.62392
2023-02-13T15:00:00 9.100245 68.46791
2023-02-13T16:00:00 8.750245 67.80956
2023-02-13T17:00:00 6.410245 78.20218
2023-02-13T18:00:00 3.390245 88.97744
2023-02-13T19:00:00 1.000245 95.18879
2023-02-13T20:00:00 0.700245 94.5469
2023-02-13T21:00:00 0.530245 94.67462
2023-02-13T22:00:00 -0.04975 94.01256
2023-02-13T23:00:00 -0.58975 94.39291
2023-02-14T00:00:00 -0.86975 94.444
2023-02-14T01:00:00 -0.88975 94.65292
2023-02-14T02:00:00 -0.97975 93.66854
2023-02-14T03:00:00 -1.05975 94.01129
2023-02-14T04:00:00 -0.86975 92.98379
2023-02-14T05:00:00 -0.55975 90.69168
2023-02-14T06:00:00 -0.89975 90.86193
2023-02-14T07:00:00 -1.05975 91.05022
2023-02-14T08:00:00 0.210245 91.16708
2023-02-14T09:00:00 1.760245 90.44394
2023-02-14T10:00:00 2.840245 83.90276
2023-02-14T11:00:00 5.010245 77.40248
2023-02-14T12:00:00 6.810246 72.82274
2023-02-14T13:00:00 7.800245 69.1153
2023-02-14T14:00:00 8.770246 67.09325
2023-02-14T15:00:00 9.260245 70.41843
2023-02-14T16:00:00 8.970245 68.00333
2023-02-14T17:00:00 4.520246 83.64815
2023-02-14T18:00:00 1.960245 90.06838
2023-02-14T19:00:00 1.440245 91.74403
2023-02-14T20:00:00 0.680245 93.58156
2023-02-14T21:00:00 0.180245 93.95931
2023-02-14T22:00:00 -0.75975 95.22366
2023-02-14T23:00:00 -1.16975 95.33994
2023-02-15T00:00:00 -1.15975 93.51604
2023-02-15T01:00:00 -1.23975 92.60887
2023-02-15T02:00:00 -1.18975 92.06245
2023-02-15T03:00:00 -1.18975 91.99384
2023-02-15T04:00:00 -1.08975 91.04742
2023-02-15T05:00:00 -1.07975 91.11627
2023-02-15T06:00:00 -1.43975 91.97211
2023-02-15T07:00:00 -1.32975 92.32555
2023-02-15T08:00:00 0.270245 88.91233
2023-02-15T09:00:00 1.890245 84.26415
2023-02-15T10:00:00 4.280245 78.12001
2023-02-15T11:00:00 7.130245 70.06857
2023-02-15T12:00:00 8.860246 67.54506
2023-02-15T13:00:00 10.19025 66.32742
2023-02-15T14:00:00 11.37025 63.49463
2023-02-15T15:00:00 11.10025 71.6383
2023-02-15T16:00:00 8.420245 74.07714
2023-02-15T17:00:00 3.010245 86.15006
2023-02-15T18:00:00 2.380245 87.84613
2023-02-15T19:00:00 1.410245 93.36074
2023-02-15T20:00:00 0.800245 93.93311
2023-02-15T21:00:00 0.560245 93.98547
2023-02-15T22:00:00 0.430245 93.01562
2023-02-15T23:00:00 -0.04975 94.70732
2023-02-16T00:00:00 -0.47975 95.10013
2023-02-16T01:00:00 -0.67975 94.52667
2023-02-16T02:00:00 -0.61975 94.25131
2023-02-16T03:00:00 -0.48975 95.45118
2023-02-16T04:00:00 -0.53975 95.58929
2023-02-16T05:00:00 -0.89975 96.27837
2023-02-16T06:00:00 -0.93975 96.34753
2023-02-16T07:00:00 -0.97975 95.35144
2023-02-16T08:00:00 0.910245 93.32455
2023-02-16T09:00:00 4.530245 85.16476
2023-02-16T10:00:00 7.180245 71.75777
2023-02-16T11:00:00 9.880245 64.90936
2023-02-16T12:00:00 11.70025 57.51655
2023-02-16T13:00:00 13.07025 51.84051
2023-02-16T14:00:00 13.63025 52.14393
2023-02-16T15:00:00 13.82025 42.24684
2023-02-16T16:00:00 11.64025 54.94117
2023-02-16T17:00:00 9.300245 64.17488
2023-02-16T18:00:00 9.020246 65.35623
2023-02-16T19:00:00 8.970245 66.56732
2023-02-16T20:00:00 8.630245 69.19666
2023-02-16T21:00:00 7.950245 72.27368
2023-02-16T22:00:00 8.310246 67.61449
2023-02-16T23:00:00 7.730245 70.49818
2023-02-17T00:00:00 7.700245 70.39114
2023-02-17T01:00:00 7.700245 70.84531
2023-02-17T02:00:00 8.140245 68.25642
2023-02-17T03:00:00 8.840245 67.49252
2023-02-17T04:00:00 9.080245 68.51212
2023-02-17T05:00:00 9.120245 71.79453
2023-02-17T06:00:00 9.220245 73.50169
2023-02-17T07:00:00 9.290245 75.18363
2023-02-17T08:00:00 10.04025 74.74432
2023-02-17T09:00:00 11.09025 69.91373
2023-02-17T10:00:00 11.50025 72.51556
2023-02-17T11:00:00 12.14025 72.33945
2023-02-17T12:00:00 12.82025 72.51962
2023-02-17T13:00:00 13.10025 72.97013
2023-02-17T14:00:00 13.26025 73.90001
2023-02-17T15:00:00 13.39025 74.42744
2023-02-17T16:00:00 13.04025 76.31046
2023-02-17T17:00:00 12.37025 78.99697
2023-02-17T18:00:00 11.73025 82.30227
2023-02-17T19:00:00 11.16025 85.7137
2023-02-17T20:00:00 10.97025 86.86556
2023-02-17T21:00:00 10.98025 88.11349
2023-02-17T22:00:00 10.69025 88.50576
2023-02-17T23:00:00 10.56025 90.56063
2023-02-18T00:00:00 10.58025 91.17809
2023-02-18T01:00:00 10.33025 91.96719
2023-02-18T02:00:00 10.22025 92.14709
2023-02-18T03:00:00 10.19025 92.33287
2023-02-18T04:00:00 10.29025 91.52869
2023-02-18T05:00:00 10.36025 91.28561
2023-02-18T06:00:00 10.56025 89.94833
2023-02-18T07:00:00 10.68025 88.62516
2023-02-18T08:00:00 11.05025 86.46191
2023-02-18T09:00:00 11.76025 83.88521
2023-02-18T10:00:00 12.58025 77.22493
2023-02-18T11:00:00 13.45025 72.63932
2023-02-18T12:00:00 14.15025 68.22334
2023-02-18T13:00:00 14.69025 64.05264
2023-02-18T14:00:00 15.06025 62.96604
2023-02-18T15:00:00 14.93025 62.63462
2023-02-18T16:00:00 14.35025 64.59119
2023-02-18T17:00:00 13.40025 70.19427
2023-02-18T18:00:00 12.85025 74.7877
2023-02-18T19:00:00 12.11025 78.90322
2023-02-18T20:00:00 12.13025 79.17532
2023-02-18T21:00:00 11.79025 80.37383
2023-02-18T22:00:00 11.09025 79.83223
2023-02-18T23:00:00 10.69025 78.24858
2023-02-19T00:00:00 9.980246 79.49851
2023-02-19T01:00:00 9.530245 79.87122
2023-02-19T02:00:00 9.240245 80.88824
2023-02-19T03:00:00 9.100245 81.37523
2023-02-19T04:00:00 9.260245 81.73779
2023-02-19T05:00:00 9.370245 82.43572
2023-02-19T06:00:00 9.570246 81.89468
2023-02-19T07:00:00 9.410245 83.47393
2023-02-19T08:00:00 9.340245 84.8017
2023-02-19T09:00:00 9.780245 82.32084
2023-02-19T10:00:00 10.67025 76.48279
2023-02-19T11:00:00 11.14025 70.46137
2023-02-19T12:00:00 11.24025 66.89158
2023-02-19T13:00:00 11.07025 67.41746
2023-02-19T14:00:00 11.09025 67.61074
2023-02-19T15:00:00 11.03025 65.36108
2023-02-19T16:00:00 10.67025 65.78535
2023-02-19T17:00:00 9.930245 69.13364
2023-02-19T18:00:00 8.810246 74.83247
2023-02-19T19:00:00 8.560246 77.19216
2023-02-19T20:00:00 8.120246 79.31827
2023-02-19T21:00:00 8.050245 80.31629
2023-02-19T22:00:00 7.720245 81.00327
2023-02-19T23:00:00 6.920245 83.49619
2023-02-20T00:00:00 7.130245 82.99651
2023-02-20T01:00:00 6.220245 85.49526
2023-02-20T02:00:00 5.380245 88.54424
2023-02-20T03:00:00 4.540246 89.72991
2023-02-20T04:00:00 3.680245 91.13978
2023-02-20T05:00:00 2.930245 92.59732
2023-02-20T06:00:00 2.750246 93.79204
2023-02-20T07:00:00 2.300245 95.33162
2023-02-20T08:00:00 4.340245 91.32536
2023-02-20T09:00:00 7.290245 83.72176
2023-02-20T10:00:00 9.860246 72.19512
2023-02-20T11:00:00 11.92025 63.04917
2023-02-20T12:00:00 13.40025 57.35453
2023-02-20T13:00:00 14.57025 53.85462
2023-02-20T14:00:00 15.37025 50.81802
2023-02-20T15:00:00 15.65025 50.04957
2023-02-20T16:00:00 14.85025 54.91618
2023-02-20T17:00:00 13.33025 55.86691
2023-02-20T18:00:00 10.15025 68.21465
2023-02-20T19:00:00 8.860246 72.19972
2023-02-20T20:00:00 5.940245 83.60147
2023-02-20T21:00:00 4.570245 87.45624
2023-02-20T22:00:00 3.390245 89.94354
2023-02-20T23:00:00 3.160245 89.85702
2023-02-21T00:00:00 2.780245 89.30229
2023-02-21T01:00:00 2.050245 88.38758
2023-02-21T02:00:00 1.470245 89.49617
2023-02-21T03:00:00 1.190245 90.32425
2023-02-21T04:00:00 0.850245 89.96072
2023-02-21T05:00:00 0.790245 89.03316
2023-02-21T06:00:00 0.540245 89.07244
2023-02-21T07:00:00 0.720245 89.28839
2023-02-21T08:00:00 3.650245 84.99126
2023-02-21T09:00:00 7.180245 77.0083
2023-02-21T10:00:00 9.780245 68.66449
2023-02-21T11:00:00 12.38025 59.09292
2023-02-21T12:00:00 14.28025 52.9154
2023-02-21T13:00:00 15.61025 47.53967
2023-02-21T14:00:00 16.30025 43.37945
2023-02-21T15:00:00 16.64025 43.23414
2023-02-21T16:00:00 15.51025 47.91413
2023-02-21T17:00:00 12.98025 54.18237
2023-02-21T18:00:00 9.560246 66.70172
2023-02-21T19:00:00 6.180245 77.94013
2023-02-21T20:00:00 5.350246 81.51527
2023-02-21T21:00:00 4.950245 84.06708
2023-02-21T22:00:00 4.210246 85.49231
2023-02-21T23:00:00 4.090245 86.34235
2023-02-22T00:00:00 3.750246 86.80074
2023-02-22T01:00:00 2.860245 89.50425
2023-02-22T02:00:00 2.540246 89.92779
2023-02-22T03:00:00 2.070245 92.06333
2023-02-22T04:00:00 1.750246 92.97894
2023-02-22T05:00:00 1.920245 92.85666
2023-02-22T06:00:00 2.000246 93.33507
2023-02-22T07:00:00 2.060246 93.88159
2023-02-22T08:00:00 3.890245 90.96209
2023-02-22T09:00:00 7.050245 83.3372
2023-02-22T10:00:00 9.810246 74.911
2023-02-22T11:00:00 11.65025 68.77745
2023-02-22T12:00:00 12.57025 67.465
2023-02-22T13:00:00 13.13025 67.12289
2023-02-22T14:00:00 13.23025 67.56172
2023-02-22T15:00:00 12.99025 69.44065
2023-02-22T16:00:00 12.14025 75.07099
2023-02-22T17:00:00 11.10025 83.00725
2023-02-22T18:00:00 10.70025 86.54227
2023-02-22T19:00:00 10.16025 89.97631
2023-02-22T20:00:00 9.820246 92.05736
2023-02-22T21:00:00 9.610246 93.75167
2023-02-22T22:00:00 9.500245 95.41867
2023-02-22T23:00:00 9.220245 95.92762
2023-02-23T00:00:00 9.070246 96.70902
2023-02-23T01:00:00 8.470245 98.01951
2023-02-23T02:00:00 8.140245 98.41485
2023-02-23T03:00:00 7.690245 99.08308
2023-02-23T04:00:00 7.710245 99.42407
2023-02-23T05:00:00 7.650245 98.8784
2023-02-23T06:00:00 7.710245 98.33762
2023-02-23T07:00:00 8.000245 97.40442
2023-02-23T08:00:00 8.920245 95.52348
2023-02-23T09:00:00 9.780245 93.12591
2023-02-23T10:00:00 11.48025 85.86558
2023-02-23T11:00:00 12.44025 78.52613
2023-02-23T12:00:00 13.17025 73.08283
2023-02-23T13:00:00 13.55025 68.98772
2023-02-23T14:00:00 13.70025 67.43167
2023-02-23T15:00:00 13.83025 66.31395
2023-02-23T16:00:00 13.25025 69.44679
2023-02-23T17:00:00 10.06025 86.94831
2023-02-23T18:00:00 8.730246 91.66611
2023-02-23T19:00:00 8.090245 94.70186
2023-02-23T20:00:00 7.530245 95.79132
2023-02-23T21:00:00 7.050245 97.4423
2023-02-23T22:00:00 5.980245 97.68004
2023-02-23T23:00:00 4.570245 99.58078
2023-02-24T00:00:00 4.020246 99.9941
2023-02-24T01:00:00 3.790246 99.99054
2023-02-24T02:00:00 4.220245 99.71516
2023-02-24T03:00:00 4.690245 99.30309
2023-02-24T04:00:00 4.860245 98.12649
2023-02-24T05:00:00 5.070245 98.33955
2023-02-24T06:00:00 5.360245 97.72899
2023-02-24T07:00:00 5.260245 97.72583
2023-02-24T08:00:00 5.920245 96.39055
2023-02-24T09:00:00 7.100246 92.11983
2023-02-24T10:00:00 8.730246 89.73148
2023-02-24T11:00:00 10.51025 82.93018
2023-02-24T12:00:00 12.08025 76.87957
2023-02-24T13:00:00 12.99025 71.46893
2023-02-24T14:00:00 13.19025 69.48201
2023-02-24T15:00:00 13.38025 68.15322
2023-02-24T16:00:00 12.47025 73.55339
2023-02-24T17:00:00 11.13025 80.66269
2023-02-24T18:00:00 10.36025 84.34405
2023-02-24T19:00:00 9.510245 88.63743
2023-02-24T20:00:00 9.530245 90.2934
2023-02-24T21:00:00 9.670245 90.55195
2023-02-24T22:00:00 9.300245 89.41206
2023-02-24T23:00:00 8.410246 89.76547
2023-02-25T00:00:00 7.330246 88.18107
2023-02-25T01:00:00 6.490245 88.03394
2023-02-25T02:00:00 6.440245 86.73676
2023-02-25T03:00:00 6.050245 86.87692
2023-02-25T04:00:00 5.800245 85.99143
2023-02-25T05:00:00 5.360245 86.1228
2023-02-25T06:00:00 5.110245 86.5855
2023-02-25T07:00:00 4.880245 87.24104
2023-02-25T08:00:00 5.320245 82.44982
2023-02-25T09:00:00 5.780245 74.58231
2023-02-25T10:00:00 6.110245 72.10761
2023-02-25T11:00:00 5.860245 71.17477
2023-02-25T12:00:00 6.020245 67.53352
2023-02-25T13:00:00 5.620246 66.31678
2023-02-25T14:00:00 5.410245 65.01438
2023-02-25T15:00:00 5.390245 62.93695
2023-02-25T16:00:00 5.270245 60.48669
2023-02-25T17:00:00 4.630245 62.23368
2023-02-25T18:00:00 3.790246 66.91535
2023-02-25T19:00:00 2.270246 71.40518
2023-02-25T20:00:00 1.830245 72.11458
2023-02-25T21:00:00 1.760245 72.58653
2023-02-25T22:00:00 1.990246 74.49801
2023-02-25T23:00:00 1.750246 73.45721
2023-02-26T00:00:00 1.350246 73.87096
2023-02-26T01:00:00 0.920245 72.79127
2023-02-26T02:00:00 0.220245 72.86319
2023-02-26T03:00:00 -0.05975 71.43474
2023-02-26T04:00:00 -0.43975 70.91665
2023-02-26T05:00:00 -0.76975 70.46395
2023-02-26T06:00:00 -0.98975 70.14424
2023-02-26T07:00:00 -1.04975 70.56255
2023-02-26T08:00:00 -0.12975 64.46059
2023-02-26T09:00:00 0.640245 56.28515
2023-02-26T10:00:00 1.140245 52.99237
2023-02-26T11:00:00 1.470245 50.51059
2023-02-26T12:00:00 1.890245 50.91479
2023-02-26T13:00:00 1.920245 52.85505
2023-02-26T14:00:00 1.850245 57.50814
2023-02-26T15:00:00 1.790245 63.72791
2023-02-26T16:00:00 1.730245 65.37533
2023-02-26T17:00:00 1.470245 61.31285
2023-02-26T18:00:00 1.220245 58.62502
2023-02-26T19:00:00 1.160245 56.21705
2023-02-26T20:00:00 1.220245 55.45686
2023-02-26T21:00:00 1.080245 55.80391
2023-02-26T22:00:00 0.890245 55.36092
2023-02-26T23:00:00 0.750245 56.01184
2023-02-27T00:00:00 0.700245 56.74087
2023-02-27T01:00:00 0.590245 57.32841
2023-02-27T02:00:00 0.350245 58.02051
2023-02-27T03:00:00 0.300245 58.09645
2023-02-27T04:00:00 0.140245 58.59463
2023-02-27T05:00:00 0.020245 59.43097
2023-02-27T06:00:00 -0.09975 60.09294
2023-02-27T07:00:00 0.050245 61.07195
2023-02-27T08:00:00 0.680245 60.72603
2023-02-27T09:00:00 1.460245 58.19807
2023-02-27T10:00:00 1.950245 56.09757
2023-02-27T11:00:00 2.400245 55.6265
2023-02-27T12:00:00 2.710246 54.61787
2023-02-27T13:00:00 2.860245 54.78695
2023-02-27T14:00:00 2.830246 56.69329
2023-02-27T15:00:00 2.790246 57.02863
2023-02-27T16:00:00 2.560246 57.57548
2023-02-27T17:00:00 2.160245 57.50724
2023-02-27T18:00:00 1.870246 57.03046
2023-02-27T19:00:00 1.310245 58.83064
2023-02-27T20:00:00 0.950245 59.50452
2023-02-27T21:00:00 0.560245 59.67257
2023-02-27T22:00:00 0.110245 60.7586
2023-02-27T23:00:00 -0.26975 62.51461
2023-02-28T00:00:00 -0.46975 63.48458
2023-02-28T01:00:00 -0.61975 64.48399
2023-02-28T02:00:00 -0.70975 65.71755
2023-02-28T03:00:00 -0.55975 66.05981
2023-02-28T04:00:00 -0.62975 68.47289
2023-02-28T05:00:00 -0.78975 71.00092
2023-02-28T06:00:00 -0.98975 73.72252
2023-02-28T07:00:00 -0.71975 74.68272
2023-02-28T08:00:00 -0.24975 73.70853
2023-02-28T09:00:00 0.330245 71.0881
2023-02-28T10:00:00 1.090246 68.46081
2023-02-28T11:00:00 1.770245 66.18079
2023-02-28T12:00:00 2.520246 65.03026
2023-02-28T13:00:00 2.540246 64.88863
2023-02-28T14:00:00 2.720245 63.77209
2023-02-28T15:00:00 2.780245 63.54777
2023-02-28T16:00:00 2.830246 63.79998
2023-02-28T17:00:00 1.610245 67.86215
2023-02-28T18:00:00 0.230245 73.47401
2023-02-28T19:00:00 -0.43975 76.45776
2023-02-28T20:00:00 -0.89975 78.30515
2023-02-28T21:00:00 -1.34975 79.66256
2023-02-28T22:00:00 -1.40975 80.62506
2023-02-28T23:00:00 -1.42975 80.37746
2023-03-01T00:00:00 -1.42975 79.76973
2023-03-01T01:00:00 -1.62975 79.31152
2023-03-01T02:00:00 -1.63975 79.18911
2023-03-01T03:00:00 -1.74975 79.22995
2023-03-01T04:00:00 -1.82975 78.9745
2023-03-01T05:00:00 -1.61975 79.012
2023-03-01T06:00:00 -1.60975 79.6779
2023-03-01T07:00:00 -0.24975 76.26331
2023-03-01T08:00:00 0.590245 74.88967
2023-03-01T09:00:00 1.500245 72.04417
2023-03-01T10:00:00 2.360245 71.90506
2023-03-01T11:00:00 3.170245 69.30013
2023-03-01T12:00:00 4.100246 65.80792
2023-03-01T13:00:00 4.540246 64.51479
2023-03-01T14:00:00 4.880245 63.69762
2023-03-01T15:00:00 4.980245 63.62846
2023-03-01T16:00:00 4.650245 65.89157
2023-03-01T17:00:00 3.510245 70.8811
2023-03-01T18:00:00 2.830246 72.91773
2023-03-01T19:00:00 2.440245 74.42156
2023-03-01T20:00:00 1.850245 76.43383
2023-03-01T21:00:00 1.150245 77.68054
2023-03-01T22:00:00 1.870246 76.77873
2023-03-01T23:00:00 1.310245 78.0573
2023-03-02T00:00:00 0.790245 80.56538
2023-03-02T01:00:00 0.740245 81.2801
2023-03-02T02:00:00 1.140245 79.84776
2023-03-02T03:00:00 1.580245 78.39581
2023-03-02T04:00:00 1.370246 79.82701
2023-03-02T05:00:00 1.190245 80.9903
2023-03-02T06:00:00 0.830245 82.20558
2023-03-02T07:00:00 1.110246 80.67748
2023-03-02T08:00:00 1.610245 79.92623
2023-03-02T09:00:00 2.340245 76.92242
2023-03-02T10:00:00 3.440246 74.5637
2023-03-02T11:00:00 4.160245 71.64984
2023-03-02T12:00:00 4.990245 69.85862
2023-03-02T13:00:00 5.730245 68.45812
2023-03-02T14:00:00 6.040245 67.19473
2023-03-02T15:00:00 6.320245 66.38459
2023-03-02T16:00:00 5.870246 67.79491
2023-03-02T17:00:00 4.470245 74.92735
2023-03-02T18:00:00 2.770246 83.22269
2023-03-02T19:00:00 3.600246 77.94489
2023-03-02T20:00:00 2.910245 81.08353
2023-03-02T21:00:00 2.490245 82.21418
2023-03-02T22:00:00 1.300245 89.41348
2023-03-02T23:00:00 0.750245 90.01707
2023-03-03T00:00:00 0.030245 91.6232
2023-03-03T01:00:00 0.000245 91.68826
2023-03-03T02:00:00 0.330245 90.7756
2023-03-03T03:00:00 0.280245 90.17015
2023-03-03T04:00:00 0.040245 91.08435
2023-03-03T05:00:00 0.220245 90.29754
2023-03-03T06:00:00 0.790245 89.82265
2023-03-03T07:00:00 0.880245 90.62673
2023-03-03T08:00:00 1.960245 88.76548
2023-03-03T09:00:00 2.580246 87.54972
2023-03-03T10:00:00 3.860245 85.57187
2023-03-03T11:00:00 5.130245 80.43597
2023-03-03T12:00:00 6.570245 75.37748
2023-03-03T13:00:00 7.720245 70.84951
2023-03-03T14:00:00 8.380245 69.5872
2023-03-03T15:00:00 8.330246 70.22336
2023-03-03T16:00:00 8.150246 70.08537
2023-03-03T17:00:00 7.800245 70.06099
2023-03-03T18:00:00 6.780245 75.5781
2023-03-03T19:00:00 5.700245 80.35221
2023-03-03T20:00:00 4.660245 83.30747
2023-03-03T21:00:00 4.030245 84.3077
2023-03-03T22:00:00 3.300245 86.43511
2023-03-03T23:00:00 2.860245 87.2643
2023-03-04T00:00:00 2.800245 87.32076
2023-03-04T01:00:00 2.180245 88.33721
2023-03-04T02:00:00 1.850245 88.36598
2023-03-04T03:00:00 1.620246 88.79448
2023-03-04T04:00:00 1.180245 89.40129
2023-03-04T05:00:00 0.320245 91.17702
2023-03-04T06:00:00 -0.54975 92.59631
2023-03-04T07:00:00 -0.36975 93.99027
2023-03-04T08:00:00 1.190245 91.2546
2023-03-04T09:00:00 2.580246 81.568
2023-03-04T10:00:00 4.550245 75.54491
2023-03-04T11:00:00 6.200245 67.18276
2023-03-04T12:00:00 7.100246 65.75276
2023-03-04T13:00:00 7.910245 63.15128
2023-03-04T14:00:00 8.210245 62.00496
2023-03-04T15:00:00 7.950245 61.04819
2023-03-04T16:00:00 7.020245 62.4738
2023-03-04T17:00:00 5.560246 64.95533
2023-03-04T18:00:00 3.090245 74.6049
2023-03-04T19:00:00 2.700245 75.30329
2023-03-04T20:00:00 1.670245 78.4698
2023-03-04T21:00:00 1.070245 80.37191
2023-03-04T22:00:00 0.400245 80.20113
2023-03-04T23:00:00 1.030245 79.00179
2023-03-05T00:00:00 0.680245 81.08921
2023-03-05T01:00:00 0.840245 81.72007
2023-03-05T02:00:00 0.970245 81.07538
2023-03-05T03:00:00 1.200245 80.81189
2023-03-05T04:00:00 0.890245 82.15374
2023-03-05T05:00:00 0.430245 83.93633
2023-03-05T06:00:00 0.240245 85.04047
2023-03-05T07:00:00 0.190245 86.82078
2023-03-05T08:00:00 1.620246 86.10426
2023-03-05T09:00:00 3.210246 79.48863
2023-03-05T10:00:00 4.180245 75.9168
2023-03-05T11:00:00 5.170245 72.70257
2023-03-05T12:00:00 5.970245 70.47954
2023-03-05T13:00:00 6.460245 67.8306
2023-03-05T14:00:00 6.800245 64.07838
2023-03-05T15:00:00 6.890245 62.25912
2023-03-05T16:00:00 6.450245 63.11035
2023-03-05T17:00:00 5.470245 64.07985
2023-03-05T18:00:00 5.550245 63.95835
2023-03-05T19:00:00 3.900245 71.91151
2023-03-05T20:00:00 3.340245 75.09425
2023-03-05T21:00:00 2.640245 78.6964
2023-03-05T22:00:00 1.600245 84.78369
2023-03-05T23:00:00 1.340246 85.87948
2023-03-06T00:00:00 1.280245 86.25188
2023-03-06T01:00:00 0.370245 87.42342
2023-03-06T02:00:00 0.020245 87.96767
2023-03-06T03:00:00 0.700245 86.69042
2023-03-06T04:00:00 0.800245 86.959
2023-03-06T05:00:00 0.370245 87.55293
2023-03-06T06:00:00 -0.03975 88.87903
2023-03-06T07:00:00 0.990245 86.91773
2023-03-06T08:00:00 2.060246 83.12082
2023-03-06T09:00:00 3.120246 79.70651
2023-03-06T10:00:00 4.460246 69.63966
2023-03-06T11:00:00 5.360245 63.48882
2023-03-06T12:00:00 5.720245 61.32513
2023-03-06T13:00:00 5.970245 60.93911
2023-03-06T14:00:00 5.990245 59.91904
2023-03-06T15:00:00 6.120246 58.1214
2023-03-06T16:00:00 5.770245 59.8166
2023-03-06T17:00:00 5.300245 61.89964
2023-03-06T18:00:00 4.770245 65.5808
2023-03-06T19:00:00 4.490245 66.63613
2023-03-06T20:00:00 3.990245 68.41498
2023-03-06T21:00:00 2.950245 73.4296
2023-03-06T22:00:00 2.540246 73.61849
2023-03-06T23:00:00 2.140245 73.75623
2023-03-07T00:00:00 1.960245 74.49204
2023-03-07T01:00:00 1.250245 74.18318
2023-03-07T02:00:00 1.590245 73.47921
2023-03-07T03:00:00 1.510245 72.69701
2023-03-07T04:00:00 1.120246 73.71336
2023-03-07T05:00:00 1.220245 74.39964
2023-03-07T06:00:00 0.780245 74.98376
2023-03-07T07:00:00 2.280245 72.21004
2023-03-07T08:00:00 3.460246 65.65279
2023-03-07T09:00:00 4.470245 59.33634
2023-03-07T10:00:00 5.620246 52.37917
2023-03-07T11:00:00 6.640245 48.83865
2023-03-07T12:00:00 6.950245 49.00475
2023-03-07T13:00:00 7.190245 49.22337
2023-03-07T14:00:00 7.160245 49.10408
2023-03-07T15:00:00 6.650245 50.93699
2023-03-07T16:00:00 6.130245 52.84301
2023-03-07T17:00:00 5.580246 54.6562
2023-03-07T18:00:00 4.830246 58.9472
2023-03-07T19:00:00 4.230246 63.8187
2023-03-07T20:00:00 4.400245 62.77902
2023-03-07T21:00:00 3.970245 64.66172
2023-03-07T22:00:00 4.320245 65.13323
2023-03-07T23:00:00 3.530245 71.04269
2023-03-08T00:00:00 2.840245 73.73377
2023-03-08T01:00:00 1.790245 76.30909
2023-03-08T02:00:00 1.720245 78.07238
2023-03-08T03:00:00 1.850245 78.90904
2023-03-08T04:00:00 3.140245 76.44842
2023-03-08T05:00:00 3.580246 73.93652
2023-03-08T06:00:00 3.700245 74.94346
2023-03-08T07:00:00 4.400245 75.95775
2023-03-08T08:00:00 5.780245 75.93765
2023-03-08T09:00:00 7.560246 77.34769
2023-03-08T10:00:00 8.790245 81.84192
2023-03-08T11:00:00 9.620245 83.15605
2023-03-08T12:00:00 10.59025 80.80584
2023-03-08T13:00:00 11.51025 78.21877
2023-03-08T14:00:00 11.61025 76.74816
2023-03-08T15:00:00 12.12025 76.88625
2023-03-08T16:00:00 11.45025 82.15279
2023-03-08T17:00:00 11.26025 86.36705
2023-03-08T18:00:00 11.65025 83.4175
2023-03-08T19:00:00 12.56025 79.34834
2023-03-08T20:00:00 12.87025 77.79831
2023-03-08T21:00:00 12.78025 79.5967
2023-03-08T22:00:00 12.47025 84.88178
2023-03-08T23:00:00 12.55025 83.8686
2023-03-09T00:00:00 13.06025 79.53088
2023-03-09T01:00:00 12.91025 76.39224
2023-03-09T02:00:00 12.15025 76.05519
2023-03-09T03:00:00 11.32025 78.78033
2023-03-09T04:00:00 10.97025 80.52896
2023-03-09T05:00:00 10.58025 80.97118
2023-03-09T06:00:00 10.35025 80.16117
2023-03-09T07:00:00 10.28025 77.75082
2023-03-09T08:00:00 10.51025 75.35094
2023-03-09T09:00:00 11.14025 71.00227
2023-03-09T10:00:00 11.55025 68.42224
2023-03-09T11:00:00 12.43025 65.18149
2023-03-09T12:00:00 13.46025 60.49407
2023-03-09T13:00:00 14.50025 56.45073
2023-03-09T14:00:00 15.90025 47.15652
2023-03-09T15:00:00 15.79025 45.07642
2023-03-09T16:00:00 15.31025 46.0656
2023-03-09T17:00:00 13.44025 54.49902
2023-03-09T18:00:00 13.69025 47.01904
2023-03-09T19:00:00 11.74025 61.51899
2023-03-09T20:00:00 11.68025 62.02555
2023-03-09T21:00:00 10.79025 69.46206
2023-03-09T22:00:00 10.18025 76.02795
2023-03-09T23:00:00 9.430245 82.15906
2023-03-10T00:00:00 10.10025 80.12372
2023-03-10T01:00:00 11.22025 81.786
2023-03-10T02:00:00 11.04025 83.85316
2023-03-10T03:00:00 10.81025 82.91274
2023-03-10T04:00:00 10.75025 80.44149
2023-03-10T05:00:00 10.78025 79.1843
2023-03-10T06:00:00 10.30025 81.71445
2023-03-10T07:00:00 9.620245 82.18528
2023-03-10T08:00:00 9.080245 82.11056
2023-03-10T09:00:00 9.290245 79.72353
2023-03-10T10:00:00 9.290245 80.89557
2023-03-10T11:00:00 9.190246 82.41111
2023-03-10T12:00:00 9.490245 82.62333
2023-03-10T13:00:00 9.420245 82.8428
2023-03-10T14:00:00 9.310246 75.23992
2023-03-10T15:00:00 9.320246 69.59048
2023-03-10T16:00:00 8.920245 67.65467
2023-03-10T17:00:00 8.660245 66.54381
2023-03-10T18:00:00 8.190246 66.76984
2023-03-10T19:00:00 7.580246 67.49823
2023-03-10T20:00:00 6.790245 70.5016
2023-03-10T21:00:00 6.150245 73.32183
2023-03-10T22:00:00 5.620246 73.90811
2023-03-10T23:00:00 5.030245 75.90916
2023-03-11T00:00:00 4.560246 76.76402
2023-03-11T01:00:00 4.250246 79.89105
2023-03-11T02:00:00 3.740245 82.57853
2023-03-11T03:00:00 3.290246 84.45332
2023-03-11T04:00:00 2.830246 85.75335
2023-03-11T05:00:00 2.110245 89.16992
2023-03-11T06:00:00 1.840245 91.04601
2023-03-11T07:00:00 1.650245 93.64973
2023-03-11T08:00:00 2.140245 87.75542
2023-03-11T09:00:00 2.770246 81.12096
2023-03-11T10:00:00 3.400245 77.34171
2023-03-11T11:00:00 4.580246 72.26463
2023-03-11T12:00:00 5.330246 68.61816
2023-03-11T13:00:00 5.930245 66.29294
2023-03-11T14:00:00 6.500245 65.27713
2023-03-11T15:00:00 6.450245 65.50325
2023-03-11T16:00:00 6.340245 65.04877
2023-03-11T17:00:00 5.810246 77.09821
2023-03-11T18:00:00 5.210245 75.6136
2023-03-11T19:00:00 4.980245 74.10468
2023-03-11T20:00:00 4.390245 76.67753
2023-03-11T21:00:00 3.800245 81.93161
2023-03-11T22:00:00 3.790246 83.42696
2023-03-11T23:00:00 3.750246 86.05328
2023-03-12T00:00:00 3.940246 84.8448
2023-03-12T01:00:00 4.060246 86.40088
2023-03-12T02:00:00 4.340245 88.94526
2023-03-12T03:00:00 4.160245 92.55611
2023-03-12T04:00:00 4.830246 92.47369
2023-03-12T05:00:00 4.810246 94.52399
2023-03-12T06:00:00 5.710245 93.71556
2023-03-12T07:00:00 6.740245 92.80327
2023-03-12T08:00:00 7.540245 93.37257
2023-03-12T09:00:00 8.380245 94.39197
2023-03-12T10:00:00 9.600245 89.92941
2023-03-12T11:00:00 10.84025 83.5995
2023-03-12T12:00:00 11.73025 75.61868
2023-03-12T13:00:00 12.45025 69.32842
2023-03-12T14:00:00 12.84025 65.09462
2023-03-12T15:00:00 13.25025 62.31986
2023-03-12T16:00:00 13.05025 63.14291
2023-03-12T17:00:00 12.35025 65.80022
2023-03-12T18:00:00 9.900246 77.85004
2023-03-12T19:00:00 9.640245 77.48297
2023-03-12T20:00:00 8.400246 82.07267
2023-03-12T21:00:00 8.480246 81.05872
2023-03-12T22:00:00 9.220245 78.50041
2023-03-12T23:00:00 9.460245 77.45281
2023-03-13T00:00:00 9.570246 77.04072
2023-03-13T01:00:00 9.790245 76.17139
2023-03-13T02:00:00 10.46025 75.86627
2023-03-13T03:00:00 10.44025 79.02235
2023-03-13T04:00:00 10.72025 82.16616
2023-03-13T05:00:00 11.25025 81.62277
2023-03-13T06:00:00 11.65025 80.95815
2023-03-13T07:00:00 12.17025 79.55932
2023-03-13T08:00:00 13.42025 75.3981
2023-03-13T09:00:00 14.98025 68.62981
2023-03-13T10:00:00 17.20025 59.40296
2023-03-13T11:00:00 18.89025 55.37256
2023-03-13T12:00:00 20.14025 51.87366
2023-03-13T13:00:00 20.88025 49.08286
2023-03-13T14:00:00 21.48025 45.4823
2023-03-13T15:00:00 21.62025 44.45516
2023-03-13T16:00:00 20.87025 46.14972
2023-03-13T17:00:00 20.24025 44.91642
2023-03-13T18:00:00 15.87025 68.30664
2023-03-13T19:00:00 15.62025 74.72063
2023-03-13T20:00:00 14.15025 83.78157
2023-03-13T21:00:00 13.43025 83.86271
2023-03-13T22:00:00 12.45025 82.78828
2023-03-13T23:00:00 11.59025 85.41375
2023-03-14T00:00:00 11.17025 84.55724
2023-03-14T01:00:00 10.57025 82.14571
2023-03-14T02:00:00 10.31025 79.11118
2023-03-14T03:00:00 10.20025 76.93371
2023-03-14T04:00:00 10.06025 77.33813
2023-03-14T05:00:00 10.16025 76.2889
2023-03-14T06:00:00 10.06025 75.69044
2023-03-14T07:00:00 10.19025 75.71347
2023-03-14T08:00:00 10.39025 74.49693
2023-03-14T09:00:00 10.35025 74.74893
2023-03-14T10:00:00 9.530245 81.83243
2023-03-14T11:00:00 9.200245 84.60918
2023-03-14T12:00:00 9.070246 71.98728
2023-03-14T13:00:00 9.620245 57.66612
2023-03-14T14:00:00 9.470245 57.08784
2023-03-14T15:00:00 9.690246 61.48876
2023-03-14T16:00:00 8.530246 68.63544
2023-03-14T17:00:00 8.120246 70.88232
2023-03-14T18:00:00 7.290245 72.03751
2023-03-14T19:00:00 6.880245 75.54253
2023-03-14T20:00:00 6.470245 76.7739
2023-03-14T21:00:00 6.130245 77.26509
2023-03-14T22:00:00 5.700245 82.85772
2023-03-14T23:00:00 5.130245 84.33173
2023-03-15T00:00:00 4.800245 84.65151
2023-03-15T01:00:00 4.330246 82.60408
2023-03-15T02:00:00 3.340245 83.78871
2023-03-15T03:00:00 2.500246 85.33782
2023-03-15T04:00:00 1.900245 86.96233
2023-03-15T05:00:00 1.180245 90.19107
2023-03-15T06:00:00 0.950245 90.96623
2023-03-15T07:00:00 1.730245 89.26125
2023-03-15T08:00:00 3.780245 78.83339
2023-03-15T09:00:00 5.350246 71.84654
2023-03-15T10:00:00 6.990245 68.3439
2023-03-15T11:00:00 8.070246 60.02472
2023-03-15T12:00:00 8.460245 54.29956
2023-03-15T13:00:00 8.980246 52.45333
2023-03-15T14:00:00 9.350245 47.98724
2023-03-15T15:00:00 9.300245 47.58437
2023-03-15T16:00:00 9.190246 46.95727
2023-03-15T17:00:00 8.000245 56.40034
2023-03-15T18:00:00 8.470245 45.77534
2023-03-15T19:00:00 5.580246 60.61293
2023-03-15T20:00:00 3.500246 74.79486
2023-03-15T21:00:00 1.830245 83.76222
2023-03-15T22:00:00 1.160245 85.60388
2023-03-15T23:00:00 0.530245 89.13711
2023-03-16T00:00:00 -0.14975 91.40442
2023-03-16T01:00:00 -0.06975 91.41155
2023-03-16T02:00:00 0.050245 90.01435
2023-03-16T03:00:00 -0.48975 90.49654
2023-03-16T04:00:00 -0.44975 90.36614
2023-03-16T05:00:00 -0.60975 90.41769
2023-03-16T06:00:00 -0.54975 89.42068
2023-03-16T07:00:00 1.230245 85.04694
2023-03-16T08:00:00 3.800245 75.95677
2023-03-16T09:00:00 5.990245 67.82229
2023-03-16T10:00:00 8.030246 59.44999
2023-03-16T11:00:00 9.830245 52.6947
2023-03-16T12:00:00 11.23025 46.73765
2023-03-16T13:00:00 12.46025 43.01599
2023-03-16T14:00:00 13.21025 40.67779
2023-03-16T15:00:00 13.42025 40.56337
2023-03-16T16:00:00 12.96025 43.3858
2023-03-16T17:00:00 11.79025 50.41841
2023-03-16T18:00:00 9.180245 60.79021
2023-03-16T19:00:00 7.680245 67.03729
2023-03-16T20:00:00 5.550245 76.60973
2023-03-16T21:00:00 4.720245 81.65546
2023-03-16T22:00:00 4.150245 82.51852
2023-03-16T23:00:00 3.690246 83.41302
2023-03-17T00:00:00 3.490245 84.47992
2023-03-17T01:00:00 3.370246 84.09731
2023-03-17T02:00:00 3.290246 84.88311
2023-03-17T03:00:00 2.890245 86.76285
2023-03-17T04:00:00 2.330246 89.25711
2023-03-17T05:00:00 2.000246 90.00668
2023-03-17T06:00:00 1.700245 90.57033
2023-03-17T07:00:00 3.670245 84.38164
2023-03-17T08:00:00 7.230245 75.12383
2023-03-17T09:00:00 10.12025 64.23353
2023-03-17T10:00:00 12.80025 57.48002
2023-03-17T11:00:00 14.77025 52.2023
2023-03-17T12:00:00 16.05025 48.67762
2023-03-17T13:00:00 16.89025 46.68388
2023-03-17T14:00:00 17.27025 44.9044
2023-03-17T15:00:00 17.38025 45.03051
2023-03-17T16:00:00 16.83025 46.47139
2023-03-17T17:00:00 14.77025 54.39981
2023-03-17T18:00:00 13.74025 55.78009
2023-03-17T19:00:00 13.31025 54.77173
2023-03-17T20:00:00 12.61025 56.10902
2023-03-17T21:00:00 12.45025 54.84895
2023-03-17T22:00:00 11.27025 59.35217
2023-03-17T23:00:00 9.120245 68.37524
2023-03-18T00:00:00 8.560246 72.24197
2023-03-18T01:00:00 8.150246 73.39917
2023-03-18T02:00:00 7.610245 76.10645
2023-03-18T03:00:00 6.530245 80.02466
2023-03-18T04:00:00 5.350246 84.42066
2023-03-18T05:00:00 4.610245 86.83758
2023-03-18T06:00:00 3.930245 88.64935
2023-03-18T07:00:00 6.610245 81.52767
2023-03-18T08:00:00 10.00025 72.17226
2023-03-18T09:00:00 12.83025 58.91796
2023-03-18T10:00:00 14.72025 47.55273
2023-03-18T11:00:00 15.92025 42.08431
2023-03-18T12:00:00 16.96025 39.18057
2023-03-18T13:00:00 17.37025 39.63846
2023-03-18T14:00:00 17.54025 39.52033
2023-03-18T15:00:00 17.73025 39.35294
2023-03-18T16:00:00 17.16025 44.09289
2023-03-18T17:00:00 15.49025 51.13644
2023-03-18T18:00:00 14.46025 53.11343
2023-03-18T19:00:00 13.60025 56.13508
2023-03-18T20:00:00 10.44025 69.778
2023-03-18T21:00:00 9.920245 72.05544
2023-03-18T22:00:00 10.67025 66.11015
2023-03-18T23:00:00 10.59025 65.85967
2023-03-19T00:00:00 10.23025 69.14914
2023-03-19T01:00:00 9.890245 71.99903
2023-03-19T02:00:00 10.08025 69.94746
2023-03-19T03:00:00 9.760245 72.5812
2023-03-19T04:00:00 9.330245 76.25037
2023-03-19T05:00:00 9.270246 77.47493
2023-03-19T06:00:00 9.370245 78.08826
2023-03-19T07:00:00 10.16025 77.67721
2023-03-19T08:00:00 11.82025 70.64889
2023-03-19T09:00:00 12.99025 61.86846
2023-03-19T10:00:00 13.13025 63.99922
2023-03-19T11:00:00 13.57025 64.45643
2023-03-19T12:00:00 13.74025 65.47934
2023-03-19T13:00:00 13.61025 67.96897
2023-03-19T14:00:00 13.48025 71.17551
2023-03-19T15:00:00 12.48025 76.52791
2023-03-19T16:00:00 11.92025 81.38274
2023-03-19T17:00:00 11.32025 81.96733
2023-03-19T18:00:00 10.05025 87.60387
2023-03-19T19:00:00 9.210245 92.20429
2023-03-19T20:00:00 8.450246 93.17169
2023-03-19T21:00:00 7.560246 94.54372
2023-03-19T22:00:00 7.410245 94.6012
2023-03-19T23:00:00 7.370246 95.19009
2023-03-20T00:00:00 7.300245 95.38452
2023-03-20T01:00:00 7.070245 95.77112
2023-03-20T02:00:00 6.390245 96.20854
2023-03-20T03:00:00 6.410245 97.96514
2023-03-20T04:00:00 7.140245 96.57307
2023-03-20T05:00:00 7.220245 96.5761
2023-03-20T06:00:00 6.980245 96.90198
2023-03-20T07:00:00 7.770245 94.29416
2023-03-20T08:00:00 8.720245 88.8687
2023-03-20T09:00:00 9.850245 80.25251
2023-03-20T10:00:00 10.82025 75.77204
2023-03-20T11:00:00 11.74025 68.6058
2023-03-20T12:00:00 12.34025 64.61909
2023-03-20T13:00:00 12.81025 61.22379
2023-03-20T14:00:00 13.34025 59.2544
2023-03-20T15:00:00 13.74025 57.24276
2023-03-20T16:00:00 13.69025 57.30977
2023-03-20T17:00:00 12.52025 65.7474
2023-03-20T18:00:00 11.21025 68.92336
2023-03-20T19:00:00 9.530245 78.38672
2023-03-20T20:00:00 9.100245 79.97223
2023-03-20T21:00:00 6.640245 89.10617
2023-03-20T22:00:00 5.470245 91.35253
2023-03-20T23:00:00 4.450245 94.83879
2023-03-21T00:00:00 3.830246 96.02672
2023-03-21T01:00:00 3.510245 97.04368
2023-03-21T02:00:00 3.230246 98.00685
2023-03-21T03:00:00 2.730246 98.90655
2023-03-21T04:00:00 2.670245 98.62214
2023-03-21T05:00:00 2.680245 98.19952
2023-03-21T06:00:00 3.390245 96.48666
2023-03-21T07:00:00 5.210245 92.69752
2023-03-21T08:00:00 7.560246 87.10368
2023-03-21T09:00:00 9.910245 79.32275
2023-03-21T10:00:00 12.10025 69.20734
2023-03-21T11:00:00 13.75025 62.26746
2023-03-21T12:00:00 15.13025 56.81146
2023-03-21T13:00:00 15.77025 53.6921
2023-03-21T14:00:00 15.93025 52.08453
2023-03-21T15:00:00 16.13025 51.27784
2023-03-21T16:00:00 15.64025 56.24135
2023-03-21T17:00:00 14.32025 64.93936
2023-03-21T18:00:00 13.62025 64.95847
2023-03-21T19:00:00 13.69025 63.07613
2023-03-21T20:00:00 10.97025 77.22305
2023-03-21T21:00:00 10.11025 81.51917
2023-03-21T22:00:00 10.28025 81.48705
2023-03-21T23:00:00 9.990245 83.03285
2023-03-22T00:00:00 9.010245 85.58653
2023-03-22T01:00:00 8.020246 87.45644
2023-03-22T02:00:00 7.000245 90.07951
2023-03-22T03:00:00 6.270245 92.44704
2023-03-22T04:00:00 5.700245 93.71493
2023-03-22T05:00:00 5.590245 93.972
2023-03-22T06:00:00 5.380245 93.89311
2023-03-22T07:00:00 7.870246 88.05113
2023-03-22T08:00:00 10.95025 78.12891
2023-03-22T09:00:00 13.48025 67.01489
2023-03-22T10:00:00 15.46025 57.92555
2023-03-22T11:00:00 16.92025 51.60181
2023-03-22T12:00:00 17.93024 46.52665
2023-03-22T13:00:00 18.76024 42.82637
2023-03-22T14:00:00 19.21025 40.17992
2023-03-22T15:00:00 19.29025 39.61749
2023-03-22T16:00:00 18.73025 43.38728
2023-03-22T17:00:00 16.93024 50.3713
2023-03-22T18:00:00 15.10025 53.47384
2023-03-22T19:00:00 15.03025 53.79124
2023-03-22T20:00:00 12.87025 65.91757
2023-03-22T21:00:00 11.82025 72.92818
2023-03-22T22:00:00 11.39025 72.34399
2023-03-22T23:00:00 11.24025 74.24094
2023-03-23T00:00:00 11.62025 72.83978
2023-03-23T01:00:00 12.27025 68.15051
2023-03-23T02:00:00 12.57025 67.27868
2023-03-23T03:00:00 13.07025 66.00806
2023-03-23T04:00:00 13.59025 66.16972
2023-03-23T05:00:00 13.37025 68.10435
2023-03-23T06:00:00 13.27025 70.11992
2023-03-23T07:00:00 13.35025 69.80109
2023-03-23T08:00:00 13.45025 71.12106
2023-03-23T09:00:00 14.59025 66.89037
2023-03-23T10:00:00 15.37025 63.03872
2023-03-23T11:00:00 16.32025 59.75278
2023-03-23T12:00:00 16.46025 60.19532
2023-03-23T13:00:00 16.41025 61.13121
2023-03-23T14:00:00 16.39025 60.75383
2023-03-23T15:00:00 16.55025 57.49095
2023-03-23T16:00:00 16.03025 62.04459
2023-03-23T17:00:00 15.62025 66.52564
2023-03-23T18:00:00 14.15025 73.26491
2023-03-23T19:00:00 13.92025 75.43358
2023-03-23T20:00:00 13.28025 79.29588
2023-03-23T21:00:00 12.52025 81.74165
2023-03-23T22:00:00 12.75025 76.93851
2023-03-23T23:00:00 13.19025 75.51176
2023-03-24T00:00:00 13.01025 77.03365
2023-03-24T01:00:00 13.07025 78.3587
2023-03-24T02:00:00 13.60025 75.48034
2023-03-24T03:00:00 13.86025 73.55933
2023-03-24T04:00:00 14.09025 72.61215
2023-03-24T05:00:00 14.64025 72.47052
2023-03-24T06:00:00 14.33025 77.76824
2023-03-24T07:00:00 13.80025 83.12688
2023-03-24T08:00:00 13.87025 82.96932
2023-03-24T09:00:00 13.88025 81.10635
2023-03-24T10:00:00 13.04025 84.26653
2023-03-24T11:00:00 12.38025 85.2724
2023-03-24T12:00:00 12.08025 85.64197
2023-03-24T13:00:00 12.30025 84.06468
2023-03-24T14:00:00 11.93025 82.38481
2023-03-24T15:00:00 12.21025 79.02612
2023-03-24T16:00:00 12.26025 73.86808
2023-03-24T17:00:00 11.87025 74.15205
2023-03-24T18:00:00 11.07025 76.6568
2023-03-24T19:00:00 10.38025 78.25263
2023-03-24T20:00:00 9.780245 79.13773
2023-03-24T21:00:00 9.930245 78.34258
2023-03-24T22:00:00 9.680245 79.9495
2023-03-24T23:00:00 9.970245 77.80755
2023-03-25T00:00:00 9.620245 76.03545
2023-03-25T01:00:00 9.480246 75.4815
2023-03-25T02:00:00 9.060246 73.05848
2023-03-25T03:00:00 8.030246 77.81109
2023-03-25T04:00:00 7.240245 82.60344
2023-03-25T05:00:00 7.620246 85.30372
2023-03-25T06:00:00 7.730245 84.95989
2023-03-25T07:00:00 8.120246 83.59615
2023-03-25T08:00:00 8.620245 82.16074
2023-03-25T09:00:00 8.680245 83.14711
2023-03-25T10:00:00 9.510245 80.59182
2023-03-25T11:00:00 10.77025 75.34512
2023-03-25T12:00:00 11.16025 70.36753
2023-03-25T13:00:00 12.13025 64.25581
2023-03-25T14:00:00 12.59025 62.68287
2023-03-25T15:00:00 12.46025 64.46731
2023-03-25T16:00:00 11.88025 68.44547
2023-03-25T17:00:00 11.46025 67.22144
2023-03-25T18:00:00 10.50025 69.59546
2023-03-25T19:00:00 10.42025 67.93868
2023-03-25T20:00:00 10.02025 69.15289
2023-03-25T21:00:00 9.930245 69.52385
2023-03-25T22:00:00 8.930245 76.39401
2023-03-25T23:00:00 8.950245 77.20455
2023-03-26T00:00:00 8.910245 78.0125
2023-03-26T01:00:00 8.340245 81.03812
2023-03-26T02:00:00 8.390245 82.70374
2023-03-26T03:00:00 8.380245 83.10712
2023-03-26T04:00:00 8.290245 86.27852
2023-03-26T05:00:00 8.340245 86.16437
2023-03-26T06:00:00 8.530246 87.57001
2023-03-26T07:00:00 9.220245 87.94247
2023-03-26T08:00:00 10.09025 82.53333
2023-03-26T09:00:00 10.34025 78.73434
2023-03-26T10:00:00 11.53025 66.95613
2023-03-26T11:00:00 12.49025 58.25436
2023-03-26T12:00:00 12.60025 56.5438
2023-03-26T13:00:00 12.06025 60.52578
2023-03-26T14:00:00 9.130245 72.40633
2023-03-26T15:00:00 7.990245 80.53301
2023-03-26T16:00:00 8.690246 76.6205
2023-03-26T17:00:00 7.900245 80.46285
2023-03-26T18:00:00 7.180245 85.19083
2023-03-26T19:00:00 6.480245 89.02841
2023-03-26T20:00:00 6.540245 87.36068
2023-03-26T21:00:00 6.620246 87.12386
2023-03-26T22:00:00 6.340245 89.89506
2023-03-26T23:00:00 6.530245 89.72309
2023-03-27T00:00:00 6.690245 90.30486
2023-03-27T01:00:00 6.910245 90.82987
2023-03-27T02:00:00 6.960245 90.07602
2023-03-27T03:00:00 6.860245 87.7636
2023-03-27T04:00:00 6.520245 84.69045
2023-03-27T05:00:00 6.200245 84.112
2023-03-27T06:00:00 5.540245 81.8941
2023-03-27T07:00:00 5.170245 75.82525
2023-03-27T08:00:00 4.740245 71.19705
2023-03-27T09:00:00 5.060246 63.97833
2023-03-27T10:00:00 5.220245 61.37705
2023-03-27T11:00:00 6.370246 47.02178
2023-03-27T12:00:00 6.940245 43.95644
2023-03-27T13:00:00 7.300245 44.00073
2023-03-27T14:00:00 7.080246 45.31809
2023-03-27T15:00:00 7.070245 46.80924
2023-03-27T16:00:00 6.920245 50.14682
2023-03-27T17:00:00 6.250245 56.50086
2023-03-27T18:00:00 5.070245 65.31552
2023-03-27T19:00:00 4.450245 71.55351
2023-03-27T20:00:00 3.350246 80.38687
2023-03-27T21:00:00 3.070245 82.36057
2023-03-27T22:00:00 2.610245 86.22646
2023-03-27T23:00:00 2.060246 88.77599
2023-03-28T00:00:00 1.970245 87.41654
2023-03-28T01:00:00 1.960245 87.09663
2023-03-28T02:00:00 2.030245 86.85069
2023-03-28T03:00:00 0.390245 89.98158
2023-03-28T04:00:00 -1.02975 92.41952
2023-03-28T05:00:00 -1.84975 94.09516
2023-03-28T06:00:00 -0.39975 93.29605
2023-03-28T07:00:00 2.330246 89.32198
2023-03-28T08:00:00 4.480246 80.74078
2023-03-28T09:00:00 6.130245 70.41173
2023-03-28T10:00:00 7.310246 57.80253
2023-03-28T11:00:00 8.190246 51.76705
2023-03-28T12:00:00 9.160245 47.93089
2023-03-28T13:00:00 9.920245 44.60087
2023-03-28T14:00:00 10.76025 42.15775
2023-03-28T15:00:00 11.04025 40.88915
2023-03-28T16:00:00 11.00025 42.98577
2023-03-28T17:00:00 10.12025 52.09157
2023-03-28T18:00:00 9.010245 55.05154
2023-03-28T19:00:00 8.330246 59.09811
2023-03-28T20:00:00 7.870246 65.03784
2023-03-28T21:00:00 7.920245 66.08769
2023-03-28T22:00:00 8.470245 66.07333
2023-03-28T23:00:00 8.600245 67.39051
2023-03-29T00:00:00 8.510245 71.36704
2023-03-29T01:00:00 8.450246 73.76943
2023-03-29T02:00:00 8.090245 75.38892
2023-03-29T03:00:00 8.030246 74.37097
2023-03-29T04:00:00 8.110246 73.65201
2023-03-29T05:00:00 8.000245 73.84001
2023-03-29T06:00:00 8.270246 73.05928
2023-03-29T07:00:00 9.310246 70.37915
2023-03-29T08:00:00 10.60025 64.66599
2023-03-29T09:00:00 12.02025 59.29262
2023-03-29T10:00:00 13.76025 54.89294
2023-03-29T11:00:00 15.97025 48.3493
2023-03-29T12:00:00 17.50025 44.09889
2023-03-29T13:00:00 18.46025 41.27117
2023-03-29T14:00:00 19.52025 39.29853
2023-03-29T15:00:00 19.71025 40.04617
2023-03-29T16:00:00 18.97025 46.0229
2023-03-29T17:00:00 17.75025 50.94662
2023-03-29T18:00:00 16.23025 54.60083
2023-03-29T19:00:00 15.52025 60.41798
2023-03-29T20:00:00 14.74025 65.8829
2023-03-29T21:00:00 14.29025 67.92815
2023-03-29T22:00:00 15.42025 62.28097
2023-03-29T23:00:00 15.05025 64.17923
2023-03-30T00:00:00 14.50025 68.34361
2023-03-30T01:00:00 13.80025 73.05141
2023-03-30T02:00:00 13.07025 79.53236
2023-03-30T03:00:00 12.89025 80.15291
2023-03-30T04:00:00 12.76025 80.18818
2023-03-30T05:00:00 12.80025 81.01073
2023-03-30T06:00:00 13.42025 76.52956
2023-03-30T07:00:00 14.38025 72.3237
2023-03-30T08:00:00 14.32025 71.67905
2023-03-30T09:00:00 13.92025 76.8711
2023-03-30T10:00:00 14.27025 78.0199
2023-03-30T11:00:00 14.36025 74.85156
2023-03-30T12:00:00 14.88025 69.35639
2023-03-30T13:00:00 15.43025 61.52224
2023-03-30T14:00:00 16.14025 54.65225
2023-03-30T15:00:00 16.54025 50.29794
2023-03-30T16:00:00 16.67025 48.58128
2023-03-30T17:00:00 16.14025 49.07884
2023-03-30T18:00:00 14.41025 53.28619
2023-03-30T19:00:00 12.71025 61.11369
2023-03-30T20:00:00 12.54025 62.53982
2023-03-30T21:00:00 12.44025 65.1385
2023-03-30T22:00:00 12.41025 67.38346
2023-03-30T23:00:00 12.29025 69.24716
2023-03-31T00:00:00 12.29025 70.64644
2023-03-31T01:00:00 11.80025 75.78673
2023-03-31T02:00:00 11.68025 78.72885
2023-03-31T03:00:00 11.20025 81.89502
2023-03-31T04:00:00 11.37025 81.75084
2023-03-31T05:00:00 11.79025 82.42217
2023-03-31T06:00:00 12.65025 77.34148
2023-03-31T07:00:00 13.37025 74.17159
2023-03-31T08:00:00 14.16025 69.49171
2023-03-31T09:00:00 14.21025 63.67861
2023-03-31T10:00:00 13.92025 58.13416
2023-03-31T11:00:00 14.55025 54.8743
2023-03-31T12:00:00 12.62025 68.50858
2023-03-31T13:00:00 13.47025 55.90414
2023-03-31T14:00:00 12.45025 63.61783
2023-03-31T15:00:00 11.70025 66.99386
2023-03-31T16:00:00 11.82025 63.91425
2023-03-31T17:00:00 11.78025 60.03085
2023-03-31T18:00:00 10.12025 72.29695
2023-03-31T19:00:00 10.11025 72.54808
2023-03-31T20:00:00 10.12025 72.24643
2023-03-31T21:00:00 9.940246 74.10304
2023-03-31T22:00:00 9.200245 77.89707
2023-03-31T23:00:00 8.800245 82.75942
2023-04-01T00:00:00 8.740245 84.43544
2023-04-01T01:00:00 9.040245 81.87717
2023-04-01T02:00:00 8.880245 80.61025
2023-04-01T03:00:00 8.690246 80.75078
2023-04-01T04:00:00 8.630245 80.79825
2023-04-01T05:00:00 8.430245 83.11381
2023-04-01T06:00:00 8.690246 83.84493
2023-04-01T07:00:00 8.860246 82.71004
2023-04-01T08:00:00 8.640245 82.91069
2023-04-01T09:00:00 8.730246 82.6924
2023-04-01T10:00:00 9.150246 85.24873
2023-04-01T11:00:00 9.920245 85.4561
2023-04-01T12:00:00 10.63025 81.81651
2023-04-01T13:00:00 10.62025 77.64568
2023-04-01T14:00:00 10.91025 78.28391
2023-04-01T15:00:00 11.33025 77.97571
2023-04-01T16:00:00 11.01025 77.7632
2023-04-01T17:00:00 9.960245 82.91463
2023-04-01T18:00:00 9.120245 84.13244
2023-04-01T19:00:00 8.560246 85.35626
2023-04-01T20:00:00 8.230246 85.91269
2023-04-01T21:00:00 8.070246 86.73514
2023-04-01T22:00:00 7.820245 88.0461
2023-04-01T23:00:00 8.010245 87.94292
2023-04-02T00:00:00 7.970245 88.55183
2023-04-02T01:00:00 7.880245 89.2841
2023-04-02T02:00:00 7.770245 89.64684
2023-04-02T03:00:00 7.710245 89.82848
2023-04-02T04:00:00 7.150245 91.86738
2023-04-02T05:00:00 7.080246 91.73434
2023-04-02T06:00:00 7.540245 91.3239
2023-04-02T07:00:00 8.250245 88.70164
2023-04-02T08:00:00 9.010245 85.35017
2023-04-02T09:00:00 9.710245 81.46248
2023-04-02T10:00:00 10.05025 79.45433
2023-04-02T11:00:00 10.22025 75.14213
2023-04-02T12:00:00 10.57025 72.89084
2023-04-02T13:00:00 11.12025 68.5685
2023-04-02T14:00:00 11.73025 65.98086
2023-04-02T15:00:00 12.02025 65.40563
2023-04-02T16:00:00 11.93025 67.18476
2023-04-02T17:00:00 11.41025 71.40231
2023-04-02T18:00:00 9.200245 83.15826
2023-04-02T19:00:00 8.930245 86.34989
2023-04-02T20:00:00 8.650246 91.28275
2023-04-02T21:00:00 8.430245 92.85063
2023-04-02T22:00:00 8.140245 94.96529
2023-04-02T23:00:00 7.710245 93.90088
2023-04-03T00:00:00 7.320245 91.56114
2023-04-03T01:00:00 6.640245 88.54529
2023-04-03T02:00:00 5.950245 85.76582
2023-04-03T03:00:00 5.370246 83.52441
2023-04-03T04:00:00 4.870246 81.67786
2023-04-03T05:00:00 4.460246 81.02968
2023-04-03T06:00:00 4.400245 80.20481
2023-04-03T07:00:00 4.610245 76.10717
2023-04-03T08:00:00 5.310246 68.81452
2023-04-03T09:00:00 5.890245 63.15546
2023-04-03T10:00:00 6.870246 57.81104
2023-04-03T11:00:00 7.320245 54.70099
2023-04-03T12:00:00 7.990245 52.6727
2023-04-03T13:00:00 8.210245 53.28167
2023-04-03T14:00:00 8.190246 52.96333
2023-04-03T15:00:00 8.010245 52.67842
2023-04-03T16:00:00 7.510245 53.51572
2023-04-03T17:00:00 7.090245 54.47482
2023-04-03T18:00:00 6.350246 54.79282
2023-04-03T19:00:00 5.700245 57.02371
2023-04-03T20:00:00 4.850246 58.90861
2023-04-03T21:00:00 3.750246 62.14587
2023-04-03T22:00:00 2.930245 62.82528
2023-04-03T23:00:00 2.380245 62.25781
2023-04-04T00:00:00 1.990246 61.96718
2023-04-04T01:00:00 1.280245 63.50026
2023-04-04T02:00:00 0.750245 65.47939
2023-04-04T03:00:00 0.020245 68.41727
2023-04-04T04:00:00 -0.65975 71.08435
2023-04-04T05:00:00 -1.27975 73.66172
2023-04-04T06:00:00 0.180245 69.50581
2023-04-04T07:00:00 2.060246 61.84456
2023-04-04T08:00:00 3.570245 56.55785
2023-04-04T09:00:00 5.160245 51.18929
2023-04-04T10:00:00 6.480245 48.79073
2023-04-04T11:00:00 7.620246 45.51723
2023-04-04T12:00:00 8.580245 44.32651
2023-04-04T13:00:00 9.330245 42.00266
2023-04-04T14:00:00 9.710245 39.87792
2023-04-04T15:00:00 9.760245 39.23897
2023-04-04T16:00:00 9.500245 39.04059
2023-04-04T17:00:00 8.620245 42.25886
2023-04-04T18:00:00 5.880245 52.41555
2023-04-04T19:00:00 4.110245 59.37269
2023-04-04T20:00:00 2.830246 64.81455
2023-04-04T21:00:00 1.610245 70.09476
2023-04-04T22:00:00 1.070245 72.27744
2023-04-04T23:00:00 0.580245 73.65762
2023-04-05T00:00:00 0.110245 75.01989
2023-04-05T01:00:00 0.120245 76.21945
2023-04-05T02:00:00 0.610245 75.97041
2023-04-05T03:00:00 0.580245 75.96462
2023-04-05T04:00:00 -0.33975 79.23766
2023-04-05T05:00:00 -0.91975 82.36705
2023-04-05T06:00:00 -0.66975 86.58514
2023-04-05T07:00:00 2.210245 72.14145
2023-04-05T08:00:00 4.250246 58.8341
2023-04-05T09:00:00 5.850246 51.54769
2023-04-05T10:00:00 7.260245 46.93731
2023-04-05T11:00:00 8.310246 45.01377
2023-04-05T12:00:00 9.230246 42.38282
2023-04-05T13:00:00 9.920245 39.8828
2023-04-05T14:00:00 10.56025 38.00571
2023-04-05T15:00:00 10.77025 36.36521
2023-04-05T16:00:00 10.58025 36.71951
2023-04-05T17:00:00 9.770246 38.42299
2023-04-05T18:00:00 5.810246 57.05405
2023-04-05T19:00:00 3.280245 67.54476
2023-04-05T20:00:00 3.470245 66.34377
2023-04-05T21:00:00 3.230246 65.59674
2023-04-05T22:00:00 3.580246 64.66156
2023-04-05T23:00:00 3.480246 64.78174
2023-04-06T00:00:00 2.620246 67.38939
2023-04-06T01:00:00 1.070245 72.38622
2023-04-06T02:00:00 -0.26975 78.47789
2023-04-06T03:00:00 -1.31975 82.05628
2023-04-06T04:00:00 -1.86975 83.85634
2023-04-06T05:00:00 -2.07975 84.72061
2023-04-06T06:00:00 -0.02975 81.27838
2023-04-06T07:00:00 3.270246 73.60292
2023-04-06T08:00:00 6.360245 61.30982
2023-04-06T09:00:00 8.610246 50.45596
2023-04-06T10:00:00 10.37025 44.93506
2023-04-06T11:00:00 11.49025 40.45401
2023-04-06T12:00:00 12.39025 37.22012
2023-04-06T13:00:00 12.78025 35.76757
2023-04-06T14:00:00 12.82025 36.39583
2023-04-06T15:00:00 12.59025 37.83716
2023-04-06T16:00:00 12.06025 42.33393
2023-04-06T17:00:00 11.46025 45.82685
2023-04-06T18:00:00 11.06025 44.22375
2023-04-06T19:00:00 9.410245 58.237
2023-04-06T20:00:00 8.440246 65.9246
2023-04-06T21:00:00 8.750245 62.76872
2023-04-06T22:00:00 8.650246 63.01526
2023-04-06T23:00:00 8.100245 66.89293
2023-04-07T00:00:00 7.900245 68.69328
2023-04-07T01:00:00 6.940245 74.96276
2023-04-07T02:00:00 6.470245 78.10081
2023-04-07T03:00:00 5.970245 83.01336
2023-04-07T04:00:00 6.300245 83.47206
2023-04-07T05:00:00 5.620246 85.54366
2023-04-07T06:00:00 6.100246 81.04733
2023-04-07T07:00:00 6.160245 83.27571
2023-04-07T08:00:00 6.050245 87.3077
2023-04-07T09:00:00 5.790245 92.15314
2023-04-07T10:00:00 6.950245 86.97649
2023-04-07T11:00:00 7.680245 83.47982
2023-04-07T12:00:00 8.000245 84.93355
2023-04-07T13:00:00 8.700245 78.36102
2023-04-07T14:00:00 8.960245 77.09823
2023-04-07T15:00:00 9.140245 74.84069
2023-04-07T16:00:00 9.370245 73.73705
2023-04-07T17:00:00 9.140245 75.63202
2023-04-07T18:00:00 8.300245 81.944
2023-04-07T19:00:00 7.640245 83.47453
2023-04-07T20:00:00 6.730245 87.50392
2023-04-07T21:00:00 6.770245 86.83463
2023-04-07T22:00:00 5.770245 89.59028
2023-04-07T23:00:00 5.570245 91.48953
2023-04-08T00:00:00 5.360245 91.15022
2023-04-08T01:00:00 5.530245 90.52266
2023-04-08T02:00:00 5.780245 90.09836
2023-04-08T03:00:00 5.870246 90.10637
2023-04-08T04:00:00 5.780245 91.18448
2023-04-08T05:00:00 5.890245 92.74513
2023-04-08T06:00:00 5.320245 95.28777
2023-04-08T07:00:00 6.740245 89.86781
2023-04-08T08:00:00 8.220245 85.43477
2023-04-08T09:00:00 9.550245 78.38995
2023-04-08T10:00:00 10.38025 73.15942
2023-04-08T11:00:00 10.84025 69.76421
2023-04-08T12:00:00 11.35025 64.52373
2023-04-08T13:00:00 11.49025 61.28412
2023-04-08T14:00:00 11.65025 59.95559
2023-04-08T15:00:00 12.01025 58.45924
2023-04-08T16:00:00 12.03025 58.3407
2023-04-08T17:00:00 11.73025 60.52824
2023-04-08T18:00:00 10.25025 68.33248
2023-04-08T19:00:00 9.530245 69.78259
2023-04-08T20:00:00 8.880245 71.89839
2023-04-08T21:00:00 8.650246 73.44391
2023-04-08T22:00:00 7.890245 77.67784
2023-04-08T23:00:00 6.740245 82.06793
2023-04-09T00:00:00 5.770245 86.72254
2023-04-09T01:00:00 4.440246 90.36271
2023-04-09T02:00:00 3.790246 90.6283
2023-04-09T03:00:00 3.480246 90.99203
2023-04-09T04:00:00 3.430245 91.70913
2023-04-09T05:00:00 2.850246 91.9265
2023-04-09T06:00:00 4.460246 89.65842
2023-04-09T07:00:00 6.620246 82.34177
2023-04-09T08:00:00 8.340245 72.24917
2023-04-09T09:00:00 9.790245 66.56516
2023-04-09T10:00:00 11.54025 59.67405
2023-04-09T11:00:00 12.72025 54.03478
2023-04-09T12:00:00 13.45025 50.92558
2023-04-09T13:00:00 14.38025 47.48843
2023-04-09T14:00:00 15.01025 44.9765
2023-04-09T15:00:00 15.34025 42.24362
2023-04-09T16:00:00 15.13025 41.85008
2023-04-09T17:00:00 14.28025 46.58919
2023-04-09T18:00:00 12.78025 47.94577
2023-04-09T19:00:00 11.64025 52.67122
2023-04-09T20:00:00 8.740245 66.27768
2023-04-09T21:00:00 6.280245 77.90148
2023-04-09T22:00:00 6.100246 78.54201
2023-04-09T23:00:00 5.230245 80.50942
2023-04-10T00:00:00 4.730245 80.83788
2023-04-10T01:00:00 4.250246 81.17317
2023-04-10T02:00:00 3.570245 83.03428
2023-04-10T03:00:00 3.070245 86.03252
2023-04-10T04:00:00 2.970245 86.52094
2023-04-10T05:00:00 2.370246 88.80839
2023-04-10T06:00:00 3.410245 85.7634
2023-04-10T07:00:00 6.370246 77.80562
2023-04-10T08:00:00 9.010245 69.13135
2023-04-10T09:00:00 11.25025 63.19853
2023-04-10T10:00:00 13.44025 58.45815
2023-04-10T11:00:00 14.99025 54.839
2023-04-10T12:00:00 16.13025 51.42053
2023-04-10T13:00:00 16.88025 49.11596
2023-04-10T14:00:00 17.38025 47.41346
2023-04-10T15:00:00 17.50025 46.69542
2023-04-10T16:00:00 17.33025 47.23481
2023-04-10T17:00:00 16.29025 57.5821
2023-04-10T18:00:00 15.49025 53.31943
2023-04-10T19:00:00 14.36025 56.76856
2023-04-10T20:00:00 13.71025 60.93532
2023-04-10T21:00:00 13.98025 56.94664
2023-04-10T22:00:00 14.26025 54.79663
2023-04-10T23:00:00 14.58025 53.8197
2023-04-11T00:00:00 14.52025 57.28581
2023-04-11T01:00:00 13.62025 69.19128
2023-04-11T02:00:00 13.21025 76.1324
2023-04-11T03:00:00 12.31025 84.92052
2023-04-11T04:00:00 11.61025 86.87292
2023-04-11T05:00:00 10.69025 86.24691
2023-04-11T06:00:00 10.14025 87.37377
2023-04-11T07:00:00 9.960245 85.10951
2023-04-11T08:00:00 9.790245 83.06374
2023-04-11T09:00:00 10.24025 76.24985
2023-04-11T10:00:00 11.28025 65.55637
2023-04-11T11:00:00 11.87025 60.60603
2023-04-11T12:00:00 12.57025 56.33662
2023-04-11T13:00:00 13.03025 52.42157
2023-04-11T14:00:00 13.37025 51.01162
2023-04-11T15:00:00 13.57025 48.90125
2023-04-11T16:00:00 13.27025 51.1649
2023-04-11T17:00:00 12.59025 55.90584
2023-04-11T18:00:00 11.30025 65.65287
2023-04-11T19:00:00 10.52025 71.02515
2023-04-11T20:00:00 10.11025 74.39352
2023-04-11T21:00:00 9.600245 79.21938
2023-04-11T22:00:00 9.250245 79.16438
2023-04-11T23:00:00 8.780245 85.20492
2023-04-12T00:00:00 8.570246 88.67074
2023-04-12T01:00:00 8.360246 90.63317
2023-04-12T02:00:00 8.120246 92.95861
2023-04-12T03:00:00 8.200246 94.18783
2023-04-12T04:00:00 8.420245 94.52378
2023-04-12T05:00:00 8.870245 92.18098
2023-04-12T06:00:00 9.540245 88.9445
2023-04-12T07:00:00 10.30025 85.44127
2023-04-12T08:00:00 11.17025 78.81088
2023-04-12T09:00:00 11.73025 77.03179
2023-04-12T10:00:00 12.86025 72.13145
2023-04-12T11:00:00 12.76025 75.28304
2023-04-12T12:00:00 12.67025 77.92484
2023-04-12T13:00:00 13.80025 71.87086
2023-04-12T14:00:00 13.80025 69.7025
2023-04-12T15:00:00 12.25025 78.3896
2023-04-12T16:00:00 11.25025 83.53729
2023-04-12T17:00:00 10.63025 84.78153
2023-04-12T18:00:00 9.870245 87.64578
2023-04-12T19:00:00 9.480246 88.02857
2023-04-12T20:00:00 9.200245 86.49889
2023-04-12T21:00:00 8.460245 81.68102
2023-04-12T22:00:00 7.570245 82.88158
2023-04-12T23:00:00 7.170245 82.53553
2023-04-13T00:00:00 6.920245 79.51991
2023-04-13T01:00:00 6.390245 77.97588
2023-04-13T02:00:00 6.240245 75.80399
2023-04-13T03:00:00 5.970245 76.02705
2023-04-13T04:00:00 5.810246 76.93226
2023-04-13T05:00:00 5.930245 75.63816
2023-04-13T06:00:00 6.190245 73.96589
2023-04-13T07:00:00 7.080246 71.48055
2023-04-13T08:00:00 7.980245 67.25029
2023-04-13T09:00:00 8.580245 63.40694
2023-04-13T10:00:00 8.860246 65.83386
2023-04-13T11:00:00 9.270246 64.07615
2023-04-13T12:00:00 9.250245 65.92428
2023-04-13T13:00:00 9.280245 67.44724
2023-04-13T14:00:00 9.590245 63.10994
2023-04-13T15:00:00 9.570246 62.79062
2023-04-13T16:00:00 9.610246 61.3369
2023-04-13T17:00:00 9.670245 63.8076
2023-04-13T18:00:00 8.400246 73.91646
2023-04-13T19:00:00 7.390245 76.93566
2023-04-13T20:00:00 6.000245 86.38111
2023-04-13T21:00:00 5.450245 89.05463
2023-04-13T22:00:00 5.090245 87.4509
2023-04-13T23:00:00 4.470245 89.46765
2023-04-14T00:00:00 3.960246 91.22864
2023-04-14T01:00:00 3.510245 91.97904
2023-04-14T02:00:00 3.370246 92.16619
2023-04-14T03:00:00 2.630245 93.37939
2023-04-14T04:00:00 2.320245 93.89889
2023-04-14T05:00:00 2.120246 94.63542
2023-04-14T06:00:00 3.610245 91.13384
2023-04-14T07:00:00 5.820245 87.46812
2023-04-14T08:00:00 7.980245 80.08029
2023-04-14T09:00:00 9.660245 68.34831
2023-04-14T10:00:00 10.73025 61.52945
2023-04-14T11:00:00 11.63025 53.92766
2023-04-14T12:00:00 12.75025 47.59364
2023-04-14T13:00:00 13.21025 42.12527
2023-04-14T14:00:00 13.76025 38.38897
2023-04-14T15:00:00 14.11025 35.77514
2023-04-14T16:00:00 14.19025 33.69753
2023-04-14T17:00:00 13.85025 37.96907
2023-04-14T18:00:00 11.24025 51.36157
2023-04-14T19:00:00 10.64025 50.71017
2023-04-14T20:00:00 8.710245 63.62105
2023-04-14T21:00:00 6.970245 73.16831
2023-04-14T22:00:00 5.730245 81.5718
2023-04-14T23:00:00 5.030245 86.14511
2023-04-15T00:00:00 4.450245 87.882
2023-04-15T01:00:00 5.120246 85.54349
2023-04-15T02:00:00 5.560246 84.08779
2023-04-15T03:00:00 6.130245 84.04323
2023-04-15T04:00:00 6.560246 85.65701
2023-04-15T05:00:00 6.570245 88.97455
2023-04-15T06:00:00 6.910245 87.09427
2023-04-15T07:00:00 7.580246 85.7775
2023-04-15T08:00:00 8.330246 86.16325
2023-04-15T09:00:00 9.280245 82.65215
2023-04-15T10:00:00 9.940246 77.26433
2023-04-15T11:00:00 10.55025 73.85645
2023-04-15T12:00:00 11.21025 70.52471
2023-04-15T13:00:00 11.59025 69.29221
2023-04-15T14:00:00 12.12025 67.88259
2023-04-15T15:00:00 12.48025 63.18306
2023-04-15T16:00:00 12.78025 57.07179
2023-04-15T17:00:00 12.45025 60.41119
2023-04-15T18:00:00 10.50025 70.47733
2023-04-15T19:00:00 9.340245 73.31844
2023-04-15T20:00:00 9.350245 74.77443
2023-04-15T21:00:00 9.240245 76.8232
2023-04-15T22:00:00 8.880245 87.1234
2023-04-15T23:00:00 8.780245 88.69063
2023-04-16T00:00:00 8.600245 89.72014
2023-04-16T01:00:00 8.540245 88.9747
2023-04-16T02:00:00 8.450246 88.96633
2023-04-16T03:00:00 8.460245 88.96726
2023-04-16T04:00:00 8.400246 88.65456
2023-04-16T05:00:00 8.300245 88.8908
2023-04-16T06:00:00 8.320246 89.13905
2023-04-16T07:00:00 8.530246 88.85092
2023-04-16T08:00:00 8.430245 90.70139
2023-04-16T09:00:00 8.710245 89.23628
2023-04-16T10:00:00 8.860246 91.29865
2023-04-16T11:00:00 9.030245 90.37627
2023-04-16T12:00:00 9.270246 87.6455
2023-04-16T13:00:00 9.530245 89.00456
2023-04-16T14:00:00 9.740245 89.6957
2023-04-16T15:00:00 10.12025 87.37173
2023-04-16T16:00:00 10.17025 84.20515
2023-04-16T17:00:00 9.720245 85.25694
2023-04-16T18:00:00 9.140245 90.88258
2023-04-16T19:00:00 8.860246 93.70909
2023-04-16T20:00:00 8.590245 95.77088
2023-04-16T21:00:00 8.320246 97.28073
2023-04-16T22:00:00 7.990245 95.67945
2023-04-16T23:00:00 8.180245 95.16327
2023-04-17T00:00:00 8.160246 94.77058
2023-04-17T01:00:00 8.240246 95.29693
2023-04-17T02:00:00 8.270246 96.21826
2023-04-17T03:00:00 8.280246 96.88048
2023-04-17T04:00:00 8.100245 97.80895
2023-04-17T05:00:00 8.100245 98.14466
2023-04-17T06:00:00 8.160246 98.21334
2023-04-17T07:00:00 8.740245 96.96207
2023-04-17T08:00:00 9.200245 95.01619
2023-04-17T09:00:00 9.970245 90.76108
2023-04-17T10:00:00 11.27025 82.97274
2023-04-17T11:00:00 12.14025 74.15055
2023-04-17T12:00:00 12.78025 69.3971
2023-04-17T13:00:00 13.65025 64.43046
2023-04-17T14:00:00 13.82025 63.06334
2023-04-17T15:00:00 13.69025 63.03258
2023-04-17T16:00:00 13.34025 62.9059
2023-04-17T17:00:00 12.32025 67.17733
2023-04-17T18:00:00 11.04025 73.28514
2023-04-17T19:00:00 10.33025 76.79598
2023-04-17T20:00:00 9.560246 81.27211
2023-04-17T21:00:00 8.920245 83.41016
2023-04-17T22:00:00 7.820245 87.98487
2023-04-17T23:00:00 7.610245 88.33209
2023-04-18T00:00:00 7.550245 88.26462
2023-04-18T01:00:00 7.590245 87.47229
2023-04-18T02:00:00 7.720245 86.39482
2023-04-18T03:00:00 7.950245 86.18015
2023-04-18T04:00:00 8.090245 85.71736
2023-04-18T05:00:00 8.220245 85.73248
2023-04-18T06:00:00 8.480246 85.46541
2023-04-18T07:00:00 9.300245 82.94151
2023-04-18T08:00:00 9.870245 79.86769
2023-04-18T09:00:00 10.46025 76.49966
2023-04-18T10:00:00 11.25025 72.46719
2023-04-18T11:00:00 12.08025 69.73159
2023-04-18T12:00:00 13.05025 66.96681
2023-04-18T13:00:00 13.84025 65.14281
2023-04-18T14:00:00 14.63025 63.08077
2023-04-18T15:00:00 15.66025 59.10159
2023-04-18T16:00:00 15.76025 57.9223
2023-04-18T17:00:00 15.04025 61.34404
2023-04-18T18:00:00 13.68025 65.5559
2023-04-18T19:00:00 11.20025 75.89085
2023-04-18T20:00:00 10.12025 78.75388
2023-04-18T21:00:00 8.650246 82.50901
2023-04-18T22:00:00 7.750245 86.27772
2023-04-18T23:00:00 7.150245 87.73231
2023-04-19T00:00:00 7.000245 88.08609
2023-04-19T01:00:00 6.560246 89.60005
2023-04-19T02:00:00 6.450245 90.09434
2023-04-19T03:00:00 7.210245 89.03552
2023-04-19T04:00:00 7.680245 88.09332
2023-04-19T05:00:00 7.720245 88.40445
2023-04-19T06:00:00 8.180245 89.06443
2023-04-19T07:00:00 9.490245 86.05557
2023-04-19T08:00:00 10.67025 79.33091
2023-04-19T09:00:00 11.73025 74.02441
2023-04-19T10:00:00 12.40025 70.42576
2023-04-19T11:00:00 12.75025 69.77373
2023-04-19T12:00:00 13.04025 69.64191
2023-04-19T13:00:00 13.49025 66.97105
2023-04-19T14:00:00 13.38025 66.35093
2023-04-19T15:00:00 13.09025 69.03359
2023-04-19T16:00:00 13.07025 68.98201
2023-04-19T17:00:00 12.56025 70.79813
2023-04-19T18:00:00 11.82025 74.09192
2023-04-19T19:00:00 10.89025 76.20422
2023-04-19T20:00:00 9.950245 76.41164
2023-04-19T21:00:00 9.020246 77.16244
2023-04-19T22:00:00 8.400246 81.67242
2023-04-19T23:00:00 7.780245 83.25947
2023-04-20T00:00:00 7.170245 84.29668
2023-04-20T01:00:00 6.170245 86.46176
2023-04-20T02:00:00 5.970245 85.70747
2023-04-20T03:00:00 5.240245 86.66216
2023-04-20T04:00:00 4.740245 87.16319
2023-04-20T05:00:00 4.500246 87.69904
2023-04-20T06:00:00 5.200245 85.6143
2023-04-20T07:00:00 5.790245 80.48124
2023-04-20T08:00:00 6.330246 75.60344
2023-04-20T09:00:00 7.130245 72.57427
2023-04-20T10:00:00 8.220245 70.95356
2023-04-20T11:00:00 8.750245 70.21212
2023-04-20T12:00:00 8.750245 71.77064
2023-04-20T13:00:00 8.700245 74.65429
2023-04-20T14:00:00 8.850245 73.94982
2023-04-20T15:00:00 9.280245 73.82353
2023-04-20T16:00:00 9.270246 73.61458
2023-04-20T17:00:00 9.020246 72.23158
2023-04-20T18:00:00 8.500245 81.97224
2023-04-20T19:00:00 7.760245 78.59328
2023-04-20T20:00:00 6.690245 82.40996
2023-04-20T21:00:00 6.100246 85.48071
2023-04-20T22:00:00 4.920245 88.6236
2023-04-20T23:00:00 4.800245 88.67458
2023-04-21T00:00:00 4.210246 90.60054
2023-04-21T01:00:00 3.500246 92.6398
2023-04-21T02:00:00 2.980246 95.91708
2023-04-21T03:00:00 2.630245 97.4964
2023-04-21T04:00:00 2.810246 97.43331
2023-04-21T05:00:00 2.840245 97.295
2023-04-21T06:00:00 4.000246 94.34242
2023-04-21T07:00:00 5.730245 88.01735
2023-04-21T08:00:00 7.450245 81.99575
2023-04-21T09:00:00 8.690246 80.13299
2023-04-21T10:00:00 10.35025 76.79937
2023-04-21T11:00:00 11.33025 75.75687
2023-04-21T12:00:00 12.22025 74.06356
2023-04-21T13:00:00 12.90025 72.68377
2023-04-21T14:00:00 12.63025 75.00399
2023-04-21T15:00:00 12.70025 77.19213
2023-04-21T16:00:00 13.30025 73.9073
2023-04-21T17:00:00 12.99025 75.11863
2023-04-21T18:00:00 11.51025 86.33526
2023-04-21T19:00:00 10.87025 87.21009
2023-04-21T20:00:00 10.14025 89.6077
2023-04-21T21:00:00 9.800245 89.02908
2023-04-21T22:00:00 9.060246 90.56506
2023-04-21T23:00:00 8.860246 90.30019
2023-04-22T00:00:00 8.640245 89.59998
2023-04-22T01:00:00 7.940245 89.91099
2023-04-22T02:00:00 7.440245 91.126
2023-04-22T03:00:00 7.200245 91.04357
2023-04-22T04:00:00 6.940245 90.7056
2023-04-22T05:00:00 6.510245 92.464
2023-04-22T06:00:00 8.490246 89.40133
2023-04-22T07:00:00 10.74025 84.91039
2023-04-22T08:00:00 12.31025 82.04558
2023-04-22T09:00:00 13.85025 76.49783
2023-04-22T10:00:00 16.23025 68.01528
2023-04-22T11:00:00 17.08025 61.12637
2023-04-22T12:00:00 18.13025 56.69071
2023-04-22T13:00:00 18.37025 56.29386
2023-04-22T14:00:00 18.55025 56.3399
2023-04-22T15:00:00 17.52025 60.16809
2023-04-22T16:00:00 16.38025 64.39491
2023-04-22T17:00:00 15.52025 68.0038
2023-04-22T18:00:00 14.07025 79.73355
2023-04-22T19:00:00 13.92025 77.49451
2023-04-22T20:00:00 13.24025 80.79987
2023-04-22T21:00:00 12.82025 83.28309
2023-04-22T22:00:00 12.11025 84.61132
2023-04-22T23:00:00 11.69025 88.47825
2023-04-23T00:00:00 11.73025 88.00616
2023-04-23T01:00:00 11.54025 90.63644
2023-04-23T02:00:00 11.08025 93.51708
2023-04-23T03:00:00 10.26025 95.77412
2023-04-23T04:00:00 9.970245 96.02209
2023-04-23T05:00:00 9.750245 96.07874
2023-04-23T06:00:00 10.89025 94.96539
2023-04-23T07:00:00 12.67025 87.74136
2023-04-23T08:00:00 13.95025 80.3057
2023-04-23T09:00:00 15.19025 71.12466
2023-04-23T10:00:00 16.24025 62.85688
2023-04-23T11:00:00 17.38025 60.45972
2023-04-23T12:00:00 18.58025 57.84687
2023-04-23T13:00:00 19.45025 55.40519
2023-04-23T14:00:00 16.79025 67.36179
2023-04-23T15:00:00 16.47025 62.86795
2023-04-23T16:00:00 16.43025 60.68098
2023-04-23T17:00:00 14.81025 65.13913
2023-04-23T18:00:00 12.84025 76.95338
2023-04-23T19:00:00 12.08025 80.58009
2023-04-23T20:00:00 11.78025 83.37734
2023-04-23T21:00:00 11.60025 84.9532
2023-04-23T22:00:00 11.30025 84.11397
2023-04-23T23:00:00 11.19025 84.61716
2023-04-24T00:00:00 11.21025 83.47537
2023-04-24T01:00:00 10.75025 84.85365
2023-04-24T02:00:00 10.53025 86.46511
2023-04-24T03:00:00 10.26025 87.26672
2023-04-24T04:00:00 10.12025 88.75475
2023-04-24T05:00:00 9.880245 87.82694
2023-04-24T06:00:00 9.960245 85.75435
2023-04-24T07:00:00 10.13025 79.13774
2023-04-24T08:00:00 10.20025 71.00977
2023-04-24T09:00:00 10.73025 64.06086
2023-04-24T10:00:00 10.56025 56.31988
2023-04-24T11:00:00 11.20025 51.46145
2023-04-24T12:00:00 11.75025 51.98904
2023-04-24T13:00:00 12.37025 53.2147
2023-04-24T14:00:00 12.97025 53.15373
2023-04-24T15:00:00 13.02025 54.73197
2023-04-24T16:00:00 12.77025 57.35101
2023-04-24T17:00:00 12.41025 60.02101
2023-04-24T18:00:00 11.74025 59.01205
2023-04-24T19:00:00 10.51025 63.46759
2023-04-24T20:00:00 9.910245 67.06469
2023-04-24T21:00:00 8.920245 73.3407
2023-04-24T22:00:00 9.080245 72.44746
2023-04-24T23:00:00 9.580245 68.76666
2023-04-25T00:00:00 8.610246 74.06083
2023-04-25T01:00:00 8.200246 76.10419
2023-04-25T02:00:00 7.290245 80.14307
2023-04-25T03:00:00 6.580246 83.98323
2023-04-25T04:00:00 6.290245 86.90366
2023-04-25T05:00:00 6.670245 85.42902
2023-04-25T06:00:00 7.140245 87.486
2023-04-25T07:00:00 6.950245 91.85255
2023-04-25T08:00:00 7.210245 92.8993
2023-04-25T09:00:00 8.240246 83.37884
2023-04-25T10:00:00 9.670245 81.45679
2023-04-25T11:00:00 10.40025 76.75471
2023-04-25T12:00:00 10.61025 73.66271
2023-04-25T13:00:00 11.32025 69.62177
2023-04-25T14:00:00 10.89025 70.6558
2023-04-25T15:00:00 10.84025 71.23862
2023-04-25T16:00:00 10.41025 71.50059
2023-04-25T17:00:00 10.10025 73.05469
2023-04-25T18:00:00 9.500245 78.43641
2023-04-25T19:00:00 8.060246 86.79439
2023-04-25T20:00:00 8.730246 82.46256
2023-04-25T21:00:00 8.610246 84.00964
2023-04-25T22:00:00 7.550245 89.44026
2023-04-25T23:00:00 6.740245 91.90105
2023-04-26T00:00:00 5.670245 94.10894
2023-04-26T01:00:00 5.050245 96.35398
2023-04-26T02:00:00 4.600246 96.06255
2023-04-26T03:00:00 4.040246 97.40926
2023-04-26T04:00:00 3.800245 98.72312
2023-04-26T05:00:00 4.070245 98.93987
2023-04-26T06:00:00 5.500245 95.56493
2023-04-26T07:00:00 6.680245 93.97121
2023-04-26T08:00:00 8.040245 90.41916
2023-04-26T09:00:00 9.650246 80.27812
2023-04-26T10:00:00 11.08025 70.30214
2023-04-26T11:00:00 12.21025 61.98108
2023-04-26T12:00:00 12.94025 56.83332
2023-04-26T13:00:00 13.72025 53.6613
2023-04-26T14:00:00 14.50025 50.32582
2023-04-26T15:00:00 14.92025 49.56454
2023-04-26T16:00:00 15.04025 49.52871
2023-04-26T17:00:00 14.84025 51.60325
2023-04-26T18:00:00 14.35025 51.90353
2023-04-26T19:00:00 11.28025 68.45953
2023-04-26T20:00:00 9.960245 78.89226
2023-04-26T21:00:00 9.770246 81.80946
2023-04-26T22:00:00 9.050245 86.66171
2023-04-26T23:00:00 8.890245 90.17857
2023-04-27T00:00:00 8.750245 91.91982
2023-04-27T01:00:00 8.310246 93.29128
2023-04-27T02:00:00 8.670245 94.278
2023-04-27T03:00:00 8.310246 95.49657
2023-04-27T04:00:00 8.610246 93.95207
2023-04-27T05:00:00 8.530246 93.81873
2023-04-27T06:00:00 9.720245 89.87808
2023-04-27T07:00:00 11.22025 81.06281
2023-04-27T08:00:00 13.46025 69.96692
2023-04-27T09:00:00 15.04025 63.30657
2023-04-27T10:00:00 16.09025 59.49264
2023-04-27T11:00:00 17.22025 54.93745
2023-04-27T12:00:00 17.47025 53.63026
2023-04-27T13:00:00 18.04025 52.08455
2023-04-27T14:00:00 18.75025 49.09583
2023-04-27T15:00:00 19.05025 47.06993
2023-04-27T16:00:00 18.96025 47.40136
2023-04-27T17:00:00 18.60025 50.14085
2023-04-27T18:00:00 17.83025 46.59505
2023-04-27T19:00:00 15.29025 63.75476
2023-04-27T20:00:00 12.42025 78.46965
2023-04-27T21:00:00 11.69025 82.97069
2023-04-27T22:00:00 12.21025 84.90898
2023-04-27T23:00:00 11.88025 87.13533
2023-04-28T00:00:00 12.00025 86.44559
2023-04-28T01:00:00 12.22025 86.64342
2023-04-28T02:00:00 12.86025 87.05808
2023-04-28T03:00:00 12.97025 90.38207
2023-04-28T04:00:00 12.74025 94.41785
2023-04-28T05:00:00 12.86025 93.98647
2023-04-28T06:00:00 13.25025 92.3418
2023-04-28T07:00:00 13.76025 91.94733
2023-04-28T08:00:00 14.30025 91.92096
2023-04-28T09:00:00 14.90025 91.53837
2023-04-28T10:00:00 15.11025 92.63388
2023-04-28T11:00:00 16.72025 86.86178
2023-04-28T12:00:00 17.31025 85.30261
2023-04-28T13:00:00 18.33025 80.64686
2023-04-28T14:00:00 18.57025 78.46613
2023-04-28T15:00:00 18.36025 80.33843
2023-04-28T16:00:00 18.74025 78.59275
2023-04-28T17:00:00 18.47025 79.11514
2023-04-28T18:00:00 18.17025 81.14907
2023-04-28T19:00:00 16.62025 90.99883
2023-04-28T20:00:00 15.62025 94.42255
2023-04-28T21:00:00 15.31025 95.70499
2023-04-28T22:00:00 15.04025 94.89031
2023-04-28T23:00:00 14.42025 96.5531
2023-04-29T00:00:00 13.68025 97.23106
2023-04-29T01:00:00 13.37025 97.60777
2023-04-29T02:00:00 13.34025 98.31503
2023-04-29T03:00:00 13.27025 98.05582
2023-04-29T04:00:00 12.74025 98.56503
2023-04-29T05:00:00 12.84025 98.43664
2023-04-29T06:00:00 13.89025 96.6646
2023-04-29T07:00:00 14.93025 92.08059
2023-04-29T08:00:00 16.23025 82.98747
2023-04-29T09:00:00 17.07025 74.82185
2023-04-29T10:00:00 18.03025 68.56828
2023-04-29T11:00:00 18.79025 61.40895
2023-04-29T12:00:00 19.32025 52.82005
2023-04-29T13:00:00 19.67025 50.50211
2023-04-29T14:00:00 19.48025 51.41729
2023-04-29T15:00:00 19.09025 54.27819
2023-04-29T16:00:00 18.51024 56.4819
2023-04-29T17:00:00 17.17025 61.0654
2023-04-29T18:00:00 15.47025 65.11026
2023-04-29T19:00:00 13.78025 71.52582
2023-04-29T20:00:00 12.98025 75.47532
2023-04-29T21:00:00 12.31025 78.66615
2023-04-29T22:00:00 11.82025 80.87218
2023-04-29T23:00:00 11.23025 84.16266
2023-04-30T00:00:00 11.03025 85.00229
2023-04-30T01:00:00 9.630245 89.31882
2023-04-30T02:00:00 9.310246 90.95809
2023-04-30T03:00:00 9.660245 90.92294
2023-04-30T04:00:00 9.550245 91.35026
2023-04-30T05:00:00 10.28025 89.31522
2023-04-30T06:00:00 11.25025 85.84019
2023-04-30T07:00:00 12.47025 81.84544
2023-04-30T08:00:00 13.59025 76.14514
2023-04-30T09:00:00 15.04025 70.76079
2023-04-30T10:00:00 16.57025 62.2565
2023-04-30T11:00:00 17.37025 57.93432
2023-04-30T12:00:00 17.54025 57.19622
2023-04-30T13:00:00 17.70025 55.40154
2023-04-30T14:00:00 18.17025 53.08844
2023-04-30T15:00:00 18.19025 51.94742
2023-04-30T16:00:00 17.98025 52.31811
2023-04-30T17:00:00 17.21025 60.62306
2023-04-30T18:00:00 16.00025 67.10357
2023-04-30T19:00:00 14.83025 68.69166
2023-04-30T20:00:00 14.42025 69.54488
2023-04-30T21:00:00 14.08025 71.00346
2023-04-30T22:00:00 13.71025 72.83661
2023-04-30T23:00:00 13.16025 76.38247
2023-05-01T00:00:00 12.78025 79.43526
2023-05-01T01:00:00 12.32025 83.84049
2023-05-01T02:00:00 11.89025 86.49233
2023-05-01T03:00:00 11.38025 89.1694
2023-05-01T04:00:00 10.66025 92.61367
2023-05-01T05:00:00 10.71025 93.68578
2023-05-01T06:00:00 11.71025 92.92753
2023-05-01T07:00:00 12.85025 88.46484
2023-05-01T08:00:00 13.83025 83.68722
2023-05-01T09:00:00 14.49025 78.94667
2023-05-01T10:00:00 14.88025 81.08133
2023-05-01T11:00:00 15.49025 79.8858
2023-05-01T12:00:00 15.83025 74.70733
2023-05-01T13:00:00 15.88025 69.37285
2023-05-01T14:00:00 16.10025 69.37083
2023-05-01T15:00:00 15.80025 69.91781
2023-05-01T16:00:00 15.70025 69.56979
2023-05-01T17:00:00 15.27025 74.46015
2023-05-01T18:00:00 14.33025 78.08158
2023-05-01T19:00:00 13.03025 84.60506
2023-05-01T20:00:00 12.40025 86.83684
2023-05-01T21:00:00 11.46025 90.02199
2023-05-01T22:00:00 11.16025 89.08993
2023-05-01T23:00:00 10.21025 91.83422
2023-05-02T00:00:00 10.05025 91.88551
2023-05-02T01:00:00 9.810246 92.62235
2023-05-02T02:00:00 9.440246 94.19023
2023-05-02T03:00:00 8.930245 95.13331
2023-05-02T04:00:00 8.950245 94.9395
2023-05-02T05:00:00 9.560246 94.83942
2023-05-02T06:00:00 10.86025 92.62624
2023-05-02T07:00:00 12.22025 87.22805
2023-05-02T08:00:00 13.25025 81.56567
2023-05-02T09:00:00 14.48025 72.53828
2023-05-02T10:00:00 15.54025 66.41828
2023-05-02T11:00:00 16.17025 59.63438
2023-05-02T12:00:00 16.53025 54.8686
2023-05-02T13:00:00 17.02025 52.77962
2023-05-02T14:00:00 17.06025 49.85243
2023-05-02T15:00:00 16.85025 51.68962
2023-05-02T16:00:00 16.25025 57.25731
2023-05-02T17:00:00 15.90025 60.51087
2023-05-02T18:00:00 14.76025 67.06397
2023-05-02T19:00:00 13.36025 72.57284
2023-05-02T20:00:00 12.30025 77.49518
2023-05-02T21:00:00 11.25025 82.63146
2023-05-02T22:00:00 9.790245 85.9709
2023-05-02T23:00:00 8.910245 88.8252
2023-05-03T00:00:00 8.160246 90.49169
2023-05-03T01:00:00 7.470245 91.12837
2023-05-03T02:00:00 7.010245 92.69232
2023-05-03T03:00:00 6.600246 93.4437
2023-05-03T04:00:00 6.110245 94.00317
2023-05-03T05:00:00 6.860245 93.52507
2023-05-03T06:00:00 9.150246 88.36009
2023-05-03T07:00:00 11.00025 82.48555
2023-05-03T08:00:00 12.95025 76.24346
2023-05-03T09:00:00 14.75025 68.48894
2023-05-03T10:00:00 16.56025 63.74408
2023-05-03T11:00:00 17.97025 55.96315
2023-05-03T12:00:00 19.08025 53.18639
2023-05-03T13:00:00 19.84025 51.06384
2023-05-03T14:00:00 20.38025 48.28706
2023-05-03T15:00:00 20.63025 47.19117
2023-05-03T16:00:00 20.45025 46.37775
2023-05-03T17:00:00 19.81025 49.4557
2023-05-03T18:00:00 17.63025 59.3081
2023-05-03T19:00:00 14.33025 69.81043
2023-05-03T20:00:00 12.83025 75.91274
2023-05-03T21:00:00 11.41025 80.86868
2023-05-03T22:00:00 10.35025 84.74817
2023-05-03T23:00:00 9.330245 87.77218
2023-05-04T00:00:00 8.570246 89.28518
2023-05-04T01:00:00 7.720245 91.46449
2023-05-04T02:00:00 7.490245 92.14778
2023-05-04T03:00:00 7.640245 91.52185
2023-05-04T04:00:00 7.470245 91.25507
2023-05-04T05:00:00 7.540245 93.04982
2023-05-04T06:00:00 10.40025 87.04318
2023-05-04T07:00:00 13.18025 77.48003
2023-05-04T08:00:00 15.39025 70.73428
2023-05-04T09:00:00 17.23025 66.07285
2023-05-04T10:00:00 19.15025 62.89661
2023-05-04T11:00:00 20.91025 58.42235
2023-05-04T12:00:00 22.34025 53.86041
2023-05-04T13:00:00 23.35025 50.61379
2023-05-04T14:00:00 24.22025 48.4647
2023-05-04T15:00:00 24.54025 47.07233
2023-05-04T16:00:00 24.52025 47.72265
2023-05-04T17:00:00 23.90025 50.79308
2023-05-04T18:00:00 21.79025 58.67452
2023-05-04T19:00:00 18.85025 67.47974
2023-05-04T20:00:00 19.05025 62.83207
2023-05-04T21:00:00 18.22025 63.90708
2023-05-04T22:00:00 14.92025 77.75715
2023-05-04T23:00:00 14.82025 79.7363
2023-05-05T00:00:00 14.49025 82.11383
2023-05-05T01:00:00 14.32025 83.74628
2023-05-05T02:00:00 14.36025 86.51605
2023-05-05T03:00:00 14.47025 87.6777
2023-05-05T04:00:00 14.16025 89.87669
2023-05-05T05:00:00 14.22025 90.41605
2023-05-05T06:00:00 15.36025 86.78692
2023-05-05T07:00:00 16.58025 80.67288
2023-05-05T08:00:00 18.10025 72.77056
2023-05-05T09:00:00 19.40025 67.46059
2023-05-05T10:00:00 20.74025 63.29777
2023-05-05T11:00:00 21.56025 60.01827
2023-05-05T12:00:00 22.19025 57.96989
2023-05-05T13:00:00 22.46025 58.4917
2023-05-05T14:00:00 20.45025 65.12285
2023-05-05T15:00:00 18.92025 75.08499
2023-05-05T16:00:00 18.71025 73.98232
2023-05-05T17:00:00 18.84025 70.46712
2023-05-05T18:00:00 17.76024 75.82817
2023-05-05T19:00:00 16.55025 83.62522
2023-05-05T20:00:00 15.79025 88.02833
2023-05-05T21:00:00 15.21025 92.03754
2023-05-05T22:00:00 14.59025 94.00835
2023-05-05T23:00:00 13.86025 96.03214
2023-05-06T00:00:00 13.18025 97.41117
2023-05-06T01:00:00 12.70025 97.98068
2023-05-06T02:00:00 12.44025 98.23521
2023-05-06T03:00:00 12.60025 98.0435
2023-05-06T04:00:00 12.85025 98.24232
2023-05-06T05:00:00 12.66025 98.30396
2023-05-06T06:00:00 13.28025 96.9659
2023-05-06T07:00:00 14.23025 95.48044
2023-05-06T08:00:00 15.46025 88.51865
2023-05-06T09:00:00 17.29025 80.29643
2023-05-06T10:00:00 19.97025 63.62486
2023-05-06T11:00:00 20.81025 56.3854
2023-05-06T12:00:00 21.49025 52.30229
2023-05-06T13:00:00 22.08025 50.44172
2023-05-06T14:00:00 22.59025 48.99095
2023-05-06T15:00:00 22.31025 49.50533
2023-05-06T16:00:00 22.31025 49.83608
2023-05-06T17:00:00 21.92025 54.90029
2023-05-06T18:00:00 20.84025 53.32831
2023-05-06T19:00:00 18.51024 67.54272
2023-05-06T20:00:00 16.77025 74.32694
2023-05-06T21:00:00 13.87025 85.21081
2023-05-06T22:00:00 14.10025 82.94291
2023-05-06T23:00:00 13.32025 84.63867
2023-05-07T00:00:00 13.21025 86.7449
2023-05-07T01:00:00 12.27025 89.96631
2023-05-07T02:00:00 11.55025 92.60689
2023-05-07T03:00:00 11.53025 91.67758
2023-05-07T04:00:00 11.79025 91.20472
2023-05-07T05:00:00 11.90025 94.06352
2023-05-07T06:00:00 13.69025 89.54285
2023-05-07T07:00:00 15.42025 83.32613
2023-05-07T08:00:00 16.83025 79.60449
2023-05-07T09:00:00 18.24025 74.9222
2023-05-07T10:00:00 19.31025 70.23547
2023-05-07T11:00:00 19.93024 70.03503
2023-05-07T12:00:00 20.32025 69.02685
2023-05-07T13:00:00 18.93024 76.81088
2023-05-07T14:00:00 18.98025 73.88465
2023-05-07T15:00:00 18.11025 77.23342
2023-05-07T16:00:00 17.90025 79.03305
2023-05-07T17:00:00 17.59025 81.70738
2023-05-07T18:00:00 16.54025 87.80889
2023-05-07T19:00:00 15.69025 92.12639
2023-05-07T20:00:00 15.30025 93.37107
2023-05-07T21:00:00 15.04025 94.39752
2023-05-07T22:00:00 14.67025 94.13502
2023-05-07T23:00:00 14.50025 95.49024
2023-05-08T00:00:00 14.32025 96.55029
2023-05-08T01:00:00 14.23025 97.11703
2023-05-08T02:00:00 14.25025 97.81718
2023-05-08T03:00:00 14.16025 98.00721
2023-05-08T04:00:00 14.36025 97.6281
2023-05-08T05:00:00 14.54025 97.50462
2023-05-08T06:00:00 14.63025 97.6334
2023-05-08T07:00:00 15.23025 96.26273
2023-05-08T08:00:00 16.08025 90.49167
2023-05-08T09:00:00 16.91025 84.59797
2023-05-08T10:00:00 17.67025 82.08971
2023-05-08T11:00:00 18.49025 78.76004
2023-05-08T12:00:00 18.82025 76.39624
2023-05-08T13:00:00 18.73025 74.66357
2023-05-08T14:00:00 19.04025 73.03453
2023-05-08T15:00:00 19.16025 73.15097
2023-05-08T16:00:00 18.61025 76.2636
2023-05-08T17:00:00 17.78025 84.31122
2023-05-08T18:00:00 16.91025 90.72516
2023-05-08T19:00:00 16.73025 88.45396
2023-05-08T20:00:00 15.91025 91.30621
2023-05-08T21:00:00 15.44025 93.74292
2023-05-08T22:00:00 14.60025 95.99337
2023-05-08T23:00:00 14.56025 95.30559
2023-05-09T00:00:00 13.59025 97.74052
2023-05-09T01:00:00 12.13025 99.21104
2023-05-09T02:00:00 12.26025 99.47525
2023-05-09T03:00:00 12.26025 99.47525
2023-05-09T04:00:00 12.62025 99.2814
2023-05-09T05:00:00 13.18025 98.57132
2023-05-09T06:00:00 13.91025 97.55518
2023-05-09T07:00:00 15.28025 95.14666
2023-05-09T08:00:00 16.78025 89.09003
2023-05-09T09:00:00 17.95025 81.12019
2023-05-09T10:00:00 19.06025 72.13941
2023-05-09T11:00:00 19.81025 67.67762
2023-05-09T12:00:00 20.03025 65.03184
2023-05-09T13:00:00 20.27025 63.19221
2023-05-09T14:00:00 19.30025 68.41982
2023-05-09T15:00:00 17.69025 81.56123
2023-05-09T16:00:00 16.33025 91.68865
2023-05-09T17:00:00 15.49025 93.74533
2023-05-09T18:00:00 15.02025 94.51965
2023-05-09T19:00:00 14.77025 93.83286
2023-05-09T20:00:00 14.50025 92.78122
2023-05-09T21:00:00 14.17025 93.92676
2023-05-09T22:00:00 13.90025 94.4087
2023-05-09T23:00:00 13.78025 93.72258
2023-05-10T00:00:00 13.49025 92.8459
2023-05-10T01:00:00 13.29025 93.63577
2023-05-10T02:00:00 13.00025 95.24523
2023-05-10T03:00:00 12.95025 94.11552
2023-05-10T04:00:00 12.58025 94.5358
2023-05-10T05:00:00 12.62025 94.03693
2023-05-10T06:00:00 12.90025 92.13645
2023-05-10T07:00:00 13.24025 89.74444
2023-05-10T08:00:00 13.73025 84.01083
2023-05-10T09:00:00 14.34025 75.81106
2023-05-10T10:00:00 14.50025 65.33665
2023-05-10T11:00:00 15.10025 58.87997
2023-05-10T12:00:00 15.46025 56.54471
2023-05-10T13:00:00 15.42025 57.0832
2023-05-10T14:00:00 15.47025 58.77077
2023-05-10T15:00:00 15.13025 62.16951
2023-05-10T16:00:00 14.76025 65.08342
2023-05-10T17:00:00 14.37025 67.99146
2023-05-10T18:00:00 13.79025 69.70046
2023-05-10T19:00:00 12.77025 76.52457
2023-05-10T20:00:00 12.18025 80.3759
2023-05-10T21:00:00 11.59025 84.66458
2023-05-10T22:00:00 11.71025 81.6863
2023-05-10T23:00:00 11.75025 82.36088
2023-05-11T00:00:00 11.54025 84.08614
2023-05-11T01:00:00 11.38025 85.97105
2023-05-11T02:00:00 11.13025 89.02705
2023-05-11T03:00:00 11.06025 90.66077
2023-05-11T04:00:00 10.99025 91.08508
2023-05-11T05:00:00 11.21025 90.24503
2023-05-11T06:00:00 11.40025 90.07783
2023-05-11T07:00:00 11.97025 87.43832
2023-05-11T08:00:00 12.98025 81.25468
2023-05-11T09:00:00 13.63025 74.92569
2023-05-11T10:00:00 13.82025 73.75156
2023-05-11T11:00:00 14.40025 70.73015
2023-05-11T12:00:00 14.36025 70.86618
2023-05-11T13:00:00 14.54025 72.50062
2023-05-11T14:00:00 14.58025 71.53554
2023-05-11T15:00:00 14.61025 68.13484
2023-05-11T16:00:00 14.10025 70.23975
2023-05-11T17:00:00 13.54025 75.4189
2023-05-11T18:00:00 12.97025 79.78651
2023-05-11T19:00:00 11.75025 90.40916
2023-05-11T20:00:00 10.98025 93.3228
2023-05-11T21:00:00 10.77025 93.87875
2023-05-11T22:00:00 10.62025 96.50002
2023-05-11T23:00:00 10.89025 95.02926
2023-05-12T00:00:00 11.13025 93.45702
2023-05-12T01:00:00 10.72025 95.02166
2023-05-12T02:00:00 11.11025 94.7205
2023-05-12T03:00:00 11.04025 96.51401
2023-05-12T04:00:00 10.74025 98.6651
2023-05-12T05:00:00 10.51025 99.5926
2023-05-12T06:00:00 11.09025 97.81678
2023-05-12T07:00:00 12.00025 92.38709
2023-05-12T08:00:00 12.72025 88.6899
2023-05-12T09:00:00 13.49025 83.64587
2023-05-12T10:00:00 15.14025 78.20712
2023-05-12T11:00:00 15.69025 72.0855
2023-05-12T12:00:00 16.33025 66.27685
2023-05-12T13:00:00 16.81025 61.76795
2023-05-12T14:00:00 16.70025 61.99297
2023-05-12T15:00:00 16.27025 65.11296
2023-05-12T16:00:00 16.34025 66.01196
2023-05-12T17:00:00 16.41025 67.46214
2023-05-12T18:00:00 15.46025 74.44379
2023-05-12T19:00:00 14.07025 80.75376
2023-05-12T20:00:00 13.69025 83.89398
2023-05-12T21:00:00 12.83025 88.05033
2023-05-12T22:00:00 11.82025 92.00522
2023-05-12T23:00:00 11.34025 93.59432
2023-05-13T00:00:00 11.30025 94.66584
2023-05-13T01:00:00 11.05025 95.61231
2023-05-13T02:00:00 11.63025 94.1128
2023-05-13T03:00:00 11.68025 93.67553
2023-05-13T04:00:00 11.64025 93.42278
2023-05-13T05:00:00 11.87025 92.00852
2023-05-13T06:00:00 12.34025 89.37169
2023-05-13T07:00:00 13.09025 84.89591
2023-05-13T08:00:00 13.84025 80.23618
2023-05-13T09:00:00 13.94025 78.59923
2023-05-13T10:00:00 14.47025 78.05114
2023-05-13T11:00:00 14.86025 70.62988
2023-05-13T12:00:00 15.43025 66.98122
2023-05-13T13:00:00 15.62025 67.88731
2023-05-13T14:00:00 15.50025 69.43579
2023-05-13T15:00:00 15.43025 71.17127
2023-05-13T16:00:00 15.73025 72.14128
2023-05-13T17:00:00 15.53025 74.00993
2023-05-13T18:00:00 14.98025 78.80994
2023-05-13T19:00:00 13.51025 81.98486
2023-05-13T20:00:00 12.92025 84.08277
2023-05-13T21:00:00 11.95025 86.26559
2023-05-13T22:00:00 11.99025 86.91189
2023-05-13T23:00:00 11.99025 86.91189
2023-05-14T00:00:00 11.38025 89.10925
2023-05-14T01:00:00 10.81025 91.195
2023-05-14T02:00:00 10.42025 92.91242
2023-05-14T03:00:00 10.05025 95.05555
2023-05-14T04:00:00 10.11025 96.41752
2023-05-14T05:00:00 10.35025 95.58398
2023-05-14T06:00:00 11.25025 92.15323
2023-05-14T07:00:00 12.30025 88.47435
2023-05-14T08:00:00 13.48025 82.97562
2023-05-14T09:00:00 14.40025 78.45928
2023-05-14T10:00:00 14.83025 76.25034
2023-05-14T11:00:00 15.50025 72.19467
2023-05-14T12:00:00 16.06025 70.77047
2023-05-14T13:00:00 16.97025 66.90601
2023-05-14T14:00:00 17.21025 64.49515
2023-05-14T15:00:00 15.62025 70.16415
2023-05-14T16:00:00 15.87025 70.73336
2023-05-14T17:00:00 15.31025 77.14787
2023-05-14T18:00:00 14.20025 82.67972
2023-05-14T19:00:00 12.73025 89.88297
2023-05-14T20:00:00 12.10025 92.20833
2023-05-14T21:00:00 11.70025 94.05341
2023-05-14T22:00:00 11.19025 95.3618
2023-05-14T23:00:00 10.91025 95.5425
2023-05-15T00:00:00 10.66025 95.91889
2023-05-15T01:00:00 10.35025 95.90701
2023-05-15T02:00:00 10.28025 96.03386
2023-05-15T03:00:00 9.890245 97.78845
2023-05-15T04:00:00 9.660245 98.91355
2023-05-15T05:00:00 10.15025 98.65514
2023-05-15T06:00:00 11.02025 94.8437
2023-05-15T07:00:00 11.98025 94.44492
2023-05-15T08:00:00 13.30025 92.406
2023-05-15T09:00:00 14.80025 82.53645
2023-05-15T10:00:00 15.65025 79.11951
2023-05-15T11:00:00 16.41025 70.93311
2023-05-15T12:00:00 17.07025 65.64137
2023-05-15T13:00:00 17.00025 63.67299
2023-05-15T14:00:00 16.37025 65.17916
2023-05-15T15:00:00 16.25025 65.81467
2023-05-15T16:00:00 16.27025 67.16122
2023-05-15T17:00:00 14.24025 84.5754
2023-05-15T18:00:00 13.95025 89.62308
2023-05-15T19:00:00 13.15025 93.13413
2023-05-15T20:00:00 12.12025 95.78133
2023-05-15T21:00:00 11.57025 97.2423
2023-05-15T22:00:00 11.81025 98.55083
2023-05-15T23:00:00 11.83025 96.99056
2023-05-16T00:00:00 11.62025 97.11404
2023-05-16T01:00:00 11.62025 97.11404
2023-05-16T02:00:00 11.27025 96.45696
2023-05-16T03:00:00 11.67025 94.05188
2023-05-16T04:00:00 11.48025 95.69328
2023-05-16T05:00:00 11.38025 95.68938
2023-05-16T06:00:00 11.20025 95.8107
2023-05-16T07:00:00 11.19025 95.10632
2023-05-16T08:00:00 11.45025 92.04253
2023-05-16T09:00:00 11.70025 88.41956
2023-05-16T10:00:00 11.48025 90.08427
2023-05-16T11:00:00 12.03025 86.44875
2023-05-16T12:00:00 12.25025 84.1154
2023-05-16T13:00:00 12.43025 80.19439
2023-05-16T14:00:00 12.41025 80.5183
2023-05-16T15:00:00 12.10025 79.11688
2023-05-16T16:00:00 12.09025 75.99287
2023-05-16T17:00:00 12.02025 71.91887
2023-05-16T18:00:00 11.62025 68.5325
2023-05-16T19:00:00 11.25025 63.86893
2023-05-16T20:00:00 10.94025 62.50292
2023-05-16T21:00:00 10.53025 63.74236
2023-05-16T22:00:00 10.05025 67.76179
2023-05-16T23:00:00 9.630245 68.05263
2023-05-17T00:00:00 9.090245 68.8064
2023-05-17T01:00:00 8.690246 69.25881
2023-05-17T02:00:00 8.280246 70.11292
2023-05-17T03:00:00 7.890245 72.15886
2023-05-17T04:00:00 7.520245 74.75134
2023-05-17T05:00:00 7.830246 75.76946
2023-05-17T06:00:00 8.880245 72.76641
2023-05-17T07:00:00 10.14025 70.94783
2023-05-17T08:00:00 11.64025 63.29207
2023-05-17T09:00:00 12.50025 57.32064
2023-05-17T10:00:00 13.33025 54.50763
2023-05-17T11:00:00 14.00025 54.15416
2023-05-17T12:00:00 14.23025 53.68708
2023-05-17T13:00:00 14.76025 53.38153
2023-05-17T14:00:00 14.71025 53.74217
2023-05-17T15:00:00 14.72025 53.89522
2023-05-17T16:00:00 14.20025 55.74616
2023-05-17T17:00:00 13.80025 56.97915
2023-05-17T18:00:00 13.00025 59.00267
2023-05-17T19:00:00 11.96025 61.91997
2023-05-17T20:00:00 11.03025 64.72118
2023-05-17T21:00:00 10.18025 67.55222
2023-05-17T22:00:00 8.780245 72.49038
2023-05-17T23:00:00 8.150246 74.71007
2023-05-18T00:00:00 7.580246 76.75103
2023-05-18T01:00:00 6.820245 80.35439
2023-05-18T02:00:00 6.240245 82.75646
2023-05-18T03:00:00 5.920245 84.49429
2023-05-18T04:00:00 5.820245 84.90251
2023-05-18T05:00:00 7.400245 80.32997
2023-05-18T06:00:00 9.110246 74.15516
2023-05-18T07:00:00 10.78025 68.83158
2023-05-18T08:00:00 12.51025 64.79346
2023-05-18T09:00:00 14.25025 58.09758
2023-05-18T10:00:00 15.20025 54.55296
2023-05-18T11:00:00 15.86025 54.08939
2023-05-18T12:00:00 16.32025 53.24843
2023-05-18T13:00:00 16.54025 52.54076
2023-05-18T14:00:00 16.58025 52.76972
2023-05-18T15:00:00 16.45025 53.20999
2023-05-18T16:00:00 16.06025 56.35067
2023-05-18T17:00:00 15.52025 58.54153
2023-05-18T18:00:00 14.84025 62.14293
2023-05-18T19:00:00 13.73025 65.65736
2023-05-18T20:00:00 12.91025 68.09967
2023-05-18T21:00:00 12.23025 70.73177
2023-05-18T22:00:00 12.77025 67.4154
2023-05-18T23:00:00 11.83025 70.9446
2023-05-19T00:00:00 11.32025 72.33038
2023-05-19T01:00:00 10.79025 75.29656
2023-05-19T02:00:00 9.760245 78.26069
2023-05-19T03:00:00 9.520246 80.4258
2023-05-19T04:00:00 9.320246 81.51981
2023-05-19T05:00:00 10.29025 80.37356
2023-05-19T06:00:00 11.40025 74.99056
2023-05-19T07:00:00 12.61025 70.22643
2023-05-19T08:00:00 14.01025 65.72017
2023-05-19T09:00:00 15.04025 63.4798
2023-05-19T10:00:00 15.88025 61.67216
2023-05-19T11:00:00 16.34025 60.61794
2023-05-19T12:00:00 16.35025 60.82676
2023-05-19T13:00:00 16.36025 61.07768
2023-05-19T14:00:00 16.30025 60.81467
2023-05-19T15:00:00 16.07025 61.54987
2023-05-19T16:00:00 15.95025 61.77292
2023-05-19T17:00:00 15.55025 62.90918
2023-05-19T18:00:00 15.00025 64.51892
2023-05-19T19:00:00 14.49025 65.96235
2023-05-19T20:00:00 13.97025 68.09218
2023-05-19T21:00:00 13.42025 71.11514
2023-05-19T22:00:00 12.72025 75.27602
2023-05-19T23:00:00 12.84025 74.53149
2023-05-20T00:00:00 12.62025 75.77334
2023-05-20T01:00:00 12.03025 79.97246
2023-05-20T02:00:00 11.94025 82.38613
2023-05-20T03:00:00 11.94025 83.90731
2023-05-20T04:00:00 11.83025 85.21005
2023-05-20T05:00:00 12.35025 84.75363
2023-05-20T06:00:00 13.11025 81.71139
2023-05-20T07:00:00 14.07025 79.14811
2023-05-20T08:00:00 14.74025 77.21098
2023-05-20T09:00:00 15.85025 74.21494
2023-05-20T10:00:00 16.49025 72.52419
2023-05-20T11:00:00 17.05025 71.95717
2023-05-20T12:00:00 17.80025 70.54486
2023-05-20T13:00:00 18.40025 69.87498
2023-05-20T14:00:00 18.78025 68.62967
2023-05-20T15:00:00 18.73025 69.84776
2023-05-20T16:00:00 18.62025 72.7691
2023-05-20T17:00:00 18.29025 74.39415
2023-05-20T18:00:00 17.83025 76.78759
2023-05-20T19:00:00 16.46025 82.42014
2023-05-20T20:00:00 15.63025 84.51022
2023-05-20T21:00:00 14.45025 89.0744
2023-05-20T22:00:00 13.81025 90.5649
2023-05-20T23:00:00 13.23025 92.64678
2023-05-21T00:00:00 12.98025 93.31001
2023-05-21T01:00:00 13.40025 93.27113
2023-05-21T02:00:00 13.01025 94.74321
2023-05-21T03:00:00 12.80025 95.48971
2023-05-21T04:00:00 12.78025 95.61543
2023-05-21T05:00:00 12.22025 97.38833
2023-05-21T06:00:00 13.51025 93.83259
2023-05-21T07:00:00 15.18025 87.4558
2023-05-21T08:00:00 17.22025 79.86843
2023-05-21T09:00:00 18.96025 74.50849
2023-05-21T10:00:00 20.73025 69.42125
2023-05-21T11:00:00 21.90025 65.01215
2023-05-21T12:00:00 23.19025 61.54146
2023-05-21T13:00:00 24.03025 58.22605
2023-05-21T14:00:00 24.41025 55.24129
2023-05-21T15:00:00 24.34025 53.35679
2023-05-21T16:00:00 23.92025 55.08268
2023-05-21T17:00:00 22.54025 60.95676
2023-05-21T18:00:00 20.75025 69.24573
2023-05-21T19:00:00 19.09025 75.55298
2023-05-21T20:00:00 17.98025 80.28663
2023-05-21T21:00:00 16.70025 85.34902
2023-05-21T22:00:00 17.25025 85.29628
2023-05-21T23:00:00 16.94025 85.81885
2023-05-22T00:00:00 15.53025 89.16319
2023-05-22T01:00:00 15.35025 89.55752
2023-05-22T02:00:00 14.54025 91.39484
2023-05-22T03:00:00 13.98025 92.44695
2023-05-22T04:00:00 14.06025 92.5734
2023-05-22T05:00:00 14.98025 91.36416
2023-05-22T06:00:00 16.72025 86.24352
2023-05-22T07:00:00 18.66025 78.98888
2023-05-22T08:00:00 20.55025 73.48925
2023-05-22T09:00:00 22.00025 65.96341
2023-05-22T10:00:00 23.20025 62.46187
2023-05-22T11:00:00 24.15025 55.17621
2023-05-22T12:00:00 24.91025 49.77711
2023-05-22T13:00:00 25.42025 46.51239
2023-05-22T14:00:00 26.09025 46.14908
2023-05-22T15:00:00 25.12025 49.15469
2023-05-22T16:00:00 24.46025 54.75535
2023-05-22T17:00:00 23.74025 57.70688
2023-05-22T18:00:00 22.09025 66.70842
2023-05-22T19:00:00 20.76024 70.33019
2023-05-22T20:00:00 18.96025 79.85168
2023-05-22T21:00:00 18.13025 83.48433
2023-05-22T22:00:00 17.88025 86.63609
2023-05-22T23:00:00 17.95025 85.6449
2023-05-23T00:00:00 17.47025 87.72121
2023-05-23T01:00:00 16.44025 91.81404
2023-05-23T02:00:00 16.54025 91.17007
2023-05-23T03:00:00 16.35025 92.58308
2023-05-23T04:00:00 15.99025 93.89041
2023-05-23T05:00:00 16.58025 93.31459
2023-05-23T06:00:00 17.22025 90.22229
2023-05-23T07:00:00 17.80025 88.14596
2023-05-23T08:00:00 18.00025 84.49893
2023-05-23T09:00:00 18.54025 81.14504
2023-05-23T10:00:00 19.46025 76.89346
2023-05-23T11:00:00 20.15025 71.13026
2023-05-23T12:00:00 20.66025 69.09377
2023-05-23T13:00:00 21.11025 65.7757
2023-05-23T14:00:00 21.32025 64.09113
2023-05-23T15:00:00 21.39025 61.32744
2023-05-23T16:00:00 21.18024 59.22377
2023-05-23T17:00:00 20.59025 60.46112
2023-05-23T18:00:00 19.43024 61.96835
2023-05-23T19:00:00 18.03025 65.11025
2023-05-23T20:00:00 16.88025 69.15816
2023-05-23T21:00:00 16.02025 73.80153
2023-05-23T22:00:00 15.30025 74.16716
2023-05-23T23:00:00 14.60025 76.93044
2023-05-24T00:00:00 14.00025 78.18735
2023-05-24T01:00:00 13.26025 79.6143
2023-05-24T02:00:00 12.90025 78.97105
2023-05-24T03:00:00 12.46025 79.2794
2023-05-24T04:00:00 12.21025 79.29533
2023-05-24T05:00:00 12.33025 78.72277
2023-05-24T06:00:00 12.56025 77.01177
2023-05-24T07:00:00 13.06025 75.74607
2023-05-24T08:00:00 13.30025 74.91834
2023-05-24T09:00:00 13.32025 75.27856
2023-05-24T10:00:00 14.13025 71.88559
2023-05-24T11:00:00 15.03025 67.67077
2023-05-24T12:00:00 15.47025 64.58183
2023-05-24T13:00:00 15.96025 60.89809
2023-05-24T14:00:00 16.57025 57.61398
2023-05-24T15:00:00 16.70025 56.01587
2023-05-24T16:00:00 16.74025 53.21474
2023-05-24T17:00:00 16.15025 53.9803
2023-05-24T18:00:00 15.08025 56.91649
2023-05-24T19:00:00 14.04025 59.55494
2023-05-24T20:00:00 13.00025 62.38961
2023-05-24T21:00:00 12.11025 64.79115
2023-05-24T22:00:00 11.07025 65.9231
2023-05-24T23:00:00 10.47025 67.75902
2023-05-25T00:00:00 9.990245 69.73234
2023-05-25T01:00:00 9.820246 68.52807
2023-05-25T02:00:00 10.00025 68.61543
2023-05-25T03:00:00 10.06025 69.30743
2023-05-25T04:00:00 10.07025 71.08283
2023-05-25T05:00:00 10.68025 71.15675
2023-05-25T06:00:00 11.72025 68.79234
2023-05-25T07:00:00 13.02025 66.82183
2023-05-25T08:00:00 14.63025 65.14301
2023-05-25T09:00:00 16.28025 63.07946
2023-05-25T10:00:00 17.78025 60.76014
2023-05-25T11:00:00 18.10025 60.59235
2023-05-25T12:00:00 19.35025 58.6228
2023-05-25T13:00:00 20.19025 57.36296
2023-05-25T14:00:00 20.53025 57.2194
2023-05-25T15:00:00 20.64025 58.97661
2023-05-25T16:00:00 20.60025 59.9478
2023-05-25T17:00:00 20.27025 62.16227
2023-05-25T18:00:00 19.73025 64.71083
2023-05-25T19:00:00 17.84025 72.15157
2023-05-25T20:00:00 16.31025 77.76744
2023-05-25T21:00:00 15.04025 81.53445
2023-05-25T22:00:00 13.66025 84.39585
2023-05-25T23:00:00 13.02025 85.40125
2023-05-26T00:00:00 12.09025 87.80373
2023-05-26T01:00:00 11.52025 88.82148
2023-05-26T02:00:00 11.19025 90.30438
2023-05-26T03:00:00 10.86025 92.00317
2023-05-26T04:00:00 10.70025 93.24373
2023-05-26T05:00:00 11.90025 91.39618
2023-05-26T06:00:00 13.73025 85.65032
2023-05-26T07:00:00 15.44025 76.45298
2023-05-26T08:00:00 17.26024 69.97431
2023-05-26T09:00:00 19.08025 65.42619
2023-05-26T10:00:00 21.14025 60.55103
2023-05-26T11:00:00 22.41025 58.32721
2023-05-26T12:00:00 23.33025 56.45844
2023-05-26T13:00:00 23.98025 54.81214
2023-05-26T14:00:00 24.25025 53.64687
2023-05-26T15:00:00 24.19025 52.52514
2023-05-26T16:00:00 24.11025 50.78201
2023-05-26T17:00:00 23.39025 50.39134
2023-05-26T18:00:00 22.25025 50.79024
2023-05-26T19:00:00 20.65025 53.59988
2023-05-26T20:00:00 19.04025 58.7819
2023-05-26T21:00:00 17.51024 64.99542
2023-05-26T22:00:00 15.35025 74.12643
2023-05-26T23:00:00 14.52025 77.17557
2023-05-27T00:00:00 13.46025 79.75116
2023-05-27T01:00:00 12.64025 81.75794
2023-05-27T02:00:00 12.02025 83.01318
2023-05-27T03:00:00 11.46025 84.53436
2023-05-27T04:00:00 11.18025 85.19334
2023-05-27T05:00:00 13.03025 80.60704
2023-05-27T06:00:00 15.13025 71.68966
2023-05-27T07:00:00 16.71025 64.29602
2023-05-27T08:00:00 18.46025 59.87141
2023-05-27T09:00:00 20.23025 56.38902
2023-05-27T10:00:00 21.79025 53.86066
2023-05-27T11:00:00 23.29025 50.09937
2023-05-27T12:00:00 24.31025 46.82349
2023-05-27T13:00:00 25.19025 43.85917
2023-05-27T14:00:00 25.71025 41.5429
2023-05-27T15:00:00 25.86025 39.72057
2023-05-27T16:00:00 25.45025 39.34035
2023-05-27T17:00:00 24.59025 42.23169
2023-05-27T18:00:00 22.95025 46.82269
2023-05-27T19:00:00 20.35025 54.38757
2023-05-27T20:00:00 17.90025 63.40981
2023-05-27T21:00:00 17.47025 63.35394
2023-05-27T22:00:00 15.28025 73.66879
2023-05-27T23:00:00 14.52025 75.99442
2023-05-28T00:00:00 13.34025 79.35835
2023-05-28T01:00:00 12.13025 82.57889
2023-05-28T02:00:00 11.41025 84.81587
2023-05-28T03:00:00 10.83025 86.02753
2023-05-28T04:00:00 10.39025 86.86414
2023-05-28T05:00:00 12.64025 82.42276
2023-05-28T06:00:00 15.16025 74.49065
2023-05-28T07:00:00 17.35025 62.14602
2023-05-28T08:00:00 19.34025 54.19733
2023-05-28T09:00:00 21.09025 48.9094
2023-05-28T10:00:00 22.55025 48.10646
2023-05-28T11:00:00 23.81025 45.43123
2023-05-28T12:00:00 24.81025 42.94651
2023-05-28T13:00:00 25.58025 39.98695
2023-05-28T14:00:00 25.97025 38.36997
2023-05-28T15:00:00 26.14025 36.51076
2023-05-28T16:00:00 25.87025 36.1161
2023-05-28T17:00:00 25.02025 37.71614
2023-05-28T18:00:00 23.59025 40.805
2023-05-28T19:00:00 21.14025 45.6957
2023-05-28T20:00:00 18.59025 53.70828
2023-05-28T21:00:00 16.50025 60.45108
2023-05-28T22:00:00 14.79025 70.09287
2023-05-28T23:00:00 13.77025 72.8973
2023-05-29T00:00:00 12.66025 76.61029
2023-05-29T01:00:00 11.54025 80.44702
2023-05-29T02:00:00 10.96025 82.25496
2023-05-29T03:00:00 10.27025 84.91293
2023-05-29T04:00:00 10.11025 86.71597
2023-05-29T05:00:00 12.22025 83.4327
2023-05-29T06:00:00 15.09025 71.44117
2023-05-29T07:00:00 17.52025 61.72779
2023-05-29T08:00:00 19.87025 53.82747
2023-05-29T09:00:00 21.97025 47.65877
2023-05-29T10:00:00 23.67025 42.71156
2023-05-29T11:00:00 24.94025 38.48973
2023-05-29T12:00:00 25.91025 35.61926
2023-05-29T13:00:00 26.53025 34.23903
2023-05-29T14:00:00 26.83025 32.47315
2023-05-29T15:00:00 26.91025 30.50313
2023-05-29T16:00:00 26.54025 29.98498
2023-05-29T17:00:00 25.61025 32.36997
2023-05-29T18:00:00 24.17025 35.33829
2023-05-29T19:00:00 21.72025 38.96199
2023-05-29T20:00:00 19.61025 44.36898
2023-05-29T21:00:00 17.86025 49.97108
2023-05-29T22:00:00 15.83025 59.63177
2023-05-29T23:00:00 15.21025 63.21664
2023-05-30T00:00:00 13.91025 68.82738
2023-05-30T01:00:00 12.93025 74.04136
2023-05-30T02:00:00 12.37025 77.4538
2023-05-30T03:00:00 12.18025 79.0753
2023-05-30T04:00:00 11.89025 81.32329
2023-05-30T05:00:00 13.52025 78.64047
2023-05-30T06:00:00 15.76025 68.51398
2023-05-30T07:00:00 17.50025 61.39175
2023-05-30T08:00:00 19.21025 55.26894
2023-05-30T09:00:00 20.72025 51.06033
2023-05-30T10:00:00 22.03025 49.56162
2023-05-30T11:00:00 23.40025 46.20256
2023-05-30T12:00:00 24.40025 41.78479
2023-05-30T13:00:00 25.22025 38.18238
2023-05-30T14:00:00 25.49025 37.14349
2023-05-30T15:00:00 25.61025 36.16392
2023-05-30T16:00:00 25.05025 36.42134
2023-05-30T17:00:00 24.44025 36.27127
2023-05-30T18:00:00 23.21025 37.63197
2023-05-30T19:00:00 21.69025 39.52031
2023-05-30T20:00:00 19.95025 43.82896
2023-05-30T21:00:00 18.37025 47.00746
2023-05-30T22:00:00 17.08025 51.39692
2023-05-30T23:00:00 15.80025 54.56184
2023-05-31T00:00:00 14.75025 57.42481
2023-05-31T01:00:00 13.76025 60.73668
2023-05-31T02:00:00 13.13025 62.94315
2023-05-31T03:00:00 12.70025 66.5668
2023-05-31T04:00:00 12.25025 69.76675
2023-05-31T05:00:00 14.19025 65.94076
2023-05-31T06:00:00 16.19025 57.55661
2023-05-31T07:00:00 18.05025 50.36822
2023-05-31T08:00:00 19.76024 45.96252
2023-05-31T09:00:00 21.34025 42.86053
2023-05-31T10:00:00 23.06025 40.43352
2023-05-31T11:00:00 24.26024 38.26947
2023-05-31T12:00:00 25.43024 35.72356
2023-05-31T13:00:00 26.28025 33.14116
2023-05-31T14:00:00 26.97025 30.08521
2023-05-31T15:00:00 26.99025 27.86269
2023-05-31T16:00:00 26.63025 26.79793
2023-05-31T17:00:00 25.97025 27.5026
2023-05-31T18:00:00 24.31025 32.84998
2023-05-31T19:00:00 21.81025 39.09549
2023-05-31T20:00:00 19.06025 48.54711
2023-05-31T21:00:00 16.88025 57.57487
2023-05-31T22:00:00 15.60025 61.94232
2023-05-31T23:00:00 14.84025 63.91224
2023-06-01T00:00:00 14.26025 66.54518
2023-06-01T01:00:00 13.61025 70.38064
2023-06-01T02:00:00 12.46025 76.83805
2023-06-01T03:00:00 12.32025 78.45397
2023-06-01T04:00:00 11.66025 82.79788
2023-06-01T05:00:00 13.62025 76.92556
2023-06-01T06:00:00 16.37025 66.68787
2023-06-01T07:00:00 18.59025 55.97125
2023-06-01T08:00:00 20.43024 49.12516
2023-06-01T09:00:00 22.30025 45.61995
2023-06-01T10:00:00 23.88025 44.25506
2023-06-01T11:00:00 25.26024 41.41627
2023-06-01T12:00:00 26.23025 38.34117
2023-06-01T13:00:00 26.55025 37.57012
2023-06-01T14:00:00 27.05025 35.84707
2023-06-01T15:00:00 27.31025 34.43703
2023-06-01T16:00:00 27.15025 34.18425
2023-06-01T17:00:00 26.46025 33.96558
2023-06-01T18:00:00 24.88025 35.63889
2023-06-01T19:00:00 22.78025 40.43573
2023-06-01T20:00:00 20.33025 51.6459
2023-06-01T21:00:00 20.17025 47.15886
2023-06-01T22:00:00 17.28025 60.59901
2023-06-01T23:00:00 16.62025 63.71482
2023-06-02T00:00:00 16.10025 66.45033
2023-06-02T01:00:00 15.45025 69.33216
2023-06-02T02:00:00 14.53025 74.5296
2023-06-02T03:00:00 14.45025 75.37248
2023-06-02T04:00:00 14.69025 74.20792
2023-06-02T05:00:00 15.01025 76.22923
2023-06-02T06:00:00 16.45025 67.15447
2023-06-02T07:00:00 17.74025 60.79142
2023-06-02T08:00:00 19.46025 55.18499
2023-06-02T09:00:00 20.98025 51.26741
2023-06-02T10:00:00 22.66025 45.62851
2023-06-02T11:00:00 24.14025 42.07649
2023-06-02T12:00:00 25.25025 38.55214
2023-06-02T13:00:00 25.79025 36.92972
2023-06-02T14:00:00 26.29025 34.84727
2023-06-02T15:00:00 26.21025 33.66546
2023-06-02T16:00:00 25.93024 33.40355
2023-06-02T17:00:00 25.12025 33.21803
2023-06-02T18:00:00 23.46025 35.06131
2023-06-02T19:00:00 21.78025 36.57903
2023-06-02T20:00:00 19.99025 41.97694
2023-06-02T21:00:00 18.40025 48.73005
2023-06-02T22:00:00 16.97025 55.89466
2023-06-02T23:00:00 15.82025 61.32252
2023-06-03T00:00:00 14.88025 66.31892
2023-06-03T01:00:00 14.08025 69.09783
2023-06-03T02:00:00 13.79025 70.46478
2023-06-03T03:00:00 13.06025 74.57091
2023-06-03T04:00:00 12.24025 78.97699
2023-06-03T05:00:00 13.49025 78.26568
2023-06-03T06:00:00 15.91025 64.59383
2023-06-03T07:00:00 17.60025 57.44468
2023-06-03T08:00:00 19.34025 53.03995
2023-06-03T09:00:00 21.13025 49.18437
2023-06-03T10:00:00 22.75025 46.39354
2023-06-03T11:00:00 24.27025 43.22572
2023-06-03T12:00:00 25.66025 40.27724
2023-06-03T13:00:00 26.29025 38.10291
2023-06-03T14:00:00 26.78025 35.05713
2023-06-03T15:00:00 26.72025 34.68812
2023-06-03T16:00:00 26.50025 33.97694
2023-06-03T17:00:00 25.79025 35.48897
2023-06-03T18:00:00 24.26024 45.98072
2023-06-03T19:00:00 23.49025 35.82539
2023-06-03T20:00:00 21.93024 41.78782
2023-06-03T21:00:00 20.05025 52.30543
2023-06-03T22:00:00 16.22025 71.56198
2023-06-03T23:00:00 15.40025 75.88808
2023-06-04T00:00:00 14.60025 79.59808
2023-06-04T01:00:00 13.90025 81.16342
2023-06-04T02:00:00 13.72025 81.46545
2023-06-04T03:00:00 13.35025 83.51685
2023-06-04T04:00:00 12.84025 85.61057
2023-06-04T05:00:00 14.45025 80.64526
2023-06-04T06:00:00 16.29025 72.3907
2023-06-04T07:00:00 18.01024 62.21693
2023-06-04T08:00:00 19.44025 57.2519
2023-06-04T09:00:00 20.88025 54.59729
2023-06-04T10:00:00 22.25025 51.70856
2023-06-04T11:00:00 23.66025 47.29973
2023-06-04T12:00:00 24.84025 42.10512
2023-06-04T13:00:00 25.45025 40.46016
2023-06-04T14:00:00 26.42025 36.12674
2023-06-04T15:00:00 26.70025 32.85722
2023-06-04T16:00:00 25.29025 36.02372
2023-06-04T17:00:00 24.41025 38.62458
2023-06-04T18:00:00 23.33025 43.19264
2023-06-04T19:00:00 21.54025 46.05645
2023-06-04T20:00:00 19.24025 51.70194
2023-06-04T21:00:00 17.86025 54.99274
2023-06-04T22:00:00 16.03025 63.14969
2023-06-04T23:00:00 15.13025 64.24135
2023-06-05T00:00:00 15.06025 62.66535
2023-06-05T01:00:00 14.11025 65.60754
2023-06-05T02:00:00 13.28025 69.93024
2023-06-05T03:00:00 12.60025 74.53925
2023-06-05T04:00:00 11.82025 79.56078
2023-06-05T05:00:00 13.95025 73.52603
2023-06-05T06:00:00 16.41025 63.45192
2023-06-05T07:00:00 18.81025 50.92271
2023-06-05T08:00:00 20.87025 43.01964
2023-06-05T09:00:00 22.77025 38.7323
2023-06-05T10:00:00 24.12025 37.76518
2023-06-05T11:00:00 25.20025 34.3955
2023-06-05T12:00:00 25.96025 31.98516
2023-06-05T13:00:00 26.56025 30.15562
2023-06-05T14:00:00 26.95025 30.03847
2023-06-05T15:00:00 27.21025 29.35927
2023-06-05T16:00:00 26.79025 29.95249
2023-06-05T17:00:00 26.23025 30.04207
2023-06-05T18:00:00 24.68024 32.39377
2023-06-05T19:00:00 22.62025 34.52982
2023-06-05T20:00:00 21.25025 37.16695
2023-06-05T21:00:00 18.69025 47.06549
2023-06-05T22:00:00 18.63025 52.31477
2023-06-05T23:00:00 17.68024 55.24575
2023-06-06T00:00:00 16.54025 59.7256
2023-06-06T01:00:00 14.28025 69.04519
2023-06-06T02:00:00 12.94025 75.7769
2023-06-06T03:00:00 12.36025 79.96687
2023-06-06T04:00:00 12.58025 81.19917
2023-06-06T05:00:00 14.74025 75.72627
2023-06-06T06:00:00 17.29025 65.47025
2023-06-06T07:00:00 19.28025 57.9437
2023-06-06T08:00:00 21.20025 54.13772
2023-06-06T09:00:00 23.13025 47.72258
2023-06-06T10:00:00 24.70025 42.23449
2023-06-06T11:00:00 25.46025 37.86708
2023-06-06T12:00:00 26.32025 33.10752
2023-06-06T13:00:00 26.94025 29.93308
2023-06-06T14:00:00 27.09025 28.45303
2023-06-06T15:00:00 27.19025 27.19567
2023-06-06T16:00:00 27.12025 26.82137
2023-06-06T17:00:00 26.53025 26.54771
2023-06-06T18:00:00 25.26024 33.71571
2023-06-06T19:00:00 24.48025 25.38055
2023-06-06T20:00:00 21.22025 38.76328
2023-06-06T21:00:00 18.72025 47.46422
2023-06-06T22:00:00 16.94025 54.37712
2023-06-06T23:00:00 16.05025 60.05396
2023-06-07T00:00:00 14.93025 66.10469
2023-06-07T01:00:00 14.35025 70.48089
2023-06-07T02:00:00 13.39025 76.57634
2023-06-07T03:00:00 12.98025 80.49123
2023-06-07T04:00:00 12.70025 83.43641
2023-06-07T05:00:00 14.73025 76.6945
2023-06-07T06:00:00 17.07025 65.5096
2023-06-07T07:00:00 19.43024 56.45028
2023-06-07T08:00:00 21.53025 50.69873
2023-06-07T09:00:00 23.30025 45.77607
2023-06-07T10:00:00 24.93024 37.97137
2023-06-07T11:00:00 25.90025 33.14585
2023-06-07T12:00:00 26.49025 29.68409
2023-06-07T13:00:00 26.99025 26.67436
2023-06-07T14:00:00 27.33025 25.16403
2023-06-07T15:00:00 27.41025 24.01779
2023-06-07T16:00:00 27.05025 24.72249
2023-06-07T17:00:00 26.53025 25.38771
2023-06-07T18:00:00 25.25025 29.2131
2023-06-07T19:00:00 21.76024 43.59837
2023-06-07T20:00:00 18.93024 49.21299
2023-06-07T21:00:00 17.07025 55.27482
2023-06-07T22:00:00 16.23025 63.02512
2023-06-07T23:00:00 15.45025 66.17415
2023-06-08T00:00:00 14.49025 71.46978
2023-06-08T01:00:00 13.88025 76.65765
2023-06-08T02:00:00 13.17025 81.71951
2023-06-08T03:00:00 12.69025 86.40178
2023-06-08T04:00:00 13.22025 86.68805
2023-06-08T05:00:00 15.49025 78.26085
2023-06-08T06:00:00 17.91025 66.92732
2023-06-08T07:00:00 19.95025 56.80875
2023-06-08T08:00:00 22.01024 51.20071
2023-06-08T09:00:00 23.90025 45.00458
2023-06-08T10:00:00 25.18024 39.07967
2023-06-08T11:00:00 26.37025 35.58219
2023-06-08T12:00:00 27.15025 34.02364
2023-06-08T13:00:00 27.75025 30.15999
2023-06-08T14:00:00 27.56025 30.18893
2023-06-08T15:00:00 28.32025 27.46934
2023-06-08T16:00:00 27.24025 29.20722
2023-06-08T17:00:00 26.59025 31.98912
2023-06-08T18:00:00 25.25025 42.95559
2023-06-08T19:00:00 23.88025 36.88322
2023-06-08T20:00:00 20.60025 51.26865
2023-06-08T21:00:00 18.35025 61.79886
2023-06-08T22:00:00 16.69025 74.31299
2023-06-08T23:00:00 16.18025 78.31416
2023-06-09T00:00:00 15.10025 83.28725
2023-06-09T01:00:00 14.11025 87.12338
2023-06-09T02:00:00 13.58025 89.06022
2023-06-09T03:00:00 13.32025 90.04929
2023-06-09T04:00:00 13.27025 90.1052
2023-06-09T05:00:00 15.62025 80.91409
2023-06-09T06:00:00 18.02025 70.68044
2023-06-09T07:00:00 20.28025 60.58736
2023-06-09T08:00:00 22.30025 54.27771
2023-06-09T09:00:00 24.15025 49.18488
2023-06-09T10:00:00 26.03025 40.97582
2023-06-09T11:00:00 27.31025 35.99271
2023-06-09T12:00:00 28.62025 31.76316
2023-06-09T13:00:00 29.33025 28.68375
2023-06-09T14:00:00 29.60025 26.11513
2023-06-09T15:00:00 29.17025 26.95817
2023-06-09T16:00:00 29.08025 28.13347
2023-06-09T17:00:00 28.31025 29.40541
2023-06-09T18:00:00 26.93024 35.24134
2023-06-09T19:00:00 24.57025 42.25426
2023-06-09T20:00:00 22.56025 48.43114
2023-06-09T21:00:00 21.54025 51.93372
2023-06-09T22:00:00 20.64025 57.36071
2023-06-09T23:00:00 20.99025 54.37196
2023-06-10T00:00:00 19.39025 62.90971
2023-06-10T01:00:00 18.26024 69.20599
2023-06-10T02:00:00 16.58025 78.5295
2023-06-10T03:00:00 16.28025 81.32341
2023-06-10T04:00:00 15.57025 86.7506
2023-06-10T05:00:00 17.83025 77.74595
2023-06-10T06:00:00 20.01024 68.1172
2023-06-10T07:00:00 21.70025 61.51927
2023-06-10T08:00:00 23.30025 54.71156
2023-06-10T09:00:00 24.72025 48.34512
2023-06-10T10:00:00 26.39025 42.87661
2023-06-10T11:00:00 27.40025 38.11242
2023-06-10T12:00:00 28.37025 33.77709
2023-06-10T13:00:00 28.83025 31.6729
2023-06-10T14:00:00 29.32025 30.4135
2023-06-10T15:00:00 29.56025 30.37814
2023-06-10T16:00:00 29.41025 30.78763
2023-06-10T17:00:00 28.89025 30.62222
2023-06-10T18:00:00 27.54025 34.31757
2023-06-10T19:00:00 25.70025 37.75753
2023-06-10T20:00:00 23.64025 45.41427
2023-06-10T21:00:00 22.37025 53.12711
2023-06-10T22:00:00 20.36025 63.58675
2023-06-10T23:00:00 19.13025 68.65508
2023-06-11T00:00:00 18.71025 71.88695
2023-06-11T01:00:00 17.66025 76.86114
2023-06-11T02:00:00 16.94025 80.19559
2023-06-11T03:00:00 16.38025 84.26348
2023-06-11T04:00:00 16.45025 83.99672
2023-06-11T05:00:00 18.29025 76.26186
2023-06-11T06:00:00 20.69025 65.13218
2023-06-11T07:00:00 22.47025 57.54744
2023-06-11T08:00:00 24.17025 52.24646
2023-06-11T09:00:00 25.60025 48.14018
2023-06-11T10:00:00 26.77025 44.82024
2023-06-11T11:00:00 27.86025 40.1244
2023-06-11T12:00:00 29.05025 36.10012
2023-06-11T13:00:00 29.22025 34.97495
2023-06-11T14:00:00 29.58025 33.91403
2023-06-11T15:00:00 29.63025 32.90929
2023-06-11T16:00:00 29.62025 31.09462
2023-06-11T17:00:00 28.92025 28.82372
2023-06-11T18:00:00 27.92025 28.33287
2023-06-11T19:00:00 25.21025 38.46309
2023-06-11T20:00:00 24.69025 35.27053
2023-06-11T21:00:00 21.43024 46.84142
2023-06-11T22:00:00 19.65025 53.19372
2023-06-11T23:00:00 18.30025 58.48127
2023-06-12T00:00:00 17.60025 60.88067
2023-06-12T01:00:00 16.90025 62.84063
2023-06-12T02:00:00 15.92025 67.9961
2023-06-12T03:00:00 15.34025 71.20166
2023-06-12T04:00:00 14.14025 76.70054
2023-06-12T05:00:00 16.74025 68.39522
2023-06-12T06:00:00 19.61025 55.74445
2023-06-12T07:00:00 21.80025 46.34737
2023-06-12T08:00:00 23.54025 41.45704
2023-06-12T09:00:00 25.21025 36.39312
2023-06-12T10:00:00 26.83025 30.31437
2023-06-12T11:00:00 28.03025 27.71084
2023-06-12T12:00:00 28.78025 25.82188
2023-06-12T13:00:00 29.41025 24.33392
2023-06-12T14:00:00 29.75025 23.32182
2023-06-12T15:00:00 29.81025 22.65312
2023-06-12T16:00:00 29.54025 22.62979
2023-06-12T17:00:00 29.19025 21.64343
2023-06-12T18:00:00 27.95025 21.18779
2023-06-12T19:00:00 25.82025 25.14069
2023-06-12T20:00:00 23.28025 33.7971
2023-06-12T21:00:00 21.28025 40.1139
2023-06-12T22:00:00 19.30025 46.59395
2023-06-12T23:00:00 17.84025 50.48355
2023-06-13T00:00:00 16.40025 56.09154
2023-06-13T01:00:00 15.09025 59.61163
2023-06-13T02:00:00 14.01025 65.31568
2023-06-13T03:00:00 13.63025 66.13315
2023-06-13T04:00:00 13.87025 65.50863
2023-06-13T05:00:00 15.87025 60.71036
2023-06-13T06:00:00 18.52025 47.83408
2023-06-13T07:00:00 20.34025 38.61428
2023-06-13T08:00:00 21.83025 33.68252
2023-06-13T09:00:00 23.23025 30.5787
2023-06-13T10:00:00 24.80025 26.68401
2023-06-13T11:00:00 26.09025 24.75744
2023-06-13T12:00:00 27.12025 24.05793
2023-06-13T13:00:00 27.83025 23.91229
2023-06-13T14:00:00 28.25025 22.83059
2023-06-13T15:00:00 28.49025 21.35709
2023-06-13T16:00:00 28.37025 19.25446
2023-06-13T17:00:00 27.76024 16.7958
2023-06-13T18:00:00 26.62025 13.69219
2023-06-13T19:00:00 24.33025 14.7797
2023-06-13T20:00:00 21.04025 23.56854
2023-06-13T21:00:00 18.47025 33.31535
2023-06-13T22:00:00 16.64025 39.6759
2023-06-13T23:00:00 15.26025 45.46722
2023-06-14T00:00:00 14.77025 49.45233
2023-06-14T01:00:00 13.22025 55.75912
2023-06-14T02:00:00 12.04025 61.37717
2023-06-14T03:00:00 11.32025 65.19902
2023-06-14T04:00:00 10.72025 69.6904
2023-06-14T05:00:00 13.55025 62.04719
2023-06-14T06:00:00 17.05025 48.41859
2023-06-14T07:00:00 19.96025 37.94201
2023-06-14T08:00:00 22.38025 31.62169
2023-06-14T09:00:00 24.37025 27.63451
2023-06-14T10:00:00 25.90025 25.18025
2023-06-14T11:00:00 26.78025 24.13573
2023-06-14T12:00:00 27.25025 23.67399
2023-06-14T13:00:00 27.81025 22.81066
2023-06-14T14:00:00 27.85025 22.91756
2023-06-14T15:00:00 27.63025 22.85944
2023-06-14T16:00:00 26.95025 24.06292
2023-06-14T17:00:00 26.18024 24.43529
2023-06-14T18:00:00 25.09025 22.89847
2023-06-14T19:00:00 23.56025 26.88726
2023-06-14T20:00:00 21.64025 33.62727
2023-06-14T21:00:00 20.18024 38.51378
2023-06-14T22:00:00 18.24025 46.80861
2023-06-14T23:00:00 16.56025 55.17885
2023-06-15T00:00:00 15.46025 59.62171
2023-06-15T01:00:00 15.18025 59.96277
2023-06-15T02:00:00 15.01025 61.5053
2023-06-15T03:00:00 14.37025 65.57601
2023-06-15T04:00:00 13.88025 67.56291
2023-06-15T05:00:00 14.70025 70.21722
2023-06-15T06:00:00 17.24025 55.81224
2023-06-15T07:00:00 19.29025 49.24531
2023-06-15T08:00:00 21.48025 42.78365
2023-06-15T09:00:00 23.53025 36.90849
2023-06-15T10:00:00 25.18024 32.76049
2023-06-15T11:00:00 25.99025 29.42144
2023-06-15T12:00:00 26.74025 26.58706
2023-06-15T13:00:00 27.23025 24.49565
2023-06-15T14:00:00 27.69025 23.06897
2023-06-15T15:00:00 27.50025 22.6649
2023-06-15T16:00:00 26.88025 24.07793
2023-06-15T17:00:00 26.43024 25.5744
2023-06-15T18:00:00 25.82025 23.74213
2023-06-15T19:00:00 23.91025 28.21266
2023-06-15T20:00:00 21.17025 38.53481
2023-06-15T21:00:00 19.39025 46.39605
2023-06-15T22:00:00 17.95025 56.3768
2023-06-15T23:00:00 17.62025 57.68378
2023-06-16T00:00:00 16.25025 63.5439
2023-06-16T01:00:00 15.42025 69.46633
2023-06-16T02:00:00 14.44025 74.16327
2023-06-16T03:00:00 14.09025 77.31361
2023-06-16T04:00:00 13.56025 80.73633
2023-06-16T05:00:00 15.54025 73.76487
2023-06-16T06:00:00 18.24025 61.07433
2023-06-16T07:00:00 20.75025 52.14109
2023-06-16T08:00:00 22.99025 42.95153
2023-06-16T09:00:00 24.80025 34.84765
2023-06-16T10:00:00 25.96025 28.25543
2023-06-16T11:00:00 26.84025 24.42472
2023-06-16T12:00:00 27.50025 22.112
2023-06-16T13:00:00 27.92025 20.69014
2023-06-16T14:00:00 28.24025 19.65213
2023-06-16T15:00:00 28.27025 19.78612
2023-06-16T16:00:00 28.12025 19.79064
2023-06-16T17:00:00 27.54025 20.63693
2023-06-16T18:00:00 26.62025 21.8971
2023-06-16T19:00:00 24.15025 28.32013
2023-06-16T20:00:00 22.54025 33.28025
2023-06-16T21:00:00 21.44025 36.91356
2023-06-16T22:00:00 19.62025 40.01989
2023-06-16T23:00:00 18.32025 43.75367
2023-06-17T00:00:00 16.58025 49.99568
2023-06-17T01:00:00 14.44025 59.82029
2023-06-17T02:00:00 12.82025 67.28684
2023-06-17T03:00:00 11.79025 74.39273
2023-06-17T04:00:00 11.84025 79.56381
2023-06-17T05:00:00 14.89025 67.36601
2023-06-17T06:00:00 17.86025 53.99108
2023-06-17T07:00:00 20.70025 46.85973
2023-06-17T08:00:00 23.46025 40.82309
2023-06-17T09:00:00 25.64025 34.00883
2023-06-17T10:00:00 27.54025 26.38426
2023-06-17T11:00:00 28.52025 23.12671
2023-06-17T12:00:00 29.18024 21.93049
2023-06-17T13:00:00 29.64025 21.39792
2023-06-17T14:00:00 29.97025 20.29934
2023-06-17T15:00:00 29.98025 20.24494
2023-06-17T16:00:00 29.86025 20.61592
2023-06-17T17:00:00 29.43024 21.2843
2023-06-17T18:00:00 28.74025 28.89138
2023-06-17T19:00:00 26.90025 26.28187
2023-06-17T20:00:00 24.02025 34.55241
2023-06-17T21:00:00 20.61025 42.73927
2023-06-17T22:00:00 19.68024 46.92519
2023-06-17T23:00:00 18.28025 50.88231
2023-06-18T00:00:00 17.02025 56.94717
2023-06-18T01:00:00 15.47025 64.14436
2023-06-18T02:00:00 15.81025 61.90796
2023-06-18T03:00:00 15.29025 64.19048
2023-06-18T04:00:00 15.24025 64.52959
2023-06-18T05:00:00 16.49025 65.16194
2023-06-18T06:00:00 19.46025 50.0014
2023-06-18T07:00:00 22.25025 43.73732
2023-06-18T08:00:00 25.01024 38.19966
2023-06-18T09:00:00 27.09025 34.6997
2023-06-18T10:00:00 28.62025 31.50809
2023-06-18T11:00:00 29.87025 29.44007
2023-06-18T12:00:00 30.84025 26.7738
2023-06-18T13:00:00 31.30025 26.41363
2023-06-18T14:00:00 31.27025 27.21736
2023-06-18T15:00:00 30.63025 28.12135
2023-06-18T16:00:00 30.22025 30.05507
2023-06-18T17:00:00 27.43024 38.47588
2023-06-18T18:00:00 26.50025 44.86332
2023-06-18T19:00:00 25.20025 50.90318
2023-06-18T20:00:00 23.00025 63.02282
2023-06-18T21:00:00 22.15025 65.23376
2023-06-18T22:00:00 22.67025 59.50185
2023-06-18T23:00:00 20.37025 68.2786
2023-06-19T00:00:00 20.43024 68.55731
2023-06-19T01:00:00 20.37025 69.66657
2023-06-19T02:00:00 19.65025 76.28121
2023-06-19T03:00:00 19.68024 80.56737
2023-06-19T04:00:00 19.39025 84.48735
2023-06-19T05:00:00 20.12025 82.02489
2023-06-19T06:00:00 21.11025 75.83007
2023-06-19T07:00:00 21.96025 70.73694
2023-06-19T08:00:00 23.76024 63.55526
2023-06-19T09:00:00 25.48025 54.79905
2023-06-19T10:00:00 27.03025 50.79006
2023-06-19T11:00:00 27.66025 46.27482
2023-06-19T12:00:00 28.12025 42.3799
2023-06-19T13:00:00 29.00025 39.42739
2023-06-19T14:00:00 29.53025 37.56424
2023-06-19T15:00:00 29.93024 37.30901
2023-06-19T16:00:00 30.49025 36.12349
2023-06-19T17:00:00 30.36025 34.65153
2023-06-19T18:00:00 28.88025 36.43499
2023-06-19T19:00:00 26.38025 45.77789
2023-06-19T20:00:00 24.78025 53.2273
2023-06-19T21:00:00 23.02025 62.10059
2023-06-19T22:00:00 21.94025 70.688
2023-06-19T23:00:00 20.71025 82.40956
2023-06-20T00:00:00 20.02025 90.41457
2023-06-20T01:00:00 19.68024 93.34308
2023-06-20T02:00:00 19.33025 95.46622
2023-06-20T03:00:00 19.44025 92.98
2023-06-20T04:00:00 19.09025 94.50128
2023-06-20T05:00:00 19.59025 93.39772
2023-06-20T06:00:00 20.98025 88.01965
2023-06-20T07:00:00 23.01024 75.41299
2023-06-20T08:00:00 25.21025 63.82861
2023-06-20T09:00:00 27.19025 56.38913
2023-06-20T10:00:00 28.61025 49.22117
2023-06-20T11:00:00 29.99025 43.97765
2023-06-20T12:00:00 31.30025 38.62378
2023-06-20T13:00:00 31.98025 35.74327
2023-06-20T14:00:00 32.32025 34.99104
2023-06-20T15:00:00 32.00025 36.05035
2023-06-20T16:00:00 29.95025 40.83624
2023-06-20T17:00:00 25.99025 64.11602
2023-06-20T18:00:00 25.10025 73.24386
2023-06-20T19:00:00 24.32025 77.81279
2023-06-20T20:00:00 23.08025 84.08476
2023-06-20T21:00:00 22.00025 88.70652
2023-06-20T22:00:00 21.48025 77.05519
2023-06-20T23:00:00 20.56025 81.40409
2023-06-21T00:00:00 20.23025 82.77182
2023-06-21T01:00:00 20.12025 83.87064
2023-06-21T02:00:00 20.18024 84.6254
2023-06-21T03:00:00 20.34025 84.42816
2023-06-21T04:00:00 20.27025 84.31375
2023-06-21T05:00:00 20.56025 83.33685
2023-06-21T06:00:00 20.81025 83.04956
2023-06-21T07:00:00 20.51024 85.08933
2023-06-21T08:00:00 20.18024 86.52135
2023-06-21T09:00:00 21.78025 77.63935
2023-06-21T10:00:00 24.13025 66.78431
2023-06-21T11:00:00 25.91025 58.56083
2023-06-21T12:00:00 27.45025 50.83396
2023-06-21T13:00:00 27.75025 50.58773
2023-06-21T14:00:00 27.66025 52.53553
2023-06-21T15:00:00 27.16025 54.97084
2023-06-21T16:00:00 27.22025 54.70723
2023-06-21T17:00:00 27.36025 54.05156
2023-06-21T18:00:00 26.58025 58.82964
2023-06-21T19:00:00 25.16025 63.01537
2023-06-21T20:00:00 23.33025 70.14058
2023-06-21T21:00:00 21.82025 75.65373
2023-06-21T22:00:00 21.40025 76.50628
2023-06-21T23:00:00 20.27025 82.67144
2023-06-22T00:00:00 19.90025 83.31442
2023-06-22T01:00:00 19.34025 85.8393
2023-06-22T02:00:00 19.12025 85.92709
2023-06-22T03:00:00 19.69025 84.68108
2023-06-22T04:00:00 18.45025 91.69916
2023-06-22T05:00:00 19.59025 88.68739
2023-06-22T06:00:00 21.33025 82.48312
2023-06-22T07:00:00 22.64025 76.84116
2023-06-22T08:00:00 24.01024 72.64833
2023-06-22T09:00:00 25.66025 68.44708
2023-06-22T10:00:00 26.46025 66.83239
2023-06-22T11:00:00 27.53025 60.81405
2023-06-22T12:00:00 28.52025 56.31933
2023-06-22T13:00:00 29.43024 53.11429
2023-06-22T14:00:00 27.73025 57.16325
2023-06-22T15:00:00 23.48025 81.45853
2023-06-22T16:00:00 24.86025 73.52332
2023-06-22T17:00:00 23.73025 73.05771
2023-06-22T18:00:00 21.46025 77.83859
2023-06-22T19:00:00 20.09025 80.87911
2023-06-22T20:00:00 18.76024 86.27692
2023-06-22T21:00:00 18.38025 88.25137
2023-06-22T22:00:00 18.45025 88.9932
2023-06-22T23:00:00 18.31025 88.92538
2023-06-23T00:00:00 18.01024 90.10494
2023-06-23T01:00:00 17.87025 89.6919
2023-06-23T02:00:00 17.99025 88.78613
2023-06-23T03:00:00 17.56025 89.5537
2023-06-23T04:00:00 17.51024 89.66506
2023-06-23T05:00:00 17.70025 88.13742
2023-06-23T06:00:00 18.28025 85.02026
2023-06-23T07:00:00 19.38025 77.32877
2023-06-23T08:00:00 20.53025 68.84466
2023-06-23T09:00:00 21.83025 60.08208
2023-06-23T10:00:00 23.08025 53.27623
2023-06-23T11:00:00 24.38025 46.19686
2023-06-23T12:00:00 25.26024 42.19516
2023-06-23T13:00:00 25.61025 40.10233
2023-06-23T14:00:00 25.81025 38.63368
2023-06-23T15:00:00 25.96025 37.5787
2023-06-23T16:00:00 25.88025 36.80651
2023-06-23T17:00:00 25.43024 37.45304
2023-06-23T18:00:00 24.54025 40.14819
2023-06-23T19:00:00 22.03025 52.2017
2023-06-23T20:00:00 18.95025 65.35477
2023-06-23T21:00:00 18.97025 64.84293
2023-06-23T22:00:00 18.12025 66.1769
2023-06-23T23:00:00 17.22025 69.78085
2023-06-24T00:00:00 16.87025 72.30609
2023-06-24T01:00:00 15.40025 79.71429
2023-06-24T02:00:00 14.06025 87.17623
2023-06-24T03:00:00 13.23025 91.91337
2023-06-24T04:00:00 13.08025 92.88378
2023-06-24T05:00:00 15.74025 85.1906
2023-06-24T06:00:00 18.45025 72.78606
2023-06-24T07:00:00 20.81025 61.96026
2023-06-24T08:00:00 23.01024 52.83978
2023-06-24T09:00:00 24.75025 46.1156
2023-06-24T10:00:00 25.87025 42.33807
2023-06-24T11:00:00 26.87025 38.83035
2023-06-24T12:00:00 27.72025 36.30125
2023-06-24T13:00:00 28.35025 34.50005
2023-06-24T14:00:00 28.76024 33.4159
2023-06-24T15:00:00 28.92025 32.49287
2023-06-24T16:00:00 28.86025 31.91577
2023-06-24T17:00:00 28.47025 31.76382
2023-06-24T18:00:00 27.39025 35.44263
2023-06-24T19:00:00 24.66025 45.30533
2023-06-24T20:00:00 22.09025 52.07919
2023-06-24T21:00:00 19.96025 61.68254
2023-06-24T22:00:00 18.08025 69.35295
2023-06-24T23:00:00 17.18024 72.84341
2023-06-25T00:00:00 16.33025 76.39562
2023-06-25T01:00:00 15.30025 80.70982
2023-06-25T02:00:00 14.38025 84.47927
2023-06-25T03:00:00 13.58025 89.5933
2023-06-25T04:00:00 13.52025 90.96412
2023-06-25T05:00:00 16.08025 81.02986
2023-06-25T06:00:00 19.02025 68.00489
2023-06-25T07:00:00 21.64025 55.99978
2023-06-25T08:00:00 23.88025 46.30436
2023-06-25T09:00:00 25.61025 40.72178
2023-06-25T10:00:00 27.02025 36.07918
2023-06-25T11:00:00 28.26024 32.76645
2023-06-25T12:00:00 29.37025 30.32539
2023-06-25T13:00:00 30.19025 28.00109
2023-06-25T14:00:00 30.78025 26.22026
2023-06-25T15:00:00 31.15025 25.17015
2023-06-25T16:00:00 31.29025 24.6324
2023-06-25T17:00:00 30.97025 25.36218
2023-06-25T18:00:00 29.54025 31.13477
2023-06-25T19:00:00 26.74025 38.87104
2023-06-25T20:00:00 25.38025 39.71727
2023-06-25T21:00:00 22.96025 48.60469
2023-06-25T22:00:00 21.04025 52.81418
2023-06-25T23:00:00 18.92025 63.81002
2023-06-26T00:00:00 18.29025 68.98417
2023-06-26T01:00:00 17.59025 73.78678
2023-06-26T02:00:00 17.31025 77.0579
2023-06-26T03:00:00 17.06025 79.22136
2023-06-26T04:00:00 17.22025 78.72782
2023-06-26T05:00:00 18.86025 73.3364
2023-06-26T06:00:00 21.90025 61.24551
2023-06-26T07:00:00 24.42025 52.17524
2023-06-26T08:00:00 26.14025 49.68276
2023-06-26T09:00:00 27.39025 47.53426
2023-06-26T10:00:00 28.34025 46.42812
2023-06-26T11:00:00 29.06025 42.72146
2023-06-26T12:00:00 29.58025 41.07806
2023-06-26T13:00:00 30.22025 38.57428
2023-06-26T14:00:00 30.34025 36.53203
2023-06-26T15:00:00 30.06025 35.48829
2023-06-26T16:00:00 29.01024 35.66275
2023-06-26T17:00:00 27.89025 35.67876
2023-06-26T18:00:00 26.28025 35.22268
2023-06-26T19:00:00 24.66025 37.81739
2023-06-26T20:00:00 22.76024 44.08878
2023-06-26T21:00:00 21.29025 48.34238
2023-06-26T22:00:00 19.84025 55.61692
2023-06-26T23:00:00 18.19025 61.55504
2023-06-27T00:00:00 17.32025 62.60044
2023-06-27T01:00:00 16.44025 66.47923
2023-06-27T02:00:00 15.84025 69.87891
2023-06-27T03:00:00 16.19025 68.14404
2023-06-27T04:00:00 16.02025 70.00863
2023-06-27T05:00:00 16.74025 70.29158
2023-06-27T06:00:00 18.16025 62.41853
2023-06-27T07:00:00 19.38025 56.96932
2023-06-27T08:00:00 20.84025 50.41105
2023-06-27T09:00:00 22.00025 45.56671
2023-06-27T10:00:00 23.16025 39.97076
2023-06-27T11:00:00 23.71025 38.08581
2023-06-27T12:00:00 24.52025 36.17091
2023-06-27T13:00:00 25.15025 34.42811
2023-06-27T14:00:00 25.61025 31.84204
2023-06-27T15:00:00 25.59025 31.94571
2023-06-27T16:00:00 25.74025 31.55285
2023-06-27T17:00:00 25.28025 31.42217
2023-06-27T18:00:00 24.32025 30.97616
2023-06-27T19:00:00 21.93024 38.72871
2023-06-27T20:00:00 19.36025 46.86726
2023-06-27T21:00:00 17.80025 53.20712
2023-06-27T22:00:00 16.95025 56.23418
2023-06-27T23:00:00 15.63025 62.58604
2023-06-28T00:00:00 15.13025 65.29988
2023-06-28T01:00:00 14.73025 68.9976
2023-06-28T02:00:00 14.68025 68.89375
2023-06-28T03:00:00 15.53025 65.65579
2023-06-28T04:00:00 15.36025 67.3297
2023-06-28T05:00:00 15.70025 71.22351
2023-06-28T06:00:00 17.06025 64.33177
2023-06-28T07:00:00 18.23025 60.05698
2023-06-28T08:00:00 20.04025 52.62042
2023-06-28T09:00:00 21.68024 46.84778
2023-06-28T10:00:00 23.18024 42.65909
2023-06-28T11:00:00 24.64025 37.20209
2023-06-28T12:00:00 25.69025 34.58237
2023-06-28T13:00:00 26.14025 33.71412
2023-06-28T14:00:00 26.86025 33.08118
2023-06-28T15:00:00 27.56025 32.65734
2023-06-28T16:00:00 27.24025 33.84358
2023-06-28T17:00:00 26.98025 34.52893
2023-06-28T18:00:00 25.87025 35.58382
2023-06-28T19:00:00 23.99025 39.93755
2023-06-28T20:00:00 21.98025 47.50188
2023-06-28T21:00:00 19.87025 55.69907
2023-06-28T22:00:00 18.07025 65.59715
2023-06-28T23:00:00 16.84025 72.5406
2023-06-29T00:00:00 16.28025 76.33697
2023-06-29T01:00:00 16.11025 77.42862
2023-06-29T02:00:00 16.05025 78.50163
2023-06-29T03:00:00 15.35025 83.59276
2023-06-29T04:00:00 14.86025 88.00277
2023-06-29T05:00:00 16.77025 78.76456
2023-06-29T06:00:00 18.82025 68.41248
2023-06-29T07:00:00 21.02025 59.1074
2023-06-29T08:00:00 23.30025 50.96876
2023-06-29T09:00:00 25.27025 44.348
2023-06-29T10:00:00 26.39025 41.4041
2023-06-29T11:00:00 27.49025 37.48614
2023-06-29T12:00:00 27.91025 36.81606
2023-06-29T13:00:00 27.86025 38.82646
2023-06-29T14:00:00 27.91025 37.7789
2023-06-29T15:00:00 28.12025 36.14934
2023-06-29T16:00:00 28.13025 36.3927
2023-06-29T17:00:00 28.07025 35.72952
2023-06-29T18:00:00 26.96025 39.66179
2023-06-29T19:00:00 25.35025 50.44857
2023-06-29T20:00:00 23.48025 58.88862
2023-06-29T21:00:00 22.04025 67.34481
2023-06-29T22:00:00 22.08025 64.88295
2023-06-29T23:00:00 20.70025 70.72868
2023-06-30T00:00:00 19.95025 76.08353
2023-06-30T01:00:00 19.52025 78.5543
2023-06-30T02:00:00 19.25025 81.81236
2023-06-30T03:00:00 19.41025 83.738
2023-06-30T04:00:00 19.55025 83.43376
2023-06-30T05:00:00 19.08025 86.03287
2023-06-30T06:00:00 18.97025 84.8753
2023-06-30T07:00:00 19.00025 84.93275
2023-06-30T08:00:00 19.45025 80.95101
2023-06-30T09:00:00 20.20025 76.85963
2023-06-30T10:00:00 20.01024 79.84205
2023-06-30T11:00:00 20.89025 74.78369
2023-06-30T12:00:00 20.43024 75.3821
2023-06-30T13:00:00 20.15025 75.91995
2023-06-30T14:00:00 20.67025 73.50999
2023-06-30T15:00:00 20.81025 72.26932
2023-06-30T16:00:00 20.50025 73.52788
2023-06-30T17:00:00 19.87025 76.80859
2023-06-30T18:00:00 19.17025 78.65533
2023-06-30T19:00:00 18.57025 82.09615
2023-06-30T20:00:00 18.00025 84.39002
2023-06-30T21:00:00 17.98025 83.14397
2023-06-30T22:00:00 17.41025 85.81118
2023-06-30T23:00:00 17.02025 86.38523
2023-07-01T00:00:00 16.90025 84.98273
2023-07-01T01:00:00 16.73025 83.75546
2023-07-01T02:00:00 16.46025 82.6903
2023-07-01T03:00:00 16.16025 81.78963
2023-07-01T04:00:00 15.83025 81.04947
2023-07-01T05:00:00 16.36025 77.51898
2023-07-01T06:00:00 17.85025 65.63652
2023-07-01T07:00:00 19.17025 55.66901
2023-07-01T08:00:00 20.45025 50.20369
2023-07-01T09:00:00 21.30025 47.69818
2023-07-01T10:00:00 22.17025 45.95332
2023-07-01T11:00:00 22.63025 46.76553
2023-07-01T12:00:00 23.12025 47.71985
2023-07-01T13:00:00 22.15025 52.96461
2023-07-01T14:00:00 21.60025 58.4365
2023-07-01T15:00:00 21.01024 62.69945
2023-07-01T16:00:00 20.77025 64.72603
2023-07-01T17:00:00 20.10025 70.98277
2023-07-01T18:00:00 19.81025 75.28081
2023-07-01T19:00:00 19.31025 81.19278
2023-07-01T20:00:00 18.87025 84.59348
2023-07-01T21:00:00 18.79025 85.45596
2023-07-01T22:00:00 18.23025 89.08982
2023-07-01T23:00:00 18.43024 88.93485
2023-07-02T00:00:00 18.29025 89.43676
2023-07-02T01:00:00 18.05025 89.24706
2023-07-02T02:00:00 17.93024 86.69661
2023-07-02T03:00:00 17.70025 83.59638
2023-07-02T04:00:00 17.48025 81.58709
2023-07-02T05:00:00 17.52025 80.695
2023-07-02T06:00:00 17.95025 77.46069
2023-07-02T07:00:00 18.77025 70.54607
2023-07-02T08:00:00 19.68024 65.21229
2023-07-02T09:00:00 20.65025 59.48721
2023-07-02T10:00:00 21.21025 59.30888
2023-07-02T11:00:00 22.02025 56.20602
2023-07-02T12:00:00 23.26024 52.45512
2023-07-02T13:00:00 24.01024 49.17962
2023-07-02T14:00:00 24.25025 48.56862
2023-07-02T15:00:00 24.47025 46.09952
2023-07-02T16:00:00 24.67025 43.51119
2023-07-02T17:00:00 24.39025 41.03248
2023-07-02T18:00:00 23.71025 39.24135
2023-07-02T19:00:00 21.83025 43.52951
2023-07-02T20:00:00 19.56025 53.27754
2023-07-02T21:00:00 17.60025 62.37183
2023-07-02T22:00:00 16.97025 61.72245
2023-07-02T23:00:00 16.87025 63.38663
2023-07-03T00:00:00 16.98025 63.75412
2023-07-03T01:00:00 16.78025 65.22633
2023-07-03T02:00:00 16.64025 65.81168
2023-07-03T03:00:00 16.83025 66.16311
2023-07-03T04:00:00 17.07025 65.86152
2023-07-03T05:00:00 17.81025 63.2622
2023-07-03T06:00:00 18.67025 60.28396
2023-07-03T07:00:00 19.84025 54.80354
2023-07-03T08:00:00 21.08025 50.10473
2023-07-03T09:00:00 22.01024 45.90864
2023-07-03T10:00:00 22.65025 44.50514
2023-07-03T11:00:00 22.90025 44.42587
2023-07-03T12:00:00 23.20025 43.85783
2023-07-03T13:00:00 23.73025 43.16053
2023-07-03T14:00:00 24.16025 41.60508
2023-07-03T15:00:00 24.36025 41.1895
2023-07-03T16:00:00 24.27025 40.99844
2023-07-03T17:00:00 24.02025 42.35387
2023-07-03T18:00:00 22.98025 44.62774
2023-07-03T19:00:00 21.79025 49.46344
2023-07-03T20:00:00 19.84025 60.12351
2023-07-03T21:00:00 18.93024 66.04445
2023-07-03T22:00:00 18.93024 68.34491
2023-07-03T23:00:00 18.54025 72.89755
2023-07-04T00:00:00 18.63025 74.84139
2023-07-04T01:00:00 18.14025 79.58264
2023-07-04T02:00:00 17.77025 82.52905
2023-07-04T03:00:00 17.73025 83.81646
2023-07-04T04:00:00 16.92025 88.1273
2023-07-04T05:00:00 17.67025 85.83754
2023-07-04T06:00:00 18.76024 81.17369
2023-07-04T07:00:00 20.14025 73.08705
2023-07-04T08:00:00 21.37025 64.68785
2023-07-04T09:00:00 22.51024 58.31337
2023-07-04T10:00:00 23.14025 54.67095
2023-07-04T11:00:00 24.26024 50.55614
2023-07-04T12:00:00 24.94025 46.01587
2023-07-04T13:00:00 25.30025 43.37005
2023-07-04T14:00:00 25.59025 41.39899
2023-07-04T15:00:00 25.87025 41.12149
2023-07-04T16:00:00 25.72025 40.07996
2023-07-04T17:00:00 26.03025 38.51551
2023-07-04T18:00:00 25.46025 39.73995
2023-07-04T19:00:00 23.70025 45.34021
2023-07-04T20:00:00 21.15025 59.25549
2023-07-04T21:00:00 20.03025 66.93155
2023-07-04T22:00:00 19.23025 71.42191
2023-07-04T23:00:00 18.64025 75.43
2023-07-05T00:00:00 18.36025 78.69005
2023-07-05T01:00:00 17.88025 84.923
2023-07-05T02:00:00 18.65025 81.2641
2023-07-05T03:00:00 18.54025 80.98807
2023-07-05T04:00:00 18.59025 80.47351
2023-07-05T05:00:00 18.83025 79.67931
2023-07-05T06:00:00 18.42025 81.07696
2023-07-05T07:00:00 18.48025 80.45867
2023-07-05T08:00:00 18.50025 75.89948
2023-07-05T09:00:00 19.24025 67.64916
2023-07-05T10:00:00 19.81025 60.1562
2023-07-05T11:00:00 20.86025 54.22991
2023-07-05T12:00:00 21.76024 48.66686
2023-07-05T13:00:00 22.46025 44.90319
2023-07-05T14:00:00 23.35025 39.99806
2023-07-05T15:00:00 23.34025 39.48261
2023-07-05T16:00:00 23.41025 39.42228
2023-07-05T17:00:00 23.18024 40.5228
2023-07-05T18:00:00 22.58025 41.12722
2023-07-05T19:00:00 20.23025 52.17769
2023-07-05T20:00:00 20.30025 45.92662
2023-07-05T21:00:00 18.86025 54.18126
2023-07-05T22:00:00 17.92025 54.19121
2023-07-05T23:00:00 17.52025 56.11345
2023-07-06T00:00:00 16.56025 60.34259
2023-07-06T01:00:00 15.97025 64.43271
2023-07-06T02:00:00 14.88025 70.87266
2023-07-06T03:00:00 14.56025 73.88573
2023-07-06T04:00:00 13.98025 78.76383
2023-07-06T05:00:00 15.25025 75.61012
2023-07-06T06:00:00 16.78025 66.15224
2023-07-06T07:00:00 18.81025 56.74891
2023-07-06T08:00:00 21.09025 48.09232
2023-07-06T09:00:00 22.52025 41.81435
2023-07-06T10:00:00 23.67025 36.32245
2023-07-06T11:00:00 24.52025 33.20588
2023-07-06T12:00:00 25.23025 31.60319
2023-07-06T13:00:00 26.03025 29.43269
2023-07-06T14:00:00 26.80025 26.75181
2023-07-06T15:00:00 27.09025 25.80853
2023-07-06T16:00:00 27.54025 22.96455
2023-07-06T17:00:00 27.54025 21.78101
2023-07-06T18:00:00 26.08025 27.78311
2023-07-06T19:00:00 23.30025 39.36397
2023-07-06T20:00:00 19.99025 56.02831
2023-07-06T21:00:00 18.43024 61.20123
2023-07-06T22:00:00 16.89025 65.46999
2023-07-06T23:00:00 16.04025 69.7317
2023-07-07T00:00:00 15.17025 74.04481
2023-07-07T01:00:00 13.98025 79.50694
2023-07-07T02:00:00 13.16025 83.38149
2023-07-07T03:00:00 13.10025 84.44326
2023-07-07T04:00:00 13.18025 83.049
2023-07-07T05:00:00 15.28025 78.64573
2023-07-07T06:00:00 18.26024 61.16091
2023-07-07T07:00:00 21.06025 51.28884
2023-07-07T08:00:00 23.51024 45.74278
2023-07-07T09:00:00 25.60025 42.99645
2023-07-07T10:00:00 27.73025 37.0347
2023-07-07T11:00:00 29.48025 33.32904
2023-07-07T12:00:00 30.71025 29.49389
2023-07-07T13:00:00 31.69025 25.91886
2023-07-07T14:00:00 32.38025 23.54528
2023-07-07T15:00:00 32.56025 21.81633
2023-07-07T16:00:00 32.50025 21.90564
2023-07-07T17:00:00 32.06025 20.69695
2023-07-07T18:00:00 31.17025 21.46177
2023-07-07T19:00:00 28.08025 34.83986
2023-07-07T20:00:00 24.87025 42.50827
2023-07-07T21:00:00 22.95025 49.84294
2023-07-07T22:00:00 21.47025 56.0309
2023-07-07T23:00:00 21.31025 56.0276
2023-07-08T00:00:00 20.65025 59.52646
2023-07-08T01:00:00 20.57025 60.69574
2023-07-08T02:00:00 20.08025 66.54955
2023-07-08T03:00:00 20.29025 67.73157
2023-07-08T04:00:00 20.29025 67.42352
2023-07-08T05:00:00 19.66025 74.09774
2023-07-08T06:00:00 19.70025 73.67433
2023-07-08T07:00:00 19.85025 71.16652
2023-07-08T08:00:00 21.29025 62.31386
2023-07-08T09:00:00 23.83025 51.74965
2023-07-08T10:00:00 23.65025 68.48887
2023-07-08T11:00:00 25.13025 61.00208
2023-07-08T12:00:00 27.25025 52.09773
2023-07-08T13:00:00 29.27025 44.12092
2023-07-08T14:00:00 30.56025 38.46891
2023-07-08T15:00:00 31.18024 35.42932
2023-07-08T16:00:00 31.45025 34.21093
2023-07-08T17:00:00 30.93024 35.59117
2023-07-08T18:00:00 29.65025 38.74242
2023-07-08T19:00:00 27.46025 47.61434
2023-07-08T20:00:00 25.06025 56.99251
2023-07-08T21:00:00 23.67025 62.12708
2023-07-08T22:00:00 22.29025 60.70132
2023-07-08T23:00:00 20.94025 67.68791
2023-07-09T00:00:00 20.27025 70.96865
2023-07-09T01:00:00 19.31025 77.368
2023-07-09T02:00:00 18.64025 80.58421
2023-07-09T03:00:00 18.17025 82.6847
2023-07-09T04:00:00 18.01024 82.77225
2023-07-09T05:00:00 19.59025 78.66549
2023-07-09T06:00:00 22.38025 66.08538
2023-07-09T07:00:00 25.03025 55.00465
2023-07-09T08:00:00 27.59025 47.92592
2023-07-09T09:00:00 29.71025 43.62125
2023-07-09T10:00:00 31.67025 38.92498
2023-07-09T11:00:00 33.39025 33.75431
2023-07-09T12:00:00 34.37025 30.06164
2023-07-09T13:00:00 35.25025 27.32822
2023-07-09T14:00:00 35.51025 25.40962
2023-07-09T15:00:00 35.08025 27.17606
2023-07-09T16:00:00 34.49025 27.82899
2023-07-09T17:00:00 34.42025 27.37567
2023-07-09T18:00:00 33.71025 33.38772
2023-07-09T19:00:00 30.24025 38.33038
2023-07-09T20:00:00 27.19025 49.60725
2023-07-09T21:00:00 27.24025 47.31038
2023-07-09T22:00:00 23.76024 62.66703
2023-07-09T23:00:00 23.24025 67.58663
2023-07-10T00:00:00 22.58025 71.71278
2023-07-10T01:00:00 22.19025 74.8541
2023-07-10T02:00:00 21.54025 80.35217
2023-07-10T03:00:00 21.35025 83.32095
2023-07-10T04:00:00 21.35025 85.28136
2023-07-10T05:00:00 21.40025 85.28639
2023-07-10T06:00:00 22.22025 83.15768
2023-07-10T07:00:00 23.12025 81.6177
2023-07-10T08:00:00 24.54025 75.93559
2023-07-10T09:00:00 26.21025 67.74676
2023-07-10T10:00:00 28.34025 58.211
2023-07-10T11:00:00 29.73025 49.85766
2023-07-10T12:00:00 31.22025 42.43778
2023-07-10T13:00:00 31.86025 39.15226
2023-07-10T14:00:00 32.14025 37.94545
2023-07-10T15:00:00 32.15025 38.19218
2023-07-10T16:00:00 31.88025 38.41246
2023-07-10T17:00:00 31.45025 40.02772
2023-07-10T18:00:00 30.37025 42.85957
2023-07-10T19:00:00 29.11025 45.89508
2023-07-10T20:00:00 26.34025 58.55058
2023-07-10T21:00:00 23.38025 71.8558
2023-07-10T22:00:00 22.60025 74.49577
2023-07-10T23:00:00 22.13025 75.51134
2023-07-11T00:00:00 21.69025 76.74551
2023-07-11T01:00:00 21.27025 77.51463
2023-07-11T02:00:00 20.88025 79.10091
2023-07-11T03:00:00 20.51024 81.24277
2023-07-11T04:00:00 19.68024 86.25533
2023-07-11T05:00:00 20.90025 81.39522
2023-07-11T06:00:00 23.57025 71.16763
2023-07-11T07:00:00 25.97025 63.95088
2023-07-11T08:00:00 27.96025 57.83147
2023-07-11T09:00:00 29.84025 53.48297
2023-07-11T10:00:00 31.49025 47.11637
2023-07-11T11:00:00 33.14025 41.78542
2023-07-11T12:00:00 34.34025 38.93755
2023-07-11T13:00:00 35.42025 36.0898
2023-07-11T14:00:00 36.12025 32.38126
2023-07-11T15:00:00 36.15025 31.79692
2023-07-11T16:00:00 36.03025 31.02245
2023-07-11T17:00:00 35.64025 29.91962
2023-07-11T18:00:00 32.89025 33.39987
2023-07-11T19:00:00 28.77025 45.56906
2023-07-11T20:00:00 23.90025 61.74212
2023-07-11T21:00:00 22.18024 76.72306
2023-07-11T22:00:00 20.93024 88.9027
2023-07-11T23:00:00 21.04025 88.52222
2023-07-12T00:00:00 20.98025 88.13007
2023-07-12T01:00:00 20.95025 89.18299
2023-07-12T02:00:00 20.84025 90.41163
2023-07-12T03:00:00 20.93024 90.98425
2023-07-12T04:00:00 20.94025 90.58783
2023-07-12T05:00:00 20.93024 90.24809
2023-07-12T06:00:00 21.40025 89.1603
2023-07-12T07:00:00 22.79025 81.62856
2023-07-12T08:00:00 24.02025 73.52065
2023-07-12T09:00:00 24.77025 67.80436
2023-07-12T10:00:00 25.94025 63.90434
2023-07-12T11:00:00 25.74025 65.81684
2023-07-12T12:00:00 26.04025 64.20718
2023-07-12T13:00:00 26.75025 62.10262
2023-07-12T14:00:00 26.92025 60.8676
2023-07-12T15:00:00 25.73025 63.61868
2023-07-12T16:00:00 25.88025 59.30228
2023-07-12T17:00:00 25.55025 55.13426
2023-07-12T18:00:00 25.11025 52.592
2023-07-12T19:00:00 24.15025 53.90112
2023-07-12T20:00:00 22.45025 60.73853
2023-07-12T21:00:00 21.09025 66.07105
2023-07-12T22:00:00 20.14025 78.04199
2023-07-12T23:00:00 19.59025 79.58001
2023-07-13T00:00:00 19.50025 76.30663
2023-07-13T01:00:00 18.90025 74.83812
2023-07-13T02:00:00 18.51024 75.1633
2023-07-13T03:00:00 17.96025 77.3613
2023-07-13T04:00:00 17.28025 79.82474
2023-07-13T05:00:00 18.26024 75.86039
2023-07-13T06:00:00 19.37025 70.33877
2023-07-13T07:00:00 20.47025 64.44959
2023-07-13T08:00:00 21.95025 57.38215
2023-07-13T09:00:00 23.11025 49.95197
2023-07-13T10:00:00 23.63025 50.98905
2023-07-13T11:00:00 24.87025 44.4131
2023-07-13T12:00:00 25.64025 40.00393
2023-07-13T13:00:00 26.28025 35.94162
2023-07-13T14:00:00 26.70025 32.37034
2023-07-13T15:00:00 26.69025 29.69946
2023-07-13T16:00:00 26.62025 28.83464
2023-07-13T17:00:00 26.32025 27.92726
2023-07-13T18:00:00 25.47025 30.49458
2023-07-13T19:00:00 22.96025 40.0494
2023-07-13T20:00:00 21.26024 45.5438
2023-07-13T21:00:00 19.80025 51.99267
2023-07-13T22:00:00 17.55025 62.23466
2023-07-13T23:00:00 16.63025 65.67696
2023-07-14T00:00:00 15.85025 69.45998
2023-07-14T01:00:00 15.05025 73.97376
2023-07-14T02:00:00 14.39025 77.20634
2023-07-14T03:00:00 14.03025 80.20967
2023-07-14T04:00:00 13.55025 83.15119
2023-07-14T05:00:00 14.57025 81.74292
2023-07-14T06:00:00 17.21025 68.35519
2023-07-14T07:00:00 19.57025 58.63772
2023-07-14T08:00:00 21.54025 53.90303
2023-07-14T09:00:00 23.44025 49.25347
2023-07-14T10:00:00 25.13025 43.98783
2023-07-14T11:00:00 26.46025 40.42231
2023-07-14T12:00:00 27.76024 36.72498
2023-07-14T13:00:00 28.80025 34.19232
2023-07-14T14:00:00 29.60025 33.18605
2023-07-14T15:00:00 30.37025 31.84792
2023-07-14T16:00:00 30.83025 30.16318
2023-07-14T17:00:00 30.90025 28.28976
2023-07-14T18:00:00 29.91025 28.90183
2023-07-14T19:00:00 26.42025 41.90752
2023-07-14T20:00:00 23.91025 50.39706
2023-07-14T21:00:00 22.22025 57.37337
2023-07-14T22:00:00 21.29025 63.79331
2023-07-14T23:00:00 20.62025 66.70595
2023-07-15T00:00:00 19.65025 71.22167
2023-07-15T01:00:00 18.64025 75.62654
2023-07-15T02:00:00 18.22025 78.36358
2023-07-15T03:00:00 17.84025 79.74744
2023-07-15T04:00:00 17.95025 79.29769
2023-07-15T05:00:00 19.32025 75.7374
2023-07-15T06:00:00 22.45025 63.7182
2023-07-15T07:00:00 25.55025 52.43353
2023-07-15T08:00:00 27.54025 46.30224
2023-07-15T09:00:00 28.84025 42.99334
2023-07-15T10:00:00 30.60025 37.81294
2023-07-15T11:00:00 31.53025 35.92032
2023-07-15T12:00:00 32.12025 36.15339
2023-07-15T13:00:00 32.15025 37.12895
2023-07-15T14:00:00 32.99025 35.289
2023-07-15T15:00:00 31.80025 38.0958
2023-07-15T16:00:00 32.92025 31.57145
2023-07-15T17:00:00 31.15025 38.03889
2023-07-15T18:00:00 28.16025 51.63701
2023-07-15T19:00:00 25.35025 65.57156
2023-07-15T20:00:00 23.41025 75.14542
2023-07-15T21:00:00 22.22025 82.43236
2023-07-15T22:00:00 20.67025 92.69044
2023-07-15T23:00:00 19.71025 84.89891
2023-07-16T00:00:00 18.40025 81.96915
2023-07-16T01:00:00 17.47025 82.0112
2023-07-16T02:00:00 17.24025 82.46362
2023-07-16T03:00:00 17.12025 82.07365
2023-07-16T04:00:00 16.97025 83.67436
2023-07-16T05:00:00 17.20025 83.86436
2023-07-16T06:00:00 17.76024 81.35881
2023-07-16T07:00:00 18.46025 76.18994
2023-07-16T08:00:00 19.40025 70.43637
2023-07-16T09:00:00 20.12025 64.45718
2023-07-16T10:00:00 21.28025 61.90601
2023-07-16T11:00:00 22.31025 55.98393
2023-07-16T12:00:00 23.15025 53.8917
2023-07-16T13:00:00 24.03025 51.73428
2023-07-16T14:00:00 24.47025 50.38049
2023-07-16T15:00:00 24.77025 49.41561
2023-07-16T16:00:00 25.05025 48.30735
2023-07-16T17:00:00 24.72025 49.20855
2023-07-16T18:00:00 24.05025 56.63599
2023-07-16T19:00:00 23.34025 49.29168
2023-07-16T20:00:00 21.01024 61.3196
2023-07-16T21:00:00 19.91025 66.12312
2023-07-16T22:00:00 20.14025 59.20726
2023-07-16T23:00:00 19.24025 67.60478
2023-07-17T00:00:00 19.68024 64.95564
2023-07-17T01:00:00 19.54025 66.87305
2023-07-17T02:00:00 19.18024 70.5323
2023-07-17T03:00:00 19.17025 71.27107
2023-07-17T04:00:00 18.89025 72.67526
2023-07-17T05:00:00 19.34025 70.47084
2023-07-17T06:00:00 20.41025 64.18385
2023-07-17T07:00:00 21.88025 56.06012
2023-07-17T08:00:00 22.82025 50.17249
2023-07-17T09:00:00 24.08025 45.35516
2023-07-17T10:00:00 24.73025 44.1686
2023-07-17T11:00:00 25.77025 42.95863
2023-07-17T12:00:00 25.90025 42.29049
2023-07-17T13:00:00 26.37025 41.56294
2023-07-17T14:00:00 26.93024 40.02218
2023-07-17T15:00:00 26.74025 39.94231
2023-07-17T16:00:00 26.86025 39.08598
2023-07-17T17:00:00 26.50025 39.68999
2023-07-17T18:00:00 25.48025 41.92162
2023-07-17T19:00:00 23.73025 48.55612
2023-07-17T20:00:00 21.14025 60.03678
2023-07-17T21:00:00 20.29025 62.04428
2023-07-17T22:00:00 20.77025 57.01421
2023-07-17T23:00:00 19.69025 62.19278
2023-07-18T00:00:00 17.97025 70.20629
2023-07-18T01:00:00 16.70025 76.10357
2023-07-18T02:00:00 16.08025 78.45432
2023-07-18T03:00:00 16.05025 79.80754
2023-07-18T04:00:00 15.95025 81.11907
2023-07-18T05:00:00 16.84025 77.79798
2023-07-18T06:00:00 19.13025 65.56661
2023-07-18T07:00:00 21.33025 55.55292
2023-07-18T08:00:00 23.23025 50.11641
2023-07-18T09:00:00 24.53025 48.64413
2023-07-18T10:00:00 25.09025 47.19118
2023-07-18T11:00:00 24.41025 51.90124
2023-07-18T12:00:00 23.41025 61.19637
2023-07-18T13:00:00 23.65025 62.1226
2023-07-18T14:00:00 25.76024 55.18642
2023-07-18T15:00:00 26.95025 51.19445
2023-07-18T16:00:00 27.54025 50.17883
2023-07-18T17:00:00 27.46025 54.0422
2023-07-18T18:00:00 26.85025 56.05733
2023-07-18T19:00:00 25.61025 60.87888
2023-07-18T20:00:00 24.17025 67.17407
2023-07-18T21:00:00 22.93024 71.09625
2023-07-18T22:00:00 21.55025 84.34384
2023-07-18T23:00:00 20.96025 86.97483
2023-07-19T00:00:00 20.60025 87.65708
2023-07-19T01:00:00 20.40025 87.58489
2023-07-19T02:00:00 19.88025 90.12082
2023-07-19T03:00:00 20.14025 89.40393
2023-07-19T04:00:00 20.07025 88.66908
2023-07-19T05:00:00 20.83025 86.4181
2023-07-19T06:00:00 22.74025 77.8775
2023-07-19T07:00:00 24.55025 68.44751
2023-07-19T08:00:00 25.61025 61.81115
2023-07-19T09:00:00 26.92025 54.42466
2023-07-19T10:00:00 27.89025 45.36016
2023-07-19T11:00:00 28.50025 41.44859
2023-07-19T12:00:00 29.26024 36.68585
2023-07-19T13:00:00 29.59025 36.41822
2023-07-19T14:00:00 29.39025 36.41009
2023-07-19T15:00:00 29.17025 35.35588
2023-07-19T16:00:00 29.06025 33.50005
2023-07-19T17:00:00 28.27025 34.24838
2023-07-19T18:00:00 26.93024 36.44163
2023-07-19T19:00:00 25.23025 40.58731
2023-07-19T20:00:00 23.02025 47.91516
2023-07-19T21:00:00 22.05025 51.45015
2023-07-19T22:00:00 21.48025 51.60725
2023-07-19T23:00:00 20.79025 53.9594
2023-07-20T00:00:00 20.26024 55.57577
2023-07-20T01:00:00 19.19025 59.72831
2023-07-20T02:00:00 18.08025 66.3002
2023-07-20T03:00:00 17.48025 70.4362
2023-07-20T04:00:00 16.99025 73.82693
2023-07-20T05:00:00 17.75025 72.2776
2023-07-20T06:00:00 19.26024 65.8544
2023-07-20T07:00:00 20.77025 57.16546
2023-07-20T08:00:00 22.15025 49.42902
2023-07-20T09:00:00 23.44025 44.54742
2023-07-20T10:00:00 24.53025 41.68185
2023-07-20T11:00:00 24.67025 41.27728
2023-07-20T12:00:00 25.56025 39.08284
2023-07-20T13:00:00 26.37025 37.14435
2023-07-20T14:00:00 27.04025 35.15443
2023-07-20T15:00:00 27.08025 34.60374
2023-07-20T16:00:00 26.97025 34.43331
2023-07-20T17:00:00 26.49025 34.27394
2023-07-20T18:00:00 25.61025 35.89611
2023-07-20T19:00:00 24.16025 34.73535
2023-07-20T20:00:00 22.23025 42.93915
2023-07-20T21:00:00 20.98025 46.52635
2023-07-20T22:00:00 19.31025 56.04258
2023-07-20T23:00:00 18.39025 60.70244
2023-07-21T00:00:00 18.37025 61.80355
2023-07-21T01:00:00 17.60025 65.71333
2023-07-21T02:00:00 16.93024 69.35281
2023-07-21T03:00:00 16.27025 74.38749
2023-07-21T04:00:00 15.44025 79.82574
2023-07-21T05:00:00 16.64025 78.02354
2023-07-21T06:00:00 18.18024 71.93026
2023-07-21T07:00:00 20.19025 64.30373
2023-07-21T08:00:00 21.72025 57.74122
2023-07-21T09:00:00 22.55025 54.88007
2023-07-21T10:00:00 23.06025 51.10707
2023-07-21T11:00:00 23.70025 47.31069
2023-07-21T12:00:00 24.24025 43.91471
2023-07-21T13:00:00 23.10025 49.55411
2023-07-21T14:00:00 21.71025 58.42489
2023-07-21T15:00:00 21.65025 58.18077
2023-07-21T16:00:00 22.01024 55.39575
2023-07-21T17:00:00 21.80025 57.1571
2023-07-21T18:00:00 21.19025 59.96989
2023-07-21T19:00:00 20.41025 61.22014
2023-07-21T20:00:00 20.09025 60.984
2023-07-21T21:00:00 19.18024 64.16458
2023-07-21T22:00:00 18.86025 65.8118
2023-07-21T23:00:00 17.94025 70.85166
2023-07-22T00:00:00 17.20025 74.59798
2023-07-22T01:00:00 16.56025 77.95996
2023-07-22T02:00:00 15.75025 80.82507
2023-07-22T03:00:00 14.75025 84.9138
2023-07-22T04:00:00 13.70025 88.83453
2023-07-22T05:00:00 14.38025 87.66932
2023-07-22T06:00:00 16.94025 77.40546
2023-07-22T07:00:00 19.54025 64.66913
2023-07-22T08:00:00 21.63025 53.35725
2023-07-22T09:00:00 23.07025 42.2841
2023-07-22T10:00:00 24.36025 34.95993
2023-07-22T11:00:00 25.40025 32.89071
2023-07-22T12:00:00 26.09025 31.09363
2023-07-22T13:00:00 26.60025 29.65382
2023-07-22T14:00:00 27.00025 28.52597
2023-07-22T15:00:00 27.16025 28.18023
2023-07-22T16:00:00 27.05025 29.01444
2023-07-22T17:00:00 26.53025 30.02336
2023-07-22T18:00:00 25.76024 28.95306
2023-07-22T19:00:00 23.54025 36.28499
2023-07-22T20:00:00 22.02025 42.56007
2023-07-22T21:00:00 18.89025 57.15194
2023-07-22T22:00:00 17.85025 57.9764
2023-07-22T23:00:00 17.28025 61.67104
2023-07-23T00:00:00 16.54025 65.83401
2023-07-23T01:00:00 15.49025 72.1928
2023-07-23T02:00:00 14.96025 75.76347
2023-07-23T03:00:00 14.58025 78.22502
2023-07-23T04:00:00 14.26025 80.61863
2023-07-23T05:00:00 15.90025 73.977
2023-07-23T06:00:00 18.01024 65.89001
2023-07-23T07:00:00 20.32025 56.75053
2023-07-23T08:00:00 22.63025 50.15477
2023-07-23T09:00:00 24.52025 44.49268
2023-07-23T10:00:00 25.88025 41.64581
2023-07-23T11:00:00 27.18024 38.32911
2023-07-23T12:00:00 28.18024 34.59032
2023-07-23T13:00:00 28.40025 33.83067
2023-07-23T14:00:00 28.89025 33.1638
2023-07-23T15:00:00 28.63025 33.04664
2023-07-23T16:00:00 28.70025 32.75836
2023-07-23T17:00:00 27.96025 34.99227
2023-07-23T18:00:00 27.26024 39.69365
2023-07-23T19:00:00 24.44025 47.04502
2023-07-23T20:00:00 22.74025 52.52657
2023-07-23T21:00:00 21.78025 58.17427
2023-07-23T22:00:00 20.29025 69.92265
2023-07-23T23:00:00 20.01024 72.35877
2023-07-24T00:00:00 18.82025 80.4007
2023-07-24T01:00:00 18.62025 81.78568
2023-07-24T02:00:00 17.76024 86.62464
2023-07-24T03:00:00 17.74025 87.68861
2023-07-24T04:00:00 18.70025 84.14221
2023-07-24T05:00:00 19.14025 82.00879
2023-07-24T06:00:00 19.57025 81.7477
2023-07-24T07:00:00 19.76024 82.76905
2023-07-24T08:00:00 20.14025 82.44601
2023-07-24T09:00:00 21.10025 78.33156
2023-07-24T10:00:00 20.53025 82.17923
2023-07-24T11:00:00 20.91025 79.40731
2023-07-24T12:00:00 21.52025 77.01234
2023-07-24T13:00:00 22.77025 69.28156
2023-07-24T14:00:00 22.85025 68.15801
2023-07-24T15:00:00 23.01024 67.49748
2023-07-24T16:00:00 23.28025 65.51466
2023-07-24T17:00:00 23.39025 64.70545
2023-07-24T18:00:00 21.89025 73.76592
2023-07-24T19:00:00 20.58025 79.76704
2023-07-24T20:00:00 19.37025 85.35153
2023-07-24T21:00:00 18.68024 87.71475
2023-07-24T22:00:00 18.08025 89.76482
2023-07-24T23:00:00 17.99025 88.67236
2023-07-25T00:00:00 17.40025 91.87162
2023-07-25T01:00:00 17.14025 91.44387
2023-07-25T02:00:00 17.42025 88.51173
2023-07-25T03:00:00 17.41025 86.4234
2023-07-25T04:00:00 17.48025 84.16867
2023-07-25T05:00:00 17.89025 80.17011
2023-07-25T06:00:00 18.31025 77.56644
2023-07-25T07:00:00 19.11025 71.91374
2023-07-25T08:00:00 19.79025 65.79498
2023-07-25T09:00:00 20.42025 62.56553
2023-07-25T10:00:00 19.03025 70.78075
2023-07-25T11:00:00 19.87025 66.81074
2023-07-25T12:00:00 20.71025 61.12923
2023-07-25T13:00:00 18.72025 68.57243
2023-07-25T14:00:00 19.21025 68.40163
2023-07-25T15:00:00 18.30025 70.45563
2023-07-25T16:00:00 17.89025 78.26352
2023-07-25T17:00:00 16.94025 81.67677
2023-07-25T18:00:00 15.61025 87.15302
2023-07-25T19:00:00 15.17025 88.84236
2023-07-25T20:00:00 15.16025 89.19143
2023-07-25T21:00:00 14.84025 90.52091
2023-07-25T22:00:00 14.45025 88.60605
2023-07-25T23:00:00 14.32025 86.8561
2023-07-26T00:00:00 13.77025 89.7867
2023-07-26T01:00:00 13.43025 89.93848
2023-07-26T02:00:00 13.17025 89.79849
2023-07-26T03:00:00 13.03025 90.74793
2023-07-26T04:00:00 12.93025 91.2853
2023-07-26T05:00:00 13.32025 89.87014
2023-07-26T06:00:00 13.67025 88.59663
2023-07-26T07:00:00 14.24025 85.30827
2023-07-26T08:00:00 14.74025 84.35298
2023-07-26T09:00:00 16.17025 76.87672
2023-07-26T10:00:00 17.28025 69.00912
2023-07-26T11:00:00 18.19025 62.34214
2023-07-26T12:00:00 18.45025 59.26981
2023-07-26T13:00:00 18.85025 54.54609
2023-07-26T14:00:00 19.52025 52.30508
2023-07-26T15:00:00 20.07025 50.71349
2023-07-26T16:00:00 20.58025 49.46597
2023-07-26T17:00:00 20.44025 50.60867
2023-07-26T18:00:00 19.86025 53.42848
2023-07-26T19:00:00 17.05025 69.83991
2023-07-26T20:00:00 17.16025 66.54521
2023-07-26T21:00:00 16.67025 67.06627
2023-07-26T22:00:00 13.77025 83.95956
2023-07-26T23:00:00 12.67025 88.62619
2023-07-27T00:00:00 12.50025 88.55172
2023-07-27T01:00:00 12.44025 88.48703
2023-07-27T02:00:00 12.35025 89.31271
2023-07-27T03:00:00 12.58025 89.33214
2023-07-27T04:00:00 13.30025 86.69617
2023-07-27T05:00:00 13.79025 84.18621
2023-07-27T06:00:00 14.60025 82.45616
2023-07-27T07:00:00 16.28025 76.03443
2023-07-27T08:00:00 18.04025 70.03491
2023-07-27T09:00:00 19.52025 63.77587
2023-07-27T10:00:00 21.28025 60.46499
2023-07-27T11:00:00 22.13025 58.45013
2023-07-27T12:00:00 23.50025 53.52451
2023-07-27T13:00:00 24.89025 48.39095
2023-07-27T14:00:00 25.82025 45.56491
2023-07-27T15:00:00 25.60025 47.48453
2023-07-27T16:00:00 25.70025 47.35665
2023-07-27T17:00:00 25.75025 45.2477
2023-07-27T18:00:00 25.07025 46.78447
2023-07-27T19:00:00 23.75025 51.2558
2023-07-27T20:00:00 19.96025 69.45116
2023-07-27T21:00:00 18.71025 76.57732
2023-07-27T22:00:00 17.69025 83.32507
2023-07-27T23:00:00 16.84025 88.06335
2023-07-28T00:00:00 16.61025 89.94549
2023-07-28T01:00:00 16.74025 89.31765
2023-07-28T02:00:00 16.55025 89.94103
2023-07-28T03:00:00 17.25025 87.92844
2023-07-28T04:00:00 16.96025 89.39253
2023-07-28T05:00:00 17.49025 87.72298
2023-07-28T06:00:00 19.55025 79.57446
2023-07-28T07:00:00 21.15025 71.68307
2023-07-28T08:00:00 23.13025 62.76844
2023-07-28T09:00:00 24.82025 56.60558
2023-07-28T10:00:00 25.32025 54.12792
2023-07-28T11:00:00 25.28025 54.81957
2023-07-28T12:00:00 24.97025 55.66705
2023-07-28T13:00:00 24.51024 60.04886
2023-07-28T14:00:00 23.74025 66.0299
2023-07-28T15:00:00 22.32025 73.04619
2023-07-28T16:00:00 21.51024 80.6532
2023-07-28T17:00:00 21.92025 78.99558
2023-07-28T18:00:00 21.73025 80.47846
2023-07-28T19:00:00 20.53025 85.4684
2023-07-28T20:00:00 19.56025 89.92814
2023-07-28T21:00:00 19.23025 90.01891
2023-07-28T22:00:00 18.88025 89.82288
2023-07-28T23:00:00 18.18024 93.27315
2023-07-29T00:00:00 18.05025 94.40132
2023-07-29T01:00:00 17.82025 94.99507
2023-07-29T02:00:00 18.21025 93.15602
2023-07-29T03:00:00 18.49025 92.52111
2023-07-29T04:00:00 18.64025 92.76413
2023-07-29T05:00:00 18.78025 92.24358
2023-07-29T06:00:00 19.48025 88.90373
2023-07-29T07:00:00 20.38025 85.66979
2023-07-29T08:00:00 22.13025 76.47327
2023-07-29T09:00:00 23.82025 69.35042
2023-07-29T10:00:00 25.60025 59.31241
2023-07-29T11:00:00 26.05025 54.48577
2023-07-29T12:00:00 25.81025 52.90783
2023-07-29T13:00:00 24.31025 57.28813
2023-07-29T14:00:00 22.79025 68.97704
2023-07-29T15:00:00 22.12025 75.22323
2023-07-29T16:00:00 21.74025 80.27708
2023-07-29T17:00:00 21.28025 82.6334
2023-07-29T18:00:00 21.28025 81.59721
2023-07-29T19:00:00 20.39025 84.64754
2023-07-29T20:00:00 19.82025 87.47963
2023-07-29T21:00:00 19.23025 90.01891
2023-07-29T22:00:00 19.35025 88.49981
2023-07-29T23:00:00 19.29025 88.43882
2023-07-30T00:00:00 19.16025 88.48447
2023-07-30T01:00:00 18.82025 90.50626
2023-07-30T02:00:00 18.43024 92.51794
2023-07-30T03:00:00 18.41025 93.87807
2023-07-30T04:00:00 18.35025 94.65295
2023-07-30T05:00:00 18.60025 93.23397
2023-07-30T06:00:00 19.24025 89.84862
2023-07-30T07:00:00 19.67025 85.98091
2023-07-30T08:00:00 20.30025 81.42306
2023-07-30T09:00:00 20.84025 74.72755
2023-07-30T10:00:00 22.52025 58.20182
2023-07-30T11:00:00 23.39025 46.88153
2023-07-30T12:00:00 23.89025 43.3214
2023-07-30T13:00:00 24.02025 42.09901
2023-07-30T14:00:00 24.40025 40.3248
2023-07-30T15:00:00 24.24025 40.22506
2023-07-30T16:00:00 23.89025 41.3056
2023-07-30T17:00:00 23.12025 43.10429
2023-07-30T18:00:00 22.31025 44.52948
2023-07-30T19:00:00 19.58025 57.09592
2023-07-30T20:00:00 17.69025 67.2821
2023-07-30T21:00:00 15.96025 76.08236
2023-07-30T22:00:00 15.11025 78.72467
2023-07-30T23:00:00 14.91025 78.69447
2023-07-31T00:00:00 14.14025 81.52226
2023-07-31T01:00:00 12.98025 86.60561
2023-07-31T02:00:00 12.90025 86.71336
2023-07-31T03:00:00 12.90025 86.77139
2023-07-31T04:00:00 12.58025 89.39186
2023-07-31T05:00:00 13.69025 85.70305
2023-07-31T06:00:00 15.38025 78.9223
2023-07-31T07:00:00 17.20025 70.66232
2023-07-31T08:00:00 18.98025 61.41275
2023-07-31T09:00:00 20.31025 55.923
2023-07-31T10:00:00 21.97025 50.7491
2023-07-31T11:00:00 23.18024 47.48298
2023-07-31T12:00:00 24.10025 45.72366
2023-07-31T13:00:00 25.14025 43.29666
2023-07-31T14:00:00 25.33025 42.46785
2023-07-31T15:00:00 25.12025 44.04332
2023-07-31T16:00:00 25.02025 45.25515
2023-07-31T17:00:00 24.83025 45.29239
2023-07-31T18:00:00 24.05025 45.49779
2023-07-31T19:00:00 22.01024 57.0965
2023-07-31T20:00:00 21.43024 61.13663
2023-07-31T21:00:00 20.68024 63.49174
2023-07-31T22:00:00 20.90025 62.67455
2023-07-31T23:00:00 20.62025 64.44032
2023-08-01T00:00:00 21.14025 62.15773
2023-08-01T01:00:00 21.45025 58.9395
2023-08-01T02:00:00 21.38025 59.23291
2023-08-01T03:00:00 21.03025 60.36645
2023-08-01T04:00:00 20.44025 62.03799
2023-08-01T05:00:00 19.57025 67.4073
2023-08-01T06:00:00 17.89025 80.17011
2023-08-01T07:00:00 16.59025 91.94173
2023-08-01T08:00:00 16.67025 94.46643
2023-08-01T09:00:00 17.88025 88.66344
2023-08-01T10:00:00 18.45025 88.76618
2023-08-01T11:00:00 18.87025 85.68304
2023-08-01T12:00:00 19.84025 81.93816
2023-08-01T13:00:00 20.45025 80.46359
2023-08-01T14:00:00 20.89025 76.62251
2023-08-01T15:00:00 21.17025 70.77116
2023-08-01T16:00:00 21.22025 65.11914
2023-08-01T17:00:00 21.14025 61.95486
2023-08-01T18:00:00 20.46025 60.35073
2023-08-01T19:00:00 19.05025 65.11806
2023-08-01T20:00:00 17.92025 71.22237
2023-08-01T21:00:00 16.54025 77.08828
2023-08-01T22:00:00 16.11025 79.29164
2023-08-01T23:00:00 15.55025 82.14235
2023-08-02T00:00:00 15.58025 82.96223
2023-08-02T01:00:00 15.18025 86.25746
2023-08-02T02:00:00 15.92025 84.59831
2023-08-02T03:00:00 16.16025 85.51473
2023-08-02T04:00:00 16.27025 87.2721
2023-08-02T05:00:00 16.17025 88.92525
2023-08-02T06:00:00 16.59025 88.27024
2023-08-02T07:00:00 17.25025 86.6316
2023-08-02T08:00:00 19.03025 80.01579
2023-08-02T09:00:00 21.51024 70.20094
2023-08-02T10:00:00 23.90025 60.75991
2023-08-02T11:00:00 25.76024 52.01555
2023-08-02T12:00:00 26.97025 48.78905
2023-08-02T13:00:00 27.54025 49.12874
2023-08-02T14:00:00 27.63025 48.06004
2023-08-02T15:00:00 27.62025 46.77464
2023-08-02T16:00:00 26.09025 52.67367
2023-08-02T17:00:00 24.32025 63.63652
2023-08-02T18:00:00 22.51024 74.8588
2023-08-02T19:00:00 21.75025 75.83499
2023-08-02T20:00:00 20.78025 76.60551
2023-08-02T21:00:00 20.12025 77.44115
2023-08-02T22:00:00 19.36025 71.72584
2023-08-02T23:00:00 19.22025 65.6293
2023-08-03T00:00:00 19.19025 60.56958
2023-08-03T01:00:00 18.85025 58.77452
2023-08-03T02:00:00 18.51024 59.56338
2023-08-03T03:00:00 18.15025 61.62806
2023-08-03T04:00:00 17.87025 63.36059
2023-08-03T05:00:00 17.87025 63.36059
2023-08-03T06:00:00 18.36025 61.88382
2023-08-03T07:00:00 19.02025 58.65918
2023-08-03T08:00:00 19.74025 55.81504
2023-08-03T09:00:00 20.40025 53.8578
2023-08-03T10:00:00 21.16025 52.77532
2023-08-03T11:00:00 21.51024 52.51686
2023-08-03T12:00:00 22.14025 50.55865
2023-08-03T13:00:00 22.60025 49.32071
2023-08-03T14:00:00 23.21025 45.93479
2023-08-03T15:00:00 23.16025 45.9823
2023-08-03T16:00:00 23.03025 46.75111
2023-08-03T17:00:00 22.13025 47.51141
2023-08-03T18:00:00 20.99025 51.20145
2023-08-03T19:00:00 18.73025 62.38414
2023-08-03T20:00:00 19.02025 59.32957
2023-08-03T21:00:00 16.96025 71.98804
2023-08-03T22:00:00 15.48025 80.0962
2023-08-03T23:00:00 15.20025 82.69637
2023-08-04T00:00:00 15.16025 83.73569
2023-08-04T01:00:00 15.79025 81.0975
2023-08-04T02:00:00 15.72025 82.70692
2023-08-04T03:00:00 16.03025 81.82652
2023-08-04T04:00:00 16.07025 83.84285
2023-08-04T05:00:00 16.12025 84.73145
2023-08-04T06:00:00 16.27025 84.80343
2023-08-04T07:00:00 16.74025 82.45519
2023-08-04T08:00:00 17.34025 79.36542
2023-08-04T09:00:00 18.23025 74.28664
2023-08-04T10:00:00 18.56025 76.80267
2023-08-04T11:00:00 19.18024 71.87975
2023-08-04T12:00:00 19.69025 68.05231
2023-08-04T13:00:00 19.58025 65.70679
2023-08-04T14:00:00 19.50025 67.8802
2023-08-04T15:00:00 19.06025 69.22862
2023-08-04T16:00:00 18.79025 70.64241
2023-08-04T17:00:00 18.53025 69.57947
2023-08-04T18:00:00 18.01024 72.75427
2023-08-04T19:00:00 17.19025 76.4846
2023-08-04T20:00:00 16.78025 79.12878
2023-08-04T21:00:00 16.45025 80.92021
2023-08-04T22:00:00 15.38025 89.55985
2023-08-04T23:00:00 14.83025 91.23466
2023-08-05T00:00:00 14.67025 91.22387
2023-08-05T01:00:00 14.31025 92.58799
2023-08-05T02:00:00 14.19025 91.73285
2023-08-05T03:00:00 13.85025 92.25662
2023-08-05T04:00:00 14.05025 91.30187
2023-08-05T05:00:00 13.94025 91.17404
2023-08-05T06:00:00 14.79025 90.51726
2023-08-05T07:00:00 16.24025 83.42468
2023-08-05T08:00:00 17.27025 77.10215
2023-08-05T09:00:00 18.59025 67.7378
2023-08-05T10:00:00 19.88025 59.65661
2023-08-05T11:00:00 20.61025 55.5171
2023-08-05T12:00:00 21.40025 51.82742
2023-08-05T13:00:00 21.96025 50.51037
2023-08-05T14:00:00 22.37025 49.25839
2023-08-05T15:00:00 22.56025 48.01298
2023-08-05T16:00:00 22.12025 48.73264
2023-08-05T17:00:00 21.46025 50.10684
2023-08-05T18:00:00 20.20025 56.26886
2023-08-05T19:00:00 19.16025 63.27494
2023-08-05T20:00:00 18.22025 69.10677
2023-08-05T21:00:00 17.90025 72.16264
2023-08-05T22:00:00 16.55025 77.19159
2023-08-05T23:00:00 16.69025 72.12884
2023-08-06T00:00:00 16.78025 69.69333
2023-08-06T01:00:00 16.36025 71.30286
2023-08-06T02:00:00 16.06025 73.22128
2023-08-06T03:00:00 15.43025 77.57867
2023-08-06T04:00:00 14.57025 81.63426
2023-08-06T05:00:00 13.98025 85.05318
2023-08-06T06:00:00 13.63025 88.9464
2023-08-06T07:00:00 13.94025 87.22238
2023-08-06T08:00:00 14.15025 86.20855
2023-08-06T09:00:00 14.02025 87.17235
2023-08-06T10:00:00 13.89025 91.83441
2023-08-06T11:00:00 14.43025 88.19623
2023-08-06T12:00:00 14.77025 85.25337
2023-08-06T13:00:00 15.68025 80.44277
2023-08-06T14:00:00 16.86025 70.36192
2023-08-06T15:00:00 17.40025 63.67869
2023-08-06T16:00:00 17.00025 62.9062
2023-08-06T17:00:00 16.38025 62.46513
2023-08-06T18:00:00 16.24025 60.10056
2023-08-06T19:00:00 15.15025 64.59705
2023-08-06T20:00:00 14.54025 67.93501
2023-08-06T21:00:00 14.26025 68.90026
2023-08-06T22:00:00 13.74025 73.08981
2023-08-06T23:00:00 13.85025 72.81345
2023-08-07T00:00:00 13.52025 74.6529
2023-08-07T01:00:00 13.15025 76.17388
2023-08-07T02:00:00 12.84025 77.89909
2023-08-07T03:00:00 12.48025 81.18523
2023-08-07T04:00:00 12.46025 81.73348
2023-08-07T05:00:00 12.41025 82.83904
2023-08-07T06:00:00 12.92025 81.52069
2023-08-07T07:00:00 13.65025 78.8194
2023-08-07T08:00:00 14.23025 76.71536
2023-08-07T09:00:00 15.43025 73.69582
2023-08-07T10:00:00 16.52025 64.73119
2023-08-07T11:00:00 17.27025 59.98558
2023-08-07T12:00:00 18.28025 52.36323
2023-08-07T13:00:00 18.48025 51.60188
2023-08-07T14:00:00 18.92025 50.29726
2023-08-07T15:00:00 19.03025 52.42208
2023-08-07T16:00:00 19.15025 52.56086
2023-08-07T17:00:00 19.37025 51.38759
2023-08-07T18:00:00 18.24025 56.79544
2023-08-07T19:00:00 15.17025 72.08396
2023-08-07T20:00:00 14.10025 76.17959
2023-08-07T21:00:00 12.69025 81.26935
2023-08-07T22:00:00 11.72025 88.65999
2023-08-07T23:00:00 11.85025 87.24988
2023-08-08T00:00:00 11.45025 88.33682
2023-08-08T01:00:00 11.32025 87.25564
2023-08-08T02:00:00 10.40025 91.66077
2023-08-08T03:00:00 9.700245 94.91053
2023-08-08T04:00:00 9.080245 96.77524
2023-08-08T05:00:00 10.10025 93.39822
2023-08-08T06:00:00 12.52025 84.31807
2023-08-08T07:00:00 14.69025 77.98113
2023-08-08T08:00:00 17.05025 68.09486
2023-08-08T09:00:00 19.07025 60.42009
2023-08-08T10:00:00 20.25025 53.53097
2023-08-08T11:00:00 21.37025 47.55701
2023-08-08T12:00:00 21.65025 44.46363
2023-08-08T13:00:00 22.08025 42.69304
2023-08-08T14:00:00 22.42025 43.1389
2023-08-08T15:00:00 22.49025 42.43437
2023-08-08T16:00:00 22.69025 41.6929
2023-08-08T17:00:00 22.32025 42.53
2023-08-08T18:00:00 20.71025 53.22306
2023-08-08T19:00:00 18.55025 61.14788
2023-08-08T20:00:00 16.62025 70.36173
2023-08-08T21:00:00 16.40025 71.07322
2023-08-08T22:00:00 16.51025 70.15265
2023-08-08T23:00:00 16.37025 71.16228
2023-08-09T00:00:00 16.03025 74.04933
2023-08-09T01:00:00 15.29025 78.12622
2023-08-09T02:00:00 15.30025 78.5965
2023-08-09T03:00:00 15.17025 80.69183
2023-08-09T04:00:00 15.52025 79.20521
2023-08-09T05:00:00 15.79025 78.67035
2023-08-09T06:00:00 16.59025 75.58452
2023-08-09T07:00:00 17.36025 71.77741
2023-08-09T08:00:00 18.31025 68.85181
2023-08-09T09:00:00 19.69025 63.89801
2023-08-09T10:00:00 21.20025 55.85178
2023-08-09T11:00:00 22.74025 51.02211
2023-08-09T12:00:00 23.22025 48.7076
2023-08-09T13:00:00 23.54025 47.48695
2023-08-09T14:00:00 23.93024 47.90922
2023-08-09T15:00:00 23.95025 50.07762
2023-08-09T16:00:00 23.38025 53.70413
2023-08-09T17:00:00 22.83025 56.51868
2023-08-09T18:00:00 21.97025 61.26168
2023-08-09T19:00:00 20.42025 68.02288
2023-08-09T20:00:00 19.37025 72.76146
2023-08-09T21:00:00 16.48025 84.3849
2023-08-09T22:00:00 14.99025 90.41326
2023-08-09T23:00:00 14.55025 92.42003
2023-08-10T00:00:00 14.91025 90.17075
2023-08-10T01:00:00 14.97025 88.18633
2023-08-10T02:00:00 14.38025 90.42786
2023-08-10T03:00:00 13.89025 91.17059
2023-08-10T04:00:00 13.53025 92.29791
2023-08-10T05:00:00 13.91025 92.56461
2023-08-10T06:00:00 16.50025 84.38715
2023-08-10T07:00:00 19.19025 71.83476
2023-08-10T08:00:00 21.26024 63.45525
2023-08-10T09:00:00 22.97025 57.89509
2023-08-10T10:00:00 24.68024 50.7996
2023-08-10T11:00:00 25.85025 45.69279
2023-08-10T12:00:00 27.12025 40.7952
2023-08-10T13:00:00 28.02025 38.46391
2023-08-10T14:00:00 28.37025 36.55685
2023-08-10T15:00:00 28.43024 35.28838
2023-08-10T16:00:00 28.25025 35.47269
2023-08-10T17:00:00 27.12025 38.87507
2023-08-10T18:00:00 25.18024 44.58743
2023-08-10T19:00:00 22.74025 53.60979
2023-08-10T20:00:00 20.70025 63.82924
2023-08-10T21:00:00 19.05025 72.70406
2023-08-10T22:00:00 18.24025 74.38558
2023-08-10T23:00:00 17.99025 74.929
2023-08-11T00:00:00 16.26025 82.88247
2023-08-11T01:00:00 14.52025 91.27361
2023-08-11T02:00:00 14.27025 92.7682
2023-08-11T03:00:00 14.08025 93.1851
2023-08-11T04:00:00 14.08025 92.57458
2023-08-11T05:00:00 14.91025 89.22954
2023-08-11T06:00:00 18.00025 77.67059
2023-08-11T07:00:00 20.78025 66.00562
2023-08-11T08:00:00 23.30025 58.12566
2023-08-11T09:00:00 25.55025 53.14898
2023-08-11T10:00:00 27.56025 48.63187
2023-08-11T11:00:00 29.04025 44.20028
2023-08-11T12:00:00 30.08025 40.53083
2023-08-11T13:00:00 31.07025 37.16594
2023-08-11T14:00:00 31.62025 35.09274
2023-08-11T15:00:00 31.94025 33.61686
2023-08-11T16:00:00 31.96025 32.47881
2023-08-11T17:00:00 31.58025 30.18932
2023-08-11T18:00:00 29.79025 40.84485
2023-08-11T19:00:00 26.93024 47.01339
2023-08-11T20:00:00 24.72025 56.32664
2023-08-11T21:00:00 21.52025 68.90617
2023-08-11T22:00:00 19.81025 76.74987
2023-08-11T23:00:00 18.99025 82.99604
2023-08-12T00:00:00 19.11025 84.45712
2023-08-12T01:00:00 19.03025 86.79974
2023-08-12T02:00:00 18.78025 88.05978
2023-08-12T03:00:00 19.20025 86.81545
2023-08-12T04:00:00 19.25025 87.65242
2023-08-12T05:00:00 19.34025 86.49756
2023-08-12T06:00:00 20.94025 79.10931
2023-08-12T07:00:00 23.13025 68.82363
2023-08-12T08:00:00 24.57025 65.82497
2023-08-12T09:00:00 25.47025 65.39044
2023-08-12T10:00:00 25.74025 65.4463
2023-08-12T11:00:00 26.73025 62.76326
2023-08-12T12:00:00 28.26024 60.75011
2023-08-12T13:00:00 27.37025 62.66697
2023-08-12T14:00:00 28.30025 56.69157
2023-08-12T15:00:00 28.96025 54.10729
2023-08-12T16:00:00 28.05025 55.08526
2023-08-12T17:00:00 27.53025 56.72103
2023-08-12T18:00:00 26.50025 60.4293
2023-08-12T19:00:00 24.16025 75.12363
2023-08-12T20:00:00 23.99025 74.72199
2023-08-12T21:00:00 23.04025 79.69593
2023-08-12T22:00:00 21.74025 83.99454
2023-08-12T23:00:00 21.53025 84.97905
2023-08-13T00:00:00 21.35025 84.90741
2023-08-13T01:00:00 21.22025 84.25584
2023-08-13T02:00:00 20.12025 89.17746
2023-08-13T03:00:00 19.53025 91.81977
2023-08-13T04:00:00 19.55025 90.95595
2023-08-13T05:00:00 19.37025 92.62548
2023-08-13T06:00:00 20.87025 86.58501
2023-08-13T07:00:00 22.50025 78.58053
2023-08-13T08:00:00 24.35025 70.28581
2023-08-13T09:00:00 25.93024 63.18282
2023-08-13T10:00:00 26.76024 59.05766
2023-08-13T11:00:00 28.32025 55.22074
2023-08-13T12:00:00 29.18024 51.11741
2023-08-13T13:00:00 29.67025 50.44265
2023-08-13T14:00:00 28.89025 54.60158
2023-08-13T15:00:00 28.25025 56.75076
2023-08-13T16:00:00 26.64025 65.79493
2023-08-13T17:00:00 26.07025 68.14272
2023-08-13T18:00:00 25.42025 68.91608
2023-08-13T19:00:00 23.39025 81.5489
2023-08-13T20:00:00 22.00025 88.2116
2023-08-13T21:00:00 21.72025 89.01724
2023-08-13T22:00:00 22.26024 83.3704
2023-08-13T23:00:00 21.47025 87.07432
2023-08-14T00:00:00 21.19025 90.15261
2023-08-14T01:00:00 20.49025 92.6237
2023-08-14T02:00:00 19.80025 94.88385
2023-08-14T03:00:00 19.62025 94.87772
2023-08-14T04:00:00 19.66025 94.5818
2023-08-14T05:00:00 20.01024 92.07785
2023-08-14T06:00:00 21.38025 86.63146
2023-08-14T07:00:00 23.42025 76.52575
2023-08-14T08:00:00 25.11025 69.41985
2023-08-14T09:00:00 26.76024 64.27874
2023-08-14T10:00:00 27.77025 59.77533
2023-08-14T11:00:00 29.06025 52.19418
2023-08-14T12:00:00 28.84025 49.59535
2023-08-14T13:00:00 29.96025 44.76284
2023-08-14T14:00:00 30.80025 41.43986
2023-08-14T15:00:00 31.20025 40.78645
2023-08-14T16:00:00 31.11025 42.13851
2023-08-14T17:00:00 30.70025 43.6112
2023-08-14T18:00:00 29.01024 51.13846
2023-08-14T19:00:00 26.44025 62.89724
2023-08-14T20:00:00 25.45025 67.13368
2023-08-14T21:00:00 24.15025 73.91148
2023-08-14T22:00:00 23.91025 73.36403
2023-08-14T23:00:00 23.09025 78.02563
2023-08-15T00:00:00 22.17025 82.99611
2023-08-15T01:00:00 21.25025 87.82153
2023-08-15T02:00:00 20.97025 90.08162
2023-08-15T03:00:00 20.55025 92.22218
2023-08-15T04:00:00 20.28025 93.25326
2023-08-15T05:00:00 19.93024 94.59155
2023-08-15T06:00:00 21.61025 86.48988
2023-08-15T07:00:00 23.52025 71.42863
2023-08-15T08:00:00 25.66025 53.8661
2023-08-15T09:00:00 27.28025 45.34115
2023-08-15T10:00:00 27.55025 44.77133
2023-08-15T11:00:00 28.64025 41.62239
2023-08-15T12:00:00 29.16025 40.06737
2023-08-15T13:00:00 29.80025 38.88509
2023-08-15T14:00:00 30.04025 39.20507
2023-08-15T15:00:00 30.75025 37.22184
2023-08-15T16:00:00 30.43024 37.27813
2023-08-15T17:00:00 29.67025 38.12213
2023-08-15T18:00:00 27.78025 42.67371
2023-08-15T19:00:00 24.33025 57.51497
2023-08-15T20:00:00 22.46025 66.82735
2023-08-15T21:00:00 21.18024 75.16678
2023-08-15T22:00:00 20.66025 79.32224
2023-08-15T23:00:00 20.34025 81.27282
2023-08-16T00:00:00 19.30025 87.32309
2023-08-16T01:00:00 18.64025 90.72474
2023-08-16T02:00:00 18.10025 92.38252
2023-08-16T03:00:00 17.71025 93.66808
2023-08-16T04:00:00 17.45025 93.17812
2023-08-16T05:00:00 17.74025 92.54002
2023-08-16T06:00:00 20.31025 81.89182
2023-08-16T07:00:00 22.47025 71.3745
2023-08-16T08:00:00 24.56025 63.56725
2023-08-16T09:00:00 26.39025 58.56234
2023-08-16T10:00:00 28.63025 49.19506
2023-08-16T11:00:00 30.17025 44.79089
2023-08-16T12:00:00 31.49025 40.76161
2023-08-16T13:00:00 32.45025 36.57218
2023-08-16T14:00:00 31.99025 36.61016
2023-08-16T15:00:00 31.65025 38.20153
2023-08-16T16:00:00 31.43024 40.04786
2023-08-16T17:00:00 30.47025 42.42312
2023-08-16T18:00:00 28.80025 43.68198
2023-08-16T19:00:00 26.04025 59.56555
2023-08-16T20:00:00 24.16025 69.72183
2023-08-16T21:00:00 22.08025 80.7773
2023-08-16T22:00:00 21.05025 85.84312
2023-08-16T23:00:00 20.75025 88.83333
2023-08-17T00:00:00 20.06025 92.37003
2023-08-17T01:00:00 19.47025 95.23089
2023-08-17T02:00:00 19.10025 96.48605
2023-08-17T03:00:00 19.31025 96.30917
2023-08-17T04:00:00 18.38025 98.06722
2023-08-17T05:00:00 18.32025 97.51057
2023-08-17T06:00:00 19.83025 92.29996
2023-08-17T07:00:00 21.32025 84.85104
2023-08-17T08:00:00 23.13025 77.64138
2023-08-17T09:00:00 24.84025 71.66394
2023-08-17T10:00:00 26.53025 65.32281
2023-08-17T11:00:00 28.33025 55.60637
2023-08-17T12:00:00 29.42025 48.44064
2023-08-17T13:00:00 29.73025 46.50302
2023-08-17T14:00:00 29.76024 45.8644
2023-08-17T15:00:00 29.61025 46.35284
2023-08-17T16:00:00 29.85025 43.18626
2023-08-17T17:00:00 28.58025 43.28465
2023-08-17T18:00:00 27.30025 48.75085
2023-08-17T19:00:00 25.47025 55.43379
2023-08-17T20:00:00 23.87025 62.5312
2023-08-17T21:00:00 21.64025 73.58255
2023-08-17T22:00:00 20.89025 71.54347
2023-08-17T23:00:00 19.85025 76.36201
2023-08-18T00:00:00 19.14025 79.87648
2023-08-18T01:00:00 18.36025 82.60111
2023-08-18T02:00:00 17.86025 84.53812
2023-08-18T03:00:00 17.91025 83.83703
2023-08-18T04:00:00 17.63025 84.62225
2023-08-18T05:00:00 17.57025 83.68964
2023-08-18T06:00:00 19.45025 77.43924
2023-08-18T07:00:00 22.14025 64.02156
2023-08-18T08:00:00 24.50025 57.4081
2023-08-18T09:00:00 26.87025 50.91165
2023-08-18T10:00:00 28.69025 44.36162
2023-08-18T11:00:00 30.83025 37.82771
2023-08-18T12:00:00 32.43024 32.99298
2023-08-18T13:00:00 33.52025 29.9678
2023-08-18T14:00:00 34.16025 27.8318
2023-08-18T15:00:00 34.44025 26.18191
2023-08-18T16:00:00 34.26025 25.04847
2023-08-18T17:00:00 33.64025 23.47566
2023-08-18T18:00:00 30.06025 36.86113
2023-08-18T19:00:00 26.30025 50.30668
2023-08-18T20:00:00 24.66025 57.44682
2023-08-18T21:00:00 23.64025 60.93477
2023-08-18T22:00:00 22.53025 63.57153
2023-08-18T23:00:00 22.11025 64.26378
2023-08-19T00:00:00 21.56025 66.59886
2023-08-19T01:00:00 20.89025 67.50249
2023-08-19T02:00:00 19.63025 72.7607
2023-08-19T03:00:00 19.07025 75.15871
2023-08-19T04:00:00 18.58025 77.00558
2023-08-19T05:00:00 18.70025 75.58721
2023-08-19T06:00:00 21.07025 66.36764
2023-08-19T07:00:00 24.39025 53.16181
2023-08-19T08:00:00 27.51024 43.61114
2023-08-19T09:00:00 29.62025 39.54836
2023-08-19T10:00:00 31.35025 37.5575
2023-08-19T11:00:00 32.76025 33.27765
2023-08-19T12:00:00 33.76025 30.80579
2023-08-19T13:00:00 34.62025 28.50861
2023-08-19T14:00:00 34.68025 28.71136
2023-08-19T15:00:00 34.23025 30.08232
2023-08-19T16:00:00 33.42025 30.11733
2023-08-19T17:00:00 31.76024 35.86773
2023-08-19T18:00:00 30.06025 45.97384
2023-08-19T19:00:00 28.29025 55.35251
2023-08-19T20:00:00 26.20025 65.25471
2023-08-19T21:00:00 23.91025 75.98072
2023-08-19T22:00:00 22.79025 79.2148
2023-08-19T23:00:00 21.92025 83.22815
2023-08-20T00:00:00 21.12025 87.42646
2023-08-20T01:00:00 20.94025 88.79215
2023-08-20T02:00:00 20.70025 90.5158
2023-08-20T03:00:00 20.50025 90.787
2023-08-20T04:00:00 19.62025 93.51662
2023-08-20T05:00:00 19.31025 94.98653
2023-08-20T06:00:00 21.70025 85.63709
2023-08-20T07:00:00 24.24025 72.14339
2023-08-20T08:00:00 26.49025 64.98911
2023-08-20T09:00:00 28.44025 59.77869
2023-08-20T10:00:00 29.92025 54.30945
2023-08-20T11:00:00 31.48025 48.48997
2023-08-20T12:00:00 33.05025 42.8781
2023-08-20T13:00:00 33.94025 38.65759
2023-08-20T14:00:00 34.66025 36.22572
2023-08-20T15:00:00 34.37025 36.05488
2023-08-20T16:00:00 33.92025 37.25843
2023-08-20T17:00:00 33.09025 38.96645
2023-08-20T18:00:00 31.80025 39.97028
2023-08-20T19:00:00 29.16025 50.75851
2023-08-20T20:00:00 27.15025 60.12225
2023-08-20T21:00:00 25.16025 69.55965
2023-08-20T22:00:00 24.26024 71.20263
2023-08-20T23:00:00 23.78025 73.1581
2023-08-21T00:00:00 23.57025 74.79475
2023-08-21T01:00:00 22.78025 78.27536
2023-08-21T02:00:00 22.21025 81.0987
2023-08-21T03:00:00 21.67025 83.98698
2023-08-21T04:00:00 21.50025 83.91591
2023-08-21T05:00:00 21.55025 83.50069
2023-08-21T06:00:00 23.21025 78.23832
2023-08-21T07:00:00 25.54025 67.74278
2023-08-21T08:00:00 27.48025 60.8789
2023-08-21T09:00:00 29.44025 55.97895
2023-08-21T10:00:00 31.47025 47.348
2023-08-21T11:00:00 32.79025 43.595
2023-08-21T12:00:00 34.07025 38.64416
2023-08-21T13:00:00 34.78025 35.84739
2023-08-21T14:00:00 35.20025 32.98566
2023-08-21T15:00:00 35.28025 31.44013
2023-08-21T16:00:00 35.03025 31.23134
2023-08-21T17:00:00 34.04025 32.56425
2023-08-21T18:00:00 31.82025 36.68136
2023-08-21T19:00:00 29.13025 44.82517
2023-08-21T20:00:00 27.54025 50.59787
2023-08-21T21:00:00 25.44025 59.19962
2023-08-21T22:00:00 24.01024 66.75999
2023-08-21T23:00:00 22.96025 72.60342
2023-08-22T00:00:00 22.58025 75.10705
2023-08-22T01:00:00 22.22025 76.48711
2023-08-22T02:00:00 21.51024 80.39899
2023-08-22T03:00:00 21.24025 81.69539
2023-08-22T04:00:00 21.04025 82.81414
2023-08-22T05:00:00 20.84025 83.57951
2023-08-22T06:00:00 22.64025 77.3263
2023-08-22T07:00:00 25.06025 66.97163
2023-08-22T08:00:00 27.16025 61.34264
2023-08-22T09:00:00 29.13025 56.21934
2023-08-22T10:00:00 31.03025 49.19805
2023-08-22T11:00:00 32.57025 44.53074
2023-08-22T12:00:00 33.55025 39.83986
2023-08-22T13:00:00 34.29025 36.72588
2023-08-22T14:00:00 35.02025 34.55
2023-08-22T15:00:00 35.19025 33.44921
2023-08-22T16:00:00 34.56025 34.71109
2023-08-22T17:00:00 33.43025 35.61465
2023-08-22T18:00:00 31.62025 38.7866
2023-08-22T19:00:00 29.13025 49.54503
2023-08-22T20:00:00 27.56025 56.83558
2023-08-22T21:00:00 26.19025 63.51762
2023-08-22T22:00:00 24.94025 67.24318
2023-08-22T23:00:00 23.91025 71.76895
2023-08-23T00:00:00 23.39025 73.3221
2023-08-23T01:00:00 22.63025 75.82951
2023-08-23T02:00:00 22.05025 78.71533
2023-08-23T03:00:00 21.80025 78.33285
2023-08-23T04:00:00 21.44025 78.87865
2023-08-23T05:00:00 21.50025 78.53815
2023-08-23T06:00:00 23.00025 71.78806
2023-08-23T07:00:00 24.78025 63.29283
2023-08-23T08:00:00 26.57025 57.32008
2023-08-23T09:00:00 28.27025 52.45699
2023-08-23T10:00:00 30.35025 45.70207
2023-08-23T11:00:00 31.87025 41.86435
2023-08-23T12:00:00 32.88025 39.55695
2023-08-23T13:00:00 33.66025 36.48378
2023-08-23T14:00:00 33.85025 34.71647
2023-08-23T15:00:00 33.65025 33.54375
2023-08-23T16:00:00 32.95025 34.2697
2023-08-23T17:00:00 31.76024 34.67814
2023-08-23T18:00:00 29.77025 38.22461
2023-08-23T19:00:00 26.45025 50.99903
2023-08-23T20:00:00 24.49025 59.81398
2023-08-23T21:00:00 23.51024 63.86759
2023-08-23T22:00:00 22.16025 69.34114
2023-08-23T23:00:00 21.30025 73.28951
2023-08-24T00:00:00 21.15025 73.9231
2023-08-24T01:00:00 20.49025 77.10136
2023-08-24T02:00:00 20.44025 78.5363
2023-08-24T03:00:00 19.80025 80.99654
2023-08-24T04:00:00 19.58025 82.80055
2023-08-24T05:00:00 19.54025 85.26024
2023-08-24T06:00:00 21.13025 78.48534
2023-08-24T07:00:00 23.72025 67.85431
2023-08-24T08:00:00 26.24025 61.02131
2023-08-24T09:00:00 28.23025 55.54712
2023-08-24T10:00:00 29.57025 48.47998
2023-08-24T11:00:00 31.96025 44.03383
2023-08-24T12:00:00 33.81025 40.95257
2023-08-24T13:00:00 35.27025 37.15597
2023-08-24T14:00:00 35.79025 36.62481
2023-08-24T15:00:00 35.90025 35.92534
2023-08-24T16:00:00 33.98025 36.7578
2023-08-24T17:00:00 30.29025 54.26486
2023-08-24T18:00:00 26.84025 59.0018
2023-08-24T19:00:00 25.55025 61.68052
2023-08-24T20:00:00 24.47025 65.80431
2023-08-24T21:00:00 23.36025 71.67098
2023-08-24T22:00:00 22.57025 79.83309
2023-08-24T23:00:00 22.32025 81.01085
2023-08-25T00:00:00 21.40025 86.14627
2023-08-25T01:00:00 21.31025 86.73373
2023-08-25T02:00:00 21.25025 85.86235
2023-08-25T03:00:00 21.11025 87.15196
2023-08-25T04:00:00 20.81025 88.00575
2023-08-25T05:00:00 20.81025 88.1163
2023-08-25T06:00:00 21.20025 86.56082
2023-08-25T07:00:00 22.07025 81.74554
2023-08-25T08:00:00 23.83025 69.52781
2023-08-25T09:00:00 24.91025 60.02641
2023-08-25T10:00:00 23.76024 72.28617
2023-08-25T11:00:00 24.97025 66.57531
2023-08-25T12:00:00 26.55025 61.20643
2023-08-25T13:00:00 26.84025 58.44606
2023-08-25T14:00:00 26.66025 62.31689
2023-08-25T15:00:00 26.46025 62.58658
2023-08-25T16:00:00 26.01024 65.33807
2023-08-25T17:00:00 25.29025 67.86372
2023-08-25T18:00:00 23.77025 75.20272
2023-08-25T19:00:00 22.37025 81.83318
2023-08-25T20:00:00 20.93024 91.3828
2023-08-25T21:00:00 20.63025 93.26902
2023-08-25T22:00:00 20.46025 89.53966
2023-08-25T23:00:00 20.27025 90.94367
2023-08-26T00:00:00 20.53025 89.09596
2023-08-26T01:00:00 20.79025 86.95969
2023-08-26T02:00:00 20.54025 85.6855
2023-08-26T03:00:00 20.25025 84.63278
2023-08-26T04:00:00 19.66025 86.47272
2023-08-26T05:00:00 19.34025 88.16264
2023-08-26T06:00:00 19.72025 85.008
2023-08-26T07:00:00 20.07025 82.07101
2023-08-26T08:00:00 20.59025 75.69857
2023-08-26T09:00:00 20.71025 71.00497
2023-08-26T10:00:00 20.19025 76.4155
2023-08-26T11:00:00 19.24025 81.4969
2023-08-26T12:00:00 18.94025 82.51216
2023-08-26T13:00:00 18.41025 84.92479
2023-08-26T14:00:00 18.62025 83.70215
2023-08-26T15:00:00 19.35025 80.00806
2023-08-26T16:00:00 19.38025 78.99011
2023-08-26T17:00:00 19.09025 80.74802
2023-08-26T18:00:00 18.40025 87.91506
2023-08-26T19:00:00 17.59025 92.29543
2023-08-26T20:00:00 17.64025 91.53351
2023-08-26T21:00:00 17.18024 93.94418
2023-08-26T22:00:00 17.33025 92.57713
2023-08-26T23:00:00 17.44025 91.05273
2023-08-27T00:00:00 16.98025 92.97534
2023-08-27T01:00:00 16.82025 93.80754
2023-08-27T02:00:00 16.73025 92.90257
2023-08-27T03:00:00 16.50025 92.95039
2023-08-27T04:00:00 16.40025 92.5261
2023-08-27T05:00:00 15.93025 90.12881
2023-08-27T06:00:00 15.88025 91.89888
2023-08-27T07:00:00 16.44025 90.98681
2023-08-27T08:00:00 17.42025 86.872
2023-08-27T09:00:00 18.19025 84.68312
2023-08-27T10:00:00 19.16025 72.67649
2023-08-27T11:00:00 19.39025 71.68469
2023-08-27T12:00:00 19.25025 70.3157
2023-08-27T13:00:00 18.64025 71.26476
2023-08-27T14:00:00 18.36025 73.00847
2023-08-27T15:00:00 18.20025 75.65289
2023-08-27T16:00:00 17.92025 77.55717
2023-08-27T17:00:00 17.54025 79.54952
2023-08-27T18:00:00 16.99025 83.73114
2023-08-27T19:00:00 16.40025 85.76333
2023-08-27T20:00:00 15.83025 90.00421
2023-08-27T21:00:00 15.81025 89.12772
2023-08-27T22:00:00 15.30025 92.34338
2023-08-27T23:00:00 15.26025 91.86072
2023-08-28T00:00:00 14.55025 95.8041
2023-08-28T01:00:00 14.25025 96.23336
2023-08-28T02:00:00 14.22025 96.16954
2023-08-28T03:00:00 14.14025 95.85291
2023-08-28T04:00:00 14.20025 94.91837
2023-08-28T05:00:00 13.97025 94.41185
2023-08-28T06:00:00 13.87025 96.15851
2023-08-28T07:00:00 14.07025 96.2908
2023-08-28T08:00:00 14.25025 96.48525
2023-08-28T09:00:00 14.81025 91.71246
2023-08-28T10:00:00 15.63025 85.90805
2023-08-28T11:00:00 16.00025 82.03806
2023-08-28T12:00:00 15.89025 83.00033
2023-08-28T13:00:00 15.85025 82.45156
2023-08-28T14:00:00 15.29025 84.30492
2023-08-28T15:00:00 15.13025 89.01384
2023-08-28T16:00:00 14.80025 90.57735
2023-08-28T17:00:00 14.54025 91.87576
2023-08-28T18:00:00 14.09025 93.98456
2023-08-28T19:00:00 13.70025 96.21622
2023-08-28T20:00:00 13.47025 97.54581
2023-08-28T21:00:00 13.23025 97.73324
2023-08-28T22:00:00 13.06025 95.24765
2023-08-28T23:00:00 12.88025 95.30346
2023-08-29T00:00:00 12.73025 95.29749
2023-08-29T01:00:00 12.65025 96.11848
2023-08-29T02:00:00 12.65025 96.62881
2023-08-29T03:00:00 12.51025 97.84749
2023-08-29T04:00:00 12.39025 97.845
2023-08-29T05:00:00 12.37025 98.82067
2023-08-29T06:00:00 12.71025 97.59338
2023-08-29T07:00:00 13.38025 95.63761
2023-08-29T08:00:00 14.17025 90.77045
2023-08-29T09:00:00 15.18025 85.29797
2023-08-29T10:00:00 15.92025 81.97382
2023-08-29T11:00:00 16.33025 76.19376
2023-08-29T12:00:00 16.62025 72.30769
2023-08-29T13:00:00 16.59025 69.46963
2023-08-29T14:00:00 16.60025 68.13799
2023-08-29T15:00:00 16.60025 69.89016
2023-08-29T16:00:00 16.25025 71.4246
2023-08-29T17:00:00 16.10025 74.0617
2023-08-29T18:00:00 15.34025 79.49449
2023-08-29T19:00:00 14.69025 84.73881
2023-08-29T20:00:00 14.20025 88.81865
2023-08-29T21:00:00 14.83025 83.19916
2023-08-29T22:00:00 14.79025 86.44532
2023-08-29T23:00:00 14.48025 87.96832
2023-08-30T00:00:00 13.31025 94.88137
2023-08-30T01:00:00 12.92025 96.50926
2023-08-30T02:00:00 12.06025 98.22843
2023-08-30T03:00:00 12.35025 97.00496
2023-08-30T04:00:00 11.85025 97.70356
2023-08-30T05:00:00 11.87025 97.70402
2023-08-30T06:00:00 13.00025 93.43482
2023-08-30T07:00:00 14.32025 88.47792
2023-08-30T08:00:00 15.65025 84.67912
2023-08-30T09:00:00 16.98025 78.02409
2023-08-30T10:00:00 17.84025 72.29417
2023-08-30T11:00:00 19.17025 66.61993
2023-08-30T12:00:00 20.07025 60.25807
2023-08-30T13:00:00 20.37025 57.82834
2023-08-30T14:00:00 20.76024 55.18722
2023-08-30T15:00:00 20.79025 53.35081
2023-08-30T16:00:00 20.61025 53.09015
2023-08-30T17:00:00 20.14025 53.60985
2023-08-30T18:00:00 18.35025 62.25449
2023-08-30T19:00:00 16.81025 71.10477
2023-08-30T20:00:00 16.53025 72.24291
2023-08-30T21:00:00 15.90025 75.71961
2023-08-30T22:00:00 15.48025 79.25182
2023-08-30T23:00:00 15.30025 81.35347
2023-08-31T00:00:00 15.10025 84.22745
2023-08-31T01:00:00 14.85025 85.3184
2023-08-31T02:00:00 14.92025 84.82068
2023-08-31T03:00:00 14.77025 85.98828
2023-08-31T04:00:00 14.56025 86.53627
2023-08-31T05:00:00 13.82025 90.38626
2023-08-31T06:00:00 14.29025 88.9436
2023-08-31T07:00:00 15.41025 83.59993
2023-08-31T08:00:00 16.47025 74.66936
2023-08-31T09:00:00 16.98025 68.81062
2023-08-31T10:00:00 18.24025 60.30162
2023-08-31T11:00:00 18.85025 57.02677
2023-08-31T12:00:00 18.97025 57.32578
2023-08-31T13:00:00 19.66025 55.31068
2023-08-31T14:00:00 19.98025 54.03722
2023-08-31T15:00:00 19.91025 54.30961
2023-08-31T16:00:00 19.65025 55.56824
2023-08-31T17:00:00 19.02025 61.54484
2023-08-31T18:00:00 17.81025 70.26785
2023-08-31T19:00:00 16.94025 76.34366
2023-08-31T20:00:00 16.63025 76.4444
2023-08-31T21:00:00 17.08025 74.5773
2023-08-31T22:00:00 17.18024 74.25118
2023-08-31T23:00:00 17.36025 71.77741
2023-09-01T00:00:00 17.30025 72.28996
2023-09-01T01:00:00 16.82025 74.97685
2023-09-01T02:00:00 16.60025 77.40327
2023-09-01T03:00:00 16.02025 81.77142
2023-09-01T04:00:00 15.59025 85.34222
2023-09-01T05:00:00 15.81025 85.03083
2023-09-01T06:00:00 16.40025 84.04586
2023-09-01T07:00:00 18.04025 77.27288
2023-09-01T08:00:00 19.69025 70.99799
2023-09-01T09:00:00 21.25025 66.01907
2023-09-01T10:00:00 22.79025 60.22932
2023-09-01T11:00:00 23.70025 56.47651
2023-09-01T12:00:00 24.67025 53.1301
2023-09-01T13:00:00 25.24025 51.91458
2023-09-01T14:00:00 25.64025 50.10054
2023-09-01T15:00:00 25.76024 49.38934
2023-09-01T16:00:00 25.38025 50.52208
2023-09-01T17:00:00 24.71025 52.93385
2023-09-01T18:00:00 22.19025 62.11356
2023-09-01T19:00:00 19.39025 75.26036
2023-09-01T20:00:00 17.92025 83.13686
2023-09-01T21:00:00 16.47025 90.98882
2023-09-01T22:00:00 16.03025 91.31403
2023-09-01T23:00:00 15.55025 92.65865
2023-09-02T00:00:00 15.03025 94.0902
2023-09-02T01:00:00 14.26025 95.79428
2023-09-02T02:00:00 13.82025 96.53597
2023-09-02T03:00:00 13.54025 96.40102
2023-09-02T04:00:00 13.61025 94.33341
2023-09-02T05:00:00 13.76025 92.92252
2023-09-02T06:00:00 15.21025 90.60674
2023-09-02T07:00:00 17.78025 81.41423
2023-09-02T08:00:00 20.21025 73.19377
2023-09-02T09:00:00 22.53025 65.86242
2023-09-02T10:00:00 24.93024 57.10743
2023-09-02T11:00:00 26.55025 49.8552
2023-09-02T12:00:00 27.77025 44.57063
2023-09-02T13:00:00 28.46025 39.89869
2023-09-02T14:00:00 28.86025 37.94572
2023-09-02T15:00:00 28.96025 37.11108
2023-09-02T16:00:00 28.63025 37.2142
2023-09-02T17:00:00 27.25025 45.09797
2023-09-02T18:00:00 23.95025 55.62934
2023-09-02T19:00:00 21.91025 64.34502
2023-09-02T20:00:00 20.64025 70.12584
2023-09-02T21:00:00 18.69025 80.33131
2023-09-02T22:00:00 17.33025 85.85857
2023-09-02T23:00:00 16.70025 89.14131
2023-09-03T00:00:00 16.26025 90.79812
2023-09-03T01:00:00 15.31025 93.31086
2023-09-03T02:00:00 14.65025 94.25716
2023-09-03T03:00:00 14.52025 94.31294
2023-09-03T04:00:00 14.52025 93.94358
2023-09-03T05:00:00 14.23025 94.23804
2023-09-03T06:00:00 16.23025 90.38499
2023-09-03T07:00:00 18.75025 84.52631
2023-09-03T08:00:00 21.05025 73.52836
2023-09-03T09:00:00 23.05025 66.05544
2023-09-03T10:00:00 24.93024 61.54144
2023-09-03T11:00:00 26.40025 56.77219
2023-09-03T12:00:00 27.43024 53.14943
2023-09-03T13:00:00 28.06025 49.93057
2023-09-03T14:00:00 28.28025 47.95554
2023-09-03T15:00:00 28.11025 47.60412
2023-09-03T16:00:00 27.28025 49.12328
2023-09-03T17:00:00 25.97025 52.44001
2023-09-03T18:00:00 23.97025 60.11615
2023-09-03T19:00:00 21.66025 69.64584
2023-09-03T20:00:00 20.01024 76.53466
2023-09-03T21:00:00 19.28025 79.38351
2023-09-03T22:00:00 18.64025 82.84797
2023-09-03T23:00:00 17.81025 84.80598
2023-09-04T00:00:00 17.13025 87.06955
2023-09-04T01:00:00 16.45025 88.25819
2023-09-04T02:00:00 15.96025 88.67674
2023-09-04T03:00:00 15.31025 90.20053
2023-09-04T04:00:00 15.10025 90.53965
2023-09-04T05:00:00 14.70025 91.58533
2023-09-04T06:00:00 16.69025 86.12852
2023-09-04T07:00:00 18.72025 77.07736
2023-09-04T08:00:00 21.13025 66.25116
2023-09-04T09:00:00 23.29025 57.29913
2023-09-04T10:00:00 25.13025 51.81875
2023-09-04T11:00:00 26.80025 45.53529
2023-09-04T12:00:00 28.25025 40.86942
2023-09-04T13:00:00 29.36025 37.29627
2023-09-04T14:00:00 30.10025 35.12872
2023-09-04T15:00:00 30.36025 34.44734
2023-09-04T16:00:00 30.00025 34.43753
2023-09-04T17:00:00 28.65025 40.10843
2023-09-04T18:00:00 24.70025 52.72544
2023-09-04T19:00:00 22.41025 60.6504
2023-09-04T20:00:00 21.27025 65.25686
2023-09-04T21:00:00 20.50025 66.55076
2023-09-04T22:00:00 19.98025 64.34184
2023-09-04T23:00:00 18.99025 68.08817
2023-09-05T00:00:00 17.79025 73.38677
2023-09-05T01:00:00 16.84025 76.83173
2023-09-05T02:00:00 16.42025 77.6307
2023-09-05T03:00:00 16.27025 78.74213
2023-09-05T04:00:00 15.70025 80.12731
2023-09-05T05:00:00 14.97025 82.66744
2023-09-05T06:00:00 16.30025 75.93712
2023-09-05T07:00:00 19.16025 65.31418
2023-09-05T08:00:00 21.63025 54.78995
2023-09-05T09:00:00 23.20025 50.07528
2023-09-05T10:00:00 25.04025 46.89944
2023-09-05T11:00:00 26.67025 44.88065
2023-09-05T12:00:00 27.92025 42.90741
2023-09-05T13:00:00 29.18024 40.17728
2023-09-05T14:00:00 29.90025 38.11168
2023-09-05T15:00:00 30.08025 36.81861
2023-09-05T16:00:00 29.89025 36.54982
2023-09-05T17:00:00 29.12025 39.10215
2023-09-05T18:00:00 26.96025 41.67297
2023-09-05T19:00:00 21.98025 62.42967
2023-09-05T20:00:00 20.85025 67.14495
2023-09-05T21:00:00 20.34025 69.34515
2023-09-05T22:00:00 19.61025 70.01885
2023-09-05T23:00:00 18.06025 76.37425
2023-09-06T00:00:00 16.91025 80.03409
2023-09-06T01:00:00 15.58025 83.78539
2023-09-06T02:00:00 14.82025 85.42786
2023-09-06T03:00:00 14.37025 86.11726
2023-09-06T04:00:00 14.04025 87.40561
2023-09-06T05:00:00 13.61025 87.6551
2023-09-06T06:00:00 14.93025 84.04099
2023-09-06T07:00:00 18.23025 70.95373
2023-09-06T08:00:00 20.66025 61.07737
2023-09-06T09:00:00 22.87025 55.5763
2023-09-06T10:00:00 24.86025 49.31046
2023-09-06T11:00:00 26.51024 44.48616
2023-09-06T12:00:00 27.86025 40.09808
2023-09-06T13:00:00 28.77025 37.57335
2023-09-06T14:00:00 29.43024 36.18277
2023-09-06T15:00:00 29.55025 35.20633
2023-09-06T16:00:00 29.33025 36.22619
2023-09-06T17:00:00 28.81025 34.74449
2023-09-06T18:00:00 26.78025 41.02357
2023-09-06T19:00:00 23.61025 54.25675
2023-09-06T20:00:00 20.51024 69.01952
2023-09-06T21:00:00 19.51024 75.96417
2023-09-06T22:00:00 18.64025 81.10576
2023-09-06T23:00:00 18.12025 83.48318
2023-09-07T00:00:00 17.63025 85.17095
2023-09-07T01:00:00 16.97025 86.10072
2023-09-07T02:00:00 16.31025 87.33264
2023-09-07T03:00:00 16.08025 87.53919
2023-09-07T04:00:00 15.88025 87.1786
2023-09-07T05:00:00 15.59025 87.15111
2023-09-07T06:00:00 16.68024 84.95894
2023-09-07T07:00:00 19.77025 73.1164
2023-09-07T08:00:00 22.08025 64.09127
2023-09-07T09:00:00 24.28025 58.92668
2023-09-07T10:00:00 26.31025 51.42429
2023-09-07T11:00:00 27.98025 46.75085
2023-09-07T12:00:00 29.24025 42.05899
2023-09-07T13:00:00 30.26024 38.8111
2023-09-07T14:00:00 30.73025 36.40293
2023-09-07T15:00:00 30.87025 36.48924
2023-09-07T16:00:00 30.39025 37.09765
2023-09-07T17:00:00 28.97025 47.43765
2023-09-07T18:00:00 27.31025 45.14366
2023-09-07T19:00:00 25.36025 52.99767
2023-09-07T20:00:00 23.69025 58.93858
2023-09-07T21:00:00 20.68024 71.50496
2023-09-07T22:00:00 19.25025 80.76915
2023-09-07T23:00:00 18.32025 85.7375
2023-09-08T00:00:00 17.81025 88.48715
2023-09-08T01:00:00 17.43024 90.4113
2023-09-08T02:00:00 17.21025 91.38949
2023-09-08T03:00:00 16.79025 91.77607
2023-09-08T04:00:00 16.39025 92.28683
2023-09-08T05:00:00 16.14025 93.11183
2023-09-08T06:00:00 17.68024 89.44785
2023-09-08T07:00:00 20.60025 80.38111
2023-09-08T08:00:00 23.56025 69.03796
2023-09-08T09:00:00 25.95025 61.26481
2023-09-08T10:00:00 28.05025 52.601
2023-09-08T11:00:00 29.59025 48.30129
2023-09-08T12:00:00 30.74025 42.98757
2023-09-08T13:00:00 31.31025 39.05108
2023-09-08T14:00:00 31.79025 37.92208
2023-09-08T15:00:00 31.82025 36.58679
2023-09-08T16:00:00 31.40025 36.56516
2023-09-08T17:00:00 29.88025 45.11389
2023-09-08T18:00:00 27.86025 45.2934
2023-09-08T19:00:00 26.18024 53.0703
2023-09-08T20:00:00 23.80025 62.55565
2023-09-08T21:00:00 21.53025 71.70616
2023-09-08T22:00:00 20.50025 76.70919
2023-09-08T23:00:00 20.24025 77.85712
2023-09-09T00:00:00 19.64025 80.8204
2023-09-09T01:00:00 18.88025 84.70292
2023-09-09T02:00:00 18.16025 86.99712
2023-09-09T03:00:00 17.28025 90.16856
2023-09-09T04:00:00 17.29025 91.51196
2023-09-09T05:00:00 16.98025 91.55158
2023-09-09T06:00:00 18.61025 88.21423
2023-09-09T07:00:00 21.36025 77.42959
2023-09-09T08:00:00 24.03025 67.27371
2023-09-09T09:00:00 26.34025 59.25902
2023-09-09T10:00:00 28.55025 48.4274
2023-09-09T11:00:00 30.07025 41.96205
2023-09-09T12:00:00 31.08025 37.36169
2023-09-09T13:00:00 31.61025 34.50158
2023-09-09T14:00:00 32.19025 32.35148
2023-09-09T15:00:00 32.08025 31.63002
2023-09-09T16:00:00 31.76024 30.53985
2023-09-09T17:00:00 30.28025 44.62123
2023-09-09T18:00:00 28.20025 40.0092
2023-09-09T19:00:00 25.05025 51.09594
2023-09-09T20:00:00 22.31025 62.90994
2023-09-09T21:00:00 20.82025 68.90194
2023-09-09T22:00:00 20.01024 70.9659
2023-09-09T23:00:00 19.37025 75.30579
2023-09-10T00:00:00 18.95025 78.82669
2023-09-10T01:00:00 18.47025 81.18831
2023-09-10T02:00:00 17.97025 83.7357
2023-09-10T03:00:00 17.35025 86.47343
2023-09-10T04:00:00 16.65025 88.90676
2023-09-10T05:00:00 16.59025 89.01714
2023-09-10T06:00:00 17.79025 88.3719
2023-09-10T07:00:00 21.06025 76.01592
2023-09-10T08:00:00 23.76024 64.94969
2023-09-10T09:00:00 26.19025 57.19259
2023-09-10T10:00:00 28.13025 51.53106
2023-09-10T11:00:00 29.99025 45.17225
2023-09-10T12:00:00 31.17025 36.52508
2023-09-10T13:00:00 32.05025 31.53888
2023-09-10T14:00:00 32.70025 28.2145
2023-09-10T15:00:00 32.84025 25.17732
2023-09-10T16:00:00 32.41025 24.24878
2023-09-10T17:00:00 31.01024 31.81474
2023-09-10T18:00:00 28.57025 34.49306
2023-09-10T19:00:00 24.02025 51.39415
2023-09-10T20:00:00 21.27025 64.62415
2023-09-10T21:00:00 19.87025 72.94498
2023-09-10T22:00:00 19.20025 76.55548
2023-09-10T23:00:00 18.57025 81.04428
2023-09-11T00:00:00 17.87025 84.64842
2023-09-11T01:00:00 17.23025 87.07891
2023-09-11T02:00:00 16.92025 89.79431
2023-09-11T03:00:00 16.24025 91.56448
2023-09-11T04:00:00 16.17025 91.91648
2023-09-11T05:00:00 15.90025 91.8405
2023-09-11T06:00:00 17.47025 85.59569
2023-09-11T07:00:00 20.92025 73.0358
2023-09-11T08:00:00 23.98025 60.54469
2023-09-11T09:00:00 26.59025 53.96207
2023-09-11T10:00:00 29.03025 43.26814
2023-09-11T11:00:00 30.86025 35.40967
2023-09-11T12:00:00 31.99025 31.93867
2023-09-11T13:00:00 32.78025 27.95707
2023-09-11T14:00:00 33.27025 24.83818
2023-09-11T15:00:00 33.15025 22.97288
2023-09-11T16:00:00 32.67025 21.90413
2023-09-11T17:00:00 30.71025 36.84996
2023-09-11T18:00:00 28.35025 36.50289
2023-09-11T19:00:00 24.84025 48.34576
2023-09-11T20:00:00 21.99025 60.78957
2023-09-11T21:00:00 20.99025 66.04997
2023-09-11T22:00:00 21.29025 66.67213
2023-09-11T23:00:00 20.54025 71.24883
2023-09-12T00:00:00 20.06025 74.74191
2023-09-12T01:00:00 18.97025 80.78411
2023-09-12T02:00:00 18.19025 85.50427
2023-09-12T03:00:00 17.69025 87.74062
2023-09-12T04:00:00 17.66025 87.68153
2023-09-12T05:00:00 17.40025 88.62417
2023-09-12T06:00:00 18.19025 83.06158
2023-09-12T07:00:00 21.23025 70.37386
2023-09-12T08:00:00 24.29025 57.46824
2023-09-12T09:00:00 26.61025 45.24664
2023-09-12T10:00:00 28.23025 42.85348
2023-09-12T11:00:00 29.64025 36.64777
2023-09-12T12:00:00 30.80025 32.5636
2023-09-12T13:00:00 31.63025 30.28308
2023-09-12T14:00:00 31.36025 31.08075
2023-09-12T15:00:00 30.87025 31.65016
2023-09-12T16:00:00 29.92025 33.47411
2023-09-12T17:00:00 27.92025 39.25454
2023-09-12T18:00:00 24.86025 53.73274
2023-09-12T19:00:00 24.08025 58.87927
2023-09-12T20:00:00 23.23025 63.23597
2023-09-12T21:00:00 22.50025 64.47288
2023-09-12T22:00:00 21.86025 67.69922
2023-09-12T23:00:00 20.78025 76.06883
2023-09-13T00:00:00 19.79025 84.20827
2023-09-13T01:00:00 19.08025 89.49572
2023-09-13T02:00:00 18.68024 91.77094
2023-09-13T03:00:00 18.25025 92.80314
2023-09-13T04:00:00 18.39025 92.75131
2023-09-13T05:00:00 18.19025 95.00814
2023-09-13T06:00:00 18.24025 94.76905
2023-09-13T07:00:00 18.70025 94.36704
2023-09-13T08:00:00 19.45025 89.52292
2023-09-13T09:00:00 20.32025 83.41529
2023-09-13T10:00:00 21.39025 73.02435
2023-09-13T11:00:00 22.05025 67.56361
2023-09-13T12:00:00 22.70025 64.18485
2023-09-13T13:00:00 23.18024 60.75039
2023-09-13T14:00:00 23.40025 57.47503
2023-09-13T15:00:00 22.65025 61.25926
2023-09-13T16:00:00 21.74025 65.86621
2023-09-13T17:00:00 21.07025 70.02705
2023-09-13T18:00:00 19.68024 78.42623
2023-09-13T19:00:00 19.20025 81.4918
2023-09-13T20:00:00 18.80025 83.8301
2023-09-13T21:00:00 18.00025 88.67319
2023-09-13T22:00:00 18.00025 88.21949
2023-09-13T23:00:00 17.86025 88.37772
2023-09-14T00:00:00 17.15025 92.03398
2023-09-14T01:00:00 16.69025 93.20002
2023-09-14T02:00:00 16.47025 92.7093
2023-09-14T03:00:00 16.35025 91.86792
2023-09-14T04:00:00 16.57025 90.58472
2023-09-14T05:00:00 15.71025 93.75581
2023-09-14T06:00:00 16.28025 90.68193
2023-09-14T07:00:00 17.01024 87.00198
2023-09-14T08:00:00 18.10025 83.69657
2023-09-14T09:00:00 19.81025 74.98998
2023-09-14T10:00:00 21.56025 66.90067
2023-09-14T11:00:00 22.64025 61.73455
2023-09-14T12:00:00 23.33025 58.66265
2023-09-14T13:00:00 24.11025 54.63163
2023-09-14T14:00:00 24.17025 53.97636
2023-09-14T15:00:00 24.06025 53.94835
2023-09-14T16:00:00 23.55025 54.95369
2023-09-14T17:00:00 22.72025 55.57496
2023-09-14T18:00:00 21.48025 59.29578
2023-09-14T19:00:00 20.12025 63.70021
2023-09-14T20:00:00 18.91025 67.49218
2023-09-14T21:00:00 18.03025 70.44984
2023-09-14T22:00:00 16.90025 76.13633
2023-09-14T23:00:00 16.01025 78.80737
2023-09-15T00:00:00 15.82025 78.83113
2023-09-15T01:00:00 15.00025 82.83553
2023-09-15T02:00:00 14.93025 82.93652
2023-09-15T03:00:00 15.68025 79.49129
2023-09-15T04:00:00 15.64025 80.49036
2023-09-15T05:00:00 15.42025 81.85487
2023-09-15T06:00:00 15.28025 84.35934
2023-09-15T07:00:00 16.79025 75.76774
2023-09-15T08:00:00 18.20025 70.90136
2023-09-15T09:00:00 19.80025 67.36661
2023-09-15T10:00:00 21.76024 64.06279
2023-09-15T11:00:00 23.25025 59.48479
2023-09-15T12:00:00 24.21025 57.00568
2023-09-15T13:00:00 25.20025 54.44759
2023-09-15T14:00:00 25.83025 51.56549
2023-09-15T15:00:00 26.24025 50.06399
2023-09-15T16:00:00 26.19025 48.36125
2023-09-15T17:00:00 25.03025 50.92479
2023-09-15T18:00:00 21.62025 68.17583
2023-09-15T19:00:00 19.96025 75.7919
2023-09-15T20:00:00 19.01024 80.73743
2023-09-15T21:00:00 18.31025 83.55901
2023-09-15T22:00:00 18.15025 84.08086
2023-09-15T23:00:00 17.55025 86.66039
2023-09-16T00:00:00 17.17025 87.80793
2023-09-16T01:00:00 16.70025 89.89401
2023-09-16T02:00:00 16.49025 90.87255
2023-09-16T03:00:00 15.93025 93.52383
2023-09-16T04:00:00 15.28025 94.53072
2023-09-16T05:00:00 14.74025 95.2502
2023-09-16T06:00:00 15.73025 94.30501
2023-09-16T07:00:00 17.92025 86.63991
2023-09-16T08:00:00 19.68024 79.54148
2023-09-16T09:00:00 21.46025 72.47813
2023-09-16T10:00:00 22.94025 67.18247
2023-09-16T11:00:00 25.13025 58.9009
2023-09-16T12:00:00 26.11025 53.22311
2023-09-16T13:00:00 26.79025 49.53385
2023-09-16T14:00:00 27.27025 47.74805
2023-09-16T15:00:00 26.92025 46.91937
2023-09-16T16:00:00 26.12025 49.42073
2023-09-16T17:00:00 25.12025 53.00476
2023-09-16T18:00:00 22.64025 64.00676
2023-09-16T19:00:00 22.46025 63.67929
2023-09-16T20:00:00 20.01024 76.33813
2023-09-16T21:00:00 19.22025 79.42621
2023-09-16T22:00:00 18.67025 89.01037
2023-09-16T23:00:00 17.99025 91.32125
2023-09-17T00:00:00 17.90025 91.31565
2023-09-17T01:00:00 17.44025 92.46457
2023-09-17T02:00:00 17.05025 92.44309
2023-09-17T03:00:00 16.77025 93.38404
2023-09-17T04:00:00 16.54025 94.03653
2023-09-17T05:00:00 16.40025 93.84869
2023-09-17T06:00:00 16.95025 91.02065
2023-09-17T07:00:00 19.17025 82.8579
2023-09-17T08:00:00 21.45025 71.96774
2023-09-17T09:00:00 23.82025 62.80079
2023-09-17T10:00:00 25.97025 54.99157
2023-09-17T11:00:00 27.25025 49.33689
2023-09-17T12:00:00 28.28025 47.10263
2023-09-17T13:00:00 29.02025 43.68574
2023-09-17T14:00:00 29.55025 41.14953
2023-09-17T15:00:00 29.66025 39.63654
2023-09-17T16:00:00 29.20025 39.35465
2023-09-17T17:00:00 27.06025 49.03357
2023-09-17T18:00:00 23.40025 62.82846
2023-09-17T19:00:00 21.81025 69.36247
2023-09-17T20:00:00 21.63025 70.13359
2023-09-17T21:00:00 20.84025 74.53631
2023-09-17T22:00:00 19.49025 81.84236
2023-09-17T23:00:00 19.64025 83.55053
2023-09-18T00:00:00 20.05025 83.70318
2023-09-18T01:00:00 19.33025 88.55438
2023-09-18T02:00:00 18.64025 92.29447
2023-09-18T03:00:00 18.86025 90.39406
2023-09-18T04:00:00 18.30025 93.27888
2023-09-18T05:00:00 18.50025 92.8159
2023-09-18T06:00:00 18.65025 92.29502
2023-09-18T07:00:00 18.28025 94.89082
2023-09-18T08:00:00 18.09025 95.18578
2023-09-18T09:00:00 18.44025 92.7539
2023-09-18T10:00:00 19.43024 90.71875
2023-09-18T11:00:00 20.22025 85.38339
2023-09-18T12:00:00 20.95025 79.2113
2023-09-18T13:00:00 22.01024 70.52045
2023-09-18T14:00:00 22.32025 66.7129
2023-09-18T15:00:00 22.67025 62.34288
2023-09-18T16:00:00 22.59025 61.80309
2023-09-18T17:00:00 21.50025 64.25565
2023-09-18T18:00:00 19.02025 77.82518
2023-09-18T19:00:00 18.47025 80.35339
2023-09-18T20:00:00 18.92025 77.20826
2023-09-18T21:00:00 18.78025 74.57491
2023-09-18T22:00:00 18.28025 77.66277
2023-09-18T23:00:00 18.33025 78.83897
2023-09-19T00:00:00 18.23025 77.9587
2023-09-19T01:00:00 17.56025 80.6479
2023-09-19T02:00:00 17.60025 80.28674
2023-09-19T03:00:00 17.54025 81.33007
2023-09-19T04:00:00 17.44025 82.16747
2023-09-19T05:00:00 16.93024 85.92929
2023-09-19T06:00:00 17.01024 85.54808
2023-09-19T07:00:00 17.41025 83.83406
2023-09-19T08:00:00 18.20025 78.97376
2023-09-19T09:00:00 19.49025 69.13275
2023-09-19T10:00:00 20.72025 62.34708
2023-09-19T11:00:00 21.79025 56.85484
2023-09-19T12:00:00 22.56025 52.58352
2023-09-19T13:00:00 23.18024 49.60848
2023-09-19T14:00:00 23.31025 46.79715
2023-09-19T15:00:00 23.48025 44.6481
2023-09-19T16:00:00 23.16025 44.02362
2023-09-19T17:00:00 21.41025 52.17675
2023-09-19T18:00:00 20.03025 56.03849
2023-09-19T19:00:00 19.13025 60.19338
2023-09-19T20:00:00 18.34025 63.89157
2023-09-19T21:00:00 15.37025 78.45065
2023-09-19T22:00:00 14.69025 83.01663
2023-09-19T23:00:00 13.72025 87.7237
2023-09-20T00:00:00 12.99025 90.80535
2023-09-20T01:00:00 12.36025 92.90371
2023-09-20T02:00:00 11.97025 94.19271
2023-09-20T03:00:00 11.50025 94.99253
2023-09-20T04:00:00 11.20025 95.8107
2023-09-20T05:00:00 10.92025 96.05764
2023-09-20T06:00:00 12.27025 92.34235
2023-09-20T07:00:00 14.68025 83.62296
2023-09-20T08:00:00 17.61025 74.32577
2023-09-20T09:00:00 20.44025 64.40086
2023-09-20T10:00:00 22.67025 52.33533
2023-09-20T11:00:00 24.11025 47.26629
2023-09-20T12:00:00 25.08025 43.9448
2023-09-20T13:00:00 25.90025 40.93924
2023-09-20T14:00:00 26.32025 38.8299
2023-09-20T15:00:00 26.46025 36.6508
2023-09-20T16:00:00 26.01024 37.04206
2023-09-20T17:00:00 23.60025 47.31467
2023-09-20T18:00:00 19.60025 64.55471
2023-09-20T19:00:00 18.28025 71.71306
2023-09-20T20:00:00 17.26024 78.78523
2023-09-20T21:00:00 16.67025 82.50032
2023-09-20T22:00:00 16.51025 83.7845
2023-09-20T23:00:00 16.54025 84.94373
2023-09-21T00:00:00 16.85025 84.70147
2023-09-21T01:00:00 16.75025 85.96683
2023-09-21T02:00:00 16.97025 85.15604
2023-09-21T03:00:00 16.98025 86.04588
2023-09-21T04:00:00 17.21025 86.1805
2023-09-21T05:00:00 17.10025 87.1795
2023-09-21T06:00:00 17.23025 86.23828
2023-09-21T07:00:00 18.64025 78.62902
2023-09-21T08:00:00 20.21025 71.78891
2023-09-21T09:00:00 22.34025 62.83528
2023-09-21T10:00:00 23.82025 57.65165
2023-09-21T11:00:00 24.68024 52.82313
2023-09-21T12:00:00 25.02025 50.78975
2023-09-21T13:00:00 25.09025 50.74208
2023-09-21T14:00:00 24.70025 52.11218
2023-09-21T15:00:00 24.57025 52.11232
2023-09-21T16:00:00 23.26024 55.2039
2023-09-21T17:00:00 20.79025 67.87714
2023-09-21T18:00:00 18.10025 85.27522
2023-09-21T19:00:00 16.37025 89.28853
2023-09-21T20:00:00 14.67025 87.00532
2023-09-21T21:00:00 14.57025 90.08596
2023-09-21T22:00:00 14.40025 90.07304
2023-09-21T23:00:00 14.37025 91.08369
2023-09-22T00:00:00 14.54025 90.26151
2023-09-22T01:00:00 14.09025 90.22769
2023-09-22T02:00:00 13.96025 89.74241
2023-09-22T03:00:00 13.52025 92.2973
2023-09-22T04:00:00 13.77025 93.41406
2023-09-22T05:00:00 14.03025 94.10519
2023-09-22T06:00:00 14.29025 92.40463
2023-09-22T07:00:00 14.43025 89.01405
2023-09-22T08:00:00 14.95025 85.16056
2023-09-22T09:00:00 15.91025 79.94566
2023-09-22T10:00:00 17.46025 65.9464
2023-09-22T11:00:00 18.47025 58.32708
2023-09-22T12:00:00 19.37025 53.22729
2023-09-22T13:00:00 19.86025 52.46646
2023-09-22T14:00:00 20.14025 50.6298
2023-09-22T15:00:00 20.22025 48.83529
2023-09-22T16:00:00 18.91025 53.46615
2023-09-22T17:00:00 16.51025 62.24236
2023-09-22T18:00:00 15.64025 65.85826
2023-09-22T19:00:00 14.71025 70.74355
2023-09-22T20:00:00 13.90025 75.17592
2023-09-22T21:00:00 13.87025 74.31181
2023-09-22T22:00:00 12.92025 82.96025
2023-09-22T23:00:00 12.68025 83.20945
2023-09-23T00:00:00 12.27025 83.55177
2023-09-23T01:00:00 11.71025 86.12343
2023-09-23T02:00:00 11.21025 87.83753
2023-09-23T03:00:00 10.67025 89.71374
2023-09-23T04:00:00 10.46025 90.12351
2023-09-23T05:00:00 10.23025 90.59625
2023-09-23T06:00:00 10.30025 90.66333
2023-09-23T07:00:00 12.30025 84.29186
2023-09-23T08:00:00 13.91025 77.18061
2023-09-23T09:00:00 15.47025 68.59246
2023-09-23T10:00:00 16.86025 57.72691
2023-09-23T11:00:00 17.46025 51.35941
2023-09-23T12:00:00 17.76024 50.04666
2023-09-23T13:00:00 18.20025 46.79727
2023-09-23T14:00:00 17.63025 48.44751
2023-09-23T15:00:00 17.38025 50.67012
2023-09-23T16:00:00 16.62025 57.23447
2023-09-23T17:00:00 15.83025 61.36676
2023-09-23T18:00:00 14.24025 73.43016
2023-09-23T19:00:00 14.00025 76.88419
2023-09-23T20:00:00 14.22025 73.52576
2023-09-23T21:00:00 12.69025 80.39522
2023-09-23T22:00:00 11.24025 89.45887
2023-09-23T23:00:00 11.08025 86.81805
2023-09-24T00:00:00 10.82025 87.14574
2023-09-24T01:00:00 10.47025 86.81329
2023-09-24T02:00:00 10.25025 87.44461
2023-09-24T03:00:00 9.730246 88.11336
2023-09-24T04:00:00 9.390245 89.17509
2023-09-24T05:00:00 9.470245 89.06011
2023-09-24T06:00:00 8.690246 91.3486
2023-09-24T07:00:00 10.77025 89.35795
2023-09-24T08:00:00 12.78025 82.60793
2023-09-24T09:00:00 15.07025 72.94215
2023-09-24T10:00:00 15.90025 71.40528
2023-09-24T11:00:00 17.75025 62.82638
2023-09-24T12:00:00 19.29025 54.55052
2023-09-24T13:00:00 20.21025 49.09793
2023-09-24T14:00:00 20.60025 44.62077
2023-09-24T15:00:00 20.64025 43.21966
2023-09-24T16:00:00 20.27025 42.08688
2023-09-24T17:00:00 17.93024 52.51961
2023-09-24T18:00:00 14.64025 64.79012
2023-09-24T19:00:00 12.56025 74.48115
2023-09-24T20:00:00 11.51025 78.81004
2023-09-24T21:00:00 10.26025 84.15852
2023-09-24T22:00:00 9.920245 84.75478
2023-09-24T23:00:00 9.350245 85.80304
2023-09-25T00:00:00 9.240245 85.90894
2023-09-25T01:00:00 8.940246 86.4704
2023-09-25T02:00:00 8.290245 88.76688
2023-09-25T03:00:00 7.780245 89.77229
2023-09-25T04:00:00 7.380245 90.86815
2023-09-25T05:00:00 7.080246 90.65392
2023-09-25T06:00:00 7.560246 89.44116
2023-09-25T07:00:00 10.06025 82.47247
2023-09-25T08:00:00 12.82025 73.61821
2023-09-25T09:00:00 15.09025 65.60259
2023-09-25T10:00:00 16.72025 60.99868
2023-09-25T11:00:00 18.72025 55.06765
2023-09-25T12:00:00 20.16025 50.66942
2023-09-25T13:00:00 21.32025 46.71598
2023-09-25T14:00:00 21.81025 44.75058
2023-09-25T15:00:00 22.01024 43.93644
2023-09-25T16:00:00 21.65025 43.03688
2023-09-25T17:00:00 20.22025 47.14076
2023-09-25T18:00:00 17.98025 59.11469
2023-09-25T19:00:00 16.57025 64.74242
2023-09-25T20:00:00 13.59025 77.49375
2023-09-25T21:00:00 11.04025 87.99984
2023-09-25T22:00:00 10.80025 87.02525
2023-09-25T23:00:00 10.03025 89.53715
2023-09-26T00:00:00 8.950245 92.43958
2023-09-26T01:00:00 8.360246 92.27256
2023-09-26T02:00:00 8.780245 89.42731
2023-09-26T03:00:00 8.650246 88.49483
2023-09-26T04:00:00 9.000245 87.55772
2023-09-26T05:00:00 8.810246 88.81585
2023-09-26T06:00:00 8.820246 89.86295
2023-09-26T07:00:00 11.03025 85.11809
2023-09-26T08:00:00 13.73025 77.46401
2023-09-26T09:00:00 16.18025 71.45889
2023-09-26T10:00:00 18.47025 63.20204
2023-09-26T11:00:00 20.68024 54.50935
2023-09-26T12:00:00 22.33025 48.40062
2023-09-26T13:00:00 23.47025 43.78675
2023-09-26T14:00:00 24.04025 41.15402
2023-09-26T15:00:00 24.20025 40.02441
2023-09-26T16:00:00 23.61025 40.59071
2023-09-26T17:00:00 20.99025 52.48464
2023-09-26T18:00:00 17.66025 63.82314
2023-09-26T19:00:00 15.42025 71.79326
2023-09-26T20:00:00 13.05025 81.48356
2023-09-26T21:00:00 12.20025 85.36709
2023-09-26T22:00:00 12.04025 84.08998
2023-09-26T23:00:00 10.99025 88.05473
2023-09-27T00:00:00 10.76025 89.23597
2023-09-27T01:00:00 9.970245 91.69263
2023-09-27T02:00:00 9.270246 92.3977
2023-09-27T03:00:00 8.980246 93.78009
2023-09-27T04:00:00 9.230246 91.01423
2023-09-27T05:00:00 10.23025 84.85002
2023-09-27T06:00:00 10.30025 86.6177
2023-09-27T07:00:00 12.37025 82.55447
2023-09-27T08:00:00 14.83025 73.88466
2023-09-27T09:00:00 17.36025 68.02305
2023-09-27T10:00:00 19.76024 61.14869
2023-09-27T11:00:00 21.66025 52.41679
2023-09-27T12:00:00 23.27025 46.84849
2023-09-27T13:00:00 24.41025 41.89966
2023-09-27T14:00:00 24.98025 38.34584
2023-09-27T15:00:00 24.84025 38.43527
2023-09-27T16:00:00 23.97025 44.33934
2023-09-27T17:00:00 22.17025 49.3356
2023-09-27T18:00:00 18.06025 64.98698
2023-09-27T19:00:00 15.25025 76.93295
2023-09-27T20:00:00 13.87025 84.53285
2023-09-27T21:00:00 12.95025 89.78085
2023-09-27T22:00:00 12.87025 87.40911
2023-09-27T23:00:00 12.68025 88.3313
2023-09-28T00:00:00 12.78025 88.16347
2023-09-28T01:00:00 13.00025 87.53858
2023-09-28T02:00:00 12.89025 88.64574
2023-09-28T03:00:00 12.84025 90.91533
2023-09-28T04:00:00 12.33025 91.73194
2023-09-28T05:00:00 11.65025 94.30291
2023-09-28T06:00:00 11.82025 93.49527
2023-09-28T07:00:00 14.48025 81.83982
2023-09-28T08:00:00 18.09025 67.99332
2023-09-28T09:00:00 21.06025 56.44826
2023-09-28T10:00:00 23.27025 49.30542
2023-09-28T11:00:00 24.69025 47.45564
2023-09-28T12:00:00 25.76024 44.65959
2023-09-28T13:00:00 26.64025 41.9966
2023-09-28T14:00:00 27.12025 39.4452
2023-09-28T15:00:00 27.08025 39.48613
2023-09-28T16:00:00 26.65025 35.18556
2023-09-28T17:00:00 23.98025 52.06067
2023-09-28T18:00:00 20.91025 61.86152
2023-09-28T19:00:00 17.32025 75.40804
2023-09-28T20:00:00 14.83025 86.05129
2023-09-28T21:00:00 14.27025 88.59042
2023-09-28T22:00:00 14.40025 86.92146
2023-09-28T23:00:00 13.62025 87.88928
2023-09-29T00:00:00 13.07025 89.37313
2023-09-29T01:00:00 12.58025 90.65422
2023-09-29T02:00:00 12.34025 91.48797
2023-09-29T03:00:00 12.07025 91.83717
2023-09-29T04:00:00 11.91025 91.39688
2023-09-29T05:00:00 12.12025 90.31668
2023-09-29T06:00:00 13.16025 85.93236
2023-09-29T07:00:00 15.97025 76.94652
2023-09-29T08:00:00 19.15025 69.06527
2023-09-29T09:00:00 21.90025 62.65527
2023-09-29T10:00:00 23.86025 58.82702
2023-09-29T11:00:00 24.97025 56.75154
2023-09-29T12:00:00 25.85025 52.00523
2023-09-29T13:00:00 26.03025 50.39853
2023-09-29T14:00:00 25.50025 50.65217
2023-09-29T15:00:00 24.83025 50.83908
2023-09-29T16:00:00 23.59025 54.85644
2023-09-29T17:00:00 22.40025 57.60556
2023-09-29T18:00:00 20.18024 66.39688
2023-09-29T19:00:00 18.78025 71.61834
2023-09-29T20:00:00 18.33025 72.62154
2023-09-29T21:00:00 17.84025 73.73385
2023-09-29T22:00:00 16.82025 76.47517
2023-09-29T23:00:00 16.34025 79.32513
2023-09-30T00:00:00 16.30025 78.90243
2023-09-30T01:00:00 15.32025 84.30836
2023-09-30T02:00:00 15.36025 84.42404
2023-09-30T03:00:00 16.00025 81.60764
2023-09-30T04:00:00 16.00025 81.93027
2023-09-30T05:00:00 15.40025 83.70897
2023-09-30T06:00:00 15.35025 84.2563
2023-09-30T07:00:00 16.12025 82.81092
2023-09-30T08:00:00 17.65025 78.58575
2023-09-30T09:00:00 19.11025 70.79596
2023-09-30T10:00:00 20.48025 61.76238
2023-09-30T11:00:00 21.49025 54.64543
2023-09-30T12:00:00 22.35025 50.98589
2023-09-30T13:00:00 22.31025 51.1786
2023-09-30T14:00:00 22.26024 51.5059
2023-09-30T15:00:00 22.25025 50.72279
2023-09-30T16:00:00 21.42025 53.055
2023-09-30T17:00:00 19.28025 60.87362
2023-09-30T18:00:00 16.83025 72.01147
2023-09-30T19:00:00 14.44025 81.78009
2023-09-30T20:00:00 14.14025 83.22461
2023-09-30T21:00:00 13.41025 87.22873
2023-09-30T22:00:00 13.24025 85.76885
2023-09-30T23:00:00 12.65025 87.44619
2023-10-01T00:00:00 11.82025 89.93006
2023-10-01T01:00:00 11.03025 91.82861
2023-10-01T02:00:00 10.71025 92.2421
2023-10-01T03:00:00 10.15025 92.76989
2023-10-01T04:00:00 9.430245 94.63973
2023-10-01T05:00:00 9.100245 95.72687
2023-10-01T06:00:00 9.660245 95.29614
2023-10-01T07:00:00 12.32025 88.47617
2023-10-01T08:00:00 15.52025 78.05792
2023-10-01T09:00:00 18.18024 68.78018
2023-10-01T10:00:00 20.20025 60.92937
2023-10-01T11:00:00 22.17025 52.93479
2023-10-01T12:00:00 23.78025 48.63387
2023-10-01T13:00:00 24.67025 45.30811
2023-10-01T14:00:00 25.18024 42.85059
2023-10-01T15:00:00 25.22025 41.82069
2023-10-01T16:00:00 24.21025 51.84905
2023-10-01T17:00:00 23.40025 47.00918
2023-10-01T18:00:00 20.99025 57.71375
2023-10-01T19:00:00 17.16025 72.40761
2023-10-01T20:00:00 15.48025 79.83149
2023-10-01T21:00:00 14.43025 83.81509
2023-10-01T22:00:00 14.45025 83.48433
2023-10-01T23:00:00 13.87025 85.21081
2023-10-02T00:00:00 13.08025 87.54628
2023-10-02T01:00:00 12.70025 88.33313
2023-10-02T02:00:00 11.94025 91.21545
2023-10-02T03:00:00 11.46025 92.16697
2023-10-02T04:00:00 11.12025 91.95861
2023-10-02T05:00:00 10.64025 93.11436
2023-10-02T06:00:00 10.82025 92.12483
2023-10-02T07:00:00 13.51025 85.51234
2023-10-02T08:00:00 16.49025 75.5178
2023-10-02T09:00:00 19.37025 68.83826
2023-10-02T10:00:00 22.02025 59.38606
2023-10-02T11:00:00 24.46025 51.07424
2023-10-02T12:00:00 26.12025 45.40873
2023-10-02T13:00:00 27.29025 41.60088
2023-10-02T14:00:00 27.85025 39.65002
2023-10-02T15:00:00 27.73025 40.45829
2023-10-02T16:00:00 26.41025 52.11596
2023-10-02T17:00:00 22.06025 61.84259
2023-10-02T18:00:00 19.31025 73.46327
2023-10-02T19:00:00 17.82025 80.73534
2023-10-02T20:00:00 16.76024 86.3596
2023-10-02T21:00:00 15.83025 88.55026
2023-10-02T22:00:00 15.61025 87.03899
2023-10-02T23:00:00 14.91025 88.64568
2023-10-03T00:00:00 14.67025 87.9856
2023-10-03T01:00:00 14.58025 88.50066
2023-10-03T02:00:00 14.47025 88.31621
2023-10-03T03:00:00 14.43025 87.84776
2023-10-03T04:00:00 14.45025 86.58237
2023-10-03T05:00:00 14.47025 86.0707
2023-10-03T06:00:00 14.91025 83.37434
2023-10-03T07:00:00 17.35025 73.98779
2023-10-03T08:00:00 20.22025 62.02816
2023-10-03T09:00:00 22.57025 52.72512
2023-10-03T10:00:00 24.11025 49.95599
2023-10-03T11:00:00 25.00025 49.70362
2023-10-03T12:00:00 25.61025 48.30014
2023-10-03T13:00:00 25.22025 50.02208
2023-10-03T14:00:00 23.80025 55.91774
2023-10-03T15:00:00 22.93024 58.71912
2023-10-03T16:00:00 20.75025 64.13293
2023-10-03T17:00:00 18.99025 64.67606
2023-10-03T18:00:00 17.98025 65.31625
2023-10-03T19:00:00 16.46025 71.22704
2023-10-03T20:00:00 15.84025 73.13245
2023-10-03T21:00:00 14.80025 76.91145
2023-10-03T22:00:00 14.07025 84.55588
2023-10-03T23:00:00 13.19025 85.42008
2023-10-04T00:00:00 12.98025 85.74067
2023-10-04T01:00:00 13.44025 84.03235
2023-10-04T02:00:00 13.59025 85.23649
2023-10-04T03:00:00 12.94025 87.35752
2023-10-04T04:00:00 12.57025 88.32126
2023-10-04T05:00:00 11.97025 90.97345
2023-10-04T06:00:00 10.58025 94.24947
2023-10-04T07:00:00 12.34025 92.34673
2023-10-04T08:00:00 14.15025 85.12867
2023-10-04T09:00:00 16.13025 74.75926
2023-10-04T10:00:00 17.73025 63.15924
2023-10-04T11:00:00 19.02025 56.27033
2023-10-04T12:00:00 19.45025 52.18041
2023-10-04T13:00:00 19.92025 48.48813
2023-10-04T14:00:00 19.90025 47.85983
2023-10-04T15:00:00 19.55025 48.48454
2023-10-04T16:00:00 18.56025 50.33596
2023-10-04T17:00:00 16.01025 62.80314
2023-10-04T18:00:00 13.61025 74.46678
2023-10-04T19:00:00 12.90025 75.92474
2023-10-04T20:00:00 12.35025 78.08592
2023-10-04T21:00:00 11.28025 82.86102
2023-10-04T22:00:00 10.20025 89.06511
2023-10-04T23:00:00 9.690246 90.42993
2023-10-05T00:00:00 9.620245 90.67177
2023-10-05T01:00:00 9.380245 90.90128
2023-10-05T02:00:00 9.170245 89.95465
2023-10-05T03:00:00 9.200245 89.52603
2023-10-05T04:00:00 9.820246 87.94133
2023-10-05T05:00:00 10.00025 88.0793
2023-10-05T06:00:00 10.13025 88.51378
2023-10-05T07:00:00 10.70025 88.68721
2023-10-05T08:00:00 12.06025 85.12122
2023-10-05T09:00:00 14.04025 78.08864
2023-10-05T10:00:00 16.19025 70.70124
2023-10-05T11:00:00 17.73025 63.03249
2023-10-05T12:00:00 18.88025 56.95774
2023-10-05T13:00:00 19.58025 52.07428
2023-10-05T14:00:00 19.62025 49.77411
2023-10-05T15:00:00 19.21025 50.20554
2023-10-05T16:00:00 18.24025 53.28824
2023-10-05T17:00:00 16.22025 60.83669
2023-10-05T18:00:00 14.27025 70.1309
2023-10-05T19:00:00 12.68025 77.29385
2023-10-05T20:00:00 10.85025 85.15521
2023-10-05T21:00:00 9.510245 89.67592
2023-10-05T22:00:00 8.930245 94.29183
2023-10-05T23:00:00 8.150246 95.42382
2023-10-06T00:00:00 7.960245 96.33843
2023-10-06T01:00:00 7.730245 96.39584
2023-10-06T02:00:00 7.100246 97.84883
2023-10-06T03:00:00 6.670245 98.72213
2023-10-06T04:00:00 6.180245 98.64268
2023-10-06T05:00:00 5.970245 97.95262
2023-10-06T06:00:00 5.690245 97.7393
2023-10-06T07:00:00 8.800245 91.41967
2023-10-06T08:00:00 11.94025 80.45038
2023-10-06T09:00:00 14.44025 70.64228
2023-10-06T10:00:00 16.62025 58.97804
2023-10-06T11:00:00 18.63025 51.53707
2023-10-06T12:00:00 20.24025 46.38191
2023-10-06T13:00:00 21.41025 41.46785
2023-10-06T14:00:00 21.76024 38.8129
2023-10-06T15:00:00 21.61025 40.01646
2023-10-06T16:00:00 20.53025 44.38792
2023-10-06T17:00:00 18.99025 48.82739
2023-10-06T18:00:00 15.98025 59.34354
2023-10-06T19:00:00 13.57025 67.12662
2023-10-06T20:00:00 11.49025 75.57661
2023-10-06T21:00:00 9.160245 84.25397
2023-10-06T22:00:00 8.320246 87.1244
2023-10-06T23:00:00 7.880245 87.38097
2023-10-07T00:00:00 7.630245 88.14967
2023-10-07T01:00:00 7.090245 89.02414
2023-10-07T02:00:00 6.410245 90.59782
2023-10-07T03:00:00 6.400245 90.27979
2023-10-07T04:00:00 6.110245 89.87437
2023-10-07T05:00:00 6.070245 90.4417
2023-10-07T06:00:00 5.990245 91.97388
2023-10-07T07:00:00 9.100245 82.39877
2023-10-07T08:00:00 12.59025 70.95026
2023-10-07T09:00:00 15.55025 56.60714
2023-10-07T10:00:00 18.69025 48.07956
2023-10-07T11:00:00 20.76024 42.753
2023-10-07T12:00:00 22.36025 38.58748
2023-10-07T13:00:00 23.50025 34.73631
2023-10-07T14:00:00 24.24025 31.21239
2023-10-07T15:00:00 24.19025 31.19812
2023-10-07T16:00:00 22.21025 50.61106
2023-10-07T17:00:00 19.19025 49.35217
2023-10-07T18:00:00 17.11025 56.04564
2023-10-07T19:00:00 13.36025 70.13819
2023-10-07T20:00:00 12.09025 75.16503
2023-10-07T21:00:00 11.81025 76.36217
2023-10-07T22:00:00 11.26025 75.84905
2023-10-07T23:00:00 10.92025 76.10426
2023-10-08T00:00:00 10.45025 78.64312
2023-10-08T01:00:00 10.38025 77.7135
2023-10-08T02:00:00 10.12025 77.72444
2023-10-08T03:00:00 9.780245 78.91848
2023-10-08T04:00:00 9.310246 81.97183
2023-10-08T05:00:00 9.170245 85.31
2023-10-08T06:00:00 9.260245 86.26732
2023-10-08T07:00:00 12.08025 76.14727
2023-10-08T08:00:00 15.51025 65.29618
2023-10-08T09:00:00 18.97025 53.30135
2023-10-08T10:00:00 21.62025 47.27488
2023-10-08T11:00:00 23.96025 40.93792
2023-10-08T12:00:00 25.71025 36.95666
2023-10-08T13:00:00 26.58025 34.18391
2023-10-08T14:00:00 27.04025 32.77566
2023-10-08T15:00:00 26.92025 31.73563
2023-10-08T16:00:00 26.02025 30.37753
2023-10-08T17:00:00 22.28025 50.83202
2023-10-08T18:00:00 18.40025 63.10193
2023-10-08T19:00:00 15.10025 77.42333
2023-10-08T20:00:00 14.49025 80.54341
2023-10-08T21:00:00 13.80025 83.29354
2023-10-08T22:00:00 13.39025 85.3281
2023-10-08T23:00:00 12.76025 86.98984
2023-10-09T00:00:00 12.41025 86.43049
2023-10-09T01:00:00 12.01025 86.73843
2023-10-09T02:00:00 11.68025 86.17844
2023-10-09T03:00:00 11.25025 88.19878
2023-10-09T04:00:00 11.12025 86.99911
2023-10-09T05:00:00 11.22025 86.95042
2023-10-09T06:00:00 11.13025 85.53578
2023-10-09T07:00:00 13.57025 78.80718
2023-10-09T08:00:00 16.89025 68.79229
2023-10-09T09:00:00 20.21025 57.78876
2023-10-09T10:00:00 23.02025 51.63866
2023-10-09T11:00:00 24.65025 47.25772
2023-10-09T12:00:00 25.78025 44.16824
2023-10-09T13:00:00 26.58025 41.56684
2023-10-09T14:00:00 26.82025 41.30615
2023-10-09T15:00:00 26.63025 40.4166
2023-10-09T16:00:00 25.05025 53.469
2023-10-09T17:00:00 23.92025 49.8069
2023-10-09T18:00:00 21.11025 61.3428
2023-10-09T19:00:00 17.75025 76.17474
2023-10-09T20:00:00 16.99025 78.84873
2023-10-09T21:00:00 16.03025 82.63688
2023-10-09T22:00:00 15.48025 84.38217
2023-10-09T23:00:00 14.44025 88.25533
2023-10-10T00:00:00 13.61025 90.07182
2023-10-10T01:00:00 12.85025 90.85557
2023-10-10T02:00:00 11.96025 93.31573
2023-10-10T03:00:00 11.63025 94.23885
2023-10-10T04:00:00 11.45025 94.2299
2023-10-10T05:00:00 11.10025 95.6143
2023-10-10T06:00:00 11.15025 95.04077
2023-10-10T07:00:00 13.47025 86.13754
2023-10-10T08:00:00 16.56025 76.98984
2023-10-10T09:00:00 19.32025 68.55841
2023-10-10T10:00:00 21.60025 59.44122
2023-10-10T11:00:00 23.48025 53.23991
2023-10-10T12:00:00 25.02025 47.01743
2023-10-10T13:00:00 25.74025 42.61079
2023-10-10T14:00:00 26.01024 39.76297
2023-10-10T15:00:00 25.68024 39.80225
2023-10-10T16:00:00 24.30025 44.13674
2023-10-10T17:00:00 21.26024 57.74217
2023-10-10T18:00:00 17.97025 69.19373
2023-10-10T19:00:00 14.88025 81.78396
2023-10-10T20:00:00 13.66025 88.59574
2023-10-10T21:00:00 13.00025 90.68539
2023-10-10T22:00:00 13.00025 88.95147
2023-10-10T23:00:00 12.41025 89.85725
2023-10-11T00:00:00 11.79025 91.5725
2023-10-11T01:00:00 11.18025 92.83341
2023-10-11T02:00:00 10.55025 93.109
2023-10-11T03:00:00 9.990245 95.24614
2023-10-11T04:00:00 9.680245 95.03858
2023-10-11T05:00:00 9.800245 94.91524
2023-10-11T06:00:00 9.840245 94.53154
2023-10-11T07:00:00 12.27025 87.35033
2023-10-11T08:00:00 16.29025 74.29228
2023-10-11T09:00:00 19.47025 63.59654
2023-10-11T10:00:00 22.14025 53.91547
2023-10-11T11:00:00 24.09025 47.19837
2023-10-11T12:00:00 25.43024 43.66542
2023-10-11T13:00:00 26.14025 41.17008
2023-10-11T14:00:00 26.49025 39.26769
2023-10-11T15:00:00 26.19025 39.39224
2023-10-11T16:00:00 25.49025 37.64706
2023-10-11T17:00:00 22.47025 50.88272
2023-10-11T18:00:00 19.20025 64.50903
2023-10-11T19:00:00 16.82025 74.77904
2023-10-11T20:00:00 15.94025 79.6866
2023-10-11T21:00:00 15.32025 81.95005
2023-10-11T22:00:00 14.98025 82.6687
2023-10-11T23:00:00 14.50025 85.16738
2023-10-12T00:00:00 13.84025 86.17632
2023-10-12T01:00:00 13.39025 86.07169
2023-10-12T02:00:00 13.05025 85.6909
2023-10-12T03:00:00 13.05025 84.32425
2023-10-12T04:00:00 12.74025 85.31284
2023-10-12T05:00:00 12.38025 86.54358
2023-10-12T06:00:00 12.40025 84.75945
2023-10-12T07:00:00 14.63025 78.59947
2023-10-12T08:00:00 17.89025 67.41349
2023-10-12T09:00:00 20.54025 57.8703
2023-10-12T10:00:00 22.84025 50.4778
2023-10-12T11:00:00 24.78025 45.18884
2023-10-12T12:00:00 26.19025 39.0006
2023-10-12T13:00:00 26.47025 36.11669
2023-10-12T14:00:00 26.30025 35.92313
2023-10-12T15:00:00 25.85025 36.37916
2023-10-12T16:00:00 24.25025 41.93867
2023-10-12T17:00:00 21.21025 52.01951
2023-10-12T18:00:00 19.49025 58.34513
2023-10-12T19:00:00 18.61025 62.23189
2023-10-12T20:00:00 17.72025 65.73947
2023-10-12T21:00:00 17.25025 66.74252
2023-10-12T22:00:00 17.34025 66.31772
2023-10-12T23:00:00 16.16025 71.21689
2023-10-13T00:00:00 15.35025 73.48437
2023-10-13T01:00:00 14.19025 77.3297
2023-10-13T02:00:00 13.30025 79.72759
2023-10-13T03:00:00 12.60025 80.05639
2023-10-13T04:00:00 12.46025 79.17185
2023-10-13T05:00:00 12.36025 79.15662
2023-10-13T06:00:00 12.05025 79.86669
2023-10-13T07:00:00 13.98025 74.18092
2023-10-13T08:00:00 17.56025 60.46241
2023-10-13T09:00:00 20.76024 49.54853
2023-10-13T10:00:00 23.57025 41.02033
2023-10-13T11:00:00 25.51024 34.81365
2023-10-13T12:00:00 26.84025 32.47598
2023-10-13T13:00:00 27.69025 28.83605
2023-10-13T14:00:00 28.12025 26.21578
2023-10-13T15:00:00 27.66025 24.76635
2023-10-13T16:00:00 26.00025 26.82928
2023-10-13T17:00:00 23.06025 32.99205
2023-10-13T18:00:00 21.37025 38.30053
2023-10-13T19:00:00 21.15025 40.35328
2023-10-13T20:00:00 21.59025 41.80446
2023-10-13T21:00:00 21.68024 44.74421
2023-10-13T22:00:00 22.44025 45.38364
2023-10-13T23:00:00 22.38025 47.48487
2023-10-14T00:00:00 22.03025 52.89822
2023-10-14T01:00:00 20.99025 62.85906
2023-10-14T02:00:00 20.32025 68.98203
2023-10-14T03:00:00 19.60025 73.99163
2023-10-14T04:00:00 19.15025 76.59715
2023-10-14T05:00:00 18.58025 80.94108
2023-10-14T06:00:00 17.97025 83.51967
2023-10-14T07:00:00 17.91025 83.13566
2023-10-14T08:00:00 18.19025 79.12627
2023-10-14T09:00:00 18.56025 77.45367
2023-10-14T10:00:00 18.57025 75.66428
2023-10-14T11:00:00 16.66025 83.094
2023-10-14T12:00:00 16.28025 85.02638
2023-10-14T13:00:00 15.71025 84.57475
2023-10-14T14:00:00 14.72025 82.69069
2023-10-14T15:00:00 14.11025 78.41464
2023-10-14T16:00:00 13.70025 75.54865
2023-10-14T17:00:00 12.95025 73.89371
2023-10-14T18:00:00 12.41025 74.50504
2023-10-14T19:00:00 11.91025 74.67048
2023-10-14T20:00:00 11.68025 73.1029
2023-10-14T21:00:00 10.94025 76.42352
2023-10-14T22:00:00 10.27025 82.38744
2023-10-14T23:00:00 10.55025 81.80542
2023-10-15T00:00:00 10.31025 83.93421
2023-10-15T01:00:00 10.41025 84.11941
2023-10-15T02:00:00 10.61025 83.85679
2023-10-15T03:00:00 10.35025 85.97446
2023-10-15T04:00:00 10.01025 88.08027
2023-10-15T05:00:00 10.36025 86.56497
2023-10-15T06:00:00 10.20025 86.54783
2023-10-15T07:00:00 10.35025 85.50549
2023-10-15T08:00:00 11.25025 78.76936
2023-10-15T09:00:00 11.99025 69.28012
2023-10-15T10:00:00 12.67025 64.38178
2023-10-15T11:00:00 13.17025 58.47062
2023-10-15T12:00:00 13.31025 56.61198
2023-10-15T13:00:00 12.81025 58.01023
2023-10-15T14:00:00 13.24025 54.67569
2023-10-15T15:00:00 13.03025 53.47239
2023-10-15T16:00:00 12.06025 57.28597
2023-10-15T17:00:00 9.370245 70.88977
2023-10-15T18:00:00 8.120246 76.68288
2023-10-15T19:00:00 6.940245 81.69146
2023-10-15T20:00:00 6.470245 82.37885
2023-10-15T21:00:00 6.190245 81.58167
2023-10-15T22:00:00 5.160245 81.72096
2023-10-15T23:00:00 5.060246 80.77263
2023-10-16T00:00:00 4.920245 79.6537
2023-10-16T01:00:00 4.330246 81.18544
2023-10-16T02:00:00 3.990245 82.25699
2023-10-16T03:00:00 3.910245 82.84253
2023-10-16T04:00:00 3.480246 85.40073
2023-10-16T05:00:00 3.050245 87.85641
2023-10-16T06:00:00 2.650245 89.80817
2023-10-16T07:00:00 4.510245 82.8682
2023-10-16T08:00:00 6.780245 72.76454
2023-10-16T09:00:00 8.830245 64.06202
2023-10-16T10:00:00 10.62025 57.39492
2023-10-16T11:00:00 12.27025 50.37441
2023-10-16T12:00:00 13.38025 44.62505
2023-10-16T13:00:00 14.15025 40.72398
2023-10-16T14:00:00 14.51025 38.86897
2023-10-16T15:00:00 14.23025 39.61143
2023-10-16T16:00:00 12.34025 50.17806
2023-10-16T17:00:00 9.480246 61.74471
2023-10-16T18:00:00 8.410246 68.41371
2023-10-16T19:00:00 7.360245 73.87457
2023-10-16T20:00:00 7.100246 75.47527
2023-10-16T21:00:00 6.030245 79.88884
2023-10-16T22:00:00 5.040245 83.06194
2023-10-16T23:00:00 4.840245 82.61775
2023-10-17T00:00:00 5.060246 81.41339
2023-10-17T01:00:00 4.610245 83.42033
2023-10-17T02:00:00 4.450245 82.9791
2023-10-17T03:00:00 4.310246 82.6012
2023-10-17T04:00:00 3.990245 82.43568
2023-10-17T05:00:00 3.530245 84.97575
2023-10-17T06:00:00 3.590245 84.61552
2023-10-17T07:00:00 5.150245 82.01299
2023-10-17T08:00:00 7.420245 75.58762
2023-10-17T09:00:00 9.120245 71.74392
2023-10-17T10:00:00 10.35025 71.98956
2023-10-17T11:00:00 12.12025 68.44936
2023-10-17T12:00:00 13.56025 64.76598
2023-10-17T13:00:00 14.54025 61.22275
2023-10-17T14:00:00 15.25025 59.24283
2023-10-17T15:00:00 15.18025 59.42934
2023-10-17T16:00:00 13.02025 73.30435
2023-10-17T17:00:00 10.53025 80.18805
2023-10-17T18:00:00 9.160245 86.37531
2023-10-17T19:00:00 8.640245 89.10689
2023-10-17T20:00:00 8.080246 90.48509
2023-10-17T21:00:00 7.460245 91.00102
2023-10-17T22:00:00 7.500245 90.81472
2023-10-17T23:00:00 7.250245 91.68329
2023-10-18T00:00:00 7.280245 92.19681
2023-10-18T01:00:00 7.330246 92.64963
2023-10-18T02:00:00 7.380245 92.33204
2023-10-18T03:00:00 7.780245 91.59585
2023-10-18T04:00:00 7.940245 91.22833
2023-10-18T05:00:00 8.380245 89.63889
2023-10-18T06:00:00 8.090245 90.48591
2023-10-18T07:00:00 9.070246 84.35942
2023-10-18T08:00:00 10.02025 79.28497
2023-10-18T09:00:00 10.34025 78.95216
2023-10-18T10:00:00 11.06025 74.826
2023-10-18T11:00:00 11.98025 71.76249
2023-10-18T12:00:00 13.15025 68.71514
2023-10-18T13:00:00 13.25025 71.37349
2023-10-18T14:00:00 13.16025 75.14848
2023-10-18T15:00:00 12.71025 78.09004
2023-10-18T16:00:00 12.42025 83.96588
2023-10-18T17:00:00 12.44025 84.30856
2023-10-18T18:00:00 11.75025 89.98486
2023-10-18T19:00:00 11.77025 90.89772
2023-10-18T20:00:00 11.60025 92.79649
2023-10-18T21:00:00 11.70025 93.55128
2023-10-18T22:00:00 12.19025 92.83177
2023-10-18T23:00:00 12.11025 94.82937
2023-10-19T00:00:00 12.15025 96.10142
2023-10-19T01:00:00 12.63025 94.78932
2023-10-19T02:00:00 12.87025 93.30399
2023-10-19T03:00:00 12.63025 93.22881
2023-10-19T04:00:00 12.32025 94.7756
2023-10-19T05:00:00 12.02025 96.09689
2023-10-19T06:00:00 11.86025 97.18523
2023-10-19T07:00:00 12.19025 97.45223
2023-10-19T08:00:00 13.25025 94.87882
2023-10-19T09:00:00 13.81025 94.83999
2023-10-19T10:00:00 14.88025 92.07754
2023-10-19T11:00:00 16.12025 89.55924
2023-10-19T12:00:00 16.17025 90.61549
2023-10-19T13:00:00 16.56025 90.11654
2023-10-19T14:00:00 16.75025 90.36351
2023-10-19T15:00:00 16.81025 90.01836
2023-10-19T16:00:00 16.01025 93.6488
2023-10-19T17:00:00 15.19025 95.70097
2023-10-19T18:00:00 14.92025 95.94117
2023-10-19T19:00:00 14.89025 95.31786
2023-10-19T20:00:00 14.90025 94.32988
2023-10-19T21:00:00 14.54025 95.49168
2023-10-19T22:00:00 14.77025 95.06523
2023-10-19T23:00:00 14.41025 96.48984
2023-10-20T00:00:00 14.26025 96.48554
2023-10-20T01:00:00 14.01025 97.23883
2023-10-20T02:00:00 13.92025 96.98245
2023-10-20T03:00:00 14.15025 94.97853
2023-10-20T04:00:00 14.41025 93.38623
2023-10-20T05:00:00 14.27025 93.19534
2023-10-20T06:00:00 14.22025 94.11411
2023-10-20T07:00:00 14.69025 92.06591
2023-10-20T08:00:00 15.23025 90.96397
2023-10-20T09:00:00 15.51025 90.92386
2023-10-20T10:00:00 15.69025 88.07697
2023-10-20T11:00:00 15.67025 88.13275
2023-10-20T12:00:00 15.73025 85.52523
2023-10-20T13:00:00 15.76025 84.30328
2023-10-20T14:00:00 15.84025 81.4792
2023-10-20T15:00:00 15.75025 80.9852
2023-10-20T16:00:00 15.11025 81.97691
2023-10-20T17:00:00 13.87025 86.06498
2023-10-20T18:00:00 13.52025 87.47191
2023-10-20T19:00:00 13.44025 88.04802
2023-10-20T20:00:00 13.45025 87.17459
2023-10-20T21:00:00 12.95025 87.6508
2023-10-20T22:00:00 14.35025 81.49618
2023-10-20T23:00:00 14.99025 78.44489
2023-10-21T00:00:00 14.40025 81.88375
2023-10-21T01:00:00 14.52025 81.7363
2023-10-21T02:00:00 14.65025 82.24384
2023-10-21T03:00:00 14.86025 81.34823
2023-10-21T04:00:00 14.69025 81.05536
2023-10-21T05:00:00 14.14025 83.44652
2023-10-21T06:00:00 13.57025 84.49809
2023-10-21T07:00:00 13.68025 81.5146
2023-10-21T08:00:00 14.36025 76.47952
2023-10-21T09:00:00 14.87025 73.24917
2023-10-21T10:00:00 15.81025 68.06465
2023-10-21T11:00:00 16.58025 61.83885
2023-10-21T12:00:00 17.33025 56.48586
2023-10-21T13:00:00 18.00025 51.825
2023-10-21T14:00:00 17.99025 50.73325
2023-10-21T15:00:00 17.61025 51.36511
2023-10-21T16:00:00 15.90025 63.20523
2023-10-21T17:00:00 15.02025 59.22599
2023-10-21T18:00:00 13.22025 67.93214
2023-10-21T19:00:00 11.61025 77.2762
2023-10-21T20:00:00 10.85025 81.79088
2023-10-21T21:00:00 10.30025 83.99053
2023-10-21T22:00:00 10.55025 86.94013
2023-10-21T23:00:00 10.48025 86.99213
2023-10-22T00:00:00 10.34025 86.91821
2023-10-22T01:00:00 10.18025 85.66181
2023-10-22T02:00:00 9.490245 87.24721
2023-10-22T03:00:00 9.400246 86.52071
2023-10-22T04:00:00 9.390245 86.81783
2023-10-22T05:00:00 9.080245 87.74706
2023-10-22T06:00:00 8.880245 88.45589
2023-10-22T07:00:00 9.990245 85.46418
2023-10-22T08:00:00 12.27025 76.2318
2023-10-22T09:00:00 13.89025 67.28825
2023-10-22T10:00:00 15.17025 60.78923
2023-10-22T11:00:00 16.00025 54.87954
2023-10-22T12:00:00 16.64025 51.24064
2023-10-22T13:00:00 16.97025 50.27791
2023-10-22T14:00:00 16.85025 50.76909
2023-10-22T15:00:00 16.17025 55.152
2023-10-22T16:00:00 13.95025 68.97674
2023-10-22T17:00:00 11.88025 76.79356
2023-10-22T18:00:00 10.81025 82.46014
2023-10-22T19:00:00 9.970245 85.93208
2023-10-22T20:00:00 9.350245 87.11274
2023-10-22T21:00:00 8.820246 89.55413
2023-10-22T22:00:00 8.460245 90.3292
2023-10-22T23:00:00 8.330246 88.95515
2023-10-23T00:00:00 8.140245 89.49361
2023-10-23T01:00:00 7.520245 91.57629
2023-10-23T02:00:00 7.310246 92.00697
2023-10-23T03:00:00 6.950245 93.0762
2023-10-23T04:00:00 6.800245 94.83199
2023-10-23T05:00:00 6.940245 94.90515
2023-10-23T06:00:00 7.180245 94.72023
2023-10-23T07:00:00 8.330246 92.01653
2023-10-23T08:00:00 9.170245 89.83126
2023-10-23T09:00:00 10.17025 86.30811
2023-10-23T10:00:00 10.41025 87.40115
2023-10-23T11:00:00 11.17025 87.12231
2023-10-23T12:00:00 11.98025 86.32699
2023-10-23T13:00:00 13.04025 82.47509
2023-10-23T14:00:00 13.88025 77.38385
2023-10-23T15:00:00 14.03025 75.65631
2023-10-23T16:00:00 12.61025 84.49915
2023-10-23T17:00:00 11.55025 90.39358
2023-10-23T18:00:00 11.02025 94.20833
2023-10-23T19:00:00 11.19025 94.59718
2023-10-23T20:00:00 11.11025 94.59337
2023-10-23T21:00:00 10.69025 96.4375
2023-10-23T22:00:00 10.96025 97.55209
2023-10-23T23:00:00 10.83025 97.87643
2023-10-24T00:00:00 10.98025 97.55258
2023-10-24T01:00:00 10.89025 98.73364
2023-10-24T02:00:00 10.51025 99.6594
2023-10-24T03:00:00 10.34025 99.59097
2023-10-24T04:00:00 10.57025 98.79478
2023-10-24T05:00:00 11.04025 97.09785
2023-10-24T06:00:00 11.28025 97.03971
2023-10-24T07:00:00 11.61025 96.40373
2023-10-24T08:00:00 11.89025 97.8995
2023-10-24T09:00:00 12.02025 98.35816
2023-10-24T10:00:00 12.68025 96.31056
2023-10-24T11:00:00 13.27025 95.69665
2023-10-24T12:00:00 13.95025 90.15754
2023-10-24T13:00:00 14.12025 86.83627
2023-10-24T14:00:00 13.85025 89.20099
2023-10-24T15:00:00 13.65025 89.71773
2023-10-24T16:00:00 13.14025 91.29987
2023-10-24T17:00:00 12.11025 94.19959
2023-10-24T18:00:00 11.67025 94.61973
2023-10-24T19:00:00 11.33025 95.17615
2023-10-24T20:00:00 10.07025 97.39772
2023-10-24T21:00:00 9.880245 98.45085
2023-10-24T22:00:00 9.770246 98.1166
2023-10-24T23:00:00 9.430245 97.90966
2023-10-25T00:00:00 9.240245 98.17127
2023-10-25T01:00:00 8.630245 99.84395
2023-10-25T02:00:00 8.440246 99.97828
2023-10-25T03:00:00 8.800245 99.03398
2023-10-25T04:00:00 9.170245 97.57123
2023-10-25T05:00:00 9.550245 96.4631
2023-10-25T06:00:00 9.700245 96.33772
2023-10-25T07:00:00 9.970245 95.37433
2023-10-25T08:00:00 11.44025 91.98003
2023-10-25T09:00:00 12.57025 87.49701
2023-10-25T10:00:00 13.81025 82.74042
2023-10-25T11:00:00 15.11025 77.5282
2023-10-25T12:00:00 14.59025 82.78408
2023-10-25T13:00:00 14.43025 84.48502
2023-10-25T14:00:00 14.86025 81.72706
2023-10-25T15:00:00 15.15025 78.57377
2023-10-25T16:00:00 15.15025 78.41711
2023-10-25T17:00:00 14.86025 79.10748
2023-10-25T18:00:00 14.21025 80.88127
2023-10-25T19:00:00 13.47025 83.08554
2023-10-25T20:00:00 13.05025 83.592
2023-10-25T21:00:00 12.84025 81.7299
2023-10-25T22:00:00 12.64025 77.92004
2023-10-25T23:00:00 12.37025 77.55938
2023-10-26T00:00:00 12.32025 77.34017
2023-10-26T01:00:00 11.76025 83.43139
2023-10-26T02:00:00 11.76025 87.5356
2023-10-26T03:00:00 12.03025 89.28552
2023-10-26T04:00:00 11.94025 93.50185
2023-10-26T05:00:00 11.75025 97.96171
2023-10-26T06:00:00 12.00025 98.75018
2023-10-26T07:00:00 12.85025 94.98742
2023-10-26T08:00:00 14.19025 94.42172
2023-10-26T09:00:00 14.87025 91.05832
2023-10-26T10:00:00 15.66025 85.18193
2023-10-26T11:00:00 16.17025 80.24624
2023-10-26T12:00:00 15.93025 79.94852
2023-10-26T13:00:00 15.49025 81.27146
2023-10-26T14:00:00 14.82025 82.59372
2023-10-26T15:00:00 13.95025 85.16303
2023-10-26T16:00:00 13.06025 87.83695
2023-10-26T17:00:00 12.13025 92.457
2023-10-26T18:00:00 11.67025 95.12702
2023-10-26T19:00:00 11.39025 96.84852
2023-10-26T20:00:00 11.07025 97.9473
2023-10-26T21:00:00 10.88025 98.33762
2023-10-26T22:00:00 10.74025 97.80875
2023-10-26T23:00:00 10.57025 97.93626
2023-10-27T00:00:00 10.33025 98.06274
2023-10-27T01:00:00 10.31025 98.72427
2023-10-27T02:00:00 10.30025 98.45882
2023-10-27T03:00:00 10.74025 96.5689
2023-10-27T04:00:00 11.27025 92.58951
2023-10-27T05:00:00 11.64025 89.97596
2023-10-27T06:00:00 11.67025 87.76333
2023-10-27T07:00:00 11.54025 86.74831
2023-10-27T08:00:00 11.94025 83.00291
2023-10-27T09:00:00 11.97025 82.72597
2023-10-27T10:00:00 12.50025 82.18202
2023-10-27T11:00:00 13.20025 77.79836
2023-10-27T12:00:00 13.86025 74.76366
2023-10-27T13:00:00 14.19025 74.77131
2023-10-27T14:00:00 14.58025 73.39342
2023-10-27T15:00:00 14.44025 71.79923
2023-10-27T16:00:00 13.06025 78.09252
2023-10-27T17:00:00 10.88025 87.86509
2023-10-27T18:00:00 11.05025 86.87387
2023-10-27T19:00:00 11.86025 83.44399
2023-10-27T20:00:00 11.21025 86.94939
2023-10-27T21:00:00 11.23025 86.18823
2023-10-27T22:00:00 10.90025 82.47219
2023-10-27T23:00:00 10.89025 80.24153
2023-10-28T00:00:00 10.71025 81.21252
2023-10-28T01:00:00 10.82025 80.50701
2023-10-28T02:00:00 10.72025 80.38184
2023-10-28T03:00:00 10.98025 79.92526
2023-10-28T04:00:00 10.88025 79.63635
2023-10-28T05:00:00 11.06025 78.25413
2023-10-28T06:00:00 11.34025 76.54453
2023-10-28T07:00:00 11.56025 75.07083
2023-10-28T08:00:00 12.66025 70.96424
2023-10-28T09:00:00 14.09025 66.41686
2023-10-28T10:00:00 15.12025 60.73533
2023-10-28T11:00:00 14.76025 65.08342
2023-10-28T12:00:00 15.57025 62.4441
2023-10-28T13:00:00 16.25025 58.76524
2023-10-28T14:00:00 16.26025 55.59477
2023-10-28T15:00:00 16.32025 51.33024
2023-10-28T16:00:00 15.18025 56.31569
2023-10-28T17:00:00 13.89025 63.38509
2023-10-28T18:00:00 13.39025 66.12515
2023-10-28T19:00:00 12.91025 68.71178
2023-10-28T20:00:00 12.58025 69.88289
2023-10-28T21:00:00 12.28025 71.4271
2023-10-28T22:00:00 11.78025 75.99147
2023-10-28T23:00:00 11.18025 78.92065
2023-10-29T00:00:00 10.85025 79.4678
2023-10-29T01:00:00 10.54025 81.41173
2023-10-29T02:00:00 10.08025 82.13513
2023-10-29T03:00:00 10.17025 79.30827
2023-10-29T04:00:00 10.11025 78.20897
2023-10-29T05:00:00 9.860246 80.42074
2023-10-29T06:00:00 9.600245 82.92407
2023-10-29T07:00:00 10.09025 82.47652
2023-10-29T08:00:00 11.69025 80.19502
2023-10-29T09:00:00 12.98025 77.71053
2023-10-29T10:00:00 13.36025 79.46836
2023-10-29T11:00:00 14.99025 72.97638
2023-10-29T12:00:00 15.71025 68.7346
2023-10-29T13:00:00 16.41025 63.8821
2023-10-29T14:00:00 16.68024 63.25747
2023-10-29T15:00:00 16.91025 60.34583
2023-10-29T16:00:00 16.64025 65.10763
2023-10-29T17:00:00 15.05025 77.05473
2023-10-29T18:00:00 15.43025 74.83732
2023-10-29T19:00:00 14.41025 85.15746
2023-10-29T20:00:00 13.39025 90.77419
2023-10-29T21:00:00 12.74025 93.17301
2023-10-29T22:00:00 12.23025 91.60274
2023-10-29T23:00:00 11.63025 92.36372
2023-10-30T00:00:00 10.72025 93.93939
2023-10-30T01:00:00 9.880245 95.56451
2023-10-30T02:00:00 9.460245 96.06763
2023-10-30T03:00:00 9.040245 97.96669
2023-10-30T04:00:00 8.400246 98.08479
2023-10-30T05:00:00 8.250245 97.87994
2023-10-30T06:00:00 8.770246 96.56675
2023-10-30T07:00:00 9.040245 95.07352
2023-10-30T08:00:00 10.35025 91.5951
2023-10-30T09:00:00 11.54025 89.18333
2023-10-30T10:00:00 12.87025 88.5257
2023-10-30T11:00:00 13.90025 83.52844
2023-10-30T12:00:00 14.46025 82.00073
2023-10-30T13:00:00 14.69025 80.09008
2023-10-30T14:00:00 14.39025 81.66459
2023-10-30T15:00:00 13.97025 86.13267
2023-10-30T16:00:00 13.55025 90.06717
2023-10-30T17:00:00 13.67025 89.06783
2023-10-30T18:00:00 12.50025 93.78126
2023-10-30T19:00:00 12.71025 89.88136
2023-10-30T20:00:00 12.22025 92.40087
2023-10-30T21:00:00 11.95025 93.12826
2023-10-30T22:00:00 12.03025 88.6283
2023-10-30T23:00:00 11.82025 88.43058
2023-10-31T00:00:00 11.53025 87.98715
2023-10-31T01:00:00 11.09025 87.05506
2023-10-31T02:00:00 10.82025 86.31975
2023-10-31T03:00:00 10.96025 83.21605
2023-10-31T04:00:00 10.55025 85.35324
2023-10-31T05:00:00 10.30025 87.92822
2023-10-31T06:00:00 10.16025 90.16026
2023-10-31T07:00:00 10.34025 91.09845
2023-10-31T08:00:00 10.92025 89.7955
2023-10-31T09:00:00 11.50025 87.56919
2023-10-31T10:00:00 12.98025 76.09335
2023-10-31T11:00:00 13.41025 70.9677
2023-10-31T12:00:00 12.89025 77.48562
2023-10-31T13:00:00 12.54025 81.85491
2023-10-31T14:00:00 12.24025 85.94858
2023-10-31T15:00:00 12.52025 86.67441
2023-10-31T16:00:00 12.43025 86.20057
2023-10-31T17:00:00 12.15025 87.69152
2023-10-31T18:00:00 11.75025 87.7119
2023-10-31T19:00:00 11.50025 88.58031
2023-10-31T20:00:00 11.13025 88.7264
2023-10-31T21:00:00 10.66025 88.14282
2023-10-31T22:00:00 10.09025 89.35941
2023-10-31T23:00:00 9.670245 88.83468
2023-11-01T00:00:00 9.310246 88.92339
2023-11-01T01:00:00 8.820246 87.78136
2023-11-01T02:00:00 8.200246 88.14527
2023-11-01T03:00:00 7.650245 89.44936
2023-11-01T04:00:00 7.040245 91.28497
2023-11-01T05:00:00 6.590245 92.14715
2023-11-01T06:00:00 6.320245 92.58012
2023-11-01T07:00:00 6.440245 91.36545
2023-11-01T08:00:00 8.250245 86.93571
2023-11-01T09:00:00 10.03025 83.84145
2023-11-01T10:00:00 11.27025 82.29671
2023-11-01T11:00:00 12.20025 80.26971
2023-11-01T12:00:00 13.14025 74.28144
2023-11-01T13:00:00 13.78025 69.50847
2023-11-01T14:00:00 13.48025 69.68461
2023-11-01T15:00:00 13.08025 69.50695
2023-11-01T16:00:00 11.62025 79.15114
2023-11-01T17:00:00 11.80025 77.36047
2023-11-01T18:00:00 11.28025 82.29806
2023-11-01T19:00:00 10.70025 84.73196
2023-11-01T20:00:00 9.150246 90.44813
2023-11-01T21:00:00 8.500245 89.64948
2023-11-01T22:00:00 8.350245 85.62846
2023-11-01T23:00:00 8.880245 83.11591
2023-11-02T00:00:00 7.510245 87.89211
2023-11-02T01:00:00 7.410245 88.25067
2023-11-02T02:00:00 8.590245 84.71049
2023-11-02T03:00:00 8.710245 85.84856
2023-11-02T04:00:00 8.980246 86.83376
2023-11-02T05:00:00 9.180245 87.878
2023-11-02T06:00:00 8.850245 93.06876
2023-11-02T07:00:00 8.820246 94.73865
2023-11-02T08:00:00 9.150246 91.00806
2023-11-02T09:00:00 10.22025 86.19556
2023-11-02T10:00:00 10.57025 84.71645
2023-11-02T11:00:00 11.04025 82.20956
2023-11-02T12:00:00 10.63025 83.17344
2023-11-02T13:00:00 10.70025 82.21976
2023-11-02T14:00:00 10.59025 82.60031
2023-11-02T15:00:00 10.78025 80.17014
2023-11-02T16:00:00 10.48025 80.6788
2023-11-02T17:00:00 9.820246 82.21276
2023-11-02T18:00:00 9.630245 81.9597
2023-11-02T19:00:00 9.470245 80.3068
2023-11-02T20:00:00 8.900246 82.31406
2023-11-02T21:00:00 8.410246 84.10117
2023-11-02T22:00:00 6.500245 88.71821
2023-11-02T23:00:00 6.530245 87.42109
2023-11-03T00:00:00 6.830246 86.11203
2023-11-03T01:00:00 7.260245 83.95351
2023-11-03T02:00:00 7.520245 83.34155
2023-11-03T03:00:00 7.520245 84.16403
2023-11-03T04:00:00 7.600246 83.93868
2023-11-03T05:00:00 7.590245 84.17299
2023-11-03T06:00:00 7.580246 84.40791
2023-11-03T07:00:00 7.520245 84.57795
2023-11-03T08:00:00 7.600246 82.65328
2023-11-03T09:00:00 8.040245 79.36135
2023-11-03T10:00:00 8.930245 73.86093
2023-11-03T11:00:00 9.600245 69.69904
2023-11-03T12:00:00 9.850245 69.85004
2023-11-03T13:00:00 10.01025 70.67301
2023-11-03T14:00:00 10.03025 68.81535
2023-11-03T15:00:00 9.810246 69.93998
2023-11-03T16:00:00 9.400246 71.2464
2023-11-03T17:00:00 7.330246 82.26777
2023-11-03T18:00:00 6.450245 86.25013
2023-11-03T19:00:00 6.180245 86.21886
2023-11-03T20:00:00 6.030245 86.50687
2023-11-03T21:00:00 6.390245 84.73392
2023-11-03T22:00:00 6.710245 84.05952
2023-11-03T23:00:00 7.120246 82.52855
2023-11-04T00:00:00 7.440245 81.01864
2023-11-04T01:00:00 7.720245 79.53439
2023-11-04T02:00:00 7.600246 81.32803
2023-11-04T03:00:00 7.530245 82.06483
2023-11-04T04:00:00 7.630245 81.44689
2023-11-04T05:00:00 7.710245 80.09499
2023-11-04T06:00:00 7.140245 81.43259
2023-11-04T07:00:00 7.020245 80.38519
2023-11-04T08:00:00 8.130245 74.44248
2023-11-04T09:00:00 8.750245 72.48444
2023-11-04T10:00:00 8.950245 74.3862
2023-11-04T11:00:00 9.610246 71.74143
2023-11-04T12:00:00 9.310246 75.9276
2023-11-04T13:00:00 9.030245 79.07444
2023-11-04T14:00:00 9.140245 81.77758
2023-11-04T15:00:00 9.010245 90.56102
2023-11-04T16:00:00 9.970245 86.40459
2023-11-04T17:00:00 10.56025 81.80681
2023-11-04T18:00:00 10.50025 81.74233
2023-11-04T19:00:00 10.27025 83.12663
2023-11-04T20:00:00 10.22025 82.83501
2023-11-04T21:00:00 10.49025 81.57266
2023-11-04T22:00:00 11.47025 74.12963
2023-11-04T23:00:00 11.84025 68.81784
2023-11-05T00:00:00 12.01025 64.76798
2023-11-05T01:00:00 12.25025 63.79267
2023-11-05T02:00:00 12.34025 63.81389
2023-11-05T03:00:00 11.84025 72.13203
2023-11-05T04:00:00 11.69025 75.19729
2023-11-05T05:00:00 11.76025 75.05489
2023-11-05T06:00:00 11.46025 78.3717
2023-11-05T07:00:00 11.05025 79.88097
2023-11-05T08:00:00 10.68025 80.70795
2023-11-05T09:00:00 11.10025 80.43771
2023-11-05T10:00:00 12.29025 73.82298
2023-11-05T11:00:00 12.45025 74.00427
2023-11-05T12:00:00 12.96025 71.56092
2023-11-05T13:00:00 12.84025 71.43945
2023-11-05T14:00:00 12.51025 71.0807
2023-11-05T15:00:00 12.16025 72.29357
2023-11-05T16:00:00 12.12025 69.78808
2023-11-05T17:00:00 11.55025 70.74098
2023-11-05T18:00:00 11.68025 69.50375
2023-11-05T19:00:00 11.49025 69.41574
2023-11-05T20:00:00 11.33025 70.79454
2023-11-05T21:00:00 11.01025 73.89108
2023-11-05T22:00:00 10.85025 76.77816
2023-11-05T23:00:00 10.81025 76.77136
2023-11-06T00:00:00 10.78025 75.24268
2023-11-06T01:00:00 10.77025 75.29298
2023-11-06T02:00:00 10.73025 75.23373
2023-11-06T03:00:00 10.68025 75.95738
2023-11-06T04:00:00 10.87025 75.62386
2023-11-06T05:00:00 10.75025 77.02664
2023-11-06T06:00:00 10.12025 80.90467
2023-11-06T07:00:00 10.44025 79.95401
2023-11-06T08:00:00 11.01025 77.38941
2023-11-06T09:00:00 11.77025 72.16819
2023-11-06T10:00:00 12.12025 71.05178
2023-11-06T11:00:00 12.24025 72.90764
2023-11-06T12:00:00 12.83025 67.84831
2023-11-06T13:00:00 12.76025 69.24986
2023-11-06T14:00:00 12.71025 68.85902
2023-11-06T15:00:00 11.75025 73.11615
2023-11-06T16:00:00 10.66025 78.29773
2023-11-06T17:00:00 10.16025 79.36155
2023-11-06T18:00:00 9.560246 82.74706
2023-11-06T19:00:00 9.350245 83.23558
2023-11-06T20:00:00 8.790245 86.5137
2023-11-06T21:00:00 8.340245 88.22023
2023-11-06T22:00:00 8.330246 88.15816
2023-11-06T23:00:00 8.660245 87.52284
2023-11-07T00:00:00 8.350245 88.64977
2023-11-07T01:00:00 8.170245 87.8371
2023-11-07T02:00:00 7.890245 87.86966
2023-11-07T03:00:00 8.460245 84.81238
2023-11-07T04:00:00 8.360246 84.09482
2023-11-07T05:00:00 8.710245 82.11609
2023-11-07T06:00:00 8.580245 82.38451
2023-11-07T07:00:00 8.680245 82.16911
2023-11-07T08:00:00 9.280245 79.94408
2023-11-07T09:00:00 9.800245 79.19575
2023-11-07T10:00:00 9.980246 76.52315
2023-11-07T11:00:00 10.15025 74.50462
2023-11-07T12:00:00 9.400246 80.35207
2023-11-07T13:00:00 9.380245 79.6266
2023-11-07T14:00:00 9.430245 79.63431
2023-11-07T15:00:00 9.310246 77.86094
2023-11-07T16:00:00 8.620245 80.51514
2023-11-07T17:00:00 7.690245 83.53966
2023-11-07T18:00:00 7.330246 84.02158
2023-11-07T19:00:00 6.510245 87.41894
2023-11-07T20:00:00 5.970245 89.29355
2023-11-07T21:00:00 5.700245 89.7104
2023-11-07T22:00:00 5.450245 89.9415
2023-11-07T23:00:00 5.160245 89.97886
2023-11-08T00:00:00 5.330246 89.35906
2023-11-08T01:00:00 4.980245 90.15428
2023-11-08T02:00:00 4.960245 89.2602
2023-11-08T03:00:00 5.040245 89.39483
2023-11-08T04:00:00 5.510245 88.36935
2023-11-08T05:00:00 5.820245 88.15128
2023-11-08T06:00:00 6.240245 87.14371
2023-11-08T07:00:00 6.570245 87.17973
2023-11-08T08:00:00 7.290245 85.80361
2023-11-08T09:00:00 8.260245 82.45531
2023-11-08T10:00:00 9.950245 74.83212
2023-11-08T11:00:00 10.90025 70.70709
2023-11-08T12:00:00 11.80025 66.04276
2023-11-08T13:00:00 12.32025 60.76106
2023-11-08T14:00:00 12.38025 61.03207
2023-11-08T15:00:00 12.05025 64.10266
2023-11-08T16:00:00 10.52025 64.82999
2023-11-08T17:00:00 6.610245 84.10589
2023-11-08T18:00:00 5.810246 87.59092
2023-11-08T19:00:00 5.100246 90.29303
2023-11-08T20:00:00 4.280245 92.56491
2023-11-08T21:00:00 3.760245 93.92497
2023-11-08T22:00:00 3.810246 91.47759
2023-11-08T23:00:00 3.690246 91.07533
2023-11-09T00:00:00 4.010245 88.02387
2023-11-09T01:00:00 3.770246 86.61571
2023-11-09T02:00:00 3.890245 84.16743
2023-11-09T03:00:00 4.210246 81.16703
2023-11-09T04:00:00 4.800245 78.49261
2023-11-09T05:00:00 5.330246 76.3494
2023-11-09T06:00:00 6.090245 74.42703
2023-11-09T07:00:00 6.770245 75.0918
2023-11-09T08:00:00 7.650245 74.56352
2023-11-09T09:00:00 8.370246 78.47202
2023-11-09T10:00:00 10.05025 78.36195
2023-11-09T11:00:00 10.38025 77.65977
2023-11-09T12:00:00 10.26025 80.64661
2023-11-09T13:00:00 9.980246 84.93675
2023-11-09T14:00:00 9.710245 88.65614
2023-11-09T15:00:00 9.690246 87.98882
2023-11-09T16:00:00 9.790245 86.86034
2023-11-09T17:00:00 9.720245 86.49602
2023-11-09T18:00:00 9.660245 84.72347
2023-11-09T19:00:00 9.170245 83.50058
2023-11-09T20:00:00 9.350245 81.80717
2023-11-09T21:00:00 9.520246 81.09763
2023-11-09T22:00:00 9.650246 82.47382
2023-11-09T23:00:00 9.590245 85.59444
2023-11-10T00:00:00 9.250245 87.40257
2023-11-10T01:00:00 8.910245 88.45876
2023-11-10T02:00:00 8.740245 90.29025
2023-11-10T03:00:00 8.600245 89.96796
2023-11-10T04:00:00 8.420245 90.20126
2023-11-10T05:00:00 8.180245 90.93221
2023-11-10T06:00:00 8.100245 91.05167
2023-11-10T07:00:00 7.960245 90.47516
2023-11-10T08:00:00 8.060246 89.54845
2023-11-10T09:00:00 8.390245 87.73776
2023-11-10T10:00:00 9.300245 74.19083
2023-11-10T11:00:00 9.810246 65.49406
2023-11-10T12:00:00 10.38025 57.66075
2023-11-10T13:00:00 10.67025 53.97197
2023-11-10T14:00:00 10.54025 55.75135
2023-11-10T15:00:00 10.28025 60.03258
2023-11-10T16:00:00 9.790245 63.83643
2023-11-10T17:00:00 9.330245 67.55416
2023-11-10T18:00:00 9.200245 68.00595
2023-11-10T19:00:00 8.940246 69.95417
2023-11-10T20:00:00 8.750245 72.63821
2023-11-10T21:00:00 8.510245 74.82974
2023-11-10T22:00:00 8.720245 80.98087
2023-11-10T23:00:00 8.630245 85.42376
2023-11-11T00:00:00 8.660245 83.37609
2023-11-11T01:00:00 8.270246 83.84927
2023-11-11T02:00:00 7.990245 81.49922
2023-11-11T03:00:00 7.500245 81.19894
2023-11-11T04:00:00 7.050245 83.57237
2023-11-11T05:00:00 7.060246 83.04546
2023-11-11T06:00:00 6.930245 83.49754
2023-11-11T07:00:00 6.710245 82.41277
2023-11-11T08:00:00 7.320245 80.94363
2023-11-11T09:00:00 7.610245 79.62923
2023-11-11T10:00:00 8.400246 75.9255
2023-11-11T11:00:00 8.400246 73.60358
2023-11-11T12:00:00 8.270246 74.41615
2023-11-11T13:00:00 8.630245 74.95747
2023-11-11T14:00:00 8.150246 74.76293
2023-11-11T15:00:00 8.070246 74.3785
2023-11-11T16:00:00 7.320245 81.74651
2023-11-11T17:00:00 6.900245 84.67854
2023-11-11T18:00:00 6.730245 86.76917
2023-11-11T19:00:00 6.380245 87.71333
2023-11-11T20:00:00 5.800245 89.65631
2023-11-11T21:00:00 5.360245 91.66693
2023-11-11T22:00:00 4.260245 93.75641
2023-11-11T23:00:00 4.130245 93.01669
2023-11-12T00:00:00 2.570245 95.20931
2023-11-12T01:00:00 2.370246 96.8577
2023-11-12T02:00:00 2.140245 95.87484
2023-11-12T03:00:00 2.460245 95.96014
2023-11-12T04:00:00 2.890245 95.09041
2023-11-12T05:00:00 3.680245 93.11801
2023-11-12T06:00:00 4.080246 93.41164
2023-11-12T07:00:00 4.320245 93.42768
2023-11-12T08:00:00 4.260245 94.02335
2023-11-12T09:00:00 4.030245 95.35619
2023-11-12T10:00:00 4.020246 95.15248
2023-11-12T11:00:00 3.740245 96.09084
2023-11-12T12:00:00 3.460246 97.45746
2023-11-12T13:00:00 3.690246 97.74336
2023-11-12T14:00:00 5.270245 94.88368
2023-11-12T15:00:00 7.580246 97.1236
2023-11-12T16:00:00 9.140245 95.72854
2023-11-12T17:00:00 10.52025 88.55014
2023-11-12T18:00:00 10.74025 85.95904
2023-11-12T19:00:00 11.04025 85.58381
2023-11-12T20:00:00 11.23025 87.60188
2023-11-12T21:00:00 11.23025 89.9426
2023-11-12T22:00:00 11.04025 92.82491
2023-11-12T23:00:00 11.38025 91.97604
2023-11-13T00:00:00 11.96025 89.64002
2023-11-13T01:00:00 12.58025 88.20401
2023-11-13T02:00:00 12.74025 86.407
2023-11-13T03:00:00 12.67025 85.59189
2023-11-13T04:00:00 12.19025 88.10871
2023-11-13T05:00:00 11.81025 91.88132
2023-11-13T06:00:00 12.08025 92.39212
2023-11-13T07:00:00 13.20025 89.08714
2023-11-13T08:00:00 13.88025 86.52463
2023-11-13T09:00:00 14.43025 83.37106
2023-11-13T10:00:00 14.86025 84.53422
2023-11-13T11:00:00 15.30025 83.31157
2023-11-13T12:00:00 14.90025 84.9866
2023-11-13T13:00:00 15.33025 81.84309
2023-11-13T14:00:00 15.99025 77.8722
2023-11-13T15:00:00 16.18025 77.69595
2023-11-13T16:00:00 15.56025 85.78819
2023-11-13T17:00:00 15.23025 88.84739
2023-11-13T18:00:00 15.49025 89.51004
2023-11-13T19:00:00 15.70025 87.9054
2023-11-13T20:00:00 16.16025 85.29157
2023-11-13T21:00:00 16.11025 84.50887
2023-11-13T22:00:00 15.82025 86.15292
2023-11-13T23:00:00 15.55025 85.78715
2023-11-14T00:00:00 15.08025 87.1596
2023-11-14T01:00:00 14.32025 90.42344
2023-11-14T02:00:00 13.46025 93.02834
2023-11-14T03:00:00 12.61025 92.48659
2023-11-14T04:00:00 11.82025 88.49014
2023-11-14T05:00:00 11.17025 85.48218
2023-11-14T06:00:00 11.01025 82.37423
2023-11-14T07:00:00 11.09025 82.38496
2023-11-14T08:00:00 11.44025 81.5378
2023-11-14T09:00:00 11.78025 80.75643
2023-11-14T10:00:00 12.12025 76.31049
2023-11-14T11:00:00 11.77025 77.99317
2023-11-14T12:00:00 11.25025 82.18182
2023-11-14T13:00:00 10.71025 88.26746
2023-11-14T14:00:00 10.42025 90.98089
2023-11-14T15:00:00 10.36025 91.65796
2023-11-14T16:00:00 11.03025 91.3343
2023-11-14T17:00:00 12.15025 88.75816
2023-11-14T18:00:00 12.51025 88.90895
2023-11-14T19:00:00 12.56025 87.84848
2023-11-14T20:00:00 12.58025 83.59023
2023-11-14T21:00:00 12.19025 80.86987
2023-11-14T22:00:00 11.90025 80.55413
2023-11-14T23:00:00 11.67025 80.19207
2023-11-15T00:00:00 11.33025 80.85722
2023-11-15T01:00:00 11.15025 81.16377
2023-11-15T02:00:00 10.78025 82.17432
2023-11-15T03:00:00 10.49025 84.24454
2023-11-15T04:00:00 10.49025 83.09829
2023-11-15T05:00:00 10.49025 83.44071
2023-11-15T06:00:00 10.25025 84.96874
2023-11-15T07:00:00 10.11025 85.71259
2023-11-15T08:00:00 10.35025 84.16964
2023-11-15T09:00:00 10.90025 83.0947
2023-11-15T10:00:00 11.05025 81.98646
2023-11-15T11:00:00 11.49025 79.18527
2023-11-15T12:00:00 11.43025 79.55615
2023-11-15T13:00:00 11.56025 74.3508
2023-11-15T14:00:00 11.65025 75.60467
2023-11-15T15:00:00 11.15025 78.00016
2023-11-15T16:00:00 10.06025 83.4428
2023-11-15T17:00:00 9.520246 84.76495
2023-11-15T18:00:00 9.270246 85.08649
2023-11-15T19:00:00 9.010245 85.35017
2023-11-15T20:00:00 8.330246 86.58305
2023-11-15T21:00:00 7.960245 87.02539
2023-11-15T22:00:00 7.290245 89.91657
2023-11-15T23:00:00 7.160245 90.59738
2023-11-16T00:00:00 7.070245 90.52672
2023-11-16T01:00:00 6.500245 91.43416
2023-11-16T02:00:00 6.430245 91.94225
2023-11-16T03:00:00 5.660245 94.04225
2023-11-16T04:00:00 5.590245 94.83424
2023-11-16T05:00:00 5.390245 95.35832
2023-11-16T06:00:00 5.280245 95.3528
2023-11-16T07:00:00 5.230245 95.35028
2023-11-16T08:00:00 6.010245 93.79984
2023-11-16T09:00:00 6.740245 91.8369
2023-11-16T10:00:00 8.070246 88.99249
2023-11-16T11:00:00 9.580245 82.69259
2023-11-16T12:00:00 9.570246 86.00533
2023-11-16T13:00:00 9.390245 91.15115
2023-11-16T14:00:00 9.820246 87.10203
2023-11-16T15:00:00 9.690246 86.13706
2023-11-16T16:00:00 9.780245 88.96641
2023-11-16T17:00:00 11.58025 88.2893
2023-11-16T18:00:00 12.14025 87.92662
2023-11-16T19:00:00 12.21025 84.79452
2023-11-16T20:00:00 12.14025 83.42268
2023-11-16T21:00:00 11.88025 81.93195
2023-11-16T22:00:00 11.48025 84.02173
2023-11-16T23:00:00 10.36025 84.51755
2023-11-17T00:00:00 9.050245 84.82526
2023-11-17T01:00:00 8.220245 84.5471
2023-11-17T02:00:00 7.780245 85.44215
2023-11-17T03:00:00 7.550245 84.22688
2023-11-17T04:00:00 7.330246 84.97037
2023-11-17T05:00:00 7.140245 85.54553
2023-11-17T06:00:00 7.130245 85.36438
2023-11-17T07:00:00 7.050245 85.89594
2023-11-17T08:00:00 7.020245 86.49745
2023-11-17T09:00:00 7.250245 87.80405
2023-11-17T10:00:00 7.920245 84.74609
2023-11-17T11:00:00 8.120246 82.26314
2023-11-17T12:00:00 8.260245 79.84293
2023-11-17T13:00:00 8.270246 80.0126
2023-11-17T14:00:00 8.210245 79.16561
2023-11-17T15:00:00 8.070246 82.65999
2023-11-17T16:00:00 7.670245 85.78802
2023-11-17T17:00:00 7.180245 88.04278
2023-11-17T18:00:00 6.990245 87.47013
2023-11-17T19:00:00 6.740245 87.62795
2023-11-17T20:00:00 6.540245 87.42216
2023-11-17T21:00:00 6.170245 88.87336
2023-11-17T22:00:00 5.290245 94.21893
2023-11-17T23:00:00 4.890245 95.19854
2023-11-18T00:00:00 4.560246 95.51865
2023-11-18T01:00:00 4.050245 95.83266
2023-11-18T02:00:00 3.840245 96.43783
2023-11-18T03:00:00 3.710246 96.63821
2023-11-18T04:00:00 3.370246 97.10733
2023-11-18T05:00:00 3.370246 98.15112
2023-11-18T06:00:00 3.270246 98.84992
2023-11-18T07:00:00 3.480246 98.71477
2023-11-18T08:00:00 4.140245 98.66203
2023-11-18T09:00:00 5.400245 95.35883
2023-11-18T10:00:00 6.660245 92.41
2023-11-18T11:00:00 7.370246 89.67342
2023-11-18T12:00:00 7.850246 88.47868
2023-11-18T13:00:00 8.280246 87.12013
2023-11-18T14:00:00 8.610246 85.77758
2023-11-18T15:00:00 8.520246 84.58427
2023-11-18T16:00:00 8.270246 84.08337
2023-11-18T17:00:00 8.180245 83.83767
2023-11-18T18:00:00 8.110246 84.94695
2023-11-18T19:00:00 8.050245 87.52038
2023-11-18T20:00:00 8.170245 90.49251
2023-11-18T21:00:00 8.620245 91.59505
2023-11-18T22:00:00 9.120245 91.69441
2023-11-18T23:00:00 9.620245 90.85779
2023-11-19T00:00:00 10.28025 88.28677
2023-11-19T01:00:00 10.93025 85.57139
2023-11-19T02:00:00 11.37025 84.17973
2023-11-19T03:00:00 11.50025 86.04244
2023-11-19T04:00:00 11.63025 88.59213
2023-11-19T05:00:00 11.78025 90.29011
2023-11-19T06:00:00 11.75025 92.49521
2023-11-19T07:00:00 12.04025 92.38961
2023-11-19T08:00:00 12.63025 91.93549
2023-11-19T09:00:00 13.11025 91.35841
2023-11-19T10:00:00 13.65025 89.95572
2023-11-19T11:00:00 14.10025 89.22174
2023-11-19T12:00:00 14.41025 86.8076
2023-11-19T13:00:00 14.70025 86.32222
2023-11-19T14:00:00 14.79025 83.5255
2023-11-19T15:00:00 14.42025 82.43308
2023-11-19T16:00:00 14.02025 83.65444
2023-11-19T17:00:00 13.81025 84.13246
2023-11-19T18:00:00 13.69025 83.67023
2023-11-19T19:00:00 13.56025 81.60767
2023-11-19T20:00:00 13.50025 80.51125
2023-11-19T21:00:00 13.26025 79.66798
2023-11-19T22:00:00 12.88025 80.64008
2023-11-19T23:00:00 12.90025 78.70425
2023-11-20T00:00:00 12.87025 78.16834
2023-11-20T01:00:00 12.72025 76.88126
2023-11-20T02:00:00 12.34025 75.77665
2023-11-20T03:00:00 12.04025 75.31084
2023-11-20T04:00:00 11.64025 76.648
2023-11-20T05:00:00 11.21025 78.17073
2023-11-20T06:00:00 11.04025 77.71463
2023-11-20T07:00:00 10.80025 77.35458
2023-11-20T08:00:00 10.78025 77.19133
2023-11-20T09:00:00 11.04025 74.8224
2023-11-20T10:00:00 11.74025 70.92648
2023-11-20T11:00:00 11.98025 68.6094
2023-11-20T12:00:00 12.20025 67.24416
2023-11-20T13:00:00 12.26025 65.77984
2023-11-20T14:00:00 11.99025 67.24468
2023-11-20T15:00:00 11.47025 68.26232
2023-11-20T16:00:00 10.81025 69.22402
2023-11-20T17:00:00 10.38025 70.79843
2023-11-20T18:00:00 9.930245 72.41145
2023-11-20T19:00:00 9.670245 73.74226
2023-11-20T20:00:00 9.820246 72.94961
2023-11-20T21:00:00 9.570246 75.70886
2023-11-20T22:00:00 9.430245 75.631
2023-11-20T23:00:00 9.370245 77.4377
2023-11-21T00:00:00 9.090245 80.8662
2023-11-21T01:00:00 8.780245 83.62386
2023-11-21T02:00:00 8.540245 86.2467
2023-11-21T03:00:00 8.160246 89.4954
2023-11-21T04:00:00 8.060246 91.99729
2023-11-21T05:00:00 8.030246 93.46716
2023-11-21T06:00:00 7.980245 93.91641
2023-11-21T07:00:00 7.710245 94.87856
2023-11-21T08:00:00 8.130245 94.57369
2023-11-21T09:00:00 8.750245 91.2276
2023-11-21T10:00:00 9.490245 84.99537
2023-11-21T11:00:00 9.730246 82.08693
2023-11-21T12:00:00 9.890245 82.50633
2023-11-21T13:00:00 9.830245 83.93168
2023-11-21T14:00:00 9.550245 86.77523
2023-11-21T15:00:00 9.250245 87.64348
2023-11-21T16:00:00 8.410246 90.57472
2023-11-21T17:00:00 7.960245 92.05374
2023-11-21T18:00:00 7.970245 92.56466
2023-11-21T19:00:00 7.830246 93.45501
2023-11-21T20:00:00 7.760245 93.77412
2023-11-21T21:00:00 7.650245 92.86388
2023-11-21T22:00:00 7.550245 92.15206
2023-11-21T23:00:00 7.450245 93.17308
2023-11-22T00:00:00 7.290245 93.61642
2023-11-22T01:00:00 7.280245 93.94097
2023-11-22T02:00:00 7.290245 93.61642
2023-11-22T03:00:00 7.100246 94.51911
2023-11-22T04:00:00 6.810246 94.96446
2023-11-22T05:00:00 6.330246 95.33804
2023-11-22T06:00:00 5.890245 93.99004
2023-11-22T07:00:00 5.300245 90.18296
2023-11-22T08:00:00 4.810246 86.98453
2023-11-22T09:00:00 4.840245 81.73212
2023-11-22T10:00:00 5.020245 78.07787
2023-11-22T11:00:00 5.240245 78.34098
2023-11-22T12:00:00 5.210245 78.61848
2023-11-22T13:00:00 4.990245 77.56692
2023-11-22T14:00:00 4.610245 78.12028
2023-11-22T15:00:00 4.110245 78.43192
2023-11-22T16:00:00 3.460246 80.40447
2023-11-22T17:00:00 2.900245 82.2153
2023-11-22T18:00:00 2.600246 82.95554
2023-11-22T19:00:00 2.210245 83.20345
2023-11-22T20:00:00 1.880245 87.15096
2023-11-22T21:00:00 1.510245 89.43477
2023-11-22T22:00:00 1.360246 89.81319
2023-11-22T23:00:00 1.650245 86.48776
2023-11-23T00:00:00 0.980245 89.51226
2023-11-23T01:00:00 0.720245 89.28839
2023-11-23T02:00:00 1.490245 86.7225
2023-11-23T03:00:00 1.380245 86.70922
2023-11-23T04:00:00 1.360246 87.08983
2023-11-23T05:00:00 1.290245 87.20962
2023-11-23T06:00:00 1.110246 87.8321
2023-11-23T07:00:00 0.230245 90.43193
2023-11-23T08:00:00 0.980245 90.76908
2023-11-23T09:00:00 2.820245 86.94372
2023-11-23T10:00:00 4.690245 77.90819
2023-11-23T11:00:00 6.070245 73.83612
2023-11-23T12:00:00 7.070245 70.81477
2023-11-23T13:00:00 7.800245 69.91091
2023-11-23T14:00:00 7.860245 70.32443
2023-11-23T15:00:00 7.190245 74.47668
2023-11-23T16:00:00 5.410245 85.09283
2023-11-23T17:00:00 4.730245 90.00354
2023-11-23T18:00:00 4.980245 90.47481
2023-11-23T19:00:00 5.140245 91.00312
2023-11-23T20:00:00 5.500245 90.32838
2023-11-23T21:00:00 5.510245 90.713
2023-11-23T22:00:00 5.800245 89.27742
2023-11-23T23:00:00 6.000245 89.67473
2023-11-24T00:00:00 6.530245 88.5966
2023-11-24T01:00:00 6.910245 87.52299
2023-11-24T02:00:00 7.190245 87.92075
2023-11-24T03:00:00 7.440245 88.56194
2023-11-24T04:00:00 7.510245 89.06377
2023-11-24T05:00:00 7.560246 89.75282
2023-11-24T06:00:00 7.570245 90.50552
2023-11-24T07:00:00 7.640245 90.76304
2023-11-24T08:00:00 7.960245 90.09987
2023-11-24T09:00:00 8.290245 88.82836
2023-11-24T10:00:00 8.660245 87.34146
2023-11-24T11:00:00 8.720245 85.19778
2023-11-24T12:00:00 8.990245 76.35098
2023-11-24T13:00:00 8.730246 72.48047
2023-11-24T14:00:00 8.170245 70.23957
2023-11-24T15:00:00 7.400245 71.80276
2023-11-24T16:00:00 6.770245 74.4501
2023-11-24T17:00:00 6.270245 76.08167
2023-11-24T18:00:00 5.490245 80.03203
2023-11-24T19:00:00 4.950245 80.34988
2023-11-24T20:00:00 4.240245 81.99703
2023-11-24T21:00:00 4.180245 79.41775
2023-11-24T22:00:00 4.180245 78.04597
2023-11-24T23:00:00 4.060246 78.08192
2023-11-25T00:00:00 3.840245 80.05689
2023-11-25T01:00:00 3.610245 82.73948
2023-11-25T02:00:00 3.440246 84.28986
2023-11-25T03:00:00 3.070245 87.35147
2023-11-25T04:00:00 2.900245 87.20561
2023-11-25T05:00:00 2.780245 85.93433
2023-11-25T06:00:00 2.530245 85.40391
2023-11-25T07:00:00 1.990246 86.08723
2023-11-25T08:00:00 2.690246 85.67344
2023-11-25T09:00:00 3.570245 82.4341
2023-11-25T10:00:00 4.320245 81.41885
2023-11-25T11:00:00 4.770245 79.11372
2023-11-25T12:00:00 5.000245 71.56466
2023-11-25T13:00:00 5.130245 68.42266
2023-11-25T14:00:00 4.820245 72.47255
2023-11-25T15:00:00 3.860245 80.46819
2023-11-25T16:00:00 2.760245 90.60143
2023-11-25T17:00:00 2.570245 92.1699
2023-11-25T18:00:00 2.850246 91.72789
2023-11-25T19:00:00 2.970245 90.75116
2023-11-25T20:00:00 3.420245 86.82497
2023-11-25T21:00:00 3.680245 85.98274
2023-11-25T22:00:00 3.760245 87.74423
2023-11-25T23:00:00 3.680245 87.16868
2023-11-26T00:00:00 3.660245 87.04088
2023-11-26T01:00:00 3.690246 86.2324
2023-11-26T02:00:00 3.390245 87.19856
2023-11-26T03:00:00 3.120246 87.29394
2023-11-26T04:00:00 3.110245 87.67257
2023-11-26T05:00:00 2.830246 88.15101
2023-11-26T06:00:00 2.800245 88.40363
2023-11-26T07:00:00 2.730246 89.88088
2023-11-26T08:00:00 2.950245 90.03182
2023-11-26T09:00:00 3.550245 87.65799
2023-11-26T10:00:00 4.220245 84.75888
2023-11-26T11:00:00 4.620246 82.70516
2023-11-26T12:00:00 4.990245 80.87802
2023-11-26T13:00:00 5.180245 78.9538
2023-11-26T14:00:00 5.340245 78.52725
2023-11-26T15:00:00 5.070245 79.67796
2023-11-26T16:00:00 4.200245 86.10765
2023-11-26T17:00:00 3.760245 87.55505
2023-11-26T18:00:00 2.880245 91.20268
2023-11-26T19:00:00 1.690245 94.88396
2023-11-26T20:00:00 1.030245 95.32941
2023-11-26T21:00:00 0.100245 95.62582
2023-11-26T22:00:00 0.120245 95.41653
2023-11-26T23:00:00 0.650245 95.51678
2023-11-27T00:00:00 0.870245 94.55773
2023-11-27T01:00:00 0.970245 94.28835
2023-11-27T02:00:00 0.760245 94.6891
2023-11-27T03:00:00 0.590245 95.58327
2023-11-27T04:00:00 0.570245 96.28349
2023-11-27T05:00:00 0.920245 95.81097
2023-11-27T06:00:00 1.110246 95.12587
2023-11-27T07:00:00 1.730245 92.84241
2023-11-27T08:00:00 2.290246 91.15171
2023-11-27T09:00:00 3.240245 88.25884
2023-11-27T10:00:00 4.150245 82.16162
2023-11-27T11:00:00 4.790245 76.69428
2023-11-27T12:00:00 5.210245 71.34848
2023-11-27T13:00:00 5.600246 67.83218
2023-11-27T14:00:00 5.320245 66.97858
2023-11-27T15:00:00 4.980245 68.58949
2023-11-27T16:00:00 4.900245 73.55223
2023-11-27T17:00:00 4.290246 86.49008
2023-11-27T18:00:00 4.250246 88.74557
2023-11-27T19:00:00 4.400245 89.2695
2023-11-27T20:00:00 4.470245 89.02175
2023-11-27T21:00:00 4.610245 89.4173
2023-11-27T22:00:00 4.640245 89.93124
2023-11-27T23:00:00 5.110245 89.46498
2023-11-28T00:00:00 5.410245 90.64037
2023-11-28T01:00:00 5.620246 91.55801
2023-11-28T02:00:00 5.990245 91.58695
2023-11-28T03:00:00 6.290245 91.54598
2023-11-28T04:00:00 6.530245 90.79857
2023-11-28T05:00:00 6.580246 88.353
2023-11-28T06:00:00 6.310246 85.86936
2023-11-28T07:00:00 5.900245 85.21431
2023-11-28T08:00:00 5.420245 83.8896
2023-11-28T09:00:00 4.740245 83.13927
2023-11-28T10:00:00 4.280245 81.58943
2023-11-28T11:00:00 3.980246 80.60403
2023-11-28T12:00:00 3.740245 79.8663
2023-11-28T13:00:00 3.570245 76.63985
2023-11-28T14:00:00 3.530245 75.51764
2023-11-28T15:00:00 3.370246 76.77181
2023-11-28T16:00:00 3.240245 76.46691
2023-11-28T17:00:00 2.710246 79.23051
2023-11-28T18:00:00 2.860245 78.73422
2023-11-28T19:00:00 2.320245 81.2291
2023-11-28T20:00:00 1.910245 84.26689
2023-11-28T21:00:00 1.430245 85.07345
2023-11-28T22:00:00 1.780245 85.62058
2023-11-28T23:00:00 1.160245 86.68255
2023-11-29T00:00:00 0.890245 87.29101
2023-11-29T01:00:00 0.440245 87.6907
2023-11-29T02:00:00 0.120245 88.50214
2023-11-29T03:00:00 0.240245 87.27865
2023-11-29T04:00:00 0.310245 86.51417
2023-11-29T05:00:00 0.260245 85.67731
2023-11-29T06:00:00 0.400245 84.18201
2023-11-29T07:00:00 0.430245 83.3765
2023-11-29T08:00:00 1.060245 82.97497
2023-11-29T09:00:00 2.260245 77.36389
2023-11-29T10:00:00 3.460246 71.34316
2023-11-29T11:00:00 4.470245 67.17455
2023-11-29T12:00:00 5.310246 64.65625
2023-11-29T13:00:00 5.870246 62.73413
2023-11-29T14:00:00 5.610245 63.55121
2023-11-29T15:00:00 4.420245 70.45387
2023-11-29T16:00:00 3.360245 74.32899
2023-11-29T17:00:00 2.350246 78.35699
2023-11-29T18:00:00 1.350246 85.37662
2023-11-29T19:00:00 0.930245 89.44144
2023-11-29T20:00:00 1.340246 88.50493
2023-11-29T21:00:00 1.070245 89.78451
2023-11-29T22:00:00 1.070245 90.24664
2023-11-29T23:00:00 0.770245 92.97324
2023-11-30T00:00:00 0.990245 92.24464
2023-11-30T01:00:00 0.980245 92.6497
2023-11-30T02:00:00 1.200245 90.78929
2023-11-30T03:00:00 1.480245 88.45523
2023-11-30T04:00:00 1.720245 88.80503
2023-11-30T05:00:00 1.710245 90.50524
2023-11-30T06:00:00 1.800245 90.84382
2023-11-30T07:00:00 1.930245 90.52561
2023-11-30T08:00:00 1.910245 90.98602
2023-11-30T09:00:00 1.680245 93.92426
2023-11-30T10:00:00 1.800245 95.85733
2023-11-30T11:00:00 1.920245 96.00224
2023-11-30T12:00:00 2.110245 95.87331
2023-11-30T13:00:00 2.230245 95.60325
2023-11-30T14:00:00 2.570245 94.18648
2023-11-30T15:00:00 2.690246 93.78806
2023-11-30T16:00:00 2.680245 94.7373
2023-11-30T17:00:00 2.650245 95.35078
2023-11-30T18:00:00 2.540246 97.28329
2023-11-30T19:00:00 2.570245 97.77436
2023-11-30T20:00:00 2.570245 98.33694
2023-11-30T21:00:00 2.750246 98.34246
2023-11-30T22:00:00 2.930245 97.08978
2023-11-30T23:00:00 2.980246 97.23084
2023-12-01T00:00:00 3.060246 97.23394
2023-12-01T01:00:00 3.070245 97.37345
2023-12-01T02:00:00 2.960246 97.091
2023-12-01T03:00:00 2.980246 96.26128
2023-12-01T04:00:00 3.180245 95.31109
2023-12-01T05:00:00 3.150245 95.44606
2023-12-01T06:00:00 3.160245 95.85733
2023-12-01T07:00:00 3.210246 95.79128
2023-12-01T08:00:00 3.210246 95.38095
2023-12-01T09:00:00 3.310246 94.84198
2023-12-01T10:00:00 2.970245 95.09489
2023-12-01T11:00:00 2.990245 94.34837
2023-12-01T12:00:00 2.900245 95.36433
2023-12-01T13:00:00 2.790246 95.56404
2023-12-01T14:00:00 2.730246 95.21819
2023-12-01T15:00:00 2.510245 95.20598
2023-12-01T16:00:00 2.280245 96.36681
2023-12-01T17:00:00 1.920245 96.6984
2023-12-01T18:00:00 1.680245 96.61759
2023-12-01T19:00:00 1.590245 96.82357
2023-12-01T20:00:00 1.520245 96.89063
2023-12-01T21:00:00 1.440245 97.09801
2023-12-01T22:00:00 1.540245 97.73694
2023-12-01T23:00:00 1.500245 97.17092
2023-12-02T00:00:00 1.410245 96.88577
2023-12-02T01:00:00 1.330245 95.62408
2023-12-02T02:00:00 1.140245 95.47462
2023-12-02T03:00:00 0.950245 94.42483
2023-12-02T04:00:00 0.740245 93.4489
2023-12-02T05:00:00 0.490245 91.93314
2023-12-02T06:00:00 0.330245 90.84254
2023-12-02T07:00:00 0.160245 90.35844
2023-12-02T08:00:00 -0.02975 88.55123
2023-12-02T09:00:00 -0.17975 90.05815
2023-12-02T10:00:00 -0.07975 88.94063
2023-12-02T11:00:00 -0.12975 86.39494
2023-12-02T12:00:00 -0.08975 84.05019
2023-12-02T13:00:00 -0.05975 81.82314
2023-12-02T14:00:00 -0.07975 80.78453
2023-12-02T15:00:00 -0.21975 79.67688
2023-12-02T16:00:00 -0.33975 78.99931
2023-12-02T17:00:00 -0.44975 79.87768
2023-12-02T18:00:00 -0.54975 79.68024
2023-12-02T19:00:00 -1.07975 83.02801
2023-12-02T20:00:00 -1.10975 82.71107
2023-12-02T21:00:00 -1.10975 79.463
2023-12-02T22:00:00 -1.10975 78.62412
2023-12-02T23:00:00 -1.17975 76.89805
2023-12-03T00:00:00 -1.40975 79.53126
2023-12-03T01:00:00 -1.59975 78.17747
2023-12-03T02:00:00 -2.54975 82.80309
2023-12-03T03:00:00 -3.77975 88.59298
2023-12-03T04:00:00 -4.20976 89.29356
2023-12-03T05:00:00 -4.72976 89.30358
2023-12-03T06:00:00 -4.71975 90.20358
2023-12-03T07:00:00 -5.19975 92.47849
2023-12-03T08:00:00 -4.56975 92.81899
2023-12-03T09:00:00 -2.69975 88.04701
2023-12-03T10:00:00 -1.67975 83.75732
2023-12-03T11:00:00 -0.75975 80.67241
2023-12-03T12:00:00 0.170245 76.86291
2023-12-03T13:00:00 0.730245 74.63664
2023-12-03T14:00:00 0.730245 77.1409
2023-12-03T15:00:00 -0.40975 84.19339
2023-12-03T16:00:00 -1.93975 88.40261
2023-12-03T17:00:00 -2.27975 89.84383
2023-12-03T18:00:00 -2.51975 90.56836
2023-12-03T19:00:00 -2.76975 88.23946
2023-12-03T20:00:00 -2.97975 89.15847
2023-12-03T21:00:00 -3.13975 87.86054
2023-12-03T22:00:00 -3.55975 87.6083
2023-12-03T23:00:00 -3.77975 88.59298
2023-12-04T00:00:00 -3.73975 85.65924
2023-12-04T01:00:00 -3.79975 84.92973
2023-12-04T02:00:00 -3.83975 85.31685
2023-12-04T03:00:00 -3.50975 84.64566
2023-12-04T04:00:00 -3.10975 84.9627
2023-12-04T05:00:00 -2.72975 84.49928
2023-12-04T06:00:00 -2.33975 82.89874
2023-12-04T07:00:00 -2.01975 83.07403
2023-12-04T08:00:00 -1.44975 81.78767
2023-12-04T09:00:00 -1.01975 84.29641
2023-12-04T10:00:00 -0.17975 80.52603
2023-12-04T11:00:00 0.530245 79.50697
2023-12-04T12:00:00 1.220245 79.97987
2023-12-04T13:00:00 1.470245 80.55664
2023-12-04T14:00:00 1.510245 82.85738
2023-12-04T15:00:00 1.760245 84.18443
2023-12-04T16:00:00 1.800245 84.12811
2023-12-04T17:00:00 1.590245 85.84805
2023-12-04T18:00:00 1.300245 89.02123
2023-12-04T19:00:00 1.100246 90.44817
2023-12-04T20:00:00 1.400245 90.1462
2023-12-04T21:00:00 1.940245 89.9354
2023-12-04T22:00:00 2.130245 93.81837
2023-12-04T23:00:00 3.190246 90.77068
2023-12-05T00:00:00 4.110245 87.71944
2023-12-05T01:00:00 4.650245 88.15476
2023-12-05T02:00:00 4.990245 88.75684
2023-12-05T03:00:00 5.380245 89.23731
2023-12-05T04:00:00 5.850246 87.65718
2023-12-05T05:00:00 6.010245 86.99537
2023-12-05T06:00:00 5.950245 86.13107
2023-12-05T07:00:00 5.830246 84.90377
2023-12-05T08:00:00 5.790245 84.05825
2023-12-05T09:00:00 5.860245 83.7692
2023-12-05T10:00:00 6.370246 81.78219
2023-12-05T11:00:00 6.920245 76.47112
2023-12-05T12:00:00 6.970245 72.95907
2023-12-05T13:00:00 6.910245 70.37503
2023-12-05T14:00:00 6.250245 71.15376
2023-12-05T15:00:00 5.610245 74.92744
2023-12-05T16:00:00 4.980245 80.99287
2023-12-05T17:00:00 4.590245 87.20869
2023-12-05T18:00:00 4.420245 90.16782
2023-12-05T19:00:00 4.420245 91.13701
2023-12-05T20:00:00 4.440246 91.20361
2023-12-05T21:00:00 4.530245 90.88706
2023-12-05T22:00:00 4.640245 90.63815
2023-12-05T23:00:00 4.770245 89.56002
2023-12-06T00:00:00 4.770245 89.81531
2023-12-06T01:00:00 4.810246 89.43643
2023-12-06T02:00:00 4.760245 89.81438
2023-12-06T03:00:00 4.660245 90.3823
2023-12-06T04:00:00 4.640245 90.18774
2023-12-06T05:00:00 4.620246 89.92939
2023-12-06T06:00:00 4.510245 89.53533
2023-12-06T07:00:00 4.320245 90.03008
2023-12-06T08:00:00 4.310246 91.12779
2023-12-06T09:00:00 4.650245 91.41575
2023-12-06T10:00:00 5.210245 88.96806
2023-12-06T11:00:00 5.510245 87.8697
2023-12-06T12:00:00 5.820245 87.90232
2023-12-06T13:00:00 6.080246 88.3648
2023-12-06T14:00:00 6.020245 89.67657
2023-12-06T15:00:00 5.340245 91.21303
2023-12-06T16:00:00 4.460246 91.9875
2023-12-06T17:00:00 4.610245 91.93372
2023-12-06T18:00:00 4.540246 91.66721
2023-12-06T19:00:00 4.630245 89.86628
2023-12-06T20:00:00 4.530245 88.14214
2023-12-06T21:00:00 4.090245 88.03242
2023-12-06T22:00:00 2.800245 95.77058
2023-12-06T23:00:00 2.210245 96.43299
2023-12-07T00:00:00 2.500246 95.61751
2023-12-07T01:00:00 2.040246 95.52406
2023-12-07T02:00:00 1.560245 97.66702
2023-12-07T03:00:00 1.080245 98.57472
2023-12-07T04:00:00 0.510245 99.0608
2023-12-07T05:00:00 0.220245 98.83566
2023-12-07T06:00:00 0.190245 98.61824
2023-12-07T07:00:00 0.100245 98.18326
2023-12-07T08:00:00 0.460245 97.62426
2023-12-07T09:00:00 1.270245 95.96901
2023-12-07T10:00:00 1.830245 93.32298
2023-12-07T11:00:00 2.580246 90.71632
2023-12-07T12:00:00 2.990245 87.59576
2023-12-07T13:00:00 3.500246 85.09493
2023-12-07T14:00:00 3.560246 83.15337
2023-12-07T15:00:00 3.350246 83.97268
2023-12-07T16:00:00 2.590245 86.16129
2023-12-07T17:00:00 1.680245 89.77905
2023-12-07T18:00:00 1.350246 90.8694
2023-12-07T19:00:00 1.330245 92.27206
2023-12-07T20:00:00 0.860245 92.84403
2023-12-07T21:00:00 0.990245 93.80893
2023-12-07T22:00:00 2.080246 89.16685
2023-12-07T23:00:00 2.010245 89.22469
2023-12-08T00:00:00 2.170245 88.85216
2023-12-08T01:00:00 2.220245 89.11629
2023-12-08T02:00:00 2.360245 90.63078
2023-12-08T03:00:00 2.680245 90.20186
2023-12-08T04:00:00 2.780245 91.52382
2023-12-08T05:00:00 3.460246 91.90915
2023-12-08T06:00:00 4.250246 92.69462
2023-12-08T07:00:00 4.870246 93.3318
2023-12-08T08:00:00 5.160245 94.01211
2023-12-08T09:00:00 5.760245 94.04823
2023-12-08T10:00:00 5.990245 93.53601
2023-12-08T11:00:00 6.730245 93.06182
2023-12-08T12:00:00 7.200245 92.51212
2023-12-08T13:00:00 7.560246 92.53683
2023-12-08T14:00:00 7.660245 93.05755
2023-12-08T15:00:00 7.630245 93.96119
2023-12-08T16:00:00 7.320245 94.9245
2023-12-08T17:00:00 7.170245 95.84187
2023-12-08T18:00:00 7.030245 96.30172
2023-12-08T19:00:00 6.980245 96.50008
2023-12-08T20:00:00 6.870246 96.69675
2023-12-08T21:00:00 6.800245 96.62706
2023-12-08T22:00:00 6.650245 96.2194
2023-12-08T23:00:00 6.240245 96.33647
2023-12-09T00:00:00 6.080246 96.26263
2023-12-09T01:00:00 6.210245 95.19912
2023-12-09T02:00:00 6.280245 94.67238
2023-12-09T03:00:00 6.240245 94.40598
2023-12-09T04:00:00 6.480245 93.5014
2023-12-09T05:00:00 6.580246 93.96532
2023-12-09T06:00:00 6.620246 93.0546
2023-12-09T07:00:00 6.540245 93.11431
2023-12-09T08:00:00 6.710245 93.4506
2023-12-09T09:00:00 7.140245 91.80271
2023-12-09T10:00:00 7.320245 90.35871
2023-12-09T11:00:00 8.050245 88.62104
2023-12-09T12:00:00 8.630245 83.95384
2023-12-09T13:00:00 7.910245 83.62709
2023-12-09T14:00:00 7.610245 83.70496
2023-12-09T15:00:00 7.360245 87.02123
2023-12-09T16:00:00 7.560246 88.20411
2023-12-09T17:00:00 8.310246 89.38511
2023-12-09T18:00:00 9.160245 90.44895
2023-12-09T19:00:00 10.28025 89.86395
2023-12-09T20:00:00 10.33025 88.35171
2023-12-09T21:00:00 10.16025 87.31612
2023-12-09T22:00:00 10.18025 84.26419
2023-12-09T23:00:00 9.940246 81.55138
2023-12-10T00:00:00 9.370245 80.34757
2023-12-10T01:00:00 9.240245 78.44894
2023-12-10T02:00:00 9.300245 77.64233
2023-12-10T03:00:00 9.150246 79.09345
2023-12-10T04:00:00 8.940246 78.34541
2023-12-10T05:00:00 8.810246 77.83229
2023-12-10T06:00:00 8.620245 78.67796
2023-12-10T07:00:00 8.620245 78.67796
2023-12-10T08:00:00 8.720245 78.30943
2023-12-10T09:00:00 9.060246 77.33135
2023-12-10T10:00:00 9.520246 76.12404
2023-12-10T11:00:00 10.10025 73.56638
2023-12-10T12:00:00 10.82025 69.71135
2023-12-10T13:00:00 11.07025 66.76004
2023-12-10T14:00:00 10.99025 65.85861
2023-12-10T15:00:00 10.45025 65.68848
2023-12-10T16:00:00 8.940246 71.80895
2023-12-10T17:00:00 9.180245 69.16796
2023-12-10T18:00:00 9.940246 62.25745
2023-12-10T19:00:00 10.93025 52.20771
2023-12-10T20:00:00 11.47025 49.64089
2023-12-10T21:00:00 11.19025 62.60797
2023-12-10T22:00:00 11.00025 72.72078
2023-12-10T23:00:00 11.10025 80.49281
2023-12-11T00:00:00 11.59025 85.52953
2023-12-11T01:00:00 12.07025 87.62483
2023-12-11T02:00:00 12.01025 88.50744
2023-12-11T03:00:00 12.08025 89.05039
2023-12-11T04:00:00 12.09025 88.93177
2023-12-11T05:00:00 12.06025 88.98888
2023-12-11T06:00:00 12.06025 89.70844
2023-12-11T07:00:00 11.75025 90.65241
2023-12-11T08:00:00 11.61025 89.91299
2023-12-11T09:00:00 11.57025 90.03088
2023-12-11T10:00:00 11.59025 89.48859
2023-12-11T11:00:00 11.49025 89.05878
2023-12-11T12:00:00 11.87025 85.96638
2023-12-11T13:00:00 11.96025 82.2213
2023-12-11T14:00:00 11.87025 80.2761
2023-12-11T15:00:00 11.52025 81.27146
2023-12-11T16:00:00 11.02025 84.13699
2023-12-11T17:00:00 10.72025 84.67651
2023-12-11T18:00:00 10.54025 84.71288
2023-12-11T19:00:00 10.09025 86.83258
2023-12-11T20:00:00 9.890245 88.55175
2023-12-11T21:00:00 9.500245 90.2292
2023-12-11T22:00:00 9.500245 89.00182
2023-12-11T23:00:00 9.320246 90.89661
2023-12-12T00:00:00 9.180245 92.39168
2023-12-12T01:00:00 9.070246 93.65707
2023-12-12T02:00:00 9.420245 93.67711
2023-12-12T03:00:00 9.460245 95.28725
2023-12-12T04:00:00 9.590245 96.72656
2023-12-12T05:00:00 9.720245 96.99327
2023-12-12T06:00:00 9.670245 96.92604
2023-12-12T07:00:00 9.920245 95.50146
2023-12-12T08:00:00 10.68025 95.72621
2023-12-12T09:00:00 11.53025 96.07966
2023-12-12T10:00:00 12.38025 90.33682
2023-12-12T11:00:00 12.94025 90.19949
2023-12-12T12:00:00 13.50025 89.05344
2023-12-12T13:00:00 13.12025 91.11684
2023-12-12T14:00:00 12.98025 91.53171
2023-12-12T15:00:00 12.98025 91.04641
2023-12-12T16:00:00 12.81025 90.67133
2023-12-12T17:00:00 12.52025 90.64973
2023-12-12T18:00:00 11.87025 90.11549
2023-12-12T19:00:00 11.63025 89.61254
2023-12-12T20:00:00 11.09025 89.20439
2023-12-12T21:00:00 10.59025 88.7374
2023-12-12T22:00:00 10.14025 88.93836
2023-12-12T23:00:00 10.14025 90.34293
2023-12-13T00:00:00 10.01025 88.80522
2023-12-13T01:00:00 9.820246 88.84848
2023-12-13T02:00:00 9.630245 89.07462
2023-12-13T03:00:00 9.230246 89.77477
2023-12-13T04:00:00 9.000245 90.12582
2023-12-13T05:00:00 9.160245 89.09307
2023-12-13T06:00:00 8.920245 90.30515
2023-12-13T07:00:00 8.650246 89.8483
2023-12-13T08:00:00 8.870245 89.06657
2023-12-13T09:00:00 9.200245 88.97437
2023-12-13T10:00:00 9.730246 86.97324
2023-12-13T11:00:00 9.710245 85.13859
2023-12-13T12:00:00 9.470245 80.13977
2023-12-13T13:00:00 9.100245 83.72315
2023-12-13T14:00:00 8.770246 85.38101
2023-12-13T15:00:00 8.490246 84.934
2023-12-13T16:00:00 8.070246 86.91626
2023-12-13T17:00:00 7.670245 87.90843
2023-12-13T18:00:00 7.560246 88.63535
2023-12-13T19:00:00 7.230245 90.16235
2023-12-13T20:00:00 7.130245 91.10141
2023-12-13T21:00:00 7.090245 91.86295
2023-12-13T22:00:00 6.910245 93.39808
2023-12-13T23:00:00 6.840245 93.06902
2023-12-14T00:00:00 6.780245 93.52011
2023-12-14T01:00:00 6.820245 93.45749
2023-12-14T02:00:00 6.870246 93.39557
2023-12-14T03:00:00 6.920245 92.62167
2023-12-14T04:00:00 6.980245 91.15302
2023-12-14T05:00:00 6.960245 91.40611
2023-12-14T06:00:00 6.840245 91.20554
2023-12-14T07:00:00 6.880245 90.32119
2023-12-14T08:00:00 7.050245 89.33199
2023-12-14T09:00:00 7.510245 88.81596
2023-12-14T10:00:00 7.840245 88.60078
2023-12-14T11:00:00 8.250245 85.20084
2023-12-14T12:00:00 8.630245 83.60439
2023-12-14T13:00:00 8.700245 83.09197
2023-12-14T14:00:00 8.770246 83.68065
2023-12-14T15:00:00 8.360246 85.03642
2023-12-14T16:00:00 7.850246 87.13482
2023-12-14T17:00:00 7.450245 87.03099
2023-12-14T18:00:00 7.360245 86.11276
2023-12-14T19:00:00 6.890245 86.3007
2023-12-14T20:00:00 6.640245 85.3652
2023-12-14T21:00:00 6.230245 85.19466
2023-12-14T22:00:00 5.750245 84.8937
2023-12-14T23:00:00 5.190245 86.22546
2023-12-15T00:00:00 4.840245 87.36115
2023-12-15T01:00:00 4.850246 86.86497
2023-12-15T02:00:00 4.890245 87.42899
2023-12-15T03:00:00 4.880245 88.80901
2023-12-15T04:00:00 4.580246 92.32413
2023-12-15T05:00:00 4.820245 92.08044
2023-12-15T06:00:00 4.500246 92.84443
2023-12-15T07:00:00 4.520246 92.97779
2023-12-15T08:00:00 4.770245 91.88085
2023-12-15T09:00:00 5.720245 90.92289
2023-12-15T10:00:00 6.790245 87.14239
2023-12-15T11:00:00 7.580246 80.41416
2023-12-15T12:00:00 7.970245 76.98206
2023-12-15T13:00:00 8.260245 75.36668
2023-12-15T14:00:00 8.150246 76.79636
2023-12-15T15:00:00 7.620246 81.84721
2023-12-15T16:00:00 6.780245 84.18729
2023-12-15T17:00:00 6.060246 88.17596
2023-12-15T18:00:00 5.790245 88.52289
2023-12-15T19:00:00 5.270245 89.6706
2023-12-15T20:00:00 4.250246 92.9589
2023-12-15T21:00:00 3.470245 93.63802
2023-12-15T22:00:00 2.760245 94.60589
2023-12-15T23:00:00 2.930245 95.43437
2023-12-16T00:00:00 2.470245 96.58386
2023-12-16T01:00:00 2.300245 96.36775
2023-12-16T02:00:00 2.370246 95.95563
2023-12-16T03:00:00 2.020246 96.63313
2023-12-16T04:00:00 2.100246 96.98576
2023-12-16T05:00:00 2.130245 97.19693
2023-12-16T06:00:00 1.950245 97.54081
2023-12-16T07:00:00 1.760245 97.5335
2023-12-16T08:00:00 1.830245 97.11446
2023-12-16T09:00:00 2.690246 96.80187
2023-12-16T10:00:00 3.740245 95.20517
2023-12-16T11:00:00 4.940245 90.98639
2023-12-16T12:00:00 5.620246 88.00587
2023-12-16T13:00:00 6.290245 83.88575
2023-12-16T14:00:00 6.270245 82.8194
2023-12-16T15:00:00 5.130245 88.2049
2023-12-16T16:00:00 5.730245 82.56714
2023-12-16T17:00:00 4.570245 87.08183
2023-12-16T18:00:00 2.280245 93.21997
2023-12-16T19:00:00 1.000245 95.32768
2023-12-16T20:00:00 0.580245 95.93279
2023-12-16T21:00:00 0.230245 95.77351
2023-12-16T22:00:00 0.520245 93.91386
2023-12-16T23:00:00 0.240245 93.89442
2023-12-17T00:00:00 -0.01975 94.50037
2023-12-17T01:00:00 -0.10975 94.70348
2023-12-17T02:00:00 -0.15975 95.40021
2023-12-17T03:00:00 -0.42975 96.303
2023-12-17T04:00:00 -0.47975 95.38134
2023-12-17T05:00:00 -0.46975 93.91381
2023-12-17T06:00:00 -0.33975 92.47635
2023-12-17T07:00:00 -0.53975 93.63135
2023-12-17T08:00:00 -0.01975 91.75427
2023-12-17T09:00:00 1.060245 90.9762
2023-12-17T10:00:00 2.440245 89.72277
2023-12-17T11:00:00 3.920245 84.78104
2023-12-17T12:00:00 5.050245 81.00359
2023-12-17T13:00:00 6.050245 78.87133
2023-12-17T14:00:00 5.950245 78.23637
2023-12-17T15:00:00 5.610245 77.73068
2023-12-17T16:00:00 4.510245 81.50639
2023-12-17T17:00:00 1.810245 90.44861
2023-12-17T18:00:00 1.370246 92.07352
2023-12-17T19:00:00 1.240245 92.5347
2023-12-17T20:00:00 1.160245 93.27462
2023-12-17T21:00:00 0.980245 93.32966
2023-12-17T22:00:00 1.080245 94.36433
2023-12-17T23:00:00 0.810245 94.20896
2023-12-18T00:00:00 0.410245 93.90625
2023-12-18T01:00:00 0.120245 94.50951
2023-12-18T02:00:00 -0.11975 94.70286
2023-12-18T03:00:00 -0.26975 94.76308
2023-12-18T04:00:00 -0.04975 93.94332
2023-12-18T05:00:00 0.070245 92.37326
2023-12-18T06:00:00 0.110245 91.15803
2023-12-18T07:00:00 0.090245 91.62844
2023-12-18T08:00:00 0.440245 90.0529
2023-12-18T09:00:00 2.270246 89.25105
2023-12-18T10:00:00 4.750245 86.05025
2023-12-18T11:00:00 6.630245 81.58842
2023-12-18T12:00:00 7.880245 77.12973
2023-12-18T13:00:00 8.860246 74.47411
2023-12-18T14:00:00 9.000245 76.56702
2023-12-18T15:00:00 7.050245 86.25842
2023-12-18T16:00:00 4.170245 91.965
2023-12-18T17:00:00 3.190246 91.88762
2023-12-18T18:00:00 2.540246 91.8351
2023-12-18T19:00:00 2.080246 90.40791
2023-12-18T20:00:00 1.420245 91.14162
2023-12-18T21:00:00 1.230245 92.33144
2023-12-18T22:00:00 1.170245 91.78835
2023-12-18T23:00:00 1.280245 89.08443
2023-12-19T00:00:00 1.660245 87.25291
2023-12-19T01:00:00 0.820245 91.89341
2023-12-19T02:00:00 0.980245 88.07624
2023-12-19T03:00:00 0.850245 88.97398
2023-12-19T04:00:00 0.940245 88.20149
2023-12-19T05:00:00 1.020245 86.79334
2023-12-19T06:00:00 0.810245 86.12952
2023-12-19T07:00:00 0.930245 85.63735
2023-12-19T08:00:00 1.170245 85.66829
2023-12-19T09:00:00 2.670245 83.08697
2023-12-19T10:00:00 4.540246 80.40111
2023-12-19T11:00:00 5.660245 74.88287
2023-12-19T12:00:00 6.150245 72.37648
2023-12-19T13:00:00 6.550245 71.62812
2023-12-19T14:00:00 6.270245 72.45303
2023-12-19T15:00:00 5.720245 75.81738
2023-12-19T16:00:00 4.590245 78.68439
2023-12-19T17:00:00 3.940246 81.83389
2023-12-19T18:00:00 3.690246 84.0797
2023-12-19T19:00:00 3.640245 87.60481
2023-12-19T20:00:00 4.240245 87.1694
2023-12-19T21:00:00 4.700245 85.85975
2023-12-19T22:00:00 4.830246 83.39079
2023-12-19T23:00:00 5.300245 83.69407
2023-12-20T00:00:00 5.500245 85.40743
2023-12-20T01:00:00 5.660245 86.58714
2023-12-20T02:00:00 5.730245 89.96684
2023-12-20T03:00:00 5.840245 92.15681
2023-12-20T04:00:00 6.120246 93.08662
2023-12-20T05:00:00 6.190245 94.00791
2023-12-20T06:00:00 6.150245 94.07134
2023-12-20T07:00:00 6.140245 93.93917
2023-12-20T08:00:00 6.060246 93.67158
2023-12-20T09:00:00 6.230245 92.96365
2023-12-20T10:00:00 6.690245 87.93091
2023-12-20T11:00:00 6.810246 80.69529
2023-12-20T12:00:00 6.770245 75.63027
2023-12-20T13:00:00 6.590245 72.83108
2023-12-20T14:00:00 6.320245 73.9911
2023-12-20T15:00:00 5.930245 74.44992
2023-12-20T16:00:00 5.210245 77.99795
2023-12-20T17:00:00 4.780245 79.57356
2023-12-20T18:00:00 4.890245 79.76372
2023-12-20T19:00:00 5.010245 79.78308
2023-12-20T20:00:00 5.200245 79.4129
2023-12-20T21:00:00 5.420245 79.05032
2023-12-20T22:00:00 5.380245 79.95717
2023-12-20T23:00:00 5.620246 80.51241
2023-12-21T00:00:00 5.710245 82.97731
2023-12-21T01:00:00 5.980245 83.7852
2023-12-21T02:00:00 6.150245 84.64362
2023-12-21T03:00:00 6.410245 84.9763
2023-12-21T04:00:00 6.720245 84.12016
2023-12-21T05:00:00 6.870246 83.84355
2023-12-21T06:00:00 7.040245 85.05413
2023-12-21T07:00:00 7.240245 85.55745
2023-12-21T08:00:00 7.550245 84.8784
2023-12-21T09:00:00 7.880245 83.74023
2023-12-21T10:00:00 8.120246 85.06664
2023-12-21T11:00:00 8.520246 83.70651
2023-12-21T12:00:00 8.930245 82.48999
2023-12-21T13:00:00 9.150246 83.78756
2023-12-21T14:00:00 9.440246 82.90279
2023-12-21T15:00:00 9.530245 84.24181
2023-12-21T16:00:00 9.710245 85.37312
2023-12-21T17:00:00 9.920245 85.86755
2023-12-21T18:00:00 10.11025 86.65665
2023-12-21T19:00:00 10.11025 87.07257
2023-12-21T20:00:00 9.990245 86.94098
2023-12-21T21:00:00 9.920245 85.51476
2023-12-21T22:00:00 9.820246 81.19709
2023-12-21T23:00:00 9.680245 80.33826
2023-12-22T00:00:00 9.500245 81.15096
2023-12-22T01:00:00 9.440246 78.91939
2023-12-22T02:00:00 9.020246 78.52281
2023-12-22T03:00:00 8.790245 79.47943
2023-12-22T04:00:00 8.660245 76.293
2023-12-22T05:00:00 8.400246 77.76375
2023-12-22T06:00:00 8.090245 79.70452
2023-12-22T07:00:00 8.180245 78.77246
2023-12-22T08:00:00 8.130245 79.99101
2023-12-22T09:00:00 8.340245 79.96732
2023-12-22T10:00:00 8.650246 83.49081
2023-12-22T11:00:00 8.690246 87.04309
2023-12-22T12:00:00 9.020246 88.71326
2023-12-22T13:00:00 9.260245 89.34716
2023-12-22T14:00:00 9.490245 89.0009
2023-12-22T15:00:00 9.560246 88.27825
2023-12-22T16:00:00 9.440246 88.75253
2023-12-22T17:00:00 9.480246 88.14948
2023-12-22T18:00:00 9.390245 86.99718
2023-12-22T19:00:00 9.170245 85.54598
2023-12-22T20:00:00 8.990245 84.40792
2023-12-22T21:00:00 8.720245 84.25732
2023-12-22T22:00:00 8.470245 84.34315
2023-12-22T23:00:00 8.260245 84.78791
2023-12-23T00:00:00 8.140245 84.77319
2023-12-23T01:00:00 8.080246 84.76581
2023-12-23T02:00:00 8.010245 85.17203
2023-12-23T03:00:00 7.880245 85.99217
2023-12-23T04:00:00 7.920245 85.69751
2023-12-23T05:00:00 7.950245 84.98673
2023-12-23T06:00:00 7.940245 83.98252
2023-12-23T07:00:00 7.950245 82.41235
2023-12-23T08:00:00 8.020246 81.04771
2023-12-23T09:00:00 8.170245 80.27824
2023-12-23T10:00:00 8.500245 78.54829
2023-12-23T11:00:00 8.570246 78.22995
2023-12-23T12:00:00 8.680245 76.35013
2023-12-23T13:00:00 8.760245 75.8297
2023-12-23T14:00:00 8.630245 76.34134
2023-12-23T15:00:00 8.470245 76.58211
2023-12-23T16:00:00 8.170245 77.28846
2023-12-23T17:00:00 8.030246 77.75627
2023-12-23T18:00:00 8.060246 76.72651
2023-12-23T19:00:00 8.080246 76.35188
2023-12-23T20:00:00 8.090245 76.24593
2023-12-23T21:00:00 8.080246 77.05543
2023-12-23T22:00:00 8.160246 77.45025
2023-12-23T23:00:00 8.240246 77.13731
2023-12-24T00:00:00 8.410246 76.67947
2023-12-24T01:00:00 8.390245 76.89213
2023-12-24T02:00:00 8.430245 77.76878
2023-12-24T03:00:00 8.450246 78.59527
2023-12-24T04:00:00 8.560246 78.72339
2023-12-24T05:00:00 8.620245 79.56404
2023-12-24T06:00:00 8.650246 79.95906
2023-12-24T07:00:00 8.590245 80.5669
2023-12-24T08:00:00 8.720245 80.53012
2023-12-24T09:00:00 9.280245 78.40076
2023-12-24T10:00:00 9.940246 75.77456
2023-12-24T11:00:00 10.17025 74.97649
2023-12-24T12:00:00 10.09025 78.47701
2023-12-24T13:00:00 9.810246 84.85819
2023-12-24T14:00:00 9.830245 89.03178
2023-12-24T15:00:00 9.940246 89.28525
2023-12-24T16:00:00 10.10025 86.65559
2023-12-24T17:00:00 10.44025 81.56563
2023-12-24T18:00:00 10.75025 77.39966
2023-12-24T19:00:00 10.94025 73.01254
2023-12-24T20:00:00 11.13025 68.14119
2023-12-24T21:00:00 11.22025 63.50344
2023-12-24T22:00:00 11.34025 57.70825
2023-12-24T23:00:00 11.37025 56.05567
2023-12-25T00:00:00 11.13025 55.83119
2023-12-25T01:00:00 10.99025 57.20653
2023-12-25T02:00:00 10.53025 58.61503
2023-12-25T03:00:00 10.02025 60.48255
2023-12-25T04:00:00 9.570246 61.45866
2023-12-25T05:00:00 8.990245 62.06613
2023-12-25T06:00:00 8.560246 64.22698
2023-12-25T07:00:00 7.970245 67.58637
2023-12-25T08:00:00 8.040245 69.3654
2023-12-25T09:00:00 8.980246 66.61704
2023-12-25T10:00:00 9.470245 65.50798
2023-12-25T11:00:00 10.34025 62.26749
2023-12-25T12:00:00 10.85025 61.47212
2023-12-25T13:00:00 11.01025 61.86089
2023-12-25T14:00:00 10.86025 61.86762
2023-12-25T15:00:00 10.09025 63.95369
2023-12-25T16:00:00 8.970245 70.25834
2023-12-25T17:00:00 7.920245 76.37751
2023-12-25T18:00:00 7.090245 80.11206
2023-12-25T19:00:00 6.860245 81.56435
2023-12-25T20:00:00 6.360245 83.95439
2023-12-25T21:00:00 6.110245 85.48193
2023-12-25T22:00:00 5.980245 86.25662
2023-12-25T23:00:00 5.720245 86.77836
2023-12-26T00:00:00 5.940245 86.00799
2023-12-26T01:00:00 6.090245 85.54003
2023-12-26T02:00:00 6.210245 85.49405
2023-12-26T03:00:00 6.480245 84.26751
2023-12-26T04:00:00 6.730245 83.29409
2023-12-26T05:00:00 6.920245 82.38415
2023-12-26T06:00:00 7.030245 82.34151
2023-12-26T07:00:00 7.050245 82.34432
2023-12-26T08:00:00 7.430245 80.84602
2023-12-26T09:00:00 7.860245 79.05397
2023-12-26T10:00:00 8.430245 76.95315
2023-12-26T11:00:00 9.130245 74.73389
2023-12-26T12:00:00 9.840245 70.1433
2023-12-26T13:00:00 9.750245 69.5836
2023-12-26T14:00:00 9.550245 68.27598
2023-12-26T15:00:00 8.900246 71.49715
2023-12-26T16:00:00 7.670245 77.7504
2023-12-26T17:00:00 6.720245 82.99898
2023-12-26T18:00:00 6.210245 83.45993
2023-12-26T19:00:00 5.900245 84.49172
2023-12-26T20:00:00 5.340245 86.24309
2023-12-26T21:00:00 4.780245 87.85459
2023-12-26T22:00:00 3.660245 91.72771
2023-12-26T23:00:00 3.000246 92.86939
2023-12-27T00:00:00 2.540246 92.90264
2023-12-27T01:00:00 2.390245 92.75739
2023-12-27T02:00:00 2.320245 93.56032
2023-12-27T03:00:00 2.120246 93.74983
2023-12-27T04:00:00 1.720245 94.26837
2023-12-27T05:00:00 1.830245 94.07062
2023-12-27T06:00:00 1.890245 93.87022
2023-12-27T07:00:00 1.810245 94.00111
2023-12-27T08:00:00 1.930245 92.3198
2023-12-27T09:00:00 3.380245 87.51277
2023-12-27T10:00:00 5.710245 79.72373
2023-12-27T11:00:00 7.800245 71.73069
2023-12-27T12:00:00 9.170245 66.32931
2023-12-27T13:00:00 9.940246 64.69367
2023-12-27T14:00:00 9.910245 67.11209
2023-12-27T15:00:00 8.720245 73.35381
2023-12-27T16:00:00 6.590245 83.80669
2023-12-27T17:00:00 4.620246 90.95941
2023-12-27T18:00:00 4.350246 90.41914
2023-12-27T19:00:00 4.020246 85.59177
2023-12-27T20:00:00 3.760245 79.81147
2023-12-27T21:00:00 3.910245 72.76404
2023-12-27T22:00:00 4.400245 72.38612
2023-12-27T23:00:00 4.570245 71.10881
2023-12-28T00:00:00 4.730245 69.34246
2023-12-28T01:00:00 4.840245 67.60792
2023-12-28T02:00:00 4.680245 66.19115
2023-12-28T03:00:00 4.570245 67.29704
2023-12-28T04:00:00 5.140245 65.33245
2023-12-28T05:00:00 5.610245 65.83056
2023-12-28T06:00:00 5.530245 67.02753
2023-12-28T07:00:00 5.990245 69.72134
2023-12-28T08:00:00 6.260245 72.97489
2023-12-28T09:00:00 7.180245 74.95415
2023-12-28T10:00:00 7.730245 75.64407
2023-12-28T11:00:00 8.680245 75.28394
2023-12-28T12:00:00 9.160245 76.16719
2023-12-28T13:00:00 9.290245 76.7245
2023-12-28T14:00:00 9.680245 77.00579
2023-12-28T15:00:00 9.460245 80.30531
2023-12-28T16:00:00 8.920245 86.28912
2023-12-28T17:00:00 8.510245 90.70783
2023-12-28T18:00:00 8.290245 92.39497
2023-12-28T19:00:00 8.270246 92.07574
2023-12-28T20:00:00 8.080246 91.49172
2023-12-28T21:00:00 8.070246 88.9308
2023-12-28T22:00:00 7.940245 88.36462
2023-12-28T23:00:00 8.150246 85.6647
2023-12-29T00:00:00 8.050245 84.70303
2023-12-29T01:00:00 8.230246 84.54834
2023-12-29T02:00:00 8.440246 85.81753
2023-12-29T03:00:00 8.500245 88.05306
2023-12-29T04:00:00 8.650246 89.41568
2023-12-29T05:00:00 8.680245 89.9748
2023-12-29T06:00:00 9.170245 89.21648
2023-12-29T07:00:00 9.360246 89.66293
2023-12-29T08:00:00 9.800245 87.69881
2023-12-29T09:00:00 10.33025 86.26656
2023-12-29T10:00:00 11.10025 81.71359
2023-12-29T11:00:00 11.88025 77.85109
2023-12-29T12:00:00 12.25025 74.78277
2023-12-29T13:00:00 12.44025 73.09568
2023-12-29T14:00:00 12.28025 72.46595
2023-12-29T15:00:00 11.82025 74.96256
2023-12-29T16:00:00 11.40025 76.0825
2023-12-29T17:00:00 10.61025 79.21247
2023-12-29T18:00:00 10.25025 80.1462
2023-12-29T19:00:00 10.10025 81.18125
2023-12-29T20:00:00 10.04025 81.62177
2023-12-29T21:00:00 10.04025 81.45309
2023-12-29T22:00:00 9.900246 80.59367
2023-12-29T23:00:00 9.140245 80.59284
2023-12-30T00:00:00 9.130245 78.98008
2023-12-30T01:00:00 9.020246 79.18327
2023-12-30T02:00:00 8.610246 81.98772
2023-12-30T03:00:00 8.590245 84.00711
2023-12-30T04:00:00 8.610246 84.36064
2023-12-30T05:00:00 8.160246 85.78517
2023-12-30T06:00:00 8.020246 86.79003
2023-12-30T07:00:00 7.910245 86.65723
2023-12-30T08:00:00 7.920245 85.75729
2023-12-30T09:00:00 8.990245 82.21217
2023-12-30T10:00:00 10.24025 76.56793
2023-12-30T11:00:00 11.15025 71.89725
2023-12-30T12:00:00 11.64025 68.48915
2023-12-30T13:00:00 12.00025 66.41065
2023-12-30T14:00:00 11.72025 66.76533
2023-12-30T15:00:00 10.73025 70.67236
2023-12-30T16:00:00 7.340245 84.20004
2023-12-30T17:00:00 5.420245 90.76946
2023-12-30T18:00:00 5.130245 92.4955
2023-12-30T19:00:00 4.430245 94.83769
2023-12-30T20:00:00 4.250246 95.23236
2023-12-30T21:00:00 4.260245 94.42502
2023-12-30T22:00:00 4.170245 94.68849
2023-12-30T23:00:00 4.100246 95.08919
2023-12-31T00:00:00 4.330246 95.16907
2023-12-31T01:00:00 4.360245 95.44093
2023-12-31T02:00:00 4.370246 95.37382
2023-12-31T03:00:00 4.100246 96.03941
2023-12-31T04:00:00 4.010245 95.62666
2023-12-31T05:00:00 4.200245 94.95963
2023-12-31T06:00:00 4.430245 94.03388
2023-12-31T07:00:00 4.690245 91.03003
2023-12-31T08:00:00 4.890245 90.08213
2023-12-31T09:00:00 6.740245 84.59876
2023-12-31T10:00:00 7.880245 77.07528
2023-12-31T11:00:00 7.610245 80.13599
2023-12-31T12:00:00 6.890245 87.52087
2023-12-31T13:00:00 6.250245 90.20335
2023-12-31T14:00:00 6.050245 89.49005
2023-12-31T15:00:00 6.060246 87.86538
2023-12-31T16:00:00 6.020245 87.79918
2023-12-31T17:00:00 5.820245 86.85114
2023-12-31T18:00:00 5.850246 85.20812
2023-12-31T19:00:00 5.920245 84.79466
2023-12-31T20:00:00 5.800245 84.83971
2023-12-31T21:00:00 5.810246 84.54019
2023-12-31T22:00:00 6.060246 83.20295
2023-12-31T23:00:00 6.390245 81.90129
2024-01-01T00:00:00 6.530245 81.2849
2024-01-01T01:00:00 6.240245 83.22755
2024-01-01T02:00:00 6.210245 84.7112
2024-01-01T03:00:00 6.170245 84.94641
2024-01-01T04:00:00 6.160245 83.80913
2024-01-01T05:00:00 6.130245 84.10285
2024-01-01T06:00:00 6.020245 84.32747
2024-01-01T07:00:00 6.040245 84.44978
2024-01-01T08:00:00 6.290245 82.82217
2024-01-01T09:00:00 6.840245 81.61914
2024-01-01T10:00:00 7.430245 78.20641
2024-01-01T11:00:00 8.080246 75.3871
2024-01-01T12:00:00 8.210245 75.78442
2024-01-01T13:00:00 8.190246 76.4252
2024-01-01T14:00:00 8.290245 75.05355
2024-01-01T15:00:00 8.080246 75.12102
2024-01-01T16:00:00 7.010245 79.64705
2024-01-01T17:00:00 5.720245 85.01064
2024-01-01T18:00:00 5.260245 86.41808
2024-01-01T19:00:00 5.420245 85.39759
2024-01-01T20:00:00 5.110245 86.2775
2024-01-01T21:00:00 5.310246 84.65669
2024-01-01T22:00:00 5.600246 84.45306
2024-01-01T23:00:00 5.830246 82.46372
2024-01-02T00:00:00 6.160245 80.25201
2024-01-02T01:00:00 6.640245 77.46423
2024-01-02T02:00:00 7.350246 72.56643
2024-01-02T03:00:00 7.570245 75.34709
2024-01-02T04:00:00 7.720245 79.81503
2024-01-02T05:00:00 7.960245 82.06812
2024-01-02T06:00:00 8.350245 82.06564
2024-01-02T07:00:00 8.590245 81.8136
2024-01-02T08:00:00 8.820246 82.0172
2024-01-02T09:00:00 9.110246 81.71658
2024-01-02T10:00:00 9.270246 82.8227
2024-01-02T11:00:00 9.810246 80.58039
2024-01-02T12:00:00 9.890245 80.59219
2024-01-02T13:00:00 9.820246 82.49687
2024-01-02T14:00:00 9.690246 85.31209
2024-01-02T15:00:00 9.670245 86.19404
2024-01-02T16:00:00 9.740245 85.78832
2024-01-02T17:00:00 9.930245 85.34003
2024-01-02T18:00:00 10.28025 83.64307
2024-01-02T19:00:00 10.59025 81.53066
2024-01-02T20:00:00 10.77025 81.33253
2024-01-02T21:00:00 10.94025 79.42699
2024-01-02T22:00:00 11.17025 76.72658
2024-01-02T23:00:00 11.15025 76.09163
2024-01-03T00:00:00 10.96025 79.53919
2024-01-03T01:00:00 10.93025 80.08247
2024-01-03T02:00:00 10.93025 79.58926
2024-01-03T03:00:00 10.76025 80.11211
2024-01-03T04:00:00 10.67025 80.87297
2024-01-03T05:00:00 10.67025 78.84078
2024-01-03T06:00:00 10.63025 76.74078
2024-01-03T07:00:00 10.52025 75.56196
2024-01-03T08:00:00 10.79025 72.42809
2024-01-03T09:00:00 11.27025 67.46156
2024-01-03T10:00:00 11.63025 65.40755
2024-01-03T11:00:00 11.88025 63.43819
2024-01-03T12:00:00 12.27025 65.00892
2024-01-03T13:00:00 12.36025 65.66552
2024-01-03T14:00:00 12.23025 66.55447
2024-01-03T15:00:00 11.68025 69.11898
2024-01-03T16:00:00 11.34025 68.75921
2024-01-03T17:00:00 11.00025 68.11295
2024-01-03T18:00:00 10.10025 78.64177
2024-01-03T19:00:00 9.920245 77.90736
2024-01-03T20:00:00 10.00025 75.94354
2024-01-03T21:00:00 9.880245 73.67892
2024-01-03T22:00:00 9.600245 73.21427
2024-01-03T23:00:00 9.540245 73.71763
2024-01-04T00:00:00 9.330245 73.98857
2024-01-04T01:00:00 9.160245 75.21272
2024-01-04T02:00:00 8.980246 75.70946
2024-01-04T03:00:00 8.760245 79.25285
2024-01-04T04:00:00 8.490246 80.89044
2024-01-04T05:00:00 8.360246 80.92777
2024-01-04T06:00:00 8.480246 78.60014
2024-01-04T07:00:00 8.330246 78.74142
2024-01-04T08:00:00 8.350245 78.74465
2024-01-04T09:00:00 8.480246 82.25587
2024-01-04T10:00:00 8.730246 81.09537
2024-01-04T11:00:00 9.210245 78.71801
2024-01-04T12:00:00 9.740245 77.76958
2024-01-04T13:00:00 9.940246 76.03872
2024-01-04T14:00:00 9.890245 74.14545
2024-01-04T15:00:00 9.380245 75.78089
2024-01-04T16:00:00 7.390245 82.79874
2024-01-04T17:00:00 8.090245 79.87262
2024-01-04T18:00:00 5.480245 90.58234
2024-01-04T19:00:00 5.120246 92.62564
2024-01-04T20:00:00 4.760245 93.58923
2024-01-04T21:00:00 4.240245 95.70598
2024-01-04T22:00:00 3.960246 95.42036
2024-01-04T23:00:00 4.050245 95.76462
2024-01-05T00:00:00 4.150245 95.90553
2024-01-05T01:00:00 4.330246 95.37175
2024-01-05T02:00:00 4.380245 94.29815
2024-01-05T03:00:00 4.440246 93.10442
2024-01-05T04:00:00 4.770245 91.68544
2024-01-05T05:00:00 5.050245 90.67364
2024-01-05T06:00:00 5.560246 88.68788
2024-01-05T07:00:00 5.890245 88.84601
2024-01-05T08:00:00 5.890245 90.68127
2024-01-05T09:00:00 6.590245 90.10664
2024-01-05T10:00:00 6.900245 91.33769
2024-01-05T11:00:00 7.430245 91.37885
2024-01-05T12:00:00 7.900245 90.34486
2024-01-05T13:00:00 8.240246 88.45523
2024-01-05T14:00:00 8.280246 89.01207
2024-01-05T15:00:00 8.090245 89.67528
2024-01-05T16:00:00 7.420245 91.0611
2024-01-05T17:00:00 7.110245 92.05645
2024-01-05T18:00:00 6.490245 94.15688
2024-01-05T19:00:00 5.970245 95.85516
2024-01-05T20:00:00 5.650245 95.63918
2024-01-05T21:00:00 5.860245 93.72487
2024-01-05T22:00:00 5.950245 93.07531
2024-01-05T23:00:00 5.790245 92.28286
2024-01-06T00:00:00 5.740245 92.14943
2024-01-06T01:00:00 5.630245 91.2366
2024-01-06T02:00:00 5.410245 90.4483
2024-01-06T03:00:00 5.210245 89.91965
2024-01-06T04:00:00 5.040245 89.96792
2024-01-06T05:00:00 4.920245 90.59809
2024-01-06T06:00:00 4.850246 90.39915
2024-01-06T07:00:00 4.580246 91.02076
2024-01-06T08:00:00 4.660245 89.93308
2024-01-06T09:00:00 5.200245 89.03024
2024-01-06T10:00:00 5.560246 87.06864
2024-01-06T11:00:00 5.980245 84.56197
2024-01-06T12:00:00 6.260245 82.23217
2024-01-06T13:00:00 6.260245 81.99886
2024-01-06T14:00:00 6.070245 83.44102
2024-01-06T15:00:00 5.860245 84.06746
2024-01-06T16:00:00 5.470245 85.95226
2024-01-06T17:00:00 5.210245 86.22781
2024-01-06T18:00:00 5.160245 86.59128
2024-01-06T19:00:00 5.120246 87.32979
2024-01-06T20:00:00 4.960245 88.37573
2024-01-06T21:00:00 4.790245 89.49821
2024-01-06T22:00:00 4.730245 91.68229
2024-01-06T23:00:00 4.600246 92.32562
2024-01-07T00:00:00 4.570245 92.58604
2024-01-07T01:00:00 4.490245 93.77111
2024-01-07T02:00:00 4.330246 94.83212
2024-01-07T03:00:00 4.190246 95.83943
2024-01-07T04:00:00 4.090245 95.3593
2024-01-07T05:00:00 3.840245 95.21054
2024-01-07T06:00:00 3.600246 95.19762
2024-01-07T07:00:00 3.470245 96.14667
2024-01-07T08:00:00 3.410245 96.14385
2024-01-07T09:00:00 3.540246 96.14996
2024-01-07T10:00:00 4.100246 95.76707
2024-01-07T11:00:00 4.370246 92.90125
2024-01-07T12:00:00 4.740245 88.47911
2024-01-07T13:00:00 4.730245 88.03747
2024-01-07T14:00:00 4.540246 88.52173
2024-01-07T15:00:00 4.040246 88.5971
2024-01-07T16:00:00 3.470245 89.49933
2024-01-07T17:00:00 2.790246 90.27736
2024-01-07T18:00:00 2.210245 90.68294
2024-01-07T19:00:00 1.720245 91.16808
2024-01-07T20:00:00 1.340246 90.53691
2024-01-07T21:00:00 0.950245 89.11544
2024-01-07T22:00:00 0.490245 88.93581
2024-01-07T23:00:00 0.080245 87.45406
2024-01-08T00:00:00 -0.35975 86.6239
2024-01-08T01:00:00 -0.72975 85.5471
2024-01-08T02:00:00 -0.95975 84.81319
2024-01-08T03:00:00 -1.15975 83.51814
2024-01-08T04:00:00 -1.17975 81.46053
2024-01-08T05:00:00 -1.18975 79.14838
2024-01-08T06:00:00 -1.17975 77.30859
2024-01-08T07:00:00 -1.17975 75.90907
2024-01-08T08:00:00 -1.08975 74.89246
2024-01-08T09:00:00 -0.94975 74.63593
2024-01-08T10:00:00 -0.71975 71.5616
2024-01-08T11:00:00 -0.61975 69.63993
2024-01-08T12:00:00 -0.37975 68.53212
2024-01-08T13:00:00 -0.28975 67.97855
2024-01-08T14:00:00 -0.26975 68.03541
2024-01-08T15:00:00 -0.34975 68.22504
2024-01-08T16:00:00 -0.56975 68.80295
2024-01-08T17:00:00 -0.76975 69.44524
2024-01-08T18:00:00 -0.95975 70.04352
2024-01-08T19:00:00 -1.07975 71.09922
2024-01-08T20:00:00 -0.98975 71.1739
2024-01-08T21:00:00 -1.01975 71.82452
2024-01-08T22:00:00 -0.95975 73.27992
2024-01-08T23:00:00 -1.03975 73.76836
2024-01-09T00:00:00 -1.19975 73.50967
2024-01-09T01:00:00 -1.56975 74.22408
2024-01-09T02:00:00 -1.90975 74.72531
2024-01-09T03:00:00 -2.10975 74.62677
2024-01-09T04:00:00 -2.63975 76.38059
2024-01-09T05:00:00 -2.79975 75.12037
2024-01-09T06:00:00 -2.87975 73.49226
2024-01-09T07:00:00 -2.97975 72.33781
2024-01-09T08:00:00 -2.98975 74.04108
2024-01-09T09:00:00 -2.82975 72.42716
2024-01-09T10:00:00 -2.73975 75.42347
2024-01-09T11:00:00 -2.44975 74.90242
2024-01-09T12:00:00 -2.18975 74.898
2024-01-09T13:00:00 -1.95975 74.31415
2024-01-09T14:00:00 -1.84975 74.3941
2024-01-09T15:00:00 -1.90975 76.23074
2024-01-09T16:00:00 -2.72975 83.85702
2024-01-09T17:00:00 -2.52975 82.30205
2024-01-09T18:00:00 -2.31975 83.40833
2024-01-09T19:00:00 -2.54975 87.33327
2024-01-09T20:00:00 -2.61975 88.05649
2024-01-09T21:00:00 -2.44975 86.03032
2024-01-09T22:00:00 -2.55975 90.97576
2024-01-09T23:00:00 -2.62975 91.31327
2024-01-10T00:00:00 -2.64975 91.79538
2024-01-10T01:00:00 -2.70975 92.06767
2024-01-10T02:00:00 -2.87975 93.24274
2024-01-10T03:00:00 -2.74975 92.34266
2024-01-10T04:00:00 -2.87975 91.6357
2024-01-10T05:00:00 -3.02975 91.13705
2024-01-10T06:00:00 -3.21975 89.81249
2024-01-10T07:00:00 -3.38975 88.97692
2024-01-10T08:00:00 -3.21975 87.31645
2024-01-10T09:00:00 -2.33975 85.65405
2024-01-10T10:00:00 -1.33975 83.74394
2024-01-10T11:00:00 -0.42975 82.81448
2024-01-10T12:00:00 0.230245 81.32003
2024-01-10T13:00:00 0.820245 81.05135
2024-01-10T14:00:00 0.950245 80.35215
2024-01-10T15:00:00 0.100245 87.13257
2024-01-10T16:00:00 -1.31975 86.89391
2024-01-10T17:00:00 -2.11975 90.47174
2024-01-10T18:00:00 -2.06975 90.81773
2024-01-10T19:00:00 -2.18975 91.76784
2024-01-10T20:00:00 -2.54975 91.18304
2024-01-10T21:00:00 -2.80975 91.71146
2024-01-10T22:00:00 -2.90975 91.0796
2024-01-10T23:00:00 -3.10975 90.71539
2024-01-11T00:00:00 -3.31975 91.10898
2024-01-11T01:00:00 -3.37975 90.55046
2024-01-11T02:00:00 -3.51976 89.16612
2024-01-11T03:00:00 -3.53975 88.21562
2024-01-11T04:00:00 -3.44975 86.02789
2024-01-11T05:00:00 -4.00975 87.41808
2024-01-11T06:00:00 -4.10975 87.742
2024-01-11T07:00:00 -4.36976 88.59176
2024-01-11T08:00:00 -3.86975 89.12675
2024-01-11T09:00:00 -2.48975 85.04981
2024-01-11T10:00:00 -3.66975 85.14428
2024-01-11T11:00:00 -2.18975 84.70507
2024-01-11T12:00:00 -1.41975 83.10207
2024-01-11T13:00:00 -0.81975 82.75533
2024-01-11T14:00:00 -0.97975 83.35626
2024-01-11T15:00:00 -2.35975 85.45649
2024-01-11T16:00:00 -2.87975 85.77664
2024-01-11T17:00:00 -4.30976 87.91999
2024-01-11T18:00:00 -4.12975 89.16565
2024-01-11T19:00:00 -5.06975 90.93498
2024-01-11T20:00:00 -4.85975 91.02635
2024-01-11T21:00:00 -4.45976 90.09265
2024-01-11T22:00:00 -4.55976 89.25407
2024-01-11T23:00:00 -4.82976 89.36116
2024-01-12T00:00:00 -5.18975 88.97525
2024-01-12T01:00:00 -5.30976 88.41118
2024-01-12T02:00:00 -5.48975 88.80216
2024-01-12T03:00:00 -5.55976 89.90368
2024-01-12T04:00:00 -5.63976 89.5465
2024-01-12T05:00:00 -6.10975 90.26363
2024-01-12T06:00:00 -6.46975 90.43607
2024-01-12T07:00:00 -6.38976 90.79842
2024-01-12T08:00:00 -5.20976 90.43026
2024-01-12T09:00:00 -3.53975 85.68674
2024-01-12T10:00:00 -2.92975 80.80026
2024-01-12T11:00:00 -3.67975 86.45985
2024-01-12T12:00:00 -2.63975 83.67865
2024-01-12T13:00:00 -2.09975 82.87261
2024-01-12T14:00:00 -2.21975 83.23325
2024-01-12T15:00:00 -2.81975 84.22872
2024-01-12T16:00:00 -3.89975 88.03751
2024-01-12T17:00:00 -4.28976 91.01352
2024-01-12T18:00:00 -3.76976 90.92613
2024-01-12T19:00:00 -4.39975 92.54983
2024-01-12T20:00:00 -4.60975 92.17699
2024-01-12T21:00:00 -4.33975 91.70865
2024-01-12T22:00:00 -5.19975 92.1937
2024-01-12T23:00:00 -5.56975 93.09043
2024-01-13T00:00:00 -5.28976 92.54173
2024-01-13T01:00:00 -4.65975 91.18652
2024-01-13T02:00:00 -4.75975 90.33835
2024-01-13T03:00:00 -4.84976 89.35889
2024-01-13T04:00:00 -5.16975 89.3917
2024-01-13T05:00:00 -5.71975 91.93139
2024-01-13T06:00:00 -6.11976 93.47709
2024-01-13T07:00:00 -6.03976 93.62891
2024-01-13T08:00:00 -7.24976 94.63207
2024-01-13T09:00:00 -7.26976 93.67189
2024-01-13T10:00:00 -5.06975 90.93498
2024-01-13T11:00:00 -3.91975 86.49453
2024-01-13T12:00:00 -2.94975 83.31285
2024-01-13T13:00:00 -2.44975 83.07156
2024-01-13T14:00:00 -2.08975 80.38776
2024-01-13T15:00:00 -1.88975 79.38657
2024-01-13T16:00:00 -1.97975 81.57829
2024-01-13T17:00:00 -3.76976 87.9858
2024-01-13T18:00:00 -4.70976 91.6031
2024-01-13T19:00:00 -4.70976 91.6031
2024-01-13T20:00:00 -4.74976 91.03742
2024-01-13T21:00:00 -4.86976 90.18758
2024-01-13T22:00:00 -4.89975 88.66583
2024-01-13T23:00:00 -5.14975 88.77352
2024-01-14T00:00:00 -5.26976 88.62186
2024-01-14T01:00:00 -5.61976 89.34037
2024-01-14T02:00:00 -6.09976 89.77367
2024-01-14T03:00:00 -6.34976 88.83815
2024-01-14T04:00:00 -6.49976 89.30824
2024-01-14T05:00:00 -6.45976 87.92506
2024-01-14T06:00:00 -6.65975 87.41776
2024-01-14T07:00:00 -6.62975 86.73746
2024-01-14T08:00:00 -6.07976 83.40884
2024-01-14T09:00:00 -4.82976 82.37732
2024-01-14T10:00:00 -5.20976 86.85971
2024-01-14T11:00:00 -2.83975 77.7077
2024-01-14T12:00:00 -1.19975 70.04216
2024-01-14T13:00:00 -0.80975 70.88783
2024-01-14T14:00:00 0.120245 69.17516
2024-01-14T15:00:00 -0.91975 81.01195
2024-01-14T16:00:00 -1.75975 81.05778
2024-01-14T17:00:00 -1.11975 77.49635
2024-01-14T18:00:00 -0.75975 76.97783
2024-01-14T19:00:00 -0.48975 84.81446
2024-01-14T20:00:00 -0.67975 87.23329
2024-01-14T21:00:00 -0.30975 86.30788
2024-01-14T22:00:00 -0.51975 89.55692
2024-01-14T23:00:00 -0.49975 89.02767
2024-01-15T00:00:00 -1.00975 89.90765
2024-01-15T01:00:00 -1.09975 89.36266
2024-01-15T02:00:00 -1.01975 86.28188
2024-01-15T03:00:00 -1.13975 85.87866
2024-01-15T04:00:00 -0.61975 84.03748
2024-01-15T05:00:00 -0.62975 84.28842
2024-01-15T06:00:00 -0.42975 83.93887
2024-01-15T07:00:00 -1.08975 83.7174
2024-01-15T08:00:00 -1.00975 83.28908
2024-01-15T09:00:00 -0.34975 82.57865
2024-01-15T10:00:00 1.520245 75.01767
2024-01-15T11:00:00 2.020246 72.10111
2024-01-15T12:00:00 2.120246 71.7467
2024-01-15T13:00:00 2.040246 73.07982
2024-01-15T14:00:00 1.980245 74.82919
2024-01-15T15:00:00 1.730245 76.92397
2024-01-15T16:00:00 1.510245 78.85028
2024-01-15T17:00:00 1.110246 80.49796
2024-01-15T18:00:00 0.590245 78.27861
2024-01-15T19:00:00 -0.46975 78.97643
2024-01-15T20:00:00 -0.84975 80.59661
2024-01-15T21:00:00 -2.47975 81.37231
2024-01-15T22:00:00 -1.62975 80.71067
2024-01-15T23:00:00 -2.89975 83.96001
2024-01-16T00:00:00 -3.77975 85.0633
2024-01-16T01:00:00 -4.27975 85.58444
2024-01-16T02:00:00 -5.20976 87.06226
2024-01-16T03:00:00 -5.89975 89.86597
2024-01-16T04:00:00 -6.31975 91.08949
2024-01-16T05:00:00 -6.62975 90.4895
2024-01-16T06:00:00 -6.90975 90.88572
2024-01-16T07:00:00 -6.66975 89.63892
2024-01-16T08:00:00 -5.78976 87.94078
2024-01-16T09:00:00 -3.54975 83.99223
2024-01-16T10:00:00 -2.23975 81.72273
2024-01-16T11:00:00 -0.67975 75.03223
2024-01-16T12:00:00 0.540245 68.38361
2024-01-16T13:00:00 1.460245 64.08035
2024-01-16T14:00:00 1.820245 62.58501
2024-01-16T15:00:00 1.590245 59.49782
2024-01-16T16:00:00 0.950245 64.43986
2024-01-16T17:00:00 -2.07975 78.08904
2024-01-16T18:00:00 -3.62975 86.13563
2024-01-16T19:00:00 -3.36975 87.03128
2024-01-16T20:00:00 -2.44975 84.09029
2024-01-16T21:00:00 -1.66975 81.44281
2024-01-16T22:00:00 -1.18975 81.64383
2024-01-16T23:00:00 -0.96975 84.62088
2024-01-17T00:00:00 -0.66975 89.47469
2024-01-17T01:00:00 -0.49975 94.39894
2024-01-17T02:00:00 -0.24975 95.88794
2024-01-17T03:00:00 0.040245 96.75224
2024-01-17T04:00:00 0.270245 97.3314
2024-01-17T05:00:00 0.660245 98.20312
2024-01-17T06:00:00 0.890245 98.64041
2024-01-17T07:00:00 1.490245 97.66435
2024-01-17T08:00:00 1.990246 97.47202
2024-01-17T09:00:00 2.540246 97.21345
2024-01-17T10:00:00 2.510245 97.0727
2024-01-17T11:00:00 4.150245 95.02435
2024-01-17T12:00:00 5.700245 94.17682
2024-01-17T13:00:00 8.210245 90.37079
2024-01-17T14:00:00 9.760245 87.33495
2024-01-17T15:00:00 10.20025 87.61889
2024-01-17T16:00:00 10.16025 89.42645
2024-01-17T17:00:00 10.20025 91.21186
2024-01-17T18:00:00 10.50025 90.98692
2024-01-17T19:00:00 10.53025 90.12921
2024-01-17T20:00:00 10.49025 89.75948
2024-01-17T21:00:00 10.71025 89.77796
2024-01-17T22:00:00 10.85025 88.04131
2024-01-17T23:00:00 10.93025 88.76836
2024-01-18T00:00:00 10.87025 89.48777
2024-01-18T01:00:00 10.70025 89.10967
2024-01-18T02:00:00 10.52025 88.55014
2024-01-18T03:00:00 10.24025 87.62288
2024-01-18T04:00:00 9.500245 88.57572
2024-01-18T05:00:00 9.410245 88.3244
2024-01-18T06:00:00 10.13025 86.24471
2024-01-18T07:00:00 10.31025 87.09329
2024-01-18T08:00:00 10.58025 86.6475
2024-01-18T09:00:00 10.64025 86.24147
2024-01-18T10:00:00 10.50025 86.34398
2024-01-18T11:00:00 9.950245 86.81778
2024-01-18T12:00:00 8.990245 90.93325
2024-01-18T13:00:00 6.070245 96.46404
2024-01-18T14:00:00 2.940246 91.33941
2024-01-18T15:00:00 1.330245 87.85699
2024-01-18T16:00:00 1.210245 87.52129
2024-01-18T17:00:00 1.160245 88.42047
2024-01-18T18:00:00 1.080245 89.65385
2024-01-18T19:00:00 0.940245 90.69883
2024-01-18T20:00:00 0.600245 92.34837
2024-01-18T21:00:00 0.400245 92.40006
2024-01-18T22:00:00 0.160245 90.69272
2024-01-18T23:00:00 -0.05975 89.60436
2024-01-19T00:00:00 -0.36975 88.38203
2024-01-19T01:00:00 -0.57975 87.50614
2024-01-19T02:00:00 -0.98975 87.65385
2024-01-19T03:00:00 -1.30975 88.40804
2024-01-19T04:00:00 -1.46975 87.59671
2024-01-19T05:00:00 -2.24975 89.23886
2024-01-19T06:00:00 -2.55975 89.06994
2024-01-19T07:00:00 -3.10975 90.02919
2024-01-19T08:00:00 -2.11975 88.51543
2024-01-19T09:00:00 -1.10975 86.01167
2024-01-19T10:00:00 0.060245 85.01621
2024-01-19T11:00:00 0.940245 76.77697
2024-01-19T12:00:00 1.260245 69.54256
2024-01-19T13:00:00 1.420245 67.05267
2024-01-19T14:00:00 1.390245 67.14697
2024-01-19T15:00:00 1.100246 70.77612
2024-01-19T16:00:00 -0.47975 80.53675
2024-01-19T17:00:00 -1.67975 86.97993
2024-01-19T18:00:00 -2.66975 90.48489
2024-01-19T19:00:00 -3.36975 91.52055
2024-01-19T20:00:00 -3.50975 92.48663
2024-01-19T21:00:00 -3.63975 91.77416
2024-01-19T22:00:00 -4.49976 93.7535
2024-01-19T23:00:00 -4.85975 93.72489
2024-01-20T00:00:00 -5.16975 93.98885
2024-01-20T01:00:00 -5.35975 92.89322
2024-01-20T02:00:00 -5.26976 91.83215
2024-01-20T03:00:00 -5.40975 90.75967
2024-01-20T04:00:00 -5.57976 91.51862
2024-01-20T05:00:00 -5.77975 91.71207
2024-01-20T06:00:00 -5.91975 90.56552
2024-01-20T07:00:00 -6.24976 90.0374
2024-01-20T08:00:00 -5.05976 88.2362
2024-01-20T09:00:00 -3.24975 79.57236
2024-01-20T10:00:00 -1.78975 77.01643
2024-01-20T11:00:00 -0.71975 73.55445
2024-01-20T12:00:00 0.440245 68.30805
2024-01-20T13:00:00 1.270245 64.61922
2024-01-20T14:00:00 1.520245 65.12537
2024-01-20T15:00:00 0.650245 76.03515
2024-01-20T16:00:00 -0.62975 72.90397
2024-01-20T17:00:00 -2.80975 83.84514
2024-01-20T18:00:00 -3.19975 85.5368
2024-01-20T19:00:00 -3.30975 86.11253
2024-01-20T20:00:00 -3.44975 83.1723
2024-01-20T21:00:00 -3.91975 82.90717
2024-01-20T22:00:00 -4.34976 80.80763
2024-01-20T23:00:00 -5.07976 83.37022
2024-01-21T00:00:00 -5.37975 84.37048
2024-01-21T01:00:00 -5.11976 83.36395
2024-01-21T02:00:00 -5.11976 83.03962
2024-01-21T03:00:00 -4.96975 83.25765
2024-01-21T04:00:00 -4.60975 83.0556
2024-01-21T05:00:00 -3.78975 81.46828
2024-01-21T06:00:00 -3.49976 82.59074
2024-01-21T07:00:00 -3.29975 82.62237
2024-01-21T08:00:00 -2.59975 82.16527
2024-01-21T09:00:00 -1.15975 79.93734
2024-01-21T10:00:00 0.630245 78.57903
2024-01-21T11:00:00 2.420245 74.14219
2024-01-21T12:00:00 4.270246 68.68106
2024-01-21T13:00:00 5.880245 63.19935
2024-01-21T14:00:00 6.320245 64.90175
2024-01-21T15:00:00 5.450245 65.45527
2024-01-21T16:00:00 3.340245 71.42298
2024-01-21T17:00:00 1.910245 77.01428
2024-01-21T18:00:00 0.950245 79.3418
2024-01-21T19:00:00 0.570245 79.45441
2024-01-21T20:00:00 0.530245 78.97382
2024-01-21T21:00:00 0.440245 76.10902
2024-01-21T22:00:00 0.550245 73.04303
2024-01-21T23:00:00 0.370245 74.84576
2024-01-22T00:00:00 0.940245 75.57974
2024-01-22T01:00:00 1.360246 74.09445
2024-01-22T02:00:00 1.040245 74.64269
2024-01-22T03:00:00 1.580245 69.56301
2024-01-22T04:00:00 2.110245 65.71665
2024-01-22T05:00:00 2.940246 58.7868
2024-01-22T06:00:00 3.720245 58.11707
2024-01-22T07:00:00 5.070245 57.92171
2024-01-22T08:00:00 6.660245 63.07053
2024-01-22T09:00:00 8.080246 66.93633
2024-01-22T10:00:00 9.390245 68.2892
2024-01-22T11:00:00 9.470245 74.79649
2024-01-22T12:00:00 9.060246 78.69391
2024-01-22T13:00:00 8.800245 86.39522
2024-01-22T14:00:00 8.700245 90.22476
2024-01-22T15:00:00 8.710245 89.72974
2024-01-22T16:00:00 8.690246 90.59746
2024-01-22T17:00:00 8.560246 90.58691
2024-01-22T18:00:00 8.740245 89.11605
2024-01-22T19:00:00 8.660245 88.31265
2024-01-22T20:00:00 8.540245 87.4499
2024-01-22T21:00:00 8.380245 87.07037
2024-01-22T22:00:00 8.150246 88.6921
2024-01-22T23:00:00 8.170245 86.74608
2024-01-23T00:00:00 7.830246 86.34694
2024-01-23T01:00:00 7.740245 84.42808
2024-01-23T02:00:00 7.580246 83.70103
2024-01-23T03:00:00 7.450245 82.16899
2024-01-23T04:00:00 7.390245 84.32471
2024-01-23T05:00:00 7.390245 83.97038
2024-01-23T06:00:00 7.010245 84.63277
2024-01-23T07:00:00 6.750245 85.13831
2024-01-23T08:00:00 6.880245 85.03446
2024-01-23T09:00:00 7.390245 84.20645
2024-01-23T10:00:00 8.170245 79.99719
2024-01-23T11:00:00 8.610246 77.4721
2024-01-23T12:00:00 8.990245 73.61285
2024-01-23T13:00:00 8.910245 73.70129
2024-01-23T14:00:00 8.910245 74.2219
2024-01-23T15:00:00 8.560246 75.58077
2024-01-23T16:00:00 8.480246 76.31491
2024-01-23T17:00:00 8.130245 78.32243
2024-01-23T18:00:00 7.990245 79.18616
2024-01-23T19:00:00 8.270246 76.5471
2024-01-23T20:00:00 8.430245 74.18377
2024-01-23T21:00:00 9.010245 69.03339
2024-01-23T22:00:00 9.300245 65.74849
2024-01-23T23:00:00 9.610246 64.47794
2024-01-24T00:00:00 10.16025 64.06117
2024-01-24T01:00:00 10.73025 64.3326
2024-01-24T02:00:00 11.31025 64.92301
2024-01-24T03:00:00 11.75025 66.81855
2024-01-24T04:00:00 11.96025 70.23904
2024-01-24T05:00:00 11.98025 75.35188
2024-01-24T06:00:00 12.10025 78.36594
2024-01-24T07:00:00 11.97025 80.94854
2024-01-24T08:00:00 12.44025 80.52261
2024-01-24T09:00:00 12.86025 79.98622
2024-01-24T10:00:00 13.24025 79.18298
2024-01-24T11:00:00 13.46025 79.26948
2024-01-24T12:00:00 13.72025 79.2019
2024-01-24T13:00:00 13.92025 78.64898
2024-01-24T14:00:00 13.75025 80.27708
2024-01-24T15:00:00 13.26025 80.80268
2024-01-24T16:00:00 12.76025 83.27557
2024-01-24T17:00:00 12.22025 85.65745
2024-01-24T18:00:00 11.37025 89.77222
2024-01-24T19:00:00 10.97025 91.76256
2024-01-24T20:00:00 10.79025 91.87421
2024-01-24T21:00:00 10.49025 92.35255
2024-01-24T22:00:00 10.49025 94.18126
2024-01-24T23:00:00 10.56025 94.50317
2024-01-25T00:00:00 10.47025 94.62645
2024-01-25T01:00:00 10.43025 95.00858
2024-01-25T02:00:00 10.24025 96.35701
2024-01-25T03:00:00 10.11025 96.3524
2024-01-25T04:00:00 10.06025 96.35062
2024-01-25T05:00:00 10.00025 95.56952
2024-01-25T06:00:00 9.790245 96.14539
2024-01-25T07:00:00 9.530245 96.4624
2024-01-25T08:00:00 9.630245 96.59683
2024-01-25T09:00:00 9.920245 95.89026
2024-01-25T10:00:00 10.53025 94.50172
2024-01-25T11:00:00 11.20025 91.964
2024-01-25T12:00:00 11.77025 88.6645
2024-01-25T13:00:00 12.04025 86.97555
2024-01-25T14:00:00 12.04025 87.03412
2024-01-25T15:00:00 12.00025 87.03008
2024-01-25T16:00:00 11.39025 88.80985
2024-01-25T17:00:00 10.70025 90.81728
2024-01-25T18:00:00 10.14025 91.76699
2024-01-25T19:00:00 10.50025 89.51675
2024-01-25T20:00:00 10.25025 89.06959
2024-01-25T21:00:00 9.990245 88.19881
2024-01-25T22:00:00 9.800245 87.9996
2024-01-25T23:00:00 9.620245 86.78271
2024-01-26T00:00:00 9.510245 87.42925
2024-01-26T01:00:00 8.880245 88.33402
2024-01-26T02:00:00 8.730246 88.07589
2024-01-26T03:00:00 8.630245 88.79897
2024-01-26T04:00:00 8.440246 89.58229
2024-01-26T05:00:00 8.310246 89.50884
2024-01-26T06:00:00 8.340245 88.52618
2024-01-26T07:00:00 8.810246 86.63563
2024-01-26T08:00:00 9.360246 85.33228
2024-01-26T09:00:00 10.22025 83.06302
2024-01-26T10:00:00 11.10025 82.83749
2024-01-26T11:00:00 11.63025 80.67987
2024-01-26T12:00:00 11.61025 82.79136
2024-01-26T13:00:00 11.60025 84.83812
2024-01-26T14:00:00 11.34025 85.96664
2024-01-26T15:00:00 11.02025 88.29667
2024-01-26T16:00:00 10.75025 89.59892
2024-01-26T17:00:00 10.32025 90.35739
2024-01-26T18:00:00 9.310246 91.26992
2024-01-26T19:00:00 8.320246 91.32056
2024-01-26T20:00:00 7.350246 91.62709
2024-01-26T21:00:00 6.530245 92.46542
2024-01-26T22:00:00 5.430245 93.17156
2024-01-26T23:00:00 4.740245 93.98639
2024-01-27T00:00:00 3.680245 95.61
2024-01-27T01:00:00 3.090245 95.71669
2024-01-27T02:00:00 2.450245 97.07024
2024-01-27T03:00:00 1.990246 96.98109
2024-01-27T04:00:00 1.540245 97.45441
2024-01-27T05:00:00 1.110246 96.80198
2024-01-27T06:00:00 0.550245 96.56436
2024-01-27T07:00:00 0.070245 96.47017
2024-01-27T08:00:00 0.640245 97.34702
2024-01-27T09:00:00 2.190245 94.63967
2024-01-27T10:00:00 3.970245 90.12671
2024-01-27T11:00:00 5.620246 83.67748
2024-01-27T12:00:00 7.030245 76.27319
2024-01-27T13:00:00 8.050245 72.03725
2024-01-27T14:00:00 8.490246 70.65746
2024-01-27T15:00:00 8.160246 72.4185
2024-01-27T16:00:00 5.650245 83.26521
2024-01-27T17:00:00 4.540246 86.08669
2024-01-27T18:00:00 3.580246 90.54466
2024-01-27T19:00:00 3.120246 92.47854
2024-01-27T20:00:00 3.180245 93.82037
2024-01-27T21:00:00 2.660245 94.05664
2024-01-27T22:00:00 1.790245 92.44302
2024-01-27T23:00:00 1.160245 92.86694
2024-01-28T00:00:00 0.930245 91.90263
2024-01-28T01:00:00 0.870245 90.6258
2024-01-28T02:00:00 0.420245 90.5168
2024-01-28T03:00:00 0.270245 91.17251
2024-01-28T04:00:00 0.460245 88.99829
2024-01-28T05:00:00 0.440245 88.99617
2024-01-28T06:00:00 0.210245 89.36733
2024-01-28T07:00:00 0.070245 90.08293
2024-01-28T08:00:00 0.600245 92.34837
2024-01-28T09:00:00 2.990245 87.53237
2024-01-28T10:00:00 5.080246 83.00803
2024-01-28T11:00:00 7.100246 77.4883
2024-01-28T12:00:00 8.890245 71.29322
2024-01-28T13:00:00 9.980246 68.41808
2024-01-28T14:00:00 10.73025 66.73057
2024-01-28T15:00:00 10.26025 73.18744
2024-01-28T16:00:00 7.530245 80.69032
2024-01-28T17:00:00 5.240245 87.52947
2024-01-28T18:00:00 3.770246 91.14741
2024-01-28T19:00:00 2.800245 94.54031
2024-01-28T20:00:00 2.290246 95.39984
2024-01-28T21:00:00 1.830245 94.54916
2024-01-28T22:00:00 1.580245 94.05414
2024-01-28T23:00:00 1.370246 94.10866
2024-01-29T00:00:00 1.320245 94.65494
2024-01-29T01:00:00 1.170245 93.54799
2024-01-29T02:00:00 1.080245 93.33692
2024-01-29T03:00:00 1.200245 93.61836
2024-01-29T04:00:00 1.270245 93.14667
2024-01-29T05:00:00 1.480245 92.21683
2024-01-29T06:00:00 1.460245 90.81303
2024-01-29T07:00:00 1.260245 90.2648
2024-01-29T08:00:00 1.840245 89.14228
2024-01-29T09:00:00 4.290246 85.80987
2024-01-29T10:00:00 7.160245 76.62266
2024-01-29T11:00:00 9.490245 70.91443
2024-01-29T12:00:00 11.36025 65.11694
2024-01-29T13:00:00 12.59025 61.77096
2024-01-29T14:00:00 13.18025 59.75386
2024-01-29T15:00:00 12.75025 69.91778
2024-01-29T16:00:00 9.620245 83.67407
2024-01-29T17:00:00 7.220245 90.16149
2024-01-29T18:00:00 6.200245 92.96163
2024-01-29T19:00:00 5.280245 94.48421
2024-01-29T20:00:00 4.400245 95.78165
2024-01-29T21:00:00 3.580246 96.42631
2024-01-29T22:00:00 3.510245 91.19074
2024-01-29T23:00:00 2.960246 90.88129
2024-01-30T00:00:00 2.550245 90.64798
2024-01-30T01:00:00 2.600246 89.60838
2024-01-30T02:00:00 2.760245 88.84882
2024-01-30T03:00:00 2.540246 88.89053
2024-01-30T04:00:00 2.380245 88.61604
2024-01-30T05:00:00 1.980245 89.87383
2024-01-30T06:00:00 2.020246 90.8636
2024-01-30T07:00:00 2.080246 91.13338
2024-01-30T08:00:00 2.830246 89.69568
2024-01-30T09:00:00 4.820245 86.18172
2024-01-30T10:00:00 7.690245 78.47096
2024-01-30T11:00:00 9.610246 73.42168
2024-01-30T12:00:00 10.83025 66.61264
2024-01-30T13:00:00 11.81025 61.92671
2024-01-30T14:00:00 12.02025 62.19576
2024-01-30T15:00:00 11.68025 67.12958
2024-01-30T16:00:00 10.82025 72.28305
2024-01-30T17:00:00 9.720245 77.55027
2024-01-30T18:00:00 8.540245 81.52158
2024-01-30T19:00:00 7.340245 84.6741
2024-01-30T20:00:00 6.150245 88.06092
2024-01-30T21:00:00 5.170245 90.81249
2024-01-30T22:00:00 5.220245 88.33964
2024-01-30T23:00:00 4.830246 89.43835
2024-01-31T00:00:00 4.090245 91.56582
2024-01-31T01:00:00 3.450245 94.17423
2024-01-31T02:00:00 2.660245 95.2828
2024-01-31T03:00:00 2.320245 95.19534
2024-01-31T04:00:00 2.140245 94.84202
2024-01-31T05:00:00 2.250246 94.64332
2024-01-31T06:00:00 2.510245 93.64088
2024-01-31T07:00:00 2.950245 92.7322
2024-01-31T08:00:00 3.940246 89.80177
2024-01-31T09:00:00 5.590245 87.87814
2024-01-31T10:00:00 7.450245 84.86607
2024-01-31T11:00:00 9.840245 78.1651
2024-01-31T12:00:00 11.30025 72.52708
2024-01-31T13:00:00 12.27025 66.88745
2024-01-31T14:00:00 12.76025 62.89858
2024-01-31T15:00:00 12.67025 64.78537
2024-01-31T16:00:00 10.73025 74.97368
2024-01-31T17:00:00 8.600245 83.13648
2024-01-31T18:00:00 8.400246 85.27804
2024-01-31T19:00:00 7.900245 87.32229
2024-01-31T20:00:00 7.360245 89.23612
2024-01-31T21:00:00 7.340245 89.73322
2024-01-31T22:00:00 7.420245 89.24168
2024-01-31T23:00:00 7.920245 89.41175
2024-02-01T00:00:00 8.090245 89.05607
2024-02-01T01:00:00 8.230246 88.14826
2024-02-01T02:00:00 8.530246 86.42514
2024-02-01T03:00:00 8.800245 85.62143
2024-02-01T04:00:00 8.740245 85.97098
2024-02-01T05:00:00 8.520246 88.60472
2024-02-01T06:00:00 8.520246 89.219
2024-02-01T07:00:00 8.510245 88.05405
2024-02-01T08:00:00 8.480246 87.6255
2024-02-01T09:00:00 8.500245 88.66408
2024-02-01T10:00:00 8.870245 89.68192
2024-02-01T11:00:00 9.290245 90.39753
2024-02-01T12:00:00 9.610246 91.29234
2024-02-01T13:00:00 9.800245 91.74303
2024-02-01T14:00:00 9.900246 92.75415
2024-02-01T15:00:00 10.01025 92.69811
2024-02-01T16:00:00 9.730246 93.44016
2024-02-01T17:00:00 9.290245 94.2465
2024-02-01T18:00:00 8.520246 96.09634
2024-02-01T19:00:00 8.350245 96.68399
2024-02-01T20:00:00 7.800245 97.06407
2024-02-01T21:00:00 7.340245 97.18268
2024-02-01T22:00:00 6.680245 96.75677
2024-02-01T23:00:00 6.510245 96.28052
2024-02-02T00:00:00 6.320245 96.4069
2024-02-02T01:00:00 6.380245 96.27515
2024-02-02T02:00:00 6.140245 96.80387
2024-02-02T03:00:00 5.710245 97.26269
2024-02-02T04:00:00 5.610245 97.80521
2024-02-02T05:00:00 5.860245 98.29179
2024-02-02T06:00:00 6.070245 98.36578
2024-02-02T07:00:00 6.230245 98.02824
2024-02-02T08:00:00 6.380245 97.28554
2024-02-02T09:00:00 6.780245 95.29358
2024-02-02T10:00:00 8.280246 87.54422
2024-02-02T11:00:00 9.310246 84.44746
2024-02-02T12:00:00 10.43025 78.47721
2024-02-02T13:00:00 11.07025 74.26098
2024-02-02T14:00:00 11.20025 71.45951
2024-02-02T15:00:00 10.93025 72.35478
2024-02-02T16:00:00 9.650246 78.62434
2024-02-02T17:00:00 7.610245 86.14143
2024-02-02T18:00:00 6.550245 88.78542
2024-02-02T19:00:00 5.620246 91.04295
2024-02-02T20:00:00 5.090245 92.03573
2024-02-02T21:00:00 4.760245 92.99445
2024-02-02T22:00:00 4.930245 91.89325
2024-02-02T23:00:00 4.700245 92.07131
2024-02-03T00:00:00 4.040246 92.28356
2024-02-03T01:00:00 3.930245 92.47311
2024-02-03T02:00:00 3.940246 92.07848
2024-02-03T03:00:00 3.900245 91.74696
2024-02-03T04:00:00 3.840245 93.12917
2024-02-03T05:00:00 3.540246 94.85512
2024-02-03T06:00:00 3.300245 94.43498
2024-02-03T07:00:00 3.320245 93.8295
2024-02-03T08:00:00 4.390245 92.50713
2024-02-03T09:00:00 5.810246 90.99445
2024-02-03T10:00:00 6.990245 88.14678
2024-02-03T11:00:00 8.330246 82.98458
2024-02-03T12:00:00 8.930245 78.72797
2024-02-03T13:00:00 9.460245 74.84702
2024-02-03T14:00:00 9.630245 72.91277
2024-02-03T15:00:00 9.150246 74.1106
2024-02-03T16:00:00 7.990245 78.90807
2024-02-03T17:00:00 6.840245 85.08942
2024-02-03T18:00:00 6.080246 88.48951
2024-02-03T19:00:00 5.780245 90.03483
2024-02-03T20:00:00 5.670245 91.36856
2024-02-03T21:00:00 5.560246 92.26603
2024-02-03T22:00:00 5.470245 91.93462
2024-02-03T23:00:00 5.360245 92.57739
2024-02-04T00:00:00 5.490245 92.13086
2024-02-04T01:00:00 5.410245 91.80035
2024-02-04T02:00:00 5.390245 91.86365
2024-02-04T03:00:00 5.350246 91.34287
2024-02-04T04:00:00 5.410245 91.02558
2024-02-04T05:00:00 5.330246 90.76182
2024-02-04T06:00:00 5.220245 90.17581
2024-02-04T07:00:00 5.160245 89.97886
2024-02-04T08:00:00 5.600246 89.06918
2024-02-04T09:00:00 6.480245 87.10857
2024-02-04T10:00:00 7.250245 85.61865
2024-02-04T11:00:00 8.080246 81.8555
2024-02-04T12:00:00 8.830245 78.76691
2024-02-04T13:00:00 9.330245 76.51728
2024-02-04T14:00:00 9.390245 75.72969
2024-02-04T15:00:00 9.180245 75.0583
2024-02-04T16:00:00 8.420245 77.93115
2024-02-04T17:00:00 7.130245 84.05477
2024-02-04T18:00:00 6.670245 86.27548
2024-02-04T19:00:00 6.350246 87.83379
2024-02-04T20:00:00 6.140245 88.87043
2024-02-04T21:00:00 5.740245 90.0948
2024-02-04T22:00:00 5.800245 89.78292
2024-02-04T23:00:00 5.700245 89.90064
2024-02-05T00:00:00 5.620246 89.76643
2024-02-05T01:00:00 5.530245 89.37806
2024-02-05T02:00:00 5.470245 88.99352
2024-02-05T03:00:00 5.220245 89.98431
2024-02-05T04:00:00 5.040245 90.22367
2024-02-05T05:00:00 4.640245 90.89644
2024-02-05T06:00:00 4.590245 90.50486
2024-02-05T07:00:00 4.410245 91.0064
2024-02-05T08:00:00 5.100246 89.21032
2024-02-05T09:00:00 5.960245 87.4214
2024-02-05T10:00:00 7.040245 82.22678
2024-02-05T11:00:00 8.170245 79.54931
2024-02-05T12:00:00 9.060246 74.56371
2024-02-05T13:00:00 9.970245 71.61253
2024-02-05T14:00:00 10.45025 70.12283
2024-02-05T15:00:00 10.42025 69.57861
2024-02-05T16:00:00 8.560246 77.40929
2024-02-05T17:00:00 6.130245 85.06179
2024-02-05T18:00:00 5.140245 89.40437
2024-02-05T19:00:00 4.690245 91.80944
2024-02-05T20:00:00 4.060246 93.47685
2024-02-05T21:00:00 3.590245 94.18293
2024-02-05T22:00:00 3.240245 94.29615
2024-02-05T23:00:00 3.160245 93.81905
2024-02-06T00:00:00 3.070245 92.94127
2024-02-06T01:00:00 2.860245 92.99296
2024-02-06T02:00:00 2.630245 92.30782
2024-02-06T03:00:00 2.470245 92.56253
2024-02-06T04:00:00 2.520246 91.7671
2024-02-06T05:00:00 2.780245 92.31947
2024-02-06T06:00:00 2.790246 92.25371
2024-02-06T07:00:00 2.820245 92.05676
2024-02-06T08:00:00 4.060246 89.9417
2024-02-06T09:00:00 5.160245 86.1605
2024-02-06T10:00:00 6.280245 82.82079
2024-02-06T11:00:00 7.140245 77.77071
2024-02-06T12:00:00 7.860245 74.44441
2024-02-06T13:00:00 8.260245 72.33572
2024-02-06T14:00:00 8.370246 71.18658
2024-02-06T15:00:00 8.170245 71.95914
2024-02-06T16:00:00 7.690245 74.57105
2024-02-06T17:00:00 6.760245 78.42818
2024-02-06T18:00:00 6.750245 78.87392
2024-02-06T19:00:00 6.740245 80.34205
2024-02-06T20:00:00 6.830246 80.75552
2024-02-06T21:00:00 6.800245 80.80821
2024-02-06T22:00:00 6.630245 81.70413
2024-02-06T23:00:00 6.810246 80.23899
2024-02-07T00:00:00 6.830246 79.675
2024-02-07T01:00:00 6.600246 80.54886
2024-02-07T02:00:00 6.700245 80.33587
2024-02-07T03:00:00 6.780245 81.09195
2024-02-07T04:00:00 6.910245 81.74487
2024-02-07T05:00:00 7.350246 81.11955
2024-02-07T06:00:00 7.720245 80.60546
2024-02-07T07:00:00 7.960245 80.41547
2024-02-07T08:00:00 8.290245 79.40088
2024-02-07T09:00:00 8.740245 78.2579
2024-02-07T10:00:00 9.460245 76.75381
2024-02-07T11:00:00 9.910245 74.92924
2024-02-07T12:00:00 10.42025 72.20461
2024-02-07T13:00:00 11.06025 68.17362
2024-02-07T14:00:00 11.28025 68.0312
2024-02-07T15:00:00 11.47025 64.86922
2024-02-07T16:00:00 10.99025 65.90485
2024-02-07T17:00:00 10.29025 71.02807
2024-02-07T18:00:00 9.720245 78.30859
2024-02-07T19:00:00 9.170245 85.84174
2024-02-07T20:00:00 9.270246 86.98449
2024-02-07T21:00:00 9.300245 87.88995
2024-02-07T22:00:00 9.370245 88.68514
2024-02-07T23:00:00 9.380245 89.29658
2024-02-08T00:00:00 9.610246 87.67976
2024-02-08T01:00:00 9.620245 87.92165
2024-02-08T02:00:00 9.810246 87.39994
2024-02-08T03:00:00 9.910245 86.22053
2024-02-08T04:00:00 10.05025 85.29543
2024-02-08T05:00:00 10.13025 84.95457
2024-02-08T06:00:00 10.22025 84.61652
2024-02-08T07:00:00 10.32025 84.68655
2024-02-08T08:00:00 10.62025 85.47791
2024-02-08T09:00:00 10.91025 86.44696
2024-02-08T10:00:00 11.21025 88.4939
2024-02-08T11:00:00 12.03025 86.6237
2024-02-08T12:00:00 12.65025 79.95539
2024-02-08T13:00:00 13.21025 75.77184
2024-02-08T14:00:00 13.71025 71.70705
2024-02-08T15:00:00 13.81025 71.33736
2024-02-08T16:00:00 12.34025 77.08035
2024-02-08T17:00:00 10.87025 80.84636
2024-02-08T18:00:00 10.03025 85.29309
2024-02-08T19:00:00 10.00025 86.23044
2024-02-08T20:00:00 9.850245 88.06472
2024-02-08T21:00:00 9.980246 88.13757
2024-02-08T22:00:00 10.28025 86.79329
2024-02-08T23:00:00 10.08025 89.05434
2024-02-09T00:00:00 9.900246 91.68767
2024-02-09T01:00:00 9.740245 93.95033
2024-02-09T02:00:00 10.05025 92.51196
2024-02-09T03:00:00 10.40025 91.66077
2024-02-09T04:00:00 10.51025 89.45683
2024-02-09T05:00:00 10.51025 88.3687
2024-02-09T06:00:00 10.45025 88.54365
2024-02-09T07:00:00 10.47025 87.16922
2024-02-09T08:00:00 10.80025 86.25885
2024-02-09T09:00:00 11.30025 84.80293
2024-02-09T10:00:00 11.98025 81.88992
2024-02-09T11:00:00 12.55025 80.81142
2024-02-09T12:00:00 13.07025 79.6936
2024-02-09T13:00:00 13.12025 78.102
2024-02-09T14:00:00 12.33025 82.04826
2024-02-09T15:00:00 11.53025 85.40696
2024-02-09T16:00:00 10.80025 89.60315
2024-02-09T17:00:00 10.09025 93.71484
2024-02-09T18:00:00 9.580245 97.1205
2024-02-09T19:00:00 9.230246 98.37115
2024-02-09T20:00:00 8.950245 99.03639
2024-02-09T21:00:00 8.680245 99.0995
2024-02-09T22:00:00 8.700245 98.49405
2024-02-09T23:00:00 8.700245 98.76288
2024-02-10T00:00:00 8.790245 97.16235
2024-02-10T01:00:00 8.730246 96.82945
2024-02-10T02:00:00 8.290245 97.34644
2024-02-10T03:00:00 8.250245 97.34524
2024-02-10T04:00:00 8.050245 97.33913
2024-02-10T05:00:00 7.820245 97.33202
2024-02-10T06:00:00 7.700245 97.79806
2024-02-10T07:00:00 7.710245 96.92754
2024-02-10T08:00:00 7.940245 96.40391
2024-02-10T09:00:00 8.400246 96.68576
2024-02-10T10:00:00 9.450245 94.06255
2024-02-10T11:00:00 10.09025 92.76612
2024-02-10T12:00:00 11.00025 89.37782
2024-02-10T13:00:00 11.72025 87.47264
2024-02-10T14:00:00 11.96025 85.62868
2024-02-10T15:00:00 11.76025 85.78026
2024-02-10T16:00:00 11.18025 89.57472
2024-02-10T17:00:00 11.17025 91.34436
2024-02-10T18:00:00 10.40025 93.41555
2024-02-10T19:00:00 9.240245 96.64906
2024-02-10T20:00:00 9.280245 96.25689
2024-02-10T21:00:00 8.980246 94.35893
2024-02-10T22:00:00 9.190246 87.81854
2024-02-10T23:00:00 7.990245 87.08918
2024-02-11T00:00:00 6.660245 87.86607
2024-02-11T01:00:00 6.040245 87.67739
2024-02-11T02:00:00 6.020245 88.42108
2024-02-11T03:00:00 6.190245 88.6253
2024-02-11T04:00:00 6.410245 88.95915
2024-02-11T05:00:00 6.490245 88.34395
2024-02-11T06:00:00 6.590245 87.67374
2024-02-11T07:00:00 6.610245 87.61424
2024-02-11T08:00:00 7.060246 86.56265
2024-02-11T09:00:00 7.750245 85.14066
2024-02-11T10:00:00 8.400246 83.45807
2024-02-11T11:00:00 9.020246 79.45991
2024-02-11T12:00:00 9.490245 76.27837
2024-02-11T13:00:00 9.810246 73.45989
2024-02-11T14:00:00 9.870245 71.19181
2024-02-11T15:00:00 9.660245 72.10491
2024-02-11T16:00:00 9.100245 74.67591
2024-02-11T17:00:00 8.520246 78.22172
2024-02-11T18:00:00 8.520246 78.99323
2024-02-11T19:00:00 8.390245 79.58379
2024-02-11T20:00:00 8.420245 80.82355
2024-02-11T21:00:00 8.270246 83.4992
2024-02-11T22:00:00 7.910245 86.35593
2024-02-11T23:00:00 7.740245 87.97678
2024-02-12T00:00:00 7.680245 87.90945
2024-02-12T01:00:00 7.570245 88.20511
2024-02-12T02:00:00 7.540245 88.26362
2024-02-12T03:00:00 7.440245 88.74738
2024-02-12T04:00:00 7.260245 89.66353
2024-02-12T05:00:00 7.110245 90.46696
2024-02-12T06:00:00 6.870246 91.33534
2024-02-12T07:00:00 6.640245 91.12588
2024-02-12T08:00:00 7.050245 90.65143
2024-02-12T09:00:00 7.830246 86.76925
2024-02-12T10:00:00 8.570246 82.61306
2024-02-12T11:00:00 9.110246 76.63975
2024-02-12T12:00:00 9.470245 74.01493
2024-02-12T13:00:00 9.580245 70.83314
2024-02-12T14:00:00 9.710245 69.23277
2024-02-12T15:00:00 9.570246 67.84721
2024-02-12T16:00:00 8.970245 72.57909
2024-02-12T17:00:00 7.670245 77.148
2024-02-12T18:00:00 7.120246 80.45742
2024-02-12T19:00:00 6.570245 83.09589
2024-02-12T20:00:00 6.300245 84.3636
2024-02-12T21:00:00 5.750245 87.08973
2024-02-12T22:00:00 5.340245 87.16793
2024-02-12T23:00:00 4.950245 87.68515
2024-02-13T00:00:00 4.690245 89.68009
2024-02-13T01:00:00 4.370246 90.16327
2024-02-13T02:00:00 4.020246 91.75653
2024-02-13T03:00:00 3.550245 92.04813
2024-02-13T04:00:00 2.920245 92.72997
2024-02-13T05:00:00 2.970245 93.40295
2024-02-13T06:00:00 2.850246 94.00124
2024-02-13T07:00:00 2.340245 94.44409
2024-02-13T08:00:00 4.600246 90.57018
2024-02-13T09:00:00 6.790245 84.54546
2024-02-13T10:00:00 8.650246 76.66736
2024-02-13T11:00:00 9.820246 68.5764
2024-02-13T12:00:00 10.77025 60.93142
2024-02-13T13:00:00 11.30025 55.99685
2024-02-13T14:00:00 11.48025 53.54008
2024-02-13T15:00:00 11.43025 52.46149
2024-02-13T16:00:00 10.76025 52.122
2024-02-13T17:00:00 8.710245 64.26303
2024-02-13T18:00:00 6.930245 72.89889
2024-02-13T19:00:00 4.110245 85.78784
2024-02-13T20:00:00 3.080246 90.89182
2024-02-13T21:00:00 3.330246 92.36174
2024-02-13T22:00:00 3.400245 91.97035
2024-02-13T23:00:00 3.680245 91.46687
2024-02-14T00:00:00 3.790246 90.8233
2024-02-14T01:00:00 3.960246 90.51368
2024-02-14T02:00:00 4.110245 89.68935
2024-02-14T03:00:00 4.630245 88.02689
2024-02-14T04:00:00 5.720245 81.92041
2024-02-14T05:00:00 6.120246 79.27825
2024-02-14T06:00:00 6.470245 78.10081
2024-02-14T07:00:00 6.910245 76.46933
2024-02-14T08:00:00 7.460245 78.37757
2024-02-14T09:00:00 8.690246 76.24469
2024-02-14T10:00:00 10.34025 73.71439
2024-02-14T11:00:00 11.66025 71.60043
2024-02-14T12:00:00 12.71025 70.87684
2024-02-14T13:00:00 13.17025 71.30901
2024-02-14T14:00:00 13.41025 71.79547
2024-02-14T15:00:00 13.52025 72.80091
2024-02-14T16:00:00 12.92025 77.75359
2024-02-14T17:00:00 13.41025 71.84443
2024-02-14T18:00:00 11.25025 82.80064
2024-02-14T19:00:00 10.49025 87.17127
2024-02-14T20:00:00 9.810246 90.56309
2024-02-14T21:00:00 8.710245 93.63622
2024-02-14T22:00:00 7.790245 97.26419
2024-02-14T23:00:00 6.510245 97.69621
2024-02-15T00:00:00 5.410245 98.00484
2024-02-15T01:00:00 4.720245 97.50206
2024-02-15T02:00:00 4.740245 97.5715
2024-02-15T03:00:00 4.760245 97.50343
2024-02-15T04:00:00 4.870246 96.27834
2024-02-15T05:00:00 5.120246 96.28919
2024-02-15T06:00:00 5.090245 96.42352
2024-02-15T07:00:00 5.370246 96.97828
2024-02-15T08:00:00 6.310246 94.674
2024-02-15T09:00:00 8.250245 89.56541
2024-02-15T10:00:00 10.32025 82.45084
2024-02-15T11:00:00 12.74025 74.00671
2024-02-15T12:00:00 13.94025 67.57582
2024-02-15T13:00:00 14.40025 65.26946
2024-02-15T14:00:00 14.67025 64.04803
2024-02-15T15:00:00 14.40025 66.03253
2024-02-15T16:00:00 13.28025 73.75303
2024-02-15T17:00:00 12.22025 75.34251
2024-02-15T18:00:00 10.64025 83.97533
2024-02-15T19:00:00 9.660245 87.86533
2024-02-15T20:00:00 8.890245 89.74539
2024-02-15T21:00:00 8.300245 90.50321
2024-02-15T22:00:00 9.030245 90.25223
2024-02-15T23:00:00 8.750245 91.16491
2024-02-16T00:00:00 8.770246 89.98248
2024-02-16T01:00:00 8.880245 89.43623
2024-02-16T02:00:00 9.000245 87.6181
2024-02-16T03:00:00 8.930245 86.88838
2024-02-16T04:00:00 8.790245 87.29466
2024-02-16T05:00:00 8.600245 88.00215
2024-02-16T06:00:00 8.430245 89.14916
2024-02-16T07:00:00 8.810246 87.71977
2024-02-16T08:00:00 9.970245 84.41216
2024-02-16T09:00:00 11.70025 80.91013
2024-02-16T10:00:00 13.09025 73.06786
2024-02-16T11:00:00 13.53025 71.33107
2024-02-16T12:00:00 13.62025 72.12996
2024-02-16T13:00:00 13.87025 72.374
2024-02-16T14:00:00 13.94025 73.42472
2024-02-16T15:00:00 13.92025 75.07793
2024-02-16T16:00:00 13.26025 79.39989
2024-02-16T17:00:00 12.05025 85.87002
2024-02-16T18:00:00 11.32025 88.68363
2024-02-16T19:00:00 10.66025 91.12228
2024-02-16T20:00:00 10.41025 91.97267
2024-02-16T21:00:00 9.930245 93.45178
2024-02-16T22:00:00 10.59025 92.92279
2024-02-16T23:00:00 10.44025 93.35468
2024-02-17T00:00:00 10.53025 93.23378
2024-02-17T01:00:00 10.41025 93.66919
2024-02-17T02:00:00 10.35025 93.91962
2024-02-17T03:00:00 10.29025 94.48988
2024-02-17T04:00:00 10.35025 94.3652
2024-02-17T05:00:00 10.16025 95.44703
2024-02-17T06:00:00 10.17025 95.061
2024-02-17T07:00:00 9.860246 95.82297
2024-02-17T08:00:00 10.23025 96.22665
2024-02-17T09:00:00 10.60025 95.08033
2024-02-17T10:00:00 10.67025 94.82757
2024-02-17T11:00:00 11.02025 90.71896
2024-02-17T12:00:00 11.25025 87.60385
2024-02-17T13:00:00 11.57025 85.35365
2024-02-17T14:00:00 11.60025 84.72318
2024-02-17T15:00:00 11.52025 83.57125
2024-02-17T16:00:00 11.19025 84.61716
2024-02-17T17:00:00 10.30025 89.98793
2024-02-17T18:00:00 9.580245 91.97811
2024-02-17T19:00:00 9.370245 92.53067
2024-02-17T20:00:00 9.070246 93.20986
2024-02-17T21:00:00 8.420245 94.13518
2024-02-17T22:00:00 8.930245 90.55457
2024-02-17T23:00:00 8.480246 91.71093
2024-02-18T00:00:00 7.820245 93.51897
2024-02-18T01:00:00 7.010245 94.97462
2024-02-18T02:00:00 7.020245 94.8434
2024-02-18T03:00:00 6.900245 95.16713
2024-02-18T04:00:00 6.270245 95.40166
2024-02-18T05:00:00 5.570245 96.44358
2024-02-18T06:00:00 5.700245 97.39848
2024-02-18T07:00:00 5.620246 97.60046
2024-02-18T08:00:00 6.580246 97.0897
2024-02-18T09:00:00 7.930245 93.97833
2024-02-18T10:00:00 9.100245 89.33288
2024-02-18T11:00:00 10.40025 84.46454
2024-02-18T12:00:00 11.03025 82.94149
2024-02-18T13:00:00 11.55025 78.43966
2024-02-18T14:00:00 11.99025 74.17403
2024-02-18T15:00:00 11.57025 74.91782
2024-02-18T16:00:00 10.94025 75.53177
2024-02-18T17:00:00 10.31025 76.05069
2024-02-18T18:00:00 9.790245 79.30406
2024-02-18T19:00:00 9.050245 87.38194
2024-02-18T20:00:00 8.960245 88.46357
2024-02-18T21:00:00 8.940246 89.93507
2024-02-18T22:00:00 8.830245 91.86242
2024-02-18T23:00:00 8.840245 93.57966
2024-02-19T00:00:00 8.850245 94.09421
2024-02-19T01:00:00 8.830245 94.86884
2024-02-19T02:00:00 8.910245 94.8079
2024-02-19T03:00:00 8.950245 95.0693
2024-02-19T04:00:00 8.980246 95.78718
2024-02-19T05:00:00 8.900246 96.57138
2024-02-19T06:00:00 8.890245 96.24217
2024-02-19T07:00:00 8.870245 95.52131
2024-02-19T08:00:00 9.190246 92.70882
2024-02-19T09:00:00 9.670245 90.24316
2024-02-19T10:00:00 10.67025 88.74471
2024-02-19T11:00:00 11.04025 86.1091
2024-02-19T12:00:00 11.44025 80.5974
2024-02-19T13:00:00 11.53025 75.73969
2024-02-19T14:00:00 11.86025 71.34381
2024-02-19T15:00:00 11.84025 68.29453
2024-02-19T16:00:00 11.26025 72.46914
2024-02-19T17:00:00 10.31025 75.99795
2024-02-19T18:00:00 10.12025 77.40183
2024-02-19T19:00:00 9.940246 80.71104
2024-02-19T20:00:00 9.610246 84.89265
2024-02-19T21:00:00 9.280245 89.34895
2024-02-19T22:00:00 9.120245 90.01218
2024-02-19T23:00:00 8.960245 89.13614
2024-02-20T00:00:00 8.690246 88.68212
2024-02-20T01:00:00 8.190246 90.30666
2024-02-20T02:00:00 7.940245 90.28565
2024-02-20T03:00:00 7.670245 90.3255
2024-02-20T04:00:00 7.200245 90.53761
2024-02-20T05:00:00 6.800245 90.50398
2024-02-20T06:00:00 6.540245 90.41855
2024-02-20T07:00:00 6.420245 91.04435
2024-02-20T08:00:00 7.230245 87.31207
2024-02-20T09:00:00 8.400246 82.5898
2024-02-20T10:00:00 9.680245 71.85629
2024-02-20T11:00:00 10.48025 63.95618
2024-02-20T12:00:00 10.87025 60.26848
2024-02-20T13:00:00 11.07025 58.50534
2024-02-20T14:00:00 11.23025 56.70163
2024-02-20T15:00:00 11.26025 55.27069
2024-02-20T16:00:00 10.72025 67.10419
2024-02-20T17:00:00 9.330245 65.7087
2024-02-20T18:00:00 8.050245 73.53608
2024-02-20T19:00:00 7.210245 77.01352
2024-02-20T20:00:00 6.110245 80.64565
2024-02-20T21:00:00 5.230245 84.52566
2024-02-20T22:00:00 3.650245 90.8111
2024-02-20T23:00:00 3.460246 90.4039
2024-02-21T00:00:00 3.180245 91.16265
2024-02-21T01:00:00 3.820245 89.59747
2024-02-21T02:00:00 4.060246 87.65105
2024-02-21T03:00:00 3.830246 87.31124
2024-02-21T04:00:00 3.170245 89.92277
2024-02-21T05:00:00 2.570245 92.03683
2024-02-21T06:00:00 2.080246 93.20563
2024-02-21T07:00:00 2.600246 93.31
2024-02-21T08:00:00 3.990245 90.64595
2024-02-21T09:00:00 6.060246 86.63272
2024-02-21T10:00:00 8.350245 79.80094
2024-02-21T11:00:00 10.16025 70.06242
2024-02-21T12:00:00 11.42025 64.13393
2024-02-21T13:00:00 11.85025 60.98609
2024-02-21T14:00:00 12.14025 60.58837
2024-02-21T15:00:00 12.22025 61.46465
2024-02-21T16:00:00 11.61025 61.96479
2024-02-21T17:00:00 10.90025 63.60601
2024-02-21T18:00:00 10.80025 64.34912
2024-02-21T19:00:00 10.85025 63.50437
2024-02-21T20:00:00 11.20025 62.43407
2024-02-21T21:00:00 11.43025 58.64046
2024-02-21T22:00:00 11.42025 59.64344
2024-02-21T23:00:00 10.99025 64.89412
2024-02-22T00:00:00 10.79025 68.30597
2024-02-22T01:00:00 10.68025 71.10715
2024-02-22T02:00:00 10.30025 76.47212
2024-02-22T03:00:00 10.07025 80.8416
2024-02-22T04:00:00 10.01025 84.99865
2024-02-22T05:00:00 10.07025 86.00217
2024-02-22T06:00:00 10.18025 85.89673
2024-02-22T07:00:00 10.26025 85.6709
2024-02-22T08:00:00 10.52025 85.23323
2024-02-22T09:00:00 10.85025 84.00136
2024-02-22T10:00:00 10.97025 84.64858
2024-02-22T11:00:00 11.21025 83.98855
2024-02-22T12:00:00 11.88025 79.95023
2024-02-22T13:00:00 11.98025 79.74763
2024-02-22T14:00:00 12.24025 77.59112
2024-02-22T15:00:00 12.15025 78.4807
2024-02-22T16:00:00 11.95025 79.30977
2024-02-22T17:00:00 12.18025 78.16528
2024-02-22T18:00:00 12.93025 75.26157
2024-02-22T19:00:00 12.65025 75.46928
2024-02-22T20:00:00 10.28025 81.82417
2024-02-22T21:00:00 8.810246 81.73087
2024-02-22T22:00:00 8.580245 80.62171
2024-02-22T23:00:00 7.470245 80.28407
2024-02-23T00:00:00 6.650245 82.75491
2024-02-23T01:00:00 6.080246 83.20569
2024-02-23T02:00:00 5.820245 82.16899
2024-02-23T03:00:00 5.510245 81.13179
2024-02-23T04:00:00 5.270245 79.59576
2024-02-23T05:00:00 4.760245 79.22641
2024-02-23T06:00:00 4.080246 80.38642
2024-02-23T07:00:00 3.610245 82.38015
2024-02-23T08:00:00 5.210245 77.49348
2024-02-23T09:00:00 6.710245 70.68797
2024-02-23T10:00:00 7.830246 66.0192
2024-02-23T11:00:00 9.030245 60.79572
2024-02-23T12:00:00 9.540245 56.32808
2024-02-23T13:00:00 9.830245 55.43757
2024-02-23T14:00:00 10.04025 54.77845
2024-02-23T15:00:00 9.780245 56.84231
2024-02-23T16:00:00 9.370245 60.53361
2024-02-23T17:00:00 7.480245 68.94637
2024-02-23T18:00:00 6.160245 75.84372
2024-02-23T19:00:00 6.030245 75.65664
2024-02-23T20:00:00 5.790245 77.09469
2024-02-23T21:00:00 5.480245 78.83344
2024-02-23T22:00:00 4.650245 87.96619
2024-02-23T23:00:00 4.290246 87.8648
2024-02-24T00:00:00 4.050245 89.23526
2024-02-24T01:00:00 4.230246 88.9979
2024-02-24T02:00:00 3.990245 88.97392
2024-02-24T03:00:00 3.900245 90.24946
2024-02-24T04:00:00 4.290246 87.67621
2024-02-24T05:00:00 4.560246 85.41318
2024-02-24T06:00:00 4.470245 85.52459
2024-02-24T07:00:00 3.950245 86.20152
2024-02-24T08:00:00 5.510245 81.53912
2024-02-24T09:00:00 6.590245 72.3095
2024-02-24T10:00:00 7.500245 68.90128
2024-02-24T11:00:00 8.180245 64.41293
2024-02-24T12:00:00 8.390245 62.05012
2024-02-24T13:00:00 8.680245 61.67697
2024-02-24T14:00:00 9.000245 61.66869
2024-02-24T15:00:00 8.500245 65.70293
2024-02-24T16:00:00 7.770245 72.03194
2024-02-24T17:00:00 6.590245 77.34518
2024-02-24T18:00:00 4.940245 82.98843
2024-02-24T19:00:00 3.460246 86.64174
2024-02-24T20:00:00 2.610245 88.38337
2024-02-24T21:00:00 2.050245 88.71028
2024-02-24T22:00:00 1.720245 89.8485
2024-02-24T23:00:00 1.590245 91.22313
2024-02-25T00:00:00 1.310245 90.79936
2024-02-25T01:00:00 1.100246 91.11314
2024-02-25T02:00:00 1.320245 89.74352
2024-02-25T03:00:00 1.580245 89.18071
2024-02-25T04:00:00 1.670245 89.45091
2024-02-25T05:00:00 1.740246 90.44208
2024-02-25T06:00:00 1.850245 90.51822
2024-02-25T07:00:00 2.150245 89.75967
2024-02-25T08:00:00 3.810246 85.56564
2024-02-25T09:00:00 6.350246 80.45317
2024-02-25T10:00:00 8.670245 66.83175
2024-02-25T11:00:00 10.06025 56.59082
2024-02-25T12:00:00 11.23025 50.00409
2024-02-25T13:00:00 11.68025 47.1436
2024-02-25T14:00:00 11.96025 43.84874
2024-02-25T15:00:00 11.95025 45.57288
2024-02-25T16:00:00 10.85025 48.18259
2024-02-25T17:00:00 8.920245 56.28192
2024-02-25T18:00:00 7.800245 63.81242
2024-02-25T19:00:00 7.150245 70.17359
2024-02-25T20:00:00 7.340245 70.87141
2024-02-25T21:00:00 7.470245 73.37114
2024-02-25T22:00:00 7.190245 77.44874
2024-02-25T23:00:00 7.190245 77.17429
2024-02-26T00:00:00 7.060246 80.39134
2024-02-26T01:00:00 6.900245 85.63722
2024-02-26T02:00:00 6.550245 90.03999
2024-02-26T03:00:00 6.360245 92.51814
2024-02-26T04:00:00 6.370246 93.62525
2024-02-26T05:00:00 6.460245 92.84915
2024-02-26T06:00:00 6.660245 91.38272
2024-02-26T07:00:00 6.630245 91.25264
2024-02-26T08:00:00 7.390245 88.92841
2024-02-26T09:00:00 8.450246 83.81406
2024-02-26T10:00:00 9.540245 81.04437
2024-02-26T11:00:00 10.60025 75.21046
2024-02-26T12:00:00 11.41025 70.12606
2024-02-26T13:00:00 12.51025 65.9278
2024-02-26T14:00:00 12.96025 62.59728
2024-02-26T15:00:00 13.03025 62.57058
2024-02-26T16:00:00 12.20025 71.06776
2024-02-26T17:00:00 10.42025 77.77383
2024-02-26T18:00:00 8.700245 85.78795
2024-02-26T19:00:00 7.680245 90.70331
2024-02-26T20:00:00 6.990245 92.69097
2024-02-26T21:00:00 6.650245 93.1865
2024-02-26T22:00:00 5.760245 93.12803
2024-02-26T23:00:00 5.600246 92.39904
2024-02-27T00:00:00 5.310246 93.03219
2024-02-27T01:00:00 4.940245 92.94109
2024-02-27T02:00:00 4.640245 92.26308
2024-02-27T03:00:00 4.920245 91.69728
2024-02-27T04:00:00 5.370246 89.99792
2024-02-27T05:00:00 6.020245 88.54593
2024-02-27T06:00:00 6.650245 87.31111
2024-02-27T07:00:00 6.740245 87.25946
2024-02-27T08:00:00 7.260245 86.34286
2024-02-27T09:00:00 7.900245 83.91869
2024-02-27T10:00:00 8.730246 79.63683
2024-02-27T11:00:00 9.580245 73.0566
2024-02-27T12:00:00 10.43025 67.32295
2024-02-27T13:00:00 10.80025 65.39987
2024-02-27T14:00:00 10.82025 66.05141
2024-02-27T15:00:00 10.65025 65.73447
2024-02-27T16:00:00 10.22025 67.51352
2024-02-27T17:00:00 9.590245 69.6478
2024-02-27T18:00:00 9.180245 71.60441
2024-02-27T19:00:00 8.800245 73.47282
2024-02-27T20:00:00 8.400246 75.17979
2024-02-27T21:00:00 7.520245 79.11083
2024-02-27T22:00:00 8.030246 78.85904
2024-02-27T23:00:00 8.000245 80.13966
2024-02-28T00:00:00 7.920245 80.91922
2024-02-28T01:00:00 7.420245 83.50395
2024-02-28T02:00:00 6.810246 84.90615
2024-02-28T03:00:00 6.440245 85.34089
2024-02-28T04:00:00 6.140245 85.48555
2024-02-28T05:00:00 6.010245 84.86619
2024-02-28T06:00:00 5.820245 84.48143
2024-02-28T07:00:00 5.350246 85.14597
2024-02-28T08:00:00 5.710245 84.52734
2024-02-28T09:00:00 6.710245 83.17376
2024-02-28T10:00:00 8.070246 77.70823
2024-02-28T11:00:00 8.970245 75.17813
2024-02-28T12:00:00 9.930245 71.30394
2024-02-28T13:00:00 10.29025 69.55117
2024-02-28T14:00:00 10.71025 66.67924
2024-02-28T15:00:00 10.71025 65.97991
2024-02-28T16:00:00 10.33025 69.41346
2024-02-28T17:00:00 9.200245 74.85173
2024-02-28T18:00:00 7.890245 80.23546
2024-02-28T19:00:00 6.890245 83.66901
2024-02-28T20:00:00 6.820245 81.55849
2024-02-28T21:00:00 6.280245 83.52856
2024-02-28T22:00:00 6.140245 81.51627
2024-02-28T23:00:00 5.730245 81.92188
2024-02-29T00:00:00 5.040245 83.65891
2024-02-29T01:00:00 3.900245 87.94888
2024-02-29T02:00:00 3.300245 88.96833
2024-02-29T03:00:00 3.050245 89.20026
2024-02-29T04:00:00 3.540246 86.58862
2024-02-29T05:00:00 3.420245 85.57871
2024-02-29T06:00:00 3.200245 86.29807
2024-02-29T07:00:00 3.550245 87.34263
2024-02-29T08:00:00 4.400245 87.62545
2024-02-29T09:00:00 6.060246 84.57219
2024-02-29T10:00:00 7.640245 80.2536
2024-02-29T11:00:00 8.990245 71.56594
2024-02-29T12:00:00 10.02025 67.80295
2024-02-29T13:00:00 10.85025 64.04417
2024-02-29T14:00:00 11.46025 62.23401
2024-02-29T15:00:00 11.52025 62.16111
2024-02-29T16:00:00 11.14025 64.97466
2024-02-29T17:00:00 8.560246 75.36818
2024-02-29T18:00:00 6.580246 82.39442
2024-02-29T19:00:00 5.580246 86.02644
2024-02-29T20:00:00 4.400245 90.55264
2024-02-29T21:00:00 4.180245 91.44254
2024-02-29T22:00:00 3.780245 95.07174
2024-02-29T23:00:00 3.810246 95.27677
2024-03-01T00:00:00 3.940246 94.94525
2024-03-01T01:00:00 4.380245 93.49806
2024-03-01T02:00:00 4.800245 92.93137
2024-03-01T03:00:00 5.540245 91.42264
2024-03-01T04:00:00 5.960245 90.8149
2024-03-01T05:00:00 6.230245 90.64624
2024-03-01T06:00:00 6.380245 90.9773
2024-03-01T07:00:00 6.750245 90.37322
2024-03-01T08:00:00 7.300245 89.41742
2024-03-01T09:00:00 7.860245 88.7876
2024-03-01T10:00:00 8.260245 85.61795
2024-03-01T11:00:00 8.470245 84.81359
2024-03-01T12:00:00 8.690246 81.54314
2024-03-01T13:00:00 9.210245 76.87175
2024-03-01T14:00:00 9.680245 71.65478
2024-03-01T15:00:00 9.810246 70.97998
2024-03-01T16:00:00 9.620245 72.96198
2024-03-01T17:00:00 8.090245 79.70452
2024-03-01T18:00:00 6.270245 85.92531
2024-03-01T19:00:00 5.630245 88.38156
2024-03-01T20:00:00 5.380245 89.42715
2024-03-01T21:00:00 5.030245 90.47919
2024-03-01T22:00:00 4.570245 90.1814
2024-03-01T23:00:00 3.880245 92.86643
2024-03-02T00:00:00 3.270246 94.02817
2024-03-02T01:00:00 3.160245 95.65176
2024-03-02T02:00:00 3.000246 95.84937
2024-03-02T03:00:00 2.900245 95.09097
2024-03-02T04:00:00 3.150245 94.56134
2024-03-02T05:00:00 3.570245 94.38377
2024-03-02T06:00:00 3.600246 93.51281
2024-03-02T07:00:00 3.980246 91.16513
2024-03-02T08:00:00 6.340245 84.548
2024-03-02T09:00:00 8.960245 78.89791
2024-03-02T10:00:00 10.51025 76.77345
2024-03-02T11:00:00 12.36025 69.02313
2024-03-02T12:00:00 13.32025 62.90114
2024-03-02T13:00:00 13.97025 57.94495
2024-03-02T14:00:00 13.86025 55.89013
2024-03-02T15:00:00 14.03025 55.97427
2024-03-02T16:00:00 13.41025 60.02034
2024-03-02T17:00:00 11.30025 68.55932
2024-03-02T18:00:00 10.86025 68.84869
2024-03-02T19:00:00 9.960245 74.93833
2024-03-02T20:00:00 7.100246 84.94205
2024-03-02T21:00:00 6.490245 87.53992
2024-03-02T22:00:00 6.770245 85.08082
2024-03-02T23:00:00 5.640245 89.51491
2024-03-03T00:00:00 5.750245 90.09569
2024-03-03T01:00:00 5.910245 91.00269
2024-03-03T02:00:00 6.350246 91.48651
2024-03-03T03:00:00 6.180245 91.92357
2024-03-03T04:00:00 5.800245 93.32714
2024-03-03T05:00:00 5.720245 93.97983
2024-03-03T06:00:00 5.300245 94.5519
2024-03-03T07:00:00 5.650245 93.1862
2024-03-03T08:00:00 7.350246 90.0472
2024-03-03T09:00:00 9.700245 82.02609
2024-03-03T10:00:00 11.28025 77.59378
2024-03-03T11:00:00 11.73025 75.82658
2024-03-03T12:00:00 12.14025 73.49199
2024-03-03T13:00:00 12.85025 71.39249
2024-03-03T14:00:00 13.31025 70.70586
2024-03-03T15:00:00 13.03025 70.16727
2024-03-03T16:00:00 12.13025 74.09788
2024-03-03T17:00:00 10.65025 79.60131
2024-03-03T18:00:00 9.190246 85.54828
2024-03-03T19:00:00 8.050245 89.79607
2024-03-03T20:00:00 8.250245 88.02811
2024-03-03T21:00:00 7.940245 87.75265
2024-03-03T22:00:00 8.410246 83.34315
2024-03-03T23:00:00 7.900245 83.80141
2024-03-04T00:00:00 7.530245 83.87077
2024-03-04T01:00:00 7.120246 84.34957
2024-03-04T02:00:00 6.760245 85.98284
2024-03-04T03:00:00 6.570245 87.24109
2024-03-04T04:00:00 6.420245 88.02673
2024-03-04T05:00:00 6.380245 88.51948
2024-03-04T06:00:00 6.340245 88.82737
2024-03-04T07:00:00 6.310246 90.14526
2024-03-04T08:00:00 6.420245 88.77274
2024-03-04T09:00:00 6.830246 87.82205
2024-03-04T10:00:00 7.430245 87.21145
2024-03-04T11:00:00 7.870246 85.03634
2024-03-04T12:00:00 8.460245 82.94423
2024-03-04T13:00:00 8.930245 81.69106
2024-03-04T14:00:00 9.230246 80.66227
2024-03-04T15:00:00 9.230246 80.27071
2024-03-04T16:00:00 9.080245 79.85785
2024-03-04T17:00:00 8.670245 82.16772
2024-03-04T18:00:00 7.990245 87.08918
2024-03-04T19:00:00 7.690245 87.54376
2024-03-04T20:00:00 7.410245 90.17786
2024-03-04T21:00:00 7.540245 88.81883
2024-03-04T22:00:00 7.300245 91.30528
2024-03-04T23:00:00 7.400245 91.12284
2024-03-05T00:00:00 7.520245 89.18884
2024-03-05T01:00:00 7.260245 90.92169
2024-03-05T02:00:00 7.160245 90.40811
2024-03-05T03:00:00 6.880245 91.01788
2024-03-05T04:00:00 6.850246 91.14267
2024-03-05T05:00:00 7.010245 89.39076
2024-03-05T06:00:00 6.790245 87.75631
2024-03-05T07:00:00 6.630245 88.29601
2024-03-05T08:00:00 6.730245 87.50392
2024-03-05T09:00:00 7.200245 82.94763
2024-03-05T10:00:00 8.000245 77.20486
2024-03-05T11:00:00 8.720245 72.01884
2024-03-05T12:00:00 9.500245 66.54635
2024-03-05T13:00:00 9.780245 64.60999
2024-03-05T14:00:00 10.09025 62.64996
2024-03-05T15:00:00 10.03025 64.76077
2024-03-05T16:00:00 9.590245 67.61207
2024-03-05T17:00:00 8.610246 75.37725
2024-03-05T18:00:00 7.320245 82.3243
2024-03-05T19:00:00 7.170245 83.35332
2024-03-05T20:00:00 6.780245 83.9501
2024-03-05T21:00:00 6.720245 82.82316
2024-03-05T22:00:00 6.490245 84.20925
2024-03-05T23:00:00 6.430245 84.8588
2024-03-06T00:00:00 6.190245 85.79446
2024-03-06T01:00:00 6.130245 86.7019
2024-03-06T02:00:00 5.970245 87.85596
2024-03-06T03:00:00 5.710245 89.26887
2024-03-06T04:00:00 5.620246 89.57634
2024-03-06T05:00:00 5.640245 89.26218
2024-03-06T06:00:00 5.530245 90.07601
2024-03-06T07:00:00 5.500245 91.22606
2024-03-06T08:00:00 5.850246 91.31862
2024-03-06T09:00:00 6.400245 88.45924
2024-03-06T10:00:00 7.030245 83.45204
2024-03-06T11:00:00 7.460245 79.15707
2024-03-06T12:00:00 8.040245 74.47828
2024-03-06T13:00:00 8.610246 71.59006
2024-03-06T14:00:00 8.470245 71.86665
2024-03-06T15:00:00 8.040245 75.64676
2024-03-06T16:00:00 7.530245 80.34988
2024-03-06T17:00:00 6.790245 86.2286
2024-03-06T18:00:00 6.020245 91.52495
2024-03-06T19:00:00 5.720245 93.65037
2024-03-06T20:00:00 5.470245 94.89442
2024-03-06T21:00:00 5.380245 95.15691
2024-03-06T22:00:00 5.630245 93.64471
2024-03-06T23:00:00 5.600246 93.577
2024-03-07T00:00:00 5.800245 90.54591
2024-03-07T01:00:00 5.890245 90.42616
2024-03-07T02:00:00 6.150245 89.37344
2024-03-07T03:00:00 6.460245 89.15164
2024-03-07T04:00:00 6.530245 89.3462
2024-03-07T05:00:00 6.490245 90.03469
2024-03-07T06:00:00 5.890245 93.006
2024-03-07T07:00:00 6.080246 91.14465
2024-03-07T08:00:00 6.320245 88.14047
2024-03-07T09:00:00 6.630245 85.12357
2024-03-07T10:00:00 7.170245 82.30319
2024-03-07T11:00:00 7.580246 78.89737
2024-03-07T12:00:00 8.170245 75.35027
2024-03-07T13:00:00 8.610246 71.844
2024-03-07T14:00:00 8.670245 70.29498
2024-03-07T15:00:00 8.510245 69.71413
2024-03-07T16:00:00 8.100245 72.81896
2024-03-07T17:00:00 7.110245 81.19849
2024-03-07T18:00:00 5.460245 88.36424
2024-03-07T19:00:00 4.480246 91.5321
2024-03-07T20:00:00 3.840245 92.73101
2024-03-07T21:00:00 3.080246 93.20947
2024-03-07T22:00:00 2.130245 92.73787
2024-03-07T23:00:00 1.300245 93.55717
2024-03-08T00:00:00 0.830245 93.04589
2024-03-08T01:00:00 0.560245 92.95728
2024-03-08T02:00:00 0.390245 93.28632
2024-03-08T03:00:00 0.190245 93.13429
2024-03-08T04:00:00 0.110245 92.71755
2024-03-08T05:00:00 0.150245 91.16164
2024-03-08T06:00:00 0.170245 90.55984
2024-03-08T07:00:00 1.280245 89.60819
2024-03-08T08:00:00 3.480246 85.15396
2024-03-08T09:00:00 5.470245 80.25868
2024-03-08T10:00:00 6.930245 77.23895
2024-03-08T11:00:00 8.560246 72.75491
2024-03-08T12:00:00 9.920245 69.37516
2024-03-08T13:00:00 10.98025 65.71777
2024-03-08T14:00:00 11.39025 62.34851
2024-03-08T15:00:00 11.35025 61.24933
2024-03-08T16:00:00 10.60025 64.34729
2024-03-08T17:00:00 8.790245 72.54356
2024-03-08T18:00:00 7.180245 79.73033
2024-03-08T19:00:00 6.360245 83.59848
2024-03-08T20:00:00 6.080246 85.84208
2024-03-08T21:00:00 5.650245 87.20219
2024-03-08T22:00:00 5.970245 86.37766
2024-03-08T23:00:00 5.910245 89.4139
2024-03-09T00:00:00 6.340245 85.57019
2024-03-09T01:00:00 6.200245 87.69433
2024-03-09T02:00:00 5.680245 89.20294
2024-03-09T03:00:00 4.670245 91.61243
2024-03-09T04:00:00 3.520246 92.84053
2024-03-09T05:00:00 2.980246 92.73443
2024-03-09T06:00:00 2.570245 92.83781
2024-03-09T07:00:00 3.830246 91.15248
2024-03-09T08:00:00 6.470245 84.74398
2024-03-09T09:00:00 8.940246 78.8947
2024-03-09T10:00:00 10.83025 66.84676
2024-03-09T11:00:00 12.22025 61.46465
2024-03-09T12:00:00 13.30025 57.00786
2024-03-09T13:00:00 14.12025 53.92133
2024-03-09T14:00:00 14.50025 52.75332
2024-03-09T15:00:00 14.51025 53.50041
2024-03-09T16:00:00 13.76025 58.25523
2024-03-09T17:00:00 11.88025 66.19906
2024-03-09T18:00:00 10.24025 70.12825
2024-03-09T19:00:00 10.12025 66.4521
2024-03-09T20:00:00 9.990245 64.56798
2024-03-09T21:00:00 9.530245 65.4754
2024-03-09T22:00:00 9.110246 66.74159
2024-03-09T23:00:00 8.770246 70.41571
2024-03-10T00:00:00 8.620245 70.98593
2024-03-10T01:00:00 8.470245 70.05343
2024-03-10T02:00:00 8.010245 72.64621
2024-03-10T03:00:00 7.840245 72.92299
2024-03-10T04:00:00 7.350246 74.34792
2024-03-10T05:00:00 6.730245 79.15146
2024-03-10T06:00:00 6.650245 82.87207
2024-03-10T07:00:00 7.210245 78.78138
2024-03-10T08:00:00 7.920245 79.0636
2024-03-10T09:00:00 8.530246 76.32373
2024-03-10T10:00:00 9.500245 70.91648
2024-03-10T11:00:00 9.810246 73.87194
2024-03-10T12:00:00 9.990245 75.2053
2024-03-10T13:00:00 10.32025 71.78282
2024-03-10T14:00:00 9.390245 81.3604
2024-03-10T15:00:00 8.840245 86.6988
2024-03-10T16:00:00 8.360246 87.61318
2024-03-10T17:00:00 7.900245 88.11538
2024-03-10T18:00:00 7.560246 89.44116
2024-03-10T19:00:00 7.300245 89.91745
2024-03-10T20:00:00 6.990245 89.63918
2024-03-10T21:00:00 6.660245 90.23907
2024-03-10T22:00:00 6.080246 91.40115
2024-03-10T23:00:00 5.390245 93.10323
2024-03-11T00:00:00 4.620246 94.58
2024-03-11T01:00:00 3.880245 96.16575
2024-03-11T02:00:00 3.080246 97.0958
2024-03-11T03:00:00 2.700245 97.91919
2024-03-11T04:00:00 2.810246 97.85284
2024-03-11T05:00:00 2.710246 97.4994
2024-03-11T06:00:00 2.710246 98.05992
2024-03-11T07:00:00 3.870246 95.48363
2024-03-11T08:00:00 6.140245 91.79166
2024-03-11T09:00:00 8.210245 85.73132
2024-03-11T10:00:00 9.820246 78.70615
2024-03-11T11:00:00 10.99025 71.61644
2024-03-11T12:00:00 11.72025 66.39408
2024-03-11T13:00:00 12.27025 61.39086
2024-03-11T14:00:00 12.81025 59.82782
2024-03-11T15:00:00 12.56025 59.09739
2024-03-11T16:00:00 11.97025 62.84075
2024-03-11T17:00:00 10.16025 73.68044
2024-03-11T18:00:00 8.310246 77.69399
2024-03-11T19:00:00 6.920245 81.91983
2024-03-11T20:00:00 6.510245 82.1513
2024-03-11T21:00:00 6.240245 84.35587
2024-03-11T22:00:00 6.110245 88.49252
2024-03-11T23:00:00 5.450245 90.51576
2024-03-12T00:00:00 5.130245 91.13129
2024-03-12T01:00:00 5.100246 91.06427
2024-03-12T02:00:00 5.310246 91.01728
2024-03-12T03:00:00 5.810246 90.54677
2024-03-12T04:00:00 6.130245 90.44685
2024-03-12T05:00:00 6.440245 90.09345
2024-03-12T06:00:00 6.850246 89.5638
2024-03-12T07:00:00 7.030245 90.71304
2024-03-12T08:00:00 7.480245 90.87624
2024-03-12T09:00:00 8.160246 86.38395
2024-03-12T10:00:00 8.460245 85.64129
2024-03-12T11:00:00 9.030245 81.98959
2024-03-12T12:00:00 9.260245 78.45218
2024-03-12T13:00:00 9.490245 74.22637
2024-03-12T14:00:00 9.640245 71.34532
2024-03-12T15:00:00 9.730246 72.22004
2024-03-12T16:00:00 9.590245 75.02799
2024-03-12T17:00:00 9.090245 78.75366
2024-03-12T18:00:00 8.470245 83.0034
2024-03-12T19:00:00 8.170245 85.90579
2024-03-12T20:00:00 7.820245 88.72211
2024-03-12T21:00:00 7.560246 89.56571
2024-03-12T22:00:00 7.490245 89.68415
2024-03-12T23:00:00 7.510245 90.12375
2024-03-13T00:00:00 7.630245 90.69923
2024-03-13T01:00:00 7.780245 91.59585
2024-03-13T02:00:00 7.930245 92.94637
2024-03-13T03:00:00 8.020246 94.11306
2024-03-13T04:00:00 8.200246 95.03352
2024-03-13T05:00:00 8.350245 95.43287
2024-03-13T06:00:00 8.540245 95.57224
2024-03-13T07:00:00 8.860246 95.65146
2024-03-13T08:00:00 9.450245 94.76963
2024-03-13T09:00:00 10.01025 93.83759
2024-03-13T10:00:00 10.54025 92.66874
2024-03-13T11:00:00 11.37025 90.6845
2024-03-13T12:00:00 12.17025 87.34045
2024-03-13T13:00:00 12.91025 84.08156
2024-03-13T14:00:00 12.94025 82.68427
2024-03-13T15:00:00 13.05025 80.93655
2024-03-13T16:00:00 12.67025 82.81663
2024-03-13T17:00:00 11.91025 87.72739
2024-03-13T18:00:00 10.82025 90.82642
2024-03-13T19:00:00 9.110246 95.53173
2024-03-13T20:00:00 7.990245 96.87056
2024-03-13T21:00:00 7.680245 96.72648
2024-03-13T22:00:00 7.140245 96.70678
2024-03-13T23:00:00 6.850246 96.56197
2024-03-14T00:00:00 6.510245 96.54877
2024-03-14T01:00:00 5.830246 97.33481
2024-03-14T02:00:00 5.770245 97.87842
2024-03-14T03:00:00 5.690245 98.90707
2024-03-14T04:00:00 5.510245 98.76494
2024-03-14T05:00:00 5.200245 98.27408
2024-03-14T06:00:00 4.940245 97.78436
2024-03-14T07:00:00 5.820245 97.19853
2024-03-14T08:00:00 7.680245 94.48481
2024-03-14T09:00:00 9.650246 89.93362
2024-03-14T10:00:00 12.24025 84.45549
2024-03-14T11:00:00 13.85025 80.13009
2024-03-14T12:00:00 15.43025 73.30238
2024-03-14T13:00:00 16.80025 67.09394
2024-03-14T14:00:00 17.70025 62.26971
2024-03-14T15:00:00 17.93024 60.14589
2024-03-14T16:00:00 17.34025 64.61076
2024-03-14T17:00:00 15.30025 74.41565
2024-03-14T18:00:00 12.09025 85.23961
2024-03-14T19:00:00 10.72025 91.06506
2024-03-14T20:00:00 9.440246 95.6759
2024-03-14T21:00:00 8.900246 97.43095
2024-03-14T22:00:00 9.110246 93.27604
2024-03-14T23:00:00 8.770246 93.38334
2024-03-15T00:00:00 8.650246 92.99239
2024-03-15T01:00:00 8.930245 88.82707
2024-03-15T02:00:00 9.300245 82.99893
2024-03-15T03:00:00 9.460245 81.03275
2024-03-15T04:00:00 9.350245 82.49009
2024-03-15T05:00:00 8.930245 86.58885
2024-03-15T06:00:00 8.930245 88.46069
2024-03-15T07:00:00 10.85025 83.77225
2024-03-15T08:00:00 12.75025 77.51555
2024-03-15T09:00:00 13.84025 71.5375
2024-03-15T10:00:00 14.58025 67.62077
2024-03-15T11:00:00 15.19025 65.44667
2024-03-15T12:00:00 15.75025 62.61429
2024-03-15T13:00:00 15.97025 60.15738
2024-03-15T14:00:00 16.22025 56.78052
2024-03-15T15:00:00 16.41025 54.57341
2024-03-15T16:00:00 16.09025 55.09293
2024-03-15T17:00:00 14.72025 63.01549
2024-03-15T18:00:00 13.05025 74.01276
2024-03-15T19:00:00 12.08025 77.51218
2024-03-15T20:00:00 10.89025 80.29662
2024-03-15T21:00:00 9.950245 85.16679
2024-03-15T22:00:00 9.750245 88.90283
2024-03-15T23:00:00 9.930245 90.07993
2024-03-16T00:00:00 10.21025 89.85806
2024-03-16T01:00:00 10.31025 90.78739
2024-03-16T02:00:00 10.31025 92.21564
2024-03-16T03:00:00 10.30025 93.09405
2024-03-16T04:00:00 10.30025 92.40272
2024-03-16T05:00:00 10.22025 92.33485
2024-03-16T06:00:00 10.22025 91.77258
2024-03-16T07:00:00 10.61025 90.13573
2024-03-16T08:00:00 11.11025 86.8801
2024-03-16T09:00:00 11.77025 82.47551
2024-03-16T10:00:00 12.26025 80.44208
2024-03-16T11:00:00 12.65025 77.65746
2024-03-16T12:00:00 13.34025 73.16438
2024-03-16T13:00:00 13.74025 70.55084
2024-03-16T14:00:00 13.78025 69.17716
2024-03-16T15:00:00 14.04025 67.18276
2024-03-16T16:00:00 13.33025 71.00031
2024-03-16T17:00:00 12.67025 73.99391
2024-03-16T18:00:00 11.20025 81.56008
2024-03-16T19:00:00 10.08025 86.65345
2024-03-16T20:00:00 9.030245 89.88097
2024-03-16T21:00:00 8.400246 92.97653
2024-03-16T22:00:00 8.280246 95.03738
2024-03-16T23:00:00 7.460245 96.65181
2024-03-17T00:00:00 7.560246 96.58888
2024-03-17T01:00:00 7.150245 97.31083
2024-03-17T02:00:00 7.100246 97.04041
2024-03-17T03:00:00 6.640245 96.28587
2024-03-17T04:00:00 6.340245 96.34057
2024-03-17T05:00:00 5.680245 97.53415
2024-03-17T06:00:00 5.820245 96.92716
2024-03-17T07:00:00 6.550245 95.6146
2024-03-17T08:00:00 8.170245 92.51429
2024-03-17T09:00:00 9.330245 89.3534
2024-03-17T10:00:00 10.62025 84.89625
2024-03-17T11:00:00 11.55025 81.38653
2024-03-17T12:00:00 12.30025 79.74117
2024-03-17T13:00:00 12.78025 76.37032
2024-03-17T14:00:00 13.07025 73.56395
2024-03-17T15:00:00 13.16025 72.83228
2024-03-17T16:00:00 13.04025 74.6181
2024-03-17T17:00:00 12.04025 81.95364
2024-03-17T18:00:00 11.08025 86.58263
2024-03-17T19:00:00 11.09025 85.29892
2024-03-17T20:00:00 10.70025 87.07417
2024-03-17T21:00:00 10.10025 90.70943
2024-03-17T22:00:00 9.920245 94.27939
2024-03-17T23:00:00 9.360246 96.06374
2024-03-18T00:00:00 9.300245 96.8484
2024-03-18T01:00:00 9.170245 97.37245
2024-03-18T02:00:00 9.010245 97.76623
2024-03-18T03:00:00 9.270246 96.58438
2024-03-18T04:00:00 9.220245 97.24162
2024-03-18T05:00:00 9.290245 97.50825
2024-03-18T06:00:00 9.360246 97.57636
2024-03-18T07:00:00 9.470245 98.50946
2024-03-18T08:00:00 9.700245 98.38079
2024-03-18T09:00:00 10.09025 98.18978
2024-03-18T10:00:00 10.99025 95.86699
2024-03-18T11:00:00 12.07025 93.32186
2024-03-18T12:00:00 12.95025 85.96735
2024-03-18T13:00:00 13.96025 80.84651
2024-03-18T14:00:00 14.29025 76.00676
2024-03-18T15:00:00 14.39025 73.16082
2024-03-18T16:00:00 14.22025 74.42448
2024-03-18T17:00:00 12.89025 83.17992
2024-03-18T18:00:00 11.12025 88.36585
2024-03-18T19:00:00 10.51025 91.0494
2024-03-18T20:00:00 9.940246 91.75291
2024-03-18T21:00:00 9.670245 92.99252
2024-03-18T22:00:00 9.100245 96.447
2024-03-18T23:00:00 8.780245 96.69904
2024-03-19T00:00:00 8.400246 96.81824
2024-03-19T01:00:00 8.210245 96.28195
2024-03-19T02:00:00 7.830246 96.99834
2024-03-19T03:00:00 7.290245 97.98923
2024-03-19T04:00:00 7.050245 98.79845
2024-03-19T05:00:00 6.830246 98.45271
2024-03-19T06:00:00 6.960245 98.04813
2024-03-19T07:00:00 7.710245 97.3286
2024-03-19T08:00:00 8.800245 94.9323
2024-03-19T09:00:00 9.980246 92.8853
2024-03-19T10:00:00 11.96025 88.8009
2024-03-19T11:00:00 13.43025 84.25623
2024-03-19T12:00:00 14.59025 76.15927
2024-03-19T13:00:00 15.70025 69.85086
2024-03-19T14:00:00 16.30025 65.95878
2024-03-19T15:00:00 16.57025 63.06143
2024-03-19T16:00:00 16.34025 63.8661
2024-03-19T17:00:00 15.18025 68.39333
2024-03-19T18:00:00 13.16025 78.00274
2024-03-19T19:00:00 12.25025 82.09308
2024-03-19T20:00:00 9.730246 91.30126
2024-03-19T21:00:00 7.890245 96.40199
2024-03-19T22:00:00 6.870246 95.76221
2024-03-19T23:00:00 6.360245 96.27432
2024-03-20T00:00:00 5.340245 97.65985
2024-03-20T01:00:00 4.670245 98.32857
2024-03-20T02:00:00 4.150245 98.17486
2024-03-20T03:00:00 3.970245 97.96094
2024-03-20T04:00:00 4.400245 95.71383
2024-03-20T05:00:00 4.380245 95.23921
2024-03-20T06:00:00 4.690245 95.1881
2024-03-20T07:00:00 6.920245 92.75078
2024-03-20T08:00:00 9.980246 85.11186
2024-03-20T09:00:00 12.52025 79.18098
2024-03-20T10:00:00 14.59025 72.60792
2024-03-20T11:00:00 16.29025 68.02781
2024-03-20T12:00:00 17.61025 62.92046
2024-03-20T13:00:00 18.60025 58.83124
2024-03-20T14:00:00 19.17025 54.6664
2024-03-20T15:00:00 19.46025 53.14344
2024-03-20T16:00:00 19.05025 55.2648
2024-03-20T17:00:00 17.03025 64.32501
2024-03-20T18:00:00 14.14025 72.08262
2024-03-20T19:00:00 11.60025 82.9027
2024-03-20T20:00:00 9.900246 89.40373
2024-03-20T21:00:00 9.110246 92.19745
2024-03-20T22:00:00 8.880245 94.16025
2024-03-20T23:00:00 8.600245 94.72768
2024-03-21T00:00:00 8.600245 95.64031
2024-03-21T01:00:00 9.270246 93.3494
2024-03-21T02:00:00 10.04025 90.70474
2024-03-21T03:00:00 10.99025 87.51879
2024-03-21T04:00:00 11.43025 88.03708
2024-03-21T05:00:00 11.47025 88.99696
2024-03-21T06:00:00 10.99025 92.69683
2024-03-21T07:00:00 11.56025 92.04981
2024-03-21T08:00:00 12.69025 89.34139
2024-03-21T09:00:00 14.10025 84.27868
2024-03-21T10:00:00 16.06025 73.56342
2024-03-21T11:00:00 17.34025 64.22239
2024-03-21T12:00:00 18.11025 56.68561
2024-03-21T13:00:00 18.88025 49.67219
2024-03-21T14:00:00 19.20025 45.42688
2024-03-21T15:00:00 19.17025 43.51434
2024-03-21T16:00:00 18.55025 46.25361
2024-03-21T17:00:00 16.71025 55.33197
2024-03-21T18:00:00 15.87025 53.90525
2024-03-21T19:00:00 14.27025 62.90937
2024-03-21T20:00:00 12.82025 70.75308
2024-03-21T21:00:00 11.16025 80.39145
2024-03-21T22:00:00 10.39025 84.52118
2024-03-21T23:00:00 9.170245 87.87701
2024-03-22T00:00:00 8.520246 89.15741
2024-03-22T01:00:00 7.920245 91.16364
2024-03-22T02:00:00 7.640245 92.73473
2024-03-22T03:00:00 7.760245 92.42246
2024-03-22T04:00:00 8.090245 92.63664
2024-03-22T05:00:00 8.290245 92.0137
2024-03-22T06:00:00 8.350245 91.13407
2024-03-22T07:00:00 9.930245 87.29258
2024-03-22T08:00:00 12.67025 76.92526
2024-03-22T09:00:00 15.22025 67.48232
2024-03-22T10:00:00 17.22025 58.72751
2024-03-22T11:00:00 18.22025 49.83063
2024-03-22T12:00:00 19.04025 43.29633
2024-03-22T13:00:00 19.67025 41.07841
2024-03-22T14:00:00 20.22025 40.61492
2024-03-22T15:00:00 20.28025 40.57611
2024-03-22T16:00:00 20.03025 43.55134
2024-03-22T17:00:00 18.48025 48.95359
2024-03-22T18:00:00 17.10025 48.70241
2024-03-22T19:00:00 12.95025 67.64075
2024-03-22T20:00:00 11.89025 72.69074
2024-03-22T21:00:00 11.27025 76.638
2024-03-22T22:00:00 10.50025 79.5784
2024-03-22T23:00:00 10.58025 80.08522
2024-03-23T00:00:00 11.14025 79.29428
2024-03-23T01:00:00 11.79025 76.88369
2024-03-23T02:00:00 12.42025 73.19219
2024-03-23T03:00:00 12.45025 73.80193
2024-03-23T04:00:00 12.23025 77.11475
2024-03-23T05:00:00 11.88025 80.16832
2024-03-23T06:00:00 10.89025 80.29662
2024-03-23T07:00:00 9.420245 79.57745
2024-03-23T08:00:00 8.810246 76.91062
2024-03-23T09:00:00 9.160245 68.72416
2024-03-23T10:00:00 9.140245 64.41198
2024-03-23T11:00:00 9.040245 65.31431
2024-03-23T12:00:00 9.120245 63.90295
2024-03-23T13:00:00 9.970245 56.32258
2024-03-23T14:00:00 10.27025 53.08728
2024-03-23T15:00:00 9.310246 54.1021
2024-03-23T16:00:00 8.320246 56.36427
2024-03-23T17:00:00 7.380245 62.0658
2024-03-23T18:00:00 6.490245 67.5919
2024-03-23T19:00:00 5.690245 73.70846
2024-03-23T20:00:00 5.190245 76.82175
2024-03-23T21:00:00 5.110245 78.48843
2024-03-23T22:00:00 5.470245 82.6482
2024-03-23T23:00:00 5.370246 82.69313
2024-03-24T00:00:00 5.030245 84.01756
2024-03-24T01:00:00 5.040245 84.50102
2024-03-24T02:00:00 4.930245 87.12227
2024-03-24T03:00:00 4.860245 88.17676
2024-03-24T04:00:00 4.690245 88.4109
2024-03-24T05:00:00 4.610245 88.02476
2024-03-24T06:00:00 4.590245 85.53942
2024-03-24T07:00:00 4.970245 80.52668
2024-03-24T08:00:00 5.490245 75.06715
2024-03-24T09:00:00 6.170245 64.58169
2024-03-24T10:00:00 7.160245 72.11428
2024-03-24T11:00:00 7.470245 71.2036
2024-03-24T12:00:00 8.080246 64.34251
2024-03-24T13:00:00 8.830245 60.78849
2024-03-24T14:00:00 8.930245 63.26515
2024-03-24T15:00:00 8.940246 58.83141
2024-03-24T16:00:00 8.820246 54.99892
2024-03-24T17:00:00 8.010245 58.07544
2024-03-24T18:00:00 7.370246 62.47072
2024-03-24T19:00:00 6.710245 67.1539
2024-03-24T20:00:00 6.170245 72.32834
2024-03-24T21:00:00 5.580246 79.24703
2024-03-24T22:00:00 5.520245 77.15796
2024-03-24T23:00:00 5.100246 83.72691
2024-03-25T00:00:00 4.660245 88.09292
2024-03-25T01:00:00 3.940246 90.77136
2024-03-25T02:00:00 3.660245 90.87711
2024-03-25T03:00:00 2.950245 92.3326
2024-03-25T04:00:00 2.310246 93.42449
2024-03-25T05:00:00 1.510245 95.14917
2024-03-25T06:00:00 2.320245 95.264
2024-03-25T07:00:00 4.680245 88.85229
2024-03-25T08:00:00 6.860245 79.11631
2024-03-25T09:00:00 8.490246 71.56567
2024-03-25T10:00:00 9.740245 63.50725
2024-03-25T11:00:00 10.68025 56.27149
2024-03-25T12:00:00 11.53025 51.3699
2024-03-25T13:00:00 12.29025 47.69984
2024-03-25T14:00:00 12.91025 44.51786
2024-03-25T15:00:00 13.12025 42.19021
2024-03-25T16:00:00 12.64025 43.66961
2024-03-25T17:00:00 11.13025 53.02196
2024-03-25T18:00:00 8.710245 61.90699
2024-03-25T19:00:00 7.930245 64.95848
2024-03-25T20:00:00 7.210245 67.60896
2024-03-25T21:00:00 6.280245 71.72732
2024-03-25T22:00:00 5.710245 74.51511
2024-03-25T23:00:00 6.270245 71.5185
2024-03-26T00:00:00 6.250245 72.86784
2024-03-26T01:00:00 6.090245 76.32227
2024-03-26T02:00:00 5.850246 81.93938
2024-03-26T03:00:00 5.510245 85.46944
2024-03-26T04:00:00 5.440245 86.25481
2024-03-26T05:00:00 5.240245 86.84737
2024-03-26T06:00:00 5.590245 86.82525
2024-03-26T07:00:00 6.920245 80.5978
2024-03-26T08:00:00 9.190246 66.75979
2024-03-26T09:00:00 11.27025 57.03651
2024-03-26T10:00:00 13.09025 53.98293
2024-03-26T11:00:00 14.14025 51.11925
2024-03-26T12:00:00 15.36025 46.5387
2024-03-26T13:00:00 16.34025 43.20732
2024-03-26T14:00:00 17.14025 41.34888
2024-03-26T15:00:00 17.27025 40.60426
2024-03-26T16:00:00 16.87025 42.24471
2024-03-26T17:00:00 15.39025 55.02172
2024-03-26T18:00:00 13.52025 61.05793
2024-03-26T19:00:00 13.91025 57.64762
2024-03-26T20:00:00 13.47025 61.51368
2024-03-26T21:00:00 11.85025 72.633
2024-03-26T22:00:00 10.90025 73.15701
2024-03-26T23:00:00 10.24025 81.42531
2024-03-27T00:00:00 9.560246 86.53808
2024-03-27T01:00:00 8.140245 90.55264
2024-03-27T02:00:00 7.060246 92.43808
2024-03-27T03:00:00 6.720245 92.09227
2024-03-27T04:00:00 7.510245 90.81554
2024-03-27T05:00:00 7.260245 93.67956
2024-03-27T06:00:00 7.930245 93.91354
2024-03-27T07:00:00 8.350245 92.97334
2024-03-27T08:00:00 7.910245 89.16299
2024-03-27T09:00:00 6.630245 84.40592
2024-03-27T10:00:00 5.790245 84.59772
2024-03-27T11:00:00 5.540245 86.14403
2024-03-27T12:00:00 5.890245 84.19095
2024-03-27T13:00:00 6.580246 81.46548
2024-03-27T14:00:00 6.920245 81.45785
2024-03-27T15:00:00 6.980245 83.62197
2024-03-27T16:00:00 7.200245 83.59225
2024-03-27T17:00:00 7.180245 82.82816
2024-03-27T18:00:00 6.520245 84.69045
2024-03-27T19:00:00 5.410245 88.35912
2024-03-27T20:00:00 4.830246 90.14076
2024-03-27T21:00:00 4.150245 91.89789
2024-03-27T22:00:00 3.400245 91.6409
2024-03-27T23:00:00 2.790246 92.72031
2024-03-28T00:00:00 2.570245 93.57745
2024-03-28T01:00:00 2.280245 93.62521
2024-03-28T02:00:00 2.110245 93.2078
2024-03-28T03:00:00 2.040246 92.46249
2024-03-28T04:00:00 2.640245 92.57545
2024-03-28T05:00:00 3.670245 91.72851
2024-03-28T06:00:00 4.090245 93.34579
2024-03-28T07:00:00 4.810246 92.93205
2024-03-28T08:00:00 5.930245 91.32501
2024-03-28T09:00:00 7.270245 82.84052
2024-03-28T10:00:00 8.760245 76.52519
2024-03-28T11:00:00 9.720245 70.21697
2024-03-28T12:00:00 10.93025 63.65806
2024-03-28T13:00:00 11.63025 55.84651
2024-03-28T14:00:00 11.94025 48.50071
2024-03-28T15:00:00 12.34025 43.54807
2024-03-28T16:00:00 12.71025 43.05963
2024-03-28T17:00:00 12.01025 45.35921
2024-03-28T18:00:00 9.560246 53.35121
2024-03-28T19:00:00 7.520245 61.11563
2024-03-28T20:00:00 6.800245 65.92058
2024-03-28T21:00:00 7.070245 67.82151
2024-03-28T22:00:00 6.670245 69.71783
2024-03-28T23:00:00 5.940245 71.65688
2024-03-29T00:00:00 5.660245 72.90727
2024-03-29T01:00:00 6.150245 71.1842
2024-03-29T02:00:00 6.640245 69.40999
2024-03-29T03:00:00 7.160245 66.82137
2024-03-29T04:00:00 8.040245 64.84451
2024-03-29T05:00:00 8.010245 66.39413
2024-03-29T06:00:00 7.980245 74.73125
2024-03-29T07:00:00 8.490246 78.43657
2024-03-29T08:00:00 9.410245 79.41012
2024-03-29T09:00:00 10.79025 77.45969
2024-03-29T10:00:00 13.09025 70.71021
2024-03-29T11:00:00 13.97025 67.67472
2024-03-29T12:00:00 15.53025 61.92563
2024-03-29T13:00:00 17.26024 56.27588
2024-03-29T14:00:00 18.20025 53.35018
2024-03-29T15:00:00 18.21025 53.42552
2024-03-29T16:00:00 17.37025 60.49813
2024-03-29T17:00:00 15.40025 75.9387
2024-03-29T18:00:00 13.09025 79.69657
2024-03-29T19:00:00 11.84025 84.12264
2024-03-29T20:00:00 10.54025 86.11298
2024-03-29T21:00:00 10.08025 84.77398
2024-03-29T22:00:00 9.090245 92.32243
2024-03-29T23:00:00 8.700245 90.72307
2024-03-30T00:00:00 9.200245 86.2012
2024-03-30T01:00:00 9.400246 81.13648
2024-03-30T02:00:00 9.340245 75.66782
2024-03-30T03:00:00 9.340245 71.13384
2024-03-30T04:00:00 9.290245 71.98058
2024-03-30T05:00:00 9.650246 71.4979
2024-03-30T06:00:00 10.15025 68.84119
2024-03-30T07:00:00 10.33025 74.74529
2024-03-30T08:00:00 11.41025 70.85989
2024-03-30T09:00:00 12.20025 69.13267
2024-03-30T10:00:00 13.14025 69.04404
2024-03-30T11:00:00 14.33025 69.71568
2024-03-30T12:00:00 14.93025 66.1947
2024-03-30T13:00:00 15.07025 63.40012
2024-03-30T14:00:00 14.99025 62.52029
2024-03-30T15:00:00 14.74025 60.26761
2024-03-30T16:00:00 13.33025 64.13448
2024-03-30T17:00:00 12.54025 67.69206
2024-03-30T18:00:00 11.37025 73.85589
2024-03-30T19:00:00 11.30025 74.04716
2024-03-30T20:00:00 10.17025 83.2851
2024-03-30T21:00:00 9.800245 87.63876
2024-03-30T22:00:00 9.570246 90.48209
2024-03-30T23:00:00 9.900246 89.3427
2024-03-31T00:00:00 9.360246 92.40368
2024-03-31T01:00:00 8.740245 94.54032
2024-03-31T02:00:00 7.770245 97.26356
2024-03-31T03:00:00 7.210245 98.12244
2024-03-31T04:00:00 6.770245 98.17896
2024-03-31T05:00:00 6.750245 98.31455
2024-03-31T06:00:00 7.060246 97.78008
2024-03-31T07:00:00 8.140245 95.03062
2024-03-31T08:00:00 9.350245 92.15084
2024-03-31T09:00:00 11.02025 86.0484
2024-03-31T10:00:00 11.88025 85.21574
2024-03-31T11:00:00 13.07025 82.25748
2024-03-31T12:00:00 14.37025 78.61237
2024-03-31T13:00:00 15.67025 71.55263
2024-03-31T14:00:00 16.51025 66.04907
2024-03-31T15:00:00 16.77025 62.55652
2024-03-31T16:00:00 16.38025 63.31643
2024-03-31T17:00:00 15.54025 65.70251
2024-03-31T18:00:00 14.21025 72.73306
2024-03-31T19:00:00 12.09025 84.49475
2024-03-31T20:00:00 11.78025 86.89039
2024-03-31T21:00:00 10.85025 91.07472
2024-03-31T22:00:00 11.12025 89.44862
2024-03-31T23:00:00 10.45025 93.10304
2024-04-01T00:00:00 10.43025 94.05096
2024-04-01T01:00:00 10.21025 96.61641
2024-04-01T02:00:00 10.10025 97.79356
2024-04-01T03:00:00 9.750245 98.38179
2024-04-01T04:00:00 9.540245 98.97857
2024-04-01T05:00:00 9.880245 95.11225
2024-04-01T06:00:00 10.37025 86.56605
2024-04-01T07:00:00 9.680245 83.16393
2024-04-01T08:00:00 9.290245 79.55732
2024-04-01T09:00:00 8.800245 78.87231
2024-04-01T10:00:00 8.790245 79.25759
2024-04-01T11:00:00 9.450245 76.05859
2024-04-01T12:00:00 9.660245 73.17452
2024-04-01T13:00:00 10.15025 71.29849
2024-04-01T14:00:00 10.81025 72.53274
2024-04-01T15:00:00 11.49025 69.41574
2024-04-01T16:00:00 12.07025 67.87175
2024-04-01T17:00:00 11.36025 69.92114
2024-04-01T18:00:00 9.640245 78.24119
2024-04-01T19:00:00 8.400246 84.04138
2024-04-01T20:00:00 7.840245 85.50895
2024-04-01T21:00:00 7.740245 84.01556
2024-04-01T22:00:00 8.170245 82.73148
2024-04-01T23:00:00 8.080246 82.31514
2024-04-02T00:00:00 8.350245 80.92631
2024-04-02T01:00:00 8.580245 78.89224
2024-04-02T02:00:00 8.400246 77.92782
2024-04-02T03:00:00 8.230246 78.72522
2024-04-02T04:00:00 8.120246 80.04563
2024-04-02T05:00:00 8.190246 79.44084
2024-04-02T06:00:00 8.450246 77.66296
2024-04-02T07:00:00 9.180245 73.28764
2024-04-02T08:00:00 9.460245 70.36078
2024-04-02T09:00:00 9.740245 71.61654
2024-04-02T10:00:00 10.52025 69.35645
2024-04-02T11:00:00 11.43025 63.01986
2024-04-02T12:00:00 11.91025 59.55785
2024-04-02T13:00:00 12.71025 56.61283
2024-04-02T14:00:00 13.58025 52.46273
2024-04-02T15:00:00 13.84025 50.06851
2024-04-02T16:00:00 13.79025 50.91293
2024-04-02T17:00:00 13.20025 52.20908
2024-04-02T18:00:00 12.25025 51.75822
2024-04-02T19:00:00 8.980246 66.6645
2024-04-02T20:00:00 6.270245 81.82572
2024-04-02T21:00:00 5.560246 86.82186
2024-04-02T22:00:00 5.020245 89.64726
2024-04-02T23:00:00 5.130245 89.72119
2024-04-03T00:00:00 4.910245 90.85482
2024-04-03T01:00:00 5.010245 91.50967
2024-04-03T02:00:00 5.300245 91.01646
2024-04-03T03:00:00 5.860245 88.46738
2024-04-03T04:00:00 6.200245 86.40412
2024-04-03T05:00:00 6.710245 85.61456
2024-04-03T06:00:00 7.580246 84.82269
2024-04-03T07:00:00 9.210245 80.54725
2024-04-03T08:00:00 10.05025 77.17561
2024-04-03T09:00:00 10.08025 83.50275
2024-04-03T10:00:00 10.69025 85.07855
2024-04-03T11:00:00 11.31025 86.37239
2024-04-03T12:00:00 11.68025 83.93227
2024-04-03T13:00:00 11.79025 83.5484
2024-04-03T14:00:00 11.76025 84.57001
2024-04-03T15:00:00 12.64025 81.81315
2024-04-03T16:00:00 13.09025 77.30824
2024-04-03T17:00:00 12.67025 78.72202
2024-04-03T18:00:00 12.48025 81.13031
2024-04-03T19:00:00 12.57025 80.59581
2024-04-03T20:00:00 12.64025 80.22498
2024-04-03T21:00:00 12.91025 79.72375
2024-04-03T22:00:00 12.65025 80.66179
2024-04-03T23:00:00 12.56025 81.03181
2024-04-04T00:00:00 12.41025 85.79372
2024-04-04T01:00:00 12.07025 87.27181
2024-04-04T02:00:00 11.98025 87.2041
2024-04-04T03:00:00 11.82025 86.83588
2024-04-04T04:00:00 11.76025 85.72228
2024-04-04T05:00:00 11.71025 84.56409
2024-04-04T06:00:00 11.88025 83.6163
2024-04-04T07:00:00 13.08025 78.83852
2024-04-04T08:00:00 14.20025 74.1703
2024-04-04T09:00:00 15.21025 70.98509
2024-04-04T10:00:00 15.46025 66.35588
2024-04-04T11:00:00 15.52025 66.14468
2024-04-04T12:00:00 15.11025 68.33246
2024-04-04T13:00:00 14.85025 73.54153
2024-04-04T14:00:00 15.92025 70.17664
2024-04-04T15:00:00 17.13025 62.93631
2024-04-04T16:00:00 16.71025 64.38266
2024-04-04T17:00:00 16.14025 67.99645
2024-04-04T18:00:00 15.46025 71.32062
2024-04-04T19:00:00 14.32025 75.96073
2024-04-04T20:00:00 13.20025 80.6312
2024-04-04T21:00:00 12.92025 82.2377
2024-04-04T22:00:00 12.47025 85.91567
2024-04-04T23:00:00 11.75025 88.54337
2024-04-05T00:00:00 11.03025 91.02655
2024-04-05T01:00:00 11.21025 89.27516
2024-04-05T02:00:00 11.13025 88.90669
2024-04-05T03:00:00 10.70025 90.75581
2024-04-05T04:00:00 10.29025 92.33946
2024-04-05T05:00:00 9.550245 92.79517
2024-04-05T06:00:00 10.08025 89.48046
2024-04-05T07:00:00 12.40025 82.7259
2024-04-05T08:00:00 15.79025 70.48102
2024-04-05T09:00:00 18.66025 59.87973
2024-04-05T10:00:00 20.66025 51.80363
2024-04-05T11:00:00 22.05025 46.47951
2024-04-05T12:00:00 22.95025 42.36435
2024-04-05T13:00:00 22.79025 43.27293
2024-04-05T14:00:00 22.88025 41.26894
2024-04-05T15:00:00 22.22025 44.11498
2024-04-05T16:00:00 21.85025 45.24875
2024-04-05T17:00:00 20.20025 55.93231
2024-04-05T18:00:00 20.51024 44.50381
2024-04-05T19:00:00 18.94025 52.25594
2024-04-05T20:00:00 15.14025 71.25871
2024-04-05T21:00:00 13.51025 78.48012
2024-04-05T22:00:00 11.85025 89.33017
2024-04-05T23:00:00 11.10025 93.01619
2024-04-06T00:00:00 11.19025 92.95898
2024-04-06T01:00:00 10.71025 92.2421
2024-04-06T02:00:00 10.49025 92.72832
2024-04-06T03:00:00 10.28025 91.52797
2024-04-06T04:00:00 9.930245 91.50276
2024-04-06T05:00:00 9.480246 91.53249
2024-04-06T06:00:00 10.41025 88.72092
2024-04-06T07:00:00 13.61025 78.81329
2024-04-06T08:00:00 16.94025 66.587
2024-04-06T09:00:00 20.34025 57.17201
2024-04-06T10:00:00 22.95025 49.18638
2024-04-06T11:00:00 24.67025 41.44333
2024-04-06T12:00:00 25.98025 36.00157
2024-04-06T13:00:00 26.99025 32.5184
2024-04-06T14:00:00 27.60025 29.20774
2024-04-06T15:00:00 27.49025 30.27222
2024-04-06T16:00:00 26.39025 34.75825
2024-04-06T17:00:00 23.59025 43.52784
2024-04-06T18:00:00 18.96025 60.31329
2024-04-06T19:00:00 16.59025 70.77908
2024-04-06T20:00:00 15.16025 75.59488
2024-04-06T21:00:00 14.52025 78.37283
2024-04-06T22:00:00 14.45025 68.75254
2024-04-06T23:00:00 13.85025 69.05014
2024-04-07T00:00:00 13.49025 70.50076
2024-04-07T01:00:00 13.24025 73.94665
2024-04-07T02:00:00 13.08025 75.80096
2024-04-07T03:00:00 12.80025 79.22348
2024-04-07T04:00:00 12.88025 75.76657
2024-04-07T05:00:00 15.21025 62.18856
2024-04-07T06:00:00 13.67025 73.52446
2024-04-07T07:00:00 15.67025 71.7927
2024-04-07T08:00:00 17.62025 61.87596
2024-04-07T09:00:00 19.66025 55.34778
2024-04-07T10:00:00 21.18024 49.16497
2024-04-07T11:00:00 22.34025 45.50851
2024-04-07T12:00:00 23.20025 42.06479
2024-04-07T13:00:00 23.92025 41.34192
2024-04-07T14:00:00 24.37025 40.3977
2024-04-07T15:00:00 24.13025 42.35655
2024-04-07T16:00:00 23.07025 46.17279
2024-04-07T17:00:00 21.31025 53.91498
2024-04-07T18:00:00 20.02025 54.04766
2024-04-07T19:00:00 18.36025 60.93951
2024-04-07T20:00:00 17.43024 64.58765
2024-04-07T21:00:00 16.06025 74.4002
2024-04-07T22:00:00 14.98025 78.02626
2024-04-07T23:00:00 13.84025 84.02392
2024-04-08T00:00:00 13.54025 85.17409
2024-04-08T01:00:00 14.15025 84.7338
2024-04-08T02:00:00 14.70025 81.00284
2024-04-08T03:00:00 13.24025 84.62941
2024-04-08T04:00:00 13.02025 83.98196
2024-04-08T05:00:00 11.72025 86.7084
2024-04-08T06:00:00 12.50025 84.82813
2024-04-08T07:00:00 15.44025 77.32277
2024-04-08T08:00:00 18.43024 65.76248
2024-04-08T09:00:00 20.55025 53.50214
2024-04-08T10:00:00 21.69025 48.61509
2024-04-08T11:00:00 22.95025 47.45147
2024-04-08T12:00:00 23.99025 47.64135
2024-04-08T13:00:00 24.69025 43.45895
2024-04-08T14:00:00 25.41025 41.2933
2024-04-08T15:00:00 25.74025 41.33126
2024-04-08T16:00:00 24.83025 46.35101
2024-04-08T17:00:00 23.22025 53.90966
2024-04-08T18:00:00 20.62025 64.14619
2024-04-08T19:00:00 19.00025 69.67191
2024-04-08T20:00:00 18.98025 69.12203
2024-04-08T21:00:00 18.21025 70.94992
2024-04-08T22:00:00 17.75025 69.37888
2024-04-08T23:00:00 17.15025 73.56326
2024-04-09T00:00:00 17.14025 73.319
2024-04-09T01:00:00 18.45025 64.21441
2024-04-09T02:00:00 18.28025 52.72138
2024-04-09T03:00:00 17.22025 55.01259
2024-04-09T04:00:00 16.63025 65.85371
2024-04-09T05:00:00 14.96025 71.4642
2024-04-09T06:00:00 12.43025 71.45673
2024-04-09T07:00:00 10.31025 73.40131
2024-04-09T08:00:00 9.210245 76.87175
2024-04-09T09:00:00 8.580245 80.0602
2024-04-09T10:00:00 8.520246 81.57563
2024-04-09T11:00:00 8.870245 79.32559
2024-04-09T12:00:00 9.240245 79.1628
2024-04-09T13:00:00 9.150246 79.09345
2024-04-09T14:00:00 9.160245 78.38126
2024-04-09T15:00:00 9.610246 76.61919
2024-04-09T16:00:00 9.760245 75.26869
2024-04-09T17:00:00 9.540245 76.71404
2024-04-09T18:00:00 8.970245 78.62449
2024-04-09T19:00:00 8.450246 80.20849
2024-04-09T20:00:00 8.150246 82.96033
2024-04-09T21:00:00 7.870246 83.73893
2024-04-09T22:00:00 6.950245 86.06543
2024-04-09T23:00:00 6.440245 87.1042
2024-04-10T00:00:00 5.990245 86.62477
2024-04-10T01:00:00 5.800245 85.86956
2024-04-10T02:00:00 5.200245 86.90466
2024-04-10T03:00:00 5.010245 88.56968
2024-04-10T04:00:00 4.640245 89.73928
2024-04-10T05:00:00 4.450245 91.52968
2024-04-10T06:00:00 5.800245 88.52387
2024-04-10T07:00:00 7.320245 85.4471
2024-04-10T08:00:00 8.870245 75.90263
2024-04-10T09:00:00 10.07025 66.25326
2024-04-10T10:00:00 10.67025 58.02691
2024-04-10T11:00:00 10.98025 54.72157
2024-04-10T12:00:00 11.72025 52.54276
2024-04-10T13:00:00 12.29025 51.32711
2024-04-10T14:00:00 12.46025 50.57316
2024-04-10T15:00:00 12.61025 50.76068
2024-04-10T16:00:00 12.63025 50.62145
2024-04-10T17:00:00 12.19025 53.08909
2024-04-10T18:00:00 10.58025 56.16389
2024-04-10T19:00:00 8.250245 66.54482
2024-04-10T20:00:00 6.580246 76.3558
2024-04-10T21:00:00 5.830246 80.42996
2024-04-10T22:00:00 6.450245 75.84244
2024-04-10T23:00:00 5.830246 78.77852
2024-04-11T00:00:00 5.230245 82.67329
2024-04-11T01:00:00 5.160245 82.95982
2024-04-11T02:00:00 4.860245 85.08444
2024-04-11T03:00:00 3.980246 88.46391
2024-04-11T04:00:00 3.560246 90.02416
2024-04-11T05:00:00 3.710246 90.10276
2024-04-11T06:00:00 4.400245 90.03744
2024-04-11T07:00:00 7.440245 81.30454
2024-04-11T08:00:00 10.48025 69.78639
2024-04-11T09:00:00 12.74025 61.50641
2024-04-11T10:00:00 14.59025 56.12199
2024-04-11T11:00:00 15.77025 51.00029
2024-04-11T12:00:00 16.47025 48.66037
2024-04-11T13:00:00 17.08025 48.1921
2024-04-11T14:00:00 17.58025 47.33863
2024-04-11T15:00:00 17.81025 47.76611
2024-04-11T16:00:00 17.58025 48.80334
2024-04-11T17:00:00 16.72025 52.01212
2024-04-11T18:00:00 13.45025 64.25105
2024-04-11T19:00:00 11.29025 71.8252
2024-04-11T20:00:00 10.51025 75.14218
2024-04-11T21:00:00 9.900246 76.82923
2024-04-11T22:00:00 8.960245 80.00657
2024-04-11T23:00:00 7.940245 82.70003
2024-04-12T00:00:00 6.430245 87.78035
2024-04-12T01:00:00 7.270245 86.34399
2024-04-12T02:00:00 6.690245 88.55022
2024-04-12T03:00:00 5.420245 91.47762
2024-04-12T04:00:00 4.070245 95.56174
2024-04-12T05:00:00 4.800245 91.81803
2024-04-12T06:00:00 6.710245 90.3698
2024-04-12T07:00:00 10.47025 78.97256
2024-04-12T08:00:00 13.73025 69.40337
2024-04-12T09:00:00 15.98025 61.61214
2024-04-12T10:00:00 17.92025 55.19566
2024-04-12T11:00:00 19.41025 51.18978
2024-04-12T12:00:00 20.52025 47.06449
2024-04-12T13:00:00 21.37025 45.14424
2024-04-12T14:00:00 21.72025 43.14479
2024-04-12T15:00:00 21.86025 42.86294
2024-04-12T16:00:00 21.69025 43.60811
2024-04-12T17:00:00 20.72025 47.95754
2024-04-12T18:00:00 19.20025 47.59903
2024-04-12T19:00:00 15.82025 61.11379
2024-04-12T20:00:00 13.81025 70.13353
2024-04-12T21:00:00 12.57025 75.60987
2024-04-12T22:00:00 9.890245 85.92312
2024-04-12T23:00:00 8.820246 90.35902
2024-04-13T00:00:00 8.290245 91.00371
2024-04-13T01:00:00 8.280246 89.87829
2024-04-13T02:00:00 8.090245 89.79957
2024-04-13T03:00:00 7.810246 89.21568
2024-04-13T04:00:00 7.450245 90.11857
2024-04-13T05:00:00 6.960245 90.83396
2024-04-13T06:00:00 9.810246 87.16071
2024-04-13T07:00:00 13.37025 77.87804
2024-04-13T08:00:00 16.33025 69.51023
2024-04-13T09:00:00 18.86025 60.16868
2024-04-13T10:00:00 21.00025 54.01397
2024-04-13T11:00:00 22.67025 49.56968
2024-04-13T12:00:00 23.98025 45.23706
2024-04-13T13:00:00 25.12025 42.72014
2024-04-13T14:00:00 25.97025 39.80465
2024-04-13T15:00:00 26.44025 38.32392
2024-04-13T16:00:00 26.31025 38.185
2024-04-13T17:00:00 24.88025 48.54707
2024-04-13T18:00:00 22.19025 49.43986
2024-04-13T19:00:00 18.15025 64.44694
2024-04-13T20:00:00 15.30025 74.86476
2024-04-13T21:00:00 14.41025 79.88976
2024-04-13T22:00:00 13.59025 81.22959
2024-04-13T23:00:00 13.07025 82.64547
2024-04-14T00:00:00 12.36025 85.1554
2024-04-14T01:00:00 11.94025 85.858
2024-04-14T02:00:00 11.48025 87.03598
2024-04-14T03:00:00 11.21025 88.07571
2024-04-14T04:00:00 11.08025 88.06332
2024-04-14T05:00:00 10.80025 88.99772
2024-04-14T06:00:00 12.88025 84.75805
2024-04-14T07:00:00 16.70025 74.41313
2024-04-14T08:00:00 19.82025 62.80011
2024-04-14T09:00:00 21.92025 56.70053
2024-04-14T10:00:00 23.50025 52.48322
2024-04-14T11:00:00 24.73025 47.71685
2024-04-14T12:00:00 25.63025 43.8366
2024-04-14T13:00:00 26.24025 39.90739
2024-04-14T14:00:00 26.51024 37.93681
2024-04-14T15:00:00 26.38025 38.12841
2024-04-14T16:00:00 25.63025 40.80883
2024-04-14T17:00:00 24.21025 45.69342
2024-04-14T18:00:00 22.59025 47.03689
2024-04-14T19:00:00 20.15025 54.92035
2024-04-14T20:00:00 16.25025 72.67307
2024-04-14T21:00:00 15.27025 77.24427
2024-04-14T22:00:00 14.18025 81.03931
2024-04-14T23:00:00 13.95025 82.20759
2024-04-15T00:00:00 15.10025 77.94097
2024-04-15T01:00:00 15.51025 79.57191
2024-04-15T02:00:00 14.94025 82.55425
2024-04-15T03:00:00 14.45025 84.99279
2024-04-15T04:00:00 14.40025 85.32578
2024-04-15T05:00:00 14.34025 87.31871
2024-04-15T06:00:00 14.91025 86.05959
2024-04-15T07:00:00 15.61025 84.06484
2024-04-15T08:00:00 15.75025 85.24754
2024-04-15T09:00:00 16.71025 79.79646
2024-04-15T10:00:00 17.44025 74.00357
2024-04-15T11:00:00 17.07025 72.58289
2024-04-15T12:00:00 17.53025 67.56234
2024-04-15T13:00:00 18.34025 61.30278
2024-04-15T14:00:00 18.75025 55.78619
2024-04-15T15:00:00 18.92025 47.26008
2024-04-15T16:00:00 18.40025 42.51354
2024-04-15T17:00:00 17.19025 38.94278
2024-04-15T18:00:00 15.93025 40.29337
2024-04-15T19:00:00 14.21025 45.94165
2024-04-15T20:00:00 12.68025 51.73128
2024-04-15T21:00:00 11.16025 58.77884
2024-04-15T22:00:00 9.470245 67.8731
2024-04-15T23:00:00 7.860245 78.0023
2024-04-16T00:00:00 7.050245 82.46058
2024-04-16T01:00:00 6.460245 84.86254
2024-04-16T02:00:00 6.200245 84.76993
2024-04-16T03:00:00 6.250245 84.6563
2024-04-16T04:00:00 6.000245 83.90694
2024-04-16T05:00:00 5.940245 82.95019
2024-04-16T06:00:00 6.310246 78.29706
2024-04-16T07:00:00 6.870246 70.56934
2024-04-16T08:00:00 7.660245 63.96303
2024-04-16T09:00:00 8.460245 60.4311
2024-04-16T10:00:00 9.110246 60.55421
2024-04-16T11:00:00 9.590245 61.9491
2024-04-16T12:00:00 9.850245 63.39838
2024-04-16T13:00:00 10.55025 62.54036
2024-04-16T14:00:00 10.50025 63.96095
2024-04-16T15:00:00 9.970245 65.62405
2024-04-16T16:00:00 9.020246 69.42811
2024-04-16T17:00:00 7.920245 75.14471
2024-04-16T18:00:00 7.330246 82.32571
2024-04-16T19:00:00 7.260245 84.18979
2024-04-16T20:00:00 7.010245 85.40991
2024-04-16T21:00:00 6.910245 85.63841
2024-04-16T22:00:00 6.320245 89.704
2024-04-16T23:00:00 6.410245 87.65474
2024-04-17T00:00:00 6.350246 86.17773
2024-04-17T01:00:00 6.310246 85.14428
2024-04-17T02:00:00 6.200245 86.46519
2024-04-17T03:00:00 6.170245 85.67082
2024-04-17T04:00:00 5.880245 86.67362
2024-04-17T05:00:00 5.770245 87.03027
2024-04-17T06:00:00 5.620246 88.25551
2024-04-17T07:00:00 5.550245 88.49869
2024-04-17T08:00:00 5.750245 87.46057
2024-04-17T09:00:00 6.460245 84.80261
2024-04-17T10:00:00 7.240245 82.89473
2024-04-17T11:00:00 8.340245 79.40876
2024-04-17T12:00:00 9.310246 73.0556
2024-04-17T13:00:00 9.500245 67.25777
2024-04-17T14:00:00 8.800245 60.64952
2024-04-17T15:00:00 8.430245 62.68959
2024-04-17T16:00:00 6.890245 71.33868
2024-04-17T17:00:00 6.490245 81.68369
2024-04-17T18:00:00 6.240245 81.53105
2024-04-17T19:00:00 5.200245 84.64255
2024-04-17T20:00:00 4.650245 87.77795
2024-04-17T21:00:00 4.540246 89.47435
2024-04-17T22:00:00 4.290246 90.99624
2024-04-17T23:00:00 4.250246 91.84024
2024-04-18T00:00:00 4.590245 90.18321
2024-04-18T01:00:00 4.580246 90.31086
2024-04-18T02:00:00 4.000246 92.34643
2024-04-18T03:00:00 3.380245 94.57503
2024-04-18T04:00:00 3.170245 95.24234
2024-04-18T05:00:00 3.110245 94.55896
2024-04-18T06:00:00 3.550245 91.32506
2024-04-18T07:00:00 4.370246 85.63505
2024-04-18T08:00:00 5.290245 77.34004
2024-04-18T09:00:00 5.980245 74.72803
2024-04-18T10:00:00 6.540245 79.34617
2024-04-18T11:00:00 6.600246 77.56788
2024-04-18T12:00:00 7.710245 72.89735
2024-04-18T13:00:00 8.160246 70.08748
2024-04-18T14:00:00 9.010245 66.3398
2024-04-18T15:00:00 8.920245 65.14638
2024-04-18T16:00:00 8.890245 65.46586
2024-04-18T17:00:00 8.490246 66.64758
2024-04-18T18:00:00 7.400245 73.46217
2024-04-18T19:00:00 5.700245 84.58618
2024-04-18T20:00:00 5.760245 82.57138
2024-04-18T21:00:00 5.500245 83.90028
2024-04-18T22:00:00 4.020246 89.74505
2024-04-18T23:00:00 3.300245 91.83043
2024-04-19T00:00:00 3.090245 91.81351
2024-04-19T01:00:00 3.240245 91.10223
2024-04-19T02:00:00 3.280245 90.38754
2024-04-19T03:00:00 3.200245 91.36133
2024-04-19T04:00:00 3.520246 90.73455
2024-04-19T05:00:00 4.080246 90.00794
2024-04-19T06:00:00 4.930245 87.62053
2024-04-19T07:00:00 5.480245 86.13697
2024-04-19T08:00:00 6.000245 83.55017
2024-04-19T09:00:00 6.510245 78.61021
2024-04-19T10:00:00 6.840245 81.15835
2024-04-19T11:00:00 7.390245 80.49865
2024-04-19T12:00:00 7.400245 80.7276
2024-04-19T13:00:00 7.350246 82.32851
2024-04-19T14:00:00 7.370246 82.27342
2024-04-19T15:00:00 7.640245 81.50564
2024-04-19T16:00:00 7.840245 82.05113
2024-04-19T17:00:00 7.690245 85.01443
2024-04-19T18:00:00 7.590245 87.59438
2024-04-19T19:00:00 7.250245 90.16408
2024-04-19T20:00:00 7.150245 91.54822
2024-04-19T21:00:00 7.190245 89.59471
2024-04-19T22:00:00 7.370246 89.17487
2024-04-19T23:00:00 7.150245 85.9679
2024-04-20T00:00:00 6.430245 85.03885
2024-04-20T01:00:00 5.680245 86.28285
2024-04-20T02:00:00 5.270245 87.16016
2024-04-20T03:00:00 5.090245 85.84552
2024-04-20T04:00:00 4.800245 87.85672
2024-04-20T05:00:00 4.870246 87.98953
2024-04-20T06:00:00 5.000245 86.38775
2024-04-20T07:00:00 5.500245 83.42297
2024-04-20T08:00:00 5.700245 81.27657
2024-04-20T09:00:00 6.070245 81.50591
2024-04-20T10:00:00 7.130245 77.21871
2024-04-20T11:00:00 7.800245 74.80367
2024-04-20T12:00:00 8.370246 69.83319
2024-04-20T13:00:00 8.540245 68.53992
2024-04-20T14:00:00 8.990245 66.66678
2024-04-20T15:00:00 8.830245 67.44225
2024-04-20T16:00:00 8.280246 70.51323
2024-04-20T17:00:00 7.550245 74.33297
2024-04-20T18:00:00 6.840245 80.87151
2024-04-20T19:00:00 5.710245 87.5182
2024-04-20T20:00:00 5.090245 90.48443
2024-04-20T21:00:00 4.590245 94.11041
2024-04-20T22:00:00 4.210246 95.63664
2024-04-20T23:00:00 4.330246 95.03416
2024-04-21T00:00:00 3.780245 94.8687
2024-04-21T01:00:00 3.620246 95.06295
2024-04-21T02:00:00 3.810246 94.33096
2024-04-21T03:00:00 4.040246 93.67549
2024-04-21T04:00:00 4.370246 92.17716
2024-04-21T05:00:00 4.690245 88.78998
2024-04-21T06:00:00 4.880245 87.74011
2024-04-21T07:00:00 4.560246 87.70555
2024-04-21T08:00:00 4.870246 89.12459
2024-04-21T09:00:00 4.770245 88.73474
2024-04-21T10:00:00 4.540246 88.26922
2024-04-21T11:00:00 5.340245 82.33479
2024-04-21T12:00:00 5.920245 77.56137
2024-04-21T13:00:00 5.580246 76.6703
2024-04-21T14:00:00 6.240245 76.29462
2024-04-21T15:00:00 5.700245 72.38944
2024-04-21T16:00:00 6.220245 66.36112
2024-04-21T17:00:00 6.040245 68.42822
2024-04-21T18:00:00 4.810246 77.42324
2024-04-21T19:00:00 3.990245 86.82856
2024-04-21T20:00:00 3.130245 94.08669
2024-04-21T21:00:00 2.400245 97.48773
2024-04-21T22:00:00 2.390245 95.40528
2024-04-21T23:00:00 2.190245 96.43207
2024-04-22T00:00:00 2.440245 96.30502
2024-04-22T01:00:00 2.790246 95.28991
2024-04-22T02:00:00 2.840245 93.8655
2024-04-22T03:00:00 3.010245 93.00376
2024-04-22T04:00:00 3.090245 92.4098
2024-04-22T05:00:00 2.980246 92.73443
2024-04-22T06:00:00 3.140245 91.35628
2024-04-22T07:00:00 3.810246 87.87598
2024-04-22T08:00:00 4.580246 79.02501
2024-04-22T09:00:00 5.350246 72.3704
2024-04-22T10:00:00 5.680245 71.08524
2024-04-22T11:00:00 6.130245 65.23598
2024-04-22T12:00:00 6.300245 63.81564
2024-04-22T13:00:00 6.820245 62.3324
2024-04-22T14:00:00 7.100246 61.05232
2024-04-22T15:00:00 7.130245 61.4176
2024-04-22T16:00:00 7.170245 62.14839
2024-04-22T17:00:00 6.810246 63.66224
2024-04-22T18:00:00 6.080246 68.38749
2024-04-22T19:00:00 5.200245 72.23451
2024-04-22T20:00:00 4.690245 74.31786
2024-04-22T21:00:00 4.080246 76.78884
2024-04-22T22:00:00 3.820245 80.11186
2024-04-22T23:00:00 3.160245 82.55399
2024-04-23T00:00:00 2.490245 85.0879
2024-04-23T01:00:00 2.490245 85.33653
2024-04-23T02:00:00 2.210245 86.93543
2024-04-23T03:00:00 1.870246 88.82079
2024-04-23T04:00:00 1.500245 89.95837
2024-04-23T05:00:00 1.430245 90.0832
2024-04-23T06:00:00 2.730246 86.0532
2024-04-23T07:00:00 4.040246 81.02343
2024-04-23T08:00:00 5.550245 71.99242
2024-04-23T09:00:00 6.720245 68.08624
2024-04-23T10:00:00 7.730245 61.16938
2024-04-23T11:00:00 7.970245 60.21709
2024-04-23T12:00:00 8.520246 58.67814
2024-04-23T13:00:00 8.810246 58.03576
2024-04-23T14:00:00 9.270246 55.72693
2024-04-23T15:00:00 9.220245 54.03758
2024-04-23T16:00:00 9.110246 54.36219
2024-04-23T17:00:00 8.720245 56.35025
2024-04-23T18:00:00 7.820245 59.0066
2024-04-23T19:00:00 6.480245 63.44158
2024-04-23T20:00:00 4.910245 73.6613
2024-04-23T21:00:00 4.120246 76.79609
2024-04-23T22:00:00 2.920245 80.90745
2024-04-23T23:00:00 2.500246 82.51724
2024-04-24T00:00:00 1.770245 83.32369
2024-04-24T01:00:00 1.020245 86.3467
2024-04-24T02:00:00 0.950245 86.52926
2024-04-24T03:00:00 1.050245 87.69618
2024-04-24T04:00:00 1.260245 87.84908
2024-04-24T05:00:00 1.500245 87.23423
2024-04-24T06:00:00 3.390245 82.28799
2024-04-24T07:00:00 5.410245 76.36393
2024-04-24T08:00:00 6.560246 72.61601
2024-04-24T09:00:00 6.800245 64.45252
2024-04-24T10:00:00 6.990245 55.62719
2024-04-24T11:00:00 6.820245 62.15058
2024-04-24T12:00:00 6.540245 69.38813
2024-04-24T13:00:00 6.960245 72.74835
2024-04-24T14:00:00 6.960245 73.27116
2024-04-24T15:00:00 6.490245 72.44541
2024-04-24T16:00:00 6.840245 72.72437
2024-04-24T17:00:00 6.240245 73.81615
2024-04-24T18:00:00 5.580246 77.44657
2024-04-24T19:00:00 4.750245 82.36775
2024-04-24T20:00:00 4.510245 84.61391
2024-04-24T21:00:00 4.120246 86.40798
2024-04-24T22:00:00 4.030245 88.34232
2024-04-24T23:00:00 3.910245 88.9659
2024-04-25T00:00:00 3.770246 89.59267
2024-04-25T01:00:00 3.740245 90.10552
2024-04-25T02:00:00 3.710246 90.10276
2024-04-25T03:00:00 3.480246 90.60077
2024-04-25T04:00:00 3.670245 90.87798
2024-04-25T05:00:00 4.060246 89.49222
2024-04-25T06:00:00 4.450245 88.13371
2024-04-25T07:00:00 5.350246 82.39514
2024-04-25T08:00:00 6.630245 72.36961
2024-04-25T09:00:00 7.470245 64.52106
2024-04-25T10:00:00 7.700245 63.2824
2024-04-25T11:00:00 8.170245 58.20292
2024-04-25T12:00:00 8.720245 54.01578
2024-04-25T13:00:00 9.420245 50.69122
2024-04-25T14:00:00 9.950245 47.84739
2024-04-25T15:00:00 10.40025 45.51051
2024-04-25T16:00:00 10.53025 45.11584
2024-04-25T17:00:00 10.30025 49.73517
2024-04-25T18:00:00 8.280246 62.02253
2024-04-25T19:00:00 5.240245 73.78006
2024-04-25T20:00:00 3.350246 82.70188
2024-04-25T21:00:00 2.680245 89.74606
2024-04-25T22:00:00 2.910245 91.46868
2024-04-25T23:00:00 2.820245 92.05676
2024-04-26T00:00:00 3.520246 90.1499
2024-04-26T01:00:00 4.340245 87.74446
2024-04-26T02:00:00 4.780245 85.68536
2024-04-26T03:00:00 4.930245 86.01032
2024-04-26T04:00:00 4.940245 85.64368
2024-04-26T05:00:00 5.270245 85.86719
2024-04-26T06:00:00 6.040245 86.63046
2024-04-26T07:00:00 7.070245 88.58763
2024-04-26T08:00:00 8.140245 84.77319
2024-04-26T09:00:00 8.970245 82.1523
2024-04-26T10:00:00 10.07025 75.90304
2024-04-26T11:00:00 11.06025 70.83817
2024-04-26T12:00:00 11.93025 67.41863
2024-04-26T13:00:00 12.38025 68.22129
2024-04-26T14:00:00 12.68025 68.14433
2024-04-26T15:00:00 12.20025 70.8233
2024-04-26T16:00:00 11.61025 75.90992
2024-04-26T17:00:00 11.15025 78.97014
2024-04-26T18:00:00 10.35025 82.90911
2024-04-26T19:00:00 8.530246 92.53848
2024-04-26T20:00:00 7.420245 96.38382
2024-04-26T21:00:00 6.600246 97.5634
2024-04-26T22:00:00 5.880245 98.49822
2024-04-26T23:00:00 5.370246 98.4165
2024-04-27T00:00:00 5.470245 97.80091
2024-04-27T01:00:00 5.460245 97.39037
2024-04-27T02:00:00 5.570245 96.64658
2024-04-27T03:00:00 5.270245 96.09283
2024-04-27T04:00:00 5.040245 95.94727
2024-04-27T05:00:00 5.420245 95.35983
2024-04-27T06:00:00 6.850246 93.26434
2024-04-27T07:00:00 9.580245 84.18996
2024-04-27T08:00:00 12.45025 75.27999
2024-04-27T09:00:00 14.77025 65.26357
2024-04-27T10:00:00 16.43025 59.94281
2024-04-27T11:00:00 17.99025 50.17909
2024-04-27T12:00:00 19.38025 42.94628
2024-04-27T13:00:00 20.44025 38.13561
2024-04-27T14:00:00 20.64025 35.61697
2024-04-27T15:00:00 21.01024 32.81264
2024-04-27T16:00:00 20.85025 33.60973
2024-04-27T17:00:00 20.02025 36.52399
2024-04-27T18:00:00 18.11025 40.73681
2024-04-27T19:00:00 15.21025 46.52824
2024-04-27T20:00:00 13.45025 54.27189
2024-04-27T21:00:00 12.57025 59.183
2024-04-27T22:00:00 12.19025 59.0027
2024-04-27T23:00:00 11.94025 61.87163
2024-04-28T00:00:00 11.14025 67.90581
2024-04-28T01:00:00 10.81025 72.33136
2024-04-28T02:00:00 11.18025 74.02496
2024-04-28T03:00:00 11.01025 76.541
2024-04-28T04:00:00 10.84025 80.8975
2024-04-28T05:00:00 10.96025 83.61466
2024-04-28T06:00:00 11.03025 84.31041
2024-04-28T07:00:00 11.54025 80.55689
2024-04-28T08:00:00 11.97025 79.31281
2024-04-28T09:00:00 12.78025 77.73114
2024-04-28T10:00:00 13.91025 72.43071
2024-04-28T11:00:00 13.60025 74.81899
2024-04-28T12:00:00 13.17025 76.43594
2024-04-28T13:00:00 12.96025 77.65469
2024-04-28T14:00:00 12.85025 76.69415
2024-04-28T15:00:00 12.79025 75.03228
2024-04-28T16:00:00 12.53025 73.66529
2024-04-28T17:00:00 12.29025 74.02564
2024-04-28T18:00:00 11.70025 79.6513
2024-04-28T19:00:00 11.48025 79.07546
2024-04-28T20:00:00 11.05025 80.65106
2024-04-28T21:00:00 10.85025 81.00996
2024-04-28T22:00:00 9.620245 91.29311
2024-04-28T23:00:00 9.460245 91.96977
2024-04-29T00:00:00 9.200245 92.58278
2024-04-29T01:00:00 9.160245 93.08801
2024-04-29T02:00:00 9.080245 94.29976
2024-04-29T03:00:00 8.750245 95.51606
2024-04-29T04:00:00 8.740245 95.25468
2024-04-29T05:00:00 9.060246 94.62125
2024-04-29T06:00:00 9.660245 94.39416
2024-04-29T07:00:00 10.98025 90.10471
2024-04-29T08:00:00 12.30025 84.12142
2024-04-29T09:00:00 13.79025 77.89205
2024-04-29T10:00:00 15.82025 66.43433
2024-04-29T11:00:00 17.15025 61.93186
2024-04-29T12:00:00 17.91025 61.65409
2024-04-29T13:00:00 18.84025 58.77206
2024-04-29T14:00:00 19.18024 58.69852
2024-04-29T15:00:00 19.47025 58.84806
2024-04-29T16:00:00 19.09025 60.34442
2024-04-29T17:00:00 18.04025 64.20807
2024-04-29T18:00:00 16.44025 70.18566
2024-04-29T19:00:00 14.34025 78.08314
2024-04-29T20:00:00 13.18025 84.05753
2024-04-29T21:00:00 12.79025 85.03263
2024-04-29T22:00:00 11.78025 89.08413
2024-04-29T23:00:00 11.69025 89.01634
2024-04-30T00:00:00 11.08025 91.09172
2024-04-30T01:00:00 10.57025 91.8591
2024-04-30T02:00:00 10.03025 92.44785
2024-04-30T03:00:00 9.630245 92.54765
2024-04-30T04:00:00 9.290245 91.76941
2024-04-30T05:00:00 8.070246 94.70082
2024-04-30T06:00:00 10.58025 90.13329
2024-04-30T07:00:00 13.42025 81.42459
2024-04-30T08:00:00 15.84025 72.21023
2024-04-30T09:00:00 18.03025 65.24036
2024-04-30T10:00:00 19.81025 60.1562
2024-04-30T11:00:00 21.37025 55.41623
2024-04-30T12:00:00 22.74025 50.88724
2024-04-30T13:00:00 23.72025 46.5377
2024-04-30T14:00:00 24.24025 45.09906
2024-04-30T15:00:00 24.13025 45.42934
2024-04-30T16:00:00 23.55025 47.71068
2024-04-30T17:00:00 22.33025 53.89336
2024-04-30T18:00:00 19.85025 64.14424
2024-04-30T19:00:00 16.51025 77.69588
2024-04-30T20:00:00 16.54025 75.42638
2024-04-30T21:00:00 13.94025 85.33197
2024-04-30T22:00:00 13.24025 83.44737
2024-04-30T23:00:00 11.57025 88.22883
2024-05-01T00:00:00 11.43025 90.99483
2024-05-01T01:00:00 11.24025 90.91945
2024-05-01T02:00:00 10.84025 93.12619
2024-05-01T03:00:00 10.13025 94.09881
2024-05-01T04:00:00 9.640245 95.03673
2024-05-01T05:00:00 10.31025 93.41037
2024-05-01T06:00:00 12.46025 88.19294
2024-05-01T07:00:00 15.18025 77.84969
2024-05-01T08:00:00 17.60025 68.79941
2024-05-01T09:00:00 19.84025 61.77697
2024-05-01T10:00:00 21.63025 55.33586
2024-05-01T11:00:00 23.17025 50.96788
2024-05-01T12:00:00 24.44025 46.45844
2024-05-01T13:00:00 25.50025 41.98294
2024-05-01T14:00:00 26.07025 38.4497
2024-05-01T15:00:00 26.18024 37.94466
2024-05-01T16:00:00 25.27025 41.03441
2024-05-01T17:00:00 23.48025 48.36009
2024-05-01T18:00:00 21.07025 60.9329
2024-05-01T19:00:00 18.85025 67.61316
2024-05-01T20:00:00 17.58025 69.94463
2024-05-01T21:00:00 16.13025 73.72298
2024-05-01T22:00:00 14.88025 84.03513
2024-05-01T23:00:00 14.14025 87.06863
2024-05-02T00:00:00 13.98025 89.56627
2024-05-02T01:00:00 13.94025 93.79224
2024-05-02T02:00:00 13.83025 95.09034
2024-05-02T03:00:00 14.10025 95.78881
2024-05-02T04:00:00 14.14025 94.23389
2024-05-02T05:00:00 14.13025 93.49429
2024-05-02T06:00:00 14.38025 91.62463
2024-05-02T07:00:00 14.72025 88.68768
2024-05-02T08:00:00 15.15025 85.12635
2024-05-02T09:00:00 15.56025 83.89333
2024-05-02T10:00:00 15.87025 81.59054
2024-05-02T11:00:00 14.86025 82.3801
2024-05-02T12:00:00 13.82025 87.96611
2024-05-02T13:00:00 12.66025 87.62302
2024-05-02T14:00:00 12.10025 87.62776
2024-05-02T15:00:00 12.10025 86.10732
2024-05-02T16:00:00 12.23025 84.79684
2024-05-02T17:00:00 11.84025 84.40791
2024-05-02T18:00:00 11.49025 84.76772
2024-05-02T19:00:00 11.22025 85.95349
2024-05-02T20:00:00 11.12025 86.4107
2024-05-02T21:00:00 10.97025 86.92459
2024-05-02T22:00:00 10.78025 87.26024
2024-05-02T23:00:00 10.58025 88.67621
2024-05-03T00:00:00 10.37025 89.62739
2024-05-03T01:00:00 10.17025 89.97714
2024-05-03T02:00:00 10.01025 88.56299
2024-05-03T03:00:00 9.800245 87.45882
2024-05-03T04:00:00 9.760245 86.61915
2024-05-03T05:00:00 9.880245 85.86306
2024-05-03T06:00:00 10.23025 84.55974
2024-05-03T07:00:00 10.47025 83.83926
2024-05-03T08:00:00 10.91025 81.79916
2024-05-03T09:00:00 11.41025 79.82562
2024-05-03T10:00:00 12.35025 74.44325
2024-05-03T11:00:00 12.93025 71.94784
2024-05-03T12:00:00 13.74025 66.29401
2024-05-03T13:00:00 14.36025 62.88739
2024-05-03T14:00:00 14.33025 61.5949
2024-05-03T15:00:00 14.55025 60.72108
2024-05-03T16:00:00 14.52025 61.38675
2024-05-03T17:00:00 14.27025 65.01705
2024-05-03T18:00:00 13.29025 72.06657
2024-05-03T19:00:00 11.11025 81.15809
2024-05-03T20:00:00 9.930245 84.98918
2024-05-03T21:00:00 9.060246 88.41225
2024-05-03T22:00:00 8.370246 92.52776
2024-05-03T23:00:00 7.310246 94.39952
2024-05-04T00:00:00 6.150245 96.87178
2024-05-04T01:00:00 6.310246 95.87046
2024-05-04T02:00:00 6.890245 93.26689
2024-05-04T03:00:00 7.560246 91.64287
2024-05-04T04:00:00 7.510245 91.13152
2024-05-04T05:00:00 7.760245 89.83289
2024-05-04T06:00:00 9.400246 87.89986
2024-05-04T07:00:00 11.56025 79.41286
2024-05-04T08:00:00 13.35025 72.37345
2024-05-04T09:00:00 14.68025 66.13958
2024-05-04T10:00:00 15.92025 58.92405
2024-05-04T11:00:00 17.02025 55.94585
2024-05-04T12:00:00 17.60025 52.10811
2024-05-04T13:00:00 18.18024 47.80436
2024-05-04T14:00:00 18.61025 46.71977
2024-05-04T15:00:00 18.73025 45.92293
2024-05-04T16:00:00 18.70025 50.33998
2024-05-04T17:00:00 17.97025 53.21623
2024-05-04T18:00:00 16.56025 59.73053
2024-05-04T19:00:00 15.17025 69.27508
2024-05-04T20:00:00 14.47025 73.72031
2024-05-04T21:00:00 14.33025 76.9381
2024-05-04T22:00:00 14.70025 75.77026
2024-05-04T23:00:00 14.05025 80.85905
2024-05-05T00:00:00 13.63025 85.12735
2024-05-05T01:00:00 13.37025 88.27618
2024-05-05T02:00:00 13.05025 89.90846
2024-05-05T03:00:00 13.02025 90.80753
2024-05-05T04:00:00 13.21025 90.34025
2024-05-05T05:00:00 13.35025 90.05162
2024-05-05T06:00:00 13.85025 88.43648
2024-05-05T07:00:00 14.40025 87.90301
2024-05-05T08:00:00 15.42025 84.9322
2024-05-05T09:00:00 16.18025 81.04335
2024-05-05T10:00:00 17.13025 75.32663
2024-05-05T11:00:00 18.34025 68.72175
2024-05-05T12:00:00 19.37025 63.53208
2024-05-05T13:00:00 20.35025 57.55542
2024-05-05T14:00:00 20.66025 56.0118
2024-05-05T15:00:00 20.59025 56.2178
2024-05-05T16:00:00 20.57025 56.8887
2024-05-05T17:00:00 19.39025 61.59053
2024-05-05T18:00:00 17.43024 76.82471
2024-05-05T19:00:00 15.98025 82.30554
2024-05-05T20:00:00 14.90025 89.0532
2024-05-05T21:00:00 14.38025 93.20123
2024-05-05T22:00:00 14.11025 97.49564
2024-05-05T23:00:00 13.87025 98.7096
2024-05-06T00:00:00 13.66025 99.22519
2024-05-06T01:00:00 13.45025 99.35356
2024-05-06T02:00:00 13.16025 99.28611
2024-05-06T03:00:00 13.09025 99.28552
2024-05-06T04:00:00 13.14025 99.22073
2024-05-06T05:00:00 13.26025 98.57244
2024-05-06T06:00:00 13.67025 97.16707
2024-05-06T07:00:00 14.21025 90.77333
2024-05-06T08:00:00 13.93025 89.38479
2024-05-06T09:00:00 13.49025 90.3016
2024-05-06T10:00:00 13.77025 89.37167
2024-05-06T11:00:00 13.78025 90.0254
2024-05-06T12:00:00 14.11025 88.10919
2024-05-06T13:00:00 14.54025 86.93522
2024-05-06T14:00:00 14.48025 86.35676
2024-05-06T15:00:00 14.63025 83.61695
2024-05-06T16:00:00 14.18025 82.56708
2024-05-06T17:00:00 13.83025 82.57732
2024-05-06T18:00:00 13.17025 85.58943
2024-05-06T19:00:00 13.32025 81.79464
2024-05-06T20:00:00 12.09025 88.93177
2024-05-06T21:00:00 11.59025 91.6817
2024-05-06T22:00:00 11.44025 92.10375
2024-05-06T23:00:00 11.35025 91.11153
2024-05-07T00:00:00 10.97025 92.88318
2024-05-07T01:00:00 10.76025 92.87042
2024-05-07T02:00:00 10.56025 94.37573
2024-05-07T03:00:00 10.33025 95.13248
2024-05-07T04:00:00 10.21025 94.99856
2024-05-07T05:00:00 10.55025 94.37524
2024-05-07T06:00:00 11.00025 93.32394
2024-05-07T07:00:00 11.57025 90.51686
2024-05-07T08:00:00 12.27025 86.53212
2024-05-07T09:00:00 12.98025 85.28248
2024-05-07T10:00:00 14.34025 84.75537
2024-05-07T11:00:00 15.20025 82.58714
2024-05-07T12:00:00 15.15025 81.8195
2024-05-07T13:00:00 15.20025 81.23239
2024-05-07T14:00:00 15.37025 80.77294
2024-05-07T15:00:00 14.95025 81.52245
2024-05-07T16:00:00 14.64025 84.06258
2024-05-07T17:00:00 14.18025 86.55512
2024-05-07T18:00:00 13.54025 89.76843
2024-05-07T19:00:00 13.18025 90.69868
2024-05-07T20:00:00 13.04025 91.11118
2024-05-07T21:00:00 12.71025 91.51335
2024-05-07T22:00:00 12.38025 91.9191
2024-05-07T23:00:00 11.94025 91.58285
2024-05-08T00:00:00 11.37025 92.53352
2024-05-08T01:00:00 10.85025 92.93856
2024-05-08T02:00:00 10.63025 93.99802
2024-05-08T03:00:00 10.67025 94.25403
2024-05-08T04:00:00 10.48025 94.30802
2024-05-08T05:00:00 10.59025 93.86909
2024-05-08T06:00:00 11.57025 90.63872
2024-05-08T07:00:00 12.89025 82.84487
2024-05-08T08:00:00 14.14025 75.47145
2024-05-08T09:00:00 14.97025 70.17632
2024-05-08T10:00:00 15.75025 61.26387
2024-05-08T11:00:00 16.48025 55.08207
2024-05-08T12:00:00 16.69025 54.16169
2024-05-08T13:00:00 16.81025 53.45378
2024-05-08T14:00:00 16.79025 53.11838
2024-05-08T15:00:00 16.71025 55.82702
2024-05-08T16:00:00 16.36025 57.83678
2024-05-08T17:00:00 15.62025 63.05418
2024-05-08T18:00:00 14.78025 66.11661
2024-05-08T19:00:00 13.49025 70.45264
2024-05-08T20:00:00 12.26025 76.0221
2024-05-08T21:00:00 11.44025 80.92821
2024-05-08T22:00:00 11.35025 83.49306
2024-05-08T23:00:00 10.46025 87.94382
2024-05-09T00:00:00 9.910245 89.89411
2024-05-09T01:00:00 9.100245 92.00756
2024-05-09T02:00:00 8.950245 92.62979
2024-05-09T03:00:00 8.940246 92.94696
2024-05-09T04:00:00 8.890245 93.00751
2024-05-09T05:00:00 9.680245 92.04776
2024-05-09T06:00:00 11.87025 85.85035
2024-05-09T07:00:00 13.35025 82.29426
2024-05-09T08:00:00 14.57025 77.13194
2024-05-09T09:00:00 15.58025 71.92004
2024-05-09T10:00:00 16.68024 67.15835
2024-05-09T11:00:00 17.48025 63.95345
2024-05-09T12:00:00 18.35025 61.6751
2024-05-09T13:00:00 19.13025 58.92197
2024-05-09T14:00:00 19.66025 56.69777
2024-05-09T15:00:00 20.01024 55.58608
2024-05-09T16:00:00 19.97025 55.1316
2024-05-09T17:00:00 19.71025 55.58362
2024-05-09T18:00:00 18.17025 62.00496
2024-05-09T19:00:00 15.20025 70.60177
2024-05-09T20:00:00 14.20025 73.67125
2024-05-09T21:00:00 12.52025 80.31625
2024-05-09T22:00:00 10.54025 87.89174
2024-05-09T23:00:00 9.690246 90.49171
2024-05-10T00:00:00 8.750245 92.48962
2024-05-10T01:00:00 7.880245 94.62584
2024-05-10T02:00:00 7.350246 95.65111
2024-05-10T03:00:00 6.890245 96.56352
2024-05-10T04:00:00 6.320245 97.48682
2024-05-10T05:00:00 7.930245 94.17295
2024-05-10T06:00:00 11.16025 85.83023
2024-05-10T07:00:00 14.22025 74.37431
2024-05-10T08:00:00 16.69025 65.29411
2024-05-10T09:00:00 18.55025 60.09403
2024-05-10T10:00:00 20.01024 54.51797
2024-05-10T11:00:00 21.22025 50.31102
2024-05-10T12:00:00 22.19025 47.62358
2024-05-10T13:00:00 22.95025 45.80122
2024-05-10T14:00:00 23.52025 44.45073
2024-05-10T15:00:00 23.77025 42.62525
2024-05-10T16:00:00 23.62025 41.95749
2024-05-10T17:00:00 22.78025 46.49508
2024-05-10T18:00:00 20.33025 55.92808
2024-05-10T19:00:00 18.49025 59.04145
2024-05-10T20:00:00 16.01025 70.14748
2024-05-10T21:00:00 13.11025 81.10864
2024-05-10T22:00:00 12.26025 84.74317
2024-05-10T23:00:00 10.99025 87.40008
2024-05-11T00:00:00 10.19025 88.64021
2024-05-11T01:00:00 9.510245 90.1683
2024-05-11T02:00:00 8.830245 91.86242
2024-05-11T03:00:00 8.270246 93.41734
2024-05-11T04:00:00 7.730245 93.90204
2024-05-11T05:00:00 9.370245 90.52793
2024-05-11T06:00:00 12.86025 81.12853
2024-05-11T07:00:00 16.08025 69.22739
2024-05-11T08:00:00 18.52025 58.49647
2024-05-11T09:00:00 20.40025 53.10597
2024-05-11T10:00:00 21.87025 50.62099
2024-05-11T11:00:00 23.03025 46.31619
2024-05-11T12:00:00 24.08025 42.45606
2024-05-11T13:00:00 24.75025 39.37908
2024-05-11T14:00:00 25.23025 37.06931
2024-05-11T15:00:00 25.48025 36.74207
2024-05-11T16:00:00 24.99025 40.35696
2024-05-11T17:00:00 24.30025 42.51811
2024-05-11T18:00:00 21.88025 54.6731
2024-05-11T19:00:00 19.93024 55.19513
2024-05-11T20:00:00 18.06025 63.99889
2024-05-11T21:00:00 15.08025 76.24087
2024-05-11T22:00:00 13.54025 83.87595
2024-05-11T23:00:00 12.66025 86.16715
2024-05-12T00:00:00 11.97025 87.37949
2024-05-12T01:00:00 11.49025 87.50905
2024-05-12T02:00:00 11.28025 86.8977
2024-05-12T03:00:00 11.00025 86.98674
2024-05-12T04:00:00 11.00025 85.40477
2024-05-12T05:00:00 11.96025 84.53647
2024-05-12T06:00:00 14.98025 75.26144
2024-05-12T07:00:00 17.40025 65.93337
2024-05-12T08:00:00 19.64025 57.6088
2024-05-12T09:00:00 21.64025 53.35987
2024-05-12T10:00:00 23.23025 49.8192
2024-05-12T11:00:00 24.24025 47.23936
2024-05-12T12:00:00 25.01024 45.7025
2024-05-12T13:00:00 25.63025 43.63454
2024-05-12T14:00:00 25.23025 44.21983
2024-05-12T15:00:00 24.52025 45.90031
2024-05-12T16:00:00 23.97025 48.36513
2024-05-12T17:00:00 22.71025 60.24967
2024-05-12T18:00:00 21.07025 61.81734
2024-05-12T19:00:00 18.63025 69.55346
2024-05-12T20:00:00 17.42025 75.07867
2024-05-12T21:00:00 16.22025 82.06631
2024-05-12T22:00:00 16.46025 82.6903
2024-05-12T23:00:00 16.06025 85.44833
2024-05-13T00:00:00 15.34025 88.79848
2024-05-13T01:00:00 14.58025 91.99882
2024-05-13T02:00:00 14.48025 91.87196
2024-05-13T03:00:00 14.17025 93.18995
2024-05-13T04:00:00 14.16025 92.88389
2024-05-13T05:00:00 14.38025 92.7136
2024-05-13T06:00:00 15.71025 88.13629
2024-05-13T07:00:00 17.06025 84.12122
2024-05-13T08:00:00 18.73025 77.37933
2024-05-13T09:00:00 19.83025 72.27943
2024-05-13T10:00:00 21.20025 63.19424
2024-05-13T11:00:00 22.13025 59.21873
2024-05-13T12:00:00 22.64025 56.28712
2024-05-13T13:00:00 23.28025 53.36287
2024-05-13T14:00:00 23.61025 50.31725
2024-05-13T15:00:00 23.81025 48.25793
2024-05-13T16:00:00 23.54025 49.11789
2024-05-13T17:00:00 23.10025 49.94927
2024-05-13T18:00:00 21.52025 53.75504
2024-05-13T19:00:00 18.77025 62.02083
2024-05-13T20:00:00 16.61025 74.39747
2024-05-13T21:00:00 15.31025 80.60437
2024-05-13T22:00:00 13.97025 84.76968
2024-05-13T23:00:00 13.40025 86.70631
2024-05-14T00:00:00 13.01025 87.24773
2024-05-14T01:00:00 12.71025 88.03915
2024-05-14T02:00:00 12.14025 89.17516
2024-05-14T03:00:00 11.47025 90.3265
2024-05-14T04:00:00 11.09025 89.80964
2024-05-14T05:00:00 12.15025 88.93704
2024-05-14T06:00:00 15.17025 79.31146
2024-05-14T07:00:00 18.04025 69.02506
2024-05-14T08:00:00 20.32025 62.74855
2024-05-14T09:00:00 22.18024 58.53869
2024-05-14T10:00:00 23.40025 54.16782
2024-05-14T11:00:00 23.99025 51.58856
2024-05-14T12:00:00 24.51024 47.9403
2024-05-14T13:00:00 24.81025 44.04458
2024-05-14T14:00:00 25.08025 42.39771
2024-05-14T15:00:00 24.37025 46.53141
2024-05-14T16:00:00 21.00025 61.92276
2024-05-14T17:00:00 18.62025 70.05592
2024-05-14T18:00:00 17.73025 71.75192
2024-05-14T19:00:00 16.99025 74.90694
2024-05-14T20:00:00 16.29025 76.64215
2024-05-14T21:00:00 15.35025 79.70707
2024-05-14T22:00:00 14.84025 81.56187
2024-05-14T23:00:00 14.16025 86.55309
2024-05-15T00:00:00 13.80025 90.56415
2024-05-15T01:00:00 13.56025 93.09535
2024-05-15T02:00:00 13.44025 95.13726
2024-05-15T03:00:00 13.39025 96.07978
2024-05-15T04:00:00 13.34025 96.07813
2024-05-15T05:00:00 13.48025 94.70117
2024-05-15T06:00:00 13.75025 92.2505
2024-05-15T07:00:00 14.19025 90.11637
2024-05-15T08:00:00 14.82025 86.33444
2024-05-15T09:00:00 15.84025 81.80178
2024-05-15T10:00:00 16.18025 81.2567
2024-05-15T11:00:00 17.18024 76.78496
2024-05-15T12:00:00 17.38025 76.31464
2024-05-15T13:00:00 17.46025 77.23305
2024-05-15T14:00:00 17.76024 76.87695
2024-05-15T15:00:00 17.90025 76.99949
2024-05-15T16:00:00 17.54025 78.72351
2024-05-15T17:00:00 16.24025 81.69273
2024-05-15T18:00:00 14.36025 87.89935
2024-05-15T19:00:00 13.32025 91.37283
2024-05-15T20:00:00 12.97025 93.00069
2024-05-15T21:00:00 12.64025 94.35053
2024-05-15T22:00:00 12.15025 94.57887
2024-05-15T23:00:00 11.92025 95.01084
2024-05-16T00:00:00 11.63025 95.50745
2024-05-16T01:00:00 11.05025 96.44964
2024-05-16T02:00:00 10.75025 96.89414
2024-05-16T03:00:00 10.84025 96.70194
2024-05-16T04:00:00 10.75025 96.76406
2024-05-16T05:00:00 11.40025 95.37049
2024-05-16T06:00:00 12.41025 91.61499
2024-05-16T07:00:00 13.54025 88.82073
2024-05-16T08:00:00 14.11025 87.23885
2024-05-16T09:00:00 14.95025 80.12718
2024-05-16T10:00:00 15.89025 75.21638
2024-05-16T11:00:00 16.62025 71.16293
2024-05-16T12:00:00 16.61025 72.54635
2024-05-16T13:00:00 16.25025 72.04646
2024-05-16T14:00:00 15.74025 74.19553
2024-05-16T15:00:00 15.00025 78.91795
2024-05-16T16:00:00 14.35025 87.14668
2024-05-16T17:00:00 13.71025 91.15813
2024-05-16T18:00:00 12.83025 94.86087
2024-05-16T19:00:00 12.48025 96.81593
2024-05-16T20:00:00 12.28025 97.06743
2024-05-16T21:00:00 12.15025 96.6779
2024-05-16T22:00:00 11.90025 96.02873
2024-05-16T23:00:00 11.78025 95.89648
2024-05-17T00:00:00 11.71025 95.51064
2024-05-17T01:00:00 11.69025 95.12787
2024-05-17T02:00:00 11.57025 95.88874
2024-05-17T03:00:00 11.50025 96.33572
2024-05-17T04:00:00 11.46025 96.27002
2024-05-17T05:00:00 11.39025 95.68978
2024-05-17T06:00:00 11.53025 94.99384
2024-05-17T07:00:00 11.78025 90.89846
2024-05-17T08:00:00 12.22025 90.74855
2024-05-17T09:00:00 13.00025 88.53731
2024-05-17T10:00:00 14.00025 82.59911
2024-05-17T11:00:00 14.84025 78.26518
2024-05-17T12:00:00 15.54025 73.61711
2024-05-17T13:00:00 15.97025 70.46923
2024-05-17T14:00:00 16.43025 65.28039
2024-05-17T15:00:00 16.36025 64.9576
2024-05-17T16:00:00 16.49025 64.46321
2024-05-17T17:00:00 16.40025 65.80331
2024-05-17T18:00:00 15.44025 75.54142
2024-05-17T19:00:00 14.66025 72.13291
2024-05-17T20:00:00 11.52025 88.46265
2024-05-17T21:00:00 10.58025 92.23354
2024-05-17T22:00:00 9.970245 95.50358
2024-05-17T23:00:00 9.400246 96.32679
2024-05-18T00:00:00 8.620245 97.15706
2024-05-18T01:00:00 8.200246 98.0799
2024-05-18T02:00:00 7.590245 98.74139
2024-05-18T03:00:00 7.550245 99.08064
2024-05-18T04:00:00 7.350246 99.41872
2024-05-18T05:00:00 9.110246 96.97405
2024-05-18T06:00:00 11.76025 90.47069
2024-05-18T07:00:00 14.70025 80.25168
2024-05-18T08:00:00 17.08025 70.31149
2024-05-18T09:00:00 18.67025 61.50362
2024-05-18T10:00:00 19.83025 53.52843
2024-05-18T11:00:00 20.76024 49.51515
2024-05-18T12:00:00 20.85025 49.97506
2024-05-18T13:00:00 20.65025 49.81985
2024-05-18T14:00:00 20.14025 50.11932
2024-05-18T15:00:00 17.35025 60.94389
2024-05-18T16:00:00 16.05025 71.57735
2024-05-18T17:00:00 15.26025 74.80779
2024-05-18T18:00:00 14.69025 78.92403
2024-05-18T19:00:00 13.55025 86.60613
2024-05-18T20:00:00 12.54025 91.6238
2024-05-18T21:00:00 11.60025 95.31498
2024-05-18T22:00:00 11.55025 96.85326
2024-05-18T23:00:00 11.13025 97.8177
2024-05-19T00:00:00 10.67025 98.33361
2024-05-19T01:00:00 10.03025 99.25313
2024-05-19T02:00:00 9.900246 99.51948
2024-05-19T03:00:00 10.31025 98.72427
2024-05-19T04:00:00 10.60025 98.20034
2024-05-19T05:00:00 11.53025 95.05741
2024-05-19T06:00:00 12.90025 90.79877
2024-05-19T07:00:00 14.17025 86.61147
2024-05-19T08:00:00 15.38025 79.2897
2024-05-19T09:00:00 16.54025 70.81654
2024-05-19T10:00:00 17.45025 64.24716
2024-05-19T11:00:00 18.65025 59.04112
2024-05-19T12:00:00 19.56025 56.33221
2024-05-19T13:00:00 20.18024 54.52556
2024-05-19T14:00:00 20.83025 52.4423
2024-05-19T15:00:00 21.31025 49.66502
2024-05-19T16:00:00 21.38025 49.35189
2024-05-19T17:00:00 20.72025 52.69454
2024-05-19T18:00:00 19.07025 59.57989
2024-05-19T19:00:00 17.13025 64.7372
2024-05-19T20:00:00 14.87025 76.56365
2024-05-19T21:00:00 13.73025 80.27422
2024-05-19T22:00:00 12.14025 90.925
2024-05-19T23:00:00 11.36025 92.53289
2024-05-20T00:00:00 10.62025 93.74409
2024-05-20T01:00:00 10.44025 94.17867
2024-05-20T02:00:00 9.970245 94.66625
2024-05-20T03:00:00 9.580245 94.77593
2024-05-20T04:00:00 9.610246 94.71298
2024-05-20T05:00:00 11.24025 93.33765
2024-05-20T06:00:00 13.19025 89.62118
2024-05-20T07:00:00 15.84025 79.04294
2024-05-20T08:00:00 17.91025 72.44981
2024-05-20T09:00:00 19.64025 67.42176
2024-05-20T10:00:00 21.07025 61.81734
2024-05-20T11:00:00 21.81025 59.02614
2024-05-20T12:00:00 22.52025 54.69247
2024-05-20T13:00:00 23.01024 53.64417
2024-05-20T14:00:00 23.32025 53.47817
2024-05-20T15:00:00 23.77025 51.16024
2024-05-20T16:00:00 23.44025 50.27192
2024-05-20T17:00:00 22.03025 56.83973
2024-05-20T18:00:00 20.57025 62.68182
2024-05-20T19:00:00 19.06025 69.09263
2024-05-20T20:00:00 17.63025 76.95702
2024-05-20T21:00:00 17.43024 76.92545
2024-05-20T22:00:00 16.22025 83.75065
2024-05-20T23:00:00 14.88025 88.93468
2024-05-21T00:00:00 14.13025 92.3951
2024-05-21T01:00:00 13.76025 95.46308
2024-05-21T02:00:00 13.50025 95.51618
2024-05-21T03:00:00 13.28025 96.2662
2024-05-21T04:00:00 13.06025 96.83227
2024-05-21T05:00:00 13.22025 96.70924
2024-05-21T06:00:00 13.52025 96.59067
2024-05-21T07:00:00 14.00025 95.40941
2024-05-21T08:00:00 14.52025 93.75938
2024-05-21T09:00:00 15.01025 91.78514
2024-05-21T10:00:00 15.82025 82.23106
2024-05-21T11:00:00 16.79025 77.17861
2024-05-21T12:00:00 17.48025 73.71886
2024-05-21T13:00:00 18.04025 72.8553
2024-05-21T14:00:00 18.64025 68.6014
2024-05-21T15:00:00 19.08025 65.08163
2024-05-21T16:00:00 19.03025 64.94188
2024-05-21T17:00:00 18.43024 69.83492
2024-05-21T18:00:00 17.18024 76.93635
2024-05-21T19:00:00 15.18025 84.29226
2024-05-21T20:00:00 14.15025 87.76386
2024-05-21T21:00:00 14.11025 86.54803
2024-05-21T22:00:00 13.82025 90.08803
2024-05-21T23:00:00 13.92025 87.8588
2024-05-22T00:00:00 13.73025 87.78288
2024-05-22T01:00:00 13.70025 88.59925
2024-05-22T02:00:00 13.67025 88.71421
2024-05-22T03:00:00 13.69025 88.7748
2024-05-22T04:00:00 13.63025 88.9464
2024-05-22T05:00:00 13.79025 89.25507
2024-05-22T06:00:00 14.42025 86.40777
2024-05-22T07:00:00 14.89025 83.70352
2024-05-22T08:00:00 15.81025 77.58682
2024-05-22T09:00:00 16.32025 74.10055
2024-05-22T10:00:00 16.82025 69.19215
2024-05-22T11:00:00 17.53025 65.61044
2024-05-22T12:00:00 17.84025 62.46956
2024-05-22T13:00:00 18.41025 59.93959
2024-05-22T14:00:00 18.80025 61.12545
2024-05-22T15:00:00 18.94025 60.95522
2024-05-22T16:00:00 18.70025 62.58508
2024-05-22T17:00:00 18.59025 63.18734
2024-05-22T18:00:00 17.51024 69.60722
2024-05-22T19:00:00 15.03025 81.53312
2024-05-22T20:00:00 13.62025 86.44052
2024-05-22T21:00:00 13.57025 86.14804
2024-05-22T22:00:00 12.23025 89.66232
2024-05-22T23:00:00 11.80025 91.57319
2024-05-23T00:00:00 11.37025 93.78456
2024-05-23T01:00:00 10.91025 94.52023
2024-05-23T02:00:00 10.51025 95.46176
2024-05-23T03:00:00 10.05025 95.89536
2024-05-23T04:00:00 10.02025 96.08897
2024-05-23T05:00:00 11.02025 94.20833
2024-05-23T06:00:00 12.53025 92.29713
2024-05-23T07:00:00 13.59025 89.89145
2024-05-23T08:00:00 14.45025 86.58237
2024-05-23T09:00:00 14.76025 84.69067
2024-05-23T10:00:00 14.86025 83.9217
2024-05-23T11:00:00 15.60025 81.44732
2024-05-23T12:00:00 16.15025 79.45448
2024-05-23T13:00:00 16.35025 76.14665
2024-05-23T14:00:00 16.55025 74.98034
2024-05-23T15:00:00 16.64025 73.56962
2024-05-23T16:00:00 16.23025 73.39844
2024-05-23T17:00:00 15.85025 74.41293
2024-05-23T18:00:00 15.06025 82.40569
2024-05-23T19:00:00 13.88025 88.55635
2024-05-23T20:00:00 13.40025 91.68128
2024-05-23T21:00:00 12.28025 96.23363
2024-05-23T22:00:00 11.59025 96.9191
2024-05-23T23:00:00 10.92025 97.35515
2024-05-24T00:00:00 10.87025 97.35381
2024-05-24T01:00:00 10.91025 97.15927
2024-05-24T02:00:00 11.18025 96.45396
2024-05-24T03:00:00 11.14025 96.77617
2024-05-24T04:00:00 11.21025 96.39041
2024-05-24T05:00:00 11.60025 96.21053
2024-05-24T06:00:00 12.70025 93.79157
2024-05-24T07:00:00 14.31025 89.65178
2024-05-24T08:00:00 15.70025 81.94534
2024-05-24T09:00:00 16.79025 72.67582
2024-05-24T10:00:00 17.39025 71.83048
2024-05-24T11:00:00 17.45025 68.31361
2024-05-24T12:00:00 17.21025 63.59265
2024-05-24T13:00:00 16.63025 67.14771
2024-05-24T14:00:00 16.32025 71.43797
2024-05-24T15:00:00 17.01024 70.48486
2024-05-24T16:00:00 17.07025 69.89031
2024-05-24T17:00:00 16.43025 73.67863
2024-05-24T18:00:00 15.54025 79.89294
2024-05-24T19:00:00 14.09025 82.50053
2024-05-24T20:00:00 12.68025 87.97749
2024-05-24T21:00:00 12.44025 88.72441
2024-05-24T22:00:00 10.39025 94.8145
2024-05-24T23:00:00 9.550245 96.65965
2024-05-25T00:00:00 8.580245 98.29018
2024-05-25T01:00:00 8.550245 98.42376
2024-05-25T02:00:00 8.200246 98.6859
2024-05-25T03:00:00 8.400246 98.28612
2024-05-25T04:00:00 8.530246 98.08795
2024-05-25T05:00:00 10.07025 95.4432
2024-05-25T06:00:00 12.18025 90.98878
2024-05-25T07:00:00 14.40025 86.17738
2024-05-25T08:00:00 16.24025 78.68575
2024-05-25T09:00:00 17.64025 67.45071
2024-05-25T10:00:00 18.35025 61.9642
2024-05-25T11:00:00 18.62025 58.6785
2024-05-25T12:00:00 19.19025 56.69283
2024-05-25T13:00:00 20.19025 52.87285
2024-05-25T14:00:00 20.64025 51.24497
2024-05-25T15:00:00 21.09025 51.02284
2024-05-25T16:00:00 20.92025 50.80645
2024-05-25T17:00:00 20.42025 54.26053
2024-05-25T18:00:00 19.17025 59.20781
2024-05-25T19:00:00 15.47025 77.37897
2024-05-25T20:00:00 13.79025 82.35168
2024-05-25T21:00:00 12.48025 88.01769
2024-05-25T22:00:00 12.13025 92.14864
2024-05-25T23:00:00 11.24025 94.66303
2024-05-26T00:00:00 10.48025 97.21243
2024-05-26T01:00:00 10.51025 96.5613
2024-05-26T02:00:00 9.980246 95.89262
2024-05-26T03:00:00 9.420245 96.2621
2024-05-26T04:00:00 9.810246 94.08185
2024-05-26T05:00:00 11.16025 89.75478
2024-05-26T06:00:00 14.11025 81.46381
2024-05-26T07:00:00 16.56025 74.48737
2024-05-26T08:00:00 18.68024 67.66714
2024-05-26T09:00:00 20.29025 61.71843
2024-05-26T10:00:00 21.45025 56.99521
2024-05-26T11:00:00 22.00025 54.99315
2024-05-26T12:00:00 21.94025 54.72456
2024-05-26T13:00:00 20.96025 56.87315
2024-05-26T14:00:00 20.55025 59.30635
2024-05-26T15:00:00 20.59025 62.89219
2024-05-26T16:00:00 20.53025 63.9169
2024-05-26T17:00:00 19.56025 69.55402
2024-05-26T18:00:00 18.14025 78.86254
2024-05-26T19:00:00 17.25025 80.60588
2024-05-26T20:00:00 15.47025 89.50846
2024-05-26T21:00:00 14.96025 90.70757
2024-05-26T22:00:00 15.21025 92.8813
2024-05-26T23:00:00 15.84025 90.357
2024-05-27T00:00:00 15.62025 91.16847
2024-05-27T01:00:00 15.32025 91.6252
2024-05-27T02:00:00 14.53025 95.92854
2024-05-27T03:00:00 14.40025 96.74171
2024-05-27T04:00:00 14.23025 96.99027
2024-05-27T05:00:00 14.68025 95.68363
2024-05-27T06:00:00 15.53025 92.41687
2024-05-27T07:00:00 16.82025 83.71137
2024-05-27T08:00:00 17.74025 79.11288
2024-05-27T09:00:00 18.30025 74.93232
2024-05-27T10:00:00 18.22025 74.47948
2024-05-27T11:00:00 18.44025 73.98379
2024-05-27T12:00:00 18.80025 73.75724
2024-05-27T13:00:00 19.76024 68.51244
2024-05-27T14:00:00 20.23025 63.3078
2024-05-27T15:00:00 20.43024 65.417
2024-05-27T16:00:00 19.00025 71.56568
2024-05-27T17:00:00 18.36025 74.40614
2024-05-27T18:00:00 17.69025 76.76541
2024-05-27T19:00:00 16.39025 81.01839
2024-05-27T20:00:00 15.22025 84.5194
2024-05-27T21:00:00 14.42025 86.29353
2024-05-27T22:00:00 13.80025 86.51647
2024-05-27T23:00:00 13.44025 85.16292
2024-05-28T00:00:00 13.05025 84.83449
2024-05-28T01:00:00 12.44025 86.25958
2024-05-28T02:00:00 11.56025 88.34703
2024-05-28T03:00:00 11.62025 87.64012
2024-05-28T04:00:00 11.19025 89.09258
2024-05-28T05:00:00 12.01025 86.44664
2024-05-28T06:00:00 13.70025 79.62579
2024-05-28T07:00:00 15.04025 70.42752
2024-05-28T08:00:00 16.01025 62.46288
2024-05-28T09:00:00 17.10025 56.04305
2024-05-28T10:00:00 17.86025 56.01072
2024-05-28T11:00:00 18.68024 53.4052
2024-05-28T12:00:00 19.34025 50.03654
2024-05-28T13:00:00 20.04025 48.06194
2024-05-28T14:00:00 20.58025 44.82892
2024-05-28T15:00:00 20.95025 42.71962
2024-05-28T16:00:00 21.11025 42.29967
2024-05-28T17:00:00 21.02025 42.47709
2024-05-28T18:00:00 19.60025 50.5173
2024-05-28T19:00:00 17.20025 62.36227
2024-05-28T20:00:00 16.67025 62.23792
2024-05-28T21:00:00 15.07025 69.81828
2024-05-28T22:00:00 12.79025 81.22836
2024-05-28T23:00:00 12.09025 87.09779
2024-05-29T00:00:00 11.58025 90.51762
2024-05-29T01:00:00 11.19025 93.39757
2024-05-29T02:00:00 11.36025 93.78401
2024-05-29T03:00:00 11.47025 93.4133
2024-05-29T04:00:00 11.49025 93.91676
2024-05-29T05:00:00 12.56025 89.92937
2024-05-29T06:00:00 13.52025 88.64227
2024-05-29T07:00:00 14.71025 86.15248
2024-05-29T08:00:00 15.98025 80.69685
2024-05-29T09:00:00 17.01024 75.65456
2024-05-29T10:00:00 16.65025 75.196
2024-05-29T11:00:00 15.82025 81.58394
2024-05-29T12:00:00 15.92025 82.13573
2024-05-29T13:00:00 15.57025 85.45216
2024-05-29T14:00:00 16.05025 85.22405
2024-05-29T15:00:00 16.28025 84.52794
2024-05-29T16:00:00 16.46025 84.21755
2024-05-29T17:00:00 16.30025 85.4737
2024-05-29T18:00:00 16.03025 87.19276
2024-05-29T19:00:00 15.36025 89.61684
2024-05-29T20:00:00 14.81025 91.83259
2024-05-29T21:00:00 14.58025 93.1509
2024-05-29T22:00:00 14.21025 95.79258
2024-05-29T23:00:00 14.18025 95.79156
2024-05-30T00:00:00 14.35025 94.61441
2024-05-30T01:00:00 14.63025 92.60648
2024-05-30T02:00:00 14.77025 92.91779
2024-05-30T03:00:00 14.67025 94.01212
2024-05-30T04:00:00 14.57025 94.31516
2024-05-30T05:00:00 14.86025 94.20516
2024-05-30T06:00:00 15.16025 93.48563
2024-05-30T07:00:00 15.38025 93.07201
2024-05-30T08:00:00 15.83025 91.12321
2024-05-30T09:00:00 16.39025 88.42514
2024-05-30T10:00:00 16.58025 89.65268
2024-05-30T11:00:00 17.19025 86.73798
2024-05-30T12:00:00 17.67025 81.77071
2024-05-30T13:00:00 17.98025 78.1751
2024-05-30T14:00:00 17.66025 74.18807
2024-05-30T15:00:00 17.30025 75.20664
2024-05-30T16:00:00 16.67025 79.3208
2024-05-30T17:00:00 16.34025 78.49349
2024-05-30T18:00:00 15.81025 79.66792
2024-05-30T19:00:00 14.35025 83.47214
2024-05-30T20:00:00 13.22025 86.34153
2024-05-30T21:00:00 12.44025 88.78385
2024-05-30T22:00:00 12.37025 89.01588
2024-05-30T23:00:00 12.16025 89.53643
2024-05-31T00:00:00 11.86025 89.87291
2024-05-31T01:00:00 11.57025 90.88287
2024-05-31T02:00:00 11.49025 90.81577
2024-05-31T03:00:00 11.32025 91.29359
2024-05-31T04:00:00 11.29025 91.66103
2024-05-31T05:00:00 11.40025 90.68678
2024-05-31T06:00:00 11.73025 90.34686
2024-05-31T07:00:00 12.22025 87.63936
2024-05-31T08:00:00 12.41025 84.93203
2024-05-31T09:00:00 12.78025 83.6712
2024-05-31T10:00:00 13.42025 83.46957
2024-05-31T11:00:00 14.12025 84.89945
2024-05-31T12:00:00 14.91025 80.22809
2024-05-31T13:00:00 15.57025 75.41254
2024-05-31T14:00:00 15.87025 76.87946
2024-05-31T15:00:00 15.96025 75.47862
2024-05-31T16:00:00 15.75025 78.14511
2024-05-31T17:00:00 15.55025 80.79768
2024-05-31T18:00:00 14.41025 87.61425
2024-05-31T19:00:00 13.46025 92.78288
2024-05-31T20:00:00 13.05025 94.18267
2024-05-31T21:00:00 12.83025 94.73531
2024-05-31T22:00:00 12.58025 95.92527
2024-05-31T23:00:00 12.48025 96.11274
2024-06-01T00:00:00 12.47025 95.47696
2024-06-01T01:00:00 12.23025 96.10416
2024-06-01T02:00:00 12.37025 95.5365
2024-06-01T03:00:00 12.45025 95.92068
2024-06-01T04:00:00 12.51025 95.9228
2024-06-01T05:00:00 12.79025 95.42616
2024-06-01T06:00:00 13.26025 93.82005
2024-06-01T07:00:00 13.86025 90.6284
2024-06-01T08:00:00 14.49025 89.01909
2024-06-01T09:00:00 15.21025 87.05763
2024-06-01T10:00:00 16.34025 76.95477
2024-06-01T11:00:00 17.46025 71.32325
2024-06-01T12:00:00 17.85025 68.35029
2024-06-01T13:00:00 17.88025 68.17553
2024-06-01T14:00:00 17.50025 70.02158
2024-06-01T15:00:00 16.97025 76.09766
2024-06-01T16:00:00 17.13025 77.84248
2024-06-01T17:00:00 16.78025 81.65601
2024-06-01T18:00:00 16.16025 87.94644
2024-06-01T19:00:00 15.21025 93.12362
2024-06-01T20:00:00 14.67025 94.44291
2024-06-01T21:00:00 14.36025 95.92295
2024-06-01T22:00:00 14.13025 96.22966
2024-06-01T23:00:00 14.05025 96.54262
2024-06-02T00:00:00 13.90025 96.85501
2024-06-02T01:00:00 13.76025 96.66095
2024-06-02T02:00:00 13.98025 95.47125
2024-06-02T03:00:00 13.95025 95.72086
2024-06-02T04:00:00 13.97025 95.15832
2024-06-02T05:00:00 13.98025 95.78467
2024-06-02T06:00:00 14.19025 95.22927
2024-06-02T07:00:00 14.40025 94.30752
2024-06-02T08:00:00 14.92025 94.08514
2024-06-02T09:00:00 15.73025 90.46672
2024-06-02T10:00:00 15.56025 94.11432
2024-06-02T11:00:00 16.01025 91.96638
2024-06-02T12:00:00 16.23025 92.5166
2024-06-02T13:00:00 16.87025 91.13281
2024-06-02T14:00:00 17.14025 90.91611
2024-06-02T15:00:00 16.95025 92.20004
2024-06-02T16:00:00 16.93024 92.97278
2024-06-02T17:00:00 16.88025 93.5095
2024-06-02T18:00:00 16.69025 95.68819
2024-06-02T19:00:00 16.06025 97.5342
2024-06-02T20:00:00 15.78025 97.46614
2024-06-02T21:00:00 15.60025 97.08572
2024-06-02T22:00:00 15.37025 96.57909
2024-06-02T23:00:00 15.08025 96.7595
2024-06-03T00:00:00 14.64025 96.18253
2024-06-03T01:00:00 14.23025 95.66802
2024-06-03T02:00:00 13.92025 95.78262
2024-06-03T03:00:00 13.76025 95.27514
2024-06-03T04:00:00 13.65025 94.14911
2024-06-03T05:00:00 13.68025 93.28628
2024-06-03T06:00:00 13.88025 91.65228
2024-06-03T07:00:00 13.98025 90.87664
2024-06-03T08:00:00 14.01025 89.33228
2024-06-03T09:00:00 14.47025 86.24163
2024-06-03T10:00:00 15.08025 82.4628
2024-06-03T11:00:00 15.67025 81.02778
2024-06-03T12:00:00 16.32025 77.97453
2024-06-03T13:00:00 16.67025 77.05806
2024-06-03T14:00:00 17.06025 76.31291
2024-06-03T15:00:00 17.15025 76.37769
2024-06-03T16:00:00 17.13025 76.32427
2024-06-03T17:00:00 17.16025 77.49052
2024-06-03T18:00:00 16.79025 79.28615
2024-06-03T19:00:00 15.69025 86.81913
2024-06-03T20:00:00 14.55025 92.35949
2024-06-03T21:00:00 14.42025 92.59436
2024-06-03T22:00:00 14.31025 89.59273
2024-06-03T23:00:00 13.85025 91.04754
2024-06-04T00:00:00 13.53025 92.11512
2024-06-04T01:00:00 13.14025 93.31872
2024-06-04T02:00:00 12.29025 95.53339
2024-06-04T03:00:00 12.20025 96.74362
2024-06-04T04:00:00 12.58025 96.43497
2024-06-04T05:00:00 13.20025 95.12756
2024-06-04T06:00:00 14.15025 91.60963
2024-06-04T07:00:00 15.47025 85.21726
2024-06-04T08:00:00 16.76024 80.17054
2024-06-04T09:00:00 17.86025 76.84251
2024-06-04T10:00:00 19.03025 71.38457
2024-06-04T11:00:00 20.27025 66.93779
2024-06-04T12:00:00 21.13025 62.60381
2024-06-04T13:00:00 21.64025 60.86671
2024-06-04T14:00:00 22.33025 58.72796
2024-06-04T15:00:00 22.66025 56.80969
2024-06-04T16:00:00 22.70025 56.78248
2024-06-04T17:00:00 22.42025 58.82624
2024-06-04T18:00:00 21.31025 61.59013
2024-06-04T19:00:00 19.55025 67.44734
2024-06-04T20:00:00 16.49025 82.91065
2024-06-04T21:00:00 15.17025 88.20405
2024-06-04T22:00:00 14.62025 91.34023
2024-06-04T23:00:00 14.26025 92.58508
2024-06-05T00:00:00 13.71025 93.47246
2024-06-05T01:00:00 13.25025 94.50377
2024-06-05T02:00:00 12.86025 94.92498
2024-06-05T03:00:00 13.00025 94.68011
2024-06-05T04:00:00 13.17025 93.69151
2024-06-05T05:00:00 14.65025 90.21046
2024-06-05T06:00:00 16.61025 84.61987
2024-06-05T07:00:00 18.38025 75.387
2024-06-05T08:00:00 20.11025 68.35967
2024-06-05T09:00:00 21.42025 63.86353
2024-06-05T10:00:00 22.54025 59.27792
2024-06-05T11:00:00 22.92025 59.06083
2024-06-05T12:00:00 23.03025 59.50985
2024-06-05T13:00:00 23.61025 58.35112
2024-06-05T14:00:00 23.96025 56.54061
2024-06-05T15:00:00 24.46025 53.8401
2024-06-05T16:00:00 24.26024 54.06948
2024-06-05T17:00:00 23.58025 57.66809
2024-06-05T18:00:00 22.41025 59.5951
2024-06-05T19:00:00 20.01024 70.78197
2024-06-05T20:00:00 17.82025 77.79514
2024-06-05T21:00:00 16.78025 79.91107
2024-06-05T22:00:00 16.00025 83.61508
2024-06-05T23:00:00 15.07025 88.25309
2024-06-06T00:00:00 14.15025 91.66993
2024-06-06T01:00:00 13.93025 93.91512
2024-06-06T02:00:00 13.45025 95.0124
2024-06-06T03:00:00 12.80025 95.86958
2024-06-06T04:00:00 12.79025 95.80582
2024-06-06T05:00:00 14.36025 92.77329
2024-06-06T06:00:00 16.35025 86.71332
2024-06-06T07:00:00 18.75025 76.23648
2024-06-06T08:00:00 20.77025 68.22603
2024-06-06T09:00:00 22.34025 60.39813
2024-06-06T10:00:00 23.54025 53.63989
2024-06-06T11:00:00 24.58025 49.26785
2024-06-06T12:00:00 25.14025 49.03176
2024-06-06T13:00:00 25.51024 48.93891
2024-06-06T14:00:00 25.51024 51.44901
2024-06-06T15:00:00 25.07025 55.12107
2024-06-06T16:00:00 24.53025 58.00923
2024-06-06T17:00:00 23.65025 59.73289
2024-06-06T18:00:00 22.15025 63.8997
2024-06-06T19:00:00 20.38025 69.12834
2024-06-06T20:00:00 19.27025 74.99725
2024-06-06T21:00:00 18.22025 81.47118
2024-06-06T22:00:00 17.34025 87.70969
2024-06-06T23:00:00 16.08025 92.80803
2024-06-07T00:00:00 15.73025 93.81753
2024-06-07T01:00:00 15.66025 95.77851
2024-06-07T02:00:00 15.64025 96.1502
2024-06-07T03:00:00 15.48025 95.8347
2024-06-07T04:00:00 15.37025 94.78031
2024-06-07T05:00:00 16.08025 91.79201
2024-06-07T06:00:00 17.55025 82.87753
2024-06-07T07:00:00 19.28025 77.51334
2024-06-07T08:00:00 20.73025 70.36993
2024-06-07T09:00:00 22.18024 63.70004
2024-06-07T10:00:00 23.29025 58.27419
2024-06-07T11:00:00 23.96025 55.16436
2024-06-07T12:00:00 24.94025 51.83667
2024-06-07T13:00:00 25.55025 49.94682
2024-06-07T14:00:00 25.94025 48.42012
2024-06-07T15:00:00 26.11025 47.56023
2024-06-07T16:00:00 25.89025 47.22279
2024-06-07T17:00:00 25.22025 48.00641
2024-06-07T18:00:00 23.85025 52.88438
2024-06-07T19:00:00 23.03025 45.1838
2024-06-07T20:00:00 20.70025 54.33314
2024-06-07T21:00:00 18.32025 66.57169
2024-06-07T22:00:00 17.90025 69.96129
2024-06-07T23:00:00 16.84025 76.37772
2024-06-08T00:00:00 16.10025 81.56712
2024-06-08T01:00:00 15.06025 86.98595
2024-06-08T02:00:00 14.63025 89.26532
2024-06-08T03:00:00 14.31025 91.31944
2024-06-08T04:00:00 14.27025 92.03996
2024-06-08T05:00:00 15.74025 88.77397
2024-06-08T06:00:00 17.56025 78.98373
2024-06-08T07:00:00 19.66025 71.31619
2024-06-08T08:00:00 21.40025 67.5626
2024-06-08T09:00:00 22.78025 65.40938
2024-06-08T10:00:00 23.22025 64.95958
2024-06-08T11:00:00 22.37025 67.02364
2024-06-08T12:00:00 22.46025 71.87376
2024-06-08T13:00:00 21.44025 79.12876
2024-06-08T14:00:00 21.28025 80.72544
2024-06-08T15:00:00 21.47025 81.87834
2024-06-08T16:00:00 21.44025 83.75134
2024-06-08T17:00:00 20.88025 86.15138
2024-06-08T18:00:00 19.83025 89.43761
2024-06-08T19:00:00 19.00025 91.20972
2024-06-08T20:00:00 18.43024 92.69448
2024-06-08T21:00:00 17.92025 97.3189
2024-06-08T22:00:00 17.97025 97.69051
2024-06-08T23:00:00 18.04025 95.97295
2024-06-09T00:00:00 17.46025 98.36832
2024-06-09T01:00:00 17.42025 98.24292
2024-06-09T02:00:00 17.49025 98.36863
2024-06-09T03:00:00 17.16025 97.61579
2024-06-09T04:00:00 17.22025 96.68748
2024-06-09T05:00:00 17.05025 95.02812
2024-06-09T06:00:00 17.11025 91.97253
2024-06-09T07:00:00 17.19025 90.22016
2024-06-09T08:00:00 17.81025 87.58212
2024-06-09T09:00:00 18.48025 83.36375
2024-06-09T10:00:00 19.83025 74.99329
2024-06-09T11:00:00 20.16025 74.75858
2024-06-09T12:00:00 20.19025 73.85416
2024-06-09T13:00:00 20.28025 73.34779
2024-06-09T14:00:00 20.50025 73.48058
2024-06-09T15:00:00 20.54025 72.96909
2024-06-09T16:00:00 19.88025 77.80356
2024-06-09T17:00:00 19.49025 80.28427
2024-06-09T18:00:00 18.70025 82.00669
2024-06-09T19:00:00 17.79025 85.73903
2024-06-09T20:00:00 16.84025 90.48659
2024-06-09T21:00:00 16.42025 91.39832
2024-06-09T22:00:00 16.28025 91.09403
2024-06-09T23:00:00 16.16025 89.91194
2024-06-10T00:00:00 15.94025 86.73001
2024-06-10T01:00:00 15.37025 84.98257
2024-06-10T02:00:00 14.70025 85.18938
2024-06-10T03:00:00 13.96025 84.88141
2024-06-10T04:00:00 13.39025 85.2142
2024-06-10T05:00:00 13.72025 84.06572
2024-06-10T06:00:00 15.07025 77.47019
2024-06-10T07:00:00 16.60025 68.3206
2024-06-10T08:00:00 17.97025 62.12436
2024-06-10T09:00:00 19.02025 57.2999
2024-06-10T10:00:00 20.00025 52.04617
2024-06-10T11:00:00 20.58025 49.46597
2024-06-10T12:00:00 21.11025 47.38879
2024-06-10T13:00:00 21.62025 45.6141
2024-06-10T14:00:00 21.77025 46.05859
2024-06-10T15:00:00 21.77025 45.87247
2024-06-10T16:00:00 21.32025 48.18819
2024-06-10T17:00:00 20.47025 49.46927
2024-06-10T18:00:00 19.54025 51.53803
2024-06-10T19:00:00 18.30025 57.54361
2024-06-10T20:00:00 17.24025 60.95862
2024-06-10T21:00:00 15.88025 65.9111
2024-06-10T22:00:00 14.61025 71.30002
2024-06-10T23:00:00 13.68025 73.92624
2024-06-11T00:00:00 12.98025 76.14504
2024-06-11T01:00:00 12.32025 78.50736
2024-06-11T02:00:00 11.71025 81.29812
2024-06-11T03:00:00 11.29025 81.79563
2024-06-11T04:00:00 10.91025 83.66545
2024-06-11T05:00:00 10.98025 81.80882
2024-06-11T06:00:00 11.71025 77.55776
2024-06-11T07:00:00 12.50025 73.05691
2024-06-11T08:00:00 13.51025 67.48312
2024-06-11T09:00:00 14.40025 62.03757
2024-06-11T10:00:00 15.50025 57.30096
2024-06-11T11:00:00 16.41025 54.08706
2024-06-11T12:00:00 16.61025 53.62123
2024-06-11T13:00:00 17.22025 51.50617
2024-06-11T14:00:00 17.18024 51.77976
2024-06-11T15:00:00 17.10025 54.30779
2024-06-11T16:00:00 16.81025 56.97109
2024-06-11T17:00:00 16.15025 60.61303
2024-06-11T18:00:00 15.44025 68.35519
2024-06-11T19:00:00 13.86025 74.91541
2024-06-11T20:00:00 12.53025 79.55933
2024-06-11T21:00:00 12.50025 81.7942
2024-06-11T22:00:00 12.01025 82.5072
2024-06-11T23:00:00 11.41025 84.64328
2024-06-12T00:00:00 10.86025 85.15636
2024-06-12T01:00:00 10.19025 86.78378
2024-06-12T02:00:00 9.530245 87.9731
2024-06-12T03:00:00 9.160245 89.21558
2024-06-12T04:00:00 8.760245 89.6723
2024-06-12T05:00:00 9.780245 88.23895
2024-06-12T06:00:00 11.99025 83.74327
2024-06-12T07:00:00 14.28025 69.99018
2024-06-12T08:00:00 15.96025 59.62318
2024-06-12T09:00:00 16.78025 52.96958
2024-06-12T10:00:00 17.37025 49.11703
2024-06-12T11:00:00 17.94025 46.75582
2024-06-12T12:00:00 18.28025 44.35534
2024-06-12T13:00:00 18.76024 41.73608
2024-06-12T14:00:00 19.24025 40.66854
2024-06-12T15:00:00 19.40025 40.29166
2024-06-12T16:00:00 18.90025 42.7182
2024-06-12T17:00:00 18.32025 45.26944
2024-06-12T18:00:00 17.33025 48.80079
2024-06-12T19:00:00 15.84025 53.82263
2024-06-12T20:00:00 14.03025 62.54995
2024-06-12T21:00:00 13.08025 68.84213
2024-06-12T22:00:00 11.80025 73.88467
2024-06-12T23:00:00 11.55025 76.58021
2024-06-13T00:00:00 11.69025 73.3572
2024-06-13T01:00:00 10.49025 80.5139
2024-06-13T02:00:00 9.800245 84.74036
2024-06-13T03:00:00 10.31025 79.98954
2024-06-13T04:00:00 9.830245 81.98748
2024-06-13T05:00:00 10.66025 79.87715
2024-06-13T06:00:00 12.48025 73.10322
2024-06-13T07:00:00 14.36025 67.02301
2024-06-13T08:00:00 15.95025 61.85705
2024-06-13T09:00:00 16.99025 56.09111
2024-06-13T10:00:00 18.27025 47.01161
2024-06-13T11:00:00 18.91025 43.924
2024-06-13T12:00:00 19.53025 40.24538
2024-06-13T13:00:00 20.29025 38.54593
2024-06-13T14:00:00 20.95025 36.77064
2024-06-13T15:00:00 21.15025 36.34476
2024-06-13T16:00:00 21.41025 36.87919
2024-06-13T17:00:00 20.76024 42.46067
2024-06-13T18:00:00 19.14025 51.95617
2024-06-13T19:00:00 16.13025 65.3018
2024-06-13T20:00:00 14.32025 69.71364
2024-06-13T21:00:00 12.46025 77.36307
2024-06-13T22:00:00 12.01025 83.57588
2024-06-13T23:00:00 11.09025 89.62769
2024-06-14T00:00:00 11.79025 88.84555
2024-06-14T01:00:00 12.10025 86.68932
2024-06-14T02:00:00 12.35025 86.77342
2024-06-14T03:00:00 12.38025 87.1854
2024-06-14T04:00:00 12.73025 88.45403
2024-06-14T05:00:00 13.31025 87.80191
2024-06-14T06:00:00 13.86025 85.9496
2024-06-14T07:00:00 14.15025 86.03725
2024-06-14T08:00:00 14.67025 84.34489
2024-06-14T09:00:00 15.91025 80.42169
2024-06-14T10:00:00 17.96025 71.55901
2024-06-14T11:00:00 18.85025 67.70224
2024-06-14T12:00:00 19.07025 66.16155
2024-06-14T13:00:00 18.89025 68.15732
2024-06-14T14:00:00 19.60025 67.28119
2024-06-14T15:00:00 20.70025 63.24741
2024-06-14T16:00:00 20.63025 63.6886
2024-06-14T17:00:00 20.82025 62.04384
2024-06-14T18:00:00 19.65025 66.37193
2024-06-14T19:00:00 18.51024 73.03532
2024-06-14T20:00:00 17.58025 77.86024
2024-06-14T21:00:00 17.17025 82.99322
2024-06-14T22:00:00 16.51025 88.95299
2024-06-14T23:00:00 15.64025 91.64552
2024-06-15T00:00:00 15.14025 94.52477
2024-06-15T01:00:00 14.57025 97.06184
2024-06-15T02:00:00 14.64025 96.93723
2024-06-15T03:00:00 14.59025 95.49347
2024-06-15T04:00:00 14.16025 91.42959
2024-06-15T05:00:00 13.86025 90.6284
2024-06-15T06:00:00 14.29025 88.18368
2024-06-15T07:00:00 15.11025 83.23345
2024-06-15T08:00:00 16.08025 73.03005
2024-06-15T09:00:00 17.11025 63.05885
2024-06-15T10:00:00 17.93024 58.86385
2024-06-15T11:00:00 18.79025 56.21158
2024-06-15T12:00:00 19.32025 54.44823
2024-06-15T13:00:00 19.68024 54.57861
2024-06-15T14:00:00 19.84025 53.92815
2024-06-15T15:00:00 19.67025 54.50275
2024-06-15T16:00:00 19.60025 54.7046
2024-06-15T17:00:00 19.11025 54.87224
2024-06-15T18:00:00 18.39025 57.52746
2024-06-15T19:00:00 16.67025 67.20122
2024-06-15T20:00:00 15.23025 72.14376
2024-06-15T21:00:00 13.97025 80.30856
2024-06-15T22:00:00 13.92025 82.86495
2024-06-15T23:00:00 13.58025 85.40604
2024-06-16T00:00:00 13.63025 87.30821
2024-06-16T01:00:00 13.54025 88.05721
2024-06-16T02:00:00 12.92025 89.53948
2024-06-16T03:00:00 13.12025 88.84341
2024-06-16T04:00:00 12.97025 89.12693
2024-06-16T05:00:00 13.87025 87.27348
2024-06-16T06:00:00 15.00025 79.49765
2024-06-16T07:00:00 16.07025 70.96198
2024-06-16T08:00:00 17.29025 63.86752
2024-06-16T09:00:00 18.52025 58.93008
2024-06-16T10:00:00 19.80025 55.68116
2024-06-16T11:00:00 21.05025 55.29804
2024-06-16T12:00:00 21.95025 51.97318
2024-06-16T13:00:00 22.42025 49.30478
2024-06-16T14:00:00 22.44025 49.24457
2024-06-16T15:00:00 21.58025 52.36087
2024-06-16T16:00:00 21.05025 56.44574
2024-06-16T17:00:00 20.63025 59.87596
2024-06-16T18:00:00 19.73025 65.95497
2024-06-16T19:00:00 18.57025 75.27126
2024-06-16T20:00:00 17.50025 79.1298
2024-06-16T21:00:00 16.31025 86.70945
2024-06-16T22:00:00 15.93025 91.42613
2024-06-16T23:00:00 15.61025 92.78244
2024-06-17T00:00:00 15.31025 92.64516
2024-06-17T01:00:00 15.64025 91.76478
2024-06-17T02:00:00 15.79025 91.7741
2024-06-17T03:00:00 15.86025 92.01701
2024-06-17T04:00:00 15.86025 92.19628
2024-06-17T05:00:00 16.53025 91.93814
2024-06-17T06:00:00 18.03025 85.59795
2024-06-17T07:00:00 19.42025 75.90064
2024-06-17T08:00:00 20.42025 71.54948
2024-06-17T09:00:00 20.78025 69.56579
2024-06-17T10:00:00 20.95025 69.19533
2024-06-17T11:00:00 20.67025 70.22228
2024-06-17T12:00:00 19.34025 78.27564
2024-06-17T13:00:00 19.82025 76.94918
2024-06-17T14:00:00 20.20025 75.24779
2024-06-17T15:00:00 20.32025 74.21011
2024-06-17T16:00:00 19.78025 75.61652
2024-06-17T17:00:00 19.86025 76.85645
2024-06-17T18:00:00 19.54025 79.21621
2024-06-17T19:00:00 18.37025 83.24365
2024-06-17T20:00:00 17.22025 87.86908
2024-06-17T21:00:00 16.64025 90.88267
2024-06-17T22:00:00 15.37025 93.98355
2024-06-17T23:00:00 15.19025 93.36546
2024-06-18T00:00:00 14.77025 95.37553
2024-06-18T01:00:00 14.33025 96.29869
2024-06-18T02:00:00 14.18025 95.79156
2024-06-18T03:00:00 13.93025 95.78296
2024-06-18T04:00:00 13.53025 95.58016
2024-06-18T05:00:00 15.02025 92.62877
2024-06-18T06:00:00 17.60025 85.22282
2024-06-18T07:00:00 20.05025 77.2321
2024-06-18T08:00:00 22.21025 71.64612
2024-06-18T09:00:00 24.17025 65.78392
2024-06-18T10:00:00 25.27025 61.42262
2024-06-18T11:00:00 26.64025 58.10433
2024-06-18T12:00:00 27.63025 53.87925
2024-06-18T13:00:00 28.24025 50.36084
2024-06-18T14:00:00 29.13025 48.58004
2024-06-18T15:00:00 29.74025 44.27677
2024-06-18T16:00:00 29.24025 41.46481
2024-06-18T17:00:00 27.96025 55.72661
2024-06-18T18:00:00 26.02025 57.99423
2024-06-18T19:00:00 23.25025 69.50574
2024-06-18T20:00:00 22.47025 66.74372
2024-06-18T21:00:00 20.02025 79.13162
2024-06-18T22:00:00 19.91025 84.81199
2024-06-18T23:00:00 19.53025 87.3989
2024-06-19T00:00:00 20.51024 84.07313
2024-06-19T01:00:00 20.38025 84.64648
2024-06-19T02:00:00 19.15025 88.31515
2024-06-19T03:00:00 17.78025 92.71965
2024-06-19T04:00:00 17.31025 94.25091
2024-06-19T05:00:00 18.47025 90.25238
2024-06-19T06:00:00 20.01024 83.64552
2024-06-19T07:00:00 21.81025 75.03006
2024-06-19T08:00:00 23.47025 70.47815
2024-06-19T09:00:00 24.66025 67.4419
2024-06-19T10:00:00 25.37025 67.83685
2024-06-19T11:00:00 26.94025 62.73033
2024-06-19T12:00:00 28.80025 55.02641
2024-06-19T13:00:00 28.62025 54.81005
2024-06-19T14:00:00 28.24025 56.99797
2024-06-19T15:00:00 27.84025 57.8395
2024-06-19T16:00:00 27.06025 61.2436
2024-06-19T17:00:00 26.25025 62.0704
2024-06-19T18:00:00 24.44025 67.52594
2024-06-19T19:00:00 22.67025 76.12312
2024-06-19T20:00:00 20.96025 82.17909
2024-06-19T21:00:00 19.78025 85.93707
2024-06-19T22:00:00 19.13025 88.70725
2024-06-19T23:00:00 18.18024 90.63641
2024-06-20T00:00:00 17.77025 90.95757
2024-06-20T01:00:00 17.82025 91.48597
2024-06-20T02:00:00 17.73025 91.65621
2024-06-20T03:00:00 17.58025 91.76464
2024-06-20T04:00:00 17.50025 92.23134
2024-06-20T05:00:00 17.81025 91.48539
2024-06-20T06:00:00 18.46025 89.22152
2024-06-20T07:00:00 19.17025 86.75742
2024-06-20T08:00:00 20.33025 83.94701
2024-06-20T09:00:00 21.22025 82.83506
2024-06-20T10:00:00 21.31025 83.78977
2024-06-20T11:00:00 22.07025 81.28503
2024-06-20T12:00:00 22.79025 78.52268
2024-06-20T13:00:00 24.96025 69.52217
2024-06-20T14:00:00 25.53025 66.85566
2024-06-20T15:00:00 25.60025 67.92423
2024-06-20T16:00:00 26.37025 66.68972
2024-06-20T17:00:00 24.76024 72.59569
2024-06-20T18:00:00 23.63025 77.2784
2024-06-20T19:00:00 22.52025 80.37885
2024-06-20T20:00:00 22.12025 79.77308
2024-06-20T21:00:00 19.90025 87.59735
2024-06-20T22:00:00 19.00025 88.64053
2024-06-20T23:00:00 17.99025 91.9062
2024-06-21T00:00:00 18.23025 92.38959
2024-06-21T01:00:00 17.69025 93.60738
2024-06-21T02:00:00 17.28025 94.9757
2024-06-21T03:00:00 16.61025 94.34257
2024-06-21T04:00:00 17.24025 93.82655
2024-06-21T05:00:00 18.01024 92.25984
2024-06-21T06:00:00 18.15025 91.15657
2024-06-21T07:00:00 18.22025 89.88985
2024-06-21T08:00:00 18.53025 92.40578
2024-06-21T09:00:00 20.13025 88.06066
2024-06-21T10:00:00 22.27025 76.44647
2024-06-21T11:00:00 23.83025 68.0052
2024-06-21T12:00:00 23.37025 70.01492
2024-06-21T13:00:00 22.13025 74.22955
2024-06-21T14:00:00 21.94025 78.20457
2024-06-21T15:00:00 20.68024 80.95541
2024-06-21T16:00:00 19.52025 80.59778
2024-06-21T17:00:00 18.98025 82.72908
2024-06-21T18:00:00 18.85025 84.53714
2024-06-21T19:00:00 18.33025 84.9709
2024-06-21T20:00:00 17.64025 86.78079
2024-06-21T21:00:00 17.15025 88.88983
2024-06-21T22:00:00 16.69025 92.54218
2024-06-21T23:00:00 16.14025 92.87131
2024-06-22T00:00:00 15.40025 93.86289
2024-06-22T01:00:00 14.56025 95.24339
2024-06-22T02:00:00 14.37025 95.29846
2024-06-22T03:00:00 14.45025 95.36375
2024-06-22T04:00:00 14.73025 95.12569
2024-06-22T05:00:00 16.02025 92.08626
2024-06-22T06:00:00 17.09025 88.37001
2024-06-22T07:00:00 17.64025 85.72377
2024-06-22T08:00:00 17.11025 87.68922
2024-06-22T09:00:00 16.32025 90.56728
2024-06-22T10:00:00 16.02025 90.31126
2024-06-22T11:00:00 16.00025 93.22517
2024-06-22T12:00:00 15.76025 94.00143
2024-06-22T13:00:00 15.29025 88.9106
2024-06-22T14:00:00 15.44025 87.07973
2024-06-22T15:00:00 16.03025 84.27882
2024-06-22T16:00:00 16.50025 82.31735
2024-06-22T17:00:00 16.96025 80.83017
2024-06-22T18:00:00 17.17025 80.75296
2024-06-22T19:00:00 15.95025 87.92778
2024-06-22T20:00:00 15.17025 91.25742
2024-06-22T21:00:00 15.06025 91.90828
2024-06-22T22:00:00 14.70025 90.3327
2024-06-22T23:00:00 13.85025 95.78017
2024-06-23T00:00:00 13.67025 97.10336
2024-06-23T01:00:00 13.49025 97.09887
2024-06-23T02:00:00 13.70025 96.78619
2024-06-23T03:00:00 13.56025 95.83304
2024-06-23T04:00:00 13.78025 95.02588
2024-06-23T05:00:00 14.35025 92.95548
2024-06-23T06:00:00 15.33025 89.90784
2024-06-23T07:00:00 16.36025 83.76702
2024-06-23T08:00:00 17.52025 79.08107
2024-06-23T09:00:00 18.39025 72.63241
2024-06-23T10:00:00 18.88025 71.96529
2024-06-23T11:00:00 19.56025 69.01127
2024-06-23T12:00:00 19.89025 69.66382
2024-06-23T13:00:00 20.26024 69.91686
2024-06-23T14:00:00 20.78025 67.39252
2024-06-23T15:00:00 20.89025 67.54627
2024-06-23T16:00:00 20.77025 70.55947
2024-06-23T17:00:00 20.79025 69.88313
2024-06-23T18:00:00 20.25025 73.72177
2024-06-23T19:00:00 19.14025 78.34721
2024-06-23T20:00:00 17.74025 84.52496
2024-06-23T21:00:00 16.66025 89.94916
2024-06-23T22:00:00 16.33025 91.92614
2024-06-23T23:00:00 16.07025 92.80749
2024-06-24T00:00:00 16.04025 92.26661
2024-06-24T01:00:00 15.41025 93.31599
2024-06-24T02:00:00 14.96025 93.65861
2024-06-24T03:00:00 14.86025 92.92272
2024-06-24T04:00:00 14.75025 92.97746
2024-06-24T05:00:00 16.54025 89.12853
2024-06-24T06:00:00 18.29025 83.77226
2024-06-24T07:00:00 20.09025 78.7878
2024-06-24T08:00:00 21.99025 73.64222
2024-06-24T09:00:00 23.59025 67.39911
2024-06-24T10:00:00 24.79025 61.70603
2024-06-24T11:00:00 25.74025 56.90225
2024-06-24T12:00:00 26.55025 54.05554
2024-06-24T13:00:00 26.97025 53.10088
2024-06-24T14:00:00 27.15025 52.70766
2024-06-24T15:00:00 27.41025 51.44456
2024-06-24T16:00:00 27.16025 51.94177
2024-06-24T17:00:00 26.73025 53.41428
2024-06-24T18:00:00 25.44025 57.96693
2024-06-24T19:00:00 23.44025 65.46458
2024-06-24T20:00:00 21.35025 72.97066
2024-06-24T21:00:00 19.97025 78.06696
2024-06-24T22:00:00 18.54025 81.93386
2024-06-24T23:00:00 17.69025 84.95751
2024-06-25T00:00:00 17.03025 86.72264
2024-06-25T01:00:00 16.84025 87.32492
2024-06-25T02:00:00 16.13025 89.38559
2024-06-25T03:00:00 16.11025 89.9666
2024-06-25T04:00:00 15.69025 91.11384
2024-06-25T05:00:00 17.07025 88.25421
2024-06-25T06:00:00 19.53025 78.30357
2024-06-25T07:00:00 21.58025 71.16617
2024-06-25T08:00:00 23.16025 65.9517
2024-06-25T09:00:00 24.39025 62.68649
2024-06-25T10:00:00 25.61025 60.57088
2024-06-25T11:00:00 26.81025 57.15994
2024-06-25T12:00:00 27.76024 54.80592
2024-06-25T13:00:00 28.31025 54.63067
2024-06-25T14:00:00 28.80025 53.56024
2024-06-25T15:00:00 28.42025 55.59328
2024-06-25T16:00:00 28.32025 54.66752
2024-06-25T17:00:00 27.33025 58.34017
2024-06-25T18:00:00 25.40025 64.27351
2024-06-25T19:00:00 23.70025 71.77683
2024-06-25T20:00:00 21.93024 80.40319
2024-06-25T21:00:00 20.81025 83.1021
2024-06-25T22:00:00 19.79025 83.408
2024-06-25T23:00:00 18.57025 86.25851
2024-06-26T00:00:00 17.36025 90.93068
2024-06-26T01:00:00 17.02025 90.73265
2024-06-26T02:00:00 16.98025 91.02262
2024-06-26T03:00:00 16.64025 93.98048
2024-06-26T04:00:00 16.77025 94.95696
2024-06-26T05:00:00 17.49025 93.2994
2024-06-26T06:00:00 19.39025 88.67158
2024-06-26T07:00:00 21.10025 85.52483
2024-06-26T08:00:00 22.45025 80.11816
2024-06-26T09:00:00 23.50025 77.6465
2024-06-26T10:00:00 24.09025 77.10542
2024-06-26T11:00:00 24.07025 77.53555
2024-06-26T12:00:00 23.89025 76.45345
2024-06-26T13:00:00 24.36025 73.57758
2024-06-26T14:00:00 24.18024 72.04247
2024-06-26T15:00:00 24.61025 67.26212
2024-06-26T16:00:00 24.89025 66.60105
2024-06-26T17:00:00 24.45025 70.34843
2024-06-26T18:00:00 23.37025 72.76642
2024-06-26T19:00:00 21.79025 81.66003
2024-06-26T20:00:00 20.06025 85.42139
2024-06-26T21:00:00 19.48025 87.2282
2024-06-26T22:00:00 18.48025 91.7009
2024-06-26T23:00:00 18.17025 92.68093
2024-06-27T00:00:00 17.90025 93.37867
2024-06-27T01:00:00 17.50025 94.37928
2024-06-27T02:00:00 17.71025 94.56842
2024-06-27T03:00:00 18.02025 93.62249
2024-06-27T04:00:00 18.13025 93.62748
2024-06-27T05:00:00 18.82025 91.25648
2024-06-27T06:00:00 21.18024 85.05029
2024-06-27T07:00:00 23.23025 77.99684
2024-06-27T08:00:00 24.81025 73.83611
2024-06-27T09:00:00 26.01024 71.86902
2024-06-27T10:00:00 27.08025 69.52788
2024-06-27T11:00:00 27.73025 65.16388
2024-06-27T12:00:00 28.31025 61.13993
2024-06-27T13:00:00 28.24025 57.96975
2024-06-27T14:00:00 28.57025 55.87437
2024-06-27T15:00:00 29.35025 51.74406
2024-06-27T16:00:00 29.72025 50.01248
2024-06-27T17:00:00 28.98025 51.5849
2024-06-27T18:00:00 27.65025 58.04944
2024-06-27T19:00:00 24.69025 71.59263
2024-06-27T20:00:00 23.19025 77.94232
2024-06-27T21:00:00 22.47025 81.64066
2024-06-27T22:00:00 21.15025 83.45607
2024-06-27T23:00:00 20.53025 88.14893
2024-06-28T00:00:00 19.76024 92.87856
2024-06-28T01:00:00 19.28025 94.86603
2024-06-28T02:00:00 19.04025 95.27716
2024-06-28T03:00:00 19.06025 94.61943
2024-06-28T04:00:00 18.87025 95.87461
2024-06-28T05:00:00 19.69025 93.63734
2024-06-28T06:00:00 21.51024 88.17268
2024-06-28T07:00:00 23.41025 79.34842
2024-06-28T08:00:00 25.34025 72.33443
2024-06-28T09:00:00 26.60025 67.27715
2024-06-28T10:00:00 27.93024 63.13948
2024-06-28T11:00:00 29.06025 60.70255
2024-06-28T12:00:00 28.50025 64.40265
2024-06-28T13:00:00 28.41025 64.782
2024-06-28T14:00:00 28.47025 63.48934
2024-06-28T15:00:00 28.56025 63.82246
2024-06-28T16:00:00 28.25025 64.66924
2024-06-28T17:00:00 28.58025 63.00507
2024-06-28T18:00:00 27.12025 68.72502
2024-06-28T19:00:00 24.79025 81.9678
2024-06-28T20:00:00 23.25025 85.04525
2024-06-28T21:00:00 22.43024 87.4283
2024-06-28T22:00:00 21.53025 91.53098
2024-06-28T23:00:00 21.00025 92.76428
2024-06-29T00:00:00 20.45025 94.61
2024-06-29T01:00:00 19.71025 94.99987
2024-06-29T02:00:00 19.26024 94.92509
2024-06-29T03:00:00 18.86025 94.85134
2024-06-29T04:00:00 19.05025 93.60934
2024-06-29T05:00:00 19.70025 91.42526
2024-06-29T06:00:00 21.45025 85.98917
2024-06-29T07:00:00 23.37025 80.48824
2024-06-29T08:00:00 25.48025 75.05216
2024-06-29T09:00:00 27.25025 70.63736
2024-06-29T10:00:00 28.43024 66.93156
2024-06-29T11:00:00 29.53025 64.18169
2024-06-29T12:00:00 30.06025 63.00968
2024-06-29T13:00:00 29.89025 66.6863
2024-06-29T14:00:00 28.28025 71.29649
2024-06-29T15:00:00 28.68024 71.66975
2024-06-29T16:00:00 28.19025 73.34907
2024-06-29T17:00:00 26.24025 75.07855
2024-06-29T18:00:00 25.91025 78.32431
2024-06-29T19:00:00 24.94025 75.80862
2024-06-29T20:00:00 21.97025 86.57655
2024-06-29T21:00:00 21.97025 85.07665
2024-06-29T22:00:00 21.61025 87.30442
2024-06-29T23:00:00 20.17025 92.84019
2024-06-30T00:00:00 19.68024 88.75062
2024-06-30T01:00:00 19.06025 91.38693
2024-06-30T02:00:00 19.17025 89.90063
2024-06-30T03:00:00 19.27025 86.71149
2024-06-30T04:00:00 19.08025 87.47046
2024-06-30T05:00:00 19.41025 88.16843
2024-06-30T06:00:00 20.06025 84.39819
2024-06-30T07:00:00 20.90025 80.52279
2024-06-30T08:00:00 21.33025 78.41438
2024-06-30T09:00:00 21.46025 77.29717
2024-06-30T10:00:00 21.10025 75.73177
2024-06-30T11:00:00 20.38025 78.77882
2024-06-30T12:00:00 19.44025 83.74139
2024-06-30T13:00:00 19.18024 84.03389
2024-06-30T14:00:00 19.21025 83.28809
2024-06-30T15:00:00 18.90025 82.66641
2024-06-30T16:00:00 18.51024 82.67256
2024-06-30T17:00:00 17.87025 84.70306
2024-06-30T18:00:00 17.47025 85.31941
2024-06-30T19:00:00 17.10025 86.00223
2024-06-30T20:00:00 16.56025 88.55434
2024-06-30T21:00:00 16.27025 90.27074
2024-06-30T22:00:00 16.11025 92.15125
2024-06-30T23:00:00 15.75025 93.39384
2024-07-01T00:00:00 15.53025 94.35748
2024-07-01T01:00:00 15.23025 94.2831
2024-07-01T02:00:00 15.13025 92.8164
2024-07-01T03:00:00 14.97025 92.38429
2024-07-01T04:00:00 14.52025 95.1797
2024-07-01T05:00:00 15.40025 92.28913
2024-07-01T06:00:00 16.90025 86.54163
2024-07-01T07:00:00 18.24025 81.57917
2024-07-01T08:00:00 19.48025 75.42134
2024-07-01T09:00:00 20.72025 67.38023
2024-07-01T10:00:00 21.50025 62.36157
2024-07-01T11:00:00 22.40025 59.59275
2024-07-01T12:00:00 22.67025 55.96405
2024-07-01T13:00:00 22.61025 54.14319
2024-07-01T14:00:00 21.84025 58.41814
2024-07-01T15:00:00 20.38025 68.54732
2024-07-01T16:00:00 19.46025 75.51564
2024-07-01T17:00:00 19.74025 74.2553
2024-07-01T18:00:00 19.39025 74.43645
2024-07-01T19:00:00 18.19025 80.41946
2024-07-01T20:00:00 16.66025 86.46199
2024-07-01T21:00:00 16.13025 87.65788
2024-07-01T22:00:00 15.70025 88.07784
2024-07-01T23:00:00 15.41025 88.57228
2024-07-02T00:00:00 15.54025 86.63405
2024-07-02T01:00:00 15.01025 88.36375
2024-07-02T02:00:00 14.64025 86.65865
2024-07-02T03:00:00 14.93025 84.31913
2024-07-02T04:00:00 14.13025 85.69339
2024-07-02T05:00:00 14.39025 85.21168
2024-07-02T06:00:00 15.61025 80.8593
2024-07-02T07:00:00 17.20025 73.23299
2024-07-02T08:00:00 18.18024 64.15395
2024-07-02T09:00:00 18.66025 59.9198
2024-07-02T10:00:00 18.84025 59.92324
2024-07-02T11:00:00 19.16025 58.10794
2024-07-02T12:00:00 19.10025 58.24876
2024-07-02T13:00:00 18.89025 59.9353
2024-07-02T14:00:00 18.11025 66.08695
2024-07-02T15:00:00 16.98025 73.97161
2024-07-02T16:00:00 15.86025 84.53615
2024-07-02T17:00:00 15.30025 89.37804
2024-07-02T18:00:00 14.99025 90.70969
2024-07-02T19:00:00 14.69025 92.24694
2024-07-02T20:00:00 14.36025 94.61485
2024-07-02T21:00:00 14.18025 94.66911
2024-07-02T22:00:00 14.04025 95.22347
2024-07-02T23:00:00 14.01025 94.91056
2024-07-03T00:00:00 13.98025 95.22115
2024-07-03T01:00:00 14.07025 95.47456
2024-07-03T02:00:00 14.11025 95.6638
2024-07-03T03:00:00 14.07025 95.91331
2024-07-03T04:00:00 14.02025 96.16325
2024-07-03T05:00:00 14.27025 96.04548
2024-07-03T06:00:00 14.98025 91.66333
2024-07-03T07:00:00 15.64025 88.59189
2024-07-03T08:00:00 16.25025 84.02859
2024-07-03T09:00:00 16.92025 78.83841
2024-07-03T10:00:00 17.52025 78.2081
2024-07-03T11:00:00 17.63025 77.05776
2024-07-03T12:00:00 17.61025 78.52857
2024-07-03T13:00:00 16.32025 87.04982
2024-07-03T14:00:00 16.21025 89.21789
2024-07-03T15:00:00 16.30025 88.01608
2024-07-03T16:00:00 16.27025 85.58218
2024-07-03T17:00:00 16.36025 83.05768
2024-07-03T18:00:00 15.87025 84.31583
2024-07-03T19:00:00 15.42025 86.45187
2024-07-03T20:00:00 14.78025 88.4017
2024-07-03T21:00:00 14.53025 89.31591
2024-07-03T22:00:00 14.00025 90.93801
2024-07-03T23:00:00 13.77025 91.4034
2024-07-04T00:00:00 13.57025 92.17849
2024-07-04T01:00:00 13.48025 92.53915
2024-07-04T02:00:00 13.30025 92.46719
2024-07-04T03:00:00 13.48025 91.80795
2024-07-04T04:00:00 14.01025 90.04315
2024-07-04T05:00:00 14.86025 87.59849
2024-07-04T06:00:00 16.09025 83.73541
2024-07-04T07:00:00 17.10025 79.07174
2024-07-04T08:00:00 17.94025 73.94518
2024-07-04T09:00:00 18.22025 74.13931
2024-07-04T10:00:00 19.36025 71.63249
2024-07-04T11:00:00 19.74025 71.23846
2024-07-04T12:00:00 20.08025 68.71061
2024-07-04T13:00:00 20.65025 64.44688
2024-07-04T14:00:00 21.23025 59.08027
2024-07-04T15:00:00 21.41025 60.29786
2024-07-04T16:00:00 20.87025 63.28551
2024-07-04T17:00:00 20.48025 65.89906
2024-07-04T18:00:00 19.90025 69.07862
2024-07-04T19:00:00 18.94025 73.06433
2024-07-04T20:00:00 17.64025 78.94388
2024-07-04T21:00:00 16.42025 82.5231
2024-07-04T22:00:00 15.25025 89.72554
2024-07-04T23:00:00 14.85025 90.5216
2024-07-05T00:00:00 14.37025 91.20351
2024-07-05T01:00:00 13.78025 92.61799
2024-07-05T02:00:00 13.16025 94.00131
2024-07-05T03:00:00 13.08025 94.30878
2024-07-05T04:00:00 12.89025 94.29981
2024-07-05T05:00:00 14.38025 91.62463
2024-07-05T06:00:00 16.88025 81.88264
2024-07-05T07:00:00 18.77025 71.2892
2024-07-05T08:00:00 20.30025 64.11754
2024-07-05T09:00:00 21.35025 58.91537
2024-07-05T10:00:00 22.34025 52.6302
2024-07-05T11:00:00 23.02025 51.87746
2024-07-05T12:00:00 23.76024 50.45663
2024-07-05T13:00:00 24.41025 49.12546
2024-07-05T14:00:00 24.64025 48.38704
2024-07-05T15:00:00 24.84025 48.69561
2024-07-05T16:00:00 24.75025 50.35587
2024-07-05T17:00:00 24.32025 54.43691
2024-07-05T18:00:00 23.09025 62.47745
2024-07-05T19:00:00 20.45025 72.11145
2024-07-05T20:00:00 18.55025 78.87086
2024-07-05T21:00:00 17.25025 84.14272
2024-07-05T22:00:00 16.36025 85.98309
2024-07-05T23:00:00 16.00025 87.93224
2024-07-06T00:00:00 15.43025 91.15577
2024-07-06T01:00:00 15.05025 93.05444
2024-07-06T02:00:00 14.86025 94.26662
2024-07-06T03:00:00 14.95025 95.44418
2024-07-06T04:00:00 15.18025 95.88719
2024-07-06T05:00:00 16.86025 92.37306
2024-07-06T06:00:00 19.38025 84.48627
2024-07-06T07:00:00 21.88025 75.66325
2024-07-06T08:00:00 22.68024 69.13189
2024-07-06T09:00:00 22.05025 71.66287
2024-07-06T10:00:00 21.17025 74.1633
2024-07-06T11:00:00 20.36025 82.47234
2024-07-06T12:00:00 20.10025 88.11376
2024-07-06T13:00:00 19.72025 89.76914
2024-07-06T14:00:00 19.56025 89.19174
2024-07-06T15:00:00 18.76024 89.9286
2024-07-06T16:00:00 17.68024 91.41886
2024-07-06T17:00:00 17.28025 93.94857
2024-07-06T18:00:00 17.03025 92.85861
2024-07-06T19:00:00 16.47025 94.64078
2024-07-06T20:00:00 15.92025 95.91057
2024-07-06T21:00:00 15.82025 95.35144
2024-07-06T22:00:00 15.52025 93.07943
2024-07-06T23:00:00 15.00025 92.8698
2024-07-07T00:00:00 14.45025 94.49503
2024-07-07T01:00:00 14.23025 94.05291
2024-07-07T02:00:00 13.93025 94.22418
2024-07-07T03:00:00 13.43025 96.01791
2024-07-07T04:00:00 13.34025 96.20474
2024-07-07T05:00:00 13.48025 95.07623
2024-07-07T06:00:00 14.39025 93.56892
2024-07-07T07:00:00 15.48025 87.88562
2024-07-07T08:00:00 17.03025 79.37278
2024-07-07T09:00:00 18.21025 72.36204
2024-07-07T10:00:00 18.84025 67.12298
2024-07-07T11:00:00 19.63025 63.04752
2024-07-07T12:00:00 20.10025 61.10726
2024-07-07T13:00:00 20.74025 59.00083
2024-07-07T14:00:00 21.31025 57.98313
2024-07-07T15:00:00 21.49025 57.49525
2024-07-07T16:00:00 21.68024 56.71538
2024-07-07T17:00:00 21.30025 58.94202
2024-07-07T18:00:00 20.38025 63.38306
2024-07-07T19:00:00 18.30025 69.12279
2024-07-07T20:00:00 17.16025 73.95444
2024-07-07T21:00:00 16.04025 80.97116
2024-07-07T22:00:00 13.63025 91.75703
2024-07-07T23:00:00 12.33025 96.94012
2024-07-08T00:00:00 11.80025 98.02791
2024-07-08T01:00:00 11.40025 99.00506
2024-07-08T02:00:00 11.08025 99.06701
2024-07-08T03:00:00 10.81025 98.66625
2024-07-08T04:00:00 10.74025 98.13733
2024-07-08T05:00:00 12.65025 94.60175
2024-07-08T06:00:00 15.35025 88.16216
2024-07-08T07:00:00 18.21025 79.33479
2024-07-08T08:00:00 20.39025 71.35925
2024-07-08T09:00:00 22.05025 64.37545
2024-07-08T10:00:00 23.33025 59.15834
2024-07-08T11:00:00 24.38025 54.87725
2024-07-08T12:00:00 25.44025 50.17802
2024-07-08T13:00:00 26.31025 45.07589
2024-07-08T14:00:00 27.05025 41.89025
2024-07-08T15:00:00 27.38025 42.00958
2024-07-08T16:00:00 27.41025 42.21088
2024-07-08T17:00:00 27.13025 44.19325
2024-07-08T18:00:00 25.51024 52.89932
2024-07-08T19:00:00 22.33025 66.41562
2024-07-08T20:00:00 19.87025 75.33922
2024-07-08T21:00:00 18.11025 85.16658
2024-07-08T22:00:00 16.98025 90.72991
2024-07-08T23:00:00 16.37025 91.69113
2024-07-09T00:00:00 16.10025 91.49631
2024-07-09T01:00:00 15.84025 91.83682
2024-07-09T02:00:00 15.58025 92.60013
2024-07-09T03:00:00 15.31025 93.85864
2024-07-09T04:00:00 15.26025 93.12626
2024-07-09T05:00:00 16.79025 89.49495
2024-07-09T06:00:00 19.69025 80.8787
2024-07-09T07:00:00 22.32025 71.25638
2024-07-09T08:00:00 24.70025 66.43665
2024-07-09T09:00:00 26.73025 61.51653
2024-07-09T10:00:00 28.53025 55.13332
2024-07-09T11:00:00 29.76024 50.33885
2024-07-09T12:00:00 30.88025 45.06712
2024-07-09T13:00:00 31.65025 42.15126
2024-07-09T14:00:00 32.24025 40.83648
2024-07-09T15:00:00 32.52025 39.28316
2024-07-09T16:00:00 32.38025 40.17996
2024-07-09T17:00:00 31.69025 43.21737
2024-07-09T18:00:00 29.44025 53.05022
2024-07-09T19:00:00 26.12025 67.09879
2024-07-09T20:00:00 24.03025 74.40202
2024-07-09T21:00:00 23.46025 79.30571
2024-07-09T22:00:00 23.04025 80.8485
2024-07-09T23:00:00 22.74025 80.30676
2024-07-10T00:00:00 22.11025 81.29002
2024-07-10T01:00:00 21.71025 83.93865
2024-07-10T02:00:00 21.49025 84.6026
2024-07-10T03:00:00 20.84025 88.00819
2024-07-10T04:00:00 20.30025 91.11691
2024-07-10T05:00:00 20.51024 91.30105
2024-07-10T06:00:00 21.36025 89.54762
2024-07-10T07:00:00 21.43024 84.22527
2024-07-10T08:00:00 20.90025 84.80778
2024-07-10T09:00:00 21.09025 85.90096
2024-07-10T10:00:00 22.42025 86.13379
2024-07-10T11:00:00 23.72025 78.01807
2024-07-10T12:00:00 25.32025 70.0255
2024-07-10T13:00:00 26.25025 65.55129
2024-07-10T14:00:00 26.75025 62.84625
2024-07-10T15:00:00 26.29025 63.34005
2024-07-10T16:00:00 25.44025 65.92081
2024-07-10T17:00:00 24.12025 74.09166
2024-07-10T18:00:00 23.86025 77.79535
2024-07-10T19:00:00 22.66025 83.67484
2024-07-10T20:00:00 22.50025 82.67136
2024-07-10T21:00:00 22.44025 83.54664
2024-07-10T22:00:00 21.10025 89.64119
2024-07-10T23:00:00 20.37025 92.55977
2024-07-11T00:00:00 20.15025 93.30577
2024-07-11T01:00:00 19.98025 94.29759
2024-07-11T02:00:00 19.72025 95.05978
2024-07-11T03:00:00 19.53025 95.41232
2024-07-11T04:00:00 19.46025 95.05126
2024-07-11T05:00:00 19.75025 95.29942
2024-07-11T06:00:00 20.59025 91.82143
2024-07-11T07:00:00 21.58025 86.43304
2024-07-11T08:00:00 22.93024 79.2835
2024-07-11T09:00:00 24.21025 70.65877
2024-07-11T10:00:00 25.07025 73.51253
2024-07-11T11:00:00 26.02025 64.60707
2024-07-11T12:00:00 26.95025 57.51983
2024-07-11T13:00:00 27.58025 53.59405
2024-07-11T14:00:00 27.99025 52.22004
2024-07-11T15:00:00 27.72025 53.83346
2024-07-11T16:00:00 27.36025 57.29134
2024-07-11T17:00:00 27.06025 58.68222
2024-07-11T18:00:00 26.02025 62.6479
2024-07-11T19:00:00 24.10025 70.86119
2024-07-11T20:00:00 22.12025 81.4956
2024-07-11T21:00:00 20.90025 87.51742
2024-07-11T22:00:00 20.61025 89.55041
2024-07-11T23:00:00 20.12025 92.43111
2024-07-12T00:00:00 20.24025 92.61123
2024-07-12T01:00:00 20.03025 93.82816
2024-07-12T02:00:00 19.91025 94.11777
2024-07-12T03:00:00 19.71025 94.10988
2024-07-12T04:00:00 19.62025 93.92906
2024-07-12T05:00:00 19.96025 91.9595
2024-07-12T06:00:00 20.68024 88.71654
2024-07-12T07:00:00 21.77025 83.94513
2024-07-12T08:00:00 22.92025 77.95234
2024-07-12T09:00:00 23.52025 73.15981
2024-07-12T10:00:00 23.82025 71.57255
2024-07-12T11:00:00 23.84025 68.13652
2024-07-12T12:00:00 23.22025 68.57906
2024-07-12T13:00:00 23.24025 70.25722
2024-07-12T14:00:00 21.98025 74.67743
2024-07-12T15:00:00 20.93024 80.06828
2024-07-12T16:00:00 20.96025 81.9196
2024-07-12T17:00:00 20.38025 83.74
2024-07-12T18:00:00 19.93024 84.81411
2024-07-12T19:00:00 19.04025 87.52268
2024-07-12T20:00:00 18.51024 87.14082
2024-07-12T21:00:00 17.71025 87.40431
2024-07-12T22:00:00 17.12025 89.69355
2024-07-12T23:00:00 16.74025 90.24616
2024-07-13T00:00:00 16.53025 90.05605
2024-07-13T01:00:00 16.30025 90.56587
2024-07-13T02:00:00 15.97025 91.25088
2024-07-13T03:00:00 15.47025 92.35332
2024-07-13T04:00:00 15.31025 92.58487
2024-07-13T05:00:00 15.48025 92.47411
2024-07-13T06:00:00 16.49025 88.31893
2024-07-13T07:00:00 17.64025 80.08348
2024-07-13T08:00:00 18.64025 72.34579
2024-07-13T09:00:00 19.56025 66.61459
2024-07-13T10:00:00 20.31025 63.40895
2024-07-13T11:00:00 21.22025 58.76791
2024-07-13T12:00:00 21.76024 56.14082
2024-07-13T13:00:00 22.28025 54.09405
2024-07-13T14:00:00 22.58025 52.76253
2024-07-13T15:00:00 23.06025 50.60337
2024-07-13T16:00:00 22.95025 50.10771
2024-07-13T17:00:00 22.31025 51.86169
2024-07-13T18:00:00 21.52025 55.34448
2024-07-13T19:00:00 19.41025 58.59844
2024-07-13T20:00:00 17.86025 69.30907
2024-07-13T21:00:00 16.32025 79.06147
2024-07-13T22:00:00 15.15025 84.79047
2024-07-13T23:00:00 14.51025 87.45032
2024-07-14T00:00:00 14.35025 89.36008
2024-07-14T01:00:00 13.37025 92.71634
2024-07-14T02:00:00 13.37025 92.83902
2024-07-14T03:00:00 13.15025 92.82631
2024-07-14T04:00:00 12.05025 94.76354
2024-07-14T05:00:00 13.43025 92.23077
2024-07-14T06:00:00 15.92025 84.54289
2024-07-14T07:00:00 18.49025 75.89784
2024-07-14T08:00:00 20.59025 68.81191
2024-07-14T09:00:00 22.19025 62.88314
2024-07-14T10:00:00 23.44025 53.29934
2024-07-14T11:00:00 24.52025 48.83346
2024-07-14T12:00:00 25.24025 45.40551
2024-07-14T13:00:00 24.92025 44.84052
2024-07-14T14:00:00 24.81025 47.58199
2024-07-14T15:00:00 24.55025 50.83168
2024-07-14T16:00:00 23.91025 59.98637
2024-07-14T17:00:00 22.79025 68.6699
2024-07-14T18:00:00 21.97025 74.01445
2024-07-14T19:00:00 20.90025 72.28545
2024-07-14T20:00:00 19.58025 77.50887
2024-07-14T21:00:00 18.52025 82.94033
2024-07-14T22:00:00 16.54025 91.58325
2024-07-14T23:00:00 16.16025 93.71647
2024-07-15T00:00:00 15.17025 95.0807
2024-07-15T01:00:00 14.84025 95.8138
2024-07-15T02:00:00 14.78025 95.56252
2024-07-15T03:00:00 14.56025 96.05473
2024-07-15T04:00:00 14.50025 96.11552
2024-07-15T05:00:00 15.74025 93.6358
2024-07-15T06:00:00 17.61025 86.27574
2024-07-15T07:00:00 20.16025 79.25256
2024-07-15T08:00:00 22.72025 70.96763
2024-07-15T09:00:00 24.81025 65.41835
2024-07-15T10:00:00 26.54025 60.85853
2024-07-15T11:00:00 27.85025 57.19182
2024-07-15T12:00:00 29.08025 54.00128
2024-07-15T13:00:00 29.65025 51.62518
2024-07-15T14:00:00 29.50025 52.27235
2024-07-15T15:00:00 28.77025 54.53787
2024-07-15T16:00:00 27.53025 58.90246
2024-07-15T17:00:00 26.84025 65.2645
2024-07-15T18:00:00 24.91025 79.30323
2024-07-15T19:00:00 21.67025 86.98306
2024-07-15T20:00:00 20.03025 97.35333
2024-07-15T21:00:00 19.70025 96.9837
2024-07-15T22:00:00 19.42025 94.75165
2024-07-15T23:00:00 19.76024 94.11185
2024-07-16T00:00:00 19.95025 93.29675
2024-07-16T01:00:00 19.57025 93.98604
2024-07-16T02:00:00 19.23025 93.91288
2024-07-16T03:00:00 18.81025 93.71719
2024-07-16T04:00:00 18.31025 93.51673
2024-07-16T05:00:00 18.61025 92.35145
2024-07-16T06:00:00 19.22025 90.47563
2024-07-16T07:00:00 19.78025 86.15548
2024-07-16T08:00:00 20.27025 82.09547
2024-07-16T09:00:00 20.87025 77.5043
2024-07-16T10:00:00 21.69025 71.59761
2024-07-16T11:00:00 22.72025 65.69115
2024-07-16T12:00:00 23.50025 59.92924
2024-07-16T13:00:00 23.82025 57.27991
2024-07-16T14:00:00 24.09025 54.62658
2024-07-16T15:00:00 23.92025 52.72999
2024-07-16T16:00:00 23.91025 51.90635
2024-07-16T17:00:00 23.48025 52.71939
2024-07-16T18:00:00 22.70025 57.07991
2024-07-16T19:00:00 20.64025 67.62687
2024-07-16T20:00:00 18.63025 75.62489
2024-07-16T21:00:00 17.68024 78.5902
2024-07-16T22:00:00 16.78025 83.27127
2024-07-16T23:00:00 15.94025 84.82253
2024-07-17T00:00:00 15.74025 84.52264
2024-07-17T01:00:00 15.51025 85.78297
2024-07-17T02:00:00 15.60025 85.3993
2024-07-17T03:00:00 15.66025 84.95865
2024-07-17T04:00:00 15.75025 84.24683
2024-07-17T05:00:00 15.16025 90.54397
2024-07-17T06:00:00 17.48025 82.65418
2024-07-17T07:00:00 20.05025 72.83546
2024-07-17T08:00:00 21.89025 63.22487
2024-07-17T09:00:00 23.03025 59.24049
2024-07-17T10:00:00 23.78025 54.3
2024-07-17T11:00:00 24.40025 52.61375
2024-07-17T12:00:00 24.85025 50.2182
2024-07-17T13:00:00 25.41025 48.8803
2024-07-17T14:00:00 25.52025 47.06088
2024-07-17T15:00:00 25.70025 46.98666
2024-07-17T16:00:00 25.59025 48.73755
2024-07-17T17:00:00 25.01024 51.45218
2024-07-17T18:00:00 23.61025 57.22868
2024-07-17T19:00:00 21.22025 66.356
2024-07-17T20:00:00 19.27025 75.14317
2024-07-17T21:00:00 18.05025 81.50198
2024-07-17T22:00:00 16.73025 86.41274
2024-07-17T23:00:00 16.15025 88.51975
2024-07-18T00:00:00 15.60025 89.86968
2024-07-18T01:00:00 15.12025 91.31372
2024-07-18T02:00:00 14.44025 92.96044
2024-07-18T03:00:00 14.12025 93.61662
2024-07-18T04:00:00 14.26025 93.6237
2024-07-18T05:00:00 15.41025 92.65078
2024-07-18T06:00:00 17.97025 84.49566
2024-07-18T07:00:00 20.40025 74.94281
2024-07-18T08:00:00 22.45025 68.16591
2024-07-18T09:00:00 24.07025 63.90729
2024-07-18T10:00:00 25.47025 60.30868
2024-07-18T11:00:00 26.70025 55.7367
2024-07-18T12:00:00 27.81025 51.84348
2024-07-18T13:00:00 28.51024 50.04766
2024-07-18T14:00:00 28.80025 49.80582
2024-07-18T15:00:00 28.84025 49.7846
2024-07-18T16:00:00 28.57025 51.35003
2024-07-18T17:00:00 27.65025 54.88285
2024-07-18T18:00:00 26.14025 59.55097
2024-07-18T19:00:00 23.07025 73.73144
2024-07-18T20:00:00 20.73025 83.19811
2024-07-18T21:00:00 19.58025 85.91753
2024-07-18T22:00:00 20.05025 81.65128
2024-07-18T23:00:00 18.82025 85.24056
2024-07-19T00:00:00 18.30025 86.84287
2024-07-19T01:00:00 17.37025 89.36663
2024-07-19T02:00:00 16.65025 91.23613
2024-07-19T03:00:00 16.13025 91.61686
2024-07-19T04:00:00 16.30025 90.33142
2024-07-19T05:00:00 17.48025 91.28925
2024-07-19T06:00:00 20.06025 83.12109
2024-07-19T07:00:00 22.54025 74.76907
2024-07-19T08:00:00 24.54025 68.4025
2024-07-19T09:00:00 26.31025 64.30454
2024-07-19T10:00:00 27.76024 60.90355
2024-07-19T11:00:00 28.71025 56.50608
2024-07-19T12:00:00 29.73025 50.01505
2024-07-19T13:00:00 30.42025 45.37399
2024-07-19T14:00:00 30.72025 43.50569
2024-07-19T15:00:00 30.92025 43.33875
2024-07-19T16:00:00 30.99025 42.59185
2024-07-19T17:00:00 30.09025 46.42181
2024-07-19T18:00:00 28.31025 52.60011
2024-07-19T19:00:00 25.65025 64.20522
2024-07-19T20:00:00 23.43024 73.8382
2024-07-19T21:00:00 22.05025 78.41802
2024-07-19T22:00:00 21.77025 75.50178
2024-07-19T23:00:00 19.64025 84.24556
2024-07-20T00:00:00 18.87025 88.40466
2024-07-20T01:00:00 18.25025 90.75683
2024-07-20T02:00:00 17.64025 92.71229
2024-07-20T03:00:00 17.28025 93.82839
2024-07-20T04:00:00 17.30025 92.8727
2024-07-20T05:00:00 18.68024 89.01117
2024-07-20T06:00:00 21.01024 82.02938
2024-07-20T07:00:00 23.52025 73.76043
2024-07-20T08:00:00 26.06025 67.71751
2024-07-20T09:00:00 27.86025 61.15412
2024-07-20T10:00:00 29.16025 56.4021
2024-07-20T11:00:00 29.82025 51.21624
2024-07-20T12:00:00 30.62025 46.47439
2024-07-20T13:00:00 30.92025 42.24822
2024-07-20T14:00:00 31.17025 40.44029
2024-07-20T15:00:00 30.83025 40.86803
2024-07-20T16:00:00 30.62025 42.1125
2024-07-20T17:00:00 30.51024 43.69881
2024-07-20T18:00:00 28.40025 57.93479
2024-07-20T19:00:00 25.18024 67.54485
2024-07-20T20:00:00 23.01024 75.55549
2024-07-20T21:00:00 22.18024 78.09116
2024-07-20T22:00:00 21.34025 83.79305
2024-07-20T23:00:00 20.93024 86.31879
2024-07-21T00:00:00 20.19025 87.73289
2024-07-21T01:00:00 20.08025 87.44689
2024-07-21T02:00:00 20.19025 86.74129
2024-07-21T03:00:00 20.08025 87.6128
2024-07-21T04:00:00 20.14025 85.26724
2024-07-21T05:00:00 20.13025 83.87174
2024-07-21T06:00:00 20.33025 85.61073
2024-07-21T07:00:00 21.30025 84.63601
2024-07-21T08:00:00 22.71025 82.2839
2024-07-21T09:00:00 24.67025 73.17151
2024-07-21T10:00:00 25.52025 68.42019
2024-07-21T11:00:00 26.17025 63.83305
2024-07-21T12:00:00 26.46025 61.45637
2024-07-21T13:00:00 26.50025 59.14648
2024-07-21T14:00:00 25.98025 60.23446
2024-07-21T15:00:00 25.11025 61.77778
2024-07-21T16:00:00 24.50025 65.93559
2024-07-21T17:00:00 24.50025 66.73249
2024-07-21T18:00:00 24.06025 69.48361
2024-07-21T19:00:00 22.65025 75.83262
2024-07-21T20:00:00 21.07025 82.76537
2024-07-21T21:00:00 20.39025 86.43163
2024-07-21T22:00:00 19.37025 90.82967
2024-07-21T23:00:00 19.37025 90.71485
2024-07-22T00:00:00 19.37025 90.94459
2024-07-22T01:00:00 19.30025 91.2859
2024-07-22T02:00:00 19.14025 91.9137
2024-07-22T03:00:00 19.17025 91.39358
2024-07-22T04:00:00 19.27025 91.05341
2024-07-22T05:00:00 19.36025 91.00148
2024-07-22T06:00:00 19.67025 91.65423
2024-07-22T07:00:00 20.54025 89.65786
2024-07-22T08:00:00 21.57025 84.24016
2024-07-22T09:00:00 22.27025 78.3999
2024-07-22T10:00:00 23.28025 68.19945
2024-07-22T11:00:00 24.12025 62.62672
2024-07-22T12:00:00 24.73025 58.39332
2024-07-22T13:00:00 25.17025 57.97654
2024-07-22T14:00:00 25.51024 56.37547
2024-07-22T15:00:00 25.64025 56.33509
2024-07-22T16:00:00 25.70025 55.66872
2024-07-22T17:00:00 25.09025 56.78078
2024-07-22T18:00:00 24.03025 60.71186
2024-07-22T19:00:00 21.78025 67.07549
2024-07-22T20:00:00 19.54025 75.62634
2024-07-22T21:00:00 18.34025 80.70036
2024-07-22T22:00:00 17.57025 83.79812
2024-07-22T23:00:00 17.18024 85.17841
2024-07-23T00:00:00 16.69025 86.57735
2024-07-23T01:00:00 16.26025 87.27116
2024-07-23T02:00:00 15.88025 87.29254
2024-07-23T03:00:00 15.24025 88.44176
2024-07-23T04:00:00 15.12025 89.18817
2024-07-23T05:00:00 16.02025 87.41959
2024-07-23T06:00:00 17.94025 80.75146
2024-07-23T07:00:00 19.69025 75.16399
2024-07-23T08:00:00 21.34025 69.5395
2024-07-23T09:00:00 22.49025 64.80372
2024-07-23T10:00:00 23.36025 60.05135
2024-07-23T11:00:00 24.33025 58.86281
2024-07-23T12:00:00 24.98025 57.89399
2024-07-23T13:00:00 25.42025 58.14748
2024-07-23T14:00:00 25.13025 60.65382
2024-07-23T15:00:00 25.11025 61.81703
2024-07-23T16:00:00 24.28025 66.77242
2024-07-23T17:00:00 23.53025 70.48924
2024-07-23T18:00:00 22.79025 71.88712
2024-07-23T19:00:00 21.76024 75.06964
2024-07-23T20:00:00 21.13025 77.44447
2024-07-23T21:00:00 20.45025 79.74931
2024-07-23T22:00:00 19.90025 81.06123
2024-07-23T23:00:00 19.48025 82.05087
2024-07-24T00:00:00 19.03025 84.01722
2024-07-24T01:00:00 18.46025 86.52463
2024-07-24T02:00:00 17.98025 88.04817
2024-07-24T03:00:00 17.66025 88.81655
2024-07-24T04:00:00 17.09025 89.86491
2024-07-24T05:00:00 17.18024 90.10335
2024-07-24T06:00:00 18.12025 84.29455
2024-07-24T07:00:00 19.47025 72.21416
2024-07-24T08:00:00 20.42025 67.89035
2024-07-24T09:00:00 21.02025 63.81677
2024-07-24T10:00:00 21.68024 63.79644
2024-07-24T11:00:00 22.35025 60.83371
2024-07-24T12:00:00 22.89025 58.0265
2024-07-24T13:00:00 23.44025 54.49746
2024-07-24T14:00:00 23.87025 53.09721
2024-07-24T15:00:00 23.90025 51.49741
2024-07-24T16:00:00 23.74025 52.85592
2024-07-24T17:00:00 23.20025 55.26091
2024-07-24T18:00:00 21.89025 60.56853
2024-07-24T19:00:00 19.98025 68.20001
2024-07-24T20:00:00 18.29025 77.61382
2024-07-24T21:00:00 17.65025 79.2547
2024-07-24T22:00:00 15.98025 89.14145
2024-07-24T23:00:00 15.67025 90.34467
2024-07-25T00:00:00 15.34025 92.52631
2024-07-25T01:00:00 15.48025 92.53427
2024-07-25T02:00:00 15.28025 91.98183
2024-07-25T03:00:00 14.40025 94.61655
2024-07-25T04:00:00 14.56025 93.57752
2024-07-25T05:00:00 14.38025 93.99841
2024-07-25T06:00:00 16.80025 85.3041
2024-07-25T07:00:00 19.00025 74.80631
2024-07-25T08:00:00 20.81025 69.21269
2024-07-25T09:00:00 22.44025 64.21111
2024-07-25T10:00:00 23.79025 59.65034
2024-07-25T11:00:00 24.85025 55.38679
2024-07-25T12:00:00 25.99025 50.74775
2024-07-25T13:00:00 26.61025 48.25425
2024-07-25T14:00:00 26.90025 45.97929
2024-07-25T15:00:00 27.04025 44.63176
2024-07-25T16:00:00 26.88025 46.27357
2024-07-25T17:00:00 26.28025 51.02052
2024-07-25T18:00:00 24.27025 58.17111
2024-07-25T19:00:00 20.76024 75.19449
2024-07-25T20:00:00 18.69025 83.28107
2024-07-25T21:00:00 18.17025 84.13729
2024-07-25T22:00:00 16.82025 89.55511
2024-07-25T23:00:00 16.22025 90.67776
2024-07-26T00:00:00 15.85025 90.18155
2024-07-26T01:00:00 15.38025 91.80831
2024-07-26T02:00:00 15.71025 90.64214
2024-07-26T03:00:00 15.84025 90.41578
2024-07-26T04:00:00 15.25025 92.40066
2024-07-26T05:00:00 16.01025 91.96638
2024-07-26T06:00:00 18.11025 86.1583
2024-07-26T07:00:00 20.90025 76.03919
2024-07-26T08:00:00 23.38025 65.87118
2024-07-26T09:00:00 25.08025 58.36441
2024-07-26T10:00:00 26.39025 52.0439
2024-07-26T11:00:00 27.22025 49.26559
2024-07-26T12:00:00 27.70025 46.67558
2024-07-26T13:00:00 28.35025 44.6134
2024-07-26T14:00:00 28.50025 43.20672
2024-07-26T15:00:00 28.70025 42.10094
2024-07-26T16:00:00 28.25025 43.8143
2024-07-26T17:00:00 27.37025 49.84601
2024-07-26T18:00:00 25.63025 61.34795
2024-07-26T19:00:00 23.17025 66.41887
2024-07-26T20:00:00 21.66025 71.68382
2024-07-26T21:00:00 20.71025 76.88889
2024-07-26T22:00:00 19.38025 84.81022
2024-07-26T23:00:00 18.95025 87.12511
2024-07-27T00:00:00 18.64025 87.99177
2024-07-27T01:00:00 18.22025 90.69695
2024-07-27T02:00:00 17.59025 93.24463
2024-07-27T03:00:00 17.38025 94.31408
2024-07-27T04:00:00 17.36025 95.16076
2024-07-27T05:00:00 18.16025 92.32695
2024-07-27T06:00:00 19.62025 86.68884
2024-07-27T07:00:00 22.22025 77.2152
2024-07-27T08:00:00 24.67025 66.72474
2024-07-27T09:00:00 26.55025 59.57042
2024-07-27T10:00:00 27.64025 56.96224
2024-07-27T11:00:00 28.62025 53.98922
2024-07-27T12:00:00 28.71025 53.60527
2024-07-27T13:00:00 28.20025 55.19144
2024-07-27T14:00:00 27.31025 58.04247
2024-07-27T15:00:00 25.25025 70.45102
2024-07-27T16:00:00 24.89025 71.85198
2024-07-27T17:00:00 24.45025 73.7766
2024-07-27T18:00:00 23.83025 77.64578
2024-07-27T19:00:00 22.47025 85.92451
2024-07-27T20:00:00 21.97025 86.79271
2024-07-27T21:00:00 21.48025 89.22173
2024-07-27T22:00:00 21.06025 91.33334
2024-07-27T23:00:00 20.91025 91.78177
2024-07-28T00:00:00 20.79025 91.54607
2024-07-28T01:00:00 20.23025 93.66044
2024-07-28T02:00:00 19.83025 93.93765
2024-07-28T03:00:00 19.27025 93.67808
2024-07-28T04:00:00 18.80025 92.71352
2024-07-28T05:00:00 18.27025 92.39174
2024-07-28T06:00:00 18.07025 91.03516
2024-07-28T07:00:00 18.23025 88.06949
2024-07-28T08:00:00 18.86025 84.64658
2024-07-28T09:00:00 19.92025 77.46065
2024-07-28T10:00:00 20.89025 73.03054
2024-07-28T11:00:00 21.99025 67.20484
2024-07-28T12:00:00 23.11025 63.49447
2024-07-28T13:00:00 24.08025 60.80127
2024-07-28T14:00:00 24.56025 59.25818
2024-07-28T15:00:00 24.90025 58.24693
2024-07-28T16:00:00 24.85025 57.64051
2024-07-28T17:00:00 24.06025 58.72308
2024-07-28T18:00:00 22.52025 61.46788
2024-07-28T19:00:00 20.16025 68.28075
2024-07-28T20:00:00 18.44025 75.79093
2024-07-28T21:00:00 17.45025 81.37121
2024-07-28T22:00:00 16.61025 87.92915
2024-07-28T23:00:00 16.22025 88.41064
2024-07-29T00:00:00 15.76025 89.00752
2024-07-29T01:00:00 15.28025 90.08051
2024-07-29T02:00:00 14.86025 91.23666
2024-07-29T03:00:00 14.44025 92.47416
2024-07-29T04:00:00 13.98025 93.60949
2024-07-29T05:00:00 15.25025 91.02476
2024-07-29T06:00:00 17.79025 80.10424
2024-07-29T07:00:00 20.05025 71.01944
2024-07-29T08:00:00 21.97025 64.27486
2024-07-29T09:00:00 23.64025 61.52506
2024-07-29T10:00:00 25.20025 60.13168
2024-07-29T11:00:00 26.49025 59.03212
2024-07-29T12:00:00 27.64025 56.81895
2024-07-29T13:00:00 28.57025 54.66021
2024-07-29T14:00:00 29.17025 52.35358
2024-07-29T15:00:00 29.49025 51.03564
2024-07-29T16:00:00 29.44025 50.47897
2024-07-29T17:00:00 28.72025 51.42093
2024-07-29T18:00:00 27.09025 57.69863
2024-07-29T19:00:00 24.94025 64.99229
2024-07-29T20:00:00 22.89025 74.30858
2024-07-29T21:00:00 20.35025 84.96537
2024-07-29T22:00:00 19.46025 88.28447
2024-07-29T23:00:00 18.82025 89.41952
2024-07-30T00:00:00 18.51024 88.65769
2024-07-30T01:00:00 18.39025 86.9626
2024-07-30T02:00:00 18.01024 87.09505
2024-07-30T03:00:00 17.40025 88.16856
2024-07-30T04:00:00 16.90025 88.58277
2024-07-30T05:00:00 17.52025 87.72563
2024-07-30T06:00:00 19.64025 81.07948
2024-07-30T07:00:00 22.36025 71.17296
2024-07-30T08:00:00 24.63025 65.29815
2024-07-30T09:00:00 26.70025 61.39408
2024-07-30T10:00:00 28.47025 59.22994
2024-07-30T11:00:00 30.08025 55.75053
2024-07-30T12:00:00 31.62025 50.97108
2024-07-30T13:00:00 32.84025 46.53468
2024-07-30T14:00:00 33.71025 42.62676
2024-07-30T15:00:00 34.11025 41.0335
2024-07-30T16:00:00 33.66025 42.82696
2024-07-30T17:00:00 32.13025 49.9431
2024-07-30T18:00:00 29.20025 61.56365
2024-07-30T19:00:00 25.40025 75.41165
2024-07-30T20:00:00 23.71025 80.03291
2024-07-30T21:00:00 21.71025 87.09527
2024-07-30T22:00:00 21.20025 89.76023
2024-07-30T23:00:00 21.14025 87.09995
2024-07-31T00:00:00 20.60025 88.26553
2024-07-31T01:00:00 19.75025 90.68217
2024-07-31T02:00:00 19.38025 91.40617
2024-07-31T03:00:00 19.29025 91.28528
2024-07-31T04:00:00 18.96025 91.4968
2024-07-31T05:00:00 19.72025 89.48605
2024-07-31T06:00:00 22.03025 81.84335
2024-07-31T07:00:00 24.79025 71.52088
2024-07-31T08:00:00 27.22025 64.53558
2024-07-31T09:00:00 28.97025 58.83082
2024-07-31T10:00:00 29.85025 60.17048
2024-07-31T11:00:00 30.48025 56.29667
2024-07-31T12:00:00 31.20025 55.16232
2024-07-31T13:00:00 30.63025 57.63094
2024-07-31T14:00:00 30.24025 58.57791
2024-07-31T15:00:00 29.46025 62.49771
2024-07-31T16:00:00 28.47025 63.52855
2024-07-31T17:00:00 27.04025 65.3056
2024-07-31T18:00:00 24.88025 75.79939
2024-07-31T19:00:00 24.38025 68.67374
2024-07-31T20:00:00 22.63025 78.35239
2024-07-31T21:00:00 21.69025 81.64777
2024-07-31T22:00:00 21.08025 83.34303
2024-07-31T23:00:00 20.58025 85.90595
2024-08-01T00:00:00 19.96025 88.15792
2024-08-01T01:00:00 19.46025 89.46699
2024-08-01T02:00:00 19.32025 89.96821
2024-08-01T03:00:00 19.24025 90.82132
2024-08-01T04:00:00 19.38025 90.83031
2024-08-01T05:00:00 19.86025 90.40396
2024-08-01T06:00:00 20.47025 88.75607
2024-08-01T07:00:00 21.89025 85.70897
2024-08-01T08:00:00 22.87025 85.64278
2024-08-01T09:00:00 23.82025 81.14703
2024-08-01T10:00:00 24.75025 77.44144
2024-08-01T11:00:00 25.72025 74.07668
2024-08-01T12:00:00 26.54025 73.03239
2024-08-01T13:00:00 26.89025 76.85024
2024-08-01T14:00:00 26.35025 81.20431
2024-08-01T15:00:00 26.61025 76.48167
2024-08-01T16:00:00 26.17025 73.87591
2024-08-01T17:00:00 25.69025 74.80756
2024-08-01T18:00:00 24.47025 79.78532
2024-08-01T19:00:00 22.52025 83.29521
2024-08-01T20:00:00 21.46025 86.80151
2024-08-01T21:00:00 20.95025 86.53794
2024-08-01T22:00:00 20.43024 86.9275
2024-08-01T23:00:00 19.79025 89.2654
2024-08-02T00:00:00 19.41025 90.25961
2024-08-02T01:00:00 19.09025 91.04213
2024-08-02T02:00:00 18.63025 92.11832
2024-08-02T03:00:00 18.46025 92.81384
2024-08-02T04:00:00 17.89025 93.91528
2024-08-02T05:00:00 18.38025 92.45647
2024-08-02T06:00:00 20.43024 86.21745
2024-08-02T07:00:00 22.22025 77.70396
2024-08-02T08:00:00 23.78025 70.57989
2024-08-02T09:00:00 25.43024 66.2925
2024-08-02T10:00:00 26.54025 60.28625
2024-08-02T11:00:00 27.41025 54.54636
2024-08-02T12:00:00 27.85025 52.81788
2024-08-02T13:00:00 27.81025 52.00861
2024-08-02T14:00:00 27.47025 54.42308
2024-08-02T15:00:00 27.11025 56.97913
2024-08-02T16:00:00 26.78025 58.61676
2024-08-02T17:00:00 24.45025 69.38246
2024-08-02T18:00:00 23.01024 75.74583
2024-08-02T19:00:00 21.42025 83.11937
2024-08-02T20:00:00 20.18024 87.84283
2024-08-02T21:00:00 19.38025 90.60082
2024-08-02T22:00:00 18.20025 95.12912
2024-08-02T23:00:00 18.02025 95.06254
2024-08-03T00:00:00 17.59025 95.96027
2024-08-03T01:00:00 17.48025 96.81673
2024-08-03T02:00:00 17.24025 97.05866
2024-08-03T03:00:00 17.43024 96.69238
2024-08-03T04:00:00 17.62025 94.68563
2024-08-03T05:00:00 17.96025 93.20316
2024-08-03T06:00:00 19.12025 90.06832
2024-08-03T07:00:00 20.65025 82.82108
2024-08-03T08:00:00 22.38025 74.93241
2024-08-03T09:00:00 23.52025 65.6068
2024-08-03T10:00:00 24.68024 62.87029
2024-08-03T11:00:00 25.26024 58.89392
2024-08-03T12:00:00 26.11025 54.53567
2024-08-03T13:00:00 26.38025 53.39414
2024-08-03T14:00:00 26.74025 51.63482
2024-08-03T15:00:00 27.09025 50.3514
2024-08-03T16:00:00 26.81025 49.8593
2024-08-03T17:00:00 26.06025 51.42574
2024-08-03T18:00:00 24.26024 57.60933
2024-08-03T19:00:00 22.04025 64.29009
2024-08-03T20:00:00 20.80025 68.40907
2024-08-03T21:00:00 20.14025 71.68325
2024-08-03T22:00:00 19.39025 79.29694
2024-08-03T23:00:00 18.87025 81.08356
2024-08-04T00:00:00 18.22025 84.95924
2024-08-04T01:00:00 17.77025 86.56982
2024-08-04T02:00:00 17.07025 88.65411
2024-08-04T03:00:00 16.68024 89.60232
2024-08-04T04:00:00 16.32025 90.45
2024-08-04T05:00:00 16.64025 89.54129
2024-08-04T06:00:00 18.32025 82.75622
2024-08-04T07:00:00 20.05025 73.87775
2024-08-04T08:00:00 21.42025 67.17503
2024-08-04T09:00:00 22.63025 63.75766
2024-08-04T10:00:00 23.46025 60.73671
2024-08-04T11:00:00 24.43024 58.81093
2024-08-04T12:00:00 24.78025 56.85125
2024-08-04T13:00:00 25.20025 55.54512
2024-08-04T14:00:00 25.23025 56.30695
2024-08-04T15:00:00 24.96025 58.48544
2024-08-04T16:00:00 24.53025 59.67025
2024-08-04T17:00:00 23.87025 61.89381
2024-08-04T18:00:00 22.89025 68.51453
2024-08-04T19:00:00 21.83025 71.94404
2024-08-04T20:00:00 21.47025 72.4799
2024-08-04T21:00:00 20.61025 75.84739
2024-08-04T22:00:00 19.62025 81.38876
2024-08-04T23:00:00 18.94025 83.7385
2024-08-05T00:00:00 18.33025 85.46368
2024-08-05T01:00:00 17.73025 89.79659
2024-08-05T02:00:00 17.26024 89.70406
2024-08-05T03:00:00 17.02025 90.67423
2024-08-05T04:00:00 16.58025 92.59577
2024-08-05T05:00:00 16.76024 93.56387
2024-08-05T06:00:00 18.27025 88.52498
2024-08-05T07:00:00 20.57025 79.81646
2024-08-05T08:00:00 22.44025 71.73319
2024-08-05T09:00:00 23.92025 65.52336
2024-08-05T10:00:00 24.94025 60.37899
2024-08-05T11:00:00 25.78025 55.83116
2024-08-05T12:00:00 26.60025 52.16474
2024-08-05T13:00:00 27.23025 49.20491
2024-08-05T14:00:00 27.60025 47.25436
2024-08-05T15:00:00 27.65025 45.76644
2024-08-05T16:00:00 27.45025 46.00918
2024-08-05T17:00:00 26.51024 47.88483
2024-08-05T18:00:00 24.66025 51.59546
2024-08-05T19:00:00 21.47025 68.1898
2024-08-05T20:00:00 19.53025 78.50526
2024-08-05T21:00:00 19.18024 78.91068
2024-08-05T22:00:00 18.36025 82.54787
2024-08-05T23:00:00 18.11025 82.67745
2024-08-06T00:00:00 17.63025 83.58826
2024-08-06T01:00:00 17.38025 84.21196
2024-08-06T02:00:00 16.67025 87.30922
2024-08-06T03:00:00 15.69025 90.69975
2024-08-06T04:00:00 15.05025 91.66782
2024-08-06T05:00:00 15.79025 91.89338
2024-08-06T06:00:00 18.59025 83.00203
2024-08-06T07:00:00 21.43024 70.68343
2024-08-06T08:00:00 23.63025 64.18016
2024-08-06T09:00:00 25.48025 60.27268
2024-08-06T10:00:00 26.87025 56.49041
2024-08-06T11:00:00 28.08025 53.17812
2024-08-06T12:00:00 29.05025 49.21105
2024-08-06T13:00:00 29.76024 45.39909
2024-08-06T14:00:00 30.09025 43.0031
2024-08-06T15:00:00 30.29025 41.59298
2024-08-06T16:00:00 30.11025 41.41018
2024-08-06T17:00:00 29.35025 43.13298
2024-08-06T18:00:00 27.10025 57.48287
2024-08-06T19:00:00 25.81025 52.16291
2024-08-06T20:00:00 23.85025 63.0086
2024-08-06T21:00:00 22.83025 65.63001
2024-08-06T22:00:00 20.54025 80.21987
2024-08-06T23:00:00 19.30025 84.96423
2024-08-07T00:00:00 18.37025 90.07291
2024-08-07T01:00:00 18.00025 91.32188
2024-08-07T02:00:00 17.64025 92.47547
2024-08-07T03:00:00 17.82025 92.36717
2024-08-07T04:00:00 17.95025 93.14329
2024-08-07T05:00:00 19.03025 90.923
2024-08-07T06:00:00 19.41025 89.63342
2024-08-07T07:00:00 19.55025 91.58953
2024-08-07T08:00:00 19.95025 92.71301
2024-08-07T09:00:00 20.17025 90.42446
2024-08-07T10:00:00 21.15025 88.64165
2024-08-07T11:00:00 23.36025 77.38381
2024-08-07T12:00:00 24.84025 69.76153
2024-08-07T13:00:00 25.61025 65.37834
2024-08-07T14:00:00 26.50025 60.77293
2024-08-07T15:00:00 27.10025 57.88331
2024-08-07T16:00:00 27.55025 56.65435
2024-08-07T17:00:00 27.59025 56.59257
2024-08-07T18:00:00 25.65025 66.54532
2024-08-07T19:00:00 23.09025 78.36833
2024-08-07T20:00:00 22.01024 84.07612
2024-08-07T21:00:00 21.42025 86.31017
2024-08-07T22:00:00 21.52025 83.39247
2024-08-07T23:00:00 20.40025 88.91829
2024-08-08T00:00:00 20.18024 90.14126
2024-08-08T01:00:00 20.06025 89.45442
2024-08-08T02:00:00 19.49025 92.22374
2024-08-08T03:00:00 19.41025 91.81291
2024-08-08T04:00:00 19.72025 90.05299
2024-08-08T05:00:00 19.80025 90.45701
2024-08-08T06:00:00 20.25025 89.41196
2024-08-08T07:00:00 20.77025 84.31405
2024-08-08T08:00:00 21.68024 76.74396
2024-08-08T09:00:00 22.45025 69.17572
2024-08-08T10:00:00 23.71025 60.63814
2024-08-08T11:00:00 24.62025 54.02066
2024-08-08T12:00:00 25.37025 49.93166
2024-08-08T13:00:00 25.75025 47.89864
2024-08-08T14:00:00 26.25025 46.98241
2024-08-08T15:00:00 26.34025 46.21718
2024-08-08T16:00:00 26.18024 45.93295
2024-08-08T17:00:00 25.60025 46.80607
2024-08-08T18:00:00 23.62025 63.72823
2024-08-08T19:00:00 21.97025 61.90246
2024-08-08T20:00:00 20.28025 71.43125
2024-08-08T21:00:00 18.34025 82.38586
2024-08-08T22:00:00 17.09025 83.85171
2024-08-08T23:00:00 15.83025 90.47389
2024-08-09T00:00:00 15.17025 94.3418
2024-08-09T01:00:00 15.03025 95.88236
2024-08-09T02:00:00 14.34025 97.94643
2024-08-09T03:00:00 14.20025 97.81625
2024-08-09T04:00:00 13.81025 97.93703
2024-08-09T05:00:00 14.82025 95.06716
2024-08-09T06:00:00 17.63025 85.39129
2024-08-09T07:00:00 20.68024 73.8905
2024-08-09T08:00:00 23.10025 63.24793
2024-08-09T09:00:00 24.99025 56.06749
2024-08-09T10:00:00 26.13025 51.44391
2024-08-09T11:00:00 27.10025 48.19795
2024-08-09T12:00:00 28.04025 45.84243
2024-08-09T13:00:00 28.68024 45.16579
2024-08-09T14:00:00 29.18024 44.40916
2024-08-09T15:00:00 29.21025 44.96198
2024-08-09T16:00:00 28.93024 45.64146
2024-08-09T17:00:00 28.14025 47.94907
2024-08-09T18:00:00 26.37025 53.83787
2024-08-09T19:00:00 23.20025 66.59484
2024-08-09T20:00:00 21.28025 75.42316
2024-08-09T21:00:00 20.38025 79.2833
2024-08-09T22:00:00 19.89025 80.95646
2024-08-09T23:00:00 19.47025 82.10215
2024-08-10T00:00:00 19.25025 83.5061
2024-08-10T01:00:00 19.50025 82.73818
2024-08-10T02:00:00 19.04025 84.55763
2024-08-10T03:00:00 17.92025 88.95146
2024-08-10T04:00:00 17.27025 90.57469
2024-08-10T05:00:00 17.28025 91.45262
2024-08-10T06:00:00 19.83025 84.26618
2024-08-10T07:00:00 22.50025 72.93835
2024-08-10T08:00:00 24.76024 65.20148
2024-08-10T09:00:00 26.32025 59.66798
2024-08-10T10:00:00 27.47025 54.80376
2024-08-10T11:00:00 28.51024 50.91325
2024-08-10T12:00:00 29.23025 48.20662
2024-08-10T13:00:00 29.78025 45.60753
2024-08-10T14:00:00 30.31025 43.95203
2024-08-10T15:00:00 30.39025 43.52721
2024-08-10T16:00:00 30.23025 44.09886
2024-08-10T17:00:00 29.19025 48.65754
2024-08-10T18:00:00 26.95025 55.26904
2024-08-10T19:00:00 23.66025 71.13905
2024-08-10T20:00:00 22.19025 78.98328
2024-08-10T21:00:00 21.27025 82.58014
2024-08-10T22:00:00 20.40025 89.03021
2024-08-10T23:00:00 19.72025 91.19627
2024-08-11T00:00:00 19.38025 91.8112
2024-08-11T01:00:00 18.78025 93.30158
2024-08-11T02:00:00 18.17025 94.3461
2024-08-11T03:00:00 17.71025 95.05171
2024-08-11T04:00:00 17.68024 93.48751
2024-08-11T05:00:00 17.71025 94.26746
2024-08-11T06:00:00 20.29025 86.04089
2024-08-11T07:00:00 22.70025 74.51221
2024-08-11T08:00:00 24.72025 66.27319
2024-08-11T09:00:00 26.53025 61.7819
2024-08-11T10:00:00 28.40025 57.46589
2024-08-11T11:00:00 29.76024 54.16877
2024-08-11T12:00:00 31.01024 51.13418
2024-08-11T13:00:00 31.86025 48.70958
2024-08-11T14:00:00 32.37025 46.7602
2024-08-11T15:00:00 32.51025 46.56414
2024-08-11T16:00:00 32.17025 46.79533
2024-08-11T17:00:00 31.03025 49.25966
2024-08-11T18:00:00 28.80025 58.46345
2024-08-11T19:00:00 25.72025 72.39975
2024-08-11T20:00:00 25.24025 72.9494
2024-08-11T21:00:00 23.59025 79.9178
2024-08-11T22:00:00 22.15025 87.51352
2024-08-11T23:00:00 21.39025 90.67275
2024-08-12T00:00:00 21.00025 91.90127
2024-08-12T01:00:00 21.05025 92.07594
2024-08-12T02:00:00 21.07025 91.73339
2024-08-12T03:00:00 21.30025 90.27243
2024-08-12T04:00:00 21.17025 90.26386
2024-08-12T05:00:00 20.93024 90.53059
2024-08-12T06:00:00 22.07025 83.97741
2024-08-12T07:00:00 23.78025 76.00819
2024-08-12T08:00:00 26.16025 69.35704
2024-08-12T09:00:00 28.44025 63.67926
2024-08-12T10:00:00 30.79025 53.85053
2024-08-12T11:00:00 32.16025 48.00441
2024-08-12T12:00:00 33.45025 43.82592
2024-08-12T13:00:00 33.50025 44.69408
2024-08-12T14:00:00 34.26025 42.03418
2024-08-12T15:00:00 34.04025 40.8607
2024-08-12T16:00:00 33.46025 42.47984
2024-08-12T17:00:00 32.07025 46.47757
2024-08-12T18:00:00 30.61025 47.87028
2024-08-12T19:00:00 29.59025 49.41412
2024-08-12T20:00:00 27.27025 59.21307
2024-08-12T21:00:00 25.71025 63.0158
2024-08-12T22:00:00 23.33025 73.26572
2024-08-12T23:00:00 22.13025 75.75082
2024-08-13T00:00:00 21.76024 77.19518
2024-08-13T01:00:00 20.95025 81.14411
2024-08-13T02:00:00 20.40025 82.63432
2024-08-13T03:00:00 19.48025 87.33903
2024-08-13T04:00:00 19.01024 87.91108
2024-08-13T05:00:00 18.97025 88.86398
2024-08-13T06:00:00 20.50025 81.86319
2024-08-13T07:00:00 22.95025 71.91567
2024-08-13T08:00:00 25.50025 65.39666
2024-08-13T09:00:00 27.43024 58.99028
2024-08-13T10:00:00 29.16025 53.48164
2024-08-13T11:00:00 30.41025 48.63818
2024-08-13T12:00:00 31.59025 45.7147
2024-08-13T13:00:00 32.56025 43.17903
2024-08-13T14:00:00 32.74025 42.02044
2024-08-13T15:00:00 33.18025 39.16448
2024-08-13T16:00:00 32.87025 38.34093
2024-08-13T17:00:00 32.01025 41.90235
2024-08-13T18:00:00 28.62025 62.00939
2024-08-13T19:00:00 26.29025 61.92318
2024-08-13T20:00:00 25.50025 63.97139
2024-08-13T21:00:00 23.79025 70.40383
2024-08-13T22:00:00 23.08025 74.19947
2024-08-13T23:00:00 22.13025 79.62396
2024-08-14T00:00:00 21.83025 78.93321
2024-08-14T01:00:00 20.82025 81.69521
2024-08-14T02:00:00 20.34025 83.89492
2024-08-14T03:00:00 19.89025 86.38474
2024-08-14T04:00:00 19.46025 87.50375
2024-08-14T05:00:00 19.21025 87.92805
2024-08-14T06:00:00 20.96025 82.49145
2024-08-14T07:00:00 23.02025 75.79506
2024-08-14T08:00:00 24.95025 67.54185
2024-08-14T09:00:00 26.08025 63.49399
2024-08-14T10:00:00 27.75025 55.15085
2024-08-14T11:00:00 28.60025 51.88044
2024-08-14T12:00:00 28.72025 49.4068
2024-08-14T13:00:00 28.90025 49.35963
2024-08-14T14:00:00 28.94025 50.70197
2024-08-14T15:00:00 27.74025 52.68958
2024-08-14T16:00:00 26.65025 56.1868
2024-08-14T17:00:00 26.21025 58.37174
2024-08-14T18:00:00 24.88025 63.75761
2024-08-14T19:00:00 22.82025 71.34737
2024-08-14T20:00:00 21.20025 78.5452
2024-08-14T21:00:00 20.06025 84.66641
2024-08-14T22:00:00 20.29025 83.30611
2024-08-14T23:00:00 19.60025 85.81033
2024-08-15T00:00:00 18.84025 90.45014
2024-08-15T01:00:00 18.31025 91.98324
2024-08-15T02:00:00 18.15025 92.3264
2024-08-15T03:00:00 17.88025 93.13987
2024-08-15T04:00:00 17.51024 94.01868
2024-08-15T05:00:00 17.68024 93.96606
2024-08-15T06:00:00 19.10025 89.55402
2024-08-15T07:00:00 20.97025 81.61038
2024-08-15T08:00:00 23.01024 72.56625
2024-08-15T09:00:00 24.77025 64.87445
2024-08-15T10:00:00 26.38025 59.94626
2024-08-15T11:00:00 27.59025 56.34335
2024-08-15T12:00:00 28.36025 52.21471
2024-08-15T13:00:00 29.08025 49.59486
2024-08-15T14:00:00 29.54025 47.80059
2024-08-15T15:00:00 29.58025 46.67052
2024-08-15T16:00:00 29.26024 46.79365
2024-08-15T17:00:00 28.31025 48.54989
2024-08-15T18:00:00 26.57025 50.28014
2024-08-15T19:00:00 23.87025 63.33604
2024-08-15T20:00:00 22.06025 71.43643
2024-08-15T21:00:00 20.66025 79.4233
2024-08-15T22:00:00 21.61025 74.00095
2024-08-15T23:00:00 20.90025 77.50878
2024-08-16T00:00:00 19.97025 82.84659
2024-08-16T01:00:00 19.29025 86.49284
2024-08-16T02:00:00 19.30025 86.82468
2024-08-16T03:00:00 19.20025 86.81545
2024-08-16T04:00:00 19.10025 87.41656
2024-08-16T05:00:00 18.88025 89.14004
2024-08-16T06:00:00 20.30025 83.57192
2024-08-16T07:00:00 22.82025 73.3176
2024-08-16T08:00:00 24.82025 64.96708
2024-08-16T09:00:00 26.30025 58.83861
2024-08-16T10:00:00 27.17025 57.53581
2024-08-16T11:00:00 28.02025 52.96138
2024-08-16T12:00:00 28.67025 49.48806
2024-08-16T13:00:00 29.46025 47.68854
2024-08-16T14:00:00 29.64025 46.56785
2024-08-16T15:00:00 30.09025 44.42809
2024-08-16T16:00:00 29.99025 43.36303
2024-08-16T17:00:00 29.10025 43.25939
2024-08-16T18:00:00 27.14025 49.5941
2024-08-16T19:00:00 24.88025 56.76605
2024-08-16T20:00:00 23.71025 60.59915
2024-08-16T21:00:00 22.43024 67.03587
2024-08-16T22:00:00 21.41025 72.42287
2024-08-16T23:00:00 20.56025 75.35487
2024-08-17T00:00:00 20.09025 77.18864
2024-08-17T01:00:00 19.30025 83.56521
2024-08-17T02:00:00 19.12025 83.91979
2024-08-17T03:00:00 18.45025 88.08814
2024-08-17T04:00:00 18.46025 87.69559
2024-08-17T05:00:00 18.08025 89.19225
2024-08-17T06:00:00 19.53025 83.75151
2024-08-17T07:00:00 21.56025 76.09461
2024-08-17T08:00:00 23.69025 67.89142
2024-08-17T09:00:00 25.30025 60.57702
2024-08-17T10:00:00 26.38025 56.3716
2024-08-17T11:00:00 27.22025 52.0568
2024-08-17T12:00:00 28.02025 47.30591
2024-08-17T13:00:00 28.42025 45.35754
2024-08-17T14:00:00 28.70025 44.62231
2024-08-17T15:00:00 28.35025 46.13336
2024-08-17T16:00:00 27.64025 47.72382
2024-08-17T17:00:00 26.36025 54.2849
2024-08-17T18:00:00 24.88025 60.67393
2024-08-17T19:00:00 23.31025 68.55302
2024-08-17T20:00:00 22.32025 74.16708
2024-08-17T21:00:00 21.82025 78.5836
2024-08-17T22:00:00 21.00025 90.30912
2024-08-17T23:00:00 20.78025 88.77991
2024-08-18T00:00:00 20.54025 89.26472
2024-08-18T01:00:00 20.23025 89.69224
2024-08-18T02:00:00 19.91025 91.5528
2024-08-18T03:00:00 19.43024 93.5082
2024-08-18T04:00:00 19.04025 94.02354
2024-08-18T05:00:00 18.73025 93.00417
2024-08-18T06:00:00 18.63025 93.94701
2024-08-18T07:00:00 19.06025 90.2357
2024-08-18T08:00:00 19.55025 85.26126
2024-08-18T09:00:00 20.23025 82.40439
2024-08-18T10:00:00 20.10025 85.85935
2024-08-18T11:00:00 20.63025 82.66149
2024-08-18T12:00:00 20.91025 78.85403
2024-08-18T13:00:00 21.08025 77.28925
2024-08-18T14:00:00 20.45025 80.51484
2024-08-18T15:00:00 19.73025 83.77392
2024-08-18T16:00:00 19.21025 88.82633
2024-08-18T17:00:00 18.89025 88.51892
2024-08-18T18:00:00 18.52025 91.645
2024-08-18T19:00:00 18.24025 93.27602
2024-08-18T20:00:00 18.07025 94.34212
2024-08-18T21:00:00 17.97025 94.3381
2024-08-18T22:00:00 17.68024 94.08603
2024-08-18T23:00:00 17.31025 94.43192
2024-08-19T00:00:00 17.09025 95.45621
2024-08-19T01:00:00 16.97025 95.08612
2024-08-19T02:00:00 16.91025 94.59747
2024-08-19T03:00:00 16.69025 95.38166
2024-08-19T04:00:00 16.45025 95.8036
2024-08-19T05:00:00 16.18025 95.54861
2024-08-19T06:00:00 16.72025 92.24623
2024-08-19T07:00:00 18.21025 85.72642
2024-08-19T08:00:00 19.52025 76.95237
2024-08-19T09:00:00 20.85025 67.23215
2024-08-19T10:00:00 21.71025 62.08512
2024-08-19T11:00:00 22.62025 57.50904
2024-08-19T12:00:00 23.07025 54.65317
2024-08-19T13:00:00 23.62025 53.24119
2024-08-19T14:00:00 24.03025 52.24418
2024-08-19T15:00:00 24.20025 51.64358
2024-08-19T16:00:00 23.92025 52.24968
2024-08-19T17:00:00 23.08025 56.2496
2024-08-19T18:00:00 21.33025 63.14097
2024-08-19T19:00:00 19.15025 74.01019
2024-08-19T20:00:00 18.45025 78.04243
2024-08-19T21:00:00 17.78025 82.63727
2024-08-19T22:00:00 17.30025 85.52278
2024-08-19T23:00:00 16.90025 85.4256
2024-08-20T00:00:00 17.12025 83.04121
2024-08-20T01:00:00 16.86025 83.87975
2024-08-20T02:00:00 16.01025 87.76134
2024-08-20T03:00:00 14.83025 91.11523
2024-08-20T04:00:00 15.28025 90.43436
2024-08-20T05:00:00 15.09025 90.95435
2024-08-20T06:00:00 16.76024 86.97839
2024-08-20T07:00:00 18.76024 78.44329
2024-08-20T08:00:00 20.28025 73.48978
2024-08-20T09:00:00 21.66025 69.60114
2024-08-20T10:00:00 22.92025 66.57993
2024-08-20T11:00:00 23.99025 64.13485
2024-08-20T12:00:00 24.79025 61.47073
2024-08-20T13:00:00 25.66025 59.1005
2024-08-20T14:00:00 26.08025 58.19303
2024-08-20T15:00:00 26.46025 56.24777
2024-08-20T16:00:00 26.25025 55.59081
2024-08-20T17:00:00 25.39025 57.21877
2024-08-20T18:00:00 23.65025 64.26654
2024-08-20T19:00:00 21.26024 75.41995
2024-08-20T20:00:00 20.49025 77.74493
2024-08-20T21:00:00 20.11025 77.68829
2024-08-20T22:00:00 20.22025 78.25385
2024-08-20T23:00:00 19.77025 79.40115
2024-08-21T00:00:00 19.24025 81.13165
2024-08-21T01:00:00 18.91025 83.19985
2024-08-21T02:00:00 19.00025 81.62349
2024-08-21T03:00:00 18.57025 82.04329
2024-08-21T04:00:00 18.39025 80.60274
2024-08-21T05:00:00 17.96025 82.28571
2024-08-21T06:00:00 17.99025 79.3034
2024-08-21T07:00:00 18.07025 74.99155
2024-08-21T08:00:00 18.67025 67.66505
2024-08-21T09:00:00 19.18024 61.33733
2024-08-21T10:00:00 20.18024 56.52682
2024-08-21T11:00:00 21.12025 51.68379
2024-08-21T12:00:00 21.78025 47.70239
2024-08-21T13:00:00 22.45025 43.97168
2024-08-21T14:00:00 23.02025 41.64587
2024-08-21T15:00:00 22.96025 40.35001
2024-08-21T16:00:00 22.63025 40.53046
2024-08-21T17:00:00 21.80025 43.16758
2024-08-21T18:00:00 19.19025 57.11251
2024-08-21T19:00:00 17.63025 61.75373
2024-08-21T20:00:00 15.94025 70.41615
2024-08-21T21:00:00 14.64025 74.74967
2024-08-21T22:00:00 14.27025 78.59709
2024-08-21T23:00:00 12.99025 84.77074
2024-08-22T00:00:00 12.23025 88.76527
2024-08-22T01:00:00 12.15025 88.99674
2024-08-22T02:00:00 12.50025 87.43157
2024-08-22T03:00:00 12.05025 89.16744
2024-08-22T04:00:00 11.71025 89.98163
2024-08-22T05:00:00 11.43025 90.75015
2024-08-22T06:00:00 12.67025 90.11837
2024-08-22T07:00:00 15.44025 77.63182
2024-08-22T08:00:00 18.00025 66.72462
2024-08-22T09:00:00 20.11025 59.12158
2024-08-22T10:00:00 21.94025 55.744
2024-08-22T11:00:00 23.56025 52.36139
2024-08-22T12:00:00 25.03025 47.51679
2024-08-22T13:00:00 26.07025 40.58115
2024-08-22T14:00:00 26.75025 35.93031
2024-08-22T15:00:00 27.01024 33.73294
2024-08-22T16:00:00 26.56025 33.67365
2024-08-22T17:00:00 25.15025 35.13856
2024-08-22T18:00:00 22.27025 44.66868
2024-08-22T19:00:00 19.47025 55.0395
2024-08-22T20:00:00 18.04025 61.93307
2024-08-22T21:00:00 16.05025 71.00558
2024-08-22T22:00:00 13.96025 82.87
2024-08-22T23:00:00 13.47025 85.45094
2024-08-23T00:00:00 13.17025 87.4382
2024-08-23T01:00:00 12.68025 89.57949
2024-08-23T02:00:00 12.51025 91.07346
2024-08-23T03:00:00 12.25025 92.77343
2024-08-23T04:00:00 12.19025 94.07808
2024-08-23T05:00:00 12.12025 93.57406
2024-08-23T06:00:00 14.19025 86.38427
2024-08-23T07:00:00 17.90025 73.06966
2024-08-23T08:00:00 21.65025 56.48424
2024-08-23T09:00:00 24.54025 47.44607
2024-08-23T10:00:00 26.44025 41.09097
2024-08-23T11:00:00 27.76024 37.88678
2024-08-23T12:00:00 28.64025 36.8023
2024-08-23T13:00:00 29.26024 36.06389
2024-08-23T14:00:00 29.51024 35.73226
2024-08-23T15:00:00 29.53025 35.03867
2024-08-23T16:00:00 29.00025 35.12186
2024-08-23T17:00:00 27.62025 37.10207
2024-08-23T18:00:00 24.37025 51.55327
2024-08-23T19:00:00 22.76024 55.98657
2024-08-23T20:00:00 21.14025 62.76981
2024-08-23T21:00:00 18.36025 75.62983
2024-08-23T22:00:00 17.30025 79.51537
2024-08-23T23:00:00 16.46025 82.20458
2024-08-24T00:00:00 16.03025 84.94357
2024-08-24T01:00:00 15.73025 86.99355
2024-08-24T02:00:00 15.65025 88.4771
2024-08-24T03:00:00 15.55025 89.74872
2024-08-24T04:00:00 15.31025 90.9101
2024-08-24T05:00:00 15.42025 90.1498
2024-08-24T06:00:00 17.44025 82.86422
2024-08-24T07:00:00 21.00025 67.78783
2024-08-24T08:00:00 24.28025 57.91189
2024-08-24T09:00:00 27.14025 50.65601
2024-08-24T10:00:00 29.59025 42.92179
2024-08-24T11:00:00 31.60025 37.02486
2024-08-24T12:00:00 33.05025 33.18509
2024-08-24T13:00:00 34.19025 31.83644
2024-08-24T14:00:00 34.67025 31.05332
2024-08-24T15:00:00 34.77025 28.99868
2024-08-24T16:00:00 33.79025 27.73248
2024-08-24T17:00:00 32.10025 31.36684
2024-08-24T18:00:00 28.75025 45.0977
2024-08-24T19:00:00 28.80025 44.19186
2024-08-24T20:00:00 26.51024 50.94901
2024-08-24T21:00:00 24.14025 57.43186
2024-08-24T22:00:00 23.31025 68.64019
2024-08-24T23:00:00 21.86025 77.89706
2024-08-25T00:00:00 20.72025 82.98666
2024-08-25T01:00:00 18.94025 86.2392
2024-08-25T02:00:00 17.79025 86.516
2024-08-25T03:00:00 16.84025 87.04237
2024-08-25T04:00:00 16.36025 87.90702
2024-08-25T05:00:00 16.02025 89.90144
2024-08-25T06:00:00 16.00025 89.37535
2024-08-25T07:00:00 16.85025 84.09734
2024-08-25T08:00:00 17.80025 75.63643
2024-08-25T09:00:00 18.65025 70.29206
2024-08-25T10:00:00 19.49025 65.99036
2024-08-25T11:00:00 20.21025 61.21375
2024-08-25T12:00:00 20.81025 57.86028
2024-08-25T13:00:00 21.26024 54.08135
2024-08-25T14:00:00 21.43024 52.49578
2024-08-25T15:00:00 21.52025 49.9222
2024-08-25T16:00:00 21.64025 51.23843
2024-08-25T17:00:00 20.72025 55.65603
2024-08-25T18:00:00 19.07025 62.62861
2024-08-25T19:00:00 17.01024 72.81244
2024-08-25T20:00:00 16.19025 75.31736
2024-08-25T21:00:00 15.66025 79.27825
2024-08-25T22:00:00 16.42025 74.75972
2024-08-25T23:00:00 15.25025 82.86669
2024-08-26T00:00:00 14.06025 88.57211
2024-08-26T01:00:00 13.56025 89.35437
2024-08-26T02:00:00 13.48025 88.57991
2024-08-26T03:00:00 13.11025 88.84253
2024-08-26T04:00:00 13.00025 89.30779
2024-08-26T05:00:00 13.22025 86.86177
2024-08-26T06:00:00 14.12025 81.95598
2024-08-26T07:00:00 15.52025 74.70322
2024-08-26T08:00:00 17.26024 68.00233
2024-08-26T09:00:00 19.03025 62.70258
2024-08-26T10:00:00 20.20025 58.36452
2024-08-26T11:00:00 21.52025 55.12534
2024-08-26T12:00:00 22.15025 52.71985
2024-08-26T13:00:00 22.75025 51.26155
2024-08-26T14:00:00 22.93024 51.61493
2024-08-26T15:00:00 23.00025 51.73562
2024-08-26T16:00:00 22.59025 52.2453
2024-08-26T17:00:00 21.98025 53.44832
2024-08-26T18:00:00 20.32025 60.15843
2024-08-26T19:00:00 18.13025 71.82654
2024-08-26T20:00:00 16.93024 76.09111
2024-08-26T21:00:00 16.70025 73.77557
2024-08-26T22:00:00 13.97025 88.15483
2024-08-26T23:00:00 13.23025 90.76255
2024-08-27T00:00:00 12.89025 92.25828
2024-08-27T01:00:00 12.56025 92.42198
2024-08-27T02:00:00 12.13025 93.82454
2024-08-27T03:00:00 11.97025 93.94157
2024-08-27T04:00:00 11.52025 95.24792
2024-08-27T05:00:00 11.50025 94.67516
2024-08-27T06:00:00 14.04025 87.11654
2024-08-27T07:00:00 16.68024 76.30138
2024-08-27T08:00:00 19.13025 69.83434
2024-08-27T09:00:00 20.89025 65.51552
2024-08-27T10:00:00 22.65025 61.37834
2024-08-27T11:00:00 23.70025 59.62922
2024-08-27T12:00:00 24.64025 56.78051
2024-08-27T13:00:00 25.43024 54.36526
2024-08-27T14:00:00 26.18024 52.0568
2024-08-27T15:00:00 26.55025 50.7957
2024-08-27T16:00:00 26.37025 50.97821
2024-08-27T17:00:00 25.47025 55.89804
2024-08-27T18:00:00 22.43024 68.07474
2024-08-27T19:00:00 20.31025 75.31416
2024-08-27T20:00:00 19.06025 81.52629
2024-08-27T21:00:00 18.20025 85.12124
2024-08-27T22:00:00 17.54025 84.55766
2024-08-27T23:00:00 16.73025 87.76889
2024-08-28T00:00:00 16.00025 90.01688
2024-08-28T01:00:00 15.71025 90.81928
2024-08-28T02:00:00 15.44025 91.75229
2024-08-28T03:00:00 15.46025 91.45525
2024-08-28T04:00:00 15.20025 92.15705
2024-08-28T05:00:00 14.91025 93.71726
2024-08-28T06:00:00 16.34025 91.21597
2024-08-28T07:00:00 19.21025 82.38631
2024-08-28T08:00:00 21.99025 74.67908
2024-08-28T09:00:00 24.54025 67.12093
2024-08-28T10:00:00 27.14025 57.92929
2024-08-28T11:00:00 28.98025 51.65006
2024-08-28T12:00:00 30.40025 46.00619
2024-08-28T13:00:00 31.35025 41.64319
2024-08-28T14:00:00 31.92025 38.22685
2024-08-28T15:00:00 32.08025 36.96669
2024-08-28T16:00:00 31.55025 37.39516
2024-08-28T17:00:00 30.08025 39.98489
2024-08-28T18:00:00 27.66025 49.57156
2024-08-28T19:00:00 25.45025 57.26986
2024-08-28T20:00:00 22.63025 68.94601
2024-08-28T21:00:00 21.29025 76.68417
2024-08-28T22:00:00 20.59025 78.20782
2024-08-28T23:00:00 19.84025 80.79489
2024-08-29T00:00:00 19.29025 82.39602
2024-08-29T01:00:00 18.40025 87.80264
2024-08-29T02:00:00 17.52025 90.76637
2024-08-29T03:00:00 17.10025 92.68361
2024-08-29T04:00:00 16.74025 93.7436
2024-08-29T05:00:00 16.77025 94.04669
2024-08-29T06:00:00 18.66025 85.82661
2024-08-29T07:00:00 21.92025 75.33431
2024-08-29T08:00:00 25.19025 64.51337
2024-08-29T09:00:00 27.99025 55.6287
2024-08-29T10:00:00 29.63025 50.87894
2024-08-29T11:00:00 31.03025 46.78877
2024-08-29T12:00:00 32.01025 42.51716
2024-08-29T13:00:00 32.52025 39.00888
2024-08-29T14:00:00 32.50025 36.86894
2024-08-29T15:00:00 32.35025 36.54461
2024-08-29T16:00:00 31.73025 38.81686
2024-08-29T17:00:00 30.26024 44.58744
2024-08-29T18:00:00 27.40025 50.5615
2024-08-29T19:00:00 25.68024 58.02413
2024-08-29T20:00:00 23.76024 67.77621
2024-08-29T21:00:00 21.58025 78.74864
2024-08-29T22:00:00 19.89025 87.3198
2024-08-29T23:00:00 19.21025 89.22186
2024-08-30T00:00:00 18.56025 91.88063
2024-08-30T01:00:00 18.11025 93.80543
2024-08-30T02:00:00 17.90025 93.91571
2024-08-30T03:00:00 17.78025 93.43254
2024-08-30T04:00:00 17.66025 92.18134
2024-08-30T05:00:00 17.73025 90.72224
2024-08-30T06:00:00 19.22025 88.26479
2024-08-30T07:00:00 22.40025 74.46285
2024-08-30T08:00:00 24.91025 65.15044
2024-08-30T09:00:00 27.10025 57.88331
2024-08-30T10:00:00 28.44025 54.97294
2024-08-30T11:00:00 29.89025 50.94537
2024-08-30T12:00:00 30.74025 48.11569
2024-08-30T13:00:00 31.53025 44.92817
2024-08-30T14:00:00 31.57025 44.51568
2024-08-30T15:00:00 31.46025 44.12226
2024-08-30T16:00:00 30.72025 47.41905
2024-08-30T17:00:00 28.59025 53.4742
2024-08-30T18:00:00 26.68024 61.0818
2024-08-30T19:00:00 24.25025 75.89103
2024-08-30T20:00:00 22.73025 83.94325
2024-08-30T21:00:00 21.91025 87.82095
2024-08-30T22:00:00 22.82025 76.91662
2024-08-30T23:00:00 22.15025 78.87829
2024-08-31T00:00:00 21.58025 81.78864
2024-08-31T01:00:00 20.31025 87.74302
2024-08-31T02:00:00 19.62025 90.15992
2024-08-31T03:00:00 19.04025 92.54997
2024-08-31T04:00:00 18.82025 93.1264
2024-08-31T05:00:00 18.09025 96.03524
2024-08-31T06:00:00 19.19025 93.32065
2024-08-31T07:00:00 21.17025 83.98571
2024-08-31T08:00:00 23.39025 74.48437
2024-08-31T09:00:00 25.66025 64.89755
2024-08-31T10:00:00 27.64025 56.92639
2024-08-31T11:00:00 29.21025 51.83899
2024-08-31T12:00:00 30.23025 49.17618
2024-08-31T13:00:00 31.09025 46.39383
2024-08-31T14:00:00 31.12025 45.24554
2024-08-31T15:00:00 30.81025 46.43674
2024-08-31T16:00:00 30.17025 48.88273
2024-08-31T17:00:00 28.73025 54.25467
2024-08-31T18:00:00 25.96025 67.15089
2024-08-31T19:00:00 25.07025 70.15453
2024-08-31T20:00:00 24.35025 72.93468
2024-08-31T21:00:00 21.83025 84.74385
2024-08-31T22:00:00 20.94025 88.34813
2024-08-31T23:00:00 20.42025 90.2141
2024-09-01T00:00:00 19.84025 91.77947
2024-09-01T01:00:00 19.37025 93.38775
2024-09-01T02:00:00 18.96025 94.37716
2024-09-01T03:00:00 18.44025 94.95664
2024-09-01T04:00:00 18.10025 95.61
2024-09-01T05:00:00 17.99025 95.42461
2024-09-01T06:00:00 19.51024 90.43774
2024-09-01T07:00:00 22.26024 80.49657
2024-09-01T08:00:00 24.70025 71.37083
2024-09-01T09:00:00 26.87025 64.02168
2024-09-01T10:00:00 28.58025 61.27559
2024-09-01T11:00:00 29.88025 56.11908
2024-09-01T12:00:00 30.70025 52.5403
2024-09-01T13:00:00 30.50025 51.45305
2024-09-01T14:00:00 29.77025 50.62737
2024-09-01T15:00:00 28.83025 52.07021
2024-09-01T16:00:00 28.23025 55.16404
2024-09-01T17:00:00 27.49025 57.68429
2024-09-01T18:00:00 25.08025 72.42472
2024-09-01T19:00:00 24.08025 71.17019
2024-09-01T20:00:00 22.71025 79.05506
2024-09-01T21:00:00 21.20025 84.14774
2024-09-01T22:00:00 20.53025 89.15192
2024-09-01T23:00:00 19.25025 94.26946
2024-09-02T00:00:00 18.83025 95.93399
2024-09-02T01:00:00 19.06025 96.0006
2024-09-02T02:00:00 18.76024 96.29591
2024-09-02T03:00:00 18.85025 96.05557
2024-09-02T04:00:00 18.74025 95.81051
2024-09-02T05:00:00 18.29025 96.52832
2024-09-02T06:00:00 18.60025 95.38358
2024-09-02T07:00:00 19.62025 91.76698
2024-09-02T08:00:00 20.92025 84.91678
2024-09-02T09:00:00 22.59025 77.22164
2024-09-02T10:00:00 24.19025 72.77048
2024-09-02T11:00:00 25.58025 67.20158
2024-09-02T12:00:00 26.43024 61.56578
2024-09-02T13:00:00 26.86025 58.193
2024-09-02T14:00:00 27.45025 56.52321
2024-09-02T15:00:00 27.56025 55.66439
2024-09-02T16:00:00 26.94025 58.13841
2024-09-02T17:00:00 25.67025 61.90273
2024-09-02T18:00:00 24.41025 65.08685
2024-09-02T19:00:00 22.93024 72.7361
2024-09-02T20:00:00 21.51024 80.90811
2024-09-02T21:00:00 20.56025 84.61191
2024-09-02T22:00:00 21.13025 78.78497
2024-09-02T23:00:00 19.74025 86.80994
2024-09-03T00:00:00 19.34025 88.49902
2024-09-03T01:00:00 19.06025 89.55109
2024-09-03T02:00:00 18.62025 91.18613
2024-09-03T03:00:00 18.08025 93.44663
2024-09-03T04:00:00 17.77025 94.33003
2024-09-03T05:00:00 18.05025 93.80276
2024-09-03T06:00:00 19.09025 89.72398
2024-09-03T07:00:00 21.08025 82.66209
2024-09-03T08:00:00 23.29025 74.468
2024-09-03T09:00:00 25.34025 67.11179
2024-09-03T10:00:00 26.70025 60.85632
2024-09-03T11:00:00 27.76024 54.52939
2024-09-03T12:00:00 28.63025 48.29421
2024-09-03T13:00:00 29.17025 44.06539
2024-09-03T14:00:00 29.16025 42.80409
2024-09-03T15:00:00 28.01024 41.20481
2024-09-03T16:00:00 26.65025 42.86433
2024-09-03T17:00:00 25.26024 52.83525
2024-09-03T18:00:00 22.33025 65.3141
2024-09-03T19:00:00 21.41025 72.65503
2024-09-03T20:00:00 21.74025 72.11195
2024-09-03T21:00:00 20.65025 79.32085
2024-09-03T22:00:00 20.75025 78.08164
2024-09-03T23:00:00 20.86025 78.2969
2024-09-04T00:00:00 20.87025 78.89856
2024-09-04T01:00:00 20.45025 82.64024
2024-09-04T02:00:00 19.51024 88.00913
2024-09-04T03:00:00 19.28025 89.73766
2024-09-04T04:00:00 18.91025 92.13385
2024-09-04T05:00:00 18.82025 93.06747
2024-09-04T06:00:00 19.42025 89.69091
2024-09-04T07:00:00 20.25025 86.74677
2024-09-04T08:00:00 21.01024 83.0201
2024-09-04T09:00:00 22.13025 77.39703
2024-09-04T10:00:00 22.45025 77.98261
2024-09-04T11:00:00 23.37025 72.40025
2024-09-04T12:00:00 24.29025 66.18517
2024-09-04T13:00:00 24.69025 62.11719
2024-09-04T14:00:00 24.86025 60.97952
2024-09-04T15:00:00 25.26024 59.45997
2024-09-04T16:00:00 25.01024 60.47209
2024-09-04T17:00:00 23.94025 65.48587
2024-09-04T18:00:00 22.38025 73.94239
2024-09-04T19:00:00 21.54025 78.99256
2024-09-04T20:00:00 20.85025 83.26439
2024-09-04T21:00:00 20.67025 84.89104
2024-09-04T22:00:00 19.97025 88.32598
2024-09-04T23:00:00 19.64025 90.27523
2024-09-05T00:00:00 19.59025 90.38597
2024-09-05T01:00:00 19.41025 91.58132
2024-09-05T02:00:00 19.24025 91.7452
2024-09-05T03:00:00 19.21025 90.70446
2024-09-05T04:00:00 18.89025 91.60871
2024-09-05T05:00:00 18.73025 92.18234
2024-09-05T06:00:00 19.12025 90.75608
2024-09-05T07:00:00 19.78025 88.4783
2024-09-05T08:00:00 20.62025 84.67168
2024-09-05T09:00:00 21.53025 79.94587
2024-09-05T10:00:00 22.04025 77.62853
2024-09-05T11:00:00 23.38025 72.49338
2024-09-05T12:00:00 23.80025 71.74943
2024-09-05T13:00:00 22.57025 74.9632
2024-09-05T14:00:00 20.99025 80.27969
2024-09-05T15:00:00 19.48025 82.31372
2024-09-05T16:00:00 18.51024 85.64674
2024-09-05T17:00:00 17.81025 88.43035
2024-09-05T18:00:00 17.12025 91.67806
2024-09-05T19:00:00 16.81025 91.65909
2024-09-05T20:00:00 16.68024 91.71022
2024-09-05T21:00:00 16.47025 92.58973
2024-09-05T22:00:00 16.41025 91.99036
2024-09-05T23:00:00 16.16025 92.63243
2024-09-06T00:00:00 16.01025 92.68414
2024-09-06T01:00:00 15.72025 93.15038
2024-09-06T02:00:00 15.39025 93.55792
2024-09-06T03:00:00 14.98025 94.51794
2024-09-06T04:00:00 14.57025 95.0574
2024-09-06T05:00:00 14.26025 94.85868
2024-09-06T06:00:00 14.74025 92.73405
2024-09-06T07:00:00 15.94025 90.30549
2024-09-06T08:00:00 17.51024 80.90399
2024-09-06T09:00:00 19.18024 74.78799
2024-09-06T10:00:00 20.48025 71.74554
2024-09-06T11:00:00 22.23025 63.79344
2024-09-06T12:00:00 23.71025 57.47598
2024-09-06T13:00:00 24.46025 55.00408
2024-09-06T14:00:00 25.06025 53.71409
2024-09-06T15:00:00 25.34025 51.87327
2024-09-06T16:00:00 25.01024 51.72033
2024-09-06T17:00:00 23.41025 60.56879
2024-09-06T18:00:00 19.93024 75.39759
2024-09-06T19:00:00 18.50025 81.98169
2024-09-06T20:00:00 17.53025 87.21918
2024-09-06T21:00:00 16.60025 91.4098
2024-09-06T22:00:00 17.02025 88.47836
2024-09-06T23:00:00 16.55025 90.0575
2024-09-07T00:00:00 15.24025 94.89826
2024-09-07T01:00:00 14.61025 97.0628
2024-09-07T02:00:00 14.41025 96.36397
2024-09-07T03:00:00 14.39025 95.9866
2024-09-07T04:00:00 14.20025 96.98951
2024-09-07T05:00:00 13.95025 97.04672
2024-09-07T06:00:00 15.65025 93.9355
2024-09-07T07:00:00 18.25025 85.84068
2024-09-07T08:00:00 21.02025 77.72437
2024-09-07T09:00:00 23.42025 69.494
2024-09-07T10:00:00 25.05025 66.04855
2024-09-07T11:00:00 26.69025 59.52759
2024-09-07T12:00:00 27.66025 54.26362
2024-09-07T13:00:00 28.51024 51.23715
2024-09-07T14:00:00 28.96025 49.75264
2024-09-07T15:00:00 28.99025 47.59445
2024-09-07T16:00:00 28.29025 47.65204
2024-09-07T17:00:00 25.93024 59.31393
2024-09-07T18:00:00 23.04025 68.76238
2024-09-07T19:00:00 21.80025 74.3635
2024-09-07T20:00:00 20.92025 80.11776
2024-09-07T21:00:00 20.24025 83.45917
2024-09-07T22:00:00 20.61025 85.09953
2024-09-07T23:00:00 20.20025 85.97782
2024-09-08T00:00:00 19.49025 87.39536
2024-09-08T01:00:00 19.18024 88.8804
2024-09-08T02:00:00 18.97025 89.60137
2024-09-08T03:00:00 19.06025 87.7476
2024-09-08T04:00:00 18.74025 87.10605
2024-09-08T05:00:00 18.43024 85.8587
2024-09-08T06:00:00 18.38025 83.62089
2024-09-08T07:00:00 18.46025 80.82078
2024-09-08T08:00:00 18.73025 77.68076
2024-09-08T09:00:00 19.37025 74.04804
2024-09-08T10:00:00 20.70025 68.47781
2024-09-08T11:00:00 20.91025 67.20087
2024-09-08T12:00:00 20.59025 66.39647
2024-09-08T13:00:00 20.46025 68.92019
2024-09-08T14:00:00 19.88025 70.39056
2024-09-08T15:00:00 19.26024 72.55271
2024-09-08T16:00:00 18.82025 73.32932
2024-09-08T17:00:00 18.15025 74.7114
2024-09-08T18:00:00 17.18024 83.31889
2024-09-08T19:00:00 16.11025 87.54192
2024-09-08T20:00:00 15.56025 89.69094
2024-09-08T21:00:00 15.42025 91.93049
2024-09-08T22:00:00 15.41025 95.89455
2024-09-08T23:00:00 15.76025 95.16453
2024-09-09T00:00:00 15.90025 95.0468
2024-09-09T01:00:00 15.96025 93.2835
2024-09-09T02:00:00 15.76025 92.55013
2024-09-09T03:00:00 15.70025 90.81857
2024-09-09T04:00:00 15.37025 90.73648
2024-09-09T05:00:00 15.25025 89.90174
2024-09-09T06:00:00 15.35025 88.85744
2024-09-09T07:00:00 15.62025 88.53234
2024-09-09T08:00:00 15.78025 89.24155
2024-09-09T09:00:00 16.26025 90.03616
2024-09-09T10:00:00 17.35025 84.48198
2024-09-09T11:00:00 17.85025 83.66781
2024-09-09T12:00:00 18.24025 82.69321
2024-09-09T13:00:00 18.82025 76.993
2024-09-09T14:00:00 19.55025 73.83942
2024-09-09T15:00:00 18.43024 76.73232
2024-09-09T16:00:00 18.39025 80.18672
2024-09-09T17:00:00 18.01024 83.25502
2024-09-09T18:00:00 17.05025 87.40076
2024-09-09T19:00:00 16.92025 86.26341
2024-09-09T20:00:00 16.85025 87.09975
2024-09-09T21:00:00 16.65025 86.62971
2024-09-09T22:00:00 16.57025 86.11643
2024-09-09T23:00:00 16.16025 87.66061
2024-09-10T00:00:00 16.01025 87.76134
2024-09-10T01:00:00 15.87025 87.92063
2024-09-10T02:00:00 15.72025 88.25236
2024-09-10T03:00:00 15.64025 89.17208
2024-09-10T04:00:00 15.52025 88.69755
2024-09-10T05:00:00 15.04025 91.30841
2024-09-10T06:00:00 15.20025 90.1334
2024-09-10T07:00:00 15.59025 88.1257
2024-09-10T08:00:00 15.85025 85.31418
2024-09-10T09:00:00 16.02025 81.55661
2024-09-10T10:00:00 16.86025 74.8353
2024-09-10T11:00:00 17.37025 69.81059
2024-09-10T12:00:00 17.86025 65.42053
2024-09-10T13:00:00 18.21025 63.90482
2024-09-10T14:00:00 18.13025 64.27104
2024-09-10T15:00:00 18.00025 63.01025
2024-09-10T16:00:00 17.43024 63.55756
2024-09-10T17:00:00 16.39025 65.80112
2024-09-10T18:00:00 15.02025 70.42355
2024-09-10T19:00:00 13.98025 75.13908
2024-09-10T20:00:00 13.38025 78.45995
2024-09-10T21:00:00 13.28025 80.26347
2024-09-10T22:00:00 12.98025 81.25468
2024-09-10T23:00:00 13.05025 80.447
2024-09-11T00:00:00 13.05025 80.50126
2024-09-11T01:00:00 13.23025 78.96802
2024-09-11T02:00:00 13.79025 74.80188
2024-09-11T03:00:00 14.03025 74.39067
2024-09-11T04:00:00 14.24025 73.47978
2024-09-11T05:00:00 14.11025 74.40492
2024-09-11T06:00:00 14.21025 75.02725
2024-09-11T07:00:00 14.54025 74.18115
2024-09-11T08:00:00 15.01025 73.42257
2024-09-11T09:00:00 15.06025 75.0237
2024-09-11T10:00:00 15.27025 77.29572
2024-09-11T11:00:00 15.18025 81.8776
2024-09-11T12:00:00 14.98025 86.23706
2024-09-11T13:00:00 14.87025 87.54182
2024-09-11T14:00:00 13.88025 90.27141
2024-09-11T15:00:00 12.75025 91.88215
2024-09-11T16:00:00 11.55025 92.4827
2024-09-11T17:00:00 10.54025 90.37499
2024-09-11T18:00:00 10.29025 87.92726
2024-09-11T19:00:00 10.20025 89.42994
2024-09-11T20:00:00 9.910245 91.56363
2024-09-11T21:00:00 9.610246 93.36955
2024-09-11T22:00:00 9.210245 91.82652
2024-09-11T23:00:00 9.310246 90.2135
2024-09-12T00:00:00 9.310246 89.65859
2024-09-12T01:00:00 8.970245 90.80691
2024-09-12T02:00:00 8.630245 92.86351
2024-09-12T03:00:00 8.420245 94.07055
2024-09-12T04:00:00 8.330246 94.25969
2024-09-12T05:00:00 8.160246 95.42428
2024-09-12T06:00:00 8.460245 95.56873
2024-09-12T07:00:00 9.680245 90.98657
2024-09-12T08:00:00 10.93025 85.28056
2024-09-12T09:00:00 12.08025 80.19767
2024-09-12T10:00:00 13.04025 66.91845
2024-09-12T11:00:00 13.27025 61.67881
2024-09-12T12:00:00 13.67025 58.27276
2024-09-12T13:00:00 13.56025 57.71806
2024-09-12T14:00:00 13.63025 57.93811
2024-09-12T15:00:00 13.67025 57.82723
2024-09-12T16:00:00 13.03025 65.99909
2024-09-12T17:00:00 11.80025 72.67349
2024-09-12T18:00:00 10.14025 85.24744
2024-09-12T19:00:00 9.110246 89.45664
2024-09-12T20:00:00 8.340245 90.44402
2024-09-12T21:00:00 7.710245 91.90844
2024-09-12T22:00:00 6.990245 94.44755
2024-09-12T23:00:00 7.230245 93.87293
2024-09-13T00:00:00 7.110245 92.95728
2024-09-13T01:00:00 7.000245 93.92463
2024-09-13T02:00:00 6.840245 94.43932
2024-09-13T03:00:00 7.470245 93.62727
2024-09-13T04:00:00 7.240245 94.33028
2024-09-13T05:00:00 7.170245 94.9827
2024-09-13T06:00:00 7.810246 93.06715
2024-09-13T07:00:00 8.860246 89.55767
2024-09-13T08:00:00 9.810246 83.00913
2024-09-13T09:00:00 10.57025 77.69106
2024-09-13T10:00:00 11.59025 75.69814
2024-09-13T11:00:00 12.49025 71.96104
2024-09-13T12:00:00 13.09025 69.03359
2024-09-13T13:00:00 13.46025 64.07612
2024-09-13T14:00:00 13.64025 61.76872
2024-09-13T15:00:00 13.45025 64.42874
2024-09-13T16:00:00 13.50025 67.15747
2024-09-13T17:00:00 12.28025 71.52547
2024-09-13T18:00:00 10.87025 81.12396
2024-09-13T19:00:00 10.01025 86.34976
2024-09-13T20:00:00 9.820246 89.64133
2024-09-13T21:00:00 9.730246 90.8043
2024-09-13T22:00:00 10.14025 89.54666
2024-09-13T23:00:00 9.790245 90.43797
2024-09-14T00:00:00 9.560246 91.10175
2024-09-14T01:00:00 9.720245 89.20471
2024-09-14T02:00:00 9.700245 89.69227
2024-09-14T03:00:00 9.690246 91.23604
2024-09-14T04:00:00 9.500245 92.47607
2024-09-14T05:00:00 9.640245 90.79729
2024-09-14T06:00:00 9.590245 90.42186
2024-09-14T07:00:00 10.31025 89.37865
2024-09-14T08:00:00 11.45025 84.64801
2024-09-14T09:00:00 12.28025 74.43058
2024-09-14T10:00:00 13.12025 68.37918
2024-09-14T11:00:00 13.75025 61.36898
2024-09-14T12:00:00 14.42025 57.2997
2024-09-14T13:00:00 14.89025 54.28057
2024-09-14T14:00:00 14.82025 53.95986
2024-09-14T15:00:00 14.59025 54.65575
2024-09-14T16:00:00 14.28025 55.41811
2024-09-14T17:00:00 13.20025 58.76535
2024-09-14T18:00:00 11.51025 66.16171
2024-09-14T19:00:00 10.16025 73.78324
2024-09-14T20:00:00 8.890245 81.23179
2024-09-14T21:00:00 7.600246 88.26958
2024-09-14T22:00:00 6.820245 93.13257
2024-09-14T23:00:00 6.380245 93.23409
2024-09-15T00:00:00 6.150245 93.74275
2024-09-15T01:00:00 5.860245 93.98824
2024-09-15T02:00:00 5.310246 94.4194
2024-09-15T03:00:00 4.850246 95.66808
2024-09-15T04:00:00 4.570245 95.6544
2024-09-15T05:00:00 4.300245 96.80003
2024-09-15T06:00:00 5.380245 95.96281
2024-09-15T07:00:00 8.430245 87.92427
2024-09-15T08:00:00 10.95025 77.2197
2024-09-15T09:00:00 13.13025 62.50768
2024-09-15T10:00:00 14.51025 55.86708
2024-09-15T11:00:00 15.53025 51.93854
2024-09-15T12:00:00 16.38025 50.07903
2024-09-15T13:00:00 16.80025 49.50439
2024-09-15T14:00:00 17.27025 47.74589
2024-09-15T15:00:00 17.19025 47.59069
2024-09-15T16:00:00 16.49025 49.76257
2024-09-15T17:00:00 14.59025 55.9271
2024-09-15T18:00:00 12.10025 69.01609
2024-09-15T19:00:00 10.02025 80.16707
2024-09-15T20:00:00 8.650246 86.85832
2024-09-15T21:00:00 9.620245 80.49648
2024-09-15T22:00:00 9.030245 83.71416
2024-09-15T23:00:00 8.750245 84.20262
2024-09-16T00:00:00 7.990245 88.4309
2024-09-16T01:00:00 8.450246 87.0175
2024-09-16T02:00:00 7.900245 88.60658
2024-09-16T03:00:00 8.070246 87.76595
2024-09-16T04:00:00 8.170245 87.53284
2024-09-16T05:00:00 8.160246 88.0191
2024-09-16T06:00:00 8.660245 85.96188
2024-09-16T07:00:00 9.610246 85.89161
2024-09-16T08:00:00 11.11025 83.46267
2024-09-16T09:00:00 12.73025 78.99854
2024-09-16T10:00:00 14.16025 71.74534
2024-09-16T11:00:00 14.93025 67.23752
2024-09-16T12:00:00 15.46025 63.53397
2024-09-16T13:00:00 15.27025 65.19815
2024-09-16T14:00:00 14.93025 68.15603
2024-09-16T15:00:00 14.11025 76.02756
2024-09-16T16:00:00 13.39025 84.42069
2024-09-16T17:00:00 12.96025 89.30445
2024-09-16T18:00:00 12.44025 94.96999
2024-09-16T19:00:00 12.22025 97.38833
2024-09-16T20:00:00 12.15025 98.3604
2024-09-16T21:00:00 12.25025 98.62299
2024-09-16T22:00:00 12.41025 94.46516
2024-09-16T23:00:00 12.29025 97.19651
2024-09-17T00:00:00 12.32025 97.39077
2024-09-17T01:00:00 12.45025 97.97582
2024-09-17T02:00:00 12.47025 97.71726
2024-09-17T03:00:00 12.59025 97.33291
2024-09-17T04:00:00 12.72025 97.01497
2024-09-17T05:00:00 12.84025 95.80761
2024-09-17T06:00:00 12.90025 94.92669
2024-09-17T07:00:00 12.99025 94.74233
2024-09-17T08:00:00 13.04025 95.7515
2024-09-17T09:00:00 13.13025 96.13451
2024-09-17T10:00:00 13.84025 92.86586
2024-09-17T11:00:00 14.94025 88.76473
2024-09-17T12:00:00 16.13025 84.12483
2024-09-17T13:00:00 17.19025 80.91391
2024-09-17T14:00:00 18.11025 76.23291
2024-09-17T15:00:00 18.05025 73.77073
2024-09-17T16:00:00 18.03025 72.47176
2024-09-17T17:00:00 17.10025 76.62101
2024-09-17T18:00:00 15.56025 83.01444
2024-09-17T19:00:00 14.89025 84.64942
2024-09-17T20:00:00 14.42025 84.59599
2024-09-17T21:00:00 14.02025 82.93285
2024-09-17T22:00:00 13.40025 85.27225
2024-09-17T23:00:00 12.88025 86.19045
2024-09-18T00:00:00 12.16025 87.63356
2024-09-18T01:00:00 11.71025 88.36092
2024-09-18T02:00:00 11.45025 89.11536
2024-09-18T03:00:00 11.84025 87.72061
2024-09-18T04:00:00 12.19025 86.17498
2024-09-18T05:00:00 12.38025 85.21502
2024-09-18T06:00:00 11.45025 89.29588
2024-09-18T07:00:00 14.08025 81.62311
2024-09-18T08:00:00 16.01025 76.14111
2024-09-18T09:00:00 17.74025 67.06941
2024-09-18T10:00:00 18.61025 62.98211
2024-09-18T11:00:00 19.70025 58.82596
2024-09-18T12:00:00 20.61025 53.91256
2024-09-18T13:00:00 21.47025 50.92023
2024-09-18T14:00:00 22.01024 49.75505
2024-09-18T15:00:00 22.22025 48.62982
2024-09-18T16:00:00 21.53025 52.83743
2024-09-18T17:00:00 19.66025 60.84235
2024-09-18T18:00:00 18.44025 64.81204
2024-09-18T19:00:00 16.83025 72.01147
2024-09-18T20:00:00 14.37025 82.48153
2024-09-18T21:00:00 13.21025 86.91873
2024-09-18T22:00:00 12.65025 88.38765
2024-09-18T23:00:00 12.50025 88.49246
2024-09-19T00:00:00 12.75025 87.0471
2024-09-19T01:00:00 13.08025 86.0388
2024-09-19T02:00:00 12.32025 88.12083
2024-09-19T03:00:00 11.54025 90.88064
2024-09-19T04:00:00 10.37025 93.85722
2024-09-19T05:00:00 9.990245 94.34695
2024-09-19T06:00:00 10.57025 94.12181
2024-09-19T07:00:00 13.32025 85.94946
2024-09-19T08:00:00 15.79025 76.40868
2024-09-19T09:00:00 17.84025 68.89359
2024-09-19T10:00:00 19.37025 62.7389
2024-09-19T11:00:00 20.74025 55.3291
2024-09-19T12:00:00 21.60025 51.91506
2024-09-19T13:00:00 22.06025 51.11201
2024-09-19T14:00:00 22.33025 51.28588
2024-09-19T15:00:00 22.45025 51.45392
2024-09-19T16:00:00 21.95025 56.74527
2024-09-19T17:00:00 19.45025 65.29111
2024-09-19T18:00:00 16.43025 76.31097
2024-09-19T19:00:00 15.30025 81.51508
2024-09-19T20:00:00 13.63025 88.35826
2024-09-19T21:00:00 12.64025 92.36543
2024-09-19T22:00:00 11.90025 94.69357
2024-09-19T23:00:00 11.35025 95.62419
2024-09-20T00:00:00 10.96025 95.54452
2024-09-20T01:00:00 10.60025 95.5942
2024-09-20T02:00:00 10.30025 95.58192
2024-09-20T03:00:00 10.15025 95.0601
2024-09-20T04:00:00 10.00025 94.60359
2024-09-20T05:00:00 10.08025 94.35152
2024-09-20T06:00:00 10.68025 94.82802
2024-09-20T07:00:00 13.06025 88.71988
2024-09-20T08:00:00 15.65025 81.40025
2024-09-20T09:00:00 17.86025 77.34581
2024-09-20T10:00:00 19.39025 73.85964
2024-09-20T11:00:00 21.10025 65.90182
2024-09-20T12:00:00 22.40025 59.09039
2024-09-20T13:00:00 23.37025 54.23103
2024-09-20T14:00:00 23.70025 51.24261
2024-09-20T15:00:00 23.45025 51.88798
2024-09-20T16:00:00 22.95025 53.17266
2024-09-20T17:00:00 20.40025 63.0144
2024-09-20T18:00:00 17.28025 77.96749
2024-09-20T19:00:00 15.65025 84.84609
2024-09-20T20:00:00 14.41025 90.60867
2024-09-20T21:00:00 13.08025 94.24643
2024-09-20T22:00:00 12.28025 96.04208
2024-09-20T23:00:00 11.61025 98.22011
2024-09-21T00:00:00 11.48025 97.69512
2024-09-21T01:00:00 11.29025 96.84552
2024-09-21T02:00:00 11.23025 95.61945
2024-09-21T03:00:00 11.14025 94.91285
2024-09-21T04:00:00 10.81025 94.57903
2024-09-21T05:00:00 10.65025 94.25301
2024-09-21T06:00:00 11.08025 94.84643
2024-09-21T07:00:00 13.41025 89.16415
2024-09-21T08:00:00 16.29025 81.8602
2024-09-21T09:00:00 18.91025 74.64545
2024-09-21T10:00:00 20.50025 69.96307
2024-09-21T11:00:00 22.00025 63.4957
2024-09-21T12:00:00 23.10025 58.95064
2024-09-21T13:00:00 23.66025 54.34031
2024-09-21T14:00:00 24.04025 52.52051
2024-09-21T15:00:00 23.67025 53.5332
2024-09-21T16:00:00 22.98025 55.85881
2024-09-21T17:00:00 19.81025 70.19432
2024-09-21T18:00:00 17.71025 78.54339
2024-09-21T19:00:00 17.03025 80.62862
2024-09-21T20:00:00 14.85025 88.99059
2024-09-21T21:00:00 13.18025 94.25115
2024-09-21T22:00:00 12.36025 95.59957
2024-09-21T23:00:00 12.00025 96.8664
2024-09-22T00:00:00 11.57025 97.04791
2024-09-22T01:00:00 11.34025 96.00859
2024-09-22T02:00:00 11.40025 94.73396
2024-09-22T03:00:00 11.25025 95.04517
2024-09-22T04:00:00 11.13025 96.12969
2024-09-22T05:00:00 11.06025 97.4893
2024-09-22T06:00:00 11.65025 97.05014
2024-09-22T07:00:00 13.68025 92.67321
2024-09-22T08:00:00 16.51025 85.32886
2024-09-22T09:00:00 19.16025 77.59526
2024-09-22T10:00:00 20.86025 69.26723
2024-09-22T11:00:00 22.04025 63.13538
2024-09-22T12:00:00 22.46025 61.13621
2024-09-22T13:00:00 22.88025 58.89812
2024-09-22T14:00:00 23.05025 57.80167
2024-09-22T15:00:00 22.81025 58.80491
2024-09-22T16:00:00 21.43024 65.88609
2024-09-22T17:00:00 19.63025 74.09261
2024-09-22T18:00:00 17.79025 87.41151
2024-09-22T19:00:00 17.29025 90.51785
2024-09-22T20:00:00 16.44025 93.91101
2024-09-22T21:00:00 15.88025 96.84192
2024-09-22T22:00:00 15.93025 96.03474
2024-09-22T23:00:00 15.45025 97.08235
2024-09-23T00:00:00 14.88025 97.19539
2024-09-23T01:00:00 14.79025 96.81493
2024-09-23T02:00:00 14.92025 96.12853
2024-09-23T03:00:00 14.77025 96.3745
2024-09-23T04:00:00 14.74025 96.37364
2024-09-23T05:00:00 14.94025 96.3168
2024-09-23T06:00:00 15.26025 95.76543
2024-09-23T07:00:00 15.72025 94.4268
2024-09-23T08:00:00 16.25025 93.59981
2024-09-23T09:00:00 16.74025 92.48537
2024-09-23T10:00:00 17.20025 87.18874
2024-09-23T11:00:00 17.03025 88.65083
2024-09-23T12:00:00 16.86025 90.83884
2024-09-23T13:00:00 16.38025 91.04169
2024-09-23T14:00:00 16.12025 90.14278
2024-09-23T15:00:00 15.90025 89.13501
2024-09-23T16:00:00 15.69025 89.64252
2024-09-23T17:00:00 15.26025 92.22076
2024-09-23T18:00:00 13.85025 96.4736
2024-09-23T19:00:00 13.51025 97.03562
2024-09-23T20:00:00 13.20025 97.15548
2024-09-23T21:00:00 12.87025 97.46824
2024-09-23T22:00:00 12.64025 97.9148
2024-09-23T23:00:00 12.28025 99.21258
2024-09-24T00:00:00 12.11025 98.49023
2024-09-24T01:00:00 12.51025 96.88094
2024-09-24T02:00:00 13.10025 94.62197
2024-09-24T03:00:00 13.24025 93.20077
2024-09-24T04:00:00 13.44025 91.50208
2024-09-24T05:00:00 13.58025 90.24864
2024-09-24T06:00:00 13.82025 89.08047
2024-09-24T07:00:00 14.37025 87.66839
2024-09-24T08:00:00 15.07025 85.1737
2024-09-24T09:00:00 16.25025 79.05118
2024-09-24T10:00:00 17.26024 67.59582
2024-09-24T11:00:00 17.59025 61.74429
2024-09-24T12:00:00 18.36025 58.02574
2024-09-24T13:00:00 18.60025 56.73379
2024-09-24T14:00:00 18.47025 58.32708
2024-09-24T15:00:00 18.47025 61.25161
2024-09-24T16:00:00 17.91025 64.22173
2024-09-24T17:00:00 16.53025 69.45757
2024-09-24T18:00:00 15.27025 75.51258
2024-09-24T19:00:00 14.61025 78.38667
2024-09-24T20:00:00 14.03025 80.58629
2024-09-24T21:00:00 13.72025 82.1775
2024-09-24T22:00:00 13.93025 80.73417
2024-09-24T23:00:00 13.56025 83.2081
2024-09-25T00:00:00 13.58025 83.65685
2024-09-25T01:00:00 13.51025 83.76027
2024-09-25T02:00:00 13.56025 84.83604
2024-09-25T03:00:00 13.85025 83.18862
2024-09-25T04:00:00 13.89025 83.24912
2024-09-25T05:00:00 13.78025 83.45805
2024-09-25T06:00:00 14.07025 82.27812
2024-09-25T07:00:00 15.26025 79.37736
2024-09-25T08:00:00 16.72025 73.53519
2024-09-25T09:00:00 17.94025 70.20045
2024-09-25T10:00:00 18.95025 66.79313
2024-09-25T11:00:00 19.82025 63.46576
2024-09-25T12:00:00 19.95025 58.92608
2024-09-25T13:00:00 19.94025 56.73053
2024-09-25T14:00:00 20.04025 54.05288
2024-09-25T15:00:00 18.97025 56.03095
2024-09-25T16:00:00 18.36025 56.29128
2024-09-25T17:00:00 17.43024 58.93905
2024-09-25T18:00:00 16.39025 67.2319
2024-09-25T19:00:00 16.25025 70.10121
2024-09-25T20:00:00 15.42025 78.61464
2024-09-25T21:00:00 15.24025 83.80045
2024-09-25T22:00:00 15.31025 84.41834
2024-09-25T23:00:00 15.16025 86.65331
2024-09-26T00:00:00 15.05025 87.61615
2024-09-26T01:00:00 14.75025 91.1695
2024-09-26T02:00:00 14.97025 91.90268
2024-09-26T03:00:00 16.05025 87.8794
2024-09-26T04:00:00 16.85025 87.32585
2024-09-26T05:00:00 17.47025 87.38255
2024-09-26T06:00:00 17.67025 87.34441
2024-09-26T07:00:00 17.68024 88.19243
2024-09-26T08:00:00 17.74025 88.93715
2024-09-26T09:00:00 17.65025 88.98715
2024-09-26T10:00:00 17.88025 90.26891
2024-09-26T11:00:00 17.53025 92.52869
2024-09-26T12:00:00 17.39025 93.41402
2024-09-26T13:00:00 16.97025 92.49808
2024-09-26T14:00:00 16.47025 92.6495
2024-09-26T15:00:00 15.96025 93.70702
2024-09-26T16:00:00 16.22025 90.38429
2024-09-26T17:00:00 16.37025 86.37713
2024-09-26T18:00:00 16.51025 84.05847
2024-09-26T19:00:00 16.90025 82.42134
2024-09-26T20:00:00 17.04025 80.52467
2024-09-26T21:00:00 16.43025 79.75668
2024-09-26T22:00:00 16.45025 79.49778
2024-09-26T23:00:00 16.10025 80.81958
2024-09-27T00:00:00 16.03025 81.88032
2024-09-27T01:00:00 15.54025 83.34065
2024-09-27T02:00:00 15.21025 84.18465
2024-09-27T03:00:00 14.75025 84.9138
2024-09-27T04:00:00 14.33025 85.48792
2024-09-27T05:00:00 14.06025 85.74278
2024-09-27T06:00:00 14.31025 82.96924
2024-09-27T07:00:00 15.12025 79.7797
2024-09-27T08:00:00 15.37025 76.79876
2024-09-27T09:00:00 15.72025 74.88751
2024-09-27T10:00:00 15.40025 78.03941
2024-09-27T11:00:00 15.55025 71.48169
2024-09-27T12:00:00 14.41025 73.36226
2024-09-27T13:00:00 13.18025 77.48003
2024-09-27T14:00:00 14.04025 76.42641
2024-09-27T15:00:00 14.71025 70.64796
2024-09-27T16:00:00 14.48025 70.55455
2024-09-27T17:00:00 13.93025 72.87782
2024-09-27T18:00:00 12.91025 75.41184
2024-09-27T19:00:00 12.39025 78.03918
2024-09-27T20:00:00 11.97025 79.04303
2024-09-27T21:00:00 11.30025 81.01881
2024-09-27T22:00:00 12.28025 76.28558
2024-09-27T23:00:00 12.19025 76.47897
2024-09-28T00:00:00 12.12025 77.67754
2024-09-28T01:00:00 12.06025 81.84525
2024-09-28T02:00:00 11.90025 85.622
2024-09-28T03:00:00 11.65025 88.89295
2024-09-28T04:00:00 11.41025 92.47388
2024-09-28T05:00:00 11.35025 94.22492
2024-09-28T06:00:00 11.35025 94.35139
2024-09-28T07:00:00 11.61025 92.54851
2024-09-28T08:00:00 11.88025 90.35857
2024-09-28T09:00:00 12.12025 82.24265
2024-09-28T10:00:00 12.45025 78.79491
2024-09-28T11:00:00 12.85025 74.5333
2024-09-28T12:00:00 13.33025 68.51765
2024-09-28T13:00:00 13.64025 65.36675
2024-09-28T14:00:00 13.33025 65.16148
2024-09-28T15:00:00 13.22025 64.59852
2024-09-28T16:00:00 12.88025 67.39284
2024-09-28T17:00:00 11.49025 72.96599
2024-09-28T18:00:00 9.740245 82.59998
2024-09-28T19:00:00 8.920245 86.82732
2024-09-28T20:00:00 8.120246 89.42984
2024-09-28T21:00:00 7.860245 91.15897
2024-09-28T22:00:00 8.360246 87.55248
2024-09-28T23:00:00 7.990245 87.4533
2024-09-29T00:00:00 7.870246 86.83409
2024-09-29T01:00:00 7.970245 86.12241
2024-09-29T02:00:00 6.320245 92.12745
2024-09-29T03:00:00 5.650245 94.77091
2024-09-29T04:00:00 5.070245 96.42268
2024-09-29T05:00:00 4.930245 97.16666
2024-09-29T06:00:00 5.320245 96.63659
2024-09-29T07:00:00 7.110245 92.18467
2024-09-29T08:00:00 9.170245 86.25734
2024-09-29T09:00:00 11.16025 77.89466
2024-09-29T10:00:00 12.25025 73.5125
2024-09-29T11:00:00 13.83025 64.82776
2024-09-29T12:00:00 14.90025 59.6464
2024-09-29T13:00:00 15.26025 57.75491
2024-09-29T14:00:00 15.31025 57.21254
2024-09-29T15:00:00 15.21025 59.55955
2024-09-29T16:00:00 14.41025 69.21301
2024-09-29T17:00:00 13.22025 71.02702
2024-09-29T18:00:00 11.81025 74.19205
2024-09-29T19:00:00 11.11025 79.12664
2024-09-29T20:00:00 9.790245 88.4818
2024-09-29T21:00:00 9.430245 90.34703
2024-09-29T22:00:00 8.950245 91.68212
2024-09-29T23:00:00 9.120245 91.13062
2024-09-30T00:00:00 9.330245 90.71088
2024-09-30T01:00:00 9.710245 88.53484
2024-09-30T02:00:00 10.01025 88.26102
2024-09-30T03:00:00 10.31025 89.37865
2024-09-30T04:00:00 10.45025 90.42916
2024-09-30T05:00:00 10.69025 89.89811
2024-09-30T06:00:00 10.96025 89.55607
2024-09-30T07:00:00 11.99025 87.85325
2024-09-30T08:00:00 13.93025 81.87612
2024-09-30T09:00:00 16.34025 72.01537
2024-09-30T10:00:00 17.97025 64.62178
2024-09-30T11:00:00 19.06025 60.57892
2024-09-30T12:00:00 19.37025 55.27308
2024-09-30T13:00:00 19.02025 56.64973
2024-09-30T14:00:00 19.10025 58.75736
2024-09-30T15:00:00 19.15025 59.71864
2024-09-30T16:00:00 18.34025 63.42538
2024-09-30T17:00:00 16.93024 69.86257
2024-09-30T18:00:00 15.77025 74.29982
2024-09-30T19:00:00 15.75025 74.99251
2024-09-30T20:00:00 15.76025 74.44675
2024-09-30T21:00:00 15.80025 73.76222
2024-09-30T22:00:00 15.40025 76.59933
2024-09-30T23:00:00 15.45025 75.64392
2024-10-01T00:00:00 15.38025 74.77866
2024-10-01T01:00:00 15.13025 75.99496
2024-10-01T02:00:00 14.86025 77.54034
2024-10-01T03:00:00 14.74025 78.87893
2024-10-01T04:00:00 14.45025 80.05569
2024-10-01T05:00:00 14.22025 80.34417
2024-10-01T06:00:00 14.14025 80.70959
2024-10-01T07:00:00 14.32025 80.89652
2024-10-01T08:00:00 14.93025 80.01787
2024-10-01T09:00:00 15.50025 77.02444
2024-10-01T10:00:00 16.10025 72.69383
2024-10-01T11:00:00 15.89025 70.92703
2024-10-01T12:00:00 15.49025 74.05228
2024-10-01T13:00:00 14.91025 78.43266
2024-10-01T14:00:00 14.22025 83.62299
2024-10-01T15:00:00 13.43025 90.41686
2024-10-01T16:00:00 13.02025 93.25038
2024-10-01T17:00:00 12.75025 94.98319
2024-10-01T18:00:00 12.61025 95.98988
2024-10-01T19:00:00 12.57025 96.6904
2024-10-01T20:00:00 12.51025 97.33093
2024-10-01T21:00:00 12.53025 97.46031
2024-10-01T22:00:00 12.57025 98.30243
2024-10-01T23:00:00 12.60025 98.43288
2024-10-02T00:00:00 12.65025 97.14148
2024-10-02T01:00:00 12.51025 95.9228
2024-10-02T02:00:00 12.42025 94.71708
2024-10-02T03:00:00 12.24025 93.45584
2024-10-02T04:00:00 11.99025 89.04256
2024-10-02T05:00:00 11.55025 89.30449
2024-10-02T06:00:00 11.21025 89.75895
2024-10-02T07:00:00 11.64025 87.11108
2024-10-02T08:00:00 12.29025 84.86099
2024-10-02T09:00:00 12.93025 83.52109
2024-10-02T10:00:00 13.41025 80.76947
2024-10-02T11:00:00 13.43025 77.94013
2024-10-02T12:00:00 13.56025 77.85564
2024-10-02T13:00:00 13.92025 74.42133
2024-10-02T14:00:00 13.96025 74.37818
2024-10-02T15:00:00 14.05025 76.37665
2024-10-02T16:00:00 13.87025 78.64131
2024-10-02T17:00:00 13.48025 80.2383
2024-10-02T18:00:00 12.71025 84.90937
2024-10-02T19:00:00 12.13025 87.74855
2024-10-02T20:00:00 11.85025 86.78041
2024-10-02T21:00:00 11.58025 87.93254
2024-10-02T22:00:00 11.03025 91.89056
2024-10-02T23:00:00 10.00025 96.87091
2024-10-03T00:00:00 9.870245 97.39223
2024-10-03T01:00:00 9.570246 97.97936
2024-10-03T02:00:00 9.320246 98.23967
2024-10-03T03:00:00 9.300245 97.64102
2024-10-03T04:00:00 8.980246 96.96986
2024-10-03T05:00:00 8.690246 96.69592
2024-10-03T06:00:00 9.150246 95.99017
2024-10-03T07:00:00 10.10025 92.95579
2024-10-03T08:00:00 11.22025 88.85462
2024-10-03T09:00:00 12.23025 83.77287
2024-10-03T10:00:00 12.65025 83.20566
2024-10-03T11:00:00 12.77025 82.60662
2024-10-03T12:00:00 12.99025 84.37373
2024-10-03T13:00:00 12.64025 86.57055
2024-10-03T14:00:00 12.26025 87.17343
2024-10-03T15:00:00 12.15025 86.5196
2024-10-03T16:00:00 11.75025 86.12775
2024-10-03T17:00:00 11.33025 86.4917
2024-10-03T18:00:00 11.04025 85.52561
2024-10-03T19:00:00 10.82025 85.61726
2024-10-03T20:00:00 10.48025 86.5778
2024-10-03T21:00:00 10.29025 86.26221
2024-10-03T22:00:00 10.23025 85.96111
2024-10-03T23:00:00 10.26025 85.14469
2024-10-04T00:00:00 10.17025 84.84289
2024-10-04T01:00:00 9.980246 84.99509
2024-10-04T02:00:00 9.880245 84.69175
2024-10-04T03:00:00 9.820246 85.26864
2024-10-04T04:00:00 9.650246 85.48366
2024-10-04T05:00:00 9.600245 84.89146
2024-10-04T06:00:00 9.500245 85.23115
2024-10-04T07:00:00 9.750245 84.79265
2024-10-04T08:00:00 10.45025 82.63831
2024-10-04T09:00:00 11.20025 78.22282
2024-10-04T10:00:00 12.22025 74.7262
2024-10-04T11:00:00 12.65025 71.1574
2024-10-04T12:00:00 12.94025 69.19217
2024-10-04T13:00:00 13.04025 68.73918
2024-10-04T14:00:00 12.99025 69.25015
2024-10-04T15:00:00 12.89025 72.13723
2024-10-04T16:00:00 12.28025 77.07043
2024-10-04T17:00:00 11.51025 82.60951
2024-10-04T18:00:00 11.04025 86.34347
2024-10-04T19:00:00 10.57025 89.58357
2024-10-04T20:00:00 10.19025 92.33287
2024-10-04T21:00:00 10.06025 93.206
2024-10-04T22:00:00 9.750245 94.78412
2024-10-04T23:00:00 9.470245 95.28769
2024-10-05T00:00:00 9.110246 95.72728
2024-10-05T01:00:00 8.870245 96.17577
2024-10-05T02:00:00 9.070246 96.18344
2024-10-05T03:00:00 8.700245 96.16917
2024-10-05T04:00:00 8.760245 95.64719
2024-10-05T05:00:00 8.710245 95.90698
2024-10-05T06:00:00 8.570246 96.29577
2024-10-05T07:00:00 9.330245 94.24861
2024-10-05T08:00:00 10.34025 89.50298
2024-10-05T09:00:00 11.48025 81.93329
2024-10-05T10:00:00 12.29025 80.01084
2024-10-05T11:00:00 13.28025 72.8549
2024-10-05T12:00:00 13.86025 69.80986
2024-10-05T13:00:00 14.15025 69.39516
2024-10-05T14:00:00 14.16025 69.72846
2024-10-05T15:00:00 13.94025 71.07242
2024-10-05T16:00:00 13.34025 72.71748
2024-10-05T17:00:00 10.86025 85.62177
2024-10-05T18:00:00 9.080245 92.06921
2024-10-05T19:00:00 8.740245 91.66684
2024-10-05T20:00:00 8.480246 92.4079
2024-10-05T21:00:00 6.700245 96.48916
2024-10-05T22:00:00 6.050245 96.32861
2024-10-05T23:00:00 5.840245 95.91634
2024-10-06T00:00:00 5.580246 96.57927
2024-10-06T01:00:00 5.810246 95.11227
2024-10-06T02:00:00 5.840245 94.25109
2024-10-06T03:00:00 5.740245 94.9754
2024-10-06T04:00:00 5.940245 95.71982
2024-10-06T05:00:00 6.070245 95.59216
2024-10-06T06:00:00 6.260245 95.46777
2024-10-06T07:00:00 7.610245 92.92558
2024-10-06T08:00:00 8.620245 89.66003
2024-10-06T09:00:00 9.780245 86.74022
2024-10-06T10:00:00 11.41025 83.842
2024-10-06T11:00:00 12.33025 81.54998
2024-10-06T12:00:00 14.22025 76.0461
2024-10-06T13:00:00 15.68025 70.74362
2024-10-06T14:00:00 16.51025 65.91601
2024-10-06T15:00:00 16.01025 69.86603
2024-10-06T16:00:00 15.03025 72.10593
2024-10-06T17:00:00 14.06025 79.19968
2024-10-06T18:00:00 13.51025 82.53608
2024-10-06T19:00:00 12.90025 86.36587
2024-10-06T20:00:00 12.72025 87.98122
2024-10-06T21:00:00 12.65025 89.81657
2024-10-06T22:00:00 12.39025 95.34712
2024-10-06T23:00:00 12.46025 95.92103
2024-10-07T00:00:00 12.35025 97.06929
2024-10-07T01:00:00 12.22025 97.97126
2024-10-07T02:00:00 12.41025 98.36478
2024-10-07T03:00:00 12.45025 99.08327
2024-10-07T04:00:00 12.15025 99.73807
2024-10-07T05:00:00 12.42025 99.08293
2024-10-07T06:00:00 12.73025 98.04594
2024-10-07T07:00:00 13.47025 95.70386
2024-10-07T08:00:00 14.75025 92.43179
2024-10-07T09:00:00 15.99025 89.49091
2024-10-07T10:00:00 17.10025 84.89402
2024-10-07T11:00:00 18.09025 81.08605
2024-10-07T12:00:00 19.02025 77.22369
2024-10-07T13:00:00 19.04025 76.33224
2024-10-07T14:00:00 18.71025 79.97186
2024-10-07T15:00:00 18.27025 85.953
2024-10-07T16:00:00 17.61025 88.92677
2024-10-07T17:00:00 17.24025 91.15678
2024-10-07T18:00:00 16.83025 91.83763
2024-10-07T19:00:00 16.58025 91.58574
2024-10-07T20:00:00 16.31025 93.00044
2024-10-07T21:00:00 16.05025 94.25791
2024-10-07T22:00:00 15.50025 97.52368
2024-10-07T23:00:00 15.51025 96.83296
2024-10-08T00:00:00 15.14025 96.07285
2024-10-08T01:00:00 14.71025 97.63496
2024-10-08T02:00:00 14.29025 98.52177
2024-10-08T03:00:00 14.21025 98.64928
2024-10-08T04:00:00 14.10025 98.3266
2024-10-08T05:00:00 14.09025 98.07003
2024-10-08T06:00:00 14.06025 96.47974
2024-10-08T07:00:00 14.15025 97.1151
2024-10-08T08:00:00 14.43025 97.37534
2024-10-08T09:00:00 14.63025 97.50645
2024-10-08T10:00:00 15.03025 91.30776
2024-10-08T11:00:00 14.77025 94.63229
2024-10-08T12:00:00 14.60025 93.51834
2024-10-08T13:00:00 14.49025 92.96322
2024-10-08T14:00:00 14.90025 92.38017
2024-10-08T15:00:00 15.11025 91.85137
2024-10-08T16:00:00 14.79025 93.58906
2024-10-08T17:00:00 14.11025 94.60407
2024-10-08T18:00:00 13.48025 95.327
2024-10-08T19:00:00 13.11025 95.3755
2024-10-08T20:00:00 12.79025 95.74246
2024-10-08T21:00:00 12.33025 96.36309
2024-10-08T22:00:00 11.93025 95.71048
2024-10-08T23:00:00 11.44025 96.1407
2024-10-09T00:00:00 11.10025 96.45131
2024-10-09T01:00:00 10.69025 97.15304
2024-10-09T02:00:00 10.28025 97.33785
2024-10-09T03:00:00 10.01025 97.46188
2024-10-09T04:00:00 9.750245 98.04984
2024-10-09T05:00:00 9.670245 97.98171
2024-10-09T06:00:00 10.05025 96.35027
2024-10-09T07:00:00 11.29025 93.78029
2024-10-09T08:00:00 12.94025 91.10412
2024-10-09T09:00:00 14.29025 86.96814
2024-10-09T10:00:00 15.63025 81.61268
2024-10-09T11:00:00 17.00025 75.90243
2024-10-09T12:00:00 17.60025 74.32404
2024-10-09T13:00:00 17.77025 71.10002
2024-10-09T14:00:00 18.03025 69.8484
2024-10-09T15:00:00 17.76024 72.85259
2024-10-09T16:00:00 17.24025 76.7441
2024-10-09T17:00:00 15.60025 85.90495
2024-10-09T18:00:00 15.47025 87.0826
2024-10-09T19:00:00 15.63025 86.64292
2024-10-09T20:00:00 16.30025 82.99601
2024-10-09T21:00:00 17.11025 75.07563
2024-10-09T22:00:00 17.45025 80.47559
2024-10-09T23:00:00 18.17025 77.74708
2024-10-10T00:00:00 18.66025 75.92542
2024-10-10T01:00:00 18.18024 78.66372
2024-10-10T02:00:00 16.24025 84.52345
2024-10-10T03:00:00 14.39025 86.11932
2024-10-10T04:00:00 13.90025 83.41712
2024-10-10T05:00:00 13.52025 82.20627
2024-10-10T06:00:00 13.18025 82.65968
2024-10-10T07:00:00 13.57025 80.41311
2024-10-10T08:00:00 14.15025 77.06395
2024-10-10T09:00:00 14.75025 74.21861
2024-10-10T10:00:00 15.11025 69.73215
2024-10-10T11:00:00 15.23025 69.61536
2024-10-10T12:00:00 15.73025 68.69247
2024-10-10T13:00:00 15.60025 68.66561
2024-10-10T14:00:00 15.77025 67.09957
2024-10-10T15:00:00 15.26025 71.42589
2024-10-10T16:00:00 14.51025 78.00517
2024-10-10T17:00:00 13.78025 81.03826
2024-10-10T18:00:00 13.39025 84.59019
2024-10-10T19:00:00 13.00025 85.5135
2024-10-10T20:00:00 12.72025 86.00033
2024-10-10T21:00:00 12.38025 87.1854
2024-10-10T22:00:00 11.80025 91.26662
2024-10-10T23:00:00 11.72025 91.13846
2024-10-11T00:00:00 11.64025 91.50065
2024-10-11T01:00:00 11.58025 91.31222
2024-10-11T02:00:00 11.46025 91.61115
2024-10-11T03:00:00 11.16025 92.02327
2024-10-11T04:00:00 11.01025 92.82306
2024-10-11T05:00:00 10.85025 91.38305
2024-10-11T06:00:00 10.68025 89.95826
2024-10-11T07:00:00 11.13025 88.66637
2024-10-11T08:00:00 11.99025 82.72858
2024-10-11T09:00:00 12.87025 73.87907
2024-10-11T10:00:00 13.55025 75.06399
2024-10-11T11:00:00 13.89025 70.96598
2024-10-11T12:00:00 14.40025 67.58227
2024-10-11T13:00:00 14.54025 62.88671
2024-10-11T14:00:00 14.54025 62.4563
2024-10-11T15:00:00 14.05025 66.13574
2024-10-11T16:00:00 13.01025 75.378
2024-10-11T17:00:00 10.94025 87.69219
2024-10-11T18:00:00 9.870245 91.74798
2024-10-11T19:00:00 8.840245 95.25924
2024-10-11T20:00:00 7.830246 96.86502
2024-10-11T21:00:00 7.070245 97.57779
2024-10-11T22:00:00 6.510245 97.08726
2024-10-11T23:00:00 5.950245 96.8643
2024-10-12T00:00:00 5.570245 97.66719
2024-10-12T01:00:00 5.370246 97.18259
2024-10-12T02:00:00 5.190245 96.90339
2024-10-12T03:00:00 4.920245 96.75658
2024-10-12T04:00:00 5.400245 96.77551
2024-10-12T05:00:00 5.650245 96.37936
2024-10-12T06:00:00 5.820245 96.31901
2024-10-12T07:00:00 6.630245 95.35259
2024-10-12T08:00:00 8.230246 92.64596
2024-10-12T09:00:00 9.480246 89.67332
2024-10-12T10:00:00 11.12025 86.0009
2024-10-12T11:00:00 12.61025 81.6435
2024-10-12T12:00:00 13.64025 79.13665
2024-10-12T13:00:00 14.64025 75.96362
2024-10-12T14:00:00 14.34025 81.60353
2024-10-12T15:00:00 13.64025 87.01946
2024-10-12T16:00:00 13.36025 88.15789
2024-10-12T17:00:00 12.82025 91.88673
2024-10-12T18:00:00 12.40025 94.21377
2024-10-12T19:00:00 12.62025 94.22442
2024-10-12T20:00:00 12.87025 93.42784
2024-10-12T21:00:00 13.16025 92.39748
2024-10-12T22:00:00 13.25025 91.67136
2024-10-12T23:00:00 13.69025 91.15674
2024-10-13T00:00:00 14.26025 90.83667
2024-10-13T01:00:00 14.84025 90.52091
2024-10-13T02:00:00 15.01025 90.47392
2024-10-13T03:00:00 15.14025 90.36507
2024-10-13T04:00:00 15.32025 91.20786
2024-10-13T05:00:00 15.24025 90.72733
2024-10-13T06:00:00 15.04025 90.12145
2024-10-13T07:00:00 14.99025 90.591
2024-10-13T08:00:00 15.28025 88.27159
2024-10-13T09:00:00 15.61025 83.84405
2024-10-13T10:00:00 15.09025 86.36187
2024-10-13T11:00:00 15.39025 83.81815
2024-10-13T12:00:00 15.59025 80.58987
2024-10-13T13:00:00 15.94025 76.38254
2024-10-13T14:00:00 16.17025 72.70673
2024-10-13T15:00:00 15.89025 73.58188
2024-10-13T16:00:00 15.16025 79.04691
2024-10-13T17:00:00 13.82025 83.51867
2024-10-13T18:00:00 11.77025 92.12533
2024-10-13T19:00:00 10.87025 94.77303
2024-10-13T20:00:00 10.29025 94.48988
2024-10-13T21:00:00 9.480246 96.39516
2024-10-13T22:00:00 9.290245 97.77342
2024-10-13T23:00:00 9.680245 98.31388
2024-10-14T00:00:00 9.840245 98.25079
2024-10-14T01:00:00 9.740245 97.71863
2024-10-14T02:00:00 9.620245 98.64573
2024-10-14T03:00:00 9.900246 98.31841
2024-10-14T04:00:00 10.10025 97.92555
2024-10-14T05:00:00 10.14025 98.52216
2024-10-14T06:00:00 10.54025 98.46327
2024-10-14T07:00:00 10.85025 96.44293
2024-10-14T08:00:00 11.75025 94.05595
2024-10-14T09:00:00 13.41025 89.99658
2024-10-14T10:00:00 15.63025 85.51463
2024-10-14T11:00:00 17.75025 77.48042
2024-10-14T12:00:00 19.25025 71.51881
2024-10-14T13:00:00 19.87025 69.70527
2024-10-14T14:00:00 20.41025 68.82089
2024-10-14T15:00:00 20.45025 69.90814
2024-10-14T16:00:00 19.62025 74.57178
2024-10-14T17:00:00 16.91025 85.37117
2024-10-14T18:00:00 16.19025 87.83472
2024-10-14T19:00:00 15.87025 89.07453
2024-10-14T20:00:00 15.55025 90.68994
2024-10-14T21:00:00 14.93025 91.7801
2024-10-14T22:00:00 14.49025 93.14608
2024-10-14T23:00:00 13.92025 94.59582
2024-10-15T00:00:00 13.51025 95.20272
2024-10-15T01:00:00 13.12025 96.00743
2024-10-15T02:00:00 13.07025 96.38656
2024-10-15T03:00:00 13.07025 96.89639
2024-10-15T04:00:00 12.94025 97.21303
2024-10-15T05:00:00 12.87025 97.14714
2024-10-15T06:00:00 12.72025 97.85175
2024-10-15T07:00:00 13.24025 96.58251
2024-10-15T08:00:00 14.04025 95.22347
2024-10-15T09:00:00 14.95025 92.2625
2024-10-15T10:00:00 15.21025 94.03725
2024-10-15T11:00:00 15.78025 91.53533
2024-10-15T12:00:00 15.71025 90.93753
2024-10-15T13:00:00 15.39025 94.10662
2024-10-15T14:00:00 15.37025 94.35055
2024-10-15T15:00:00 15.42025 94.16911
2024-10-15T16:00:00 15.42025 93.13468
2024-10-15T17:00:00 14.88025 94.329
2024-10-15T18:00:00 14.48025 95.36485
2024-10-15T19:00:00 14.08025 95.66274
2024-10-15T20:00:00 13.66025 96.27815
2024-10-15T21:00:00 13.24025 96.51892
2024-10-15T22:00:00 12.83025 96.88984
2024-10-15T23:00:00 12.49025 97.39491
2024-10-16T00:00:00 12.17025 98.23042
2024-10-16T01:00:00 12.09025 97.64409
2024-10-16T02:00:00 11.85025 97.6386
2024-10-16T03:00:00 11.66025 97.24466
2024-10-16T04:00:00 11.69025 94.87397
2024-10-16T05:00:00 11.81025 94.18478
2024-10-16T06:00:00 11.71025 95.766
2024-10-16T07:00:00 12.36025 94.58853
2024-10-16T08:00:00 12.85025 94.61079
2024-10-16T09:00:00 13.49025 93.89351
2024-10-16T10:00:00 14.03025 93.18242
2024-10-16T11:00:00 15.22025 89.72321
2024-10-16T12:00:00 16.46025 87.00648
2024-10-16T13:00:00 17.13025 84.67717
2024-10-16T14:00:00 17.72025 83.00552
2024-10-16T15:00:00 17.39025 83.995
2024-10-16T16:00:00 16.24025 88.87323
2024-10-16T17:00:00 14.86025 92.07631
2024-10-16T18:00:00 14.30025 94.05622
2024-10-16T19:00:00 14.01025 95.0975
2024-10-16T20:00:00 14.11025 94.29434
2024-10-16T21:00:00 13.94025 94.90768
2024-10-16T22:00:00 13.81025 95.52766
2024-10-16T23:00:00 13.88025 96.0958
2024-10-17T00:00:00 14.14025 96.22996
2024-10-17T01:00:00 14.00025 97.2386
2024-10-17T02:00:00 13.85025 97.93774
2024-10-17T03:00:00 13.81025 98.57987
2024-10-17T04:00:00 13.73025 98.96654
2024-10-17T05:00:00 13.60025 98.9652
2024-10-17T06:00:00 13.50025 99.02902
2024-10-17T07:00:00 13.78025 99.09653
2024-10-17T08:00:00 14.69025 97.82518
2024-10-17T09:00:00 15.93025 95.84902
2024-10-17T10:00:00 18.54025 83.85455
2024-10-17T11:00:00 20.06025 78.58202
2024-10-17T12:00:00 20.77025 76.50613
2024-10-17T13:00:00 20.92025 76.18817
2024-10-17T14:00:00 20.73025 76.25574
2024-10-17T15:00:00 20.48025 79.09524
2024-10-17T16:00:00 19.17025 85.60378
2024-10-17T17:00:00 17.51024 90.12705
2024-10-17T18:00:00 16.80025 92.07275
2024-10-17T19:00:00 15.06025 95.5723
2024-10-17T20:00:00 14.10025 97.24092
2024-10-17T21:00:00 13.60025 97.22915
2024-10-17T22:00:00 13.34025 96.07813
2024-10-17T23:00:00 13.14025 96.19826
2024-10-18T00:00:00 12.86025 98.11303
2024-10-18T01:00:00 12.79025 98.5008
2024-10-18T02:00:00 13.13025 97.9888
2024-10-18T03:00:00 13.65025 98.90096
2024-10-18T04:00:00 14.14025 98.51983
2024-10-18T05:00:00 14.46025 96.55423
2024-10-18T06:00:00 14.49025 96.36634
2024-10-18T07:00:00 14.73025 95.56075
2024-10-18T08:00:00 15.16025 92.93911
2024-10-18T09:00:00 15.66025 91.94517
2024-10-18T10:00:00 16.90025 84.32221
2024-10-18T11:00:00 17.66025 80.45182
2024-10-18T12:00:00 17.41025 79.84299
2024-10-18T13:00:00 17.42025 79.16988
2024-10-18T14:00:00 17.31025 77.71717
2024-10-18T15:00:00 16.79025 79.86012
2024-10-18T16:00:00 16.09025 82.4818
2024-10-18T17:00:00 15.06025 87.61707
2024-10-18T18:00:00 14.47025 89.48759
2024-10-18T19:00:00 13.87025 91.16921
2024-10-18T20:00:00 13.42025 91.44017
2024-10-18T21:00:00 13.17025 91.42317
2024-10-18T22:00:00 12.30025 93.02414
2024-10-18T23:00:00 12.05025 94.00836
2024-10-19T00:00:00 11.82025 94.62669
2024-10-19T01:00:00 11.67025 94.74633
2024-10-19T02:00:00 11.35025 94.98592
2024-10-19T03:00:00 11.06025 95.22843
2024-10-19T04:00:00 10.75025 96.31001
2024-10-19T05:00:00 10.76025 96.6994
2024-10-19T06:00:00 11.32025 95.55898
2024-10-19T07:00:00 11.92025 94.44206
2024-10-19T08:00:00 12.88025 92.25766
2024-10-19T09:00:00 14.05025 91.06152
2024-10-19T10:00:00 14.95025 88.30048
2024-10-19T11:00:00 16.00025 84.2754
2024-10-19T12:00:00 16.49025 81.24464
2024-10-19T13:00:00 16.84025 79.97189
2024-10-19T14:00:00 17.43024 77.99027
2024-10-19T15:00:00 17.27025 81.61303
2024-10-19T16:00:00 16.50025 84.22211
2024-10-19T17:00:00 14.56025 87.80179
2024-10-19T18:00:00 13.27025 91.73345
2024-10-19T19:00:00 12.46025 93.46778
2024-10-19T20:00:00 11.83025 94.31171
2024-10-19T21:00:00 10.93025 95.92911
2024-10-19T22:00:00 11.27025 93.46484
2024-10-19T23:00:00 10.40025 95.00722
2024-10-20T00:00:00 10.06025 94.60651
2024-10-20T01:00:00 9.870245 93.7662
2024-10-20T02:00:00 9.970245 94.73043
2024-10-20T03:00:00 9.970245 96.02209
2024-10-20T04:00:00 10.32025 97.73304
2024-10-20T05:00:00 10.03025 97.99001
2024-10-20T06:00:00 10.30025 97.53529
2024-10-20T07:00:00 10.86025 96.9625
2024-10-20T08:00:00 11.65025 94.49234
2024-10-20T09:00:00 13.21025 90.10053
2024-10-20T10:00:00 14.12025 85.40841
2024-10-20T11:00:00 15.45025 79.82718
2024-10-20T12:00:00 16.38025 77.26669
2024-10-20T13:00:00 17.00025 75.35442
2024-10-20T14:00:00 17.86025 71.16404
2024-10-20T15:00:00 17.79025 71.29165
2024-10-20T16:00:00 16.42025 76.71378
2024-10-20T17:00:00 13.25025 91.24694
2024-10-20T18:00:00 12.19025 94.64371
2024-10-20T19:00:00 11.37025 97.10712
2024-10-20T20:00:00 10.79025 98.59986
2024-10-20T21:00:00 10.48025 98.13191
2024-10-20T22:00:00 10.32025 96.88093
2024-10-20T23:00:00 10.33025 96.94655
2024-10-21T00:00:00 9.900246 98.18573
2024-10-21T01:00:00 9.900246 98.58421
2024-10-21T02:00:00 9.870245 97.92017
2024-10-21T03:00:00 9.770246 97.85162
2024-10-21T04:00:00 9.680245 98.1146
2024-10-21T05:00:00 9.730246 97.91686
2024-10-21T06:00:00 9.710245 98.78077
2024-10-21T07:00:00 10.79025 95.47337
2024-10-21T08:00:00 12.93025 90.43919
2024-10-21T09:00:00 14.96025 84.48981
2024-10-21T10:00:00 17.10025 78.4013
2024-10-21T11:00:00 18.93024 73.15784
2024-10-21T12:00:00 20.20025 68.86872
2024-10-21T13:00:00 21.08025 65.89759
2024-10-21T14:00:00 21.74025 64.05841
2024-10-21T15:00:00 21.25025 65.80537
2024-10-21T16:00:00 19.23025 73.3062
2024-10-21T17:00:00 15.93025 84.82142
2024-10-21T18:00:00 13.42025 92.41329
2024-10-21T19:00:00 12.85025 94.29794
2024-10-21T20:00:00 12.47025 96.1124
2024-10-21T21:00:00 12.48025 95.79459
2024-10-21T22:00:00 12.48025 96.43182
2024-10-21T23:00:00 12.95025 96.06507
2024-10-22T00:00:00 13.94025 94.34851
2024-10-22T01:00:00 15.21025 90.01636
2024-10-22T02:00:00 15.72025 88.30999
2024-10-22T03:00:00 15.72025 87.67778
2024-10-22T04:00:00 15.67025 87.84528
2024-10-22T05:00:00 15.64025 88.64977
2024-10-22T06:00:00 15.46025 89.97643
2024-10-22T07:00:00 15.95025 89.08103
2024-10-22T08:00:00 16.55025 88.38139
2024-10-22T09:00:00 17.01024 87.96429
2024-10-22T10:00:00 17.38025 86.75609
2024-10-22T11:00:00 17.56025 87.67268
2024-10-22T12:00:00 17.45025 87.4935
2024-10-22T13:00:00 17.30025 85.8
2024-10-22T14:00:00 16.96025 85.98811
2024-10-22T15:00:00 16.34025 87.22185
2024-10-22T16:00:00 15.86025 87.1767
2024-10-22T17:00:00 15.10025 91.0145
2024-10-22T18:00:00 14.87025 91.83637
2024-10-22T19:00:00 14.58025 92.11949
2024-10-22T20:00:00 14.04025 93.30551
2024-10-22T21:00:00 13.77025 93.66039
2024-10-22T22:00:00 13.70025 93.28734
2024-10-22T23:00:00 13.37025 93.51631
2024-10-23T00:00:00 13.02025 93.4978
2024-10-23T01:00:00 12.74025 92.86408
2024-10-23T02:00:00 12.20025 92.27631
2024-10-23T03:00:00 11.76025 91.57042
2024-10-23T04:00:00 11.60025 90.58008
2024-10-23T05:00:00 11.24025 90.73573
2024-10-23T06:00:00 11.04025 89.92703
2024-10-23T07:00:00 10.97025 89.37524
2024-10-23T08:00:00 11.38025 87.61663
2024-10-23T09:00:00 12.04025 84.48882
2024-10-23T10:00:00 13.31025 80.21378
2024-10-23T11:00:00 14.49025 73.03137
2024-10-23T12:00:00 15.07025 70.67134
2024-10-23T13:00:00 15.72025 67.81688
2024-10-23T14:00:00 15.90025 68.22105
2024-10-23T15:00:00 15.64025 69.37079
2024-10-23T16:00:00 14.49025 76.1937
2024-10-23T17:00:00 13.28025 81.40545
2024-10-23T18:00:00 12.80025 83.89901
2024-10-23T19:00:00 12.23025 85.54321
2024-10-23T20:00:00 11.99025 86.85336
2024-10-23T21:00:00 11.42025 87.6798
2024-10-23T22:00:00 11.33025 88.1467
2024-10-23T23:00:00 11.02025 89.68243
2024-10-24T00:00:00 11.37025 89.65121
2024-10-24T01:00:00 11.19025 90.36535
2024-10-24T02:00:00 10.95025 91.69927
2024-10-24T03:00:00 11.07025 91.76943
2024-10-24T04:00:00 11.25025 91.71999
2024-10-24T05:00:00 11.22025 91.34794
2024-10-24T06:00:00 11.19025 91.22273
2024-10-24T07:00:00 11.84025 89.99211
2024-10-24T08:00:00 12.61025 86.97475
2024-10-24T09:00:00 13.74025 83.73217
2024-10-24T10:00:00 15.35025 77.10292
2024-10-24T11:00:00 16.37025 74.75111
2024-10-24T12:00:00 17.17025 72.60122
2024-10-24T13:00:00 17.62025 72.15843
2024-10-24T14:00:00 17.20025 74.30362
2024-10-24T15:00:00 16.30025 80.79369
2024-10-24T16:00:00 15.22025 87.00147
2024-10-24T17:00:00 14.23025 91.55463
2024-10-24T18:00:00 13.43025 93.95252
2024-10-24T19:00:00 13.30025 94.07028
2024-10-24T20:00:00 13.08025 94.12183
2024-10-24T21:00:00 12.66025 95.80113
2024-10-24T22:00:00 12.89025 95.87273
2024-10-24T23:00:00 12.76025 95.9951
2024-10-25T00:00:00 12.70025 96.31121
2024-10-25T01:00:00 12.37025 96.49233
2024-10-25T02:00:00 12.23025 96.42387
2024-10-25T03:00:00 12.27025 95.08908
2024-10-25T04:00:00 12.42025 93.71474
2024-10-25T05:00:00 12.38025 93.09073
2024-10-25T06:00:00 12.06025 93.01024
2024-10-25T07:00:00 12.04025 93.69473
2024-10-25T08:00:00 13.13025 93.44177
2024-10-25T09:00:00 14.60025 87.92128
2024-10-25T10:00:00 16.03025 83.07197
2024-10-25T11:00:00 17.36025 79.67982
2024-10-25T12:00:00 18.23025 76.55096
2024-10-25T13:00:00 18.84025 73.66816
2024-10-25T14:00:00 18.96025 71.8392
2024-10-25T15:00:00 18.49025 72.79327
2024-10-25T16:00:00 17.38025 73.50717
2024-10-25T17:00:00 16.18025 79.87867
2024-10-25T18:00:00 13.29025 89.09479
2024-10-25T19:00:00 11.95025 92.69344
2024-10-25T20:00:00 11.45025 93.34952
2024-10-25T21:00:00 11.10025 93.14146
2024-10-25T22:00:00 11.21025 92.21265
2024-10-25T23:00:00 11.02025 92.26241
2024-10-26T00:00:00 10.73025 92.49304
2024-10-26T01:00:00 10.32025 92.7805
2024-10-26T02:00:00 9.530245 94.58032
2024-10-26T03:00:00 9.320246 96.0622
2024-10-26T04:00:00 9.450245 95.67632
2024-10-26T05:00:00 9.550245 94.90345
2024-10-26T06:00:00 9.720245 94.97593
2024-10-26T07:00:00 9.780245 95.81978
2024-10-26T08:00:00 10.31025 94.49087
2024-10-26T09:00:00 11.24025 89.82208
2024-10-26T10:00:00 12.50025 88.13757
2024-10-26T11:00:00 13.08025 86.96375
2024-10-26T12:00:00 13.77025 85.59766
2024-10-26T13:00:00 14.09025 85.12199
2024-10-26T14:00:00 14.27025 85.36813
2024-10-26T15:00:00 13.80025 87.03525
2024-10-26T16:00:00 13.70025 85.41924
2024-10-26T17:00:00 13.25025 88.9138
2024-10-26T18:00:00 13.14025 89.79609
2024-10-26T19:00:00 11.28025 96.26383
2024-10-26T20:00:00 11.03025 96.38433
2024-10-26T21:00:00 10.66025 95.78989
2024-10-26T22:00:00 11.01025 93.07349
2024-10-26T23:00:00 10.48025 93.67306
2024-10-27T00:00:00 10.00025 93.51926
2024-10-27T01:00:00 9.520246 94.83749
2024-10-27T02:00:00 9.600245 95.16411
2024-10-27T03:00:00 9.700245 95.68668
2024-10-27T04:00:00 9.990245 95.18166
2024-10-27T05:00:00 10.45025 94.49778
2024-10-27T06:00:00 10.65025 93.68246
2024-10-27T07:00:00 11.23025 92.89889
2024-10-27T08:00:00 12.43025 89.73875
2024-10-27T09:00:00 14.09025 84.33358
2024-10-27T10:00:00 15.95025 79.37306
2024-10-27T11:00:00 17.69025 73.9986
2024-10-27T12:00:00 18.85025 69.59679
2024-10-27T13:00:00 19.68024 66.50894
2024-10-27T14:00:00 20.06025 64.27505
2024-10-27T15:00:00 19.58025 65.19058
2024-10-27T16:00:00 17.88025 71.02724
2024-10-27T17:00:00 15.26025 82.21355
2024-10-27T18:00:00 14.12025 86.03412
2024-10-27T19:00:00 12.43025 91.18937
2024-10-27T20:00:00 11.25025 93.77815
2024-10-27T21:00:00 10.31025 95.19585
2024-10-27T22:00:00 10.17025 95.38294
2024-10-27T23:00:00 9.620245 96.07378
2024-10-28T00:00:00 9.490245 95.80809
2024-10-28T01:00:00 9.380245 95.67341
2024-10-28T02:00:00 9.030245 95.91998
2024-10-28T03:00:00 8.600245 95.70579
2024-10-28T04:00:00 8.640245 95.83853
2024-10-28T05:00:00 8.330246 96.55088
2024-10-28T06:00:00 8.190246 97.41014
2024-10-28T07:00:00 9.100245 95.66164
2024-10-28T08:00:00 11.55025 91.55586
2024-10-28T09:00:00 13.89025 85.61066
2024-10-28T10:00:00 16.08025 82.80598
2024-10-28T11:00:00 17.75025 77.53102
2024-10-28T12:00:00 18.95025 73.44788
2024-10-28T13:00:00 19.64025 69.66046
2024-10-28T14:00:00 20.04025 67.15254
2024-10-28T15:00:00 19.76024 67.3143
2024-10-28T16:00:00 17.16025 77.23674
2024-10-28T17:00:00 15.01025 85.44835
2024-10-28T18:00:00 12.39025 92.47308
2024-10-28T19:00:00 11.22025 95.29913
2024-10-28T20:00:00 10.82025 95.41044
2024-10-28T21:00:00 10.32025 96.03536
2024-10-28T22:00:00 10.07025 94.607
2024-10-28T23:00:00 9.690246 95.2328
2024-10-29T00:00:00 9.530245 96.4624
2024-10-29T01:00:00 9.350245 97.5761
2024-10-29T02:00:00 9.580245 97.45013
2024-10-29T03:00:00 9.400246 97.31297
2024-10-29T04:00:00 9.130245 97.76933
2024-10-29T05:00:00 8.870245 98.49754
2024-10-29T06:00:00 8.750245 98.76379
2024-10-29T07:00:00 9.020246 97.83302
2024-10-29T08:00:00 10.98025 96.12429
2024-10-29T09:00:00 13.12025 89.13966
2024-10-29T10:00:00 15.40025 83.65384
2024-10-29T11:00:00 16.95025 79.56947
2024-10-29T12:00:00 18.18024 76.09515
2024-10-29T13:00:00 18.75025 74.42429
2024-10-29T14:00:00 18.95025 73.44788
2024-10-29T15:00:00 18.41025 76.929
2024-10-29T16:00:00 16.32025 81.22201
2024-10-29T17:00:00 14.22025 87.9446
2024-10-29T18:00:00 12.92025 91.40604
2024-10-29T19:00:00 11.11025 95.74303
2024-10-29T20:00:00 10.00025 97.46162
2024-10-29T21:00:00 9.540245 97.71353
2024-10-29T22:00:00 9.420245 96.98389
2024-10-29T23:00:00 9.260245 96.19067
2024-10-30T00:00:00 8.950245 96.17883
2024-10-30T01:00:00 8.700245 96.23492
2024-10-30T02:00:00 8.770246 98.22745
2024-10-30T03:00:00 8.640245 98.62721
2024-10-30T04:00:00 8.340245 98.35196
2024-10-30T05:00:00 8.470245 98.75858
2024-10-30T06:00:00 8.600245 98.49197
2024-10-30T07:00:00 8.850245 98.09557
2024-10-30T08:00:00 9.760245 97.06019
2024-10-30T09:00:00 11.04025 94.46301
2024-10-30T10:00:00 12.79025 91.64065
2024-10-30T11:00:00 13.48025 89.76364
2024-10-30T12:00:00 14.06025 88.22131
2024-10-30T13:00:00 14.42025 87.15349
2024-10-30T14:00:00 14.36025 86.23028
2024-10-30T15:00:00 13.78025 88.37167
2024-10-30T16:00:00 11.51025 94.73901
2024-10-30T17:00:00 10.91025 95.86395
2024-10-30T18:00:00 10.81025 96.50636
2024-10-30T19:00:00 10.69025 96.69716
2024-10-30T20:00:00 10.28025 97.07581
2024-10-30T21:00:00 9.690246 97.98219
2024-10-30T22:00:00 9.840245 97.19401
2024-10-30T23:00:00 9.360246 98.04087
2024-10-31T00:00:00 8.940246 97.36577
2024-10-31T01:00:00 8.980246 97.03594
2024-10-31T02:00:00 9.510245 97.31615
2024-10-31T03:00:00 9.610246 97.71531
2024-10-31T04:00:00 9.700245 97.05837
2024-10-31T05:00:00 9.800245 96.4066
2024-10-31T06:00:00 9.820246 96.53793
2024-10-31T07:00:00 9.890245 96.54034
2024-10-31T08:00:00 10.11025 95.50948
2024-10-31T09:00:00 10.54025 93.61313
2024-10-31T10:00:00 11.23025 90.61266
2024-10-31T11:00:00 11.64025 88.41402
2024-10-31T12:00:00 12.04025 86.10085
2024-10-31T13:00:00 12.45025 85.33769
2024-10-31T14:00:00 12.65025 83.31785
2024-10-31T15:00:00 12.42025 85.96804
2024-10-31T16:00:00 12.15025 86.11269
2024-10-31T17:00:00 12.40025 86.42943
2024-10-31T18:00:00 10.62025 92.36102
2024-10-31T19:00:00 9.650246 94.6506
2024-10-31T20:00:00 9.760245 93.8876
2024-10-31T21:00:00 9.430245 93.67767
2024-10-31T22:00:00 9.420245 94.06092
2024-10-31T23:00:00 8.970245 93.97215
2024-11-01T00:00:00 8.760245 93.76756
2024-11-01T01:00:00 8.390245 93.23206
2024-11-01T02:00:00 8.290245 93.676
2024-11-01T03:00:00 7.890245 94.62636
2024-11-01T04:00:00 7.690245 95.79827
2024-11-01T05:00:00 7.430245 97.11863
2024-11-01T06:00:00 6.970245 97.84516
2024-11-01T07:00:00 7.090245 96.77187
2024-11-01T08:00:00 8.300245 93.03417
2024-11-01T09:00:00 9.610246 90.91908
2024-11-01T10:00:00 11.07025 86.93494
2024-11-01T11:00:00 12.81025 82.61181
2024-11-01T12:00:00 14.61025 78.75406
2024-11-01T13:00:00 16.04025 73.65785
2024-11-01T14:00:00 16.47025 71.80046
2024-11-01T15:00:00 16.05025 74.49744
2024-11-01T16:00:00 14.29025 79.02222
2024-11-01T17:00:00 11.50025 88.7598
2024-11-01T18:00:00 8.970245 96.44229
2024-11-01T19:00:00 8.350245 97.68189
2024-11-01T20:00:00 7.960245 97.60402
2024-11-01T21:00:00 7.670245 98.81088
2024-11-01T22:00:00 7.500245 98.33271
2024-11-01T23:00:00 6.970245 98.456
2024-11-02T00:00:00 7.390245 97.92436
2024-11-02T01:00:00 8.130245 95.29182
2024-11-02T02:00:00 8.390245 93.8107
2024-11-02T03:00:00 8.110246 94.31264
2024-11-02T04:00:00 7.130245 96.30573
2024-11-02T05:00:00 6.520245 98.10432
2024-11-02T06:00:00 6.890245 97.36983
2024-11-02T07:00:00 7.000245 96.9698
2024-11-02T08:00:00 7.320245 97.58529
2024-11-02T09:00:00 8.020246 95.94428
2024-11-02T10:00:00 8.800245 93.44918
2024-11-02T11:00:00 9.370245 90.83832
2024-11-02T12:00:00 9.980246 89.04533
2024-11-02T13:00:00 10.35025 87.81329
2024-11-02T14:00:00 10.42025 86.51232
2024-11-02T15:00:00 10.22025 87.56107
2024-11-02T16:00:00 8.910245 93.20009
2024-11-02T17:00:00 8.730246 92.55179
2024-11-02T18:00:00 9.150246 91.75938
2024-11-02T19:00:00 9.080245 91.62872
2024-11-02T20:00:00 8.320246 92.71575
2024-11-02T21:00:00 7.860245 93.00607
2024-11-02T22:00:00 8.090245 92.19019
2024-11-02T23:00:00 8.130245 91.17996
2024-11-03T00:00:00 8.270246 90.43825
2024-11-03T01:00:00 8.220245 90.49664
2024-11-03T02:00:00 8.370246 90.32171
2024-11-03T03:00:00 8.330246 90.13139
2024-11-03T04:00:00 8.450246 89.95509
2024-11-03T05:00:00 8.350245 90.50732
2024-11-03T06:00:00 8.490246 89.83444
2024-11-03T07:00:00 8.080246 91.49172
2024-11-03T08:00:00 8.920245 87.06747
2024-11-03T09:00:00 9.330245 84.56665
2024-11-03T10:00:00 9.860246 81.76557
2024-11-03T11:00:00 10.71025 79.50102
2024-11-03T12:00:00 11.54025 78.00957
2024-11-03T13:00:00 12.26025 75.86643
2024-11-03T14:00:00 12.61025 75.4623
2024-11-03T15:00:00 11.98025 80.62047
2024-11-03T16:00:00 11.75025 75.8821
2024-11-03T17:00:00 9.910245 84.57903
2024-11-03T18:00:00 7.600246 91.20187
2024-11-03T19:00:00 6.290245 94.34287
2024-11-03T20:00:00 5.760245 94.57765
2024-11-03T21:00:00 5.320245 94.41998
2024-11-03T22:00:00 5.610245 91.68641
2024-11-03T23:00:00 5.120246 92.16831
2024-11-04T00:00:00 4.600246 92.58822
2024-11-04T01:00:00 4.300245 92.63227
2024-11-04T02:00:00 4.010245 91.88689
2024-11-04T03:00:00 3.960246 92.54137
2024-11-04T04:00:00 4.090245 92.81523
2024-11-04T05:00:00 4.350246 92.70182
2024-11-04T06:00:00 4.570245 92.98127
2024-11-04T07:00:00 4.880245 93.39853
2024-11-04T08:00:00 6.070245 90.63272
2024-11-04T09:00:00 7.490245 86.24822
2024-11-04T10:00:00 7.710245 87.48488
2024-11-04T11:00:00 8.500245 86.60173
2024-11-04T12:00:00 9.260245 84.7335
2024-11-04T13:00:00 9.930245 83.94425
2024-11-04T14:00:00 10.18025 84.2064
2024-11-04T15:00:00 9.480246 88.63461
2024-11-04T16:00:00 9.970245 84.007
2024-11-04T17:00:00 8.710245 90.03937
2024-11-04T18:00:00 6.280245 96.67435
2024-11-04T19:00:00 6.230245 96.67243
2024-11-04T20:00:00 6.130245 95.39488
2024-11-04T21:00:00 6.060246 94.59423
2024-11-04T22:00:00 5.950245 94.05953
2024-11-04T23:00:00 5.640245 94.97013
2024-11-05T00:00:00 5.650245 93.77771
2024-11-05T01:00:00 5.700245 92.99316
2024-11-05T02:00:00 5.470245 93.10863
2024-11-05T03:00:00 5.390245 93.62956
2024-11-05T04:00:00 5.250245 94.81581
2024-11-05T05:00:00 5.330246 95.48951
2024-11-05T06:00:00 5.320245 96.36549
2024-11-05T07:00:00 5.730245 96.04583
2024-11-05T08:00:00 7.180245 93.35013
2024-11-05T09:00:00 9.230246 89.95974
2024-11-05T10:00:00 10.65025 88.68263
2024-11-05T11:00:00 12.55025 84.37843
2024-11-05T12:00:00 14.24025 80.29335
2024-11-05T13:00:00 15.25025 77.13825
2024-11-05T14:00:00 15.67025 74.38135
2024-11-05T15:00:00 15.04025 76.5404
2024-11-05T16:00:00 13.33025 81.96091
2024-11-05T17:00:00 9.650246 94.20131
2024-11-05T18:00:00 8.240246 98.14803
2024-11-05T19:00:00 8.050245 98.54781
2024-11-05T20:00:00 7.730245 98.74421
2024-11-05T21:00:00 7.550245 98.80851
2024-11-05T22:00:00 7.530245 97.72602
2024-11-05T23:00:00 7.500245 97.99479
2024-11-06T00:00:00 7.310246 97.45039
2024-11-06T01:00:00 7.210245 97.64941
2024-11-06T02:00:00 7.400245 97.25172
2024-11-06T03:00:00 7.660245 97.66249
2024-11-06T04:00:00 7.680245 98.33691
2024-11-06T05:00:00 8.010245 98.88514
2024-11-06T06:00:00 7.870246 99.69929
2024-11-06T07:00:00 8.250245 98.61942
2024-11-06T08:00:00 9.270246 97.04507
2024-11-06T09:00:00 10.90025 93.69619
2024-11-06T10:00:00 12.34025 89.61135
2024-11-06T11:00:00 13.50025 87.12149
2024-11-06T12:00:00 14.23025 82.62849
2024-11-06T13:00:00 14.61025 80.88272
2024-11-06T14:00:00 14.62025 80.50801
2024-11-06T15:00:00 14.26025 81.86524
2024-11-06T16:00:00 12.83025 89.83104
2024-11-06T17:00:00 11.27025 94.98236
2024-11-06T18:00:00 10.81025 95.28175
2024-11-06T19:00:00 10.17025 96.61508
2024-11-06T20:00:00 9.570246 97.582
2024-11-06T21:00:00 9.060246 98.50137
2024-11-06T22:00:00 8.840245 97.56213
2024-11-06T23:00:00 8.620245 97.95634
2024-11-07T00:00:00 8.470245 98.08649
2024-11-07T01:00:00 7.880245 99.1543
2024-11-07T02:00:00 8.140245 98.81988
2024-11-07T03:00:00 8.170245 98.34816
2024-11-07T04:00:00 8.130245 98.34724
2024-11-07T05:00:00 7.980245 98.54632
2024-11-07T06:00:00 7.790245 98.47463
2024-11-07T07:00:00 7.910245 97.87097
2024-11-07T08:00:00 8.060246 96.87296
2024-11-07T09:00:00 8.250245 94.90544
2024-11-07T10:00:00 8.570246 91.33954
2024-11-07T11:00:00 8.880245 89.86812
2024-11-07T12:00:00 8.960245 89.62811
2024-11-07T13:00:00 9.210245 88.67011
2024-11-07T14:00:00 9.330245 88.07433
2024-11-07T15:00:00 9.370245 90.58994
2024-11-07T16:00:00 9.660245 85.66136
2024-11-07T17:00:00 9.510245 87.97112
2024-11-07T18:00:00 8.910245 90.73981
2024-11-07T19:00:00 7.790245 93.77589
2024-11-07T20:00:00 7.110245 94.84804
2024-11-07T21:00:00 7.180245 94.85164
2024-11-07T22:00:00 7.690245 94.22467
2024-11-07T23:00:00 7.560246 94.28264
2024-11-08T00:00:00 7.740245 94.61854
2024-11-08T01:00:00 7.690245 95.13981
2024-11-08T02:00:00 7.810246 94.94902
2024-11-08T03:00:00 8.220245 94.51337
2024-11-08T04:00:00 8.300245 94.5825
2024-11-08T05:00:00 8.280246 94.71153
2024-11-08T06:00:00 8.340245 94.0661
2024-11-08T07:00:00 8.370246 93.6163
2024-11-08T08:00:00 8.320246 93.80668
2024-11-08T09:00:00 8.420245 91.95956
2024-11-08T10:00:00 9.350245 90.15502
2024-11-08T11:00:00 10.01025 87.59987
2024-11-08T12:00:00 10.34025 86.14983
2024-11-08T13:00:00 10.83025 84.22857
2024-11-08T14:00:00 11.01025 84.19313
2024-11-08T15:00:00 11.11025 79.50749
2024-11-08T16:00:00 11.67025 81.29251
2024-11-08T17:00:00 9.920245 88.91835
2024-11-08T18:00:00 8.110246 95.35642
2024-11-08T19:00:00 8.050245 96.34189
2024-11-08T20:00:00 8.260245 95.69118
2024-11-08T21:00:00 8.280246 94.84174
2024-11-08T22:00:00 8.670245 92.61138
2024-11-08T23:00:00 8.500245 93.17479
2024-11-09T00:00:00 8.070246 94.44043
2024-11-09T01:00:00 7.860245 94.42925
2024-11-09T02:00:00 7.820245 93.90722
2024-11-09T03:00:00 7.460245 94.53841
2024-11-09T04:00:00 7.110245 95.64027
2024-11-09T05:00:00 6.940245 95.96481
2024-11-09T06:00:00 6.790245 96.15841
2024-11-09T07:00:00 6.750245 96.49112
2024-11-09T08:00:00 7.570245 94.60963
2024-11-09T09:00:00 8.810246 90.73184
2024-11-09T10:00:00 10.07025 89.60167
2024-11-09T11:00:00 11.27025 86.25105
2024-11-09T12:00:00 11.96025 85.05229
2024-11-09T13:00:00 12.32025 82.77145
2024-11-09T14:00:00 12.10025 83.36124
2024-11-09T15:00:00 11.80025 81.03458
2024-11-09T16:00:00 11.25025 86.83572
2024-11-09T17:00:00 10.20025 90.22492
2024-11-09T18:00:00 8.980246 93.39592
2024-11-09T19:00:00 7.610245 96.52419
2024-11-09T20:00:00 7.010245 97.23899
2024-11-09T21:00:00 6.700245 97.09386
2024-11-09T22:00:00 7.120246 95.11197
2024-11-09T23:00:00 6.880245 94.83617
2024-11-10T00:00:00 6.430245 94.74652
2024-11-10T01:00:00 6.010245 94.65772
2024-11-10T02:00:00 5.690245 94.97277
2024-11-10T03:00:00 5.560246 95.23301
2024-11-10T04:00:00 5.550245 96.51038
2024-11-10T05:00:00 5.390245 96.50382
2024-11-10T06:00:00 5.320245 96.36549
2024-11-10T07:00:00 5.620246 95.97365
2024-11-10T08:00:00 6.250245 94.47253
2024-11-10T09:00:00 6.850246 92.48784
2024-11-10T10:00:00 7.050245 94.31976
2024-11-10T11:00:00 7.720245 92.29184
2024-11-10T12:00:00 8.080246 91.42851
2024-11-10T13:00:00 8.350245 91.25987
2024-11-10T14:00:00 8.490246 90.89401
2024-11-10T15:00:00 8.240246 92.51901
2024-11-10T16:00:00 6.840245 96.42773
2024-11-10T17:00:00 6.950245 95.633
2024-11-10T18:00:00 7.540245 93.1143
2024-11-10T19:00:00 7.480245 93.04596
2024-11-10T20:00:00 7.060246 93.40748
2024-11-10T21:00:00 6.710245 94.23512
2024-11-10T22:00:00 6.030245 93.80106
2024-11-10T23:00:00 5.690245 93.84609
2024-11-11T00:00:00 5.190245 94.41248
2024-11-11T01:00:00 5.010245 94.46874
2024-11-11T02:00:00 5.130245 94.54227
2024-11-11T03:00:00 5.170245 94.47792
2024-11-11T04:00:00 5.080246 94.73969
2024-11-11T05:00:00 5.030245 94.33662
2024-11-11T06:00:00 4.820245 95.06049
2024-11-11T07:00:00 4.610245 95.18388
2024-11-11T08:00:00 4.560246 94.77773
2024-11-11T09:00:00 4.840245 93.79328
2024-11-11T10:00:00 5.780245 90.54419
2024-11-11T11:00:00 6.480245 89.46704
2024-11-11T12:00:00 7.260245 85.61984
2024-11-11T13:00:00 7.580246 85.71755
2024-11-11T14:00:00 7.700245 86.69448
2024-11-11T15:00:00 7.590245 91.2644
2024-11-11T16:00:00 7.170245 93.47923
2024-11-11T17:00:00 7.110245 94.78228
2024-11-11T18:00:00 7.660245 91.84113
2024-11-11T19:00:00 7.620246 91.96561
2024-11-11T20:00:00 7.450245 92.33695
2024-11-11T21:00:00 7.030245 93.47057
2024-11-11T22:00:00 6.570245 96.283
2024-11-11T23:00:00 5.930245 97.06672
2024-11-12T00:00:00 5.690245 96.51609
2024-11-12T01:00:00 5.730245 95.50903
2024-11-12T02:00:00 5.350246 96.56996
2024-11-12T03:00:00 5.420245 96.84419
2024-11-12T04:00:00 5.330246 96.84074
2024-11-12T05:00:00 5.270245 96.63457
2024-11-12T06:00:00 5.240245 96.42984
2024-11-12T07:00:00 5.570245 95.3673
2024-11-12T08:00:00 6.240245 95.60015
2024-11-12T09:00:00 6.960245 93.14165
2024-11-12T10:00:00 7.470245 88.81213
2024-11-12T11:00:00 7.770245 85.85957
2024-11-12T12:00:00 8.140245 81.69232
2024-11-12T13:00:00 8.350245 80.75661
2024-11-12T14:00:00 8.470245 79.54057
2024-11-12T15:00:00 8.310246 80.41212
2024-11-12T16:00:00 7.970245 80.07876
2024-11-12T17:00:00 7.840245 80.11503
2024-11-12T18:00:00 7.580246 80.18784
2024-11-12T19:00:00 6.990245 81.1233
2024-11-12T20:00:00 6.310246 82.53167
2024-11-12T21:00:00 5.690245 85.61295
2024-11-12T22:00:00 5.890245 81.88683
2024-11-12T23:00:00 5.340245 85.08407
2024-11-13T00:00:00 5.220245 85.73888
2024-11-13T01:00:00 5.310246 84.65669
2024-11-13T02:00:00 4.770245 88.0417
2024-11-13T03:00:00 4.350246 89.77613
2024-11-13T04:00:00 4.310246 89.8365
2024-11-13T05:00:00 4.200245 88.23359
2024-11-13T06:00:00 4.040246 89.68271
2024-11-13T07:00:00 4.630245 86.83986
2024-11-13T08:00:00 4.690245 85.61305
2024-11-13T09:00:00 4.990245 82.99543
2024-11-13T10:00:00 5.400245 82.22574
2024-11-13T11:00:00 5.610245 81.6123
2024-11-13T12:00:00 5.700245 81.62561
2024-11-13T13:00:00 5.790245 81.34813
2024-11-13T14:00:00 5.680245 81.62266
2024-11-13T15:00:00 5.290245 82.32758
2024-11-13T16:00:00 5.020245 83.35719
2024-11-13T17:00:00 4.990245 83.83201
2024-11-13T18:00:00 4.820245 85.32328
2024-11-13T19:00:00 4.510245 87.19975
2024-11-13T20:00:00 3.960246 90.70818
2024-11-13T21:00:00 3.130245 91.94891
2024-11-13T22:00:00 2.870246 92.79305
2024-11-13T23:00:00 2.830246 93.12478
2024-11-14T00:00:00 2.930245 92.79748
2024-11-14T01:00:00 2.480245 93.70644
2024-11-14T02:00:00 1.930245 93.39779
2024-11-14T03:00:00 1.660245 93.65041
2024-11-14T04:00:00 1.580245 93.64489
2024-11-14T05:00:00 1.560245 93.30361
2024-11-14T06:00:00 1.880245 91.9143
2024-11-14T07:00:00 2.320245 91.08827
2024-11-14T08:00:00 3.370246 87.0704
2024-11-14T09:00:00 4.370246 82.31257
2024-11-14T10:00:00 5.200245 79.18472
2024-11-14T11:00:00 6.210245 77.33438
2024-11-14T12:00:00 7.270245 75.29185
2024-11-14T13:00:00 7.600246 74.02595
2024-11-14T14:00:00 7.840245 73.4954
2024-11-14T15:00:00 7.650245 76.27557
2024-11-14T16:00:00 6.340245 81.54578
2024-11-14T17:00:00 6.460245 81.15914
2024-11-14T18:00:00 6.340245 83.35924
2024-11-14T19:00:00 5.960245 85.16132
2024-11-14T20:00:00 5.380245 88.48148
2024-11-14T21:00:00 4.700245 91.16035
2024-11-14T22:00:00 4.420245 92.90477
2024-11-14T23:00:00 4.750245 89.6219
2024-11-15T00:00:00 5.400245 85.76064
2024-11-15T01:00:00 4.770245 88.73474
2024-11-15T02:00:00 3.940246 92.27598
2024-11-15T03:00:00 3.370246 93.49732
2024-11-15T04:00:00 2.930245 93.93887
2024-11-15T05:00:00 2.770246 95.15201
2024-11-15T06:00:00 3.410245 93.56701
2024-11-15T07:00:00 3.740245 93.3887
2024-11-15T08:00:00 4.090245 94.21365
2024-11-15T09:00:00 5.860245 89.85174
2024-11-15T10:00:00 7.290245 85.44351
2024-11-15T11:00:00 8.350245 80.64366
2024-11-15T12:00:00 9.340245 74.92989
2024-11-15T13:00:00 9.860246 71.6909
2024-11-15T14:00:00 9.850245 70.19472
2024-11-15T15:00:00 9.000245 75.0254
2024-11-15T16:00:00 6.930245 84.14734
2024-11-15T17:00:00 6.850246 85.27052
2024-11-15T18:00:00 6.500245 87.41787
2024-11-15T19:00:00 5.630245 89.45072
2024-11-15T20:00:00 3.200245 93.41877
2024-11-15T21:00:00 2.220245 94.02808
2024-11-15T22:00:00 1.930245 93.19482
2024-11-15T23:00:00 1.580245 93.57683
2024-11-16T00:00:00 1.570245 93.98515
2024-11-16T01:00:00 1.290245 95.41357
2024-11-16T02:00:00 0.850245 96.7196
2024-11-16T03:00:00 0.680245 98.77757
2024-11-16T04:00:00 0.510245 98.70042
2024-11-16T05:00:00 0.610245 98.91943
2024-11-16T06:00:00 0.550245 98.5579
2024-11-16T07:00:00 0.700245 98.41928
2024-11-16T08:00:00 1.200245 97.65328
2024-11-16T09:00:00 2.340245 94.44409
2024-11-16T10:00:00 4.300245 89.19597
2024-11-16T11:00:00 5.870246 84.30803
2024-11-16T12:00:00 6.870246 80.47607
2024-11-16T13:00:00 7.790245 76.19256
2024-11-16T14:00:00 7.850246 74.81298
2024-11-16T15:00:00 6.610245 82.92519
2024-11-16T16:00:00 3.900245 91.55039
2024-11-16T17:00:00 3.260245 93.96017
2024-11-16T18:00:00 3.040246 94.41917
2024-11-16T19:00:00 2.770246 95.08367
2024-11-16T20:00:00 2.540246 95.82618
2024-11-16T21:00:00 2.450245 95.82159
2024-11-16T22:00:00 2.380245 95.68008
2024-11-16T23:00:00 2.370246 95.19814
2024-11-17T00:00:00 2.460245 95.13463
2024-11-17T01:00:00 2.250246 95.60431
2024-11-17T02:00:00 2.050245 96.00879
2024-11-17T03:00:00 2.130245 96.15144
2024-11-17T04:00:00 2.490245 95.75471
2024-11-17T05:00:00 2.680245 96.04002
2024-11-17T06:00:00 3.130245 96.13062
2024-11-17T07:00:00 3.280245 96.06905
2024-11-17T08:00:00 4.420245 94.16682
2024-11-17T09:00:00 6.030245 90.24752
2024-11-17T10:00:00 6.850246 89.37597
2024-11-17T11:00:00 7.960245 86.12128
2024-11-17T12:00:00 8.890245 81.96999
2024-11-17T13:00:00 9.310246 78.351
2024-11-17T14:00:00 9.150246 77.6715
2024-11-17T15:00:00 8.770246 78.31762
2024-11-17T16:00:00 8.380245 79.19267
2024-11-17T17:00:00 8.160246 80.3894
2024-11-17T18:00:00 7.920245 81.66071
2024-11-17T19:00:00 7.710245 83.42531
2024-11-17T20:00:00 7.490245 84.51494
2024-11-17T21:00:00 7.450245 85.10425
2024-11-17T22:00:00 7.250245 85.61865
2024-11-17T23:00:00 6.830246 87.69892
2024-11-18T00:00:00 6.580246 89.4763
2024-11-18T01:00:00 6.620246 89.54274
2024-11-18T02:00:00 6.640245 89.23124
2024-11-18T03:00:00 6.690245 88.55022
2024-11-18T04:00:00 6.750245 87.4446
2024-11-18T05:00:00 6.820245 85.1469
2024-11-18T06:00:00 6.650245 84.58737
2024-11-18T07:00:00 6.470245 85.34454
2024-11-18T08:00:00 7.080246 83.39996
2024-11-18T09:00:00 7.870246 77.45547
2024-11-18T10:00:00 8.620245 73.28271
2024-11-18T11:00:00 9.020246 71.62257
2024-11-18T12:00:00 9.440246 69.61598
2024-11-18T13:00:00 9.620245 68.19487
2024-11-18T14:00:00 9.640245 67.67103
2024-11-18T15:00:00 9.520246 67.64436
2024-11-18T16:00:00 9.280245 68.7989
2024-11-18T17:00:00 9.050245 71.62863
2024-11-18T18:00:00 8.880245 74.68768
2024-11-18T19:00:00 8.720245 76.5182
2024-11-18T20:00:00 8.550245 78.33646
2024-11-18T21:00:00 8.590245 79.5037
2024-11-18T22:00:00 8.860246 76.27464
2024-11-18T23:00:00 8.920245 76.76801
2024-11-19T00:00:00 8.770246 78.75725
2024-11-19T01:00:00 8.810246 80.88126
2024-11-19T02:00:00 8.810246 82.64577
2024-11-19T03:00:00 8.890245 84.33704
2024-11-19T04:00:00 8.860246 86.94093
2024-11-19T05:00:00 8.890245 88.09169
2024-11-19T06:00:00 8.980246 88.10056
2024-11-19T07:00:00 9.070246 87.80651
2024-11-19T08:00:00 9.260245 87.4036
2024-11-19T09:00:00 9.800245 85.44225
2024-11-19T10:00:00 10.28025 84.04566
2024-11-19T11:00:00 10.73025 80.99273
2024-11-19T12:00:00 11.02025 79.00413
2024-11-19T13:00:00 11.19025 78.49018
2024-11-19T14:00:00 11.27025 77.64545
2024-11-19T15:00:00 11.19025 79.5742
2024-11-19T16:00:00 10.99025 81.19664
2024-11-19T17:00:00 11.27025 79.20564
2024-11-19T18:00:00 11.45025 79.07082
2024-11-19T19:00:00 11.24025 81.62138
2024-11-19T20:00:00 11.18025 82.397
2024-11-19T21:00:00 10.99025 83.96138
2024-11-19T22:00:00 9.870245 84.98207
2024-11-19T23:00:00 8.450246 88.96633
2024-11-20T00:00:00 6.320245 92.12745
2024-11-20T01:00:00 6.010245 91.71729
2024-11-20T02:00:00 6.230245 86.40758
2024-11-20T03:00:00 6.080246 84.69473
2024-11-20T04:00:00 5.210245 83.02621
2024-11-20T05:00:00 4.420245 84.23815
2024-11-20T06:00:00 3.940246 85.52018
2024-11-20T07:00:00 3.470245 86.8935
2024-11-20T08:00:00 3.750246 84.82015
2024-11-20T09:00:00 4.550245 79.36369
2024-11-20T10:00:00 5.040245 74.81885
2024-11-20T11:00:00 5.830246 68.23174
2024-11-20T12:00:00 6.180245 61.94248
2024-11-20T13:00:00 6.210245 58.01688
2024-11-20T14:00:00 6.070245 57.04088
2024-11-20T15:00:00 5.420245 59.23797
2024-11-20T16:00:00 3.620246 67.32371
2024-11-20T17:00:00 3.590245 68.57703
2024-11-20T18:00:00 3.090245 69.69517
2024-11-20T19:00:00 2.690246 70.96606
2024-11-20T20:00:00 2.410245 71.43538
2024-11-20T21:00:00 2.190245 72.73083
2024-11-20T22:00:00 2.220245 72.79125
2024-11-20T23:00:00 2.240245 73.72169
2024-11-21T00:00:00 2.280245 74.50024
2024-11-21T01:00:00 2.290246 75.05688
2024-11-21T02:00:00 2.340245 75.73682
2024-11-21T03:00:00 1.940245 77.70767
2024-11-21T04:00:00 1.760245 78.89351
2024-11-21T05:00:00 1.370246 79.47244
2024-11-21T06:00:00 0.980245 81.19751
2024-11-21T07:00:00 0.960245 81.67811
2024-11-21T08:00:00 1.470245 80.91521
2024-11-21T09:00:00 2.230245 78.50961
2024-11-21T10:00:00 2.740245 76.93899
2024-11-21T11:00:00 3.100246 74.49696
2024-11-21T12:00:00 3.250246 73.49043
2024-11-21T13:00:00 2.880245 76.73837
2024-11-21T14:00:00 1.940245 85.76651
2024-11-21T15:00:00 1.190245 90.5892
2024-11-21T16:00:00 0.770245 94.68971
2024-11-21T17:00:00 0.490245 97.12764
2024-11-21T18:00:00 0.410245 96.62825
2024-11-21T19:00:00 0.410245 96.55759
2024-11-21T20:00:00 0.350245 97.33479
2024-11-21T21:00:00 0.250245 97.40179
2024-11-21T22:00:00 0.220245 97.40053
2024-11-21T23:00:00 0.200245 97.32841
2024-11-22T00:00:00 0.100245 95.34532
2024-11-22T01:00:00 -0.06975 94.42754
2024-11-22T02:00:00 -0.49975 92.94386
2024-11-22T03:00:00 -1.24975 91.64612
2024-11-22T04:00:00 -1.41975 90.47323
2024-11-22T05:00:00 -1.75975 88.68974
2024-11-22T06:00:00 -2.02975 87.0019
2024-11-22T07:00:00 -2.59975 87.39339
2024-11-22T08:00:00 -2.21975 86.9123
2024-11-22T09:00:00 -1.32975 86.37177
2024-11-22T10:00:00 -0.59975 85.43642
2024-11-22T11:00:00 -0.10975 85.18347
2024-11-22T12:00:00 0.150245 87.39748
2024-11-22T13:00:00 0.550245 86.41591
2024-11-22T14:00:00 0.780245 85.11278
2024-11-22T15:00:00 1.040245 82.2986
2024-11-22T16:00:00 1.090246 79.83937
2024-11-22T17:00:00 1.190245 79.32383
2024-11-22T18:00:00 1.590245 78.74727
2024-11-22T19:00:00 1.830245 79.43261
2024-11-22T20:00:00 2.040246 81.30477
2024-11-22T21:00:00 2.100246 83.18762
2024-11-22T22:00:00 2.370246 82.67957
2024-11-22T23:00:00 2.480245 81.13499
2024-11-23T00:00:00 2.490245 80.78013
2024-11-23T01:00:00 2.280245 81.5816
2024-11-23T02:00:00 1.970245 82.62061
2024-11-23T03:00:00 1.600245 83.29923
2024-11-23T04:00:00 0.770245 86.57101
2024-11-23T05:00:00 -0.05975 88.81098
2024-11-23T06:00:00 -1.09975 89.96564
2024-11-23T07:00:00 -2.26975 91.00372
2024-11-23T08:00:00 -1.39975 90.6107
2024-11-23T09:00:00 0.290245 85.61763
2024-11-23T10:00:00 1.350246 81.43688
2024-11-23T11:00:00 2.490245 78.32372
2024-11-23T12:00:00 3.250246 75.90929
2024-11-23T13:00:00 3.520246 75.23927
2024-11-23T14:00:00 3.170245 77.4707
2024-11-23T15:00:00 2.540246 80.78809
2024-11-23T16:00:00 1.880245 86.19968
2024-11-23T17:00:00 1.460245 88.45308
2024-11-23T18:00:00 1.570245 85.78249
2024-11-23T19:00:00 1.690245 84.98283
2024-11-23T20:00:00 1.880245 83.33947
2024-11-23T21:00:00 2.330246 81.17104
2024-11-23T22:00:00 3.600246 72.86098
2024-11-23T23:00:00 4.070245 73.8173
2024-11-24T00:00:00 4.700245 72.50081
2024-11-24T01:00:00 5.370246 69.53486
2024-11-24T02:00:00 6.020245 68.82269
2024-11-24T03:00:00 6.320245 66.67503
2024-11-24T04:00:00 6.370246 67.95793
2024-11-24T05:00:00 6.060246 68.9817
2024-11-24T06:00:00 6.290245 69.63523
2024-11-24T07:00:00 6.070245 71.27042
2024-11-24T08:00:00 6.800245 71.52535
2024-11-24T09:00:00 8.570246 70.02484
2024-11-24T10:00:00 11.32025 69.76717
2024-11-24T11:00:00 12.76025 68.20846
2024-11-24T12:00:00 13.55025 66.38861
2024-11-24T13:00:00 14.19025 65.35629
2024-11-24T14:00:00 13.94025 65.83984
2024-11-24T15:00:00 11.99025 69.76118
2024-11-24T16:00:00 9.330245 76.30369
2024-11-24T17:00:00 8.060246 79.03045
2024-11-24T18:00:00 6.910245 81.16878
2024-11-24T19:00:00 6.710245 82.23804
2024-11-24T20:00:00 6.300245 83.23573
2024-11-24T21:00:00 5.530245 86.02052
2024-11-24T22:00:00 5.020245 83.41691
2024-11-24T23:00:00 5.050245 83.54057
2024-11-25T00:00:00 4.600246 83.23928
2024-11-25T01:00:00 4.670245 83.12948
2024-11-25T02:00:00 4.680245 82.53549
2024-11-25T03:00:00 5.080246 81.5919
2024-11-25T04:00:00 5.080246 80.60177
2024-11-25T05:00:00 4.680245 80.94672
2024-11-25T06:00:00 4.470245 80.73922
2024-11-25T07:00:00 4.690245 79.2721
2024-11-25T08:00:00 5.760245 76.8129
2024-11-25T09:00:00 7.760245 72.39002
2024-11-25T10:00:00 10.13025 67.73173
2024-11-25T11:00:00 12.75025 61.46595
2024-11-25T12:00:00 14.25025 56.85849
2024-11-25T13:00:00 14.91025 58.62941
2024-11-25T14:00:00 14.76025 61.52941
2024-11-25T15:00:00 13.52025 65.07004
2024-11-25T16:00:00 12.49025 72.90499
2024-11-25T17:00:00 11.82025 77.6288
2024-11-25T18:00:00 11.20025 81.05994
2024-11-25T19:00:00 11.01025 84.99995
2024-11-25T20:00:00 11.15025 88.42847
2024-11-25T21:00:00 10.86025 91.19867
2024-11-25T22:00:00 10.50025 91.1104
2024-11-25T23:00:00 10.55025 91.85774
2024-11-26T00:00:00 10.68025 92.24013
2024-11-26T01:00:00 10.59025 89.0394
2024-11-26T02:00:00 10.21025 89.30906
2024-11-26T03:00:00 9.740245 89.26752
2024-11-26T04:00:00 9.500245 89.42973
2024-11-26T05:00:00 9.020246 90.74854
2024-11-26T06:00:00 8.490246 90.83137
2024-11-26T07:00:00 8.130245 90.61446
2024-11-26T08:00:00 8.880245 88.51688
2024-11-26T09:00:00 9.740245 87.39279
2024-11-26T10:00:00 10.68025 82.55575
2024-11-26T11:00:00 11.20025 78.65353
2024-11-26T12:00:00 11.66025 74.88243
2024-11-26T13:00:00 11.82025 72.52718
2024-11-26T14:00:00 11.76025 74.02995
2024-11-26T15:00:00 11.64025 70.27074
2024-11-26T16:00:00 10.74025 74.97549
2024-11-26T17:00:00 8.530246 86.24558
2024-11-26T18:00:00 7.700245 89.95248
2024-11-26T19:00:00 6.910245 92.87939
2024-11-26T20:00:00 6.400245 95.14225
2024-11-26T21:00:00 6.230245 95.46635
2024-11-26T22:00:00 5.740245 96.65331
2024-11-26T23:00:00 5.500245 97.05113
2024-11-27T00:00:00 5.240245 96.63335
2024-11-27T01:00:00 4.970245 96.89491
2024-11-27T02:00:00 4.690245 96.67911
2024-11-27T03:00:00 4.340245 96.2549
2024-11-27T04:00:00 3.900245 96.64626
2024-11-27T05:00:00 4.020246 96.30886
2024-11-27T06:00:00 4.270246 95.91126
2024-11-27T07:00:00 4.130245 96.72452
2024-11-27T08:00:00 4.510245 95.31351
2024-11-27T09:00:00 6.090245 93.2152
2024-11-27T10:00:00 8.230246 88.63831
2024-11-27T11:00:00 9.710245 84.96306
2024-11-27T12:00:00 10.82025 81.78672
2024-11-27T13:00:00 11.40025 78.0405
2024-11-27T14:00:00 11.51025 75.78828
2024-11-27T15:00:00 10.76025 78.36774
2024-11-27T16:00:00 9.690246 81.79826
2024-11-27T17:00:00 9.750245 78.31344
2024-11-27T18:00:00 9.810246 75.01562
2024-11-27T19:00:00 10.36025 74.38789
2024-11-27T20:00:00 10.78025 73.64355
2024-11-27T21:00:00 10.95025 74.13615
2024-11-27T22:00:00 11.00025 78.24451
2024-11-27T23:00:00 11.01025 82.09317
2024-11-28T00:00:00 10.85025 86.85307
2024-11-28T01:00:00 10.85025 88.76111
2024-11-28T02:00:00 10.96025 88.35091
2024-11-28T03:00:00 11.01025 88.47541
2024-11-28T04:00:00 10.94025 89.37264
2024-11-28T05:00:00 10.81025 89.96896
2024-11-28T06:00:00 10.35025 92.2183
2024-11-28T07:00:00 9.950245 93.96172
2024-11-28T08:00:00 9.410245 95.54462
2024-11-28T09:00:00 8.500245 95.17834
2024-11-28T10:00:00 8.080246 91.49172
2024-11-28T11:00:00 7.980245 87.33073
2024-11-28T12:00:00 8.180245 84.07191
2024-11-28T13:00:00 8.310246 81.37455
2024-11-28T14:00:00 8.190246 78.38741
2024-11-28T15:00:00 7.170245 82.5937
2024-11-28T16:00:00 5.380245 89.87151
2024-11-28T17:00:00 4.030245 92.61259
2024-11-28T18:00:00 3.150245 94.69698
2024-11-28T19:00:00 2.380245 97.20704
2024-11-28T20:00:00 2.160245 96.63945
2024-11-28T21:00:00 1.560245 96.96259
2024-11-28T22:00:00 0.180245 98.25798
2024-11-28T23:00:00 -0.40975 98.09251
2024-11-29T00:00:00 -0.64975 97.79478
2024-11-29T01:00:00 -0.61975 97.79598
2024-11-29T02:00:00 -0.93975 97.92757
2024-11-29T03:00:00 -1.04975 97.20155
2024-11-29T04:00:00 -0.91975 96.84879
2024-11-29T05:00:00 -1.13975 97.05355
2024-11-29T06:00:00 -1.20975 96.97834
2024-11-29T07:00:00 -1.12975 97.34191
2024-11-29T08:00:00 -0.37975 96.51863
2024-11-29T09:00:00 1.040245 95.46902
2024-11-29T10:00:00 2.640245 90.65611
2024-11-29T11:00:00 3.990245 86.51695
2024-11-29T12:00:00 5.080246 82.41538
2024-11-29T13:00:00 5.700245 79.38027
2024-11-29T14:00:00 5.680245 78.64072
2024-11-29T15:00:00 4.130245 86.09924
2024-11-29T16:00:00 1.630245 92.29604
2024-11-29T17:00:00 1.130245 93.20436
2024-11-29T18:00:00 1.120246 92.05303
2024-11-29T19:00:00 0.970245 91.36898
2024-11-29T20:00:00 0.610245 91.80825
2024-11-29T21:00:00 -0.07975 92.56577
2024-11-29T22:00:00 0.740245 90.61363
2024-11-29T23:00:00 0.510245 90.79233
2024-11-30T00:00:00 0.010245 91.62145
2024-11-30T01:00:00 -0.38975 91.31522
2024-11-30T02:00:00 -0.49975 90.6974
2024-11-30T03:00:00 -0.58975 90.08415
2024-11-30T04:00:00 -1.08975 90.43807
2024-11-30T05:00:00 -1.13975 90.90697
2024-11-30T06:00:00 -1.27975 91.43839
2024-11-30T07:00:00 -1.52975 90.25928
2024-11-30T08:00:00 -0.95975 91.05956
2024-11-30T09:00:00 0.180245 90.42714
2024-11-30T10:00:00 1.210245 87.97258
2024-11-30T11:00:00 2.340245 85.00622
2024-11-30T12:00:00 3.210246 82.0221
2024-11-30T13:00:00 3.810246 80.87026
2024-11-30T14:00:00 4.070245 79.7461
2024-11-30T15:00:00 4.000246 74.01991
2024-11-30T16:00:00 3.170245 79.30779
2024-11-30T17:00:00 2.160245 82.04399
2024-11-30T18:00:00 -0.05975 85.50806
2024-11-30T19:00:00 -0.09975 84.80463
2024-11-30T20:00:00 -0.49975 86.09065
2024-11-30T21:00:00 -0.82975 87.34567
2024-11-30T22:00:00 -1.61975 90.86118
2024-11-30T23:00:00 -1.85975 89.41567
2024-12-01T00:00:00 -1.91975 88.3383
2024-12-01T01:00:00 -2.04975 87.59297
2024-12-01T02:00:00 -2.39975 88.68438
2024-12-01T03:00:00 -2.55975 89.67864
2024-12-01T04:00:00 -2.41975 90.50999
2024-12-01T05:00:00 -2.13975 92.18713
2024-12-01T06:00:00 -1.97975 91.92462
2024-12-01T07:00:00 -1.94975 91.5142
2024-12-01T08:00:00 -1.66975 89.36883
2024-12-01T09:00:00 -0.11975 87.56048
2024-12-01T10:00:00 1.770245 85.05582
2024-12-01T11:00:00 3.460246 82.5378
2024-12-01T12:00:00 5.020245 77.90898
2024-12-01T13:00:00 6.370246 77.14135
2024-12-01T14:00:00 6.320245 81.48492
2024-12-01T15:00:00 4.520246 89.79204
2024-12-01T16:00:00 2.480245 97.21106
2024-12-01T17:00:00 1.880245 97.96131
2024-12-01T18:00:00 1.660245 97.1776
2024-12-01T19:00:00 2.050245 93.47394
2024-12-01T20:00:00 2.400245 89.71886
2024-12-01T21:00:00 2.930245 86.20284
2024-12-01T22:00:00 3.560246 84.36698
2024-12-01T23:00:00 3.700245 86.10931
2024-12-02T00:00:00 3.670245 87.79755
2024-12-02T01:00:00 3.560246 88.29283
2024-12-02T02:00:00 3.350246 88.52555
2024-12-02T03:00:00 3.250246 87.11957
2024-12-02T04:00:00 3.490245 87.77786
2024-12-02T05:00:00 4.100246 87.90732
2024-12-02T06:00:00 4.700245 87.40809
2024-12-02T07:00:00 5.180245 86.10148
2024-12-02T08:00:00 5.670245 86.58828
2024-12-02T09:00:00 6.990245 86.13054
2024-12-02T10:00:00 8.170245 83.71945
2024-12-02T11:00:00 9.120245 83.72572
2024-12-02T12:00:00 10.06025 82.30227
2024-12-02T13:00:00 10.53025 81.97131
2024-12-02T14:00:00 10.46025 85.34287
2024-12-02T15:00:00 9.580245 92.04089
2024-12-02T16:00:00 9.550245 94.00393
2024-12-02T17:00:00 9.860246 92.87783
2024-12-02T18:00:00 9.650246 93.30838
2024-12-02T19:00:00 9.330245 93.99194
2024-12-02T20:00:00 9.110246 93.91569
2024-12-02T21:00:00 8.850245 93.7085
2024-12-02T22:00:00 8.450246 93.4282
2024-12-02T23:00:00 8.130245 94.05439
2024-12-03T00:00:00 7.760245 94.75024
2024-12-03T01:00:00 7.460245 94.93154
2024-12-03T02:00:00 7.440245 92.97889
2024-12-03T03:00:00 7.130245 92.1861
2024-12-03T04:00:00 6.920245 90.57734
2024-12-03T05:00:00 6.630245 89.60644
2024-12-03T06:00:00 6.290245 89.01017
2024-12-03T07:00:00 6.020245 88.35871
2024-12-03T08:00:00 6.060246 87.49397
2024-12-03T09:00:00 6.760245 84.84013
2024-12-03T10:00:00 7.590245 79.06627
2024-12-03T11:00:00 8.000245 75.80014
2024-12-03T12:00:00 8.060246 73.79916
2024-12-03T13:00:00 8.120246 71.13503
2024-12-03T14:00:00 7.960245 72.79132
2024-12-03T15:00:00 7.310246 76.7036
2024-12-03T16:00:00 5.810246 84.54019
2024-12-03T17:00:00 5.090245 87.38867
2024-12-03T18:00:00 5.130245 87.76693
2024-12-03T19:00:00 5.080246 88.38807
2024-12-03T20:00:00 4.560246 90.37341
2024-12-03T21:00:00 4.150245 91.30966
2024-12-03T22:00:00 3.990245 92.80808
2024-12-03T23:00:00 4.040246 93.01038
2024-12-04T00:00:00 4.200245 92.42727
2024-12-04T01:00:00 4.480246 90.49516
2024-12-04T02:00:00 4.720245 88.91963
2024-12-04T03:00:00 4.700245 89.17146
2024-12-04T04:00:00 4.810246 88.86527
2024-12-04T05:00:00 4.780245 89.24278
2024-12-04T06:00:00 4.310246 93.22794
2024-12-04T07:00:00 4.390245 92.83663
2024-12-04T08:00:00 4.730245 93.4548
2024-12-04T09:00:00 5.130245 93.08565
2024-12-04T10:00:00 5.380245 88.2934
2024-12-04T11:00:00 5.890245 83.95201
2024-12-04T12:00:00 6.230245 79.57938
2024-12-04T13:00:00 6.180245 77.10803
2024-12-04T14:00:00 5.870246 77.38596
2024-12-04T15:00:00 5.330246 79.49117
2024-12-04T16:00:00 4.280245 85.68548
2024-12-04T17:00:00 3.770246 87.80846
2024-12-04T18:00:00 4.190246 83.96524
2024-12-04T19:00:00 3.600246 85.53939
2024-12-04T20:00:00 3.400245 86.69728
2024-12-04T21:00:00 2.760245 88.46346
2024-12-04T22:00:00 1.990246 89.48299
2024-12-04T23:00:00 -0.29975 93.02819
2024-12-05T00:00:00 -1.10975 94.77908
2024-12-05T01:00:00 -0.67975 94.0381
2024-12-05T02:00:00 -1.10975 94.70873
2024-12-05T03:00:00 -1.54975 95.3877
2024-12-05T04:00:00 -2.05975 95.57049
2024-12-05T05:00:00 -1.43975 95.11088
2024-12-05T06:00:00 -1.14975 94.56549
2024-12-05T07:00:00 -1.21975 94.63113
2024-12-05T08:00:00 -0.58975 94.11401
2024-12-05T09:00:00 0.590245 92.41538
2024-12-05T10:00:00 1.650245 89.64509
2024-12-05T11:00:00 2.840245 87.89697
2024-12-05T12:00:00 4.100246 83.89257
2024-12-05T13:00:00 4.700245 78.30555
2024-12-05T14:00:00 4.880245 78.73322
2024-12-05T15:00:00 4.960245 78.68985
2024-12-05T16:00:00 4.860245 80.39357
2024-12-05T17:00:00 4.710245 85.49301
2024-12-05T18:00:00 4.930245 87.62053
2024-12-05T19:00:00 5.330246 86.79581
2024-12-05T20:00:00 5.810246 84.00114
2024-12-05T21:00:00 6.320245 82.06578
2024-12-05T22:00:00 6.840245 84.671
2024-12-05T23:00:00 7.440245 83.97685
2024-12-06T00:00:00 8.020246 83.29147
2024-12-06T01:00:00 8.140245 91.30682
2024-12-06T02:00:00 9.330245 90.89741
2024-12-06T03:00:00 10.19025 90.53152
2024-12-06T04:00:00 10.48025 90.06395
2024-12-06T05:00:00 9.630245 88.52729
2024-12-06T06:00:00 9.230246 83.04711
2024-12-06T07:00:00 8.780245 77.12148
2024-12-06T08:00:00 8.500245 74.88068
2024-12-06T09:00:00 8.720245 73.92515
2024-12-06T10:00:00 8.990245 72.12377
2024-12-06T11:00:00 9.350245 65.80687
2024-12-06T12:00:00 9.520246 63.454
2024-12-06T13:00:00 9.770246 60.63549
2024-12-06T14:00:00 9.570246 61.89984
2024-12-06T15:00:00 8.990245 63.55233
2024-12-06T16:00:00 8.110246 69.33101
2024-12-06T17:00:00 7.650245 72.31641
2024-12-06T18:00:00 7.240245 75.01875
2024-12-06T19:00:00 6.940245 76.96634
2024-12-06T20:00:00 6.500245 78.44068
2024-12-06T21:00:00 5.900245 80.38341
2024-12-06T22:00:00 5.360245 84.12139
2024-12-06T23:00:00 5.030245 85.59354
2024-12-07T00:00:00 4.770245 86.66991
2024-12-07T01:00:00 5.120246 86.21721
2024-12-07T02:00:00 5.360245 85.63379
2024-12-07T03:00:00 5.640245 83.85915
2024-12-07T04:00:00 5.910245 82.06496
2024-12-07T05:00:00 6.060246 79.49531
2024-12-07T06:00:00 6.180245 76.88747
2024-12-07T07:00:00 6.780245 69.99346
2024-12-07T08:00:00 6.870246 70.97653
2024-12-07T09:00:00 8.090245 69.57455
2024-12-07T10:00:00 8.590245 70.92941
2024-12-07T11:00:00 8.230246 86.6322
2024-12-07T12:00:00 8.880245 89.80631
2024-12-07T13:00:00 8.920245 88.33788
2024-12-07T14:00:00 8.470245 86.95937
2024-12-07T15:00:00 8.160246 87.10735
2024-12-07T16:00:00 7.560246 86.73956
2024-12-07T17:00:00 6.930245 87.21874
2024-12-07T18:00:00 6.450245 86.92141
2024-12-07T19:00:00 6.140245 85.18356
2024-12-07T20:00:00 5.860245 82.99813
2024-12-07T21:00:00 5.690245 81.56587
2024-12-07T22:00:00 5.710245 81.10407
2024-12-07T23:00:00 5.600246 78.85336
2024-12-08T00:00:00 5.330246 79.89182
2024-12-08T01:00:00 5.190245 81.14136
2024-12-08T02:00:00 5.070245 82.29584
2024-12-08T03:00:00 4.880245 85.02612
2024-12-08T04:00:00 4.740245 87.59989
2024-12-08T05:00:00 4.450245 90.04202
2024-12-08T06:00:00 4.220245 91.64166
2024-12-08T07:00:00 4.080246 92.94693
2024-12-08T08:00:00 4.160245 93.35053
2024-12-08T09:00:00 4.800245 90.84547
2024-12-08T10:00:00 5.350246 90.50707
2024-12-08T11:00:00 6.110245 88.99282
2024-12-08T12:00:00 6.820245 85.62769
2024-12-08T13:00:00 6.920245 84.44289
2024-12-08T14:00:00 6.880245 84.97463
2024-12-08T15:00:00 6.470245 88.09382
2024-12-08T16:00:00 5.760245 91.11864
2024-12-08T17:00:00 4.970245 93.60277
2024-12-08T18:00:00 4.920245 93.40117
2024-12-08T19:00:00 5.120246 92.4294
2024-12-08T20:00:00 4.670245 93.45085
2024-12-08T21:00:00 4.460246 93.43698
2024-12-08T22:00:00 4.900245 91.30636
2024-12-08T23:00:00 4.820245 91.36465
2024-12-09T00:00:00 4.840245 92.34343
2024-12-09T01:00:00 4.890245 93.06928
2024-12-09T02:00:00 4.980245 93.07545
2024-12-09T03:00:00 4.980245 93.66961
2024-12-09T04:00:00 5.030245 93.73898
2024-12-09T05:00:00 5.090245 93.21457
2024-12-09T06:00:00 5.170245 91.97675
2024-12-09T07:00:00 5.070245 90.16237
2024-12-09T08:00:00 4.980245 89.13532
2024-12-09T09:00:00 5.000245 89.01063
2024-12-09T10:00:00 4.940245 89.51244
2024-12-09T11:00:00 5.040245 87.88231
2024-12-09T12:00:00 4.910245 85.45657
2024-12-09T13:00:00 4.930245 85.45905
2024-12-09T14:00:00 4.940245 83.76526
2024-12-09T15:00:00 4.770245 82.13414
2024-12-09T16:00:00 4.440246 82.4415
2024-12-09T17:00:00 4.400245 81.07897
2024-12-09T18:00:00 4.370246 80.20003
2024-12-09T19:00:00 4.280245 80.65119
2024-12-09T20:00:00 4.230246 80.11961
2024-12-09T21:00:00 3.970245 80.71944
2024-12-09T22:00:00 4.160245 77.8725
2024-12-09T23:00:00 4.000246 77.05469
2024-12-10T00:00:00 3.940246 75.9829
2024-12-10T01:00:00 3.760245 75.9493
2024-12-10T02:00:00 3.670245 75.93246
2024-12-10T03:00:00 3.670245 75.71039
2024-12-10T04:00:00 3.690246 77.11139
2024-12-10T05:00:00 3.660245 78.29746
2024-12-10T06:00:00 3.790246 78.43413
2024-12-10T07:00:00 3.800245 79.00914
2024-12-10T08:00:00 3.970245 79.67191
2024-12-10T09:00:00 4.250246 80.64649
2024-12-10T10:00:00 4.550245 79.70869
2024-12-10T11:00:00 4.800245 75.86655
2024-12-10T12:00:00 5.070245 74.22994
2024-12-10T13:00:00 5.290245 72.77976
2024-12-10T14:00:00 5.290245 74.05779
2024-12-10T15:00:00 4.950245 76.33539
2024-12-10T16:00:00 4.710245 77.51784
2024-12-10T17:00:00 4.600246 78.51544
2024-12-10T18:00:00 4.440246 80.03741
2024-12-10T19:00:00 4.250246 81.40823
2024-12-10T20:00:00 3.970245 82.43276
2024-12-10T21:00:00 3.600246 84.25028
2024-12-10T22:00:00 3.060246 84.23872
2024-12-10T23:00:00 3.200245 83.58698
2024-12-11T00:00:00 2.930245 83.30615
2024-12-11T01:00:00 2.910245 83.79025
2024-12-11T02:00:00 3.180245 83.82753
2024-12-11T03:00:00 3.150245 83.15556
2024-12-11T04:00:00 3.670245 82.44872
2024-12-11T05:00:00 3.630245 82.20396
2024-12-11T06:00:00 3.470245 82.95979
2024-12-11T07:00:00 3.580246 82.37576
2024-12-11T08:00:00 3.730246 81.92115
2024-12-11T09:00:00 4.020246 78.13181
2024-12-11T10:00:00 4.130245 77.41541
2024-12-11T11:00:00 4.170245 77.14134
2024-12-11T12:00:00 4.290246 76.38094
2024-12-11T13:00:00 4.350246 76.00376
2024-12-11T14:00:00 4.470245 75.14595
2024-12-11T15:00:00 4.280245 77.72385
2024-12-11T16:00:00 3.720245 81.91966
2024-12-11T17:00:00 3.560246 82.73226
2024-12-11T18:00:00 3.290246 82.99432
2024-12-11T19:00:00 3.200245 83.46555
2024-12-11T20:00:00 2.780245 83.83334
2024-12-11T21:00:00 2.550245 84.41557
2024-12-11T22:00:00 2.960246 83.00742
2024-12-11T23:00:00 2.670245 84.30869
2024-12-12T00:00:00 2.600246 86.79165
2024-12-12T01:00:00 2.270246 86.68926
2024-12-12T02:00:00 2.040246 87.55229
2024-12-12T03:00:00 2.220245 88.02047
2024-12-12T04:00:00 2.020246 88.06262
2024-12-12T05:00:00 2.050245 88.71028
2024-12-12T06:00:00 2.330246 88.28913
2024-12-12T07:00:00 2.210245 88.14768
2024-12-12T08:00:00 2.600246 85.59973
2024-12-12T09:00:00 2.880245 83.17768
2024-12-12T10:00:00 3.220245 81.72541
2024-12-12T11:00:00 3.450245 81.22669
2024-12-12T12:00:00 3.730246 79.92278
2024-12-12T13:00:00 3.870246 78.90601
2024-12-12T14:00:00 3.890245 78.33714
2024-12-12T15:00:00 3.080246 83.0851
2024-12-12T16:00:00 4.050245 76.0034
2024-12-12T17:00:00 3.280245 79.15246
2024-12-12T18:00:00 2.110245 82.6413
2024-12-12T19:00:00 1.120246 85.1579
2024-12-12T20:00:00 0.770245 85.49009
2024-12-12T21:00:00 0.580245 85.78233
2024-12-12T22:00:00 0.890245 86.33054
2024-12-12T23:00:00 0.550245 86.9932
2024-12-13T00:00:00 0.390245 87.55525
2024-12-13T01:00:00 0.160245 87.46349
2024-12-13T02:00:00 0.030245 88.3611
2024-12-13T03:00:00 -0.32975 88.25514
2024-12-13T04:00:00 -0.50975 88.62991
2024-12-13T05:00:00 -0.88975 89.18502
2024-12-13T06:00:00 -1.01975 89.17107
2024-12-13T07:00:00 -1.27975 89.74562
2024-12-13T08:00:00 -1.12975 90.29919
2024-12-13T09:00:00 -0.33975 89.04486
2024-12-13T10:00:00 1.080245 81.03279
2024-12-13T11:00:00 1.870246 79.14627
2024-12-13T12:00:00 2.870246 77.13277
2024-12-13T13:00:00 3.430245 75.72059
2024-12-13T14:00:00 3.610245 75.4775
2024-12-13T15:00:00 3.570245 72.42686
2024-12-13T16:00:00 2.760245 76.37785
2024-12-13T17:00:00 1.420245 81.02707
2024-12-13T18:00:00 0.510245 84.51053
2024-12-13T19:00:00 -0.55975 88.62438
2024-12-13T20:00:00 -0.69975 89.60493
2024-12-13T21:00:00 -0.84975 90.3269
2024-12-13T22:00:00 -0.82975 94.09729
2024-12-13T23:00:00 -0.69975 94.31564
2024-12-14T00:00:00 -0.35975 93.43708
2024-12-14T01:00:00 0.120245 91.9696
2024-12-14T02:00:00 0.200245 92.38385
2024-12-14T03:00:00 0.640245 90.80437
2024-12-14T04:00:00 0.940245 91.70171
2024-12-14T05:00:00 1.430245 90.5453
2024-12-14T06:00:00 1.730245 92.77495
2024-12-14T07:00:00 2.080246 93.67928
2024-12-14T08:00:00 2.230245 94.09672
2024-12-14T09:00:00 3.070245 93.07494
2024-12-14T10:00:00 3.890245 93.06622
2024-12-14T11:00:00 4.390245 92.37563
2024-12-14T12:00:00 4.810246 89.37281
2024-12-14T13:00:00 5.130245 88.96019
2024-12-14T14:00:00 5.080246 90.93365
2024-12-14T15:00:00 5.090245 89.90867
2024-12-14T16:00:00 4.840245 90.71991
2024-12-14T17:00:00 4.700245 90.90154
2024-12-14T18:00:00 4.540246 91.79768
2024-12-14T19:00:00 4.430245 92.57587
2024-12-14T20:00:00 4.370246 92.70327
2024-12-14T21:00:00 4.240245 92.29866
2024-12-14T22:00:00 4.080246 93.07949
2024-12-14T23:00:00 3.800245 93.05991
2024-12-15T00:00:00 3.730246 91.99633
2024-12-15T01:00:00 3.580246 90.54466
2024-12-15T02:00:00 3.480246 89.62915
2024-12-15T03:00:00 3.370246 89.3608
2024-12-15T04:00:00 3.180245 89.98853
2024-12-15T05:00:00 3.050245 91.02028
2024-12-15T06:00:00 2.830246 91.46198
2024-12-15T07:00:00 2.660245 91.71231
2024-12-15T08:00:00 2.900245 90.28754
2024-12-15T09:00:00 3.440246 88.59876
2024-12-15T10:00:00 4.100246 84.31699
2024-12-15T11:00:00 4.710245 82.36197
2024-12-15T12:00:00 5.040245 79.67312
2024-12-15T13:00:00 5.030245 78.98578
2024-12-15T14:00:00 5.050245 78.1394
2024-12-15T15:00:00 4.880245 79.24619
2024-12-15T16:00:00 4.280245 82.89526
2024-12-15T17:00:00 4.030245 83.82256
2024-12-15T18:00:00 4.000246 83.39592
2024-12-15T19:00:00 4.030245 83.15952
2024-12-15T20:00:00 3.710246 84.32597
2024-12-15T21:00:00 3.710246 84.14324
2024-12-15T22:00:00 3.550245 84.7328
2024-12-15T23:00:00 3.510245 84.42142
2024-12-16T00:00:00 3.630245 83.64663
2024-12-16T01:00:00 3.790246 83.54775
2024-12-16T02:00:00 4.060246 83.40426
2024-12-16T03:00:00 4.250246 83.49078
2024-12-16T04:00:00 4.270246 84.82635
2024-12-16T05:00:00 4.520246 84.73677
2024-12-16T06:00:00 4.710245 85.61551
2024-12-16T07:00:00 4.550245 87.32904
2024-12-16T08:00:00 4.660245 88.28172
2024-12-16T09:00:00 6.090245 85.78254
2024-12-16T10:00:00 7.400245 81.98863
2024-12-16T11:00:00 8.480246 77.07005
2024-12-16T12:00:00 8.980246 76.77837
2024-12-16T13:00:00 9.190246 75.90631
2024-12-16T14:00:00 8.930245 76.82356
2024-12-16T15:00:00 8.200246 79.38666
2024-12-16T16:00:00 6.660245 85.97115
2024-12-16T17:00:00 5.580246 89.06724
2024-12-16T18:00:00 4.890245 91.30554
2024-12-16T19:00:00 4.380245 92.11234
2024-12-16T20:00:00 3.980246 92.87358
2024-12-16T21:00:00 3.910245 93.20052
2024-12-16T22:00:00 2.810246 96.73766
2024-12-16T23:00:00 2.280245 98.46932
2024-12-17T00:00:00 2.210245 97.6912
2024-12-17T01:00:00 2.320245 97.62499
2024-12-17T02:00:00 2.410245 97.55818
2024-12-17T03:00:00 2.280245 98.04562
2024-12-17T04:00:00 2.010245 98.10712
2024-12-17T05:00:00 2.040246 97.61455
2024-12-17T06:00:00 1.960245 97.61157
2024-12-17T07:00:00 1.800245 97.88782
2024-12-17T08:00:00 1.800245 98.17085
2024-12-17T09:00:00 2.190245 98.8212
2024-12-17T10:00:00 3.720245 94.4602
2024-12-17T11:00:00 5.140245 90.36062
2024-12-17T12:00:00 6.090245 86.69739
2024-12-17T13:00:00 7.030245 82.28342
2024-12-17T14:00:00 7.090245 82.05999
2024-12-17T15:00:00 6.870246 81.68128
2024-12-17T16:00:00 5.820245 86.238
2024-12-17T17:00:00 3.800245 92.13348
2024-12-17T18:00:00 4.020246 91.69103
2024-12-17T19:00:00 3.760245 92.52654
2024-12-17T20:00:00 3.440246 92.50266
2024-12-17T21:00:00 3.250246 93.02096
2024-12-17T22:00:00 2.900245 93.46534
2024-12-17T23:00:00 2.970245 92.93401
2024-12-18T00:00:00 3.010245 94.07907
2024-12-18T01:00:00 3.730246 91.73333
2024-12-18T02:00:00 4.110245 91.43681
2024-12-18T03:00:00 4.100246 91.436
2024-12-18T04:00:00 4.680245 88.97907
2024-12-18T05:00:00 5.110245 88.32832
2024-12-18T06:00:00 5.110245 89.02142
2024-12-18T07:00:00 5.180245 88.52399
2024-12-18T08:00:00 5.390245 86.98785
2024-12-18T09:00:00 6.870246 83.01952
2024-12-18T10:00:00 8.680245 78.90826
2024-12-18T11:00:00 10.31025 74.32695
2024-12-18T12:00:00 12.03025 65.45351
2024-12-18T13:00:00 12.67025 63.71407
2024-12-18T14:00:00 12.62025 62.25442
2024-12-18T15:00:00 11.71025 63.66485
2024-12-18T16:00:00 10.26025 67.00135
2024-12-18T17:00:00 9.810246 69.49839
2024-12-18T18:00:00 9.530245 73.09819
2024-12-18T19:00:00 9.520246 76.92487
2024-12-18T20:00:00 9.370245 78.19717
2024-12-18T21:00:00 9.160245 81.04531
2024-12-18T22:00:00 9.050245 82.33473
2024-12-18T23:00:00 8.710245 84.13915
2024-12-19T00:00:00 8.110246 86.55877
2024-12-19T01:00:00 8.250245 86.87538
2024-12-19T02:00:00 7.850246 88.04912
2024-12-19T03:00:00 7.310246 88.61108
2024-12-19T04:00:00 7.260245 87.98938
2024-12-19T05:00:00 7.630245 82.19441
2024-12-19T06:00:00 8.520246 79.10399
2024-12-19T07:00:00 9.280245 86.50764
2024-12-19T08:00:00 10.18025 87.13936
2024-12-19T09:00:00 10.74025 85.78346
2024-12-19T10:00:00 11.83025 81.09399
2024-12-19T11:00:00 12.71025 76.51449
2024-12-19T12:00:00 13.19025 73.78674
2024-12-19T13:00:00 13.51025 71.0844
2024-12-19T14:00:00 12.58025 72.82219
2024-12-19T15:00:00 9.810246 80.69195
2024-12-19T16:00:00 6.860245 86.9056
2024-12-19T17:00:00 6.320245 83.35653
2024-12-19T18:00:00 5.890245 83.89238
2024-12-19T19:00:00 5.380245 84.00407
2024-12-19T20:00:00 5.130245 80.84149
2024-12-19T21:00:00 4.450245 82.91938
2024-12-19T22:00:00 4.190246 82.5839
2024-12-19T23:00:00 3.940246 84.35657
2024-12-20T00:00:00 3.660245 85.98029
2024-12-20T01:00:00 3.400245 87.07385
2024-12-20T02:00:00 3.180245 88.1887
2024-12-20T03:00:00 3.110245 88.24495
2024-12-20T04:00:00 3.120246 87.35713
2024-12-20T05:00:00 3.020246 86.96701
2024-12-20T06:00:00 3.250246 87.18257
2024-12-20T07:00:00 3.190246 87.55478
2024-12-20T08:00:00 3.150245 88.313
2024-12-20T09:00:00 3.430245 88.66158
2024-12-20T10:00:00 3.880245 86.00707
2024-12-20T11:00:00 4.410245 86.44216
2024-12-20T12:00:00 4.690245 83.8517
2024-12-20T13:00:00 4.970245 79.94917
2024-12-20T14:00:00 4.830246 78.1581
2024-12-20T15:00:00 4.140245 78.2094
2024-12-20T16:00:00 3.390245 80.68675
2024-12-20T17:00:00 2.540246 84.22957
2024-12-20T18:00:00 1.830245 86.13039
2024-12-20T19:00:00 1.630245 87.12166
2024-12-20T20:00:00 1.340246 87.72926
2024-12-20T21:00:00 1.540245 87.0472
2024-12-20T22:00:00 1.470245 86.8475
2024-12-20T23:00:00 1.650245 85.7297
2024-12-21T00:00:00 1.910245 84.14329
2024-12-21T01:00:00 2.260245 82.6028
2024-12-21T02:00:00 2.440245 81.54643
2024-12-21T03:00:00 2.540246 81.32307
2024-12-21T04:00:00 2.680245 81.52367
2024-12-21T05:00:00 2.910245 81.38041
2024-12-21T06:00:00 2.960246 82.70541
2024-12-21T07:00:00 3.010245 82.89371
2024-12-21T08:00:00 3.190246 83.34288
2024-12-21T09:00:00 4.340245 80.48581
2024-12-21T10:00:00 5.280245 76.28519
2024-12-21T11:00:00 6.240245 73.86926
2024-12-21T12:00:00 6.830246 74.3019
2024-12-21T13:00:00 6.930245 74.96089
2024-12-21T14:00:00 7.040245 75.57189
2024-12-21T15:00:00 6.980245 77.41261
2024-12-21T16:00:00 6.890245 80.65031
2024-12-21T17:00:00 6.870246 82.26077
2024-12-21T18:00:00 6.870246 83.1955
2024-12-21T19:00:00 6.650245 85.5471
2024-12-21T20:00:00 6.300245 89.13643
2024-12-21T21:00:00 5.950245 91.07002
2024-12-21T22:00:00 6.190245 88.6253
2024-12-21T23:00:00 6.190245 87.75514
2024-12-22T00:00:00 6.500245 87.47941
2024-12-22T01:00:00 6.880245 87.88885
2024-12-22T02:00:00 7.260245 88.42075
2024-12-22T03:00:00 7.650245 88.0903
2024-12-22T04:00:00 8.120246 87.04257
2024-12-22T05:00:00 8.650246 86.85832
2024-12-22T06:00:00 8.380245 85.69147
2024-12-22T07:00:00 6.840245 86.90338
2024-12-22T08:00:00 6.470245 87.72279
2024-12-22T09:00:00 6.370246 84.85129
2024-12-22T10:00:00 6.580246 88.91309
2024-12-22T11:00:00 5.930245 85.03689
2024-12-22T12:00:00 5.420245 84.36958
2024-12-22T13:00:00 5.470245 77.93037
2024-12-22T14:00:00 5.210245 76.93634
2024-12-22T15:00:00 4.550245 77.54587
2024-12-22T16:00:00 3.590245 80.60097
2024-12-22T17:00:00 2.790246 85.06494
2024-12-22T18:00:00 2.350246 91.68669
2024-12-22T19:00:00 2.420245 93.02814
2024-12-22T20:00:00 2.360245 93.90154
2024-12-22T21:00:00 2.470245 90.96956
2024-12-22T22:00:00 2.210245 87.12584
2024-12-22T23:00:00 2.200245 88.2108
2024-12-23T00:00:00 2.290246 87.13516
2024-12-23T01:00:00 2.230245 88.14986
2024-12-23T02:00:00 1.940245 90.32912
2024-12-23T03:00:00 1.900245 91.84917
2024-12-23T04:00:00 1.720245 93.45075
2024-12-23T05:00:00 1.720245 94.26837
2024-12-23T06:00:00 1.900245 94.62199
2024-12-23T07:00:00 1.990246 94.55904
2024-12-23T08:00:00 2.290246 94.57745
2024-12-23T09:00:00 3.060246 92.74034
2024-12-23T10:00:00 3.100246 94.49057
2024-12-23T11:00:00 3.700245 90.75037
2024-12-23T12:00:00 4.310246 87.17728
2024-12-23T13:00:00 4.830246 83.87056
2024-12-23T14:00:00 4.820245 81.43578
2024-12-23T15:00:00 4.400245 83.63175
2024-12-23T16:00:00 3.680245 87.60923
2024-12-23T17:00:00 3.710246 88.18176
2024-12-23T18:00:00 3.770246 87.55616
2024-12-23T19:00:00 3.780245 88.37956
2024-12-23T20:00:00 3.780245 89.33682
2024-12-23T21:00:00 3.760245 89.91369
2024-12-23T22:00:00 3.070245 91.02201
2024-12-23T23:00:00 3.250246 91.10308
2024-12-24T00:00:00 2.800245 92.05516
2024-12-24T01:00:00 2.440245 92.29299
2024-12-24T02:00:00 2.900245 92.72849
2024-12-24T03:00:00 2.480245 93.0997
2024-12-24T04:00:00 2.200245 92.87753
2024-12-24T05:00:00 2.130245 93.81837
2024-12-24T06:00:00 1.980245 94.49002
2024-12-24T07:00:00 2.170245 92.67374
2024-12-24T08:00:00 2.280245 94.09995
2024-12-24T09:00:00 3.410245 91.83924
2024-12-24T10:00:00 4.020246 87.96179
2024-12-24T11:00:00 4.750245 85.86579
2024-12-24T12:00:00 5.350246 83.04571
2024-12-24T13:00:00 5.270245 82.38367
2024-12-24T14:00:00 5.390245 80.99743
2024-12-24T15:00:00 4.730245 88.73072
2024-12-24T16:00:00 3.510245 92.70692
2024-12-24T17:00:00 3.110245 94.01796
2024-12-24T18:00:00 2.690246 96.87136
2024-12-24T19:00:00 2.890245 95.36379
2024-12-24T20:00:00 2.760245 95.15146
2024-12-24T21:00:00 2.620246 95.34916
2024-12-24T22:00:00 2.610245 95.69206
2024-12-24T23:00:00 2.650245 96.10757
2024-12-25T00:00:00 2.850246 94.88352
2024-12-25T01:00:00 2.350246 95.05984
2024-12-25T02:00:00 1.780245 96.832
2024-12-25T03:00:00 1.640245 96.75574
2024-12-25T04:00:00 1.500245 95.84171
2024-12-25T05:00:00 1.380245 94.86538
2024-12-25T06:00:00 1.180245 94.02747
2024-12-25T07:00:00 1.020245 93.46904
2024-12-25T08:00:00 1.350246 92.40841
2024-12-25T09:00:00 2.420245 89.65575
2024-12-25T10:00:00 3.600246 84.06753
2024-12-25T11:00:00 4.740245 79.39491
2024-12-25T12:00:00 5.620246 75.63522
2024-12-25T13:00:00 6.200245 72.5434
2024-12-25T14:00:00 6.560246 69.99657
2024-12-25T15:00:00 5.270245 80.22719
2024-12-25T16:00:00 3.480246 86.08261
2024-12-25T17:00:00 2.370246 90.36921
2024-12-25T18:00:00 1.480245 92.82352
2024-12-25T19:00:00 0.900245 94.00861
2024-12-25T20:00:00 0.400245 95.01403
2024-12-25T21:00:00 0.210245 94.65431
2024-12-25T22:00:00 -0.29975 90.85096
2024-12-25T23:00:00 -0.39975 90.03623
2024-12-26T00:00:00 -0.57975 90.62243
2024-12-26T01:00:00 -0.67975 90.41087
2024-12-26T02:00:00 -0.65975 89.80941
2024-12-26T03:00:00 -0.92975 90.1172
2024-12-26T04:00:00 -1.07975 90.57415
2024-12-26T05:00:00 -1.28975 90.6214
2024-12-26T06:00:00 -1.38975 90.47618
2024-12-26T07:00:00 -1.37975 89.66807
2024-12-26T08:00:00 -0.76975 88.40298
2024-12-26T09:00:00 0.730245 85.73819
2024-12-26T10:00:00 1.330245 82.64741
2024-12-26T11:00:00 2.290246 78.34649
2024-12-26T12:00:00 3.240245 75.79595
2024-12-26T13:00:00 3.970245 73.95976
2024-12-26T14:00:00 4.250246 75.76403
2024-12-26T15:00:00 4.020246 76.66607
2024-12-26T16:00:00 3.160245 81.7163
2024-12-26T17:00:00 -0.03975 93.11684
2024-12-26T18:00:00 -0.83975 95.43049
2024-12-26T19:00:00 -1.15975 95.55309
2024-12-26T20:00:00 -1.32975 95.61404
2024-12-26T21:00:00 -1.37975 94.05851
2024-12-26T22:00:00 -1.61975 92.78539
2024-12-26T23:00:00 -1.66975 92.08975
2024-12-27T00:00:00 -1.51975 91.27979
2024-12-27T01:00:00 -1.53975 90.59703
2024-12-27T02:00:00 -1.36975 88.73333
2024-12-27T03:00:00 -1.32975 87.02332
2024-12-27T04:00:00 -1.21975 86.64576
2024-12-27T05:00:00 -1.34975 86.9555
2024-12-27T06:00:00 -1.44975 86.87772
2024-12-27T07:00:00 -1.63975 87.4446
2024-12-27T08:00:00 -1.52975 88.58237
2024-12-27T09:00:00 -0.24975 86.50862
2024-12-27T10:00:00 0.860245 84.5586
2024-12-27T11:00:00 1.980245 81.59525
2024-12-27T12:00:00 2.860245 80.898
2024-12-27T13:00:00 3.280245 82.63162
2024-12-27T14:00:00 3.560246 84.36698
2024-12-27T15:00:00 2.340245 87.45886
2024-12-27T16:00:00 0.280245 91.51002
2024-12-27T17:00:00 -0.43975 93.22405
2024-12-27T18:00:00 -0.50975 92.87428
2024-12-27T19:00:00 -0.58975 92.45589
2024-12-27T20:00:00 -0.77975 91.75604
2024-12-27T21:00:00 -0.95975 91.67194
2024-12-27T22:00:00 -0.89975 91.95046
2024-12-27T23:00:00 -1.15975 91.51756
2024-12-28T00:00:00 -1.31975 91.63985
2024-12-28T01:00:00 -1.44975 91.97124
2024-12-28T02:00:00 -1.68975 92.84911
2024-12-28T03:00:00 -1.75975 92.08192
2024-12-28T04:00:00 -1.69975 91.12636
2024-12-28T05:00:00 -1.69975 90.92164
2024-12-28T06:00:00 -1.92975 91.37872
2024-12-28T07:00:00 -1.81975 91.18343
2024-12-28T08:00:00 -1.39975 90.4752
2024-12-28T09:00:00 0.380245 89.78166
2024-12-28T10:00:00 1.970245 88.89606
2024-12-28T11:00:00 3.290246 84.39208
2024-12-28T12:00:00 4.360245 83.26576
2024-12-28T13:00:00 4.960245 82.39809
2024-12-28T14:00:00 4.860245 87.98846
2024-12-28T15:00:00 3.370246 87.25926
2024-12-28T16:00:00 0.590245 94.12534
2024-12-28T17:00:00 0.000245 95.76079
2024-12-28T18:00:00 -0.10975 96.10735
2024-12-28T19:00:00 -0.23975 96.02975
2024-12-28T20:00:00 -0.51975 96.01462
2024-12-28T21:00:00 -0.94975 95.99105
2024-12-28T22:00:00 -0.92975 96.63363
2024-12-28T23:00:00 -1.09975 96.41054
2024-12-29T00:00:00 -1.42975 96.89578
2024-12-29T01:00:00 -1.64975 96.59702
2024-12-29T02:00:00 -1.88975 95.43808
2024-12-29T03:00:00 -1.88975 95.01127
2024-12-29T04:00:00 -1.70975 94.17548
2024-12-29T05:00:00 -1.62975 93.34099
2024-12-29T06:00:00 -1.70975 93.68428
2024-12-29T07:00:00 -1.77975 93.12016
2024-12-29T08:00:00 -1.27975 92.32977
2024-12-29T09:00:00 -0.03975 90.94247
2024-12-29T10:00:00 0.780245 92.09244
2024-12-29T11:00:00 1.650245 90.63178
2024-12-29T12:00:00 2.380245 88.74492
2024-12-29T13:00:00 2.620246 88.19225
2024-12-29T14:00:00 2.510245 91.03895
2024-12-29T15:00:00 0.890245 94.21425
2024-12-29T16:00:00 -0.07975 96.1796
2024-12-29T17:00:00 -0.33975 95.38963
2024-12-29T18:00:00 -0.56975 94.95415
2024-12-29T19:00:00 -0.58975 94.18367
2024-12-29T20:00:00 -0.74975 94.2424
2024-12-29T21:00:00 -0.51975 94.25813
2024-12-29T22:00:00 -0.52975 93.07926
2024-12-29T23:00:00 -0.83975 92.50398
2024-12-30T00:00:00 -0.97975 92.42368
2024-12-30T01:00:00 -0.99975 92.35329
2024-12-30T02:00:00 -1.29975 92.12167
2024-12-30T03:00:00 -1.25975 91.57684
2024-12-30T04:00:00 -1.31975 91.23009
2024-12-30T05:00:00 -1.12975 90.70459
2024-12-30T06:00:00 -1.41975 90.88032
2024-12-30T07:00:00 -1.44975 90.53803
2024-12-30T08:00:00 -1.16975 89.08825
2024-12-30T09:00:00 -0.72975 89.66859
2024-12-30T10:00:00 -0.59975 90.68787
2024-12-30T11:00:00 -0.06975 89.53699
2024-12-30T12:00:00 0.630245 89.41072
2024-12-30T13:00:00 1.010245 89.25273
2024-12-30T14:00:00 1.080245 87.50626
2024-12-30T15:00:00 1.010245 88.01482
2024-12-30T16:00:00 0.190245 90.89659
2024-12-30T17:00:00 -1.61975 95.88213
2024-12-30T18:00:00 -1.74975 94.24303
2024-12-30T19:00:00 -1.69975 94.17618
2024-12-30T20:00:00 -1.84975 93.74392
2024-12-30T21:00:00 -1.83975 93.18514
2024-12-30T22:00:00 -1.76975 92.56504
2024-12-30T23:00:00 -2.00975 92.12922
2024-12-31T00:00:00 -2.08975 91.15801
2024-12-31T01:00:00 -2.33975 91.5472
2024-12-31T02:00:00 -2.46975 91.19065
2024-12-31T03:00:00 -2.66975 91.30949
2024-12-31T04:00:00 -2.84975 91.36156
2024-12-31T05:00:00 -2.89975 90.66755
2024-12-31T06:00:00 -2.78975 90.81587
2024-12-31T07:00:00 -2.86975 89.98603
2024-12-31T08:00:00 -2.28975 89.16712
2024-12-31T09:00:00 -0.76975 88.07362
2024-12-31T10:00:00 0.680245 85.16249
2024-12-31T11:00:00 2.560246 83.13191
2024-12-31T12:00:00 4.070245 79.7461
2024-12-31T13:00:00 5.020245 78.5865
2024-12-31T14:00:00 4.860245 81.85268
2024-12-31T15:00:00 3.220245 87.87504
2024-12-31T16:00:00 1.190245 92.12608
2024-12-31T17:00:00 0.340245 92.25935
2024-12-31T18:00:00 -0.14975 92.49179
2024-12-31T19:00:00 -0.45975 92.53505
2024-12-31T20:00:00 -0.27975 90.78554
2024-12-31T21:00:00 -0.64975 92.04031
2024-12-31T22:00:00 -0.55975 91.43544
2024-12-31T23:00:00 -0.69975 91.28707
2025-01-01T00:00:00 -1.10975 92.41286
2025-01-01T01:00:00 -1.29975 92.46593
2025-01-01T02:00:00 -1.52975 92.37766
2025-01-01T03:00:00 -1.59975 92.50998
2025-01-01T04:00:00 -1.21975 91.99124
2025-01-01T05:00:00 -0.87975 91.61085
2025-01-01T06:00:00 -0.04975 88.22117
2025-01-01T07:00:00 -0.07975 86.91683
2025-01-01T08:00:00 0.450245 85.25825
2025-01-01T09:00:00 2.200245 82.05004
2025-01-01T10:00:00 4.140245 79.18101
2025-01-01T11:00:00 5.830246 73.09972
2025-01-01T12:00:00 7.380245 68.57854
2025-01-01T13:00:00 8.380245 64.7858
2025-01-01T14:00:00 8.510245 63.48105
2025-01-01T15:00:00 7.500245 65.32608
2025-01-01T16:00:00 5.470245 70.37216
2025-01-01T17:00:00 4.700245 72.81892
2025-01-01T18:00:00 4.330246 73.59956
2025-01-01T19:00:00 4.210246 74.06139
2025-01-01T20:00:00 3.990245 74.4527
2025-01-01T21:00:00 4.120246 73.50372
2025-01-01T22:00:00 5.090245 64.98443
2025-01-01T23:00:00 5.230245 64.92284
2025-01-02T00:00:00 5.610245 61.79652
2025-01-02T01:00:00 5.900245 59.14703
2025-01-02T02:00:00 6.220245 57.25157
2025-01-02T03:00:00 6.740245 54.41625
2025-01-02T04:00:00 7.300245 50.6349
2025-01-02T05:00:00 7.620246 49.75706
2025-01-02T06:00:00 7.630245 50.88254
2025-01-02T07:00:00 8.030246 50.0261
2025-01-02T08:00:00 8.390245 51.17926
2025-01-02T09:00:00 9.370245 51.91568
2025-01-02T10:00:00 9.290245 58.41562
2025-01-02T11:00:00 8.910245 67.17274
2025-01-02T12:00:00 8.280246 76.38719
2025-01-02T13:00:00 7.670245 81.56731
2025-01-02T14:00:00 7.280245 86.40562
2025-01-02T15:00:00 7.010245 88.1488
2025-01-02T16:00:00 6.510245 90.79691
2025-01-02T17:00:00 5.500245 94.09884
2025-01-02T18:00:00 4.500246 95.7187
2025-01-02T19:00:00 2.960246 96.05367
2025-01-02T20:00:00 2.200245 95.87789
2025-01-02T21:00:00 2.090245 95.0449
2025-01-02T22:00:00 1.850245 95.65211
2025-01-02T23:00:00 1.780245 95.64837
2025-01-03T00:00:00 1.580245 95.499
2025-01-03T01:00:00 1.370246 94.93378
2025-01-03T02:00:00 1.330245 93.96906
2025-01-03T03:00:00 0.940245 94.35526
2025-01-03T04:00:00 0.660245 94.26798
2025-01-03T05:00:00 0.420245 94.73709
2025-01-03T06:00:00 0.250245 95.00491
2025-01-03T07:00:00 0.240245 94.44792
2025-01-03T08:00:00 0.630245 93.578
2025-01-03T09:00:00 1.340246 90.40458
2025-01-03T10:00:00 1.950245 87.67001
2025-01-03T11:00:00 2.540246 82.76504
2025-01-03T12:00:00 2.910245 80.43377
2025-01-03T13:00:00 3.010245 78.24189
2025-01-03T14:00:00 2.970245 75.07803
2025-01-03T15:00:00 2.440245 73.92656
2025-01-03T16:00:00 1.150245 78.78769
2025-01-03T17:00:00 0.470245 82.57971
2025-01-03T18:00:00 -0.37975 86.49231
2025-01-03T19:00:00 -1.18975 87.10593
2025-01-03T20:00:00 -1.30975 87.41876
2025-01-03T21:00:00 -1.36975 85.59028
2025-01-03T22:00:00 -3.52975 89.77931
2025-01-03T23:00:00 -3.64975 90.17838
2025-01-04T00:00:00 -3.66975 89.83279
2025-01-04T01:00:00 -3.85975 90.22524
2025-01-04T02:00:00 -4.19975 90.25863
2025-01-04T03:00:00 -4.39975 90.93277
2025-01-04T04:00:00 -4.41975 91.00053
2025-01-04T05:00:00 -4.37975 91.2841
2025-01-04T06:00:00 -4.38976 91.00354
2025-01-04T07:00:00 -4.63976 90.1427
2025-01-04T08:00:00 -3.64975 87.93303
2025-01-04T09:00:00 -2.17975 86.78589
2025-01-04T10:00:00 -0.85975 84.31912
2025-01-04T11:00:00 -0.07975 81.39222
2025-01-04T12:00:00 0.760245 79.07285
2025-01-04T13:00:00 1.190245 76.30933
2025-01-04T14:00:00 1.170245 76.4196
2025-01-04T15:00:00 0.500245 83.32472
2025-01-04T16:00:00 -0.09975 84.30006
2025-01-04T17:00:00 -0.17975 87.03404
2025-01-04T18:00:00 -0.07975 88.61143
2025-01-04T19:00:00 -0.08975 91.81603
2025-01-04T20:00:00 0.010245 93.12064
2025-01-04T21:00:00 0.060245 94.784
2025-01-04T22:00:00 0.180245 95.07043
2025-01-04T23:00:00 0.430245 95.43441
2025-01-05T00:00:00 0.580245 96.07314
2025-01-05T01:00:00 0.300245 97.33267
2025-01-05T02:00:00 1.110246 95.33397
2025-01-05T03:00:00 3.310246 94.84198
2025-01-05T04:00:00 5.820245 94.18385
2025-01-05T05:00:00 6.780245 93.25987
2025-01-05T06:00:00 7.440245 91.95254
2025-01-05T07:00:00 7.990245 91.35848
2025-01-05T08:00:00 8.390245 91.01155
2025-01-05T09:00:00 8.820246 90.67027
2025-01-05T10:00:00 9.260245 89.77735
2025-01-05T11:00:00 10.16025 87.91455
2025-01-05T12:00:00 10.36025 87.45572
2025-01-05T13:00:00 10.14025 85.89226
2025-01-05T14:00:00 10.32025 84.10826
2025-01-05T15:00:00 9.880245 84.69175
2025-01-05T16:00:00 9.040245 85.11794
2025-01-05T17:00:00 8.470245 85.82098
2025-01-05T18:00:00 7.670245 86.44952
2025-01-05T19:00:00 7.400245 87.57455
2025-01-05T20:00:00 6.790245 88.62221
2025-01-05T21:00:00 6.340245 90.0214
2025-01-05T22:00:00 5.520245 92.2631
2025-01-05T23:00:00 5.310246 91.79263
2025-01-06T00:00:00 4.930245 91.6331
2025-01-06T01:00:00 4.630245 90.37964
2025-01-06T02:00:00 4.380245 90.74477
2025-01-06T03:00:00 4.410245 89.58971
2025-01-06T04:00:00 4.430245 88.19464
2025-01-06T05:00:00 4.700245 88.34889
2025-01-06T06:00:00 4.940245 87.37219
2025-01-06T07:00:00 4.980245 87.43886
2025-01-06T08:00:00 5.440245 86.56191
2025-01-06T09:00:00 7.280245 83.72044
2025-01-06T10:00:00 9.170245 80.4853
2025-01-06T11:00:00 11.20025 75.99551
2025-01-06T12:00:00 12.60025 69.69483
2025-01-06T13:00:00 13.37025 65.35062
2025-01-06T14:00:00 12.91025 61.80592
2025-01-06T15:00:00 12.97025 66.35127
2025-01-06T16:00:00 11.93025 77.06506
2025-01-06T17:00:00 10.94025 83.7835
2025-01-06T18:00:00 9.960245 85.98991
2025-01-06T19:00:00 9.410245 83.82071
2025-01-06T20:00:00 8.950245 83.70387
2025-01-06T21:00:00 8.480246 83.06258
2025-01-06T22:00:00 8.070246 81.05508
2025-01-06T23:00:00 7.700245 77.92044
2025-01-07T00:00:00 7.410245 76.55808
2025-01-07T01:00:00 7.210245 75.87248
2025-01-07T02:00:00 7.080246 74.40268
2025-01-07T03:00:00 6.900245 74.26217
2025-01-07T04:00:00 6.640245 74.31878
2025-01-07T05:00:00 6.340245 74.31459
2025-01-07T06:00:00 6.180245 74.98119
2025-01-07T07:00:00 6.110245 76.49027
2025-01-07T08:00:00 6.210245 77.33438
2025-01-07T09:00:00 6.380245 79.94418
2025-01-07T10:00:00 6.430245 78.48496
2025-01-07T11:00:00 6.390245 77.92023
2025-01-07T12:00:00 6.570245 75.91862
2025-01-07T13:00:00 6.790245 74.13493
2025-01-07T14:00:00 6.600246 74.89899
2025-01-07T15:00:00 6.350246 73.41414
2025-01-07T16:00:00 5.870246 74.4384
2025-01-07T17:00:00 5.580246 74.32886
2025-01-07T18:00:00 5.410245 75.92439
2025-01-07T19:00:00 5.600246 76.06887
2025-01-07T20:00:00 5.770245 78.31813
2025-01-07T21:00:00 5.420245 82.22862
2025-01-07T22:00:00 5.010245 82.58278
2025-01-07T23:00:00 5.250245 81.50032
2025-01-08T00:00:00 6.020245 77.85704
2025-01-08T01:00:00 6.940245 76.20274
2025-01-08T02:00:00 7.440245 76.56338
2025-01-08T03:00:00 7.620246 80.6471
2025-01-08T04:00:00 7.510245 85.88939
2025-01-08T05:00:00 7.170245 88.78333
2025-01-08T06:00:00 7.000245 91.15461
2025-01-08T07:00:00 6.960245 91.91735
2025-01-08T08:00:00 6.970245 92.11043
2025-01-08T09:00:00 7.070245 92.63194
2025-01-08T10:00:00 6.260245 95.93512
2025-01-08T11:00:00 6.730245 93.64742
2025-01-08T12:00:00 7.530245 91.89531
2025-01-08T13:00:00 8.410246 90.20042
2025-01-08T14:00:00 10.22025 88.10058
2025-01-08T15:00:00 11.47025 82.66047
2025-01-08T16:00:00 11.62025 78.07586
2025-01-08T17:00:00 11.48025 76.25337
2025-01-08T18:00:00 12.16025 74.35786
2025-01-08T19:00:00 13.15025 69.28341
2025-01-08T20:00:00 13.26025 69.44886
2025-01-08T21:00:00 13.27025 71.23131
2025-01-08T22:00:00 11.96025 80.39857
2025-01-08T23:00:00 11.51025 83.74052
2025-01-09T00:00:00 11.46025 81.20762
2025-01-09T01:00:00 11.39025 79.27835
2025-01-09T02:00:00 11.04025 78.7905
2025-01-09T03:00:00 10.99025 79.27121
2025-01-09T04:00:00 11.17025 78.16431
2025-01-09T05:00:00 11.29025 77.1171
2025-01-09T06:00:00 11.64025 75.13673
2025-01-09T07:00:00 11.72025 74.43116
2025-01-09T08:00:00 12.01025 71.32439
2025-01-09T09:00:00 12.58025 68.92662
2025-01-09T10:00:00 12.39025 71.79344
2025-01-09T11:00:00 12.02025 74.38345
2025-01-09T12:00:00 12.45025 71.7066
2025-01-09T13:00:00 12.69025 71.557
2025-01-09T14:00:00 12.34025 74.85004
2025-01-09T15:00:00 11.27025 78.93468
2025-01-09T16:00:00 8.560246 83.36294
2025-01-09T17:00:00 5.630245 80.68697
2025-01-09T18:00:00 4.370246 77.57049
2025-01-09T19:00:00 3.610245 76.08821
2025-01-09T20:00:00 3.020246 78.07163
2025-01-09T21:00:00 2.690246 79.16896
2025-01-09T22:00:00 2.430245 82.74896
2025-01-09T23:00:00 2.380245 82.55997
2025-01-10T00:00:00 2.440245 81.48665
2025-01-10T01:00:00 2.390245 80.82355
2025-01-10T02:00:00 2.140245 81.67999
2025-01-10T03:00:00 2.090245 81.9731
2025-01-10T04:00:00 1.980245 83.35379
2025-01-10T05:00:00 1.990246 83.90772
2025-01-10T06:00:00 1.830245 84.25593
2025-01-10T07:00:00 1.520245 85.77613
2025-01-10T08:00:00 1.830245 84.75223
2025-01-10T09:00:00 2.300245 83.15541
2025-01-10T10:00:00 3.160245 77.41212
2025-01-10T11:00:00 3.780245 76.00861
2025-01-10T12:00:00 4.340245 73.17241
2025-01-10T13:00:00 4.620246 71.58934
2025-01-10T14:00:00 4.680245 69.12812
2025-01-10T15:00:00 4.010245 75.16784
2025-01-10T16:00:00 3.320245 69.53995
2025-01-10T17:00:00 2.210245 76.61452
2025-01-10T18:00:00 0.820245 86.64109
2025-01-10T19:00:00 0.470245 88.54059
2025-01-10T20:00:00 0.530245 89.13711
2025-01-10T21:00:00 0.200245 89.49854
2025-01-10T22:00:00 -0.36975 93.43633
2025-01-10T23:00:00 -1.09975 94.85013
2025-01-11T00:00:00 -1.50975 96.0312
2025-01-11T01:00:00 -2.00975 96.65044
2025-01-11T02:00:00 -2.25975 96.99951
2025-01-11T03:00:00 -2.41975 97.72029
2025-01-11T04:00:00 -2.92975 97.8446
2025-01-11T05:00:00 -2.77975 97.33835
2025-01-11T06:00:00 -2.98975 97.25514
2025-01-11T07:00:00 -3.41975 97.01404
2025-01-11T08:00:00 -3.11975 97.10243
2025-01-11T09:00:00 -1.33975 93.0853
2025-01-11T10:00:00 0.110245 88.10848
2025-01-11T11:00:00 1.080245 83.34719
2025-01-11T12:00:00 1.880245 79.03102
2025-01-11T13:00:00 2.450245 77.0563
2025-01-11T14:00:00 2.440245 75.86804
2025-01-11T15:00:00 1.970245 77.88584
2025-01-11T16:00:00 0.920245 83.01584
2025-01-11T17:00:00 0.260245 85.55015
2025-01-11T18:00:00 -0.23975 88.2653
2025-01-11T19:00:00 -1.44975 90.67367
2025-01-11T20:00:00 -1.99975 91.71602
2025-01-11T21:00:00 -2.10975 91.01906
2025-01-11T22:00:00 -2.07975 93.16618
2025-01-11T23:00:00 -2.62975 92.98195
2025-01-12T00:00:00 -3.16975 93.50206
2025-01-12T01:00:00 -3.48975 93.97451
2025-01-12T02:00:00 -3.30975 95.70995
2025-01-12T03:00:00 -3.18975 95.71732
2025-01-12T04:00:00 -2.56975 95.18118
2025-01-12T05:00:00 -2.16975 93.79033
2025-01-12T06:00:00 -2.02975 94.29382
2025-01-12T07:00:00 -1.79975 94.30997
2025-01-12T08:00:00 -1.41975 93.9856
2025-01-12T09:00:00 -0.72975 93.61743
2025-01-12T10:00:00 0.140245 90.82488
2025-01-12T11:00:00 0.870245 85.18771
2025-01-12T12:00:00 1.620246 77.30473
2025-01-12T13:00:00 1.980245 71.60957
2025-01-12T14:00:00 2.110245 67.31899
2025-01-12T15:00:00 1.650245 67.76933
2025-01-12T16:00:00 0.560245 71.95042
2025-01-12T17:00:00 -0.43975 77.03825
2025-01-12T18:00:00 -1.51975 81.15889
2025-01-12T19:00:00 -2.29975 83.15778
2025-01-12T20:00:00 -2.89975 84.15271
2025-01-12T21:00:00 -2.91975 84.02126
2025-01-12T22:00:00 -3.17975 84.69315
2025-01-12T23:00:00 -3.47976 84.71497
2025-01-13T00:00:00 -3.57975 85.22235
2025-01-13T01:00:00 -3.35975 85.0575
2025-01-13T02:00:00 -3.42975 85.5706
2025-01-13T03:00:00 -3.69975 85.99416
2025-01-13T04:00:00 -3.76976 86.78023
2025-01-13T05:00:00 -3.74976 86.51696
2025-01-13T06:00:00 -4.17975 86.66003
2025-01-13T07:00:00 -4.55976 85.87674
2025-01-13T08:00:00 -3.31975 83.44819
2025-01-13T09:00:00 -1.31975 78.05048
2025-01-13T10:00:00 -0.00975 72.64895
2025-01-13T11:00:00 0.910245 69.46259
2025-01-13T12:00:00 1.750246 65.28143
2025-01-13T13:00:00 2.450245 62.08792
2025-01-13T14:00:00 2.300245 62.37845
2025-01-13T15:00:00 1.390245 67.50336
2025-01-13T16:00:00 -1.20975 77.36176
2025-01-13T17:00:00 -2.32975 80.65442
2025-01-13T18:00:00 -3.07975 83.29301
2025-01-13T19:00:00 -3.58975 84.11548
2025-01-13T20:00:00 -3.94975 84.32153
2025-01-13T21:00:00 -3.94975 83.99714
2025-01-13T22:00:00 -3.78975 84.54005
2025-01-13T23:00:00 -4.08975 86.1399
2025-01-14T00:00:00 -3.60975 82.89189
2025-01-14T01:00:00 -3.49976 82.21015
2025-01-14T02:00:00 -3.76976 83.44363
2025-01-14T03:00:00 -4.06975 84.04399
2025-01-14T04:00:00 -4.13976 84.48888
2025-01-14T05:00:00 -5.35975 88.26803
2025-01-14T06:00:00 -5.80976 88.07545
2025-01-14T07:00:00 -5.83975 87.4558
2025-01-14T08:00:00 -4.84976 85.37206
2025-01-14T09:00:00 -2.58975 78.23443
2025-01-14T10:00:00 -0.94975 72.44692
2025-01-14T11:00:00 0.380245 66.80085
2025-01-14T12:00:00 1.340246 64.68604
2025-01-14T13:00:00 2.120246 63.04406
2025-01-14T14:00:00 2.530245 64.30266
2025-01-14T15:00:00 1.740246 72.36556
2025-01-14T16:00:00 1.110246 72.77655
2025-01-14T17:00:00 -0.27975 78.71294
2025-01-14T18:00:00 -2.87975 87.29235
2025-01-14T19:00:00 -3.81975 89.95406
2025-01-14T20:00:00 -4.35975 89.62029
2025-01-14T21:00:00 -5.00975 89.40981
2025-01-14T22:00:00 -5.24976 89.7987
2025-01-14T23:00:00 -5.35975 88.88645
2025-01-15T00:00:00 -5.52975 90.81755
2025-01-15T01:00:00 -5.44975 88.53159
2025-01-15T02:00:00 -4.61976 86.06795
2025-01-15T03:00:00 -3.37975 81.78774
2025-01-15T04:00:00 -2.45975 79.22479
2025-01-15T05:00:00 -1.79975 76.36912
2025-01-15T06:00:00 -1.29975 72.87203
2025-01-15T07:00:00 -1.11975 75.17247
2025-01-15T08:00:00 -0.93975 76.41948
2025-01-15T09:00:00 -0.23975 79.85336
2025-01-15T10:00:00 0.980245 83.08619
2025-01-15T11:00:00 1.840245 82.60134
2025-01-15T12:00:00 2.570245 82.10585
2025-01-15T13:00:00 3.230246 81.84607
2025-01-15T14:00:00 3.200245 84.80981
2025-01-15T15:00:00 2.860245 88.98783
2025-01-15T16:00:00 1.540245 92.55812
2025-01-15T17:00:00 1.180245 93.68527
2025-01-15T18:00:00 1.230245 93.27972
2025-01-15T19:00:00 1.120246 93.40798
2025-01-15T20:00:00 0.850245 93.45683
2025-01-15T21:00:00 0.830245 93.38703
2025-01-15T22:00:00 1.420245 92.61626
2025-01-15T23:00:00 1.310245 93.21755
2025-01-16T00:00:00 1.210245 93.34634
2025-01-16T01:00:00 1.360246 93.08543
2025-01-16T02:00:00 1.400245 92.07597
2025-01-16T03:00:00 1.450245 90.94486
2025-01-16T04:00:00 1.770245 90.05016
2025-01-16T05:00:00 1.690245 89.06178
2025-01-16T06:00:00 1.710245 88.09276
2025-01-16T07:00:00 1.610245 87.88847
2025-01-16T08:00:00 1.730245 87.19721
2025-01-16T09:00:00 2.490245 85.21214
2025-01-16T10:00:00 3.480246 81.58659
2025-01-16T11:00:00 4.350246 78.81506
2025-01-16T12:00:00 5.030245 75.85421
2025-01-16T13:00:00 5.320245 74.01001
2025-01-16T14:00:00 5.290245 74.65014
2025-01-16T15:00:00 4.160245 81.63035
2025-01-16T16:00:00 4.470245 75.80515
2025-01-16T17:00:00 3.590245 79.66756
2025-01-16T18:00:00 1.830245 83.70068
2025-01-16T19:00:00 0.560245 86.41716
2025-01-16T20:00:00 0.220245 86.76006
2025-01-16T21:00:00 0.140245 86.23646
2025-01-16T22:00:00 0.170245 85.793
2025-01-16T23:00:00 -0.04975 86.46928
2025-01-17T00:00:00 0.130245 85.9793
2025-01-17T01:00:00 0.070245 85.78003
2025-01-17T02:00:00 -0.46975 87.19357
2025-01-17T03:00:00 -0.71975 88.01365
2025-01-17T04:00:00 -0.80975 87.60963
2025-01-17T05:00:00 -0.81975 88.39733
2025-01-17T06:00:00 -0.85975 88.12909
2025-01-17T07:00:00 -0.48975 87.58208
2025-01-17T08:00:00 -0.18975 87.35713
2025-01-17T09:00:00 0.620245 85.5338
2025-01-17T10:00:00 1.220245 84.42062
2025-01-17T11:00:00 1.710245 82.94784
2025-01-17T12:00:00 2.050245 81.78637
2025-01-17T13:00:00 2.340245 81.53099
2025-01-17T14:00:00 2.480245 81.85205
2025-01-17T15:00:00 2.290246 86.50219
2025-01-17T16:00:00 2.590245 79.44341
2025-01-17T17:00:00 1.830245 83.63918
2025-01-17T18:00:00 1.050245 86.22322
2025-01-17T19:00:00 0.490245 87.37288
2025-01-17T20:00:00 -0.16975 87.8153
2025-01-17T21:00:00 -0.27975 87.86788
2025-01-17T22:00:00 -0.48975 87.97454
2025-01-17T23:00:00 -0.67975 87.88701
2025-01-18T00:00:00 -0.59975 88.02747
2025-01-18T01:00:00 -0.66975 87.88817
2025-01-18T02:00:00 -0.85975 87.86605
2025-01-18T03:00:00 -1.09975 87.77221
2025-01-18T04:00:00 -1.05975 87.57994
2025-01-18T05:00:00 -0.83975 86.95334
2025-01-18T06:00:00 -0.74975 86.05841
2025-01-18T07:00:00 -0.94975 86.29085
2025-01-18T08:00:00 -0.36975 85.14847
2025-01-18T09:00:00 0.290245 84.16657
2025-01-18T10:00:00 1.080245 79.83769
2025-01-18T11:00:00 2.060246 78.07491
2025-01-18T12:00:00 3.020246 75.53155
2025-01-18T13:00:00 3.820245 73.71337
2025-01-18T14:00:00 4.050245 72.26061
2025-01-18T15:00:00 3.210246 80.01308
2025-01-18T16:00:00 3.350246 72.91704
2025-01-18T17:00:00 1.860245 80.1451
2025-01-18T18:00:00 -1.10975 88.76217
2025-01-18T19:00:00 -2.10975 91.77505
2025-01-18T20:00:00 -2.42975 93.77085
2025-01-18T21:00:00 -3.01975 94.7937
2025-01-18T22:00:00 -2.51975 88.93966
2025-01-18T23:00:00 -2.83975 90.74222
2025-01-19T00:00:00 -2.96975 91.76622
2025-01-19T01:00:00 -3.20975 91.18886
2025-01-19T02:00:00 -3.14975 91.19463
2025-01-19T03:00:00 -3.21975 90.7044
2025-01-19T04:00:00 -3.33975 91.52337
2025-01-19T05:00:00 -3.24975 90.15149
2025-01-19T06:00:00 -3.19975 90.01973
2025-01-19T07:00:00 -3.22975 90.49686
2025-01-19T08:00:00 -2.71975 91.09792
2025-01-19T09:00:00 -1.73975 89.4285
2025-01-19T10:00:00 -1.08975 88.49915
2025-01-19T11:00:00 -0.26975 86.3773
2025-01-19T12:00:00 0.660245 83.03912
2025-01-19T13:00:00 1.340246 82.58784
2025-01-19T14:00:00 1.980245 82.56137
2025-01-19T15:00:00 2.340245 79.16789
2025-01-19T16:00:00 1.610245 81.71861
2025-01-19T17:00:00 -0.00975 87.7035
2025-01-19T18:00:00 -1.41975 93.35712
2025-01-19T19:00:00 -0.96975 92.49328
2025-01-19T20:00:00 -0.83975 91.27428
2025-01-19T21:00:00 -0.89975 91.60906
2025-01-19T22:00:00 -0.84975 92.02318
2025-01-19T23:00:00 -0.61975 90.08115
2025-01-20T00:00:00 -1.00975 90.04195
2025-01-20T01:00:00 -1.57975 90.93311
2025-01-20T02:00:00 -1.40975 90.13623
2025-01-20T03:00:00 -1.16975 89.55592
2025-01-20T04:00:00 -1.26975 90.42036
2025-01-20T05:00:00 -1.55975 91.96161
2025-01-20T06:00:00 -1.86975 92.62608
2025-01-20T07:00:00 -2.06975 92.05482
2025-01-20T08:00:00 -1.54975 88.71326
2025-01-20T09:00:00 -0.38975 87.39835
2025-01-20T10:00:00 1.690245 81.24982
2025-01-20T11:00:00 3.300245 78.63672
2025-01-20T12:00:00 4.670245 75.62235
2025-01-20T13:00:00 5.870246 74.59951
2025-01-20T14:00:00 5.330246 75.58131
2025-01-20T15:00:00 4.990245 74.16048
2025-01-20T16:00:00 3.020246 81.10073
2025-01-20T17:00:00 0.900245 87.03516
2025-01-20T18:00:00 -0.05975 91.27742
2025-01-20T19:00:00 -0.63975 92.7952
2025-01-20T20:00:00 -1.06975 93.80125
2025-01-20T21:00:00 -1.38975 94.61981
2025-01-20T22:00:00 -1.37975 91.22452
2025-01-20T23:00:00 -1.15975 88.95613
2025-01-21T00:00:00 -1.30975 89.07307
2025-01-21T01:00:00 -1.80975 90.43462
2025-01-21T02:00:00 -2.14975 91.42702
2025-01-21T03:00:00 -2.33975 90.58627
2025-01-21T04:00:00 -2.19975 89.7168
2025-01-21T05:00:00 -2.19975 89.64916
2025-01-21T06:00:00 -1.98975 88.99857
2025-01-21T07:00:00 -1.93975 89.60919
2025-01-21T08:00:00 -1.88975 90.83517
2025-01-21T09:00:00 -0.61975 87.63207
2025-01-21T10:00:00 0.830245 84.67974
2025-01-21T11:00:00 2.290246 82.72845
2025-01-21T12:00:00 3.440246 78.37384
2025-01-21T13:00:00 4.590245 75.22348
2025-01-21T14:00:00 4.880245 77.4916
2025-01-21T15:00:00 4.880245 73.49476
2025-01-21T16:00:00 3.420245 82.17287
2025-01-21T17:00:00 0.480245 90.45585
2025-01-21T18:00:00 -0.09975 90.73529
2025-01-21T19:00:00 -0.43975 91.4462
2025-01-21T20:00:00 -0.87975 92.50069
2025-01-21T21:00:00 -1.67975 95.09568
2025-01-21T22:00:00 -1.95975 93.80593
2025-01-21T23:00:00 -2.03975 93.16934
2025-01-22T00:00:00 -1.92975 92.2745
2025-01-22T01:00:00 -1.73975 92.08366
2025-01-22T02:00:00 -1.58975 91.7528
2025-01-22T03:00:00 -1.34975 91.50036
2025-01-22T04:00:00 -1.00975 91.53105
2025-01-22T05:00:00 -0.86975 92.15839
2025-01-22T06:00:00 -0.51975 91.64274
2025-01-22T07:00:00 -0.40975 92.33382
2025-01-22T08:00:00 0.030245 91.89414
2025-01-22T09:00:00 0.740245 93.17552
2025-01-22T10:00:00 1.790245 94.20454
2025-01-22T11:00:00 3.080246 92.54202
2025-01-22T12:00:00 4.040246 91.95485
2025-01-22T13:00:00 4.870246 91.36872
2025-01-22T14:00:00 5.220245 91.20321
2025-01-22T15:00:00 5.510245 89.69288
2025-01-22T16:00:00 5.000245 91.12054
2025-01-22T17:00:00 4.070245 92.08853
2025-01-22T18:00:00 3.550245 92.77626
2025-01-22T19:00:00 3.580246 92.44692
2025-01-22T20:00:00 3.800245 91.41131
2025-01-22T21:00:00 3.470245 92.57121
2025-01-22T22:00:00 3.390245 94.1705
2025-01-22T23:00:00 3.580246 94.51933
2025-01-23T00:00:00 4.060246 93.34377
2025-01-23T01:00:00 4.350246 95.30519
2025-01-23T02:00:00 4.580246 94.84599
2025-01-23T03:00:00 5.420245 92.45117
2025-01-23T04:00:00 7.040245 87.78231
2025-01-23T05:00:00 7.400245 88.1881
2025-01-23T06:00:00 7.610245 90.13236
2025-01-23T07:00:00 7.280245 89.29095
2025-01-23T08:00:00 6.520245 87.60472
2025-01-23T09:00:00 6.210245 85.85751
2025-01-23T10:00:00 6.390245 85.09399
2025-01-23T11:00:00 6.320245 82.53309
2025-01-23T12:00:00 6.560246 79.74543
2025-01-23T13:00:00 6.920245 75.28079
2025-01-23T14:00:00 6.880245 74.36461
2025-01-23T15:00:00 6.760245 73.02199
2025-01-23T16:00:00 5.590245 76.06704
2025-01-23T17:00:00 4.520246 80.45602
2025-01-23T18:00:00 4.760245 82.13268
2025-01-23T19:00:00 4.720245 83.85574
2025-01-23T20:00:00 4.510245 83.52658
2025-01-23T21:00:00 4.520246 82.86961
2025-01-23T22:00:00 4.000246 82.37753
2025-01-23T23:00:00 4.000246 81.96141
2025-01-24T00:00:00 3.320245 82.15801
2025-01-24T01:00:00 4.270246 80.41654
2025-01-24T02:00:00 4.020246 81.07905
2025-01-24T03:00:00 3.530245 82.96838
2025-01-24T04:00:00 3.150245 86.1047
2025-01-24T05:00:00 2.560246 87.92993
2025-01-24T06:00:00 2.310246 89.77525
2025-01-24T07:00:00 2.230245 90.29062
2025-01-24T08:00:00 2.500246 88.37161
2025-01-24T09:00:00 4.230246 83.54819
2025-01-24T10:00:00 6.530245 77.72199
2025-01-24T11:00:00 9.050245 70.4742
2025-01-24T12:00:00 11.13025 63.79553
2025-01-24T13:00:00 12.87025 57.13559
2025-01-24T14:00:00 13.39025 50.90868
2025-01-24T15:00:00 13.03025 44.94167
2025-01-24T16:00:00 11.21025 45.68561
2025-01-24T17:00:00 10.58025 47.68331
2025-01-24T18:00:00 9.470245 51.60385
2025-01-24T19:00:00 8.650246 53.7989
2025-01-24T20:00:00 8.370246 56.83206
2025-01-24T21:00:00 8.520246 57.03861
2025-01-24T22:00:00 7.070245 61.13384
2025-01-24T23:00:00 5.830246 66.90159
2025-01-25T00:00:00 4.560246 73.05665
2025-01-25T01:00:00 4.670245 72.38887
2025-01-25T02:00:00 5.350246 72.16045
2025-01-25T03:00:00 6.040245 71.57407
2025-01-25T04:00:00 6.400245 69.45792
2025-01-25T05:00:00 6.550245 67.75274
2025-01-25T06:00:00 6.910245 65.56504
2025-01-25T07:00:00 7.010245 66.49747
2025-01-25T08:00:00 7.520245 66.23269
2025-01-25T09:00:00 9.580245 64.01352
2025-01-25T10:00:00 10.97025 62.15788
2025-01-25T11:00:00 13.08025 59.14705
2025-01-25T12:00:00 14.51025 56.57124
2025-01-25T13:00:00 15.12025 56.18315
2025-01-25T14:00:00 15.22025 56.13158
2025-01-25T15:00:00 14.30025 60.32527
2025-01-25T16:00:00 12.39025 71.44884
2025-01-25T17:00:00 10.22025 81.81583
2025-01-25T18:00:00 9.510245 85.23232
2025-01-25T19:00:00 8.850245 88.027
2025-01-25T20:00:00 8.700245 88.37753
2025-01-25T21:00:00 8.510245 87.62859
2025-01-25T22:00:00 8.740245 85.08212
2025-01-25T23:00:00 9.040245 83.5995
2025-01-26T00:00:00 8.840245 81.50784
2025-01-26T01:00:00 8.170245 80.50372
2025-01-26T02:00:00 8.050245 77.48612
2025-01-26T03:00:00 8.150246 74.49895
2025-01-26T04:00:00 8.470245 70.15309
2025-01-26T05:00:00 8.120246 69.92927
2025-01-26T06:00:00 7.450245 69.73585
2025-01-26T07:00:00 6.490245 71.20402
2025-01-26T08:00:00 6.000245 69.82476
2025-01-26T09:00:00 6.430245 66.45866
2025-01-26T10:00:00 7.100246 62.4484
2025-01-26T11:00:00 8.280246 56.35333
2025-01-26T12:00:00 9.270246 50.09319
2025-01-26T13:00:00 10.10025 46.91689
2025-01-26T14:00:00 10.11025 48.31786
2025-01-26T15:00:00 9.400246 51.43308
2025-01-26T16:00:00 8.460245 60.30009
2025-01-26T17:00:00 7.910245 67.57283
2025-01-26T18:00:00 6.890245 74.15412
2025-01-26T19:00:00 7.250245 74.70066
2025-01-26T20:00:00 7.350246 77.202
2025-01-26T21:00:00 7.660245 76.8738
2025-01-26T22:00:00 9.520246 65.98662
2025-01-26T23:00:00 9.370245 69.11102
2025-01-27T00:00:00 8.730246 74.13577
2025-01-27T01:00:00 8.520246 76.69863
2025-01-27T02:00:00 8.720245 79.35744
2025-01-27T03:00:00 8.860246 83.5182
2025-01-27T04:00:00 9.170245 85.36894
2025-01-27T05:00:00 9.610246 85.77355
2025-01-27T06:00:00 9.680245 85.54593
2025-01-27T07:00:00 10.20025 84.32447
2025-01-27T08:00:00 10.09025 87.07049
2025-01-27T09:00:00 9.900246 89.58702
2025-01-27T10:00:00 10.07025 90.03014
2025-01-27T11:00:00 10.50025 88.30763
2025-01-27T12:00:00 10.76025 85.20287
2025-01-27T13:00:00 10.34025 86.44465
2025-01-27T14:00:00 10.96025 81.5266
2025-01-27T15:00:00 10.33025 82.00009
2025-01-27T16:00:00 9.290245 81.45901
2025-01-27T17:00:00 8.680245 82.85839
2025-01-27T18:00:00 8.420245 83.17042
2025-01-27T19:00:00 8.510245 82.03086
2025-01-27T20:00:00 8.650246 82.22218
2025-01-27T21:00:00 8.210245 84.3105
2025-01-27T22:00:00 7.510245 85.52961
2025-01-27T23:00:00 7.140245 88.65642
2025-01-28T00:00:00 6.800245 89.74748
2025-01-28T01:00:00 6.420245 92.07031
2025-01-28T02:00:00 6.540245 92.46612
2025-01-28T03:00:00 6.880245 91.2724
2025-01-28T04:00:00 6.980245 89.32552
2025-01-28T05:00:00 6.760245 89.36761
2025-01-28T06:00:00 6.790245 87.32616
2025-01-28T07:00:00 6.840245 85.3894
2025-01-28T08:00:00 6.820245 84.48969
2025-01-28T09:00:00 7.260245 83.65897
2025-01-28T10:00:00 8.030246 80.20055
2025-01-28T11:00:00 8.690246 75.44485
2025-01-28T12:00:00 9.370245 69.89665
2025-01-28T13:00:00 9.840245 63.39595
2025-01-28T14:00:00 10.01025 59.53595
2025-01-28T15:00:00 9.980246 57.51323
2025-01-28T16:00:00 9.650246 61.04047
2025-01-28T17:00:00 9.000245 67.04977
2025-01-28T18:00:00 8.400246 72.15881
2025-01-28T19:00:00 7.950245 75.20347
2025-01-28T20:00:00 7.760245 75.06194
2025-01-28T21:00:00 7.760245 75.22179
2025-01-28T22:00:00 7.760245 77.49143
2025-01-28T23:00:00 7.660245 80.03088
2025-01-29T00:00:00 7.570245 82.47517
2025-01-29T01:00:00 7.610245 83.06171
2025-01-29T02:00:00 7.710245 82.78447
2025-01-29T03:00:00 7.640245 82.65878
2025-01-29T04:00:00 7.360245 85.39202
2025-01-29T05:00:00 7.360245 85.09329
2025-01-29T06:00:00 7.240245 84.84012
2025-01-29T07:00:00 7.170245 84.17824
2025-01-29T08:00:00 7.340245 82.03781
2025-01-29T09:00:00 7.840245 78.49561
2025-01-29T10:00:00 8.420245 73.39949
2025-01-29T11:00:00 9.150246 65.66686
2025-01-29T12:00:00 9.720245 59.20545
2025-01-29T13:00:00 10.17025 57.15192
2025-01-29T14:00:00 10.43025 54.84626
2025-01-29T15:00:00 10.16025 53.17183
2025-01-29T16:00:00 7.970245 70.95217
2025-01-29T17:00:00 5.470245 78.71861
2025-01-29T18:00:00 5.020245 77.79657
2025-01-29T19:00:00 4.460246 78.3212
2025-01-29T20:00:00 4.020246 79.85379
2025-01-29T21:00:00 3.420245 81.99384
2025-01-29T22:00:00 3.270246 83.77907
2025-01-29T23:00:00 3.160245 85.85668
2025-01-30T00:00:00 3.160245 87.55141
2025-01-30T01:00:00 2.880245 89.50622
2025-01-30T02:00:00 2.870246 88.34707
2025-01-30T03:00:00 2.950245 89.64251
2025-01-30T04:00:00 3.080246 90.30415
2025-01-30T05:00:00 3.410245 90.52943
2025-01-30T06:00:00 3.590245 90.09164
2025-01-30T07:00:00 3.820245 89.59747
2025-01-30T08:00:00 4.180245 89.31189
2025-01-30T09:00:00 5.310246 87.66152
2025-01-30T10:00:00 6.780245 86.10624
2025-01-30T11:00:00 7.610245 83.70496
2025-01-30T12:00:00 7.880245 84.03354
2025-01-30T13:00:00 8.020246 84.69931
2025-01-30T14:00:00 7.980245 86.66494
2025-01-30T15:00:00 7.820245 87.61828
2025-01-30T16:00:00 7.110245 91.22687
2025-01-30T17:00:00 6.720245 92.15658
2025-01-30T18:00:00 6.210245 93.02743
2025-01-30T19:00:00 6.170245 93.22043
2025-01-30T20:00:00 5.750245 93.71805
2025-01-30T21:00:00 5.680245 93.51632
2025-01-30T22:00:00 6.080246 92.30393
2025-01-30T23:00:00 5.850246 92.80752
2025-01-31T00:00:00 5.910245 92.09724
2025-01-31T01:00:00 5.850246 92.80752
2025-01-31T02:00:00 5.950245 92.68417
2025-01-31T03:00:00 5.790245 92.34779
2025-01-31T04:00:00 5.460245 93.43643
2025-01-31T05:00:00 4.980245 92.87814
2025-01-31T06:00:00 4.370246 93.16579
2025-01-31T07:00:00 3.920245 92.86929
2025-01-31T08:00:00 3.720245 92.656
2025-01-31T09:00:00 4.130245 91.63444
2025-01-31T10:00:00 4.850246 86.3085
2025-01-31T11:00:00 5.240245 81.79141
2025-01-31T12:00:00 5.640245 79.94122
2025-01-31T13:00:00 5.780245 79.6209
2025-01-31T14:00:00 5.750245 79.6731
2025-01-31T15:00:00 5.490245 80.14684
2025-01-31T16:00:00 4.950245 81.68977
2025-01-31T17:00:00 4.170245 84.63046
2025-01-31T18:00:00 3.490245 86.89583
2025-01-31T19:00:00 2.860245 88.28205
2025-01-31T20:00:00 2.220245 88.21298
2025-01-31T21:00:00 1.620246 87.18434
2025-01-31T22:00:00 1.050245 86.73306
2025-01-31T23:00:00 1.060245 85.97057
2025-02-01T00:00:00 0.700245 86.43454
2025-02-01T01:00:00 0.250245 86.5709
2025-02-01T02:00:00 0.070245 86.48428
2025-02-01T03:00:00 -0.03975 87.051
2025-02-01T04:00:00 -0.33975 88.51694
2025-02-01T05:00:00 -0.45975 88.96579
2025-02-01T06:00:00 -0.32975 89.31091
2025-02-01T07:00:00 -0.53975 89.82164
2025-02-01T08:00:00 0.420245 86.39971
2025-02-01T09:00:00 1.260245 83.68165
2025-02-01T10:00:00 2.440245 78.83588
2025-02-01T11:00:00 3.300245 77.21053
2025-02-01T12:00:00 3.920245 76.48018
2025-02-01T13:00:00 4.580246 75.44074
2025-02-01T14:00:00 4.880245 74.24684
2025-02-01T15:00:00 4.730245 74.16357
2025-02-01T16:00:00 4.200245 77.82288
2025-02-01T17:00:00 3.140245 83.6394
2025-02-01T18:00:00 3.430245 80.45828
2025-02-01T19:00:00 3.430245 81.10543
2025-02-01T20:00:00 2.550245 83.80145
2025-02-01T21:00:00 1.800245 85.93752
2025-02-01T22:00:00 1.270245 86.82349
2025-02-01T23:00:00 1.060245 87.05425
2025-02-02T00:00:00 0.950245 87.49119
2025-02-02T01:00:00 0.630245 87.71261
2025-02-02T02:00:00 0.540245 88.28717
2025-02-02T03:00:00 0.510245 88.21866
2025-02-02T04:00:00 0.800245 87.9912
2025-02-02T05:00:00 1.110246 87.57413
2025-02-02T06:00:00 1.350246 87.28073
2025-02-02T07:00:00 1.610245 87.11929
2025-02-02T08:00:00 1.520245 87.42868
2025-02-02T09:00:00 1.620246 86.35732
2025-02-02T10:00:00 2.000246 86.5303
2025-02-02T11:00:00 2.530245 85.52851
2025-02-02T12:00:00 3.200245 83.52625
2025-02-02T13:00:00 3.690246 82.87103
2025-02-02T14:00:00 3.990245 81.4866
2025-02-02T15:00:00 4.030245 81.02187
2025-02-02T16:00:00 2.690246 87.43507
2025-02-02T17:00:00 2.970245 84.47195
2025-02-02T18:00:00 3.420245 84.10408
2025-02-02T19:00:00 2.260245 87.38605
2025-02-02T20:00:00 1.500245 88.7818
2025-02-02T21:00:00 1.720245 87.9651
2025-02-02T22:00:00 0.590245 88.3579
2025-02-02T23:00:00 0.430245 89.1266
2025-02-03T00:00:00 0.230245 89.36942
2025-02-03T01:00:00 -0.05975 89.87022
2025-02-03T02:00:00 -0.22975 90.3206
2025-02-03T03:00:00 -0.34975 90.71165
2025-02-03T04:00:00 -0.26975 90.71923
2025-02-03T05:00:00 -0.39975 90.57243
2025-02-03T06:00:00 -0.38975 90.30495
2025-02-03T07:00:00 -0.30975 90.37978
2025-02-03T08:00:00 0.380245 89.51701
2025-02-03T09:00:00 0.890245 88.58631
2025-02-03T10:00:00 1.150245 89.39822
2025-02-03T11:00:00 1.860245 87.53178
2025-02-03T12:00:00 2.360245 86.19585
2025-02-03T13:00:00 2.900245 85.1411
2025-02-03T14:00:00 3.110245 84.12311
2025-02-03T15:00:00 2.800245 85.93681
2025-02-03T16:00:00 1.700245 91.83263
2025-02-03T17:00:00 2.960246 86.51975
2025-02-03T18:00:00 2.320245 88.54527
2025-02-03T19:00:00 1.950245 89.28361
2025-02-03T20:00:00 1.790245 89.46297
2025-02-03T21:00:00 0.720245 91.27992
2025-02-03T22:00:00 0.300245 87.93449
2025-02-03T23:00:00 -0.14975 87.62205
2025-02-04T00:00:00 -0.53975 87.96877
2025-02-04T01:00:00 -0.87975 88.06095
2025-02-04T02:00:00 -1.00975 87.45484
2025-02-04T03:00:00 -1.13975 87.04676
2025-02-04T04:00:00 -1.36975 86.62682
2025-02-04T05:00:00 -1.37975 85.65341
2025-02-04T06:00:00 -1.27975 84.45007
2025-02-04T07:00:00 -1.16975 84.21164
2025-02-04T08:00:00 -0.76975 86.44314
2025-02-04T09:00:00 -0.16975 86.7766
2025-02-04T10:00:00 0.960245 82.10352
2025-02-04T11:00:00 2.060246 76.19021
2025-02-04T12:00:00 3.400245 73.90062
2025-02-04T13:00:00 4.560246 71.00259
2025-02-04T14:00:00 5.240245 69.05074
2025-02-04T15:00:00 5.320245 70.28856
2025-02-04T16:00:00 4.150245 73.18753
2025-02-04T17:00:00 2.470245 82.03069
2025-02-04T18:00:00 1.120246 88.41611
2025-02-04T19:00:00 0.590245 90.06763
2025-02-04T20:00:00 -1.29975 94.20432
2025-02-04T21:00:00 -2.25975 94.56087
2025-02-04T22:00:00 -2.55975 91.87283
2025-02-04T23:00:00 -2.79975 91.85117
2025-02-05T00:00:00 -3.02975 91.48307
2025-02-05T01:00:00 -3.16975 92.86716
2025-02-05T02:00:00 -3.52975 94.25704
2025-02-05T03:00:00 -3.67975 94.46095
2025-02-05T04:00:00 -3.86975 95.74783
2025-02-05T05:00:00 -3.91975 94.51545
2025-02-05T06:00:00 -3.89975 93.80046
2025-02-05T07:00:00 -3.89975 94.01489
2025-02-05T08:00:00 -2.50975 87.3382
2025-02-05T09:00:00 -0.60975 83.8501
2025-02-05T10:00:00 1.030245 77.949
2025-02-05T11:00:00 2.150245 71.37925
2025-02-05T12:00:00 3.210246 70.55418
2025-02-05T13:00:00 4.020246 71.46251
2025-02-05T14:00:00 4.730245 72.45407
2025-02-05T15:00:00 4.650245 78.35368
2025-02-05T16:00:00 2.550245 88.05666
2025-02-05T17:00:00 0.980245 92.85323
2025-02-05T18:00:00 -0.04975 94.91665
2025-02-05T19:00:00 -0.47975 96.58476
2025-02-05T20:00:00 -0.82975 97.42718
2025-02-05T21:00:00 -0.98975 97.06059
2025-02-05T22:00:00 -0.73975 95.78994
2025-02-05T23:00:00 -0.98975 95.91776
2025-02-06T00:00:00 -1.12975 95.98108
2025-02-06T01:00:00 -0.82975 95.57245
2025-02-06T02:00:00 -0.66975 95.44058
2025-02-06T03:00:00 -0.66975 96.00644
2025-02-06T04:00:00 -0.37975 96.58973
2025-02-06T05:00:00 -0.07975 96.32105
2025-02-06T06:00:00 0.170245 96.40444
2025-02-06T07:00:00 0.400245 95.7127
2025-02-06T08:00:00 1.230245 94.30528
2025-02-06T09:00:00 1.850245 92.58211
2025-02-06T10:00:00 2.370246 93.0245
2025-02-06T11:00:00 2.740245 92.11682
2025-02-06T12:00:00 3.210246 90.25107
2025-02-06T13:00:00 3.510245 88.98956
2025-02-06T14:00:00 3.770246 87.99812
2025-02-06T15:00:00 3.700245 88.43472
2025-02-06T16:00:00 3.340245 89.48666
2025-02-06T17:00:00 3.020246 89.51994
2025-02-06T18:00:00 2.580246 90.6507
2025-02-06T19:00:00 2.530245 89.86168
2025-02-06T20:00:00 2.830246 86.94487
2025-02-06T21:00:00 2.630245 86.79519
2025-02-06T22:00:00 2.680245 84.24859
2025-02-06T23:00:00 2.620246 83.62779
2025-02-07T00:00:00 2.540246 83.43346
2025-02-07T01:00:00 2.230245 84.49588
2025-02-07T02:00:00 1.850245 84.32056
2025-02-07T03:00:00 1.610245 83.91634
2025-02-07T04:00:00 1.510245 83.59379
2025-02-07T05:00:00 1.460245 83.40198
2025-02-07T06:00:00 1.330245 83.07597
2025-02-07T07:00:00 1.110246 83.90804
2025-02-07T08:00:00 1.640245 83.42779
2025-02-07T09:00:00 2.570245 79.32338
2025-02-07T10:00:00 3.610245 75.14623
2025-02-07T11:00:00 4.810246 71.31604
2025-02-07T12:00:00 5.960245 68.26109
2025-02-07T13:00:00 6.650245 65.93306
2025-02-07T14:00:00 6.860245 64.79593
2025-02-07T15:00:00 6.500245 68.03664
2025-02-07T16:00:00 5.110245 77.69995
2025-02-07T17:00:00 3.910245 78.79801
2025-02-07T18:00:00 2.230245 84.24889
2025-02-07T19:00:00 0.980245 88.33581
2025-02-07T20:00:00 0.130245 90.35555
2025-02-07T21:00:00 -0.29975 91.12062
2025-02-07T22:00:00 -0.31975 91.18633
2025-02-07T23:00:00 -0.59975 90.82274
2025-02-08T00:00:00 -0.86975 91.74814
2025-02-08T01:00:00 -0.82975 92.0249
2025-02-08T02:00:00 -0.63975 90.81895
2025-02-08T03:00:00 -0.53975 90.69359
2025-02-08T04:00:00 -0.89975 90.86193
2025-02-08T05:00:00 -0.93975 92.01543
2025-02-08T06:00:00 -0.95975 91.33128
2025-02-08T07:00:00 -1.00975 91.6675
2025-02-08T08:00:00 0.320245 89.18089
2025-02-08T09:00:00 2.130245 84.79224
2025-02-08T10:00:00 4.140245 78.43706
2025-02-08T11:00:00 5.820245 72.36155
2025-02-08T12:00:00 7.220245 67.17374
2025-02-08T13:00:00 8.240246 62.82351
2025-02-08T14:00:00 8.650246 60.96208
2025-02-08T15:00:00 8.280246 58.78527
2025-02-08T16:00:00 7.360245 62.1059
2025-02-08T17:00:00 6.140245 72.27006
2025-02-08T18:00:00 5.110245 77.19677
2025-02-08T19:00:00 4.640245 79.83853
2025-02-08T20:00:00 2.670245 85.85819
2025-02-08T21:00:00 1.400245 88.90135
2025-02-08T22:00:00 1.270245 89.73856
2025-02-08T23:00:00 1.420245 89.8191
2025-02-09T00:00:00 1.550245 90.42432
2025-02-09T01:00:00 1.940245 91.32005
2025-02-09T02:00:00 2.190245 92.54112
2025-02-09T03:00:00 2.160245 93.27888
2025-02-09T04:00:00 2.290246 93.6259
2025-02-09T05:00:00 2.140245 93.88694
2025-02-09T06:00:00 1.710245 94.13102
2025-02-09T07:00:00 1.850245 94.00375
2025-02-09T08:00:00 2.850246 92.39142
2025-02-09T09:00:00 3.960246 88.8434
2025-02-09T10:00:00 4.820245 86.42838
2025-02-09T11:00:00 6.130245 82.33054
2025-02-09T12:00:00 7.430245 77.65472
2025-02-09T13:00:00 8.310246 73.95158
2025-02-09T14:00:00 8.610246 69.98357
2025-02-09T15:00:00 8.720245 68.67699
2025-02-09T16:00:00 7.460245 76.89334
2025-02-09T17:00:00 5.220245 85.31206
2025-02-09T18:00:00 4.380245 87.62326
2025-02-09T19:00:00 3.610245 90.67738
2025-02-09T20:00:00 2.650245 92.4427
2025-02-09T21:00:00 1.600245 94.94746
2025-02-09T22:00:00 1.180245 94.64624
2025-02-09T23:00:00 1.180245 94.50842
2025-02-10T00:00:00 1.040245 94.98319
2025-02-10T01:00:00 0.940245 95.53303
2025-02-10T02:00:00 1.160245 95.61482
2025-02-10T03:00:00 1.540245 95.70487
2025-02-10T04:00:00 1.880245 95.93082
2025-02-10T05:00:00 1.940245 95.65689
2025-02-10T06:00:00 2.310246 95.60748
2025-02-10T07:00:00 2.490245 95.54817
2025-02-10T08:00:00 2.870246 94.81657
2025-02-10T09:00:00 3.730246 93.78904
2025-02-10T10:00:00 4.420245 91.85359
2025-02-10T11:00:00 5.410245 89.36667
2025-02-10T12:00:00 5.780245 90.35289
2025-02-10T13:00:00 6.100246 90.57155
2025-02-10T14:00:00 6.300245 91.99699
2025-02-10T15:00:00 6.650245 91.89436
2025-02-10T16:00:00 6.620246 91.89212
2025-02-10T17:00:00 6.430245 92.26453
2025-02-10T18:00:00 5.960245 94.32409
2025-02-10T19:00:00 6.020245 93.80046
2025-02-10T20:00:00 6.070245 94.06662
2025-02-10T21:00:00 6.260245 94.01205
2025-02-10T22:00:00 6.370246 92.84306
2025-02-10T23:00:00 6.550245 92.07984
2025-02-11T00:00:00 6.110245 94.00317
2025-02-11T01:00:00 5.900245 94.98378
2025-02-11T02:00:00 6.130245 94.92935
2025-02-11T03:00:00 6.270245 95.93556
2025-02-11T04:00:00 6.390245 96.47689
2025-02-11T05:00:00 6.280245 97.14682
2025-02-11T06:00:00 6.160245 97.41377
2025-02-11T07:00:00 6.080246 97.54706
2025-02-11T08:00:00 6.340245 96.67665
2025-02-11T09:00:00 6.550245 96.88648
2025-02-11T10:00:00 7.140245 95.64163
2025-02-11T11:00:00 7.750245 94.42335
2025-02-11T12:00:00 8.170245 94.3808
2025-02-11T13:00:00 8.380245 95.43421
2025-02-11T14:00:00 8.470245 95.43827
2025-02-11T15:00:00 8.310246 95.43106
2025-02-11T16:00:00 8.210245 96.08395
2025-02-11T17:00:00 7.870246 97.26672
2025-02-11T18:00:00 7.750245 97.32984
2025-02-11T19:00:00 7.610245 97.45957
2025-02-11T20:00:00 7.370246 98.05893
2025-02-11T21:00:00 7.110245 98.45926
2025-02-11T22:00:00 7.390245 96.44923
2025-02-11T23:00:00 7.320245 96.71341
2025-02-12T00:00:00 7.220245 97.1116
2025-02-12T01:00:00 7.030245 97.57658
2025-02-12T02:00:00 6.990245 97.23834
2025-02-12T03:00:00 6.950245 97.30435
2025-02-12T04:00:00 6.970245 96.90162
2025-02-12T05:00:00 6.920245 96.96699
2025-02-12T06:00:00 6.960245 96.49932
2025-02-12T07:00:00 6.960245 96.63313
2025-02-12T08:00:00 7.540245 95.5276
2025-02-12T09:00:00 8.760245 92.1101
2025-02-12T10:00:00 10.02025 90.02599
2025-02-12T11:00:00 10.89025 85.80022
2025-02-12T12:00:00 11.60025 81.44899
2025-02-12T13:00:00 11.71025 80.63644
2025-02-12T14:00:00 11.48025 83.85066
2025-02-12T15:00:00 11.39025 84.46863
2025-02-12T16:00:00 10.98025 86.51321
2025-02-12T17:00:00 9.530245 94.45173
2025-02-12T18:00:00 9.420245 94.25335
2025-02-12T19:00:00 9.170245 94.04736
2025-02-12T20:00:00 8.920245 93.71252
2025-02-12T21:00:00 8.790245 93.38455
2025-02-12T22:00:00 8.390245 94.26294
2025-02-12T23:00:00 8.180245 94.57629
2025-02-13T00:00:00 8.120246 94.63826
2025-02-13T01:00:00 8.250245 94.0611
2025-02-13T02:00:00 8.090245 93.9227
2025-02-13T03:00:00 7.980245 92.69326
2025-02-13T04:00:00 7.760245 93.19272
2025-02-13T05:00:00 7.530245 93.30732
2025-02-13T06:00:00 7.180245 94.39242
2025-02-13T07:00:00 6.970245 94.31532
2025-02-13T08:00:00 6.640245 95.15424
2025-02-13T09:00:00 6.120246 96.33152
2025-02-13T10:00:00 5.100246 97.9957
2025-02-13T11:00:00 4.260245 97.97007
2025-02-13T12:00:00 3.690246 94.45841
2025-02-13T13:00:00 3.830246 90.17843
2025-02-13T14:00:00 4.350246 85.32568
2025-02-13T15:00:00 4.290246 82.59833
2025-02-13T16:00:00 4.290246 81.6499
2025-02-13T17:00:00 3.650245 83.10587
2025-02-13T18:00:00 3.160245 85.85668
2025-02-13T19:00:00 2.720245 88.0752
2025-02-13T20:00:00 2.520246 89.27625
2025-02-13T21:00:00 2.300245 88.09336
2025-02-13T22:00:00 2.930245 85.14497
2025-02-13T23:00:00 2.880245 84.39848
2025-02-14T00:00:00 2.600246 84.36075
2025-02-14T01:00:00 1.870246 89.14536
2025-02-14T02:00:00 1.290245 91.19672
2025-02-14T03:00:00 0.540245 92.88754
2025-02-14T04:00:00 0.110245 93.7473
2025-02-14T05:00:00 -0.12975 93.93772
2025-02-14T06:00:00 -0.36975 92.54234
2025-02-14T07:00:00 -0.60975 91.09208
2025-02-14T08:00:00 -0.43975 88.04585
2025-02-14T09:00:00 0.130245 83.51928
2025-02-14T10:00:00 0.490245 77.90978
2025-02-14T11:00:00 0.820245 77.73667
2025-02-14T12:00:00 1.080245 75.89024
2025-02-14T13:00:00 1.200245 73.89571
2025-02-14T14:00:00 1.280245 72.92162
2025-02-14T15:00:00 1.370246 72.17867
2025-02-14T16:00:00 1.190245 72.08601
2025-02-14T17:00:00 0.600245 75.57017
2025-02-14T18:00:00 0.050245 78.71223
2025-02-14T19:00:00 -0.43975 81.21231
2025-02-14T20:00:00 -1.02975 82.22588
2025-02-14T21:00:00 -1.41975 82.72601
2025-02-14T22:00:00 -1.62975 83.95493
2025-02-14T23:00:00 -2.11975 85.61882
2025-02-15T00:00:00 -2.32975 86.17684
2025-02-15T01:00:00 -2.50975 86.02235
2025-02-15T02:00:00 -2.65975 85.41539
2025-02-15T03:00:00 -2.45975 83.07003
2025-02-15T04:00:00 -2.42975 82.19235
2025-02-15T05:00:00 -3.39975 84.2728
2025-02-15T06:00:00 -3.78975 84.54005
2025-02-15T07:00:00 -3.89975 85.30842
2025-02-15T08:00:00 -1.23975 77.17976
2025-02-15T09:00:00 -0.05975 72.58318
2025-02-15T10:00:00 0.940245 70.84747
2025-02-15T11:00:00 1.860245 68.89841
2025-02-15T12:00:00 2.690246 67.35552
2025-02-15T13:00:00 3.720245 65.18006
2025-02-15T14:00:00 4.130245 64.2699
2025-02-15T15:00:00 3.800245 65.34538
2025-02-15T16:00:00 2.660245 78.98959
2025-02-15T17:00:00 2.230245 72.361
2025-02-15T18:00:00 1.600245 76.38683
2025-02-15T19:00:00 -0.22975 84.97689
2025-02-15T20:00:00 -0.89975 88.38831
2025-02-15T21:00:00 -0.96975 89.17645
2025-02-15T22:00:00 -0.59975 86.98282
2025-02-15T23:00:00 -0.83975 89.39019
2025-02-16T00:00:00 -1.07975 90.77711
2025-02-16T01:00:00 -1.25975 91.85061
2025-02-16T02:00:00 -1.40975 92.18103
2025-02-16T03:00:00 -1.22975 90.35676
2025-02-16T04:00:00 -1.40975 92.45676
2025-02-16T05:00:00 -1.48975 93.49117
2025-02-16T06:00:00 -1.56975 92.99767
2025-02-16T07:00:00 -1.13975 91.72429
2025-02-16T08:00:00 -0.07975 87.43517
2025-02-16T09:00:00 0.620245 85.91458
2025-02-16T10:00:00 1.530245 80.32822
2025-02-16T11:00:00 2.790246 76.55246
2025-02-16T12:00:00 3.860245 72.91425
2025-02-16T13:00:00 4.560246 71.21088
2025-02-16T14:00:00 5.030245 69.71431
2025-02-16T15:00:00 4.910245 68.97701
2025-02-16T16:00:00 4.310246 73.81101
2025-02-16T17:00:00 2.680245 81.22576
2025-02-16T18:00:00 1.810245 84.31509
2025-02-16T19:00:00 1.040245 87.24437
2025-02-16T20:00:00 0.820245 87.92863
2025-02-16T21:00:00 0.660245 87.78082
2025-02-16T22:00:00 0.280245 90.77092
2025-02-16T23:00:00 -0.02975 90.74189
2025-02-17T00:00:00 -0.37975 89.50491
2025-02-17T01:00:00 -0.43975 89.83181
2025-02-17T02:00:00 -0.45975 89.96336
2025-02-17T03:00:00 -0.73975 88.86916
2025-02-17T04:00:00 -0.84975 88.52608
2025-02-17T05:00:00 -0.76975 87.87653
2025-02-17T06:00:00 -0.82975 87.86955
2025-02-17T07:00:00 -0.56975 87.70335
2025-02-17T08:00:00 0.590245 82.47504
2025-02-17T09:00:00 1.070245 79.42141
2025-02-17T10:00:00 1.710245 78.36056
2025-02-17T11:00:00 2.400245 77.44636
2025-02-17T12:00:00 3.020246 76.14561
2025-02-17T13:00:00 3.720245 73.9101
2025-02-17T14:00:00 3.950245 73.8475
2025-02-17T15:00:00 3.750246 74.29664
2025-02-17T16:00:00 3.170245 77.4139
2025-02-17T17:00:00 1.530245 83.96697
2025-02-17T18:00:00 0.860245 85.88171
2025-02-17T19:00:00 0.960245 84.6974
2025-02-17T20:00:00 0.770245 84.67158
2025-02-17T21:00:00 0.370245 85.50107
2025-02-17T22:00:00 0.100245 84.83196
2025-02-17T23:00:00 -0.07975 84.61787
2025-02-18T00:00:00 -0.16975 84.98504
2025-02-18T01:00:00 -0.46975 85.70954
2025-02-18T02:00:00 -0.93975 85.58332
2025-02-18T03:00:00 -0.83975 86.43426
2025-02-18T04:00:00 -0.60975 85.81942
2025-02-18T05:00:00 -1.05975 86.40629
2025-02-18T06:00:00 -1.13975 86.52588
2025-02-18T07:00:00 -0.77975 86.24801
2025-02-18T08:00:00 0.320245 81.82151
2025-02-18T09:00:00 1.000245 78.00176
2025-02-18T10:00:00 1.800245 75.01676
2025-02-18T11:00:00 2.610245 72.98046
2025-02-18T12:00:00 3.560246 69.79993
2025-02-18T13:00:00 4.250246 67.97103
2025-02-18T14:00:00 4.610245 66.61536
2025-02-18T15:00:00 4.600246 66.36771
2025-02-18T16:00:00 3.810246 72.69005
2025-02-18T17:00:00 0.980245 83.08619
2025-02-18T18:00:00 0.110245 85.27638
2025-02-18T19:00:00 0.010245 85.07277
2025-02-18T20:00:00 -0.46975 84.18488
2025-02-18T21:00:00 -0.93975 82.92415
2025-02-18T22:00:00 -1.06975 78.81036
2025-02-18T23:00:00 -1.40975 78.57007
2025-02-19T00:00:00 -1.87975 79.63082
2025-02-19T01:00:00 -2.10975 79.34769
2025-02-19T02:00:00 -2.11975 79.16421
2025-02-19T03:00:00 -2.28975 79.74167
2025-02-19T04:00:00 -2.41975 80.20857
2025-02-19T05:00:00 -2.32975 80.46972
2025-02-19T06:00:00 -2.27975 81.4673
2025-02-19T07:00:00 -2.01975 83.45339
2025-02-19T08:00:00 -0.55975 81.49879
2025-02-19T09:00:00 0.910245 76.19905
2025-02-19T10:00:00 2.390245 74.79874
2025-02-19T11:00:00 3.990245 72.83386
2025-02-19T12:00:00 5.580246 70.44704
2025-02-19T13:00:00 6.920245 68.37759
2025-02-19T14:00:00 7.730245 67.09693
2025-02-19T15:00:00 7.660245 70.08128
2025-02-19T16:00:00 6.350246 75.76984
2025-02-19T17:00:00 4.840245 77.14888
2025-02-19T18:00:00 2.960246 86.08147
2025-02-19T19:00:00 2.140245 90.54495
2025-02-19T20:00:00 1.320245 93.28626
2025-02-19T21:00:00 0.840245 95.59718
2025-02-19T22:00:00 1.120246 93.68108
2025-02-19T23:00:00 0.890245 94.97417
2025-02-20T00:00:00 0.580245 96.284
2025-02-20T01:00:00 0.840245 96.22685
2025-02-20T02:00:00 1.080245 95.40174
2025-02-20T03:00:00 1.530245 94.25612
2025-02-20T04:00:00 1.950245 94.07848
2025-02-20T05:00:00 2.670245 92.71137
2025-02-20T06:00:00 3.420245 92.17007
2025-02-20T07:00:00 3.920245 91.683
2025-02-20T08:00:00 4.430245 92.90548
2025-02-20T09:00:00 6.060246 92.43209
2025-02-20T10:00:00 8.060246 88.62199
2025-02-20T11:00:00 10.50025 83.5564
2025-02-20T12:00:00 12.40025 77.66991
2025-02-20T13:00:00 13.79025 72.50633
2025-02-20T14:00:00 14.94025 65.88238
2025-02-20T15:00:00 14.78025 67.02271
2025-02-20T16:00:00 14.42025 65.67693
2025-02-20T17:00:00 12.49025 75.64759
2025-02-20T18:00:00 10.86025 80.01706
2025-02-20T19:00:00 7.920245 90.59727
2025-02-20T20:00:00 7.620246 91.33008
2025-02-20T21:00:00 7.140245 93.93282
2025-02-20T22:00:00 6.150245 95.19613
2025-02-20T23:00:00 5.590245 94.83424
2025-02-21T00:00:00 5.010245 95.8783
2025-02-21T01:00:00 4.460246 96.46477
2025-02-21T02:00:00 4.210246 96.72781
2025-02-21T03:00:00 3.720245 96.50119
2025-02-21T04:00:00 3.270246 96.13726
2025-02-21T05:00:00 3.510245 95.94302
2025-02-21T06:00:00 3.500246 95.32824
2025-02-21T07:00:00 3.640245 95.67615
2025-02-21T08:00:00 4.790245 93.92297
2025-02-21T09:00:00 7.080246 89.70993
2025-02-21T10:00:00 9.110246 86.48904
2025-02-21T11:00:00 10.94025 82.30852
2025-02-21T12:00:00 12.91025 75.10455
2025-02-21T13:00:00 14.43025 67.49667
2025-02-21T14:00:00 15.15025 63.46204
2025-02-21T15:00:00 15.02025 63.25864
2025-02-21T16:00:00 13.63025 68.39343
2025-02-21T17:00:00 11.19025 78.16752
2025-02-21T18:00:00 9.910245 82.2251
2025-02-21T19:00:00 8.710245 86.80471
2025-02-21T20:00:00 7.510245 90.31195
2025-02-21T21:00:00 7.100246 91.79976
2025-02-21T22:00:00 7.060246 94.12405
2025-02-21T23:00:00 6.540245 95.14926
2025-02-22T00:00:00 6.210245 95.7991
2025-02-22T01:00:00 6.070245 96.5314
2025-02-22T02:00:00 6.160245 95.86374
2025-02-22T03:00:00 5.750245 96.51852
2025-02-22T04:00:00 4.990245 96.82752
2025-02-22T05:00:00 4.740245 96.47671
2025-02-22T06:00:00 5.050245 94.67122
2025-02-22T07:00:00 5.400245 93.76218
2025-02-22T08:00:00 6.390245 91.29752
2025-02-22T09:00:00 8.620245 86.4351
2025-02-22T10:00:00 10.55025 82.48179
2025-02-22T11:00:00 12.07025 76.61564
2025-02-22T12:00:00 13.34025 71.48867
2025-02-22T13:00:00 14.19025 65.67043
2025-02-22T14:00:00 14.80025 60.86601
2025-02-22T15:00:00 15.13025 58.56385
2025-02-22T16:00:00 14.19025 63.15067
2025-02-22T17:00:00 12.02025 77.92682
2025-02-22T18:00:00 12.36025 76.92619
2025-02-22T19:00:00 10.87025 85.21558
2025-02-22T20:00:00 10.58025 86.29377
2025-02-22T21:00:00 10.28025 87.26876
2025-02-22T22:00:00 10.22025 87.20303
2025-02-22T23:00:00 9.770246 89.02637
2025-02-23T00:00:00 9.140245 90.82029
2025-02-23T01:00:00 8.840245 91.48546
2025-02-23T02:00:00 8.430245 93.1064
2025-02-23T03:00:00 7.980245 94.50074
2025-02-23T04:00:00 7.940245 94.95546
2025-02-23T05:00:00 7.960245 94.82575
2025-02-23T06:00:00 7.710245 95.5353
2025-02-23T07:00:00 7.900245 94.49651
2025-02-23T08:00:00 8.570246 94.46677
2025-02-23T09:00:00 9.760245 90.93063
2025-02-23T10:00:00 10.74025 88.63068
2025-02-23T11:00:00 11.43025 84.35875
2025-02-23T12:00:00 11.97025 81.99979
2025-02-23T13:00:00 12.28025 82.48687
2025-02-23T14:00:00 12.52025 79.39614
2025-02-23T15:00:00 12.58025 78.28179
2025-02-23T16:00:00 11.77025 83.20656
2025-02-23T17:00:00 10.90025 85.74295
2025-02-23T18:00:00 8.740245 91.60387
2025-02-23T19:00:00 7.120246 94.91435
2025-02-23T20:00:00 5.650245 97.66972
2025-02-23T21:00:00 5.280245 97.79504
2025-02-23T22:00:00 4.890245 94.12859
2025-02-23T23:00:00 4.580246 94.37692
2025-02-24T00:00:00 4.140245 96.93086
2025-02-24T01:00:00 4.080246 97.47977
2025-02-24T02:00:00 4.140245 97.27493
2025-02-24T03:00:00 3.960246 97.82179
2025-02-24T04:00:00 4.280245 97.83222
2025-02-24T05:00:00 4.260245 97.55512
2025-02-24T06:00:00 4.290246 97.55615
2025-02-24T07:00:00 4.810246 97.43646
2025-02-24T08:00:00 5.870246 96.4559
2025-02-24T09:00:00 7.210245 93.54661
2025-02-24T10:00:00 8.670245 91.09607
2025-02-24T11:00:00 10.25025 87.32529
2025-02-24T12:00:00 11.54025 82.05313
2025-02-24T13:00:00 12.57025 77.43366
2025-02-24T14:00:00 12.99025 74.2038
2025-02-24T15:00:00 12.91025 75.10455
2025-02-24T16:00:00 12.25025 78.28293
2025-02-24T17:00:00 10.99025 84.76638
2025-02-24T18:00:00 10.20025 88.09865
2025-02-24T19:00:00 9.970245 88.49876
2025-02-24T20:00:00 9.600245 88.82823
2025-02-24T21:00:00 9.080245 90.00881
2025-02-24T22:00:00 8.830245 88.94023
2025-02-24T23:00:00 8.100245 93.14981
2025-02-25T00:00:00 8.010245 92.95153
2025-02-25T01:00:00 8.250245 92.20138
2025-02-25T02:00:00 8.320246 91.13175
2025-02-25T03:00:00 8.340245 92.01724
2025-02-25T04:00:00 8.260245 93.7387
2025-02-25T05:00:00 8.170245 95.42472
2025-02-25T06:00:00 8.160246 95.68686
2025-02-25T07:00:00 8.200246 96.2155
2025-02-25T08:00:00 8.540245 95.11502
2025-02-25T09:00:00 8.790245 94.34895
2025-02-25T10:00:00 8.610246 96.09989
2025-02-25T11:00:00 8.920245 94.2913
2025-02-25T12:00:00 9.430245 91.4663
2025-02-25T13:00:00 9.980246 87.11865
2025-02-25T14:00:00 10.74025 81.88783
2025-02-25T15:00:00 11.23025 75.3748
2025-02-25T16:00:00 11.20025 72.65856
2025-02-25T17:00:00 9.910245 76.2454
2025-02-25T18:00:00 8.910245 78.72474
2025-02-25T19:00:00 8.630245 75.16892
2025-02-25T20:00:00 7.830246 75.39475
2025-02-25T21:00:00 7.390245 76.01297
2025-02-25T22:00:00 7.110245 77.32504
2025-02-25T23:00:00 6.710245 77.58679
2025-02-26T00:00:00 6.280245 79.1347
2025-02-26T01:00:00 5.820245 80.88934
2025-02-26T02:00:00 5.240245 83.44705
2025-02-26T03:00:00 4.880245 84.90453
2025-02-26T04:00:00 4.480246 87.44632
2025-02-26T05:00:00 4.270246 88.68413
2025-02-26T06:00:00 4.270246 90.54116
2025-02-26T07:00:00 4.470245 90.75256
2025-02-26T08:00:00 4.790245 90.20126
2025-02-26T09:00:00 5.440245 87.55113
2025-02-26T10:00:00 5.590245 87.81589
2025-02-26T11:00:00 6.330246 83.77229
2025-02-26T12:00:00 7.100246 79.32352
2025-02-26T13:00:00 7.860245 74.8679
2025-02-26T14:00:00 8.280246 70.16284
2025-02-26T15:00:00 8.330246 69.23035
2025-02-26T16:00:00 8.060246 68.28751
2025-02-26T17:00:00 6.880245 69.51242
2025-02-26T18:00:00 4.820245 78.95085
2025-02-26T19:00:00 3.730246 82.87675
2025-02-26T20:00:00 2.540246 85.65454
2025-02-26T21:00:00 2.230245 86.55808
2025-02-26T22:00:00 2.180245 88.33721
2025-02-26T23:00:00 2.380245 87.59083
2025-02-27T00:00:00 2.690246 87.2448
2025-02-27T01:00:00 3.080246 85.04075
2025-02-27T02:00:00 3.780245 81.6321
2025-02-27T03:00:00 3.990245 84.24158
2025-02-27T04:00:00 4.170245 86.8493
2025-02-27T05:00:00 4.570245 87.76933
2025-02-27T06:00:00 4.660245 88.15582
2025-02-27T07:00:00 4.850246 88.99587
2025-02-27T08:00:00 5.250245 90.43432
2025-02-27T09:00:00 6.050245 90.82242
2025-02-27T10:00:00 7.110245 85.48193
2025-02-27T11:00:00 8.150246 79.49034
2025-02-27T12:00:00 8.680245 72.52181
2025-02-27T13:00:00 8.740245 67.18218
2025-02-27T14:00:00 8.850245 63.92931
2025-02-27T15:00:00 8.620245 61.61744
2025-02-27T16:00:00 8.310246 63.43218
2025-02-27T17:00:00 6.880245 71.18299
2025-02-27T18:00:00 5.110245 79.97155
2025-02-27T19:00:00 4.010245 85.16012
2025-02-27T20:00:00 3.560246 86.34135
2025-02-27T21:00:00 3.660245 86.9155
2025-02-27T22:00:00 3.570245 89.76673
2025-02-27T23:00:00 3.370246 89.94165
2025-02-28T00:00:00 3.200245 90.12019
2025-02-28T01:00:00 2.270246 90.95189
2025-02-28T02:00:00 1.360246 91.60346
2025-02-28T03:00:00 0.870245 93.18518
2025-02-28T04:00:00 0.880245 93.52737
2025-02-28T05:00:00 0.660245 93.99231
2025-02-28T06:00:00 0.630245 94.47326
2025-02-28T07:00:00 1.590245 92.89943
2025-02-28T08:00:00 2.820245 89.30629
2025-02-28T09:00:00 4.040246 85.22528
2025-02-28T10:00:00 5.380245 80.64836
2025-02-28T11:00:00 6.240245 73.92241
2025-02-28T12:00:00 6.440245 68.27007
2025-02-28T13:00:00 6.520245 66.91561
2025-02-28T14:00:00 6.530245 65.52232
2025-02-28T15:00:00 6.460245 68.07693
2025-02-28T16:00:00 6.230245 70.3822
2025-02-28T17:00:00 5.010245 78.01983
2025-02-28T18:00:00 3.740245 84.02567
2025-02-28T19:00:00 3.290246 84.76012
2025-02-28T20:00:00 3.400245 85.63815
2025-02-28T21:00:00 2.920245 87.90575
2025-02-28T22:00:00 2.480245 87.85724
2025-02-28T23:00:00 1.900245 87.66436
2025-03-01T00:00:00 1.460245 88.90766
2025-03-01T01:00:00 1.510245 89.23875
2025-03-01T02:00:00 1.620246 89.97002
2025-03-01T03:00:00 2.030245 89.35677
2025-03-01T04:00:00 2.170245 88.85216
2025-03-01T05:00:00 2.200245 88.27506
2025-03-01T06:00:00 2.360245 87.07983
2025-03-01T07:00:00 2.530245 85.77818
2025-03-01T08:00:00 3.140245 80.82396
2025-03-01T09:00:00 4.080246 78.59798
2025-03-01T10:00:00 5.240245 74.31684
2025-03-01T11:00:00 6.290245 68.18681
2025-03-01T12:00:00 7.190245 63.15633
2025-03-01T13:00:00 7.610245 59.90492
2025-03-01T14:00:00 7.910245 57.79495
2025-03-01T15:00:00 7.930245 57.80033
2025-03-01T16:00:00 7.430245 59.3355
2025-03-01T17:00:00 6.410245 61.63846
2025-03-01T18:00:00 5.220245 65.97934
2025-03-01T19:00:00 4.240245 70.93402
2025-03-01T20:00:00 3.350246 76.20721
2025-03-01T21:00:00 2.800245 80.06338
2025-03-01T22:00:00 3.130245 78.0909
2025-03-01T23:00:00 2.480245 81.25412
2025-03-02T00:00:00 2.000246 82.99013
2025-03-02T01:00:00 1.450245 84.63886
2025-03-02T02:00:00 1.300245 85.30724
2025-03-02T03:00:00 0.880245 85.31507
2025-03-02T04:00:00 0.570245 85.65406
2025-03-02T05:00:00 0.240245 86.95574
2025-03-02T06:00:00 -0.26975 87.28262
2025-03-02T07:00:00 0.840245 88.45055
2025-03-02T08:00:00 2.420245 84.64502
2025-03-02T09:00:00 3.680245 80.26425
2025-03-02T10:00:00 5.420245 72.85889
2025-03-02T11:00:00 7.140245 67.10696
2025-03-02T12:00:00 8.470245 60.65257
2025-03-02T13:00:00 9.400246 56.78095
2025-03-02T14:00:00 10.00025 53.62996
2025-03-02T15:00:00 10.30025 52.14267
2025-03-02T16:00:00 9.770246 56.83962
2025-03-02T17:00:00 6.790245 68.844
2025-03-02T18:00:00 4.400245 78.25415
2025-03-02T19:00:00 3.110245 81.94736
2025-03-02T20:00:00 2.040246 86.53514
2025-03-02T21:00:00 1.320245 88.76272
2025-03-02T22:00:00 0.400245 89.25515
2025-03-02T23:00:00 -0.36975 89.9724
2025-03-03T00:00:00 -0.40975 90.03523
2025-03-03T01:00:00 -0.82975 90.86856
2025-03-03T02:00:00 -1.15975 91.04086
2025-03-03T03:00:00 -1.26975 90.89462
2025-03-03T04:00:00 -1.64975 90.65419
2025-03-03T05:00:00 -1.78975 90.16536
2025-03-03T06:00:00 -1.97975 89.53752
2025-03-03T07:00:00 -0.98975 90.24573
2025-03-03T08:00:00 1.920245 83.28399
2025-03-03T09:00:00 4.410245 77.69022
2025-03-03T10:00:00 6.350246 73.15059
2025-03-03T11:00:00 8.260245 67.26562
2025-03-03T12:00:00 9.820246 62.45004
2025-03-03T13:00:00 11.13025 56.55371
2025-03-03T14:00:00 12.13025 51.76148
2025-03-03T15:00:00 12.43025 48.12051
2025-03-03T16:00:00 11.99025 47.9231
2025-03-03T17:00:00 9.660245 57.38656
2025-03-03T18:00:00 8.290245 64.0697
2025-03-03T19:00:00 6.500245 72.55174
2025-03-03T20:00:00 3.340245 82.64034
2025-03-03T21:00:00 1.650245 87.25175
2025-03-03T22:00:00 0.390245 90.51395
2025-03-03T23:00:00 -0.31975 92.88921
2025-03-04T00:00:00 -0.58975 92.79918
2025-03-04T01:00:00 -0.46975 91.17262
2025-03-04T02:00:00 -0.76975 91.00954
2025-03-04T03:00:00 -0.84975 90.39421
2025-03-04T04:00:00 -0.90975 89.98492
2025-03-04T05:00:00 -0.86975 89.52048
2025-03-04T06:00:00 -1.09975 91.72784
2025-03-04T07:00:00 -0.10975 90.26542
2025-03-04T08:00:00 2.640245 85.16946
2025-03-04T09:00:00 5.800245 76.10539
2025-03-04T10:00:00 8.430245 69.7963
2025-03-04T11:00:00 10.28025 63.45717
2025-03-04T12:00:00 11.95025 57.66378
2025-03-04T13:00:00 13.10025 51.95947
2025-03-04T14:00:00 13.91025 48.85951
2025-03-04T15:00:00 14.11025 45.09838
2025-03-04T16:00:00 13.43025 49.84566
2025-03-04T17:00:00 11.70025 52.31164
2025-03-04T18:00:00 8.530246 65.89836
2025-03-04T19:00:00 7.030245 72.03622
2025-03-04T20:00:00 3.850246 79.65227
2025-03-04T21:00:00 2.750246 80.88063
2025-03-04T22:00:00 1.660245 84.35654
2025-03-04T23:00:00 1.060245 86.16093
2025-03-05T00:00:00 0.710245 87.14101
2025-03-05T01:00:00 0.500245 87.05154
2025-03-05T02:00:00 0.260245 86.50796
2025-03-05T03:00:00 0.100245 86.68094
2025-03-05T04:00:00 -0.23975 87.8725
2025-03-05T05:00:00 -0.60975 88.81715
2025-03-05T06:00:00 -0.66975 89.67479
2025-03-05T07:00:00 0.350245 89.84492
2025-03-05T08:00:00 3.670245 82.44872
2025-03-05T09:00:00 7.020245 74.07312
2025-03-05T10:00:00 10.28025 67.43183
2025-03-05T11:00:00 12.60025 60.49104
2025-03-05T12:00:00 14.53025 53.20703
2025-03-05T13:00:00 15.88025 46.29577
2025-03-05T14:00:00 16.71025 41.42728
2025-03-05T15:00:00 17.03025 36.7582
2025-03-05T16:00:00 16.34025 44.76071
2025-03-05T17:00:00 13.41025 45.87174
2025-03-05T18:00:00 9.870245 57.11277
2025-03-05T19:00:00 6.850246 67.6249
2025-03-05T20:00:00 4.330246 78.12865
2025-03-05T21:00:00 3.290246 82.81352
2025-03-05T22:00:00 3.080246 84.73251
2025-03-05T23:00:00 2.300245 86.94601
2025-03-06T00:00:00 1.740246 88.54798
2025-03-06T01:00:00 1.250245 88.43028
2025-03-06T02:00:00 0.790245 90.41882
2025-03-06T03:00:00 0.420245 91.72456
2025-03-06T04:00:00 0.200245 92.92963
2025-03-06T05:00:00 -0.33975 94.0618
2025-03-06T06:00:00 -0.57975 94.7432
2025-03-06T07:00:00 1.130245 89.79046
2025-03-06T08:00:00 5.040245 80.82761
2025-03-06T09:00:00 9.310246 68.27165
2025-03-06T10:00:00 12.40025 58.55999
2025-03-06T11:00:00 14.67025 49.66866
2025-03-06T12:00:00 16.36025 44.48335
2025-03-06T13:00:00 17.43024 40.36488
2025-03-06T14:00:00 18.12025 37.13497
2025-03-06T15:00:00 18.38025 33.98911
2025-03-06T16:00:00 17.60025 36.32558
2025-03-06T17:00:00 15.62025 43.92279
2025-03-06T18:00:00 12.63025 53.1353
2025-03-06T19:00:00 9.280245 62.94413
2025-03-06T20:00:00 6.870246 71.28329
2025-03-06T21:00:00 5.880245 75.7923
2025-03-06T22:00:00 3.850246 83.73745
2025-03-06T23:00:00 3.190246 86.92382
2025-03-07T00:00:00 2.630245 91.44516
2025-03-07T01:00:00 2.310246 92.34961
2025-03-07T02:00:00 1.810245 93.86485
2025-03-07T03:00:00 1.130245 95.05779
2025-03-07T04:00:00 0.970245 94.97899
2025-03-07T05:00:00 0.730245 96.08093
2025-03-07T06:00:00 0.800245 95.24663
2025-03-07T07:00:00 2.510245 89.46972
2025-03-07T08:00:00 6.530245 79.28812
2025-03-07T09:00:00 9.910245 68.16219
2025-03-07T10:00:00 12.79025 59.11461
2025-03-07T11:00:00 14.71025 51.78476
2025-03-07T12:00:00 15.79025 46.95942
2025-03-07T13:00:00 16.47025 43.58298
2025-03-07T14:00:00 16.83025 42.20309
2025-03-07T15:00:00 16.74025 41.28943
2025-03-07T16:00:00 15.90025 44.47488
2025-03-07T17:00:00 13.21025 55.13191
2025-03-07T18:00:00 12.14025 56.5016
2025-03-07T19:00:00 10.00025 64.79963
2025-03-07T20:00:00 7.270245 73.38439
2025-03-07T21:00:00 5.150245 79.92046
2025-03-07T22:00:00 4.710245 77.2376
2025-03-07T23:00:00 4.000246 81.13473
2025-03-08T00:00:00 3.320245 83.17971
2025-03-08T01:00:00 2.730246 83.88758
2025-03-08T02:00:00 2.220245 85.86453
2025-03-08T03:00:00 1.970245 85.95885
2025-03-08T04:00:00 1.680245 86.36469
2025-03-08T05:00:00 1.230245 86.69106
2025-03-08T06:00:00 1.000245 86.34422
2025-03-08T07:00:00 2.280245 84.87417
2025-03-08T08:00:00 5.800245 75.17976
2025-03-08T09:00:00 9.330245 65.1963
2025-03-08T10:00:00 12.53025 55.33896
2025-03-08T11:00:00 14.81025 47.41045
2025-03-08T12:00:00 16.39025 41.92442
2025-03-08T13:00:00 17.39025 37.61059
2025-03-08T14:00:00 17.98025 34.83291
2025-03-08T15:00:00 18.05025 33.81833
2025-03-08T16:00:00 17.50025 35.37054
2025-03-08T17:00:00 15.29025 39.75738
2025-03-08T18:00:00 11.12025 55.47028
2025-03-08T19:00:00 8.650246 65.64399
2025-03-08T20:00:00 6.930245 73.0034
2025-03-08T21:00:00 5.620246 77.3979
2025-03-08T22:00:00 5.200245 77.99623
2025-03-08T23:00:00 4.440246 80.15323
2025-03-09T00:00:00 4.170245 81.33721
2025-03-09T01:00:00 3.710246 81.62151
2025-03-09T02:00:00 3.530245 83.5722
2025-03-09T03:00:00 3.530245 83.93635
2025-03-09T04:00:00 2.950245 85.83064
2025-03-09T05:00:00 2.100246 86.41605
2025-03-09T06:00:00 1.950245 85.20427
2025-03-09T07:00:00 3.300245 84.76143
2025-03-09T08:00:00 7.070245 72.9267
2025-03-09T09:00:00 10.61025 58.92947
2025-03-09T10:00:00 13.66025 50.62453
2025-03-09T11:00:00 15.56025 44.72314
2025-03-09T12:00:00 17.14025 40.56586
2025-03-09T13:00:00 18.02025 37.61006
2025-03-09T14:00:00 18.31025 36.56229
2025-03-09T15:00:00 18.14025 37.1145
2025-03-09T16:00:00 17.53025 43.555
2025-03-09T17:00:00 14.20025 55.70724
2025-03-09T18:00:00 11.36025 65.16259
2025-03-09T19:00:00 9.660245 73.22582
2025-03-09T20:00:00 8.120246 78.15562
2025-03-09T21:00:00 7.250245 83.12978
2025-03-09T22:00:00 6.860245 81.79545
2025-03-09T23:00:00 6.470245 83.43585
2025-03-10T00:00:00 5.770245 84.89623
2025-03-10T01:00:00 6.330246 84.30777
2025-03-10T02:00:00 6.520245 82.67825
2025-03-10T03:00:00 7.350246 76.22203
2025-03-10T04:00:00 8.480246 76.69167
2025-03-10T05:00:00 8.840245 82.70731
2025-03-10T06:00:00 9.140245 84.89481
2025-03-10T07:00:00 9.480246 85.22879
2025-03-10T08:00:00 9.750245 86.79655
2025-03-10T09:00:00 9.910245 88.13081
2025-03-10T10:00:00 10.00025 87.4193
2025-03-10T11:00:00 10.17025 85.25092
2025-03-10T12:00:00 11.04025 79.55141
2025-03-10T13:00:00 11.88025 74.71637
2025-03-10T14:00:00 12.61025 69.9853
2025-03-10T15:00:00 13.15025 66.62052
2025-03-10T16:00:00 13.21025 66.22179
2025-03-10T17:00:00 10.89025 79.96664
2025-03-10T18:00:00 8.340245 86.9454
2025-03-10T19:00:00 6.080246 95.79319
2025-03-10T20:00:00 4.800245 99.72489
2025-03-10T21:00:00 4.020246 99.85279
2025-03-10T22:00:00 4.020246 99.85279
2025-03-10T23:00:00 3.320245 99.84092
2025-03-11T00:00:00 3.040246 99.83595
2025-03-11T01:00:00 2.930245 99.33642
2025-03-11T02:00:00 3.360245 97.87148
2025-03-11T03:00:00 3.470245 96.49019
2025-03-11T04:00:00 3.570245 95.74088
2025-03-11T05:00:00 3.600246 95.33355
2025-03-11T06:00:00 3.470245 95.94108
2025-03-11T07:00:00 4.670245 93.38464
2025-03-11T08:00:00 6.990245 90.07864
2025-03-11T09:00:00 9.800245 82.38041
2025-03-11T10:00:00 11.68025 74.68032
2025-03-11T11:00:00 12.79025 69.06576
2025-03-11T12:00:00 13.71025 63.29904
2025-03-11T13:00:00 14.08025 59.56497
2025-03-11T14:00:00 14.28025 57.22359
2025-03-11T15:00:00 14.14025 59.41505
2025-03-11T16:00:00 12.96025 66.21171
2025-03-11T17:00:00 11.90025 70.0327
2025-03-11T18:00:00 10.78025 77.61845
2025-03-11T19:00:00 9.330245 83.11787
2025-03-11T20:00:00 8.850245 84.97746
2025-03-11T21:00:00 8.300245 87.85027
2025-03-11T22:00:00 7.410245 93.17055
2025-03-11T23:00:00 7.480245 93.23957
2025-03-12T00:00:00 7.880245 92.43071
2025-03-12T01:00:00 7.930245 92.8822
2025-03-12T02:00:00 7.190245 95.04955
2025-03-12T03:00:00 7.210245 95.31425
2025-03-12T04:00:00 7.130245 96.50589
2025-03-12T05:00:00 7.230245 96.04364
2025-03-12T06:00:00 7.310246 95.98061
2025-03-12T07:00:00 7.310246 95.31902
2025-03-12T08:00:00 7.380245 94.53415
2025-03-12T09:00:00 7.480245 92.65978
2025-03-12T10:00:00 7.440245 92.08028
2025-03-12T11:00:00 7.630245 91.01455
2025-03-12T12:00:00 7.850246 89.90315
2025-03-12T13:00:00 8.170245 86.32503
2025-03-12T14:00:00 8.080246 80.7729
2025-03-12T15:00:00 7.940245 84.09998
2025-03-12T16:00:00 7.640245 87.11229
2025-03-12T17:00:00 7.400245 89.17767
2025-03-12T18:00:00 6.570245 95.28336
2025-03-12T19:00:00 6.540245 95.41467
2025-03-12T20:00:00 6.260245 95.86823
2025-03-12T21:00:00 6.060246 95.79227
2025-03-12T22:00:00 5.740245 97.39983
2025-03-12T23:00:00 5.720245 96.78788
2025-03-13T00:00:00 5.520245 96.50916
2025-03-13T01:00:00 5.340245 95.89359
2025-03-13T02:00:00 5.370246 95.69304
2025-03-13T03:00:00 5.450245 94.62688
2025-03-13T04:00:00 5.400245 93.96047
2025-03-13T05:00:00 5.270245 94.15139
2025-03-13T06:00:00 4.910245 94.79717
2025-03-13T07:00:00 5.080246 93.8746
2025-03-13T08:00:00 5.280245 94.08566
2025-03-13T09:00:00 5.710245 92.6674
2025-03-13T10:00:00 7.130245 79.66602
2025-03-13T11:00:00 8.040245 74.37286
2025-03-13T12:00:00 8.780245 72.49038
2025-03-13T13:00:00 8.680245 69.75038
2025-03-13T14:00:00 7.910245 68.64632
2025-03-13T15:00:00 7.170245 68.63075
2025-03-13T16:00:00 6.360245 68.69884
2025-03-13T17:00:00 5.470245 71.24767
2025-03-13T18:00:00 4.860245 72.53361
2025-03-13T19:00:00 4.340245 75.12116
2025-03-13T20:00:00 4.150245 74.97527
2025-03-13T21:00:00 3.790246 76.90445
2025-03-13T22:00:00 3.170245 81.06495
2025-03-13T23:00:00 2.870246 82.51146
2025-03-14T00:00:00 3.010245 81.21772
2025-03-14T01:00:00 3.340245 80.50259
2025-03-14T02:00:00 3.010245 82.05194
2025-03-14T03:00:00 2.850246 83.11276
2025-03-14T04:00:00 2.590245 84.60593
2025-03-14T05:00:00 2.290246 86.62846
2025-03-14T06:00:00 1.640245 90.89562
2025-03-14T07:00:00 2.640245 90.00247
2025-03-14T08:00:00 3.780245 85.13081
2025-03-14T09:00:00 4.920245 75.77887
2025-03-14T10:00:00 5.320245 71.57961
2025-03-14T11:00:00 6.120246 68.34681
2025-03-14T12:00:00 6.630245 66.60196
2025-03-14T13:00:00 6.950245 65.28977
2025-03-14T14:00:00 6.880245 66.56358
2025-03-14T15:00:00 6.490245 70.43774
2025-03-14T16:00:00 6.140245 71.85387
2025-03-14T17:00:00 5.580246 73.52707
2025-03-14T18:00:00 5.120246 74.6716
2025-03-14T19:00:00 4.830246 75.43303
2025-03-14T20:00:00 4.610245 76.384
2025-03-14T21:00:00 4.080246 78.7123
2025-03-14T22:00:00 4.200245 78.10617
2025-03-14T23:00:00 4.070245 79.28441
2025-03-15T00:00:00 3.870246 80.93833
2025-03-15T01:00:00 3.920245 80.88742
2025-03-15T02:00:00 4.080246 80.61979
2025-03-15T03:00:00 4.010245 82.141
2025-03-15T04:00:00 3.940246 83.81028
2025-03-15T05:00:00 3.890245 84.716
2025-03-15T06:00:00 3.760245 85.68294
2025-03-15T07:00:00 3.950245 86.07752
2025-03-15T08:00:00 4.380245 84.05129
2025-03-15T09:00:00 4.880245 84.48022
2025-03-15T10:00:00 5.590245 84.15166
2025-03-15T11:00:00 6.130245 79.84771
2025-03-15T12:00:00 6.420245 78.31552
2025-03-15T13:00:00 6.540245 79.12062
2025-03-15T14:00:00 6.630245 78.01658
2025-03-15T15:00:00 6.800245 77.54701
2025-03-15T16:00:00 6.860245 77.88909
2025-03-15T17:00:00 6.700245 78.3624
2025-03-15T18:00:00 6.500245 79.0578
2025-03-15T19:00:00 6.150245 81.28603
2025-03-15T20:00:00 5.950245 82.89259
2025-03-15T21:00:00 5.740245 84.4111
2025-03-15T22:00:00 5.500245 85.58989
2025-03-15T23:00:00 5.400245 86.55731
2025-03-16T00:00:00 4.930245 89.00375
2025-03-16T01:00:00 4.960245 89.0067
2025-03-16T02:00:00 4.910245 89.57324
2025-03-16T03:00:00 4.690245 89.87185
2025-03-16T04:00:00 4.640245 89.93124
2025-03-16T05:00:00 4.580246 90.24656
2025-03-16T06:00:00 4.460246 90.10718
2025-03-16T07:00:00 4.410245 89.39806
2025-03-16T08:00:00 4.380245 89.01283
2025-03-16T09:00:00 4.580246 90.31086
2025-03-16T10:00:00 4.900245 89.3179
2025-03-16T11:00:00 5.150245 88.58386
2025-03-16T12:00:00 5.310246 86.17821
2025-03-16T13:00:00 5.300245 86.85416
2025-03-16T14:00:00 4.990245 89.83567
2025-03-16T15:00:00 4.750245 91.81413
2025-03-16T16:00:00 4.720245 90.90323
2025-03-16T17:00:00 4.540246 91.01739
2025-03-16T18:00:00 4.400245 92.04835
2025-03-16T19:00:00 4.210246 93.42033
2025-03-16T20:00:00 4.190246 94.08587
2025-03-16T21:00:00 4.290246 94.29276
2025-03-16T22:00:00 4.360245 93.8961
2025-03-16T23:00:00 4.270246 94.62698
2025-03-17T00:00:00 4.450245 93.83514
2025-03-17T01:00:00 4.490245 93.83766
2025-03-17T02:00:00 4.340245 94.22884
2025-03-17T03:00:00 3.910245 94.20265
2025-03-17T04:00:00 3.940246 94.00335
2025-03-17T05:00:00 3.050245 95.44077
2025-03-17T06:00:00 3.040246 94.89446
2025-03-17T07:00:00 3.410245 92.56675
2025-03-17T08:00:00 4.490245 86.94823
2025-03-17T09:00:00 5.990245 79.0308
2025-03-17T10:00:00 7.290245 70.40518
2025-03-17T11:00:00 8.330246 61.9903
2025-03-17T12:00:00 9.280245 54.76682
2025-03-17T13:00:00 9.830245 50.14578
2025-03-17T14:00:00 10.31025 48.23528
2025-03-17T15:00:00 10.18025 47.3562
2025-03-17T16:00:00 9.780245 48.11444
2025-03-17T17:00:00 8.580245 51.42329
2025-03-17T18:00:00 6.950245 55.65717
2025-03-17T19:00:00 5.790245 58.81179
2025-03-17T20:00:00 4.880245 62.62197
2025-03-17T21:00:00 4.300245 65.85613
2025-03-17T22:00:00 3.800245 67.41589
2025-03-17T23:00:00 3.070245 69.58721
2025-03-18T00:00:00 2.250246 71.40087
2025-03-18T01:00:00 1.300245 74.19328
2025-03-18T02:00:00 0.320245 76.48757
2025-03-18T03:00:00 -0.49975 78.31829
2025-03-18T04:00:00 -0.88975 79.26114
2025-03-18T05:00:00 -1.33975 80.88152
2025-03-18T06:00:00 -1.25975 81.14005
2025-03-18T07:00:00 1.300245 70.98041
2025-03-18T08:00:00 3.230246 61.96418
2025-03-18T09:00:00 4.730245 58.35022
2025-03-18T10:00:00 6.690245 53.24184
2025-03-18T11:00:00 8.110246 50.72135
2025-03-18T12:00:00 9.380245 49.03241
2025-03-18T13:00:00 10.39025 47.41836
2025-03-18T14:00:00 11.22025 45.18989
2025-03-18T15:00:00 11.70025 43.73866
2025-03-18T16:00:00 11.65025 43.18215
2025-03-18T17:00:00 10.20025 49.02105
2025-03-18T18:00:00 9.230246 47.35304
2025-03-18T19:00:00 5.360245 64.14707
2025-03-18T20:00:00 4.020246 70.26323
2025-03-18T21:00:00 2.610245 76.06861
2025-03-18T22:00:00 1.730245 77.43969
2025-03-18T23:00:00 1.060245 79.89373
2025-03-19T00:00:00 0.640245 80.66096
2025-03-19T01:00:00 0.120245 81.54599
2025-03-19T02:00:00 -0.59975 85.69245
2025-03-19T03:00:00 -1.02975 87.91196
2025-03-19T04:00:00 -1.47975 88.92104
2025-03-19T05:00:00 -1.54975 89.65028
2025-03-19T06:00:00 -1.27975 89.67849
2025-03-19T07:00:00 1.530245 80.92481
2025-03-19T08:00:00 4.790245 72.57217
2025-03-19T09:00:00 8.200246 65.16303
2025-03-19T10:00:00 10.83025 60.64456
2025-03-19T11:00:00 13.09025 52.92375
2025-03-19T12:00:00 14.79025 47.06988
2025-03-19T13:00:00 15.90025 40.34217
2025-03-19T14:00:00 16.49025 37.85575
2025-03-19T15:00:00 16.63025 36.40203
2025-03-19T16:00:00 16.46025 35.28957
2025-03-19T17:00:00 14.87025 41.23546
2025-03-19T18:00:00 12.77025 49.97805
2025-03-19T19:00:00 9.130245 63.17815
2025-03-19T20:00:00 6.160245 72.7973
2025-03-19T21:00:00 5.390245 78.25374
2025-03-19T22:00:00 4.940245 78.06413
2025-03-19T23:00:00 3.750246 83.72372
2025-03-20T00:00:00 2.990245 86.39793
2025-03-20T01:00:00 2.520246 88.69515
2025-03-20T02:00:00 2.150245 90.74336
2025-03-20T03:00:00 2.240245 90.02966
2025-03-20T04:00:00 2.370246 89.84625
2025-03-20T05:00:00 3.050245 90.82371
2025-03-20T06:00:00 3.680245 89.19875
2025-03-20T07:00:00 5.300245 84.29377
2025-03-20T08:00:00 7.770245 75.81228
2025-03-20T09:00:00 11.40025 65.1262
2025-03-20T10:00:00 14.21025 56.57147
2025-03-20T11:00:00 16.26025 48.16143
2025-03-20T12:00:00 17.83025 43.42903
2025-03-20T13:00:00 19.09025 39.19993
2025-03-20T14:00:00 19.90025 36.10562
2025-03-20T15:00:00 19.89025 35.34705
2025-03-20T16:00:00 19.09025 39.14497
2025-03-20T17:00:00 16.74025 40.50508
2025-03-20T18:00:00 14.08025 47.43551
2025-03-20T19:00:00 11.26025 59.51814
2025-03-20T20:00:00 9.580245 66.0473
2025-03-20T21:00:00 8.700245 69.60622
2025-03-20T22:00:00 7.350246 77.80634
2025-03-20T23:00:00 6.840245 79.22549
2025-03-21T00:00:00 6.590245 78.96001
2025-03-21T01:00:00 6.270245 80.67018
2025-03-21T02:00:00 6.070245 81.38992
2025-03-21T03:00:00 5.760245 80.64933
2025-03-21T04:00:00 5.560246 80.15789
2025-03-21T05:00:00 5.790245 79.2813
2025-03-21T06:00:00 6.400245 77.64425
2025-03-21T07:00:00 7.620246 80.7039
2025-03-21T08:00:00 9.560246 73.61819
2025-03-21T09:00:00 11.60025 64.26632
2025-03-21T10:00:00 13.59025 57.16367
2025-03-21T11:00:00 15.72025 49.40812
2025-03-21T12:00:00 17.56025 44.14717
2025-03-21T13:00:00 18.59025 41.13606
2025-03-21T14:00:00 19.01024 40.34661
2025-03-21T15:00:00 19.07025 42.53045
2025-03-21T16:00:00 18.43024 45.71071
2025-03-21T17:00:00 16.80025 50.93119
2025-03-21T18:00:00 15.13025 55.87522
2025-03-21T19:00:00 14.11025 58.34488
2025-03-21T20:00:00 13.22025 60.22419
2025-03-21T21:00:00 12.51025 62.70736
2025-03-21T22:00:00 11.55025 66.35586
2025-03-21T23:00:00 11.23025 69.89416
2025-03-22T00:00:00 11.24025 72.96874
2025-03-22T01:00:00 11.26025 73.83544
2025-03-22T02:00:00 10.89025 75.94155
2025-03-22T03:00:00 10.58025 77.47838
2025-03-22T04:00:00 9.790245 84.04229
2025-03-22T05:00:00 9.250245 86.08798
2025-03-22T06:00:00 9.700245 84.03103
2025-03-22T07:00:00 11.30025 79.75451
2025-03-22T08:00:00 14.52025 68.53388
2025-03-22T09:00:00 16.49025 57.86974
2025-03-22T10:00:00 18.09025 54.68022
2025-03-22T11:00:00 19.15025 50.1208
2025-03-22T12:00:00 19.44025 46.76148
2025-03-22T13:00:00 19.87025 43.50541
2025-03-22T14:00:00 19.83025 41.93064
2025-03-22T15:00:00 20.02025 40.41628
2025-03-22T16:00:00 19.41025 43.49318
2025-03-22T17:00:00 17.39025 52.55388
2025-03-22T18:00:00 14.72025 58.62178
2025-03-22T19:00:00 13.59025 64.23915
2025-03-22T20:00:00 12.48025 71.07473
2025-03-22T21:00:00 11.86025 74.55898
2025-03-22T22:00:00 11.29025 75.95881
2025-03-22T23:00:00 10.83025 79.41012
2025-03-23T00:00:00 10.78025 79.84033
2025-03-23T01:00:00 10.18025 83.97556
2025-03-23T02:00:00 9.940246 85.8698
2025-03-23T03:00:00 10.23025 82.4954
2025-03-23T04:00:00 10.46025 77.72667
2025-03-23T05:00:00 10.46025 77.03103
2025-03-23T06:00:00 9.900246 82.28044
2025-03-23T07:00:00 9.820246 86.2698
2025-03-23T08:00:00 10.39025 85.86148
2025-03-23T09:00:00 11.52025 78.86553
2025-03-23T10:00:00 12.19025 76.21816
2025-03-23T11:00:00 13.43025 68.72689
2025-03-23T12:00:00 14.40025 62.59491
2025-03-23T13:00:00 15.06025 57.38557
2025-03-23T14:00:00 15.57025 54.84127
2025-03-23T15:00:00 15.79025 51.93767
2025-03-23T16:00:00 15.63025 52.65762
2025-03-23T17:00:00 15.15025 52.82048
2025-03-23T18:00:00 14.23025 55.2888
2025-03-23T19:00:00 12.04025 66.05098
2025-03-23T20:00:00 10.67025 72.85941
2025-03-23T21:00:00 9.270246 81.90944
2025-03-23T22:00:00 10.38025 81.61331
2025-03-23T23:00:00 9.230246 86.20454
2025-03-24T00:00:00 8.170245 89.24876
2025-03-24T01:00:00 8.140245 90.24001
2025-03-24T02:00:00 7.770245 92.29533
2025-03-24T03:00:00 7.720245 93.8366
2025-03-24T04:00:00 7.360245 94.92651
2025-03-24T05:00:00 7.200245 95.18183
2025-03-24T06:00:00 7.690245 93.89972
2025-03-24T07:00:00 8.630245 92.29113
2025-03-24T08:00:00 10.13025 88.09188
2025-03-24T09:00:00 11.47025 83.79247
2025-03-24T10:00:00 12.87025 76.54135
2025-03-24T11:00:00 13.81025 71.3859
2025-03-24T12:00:00 14.66025 66.54205
2025-03-24T13:00:00 15.02025 63.25864
2025-03-24T14:00:00 14.65025 59.54291
2025-03-24T15:00:00 14.42025 60.31328
2025-03-24T16:00:00 14.54025 61.39161
2025-03-24T17:00:00 13.68025 65.78165
2025-03-24T18:00:00 12.48025 70.63615
2025-03-24T19:00:00 11.49025 78.37647
2025-03-24T20:00:00 12.07025 75.93744
2025-03-24T21:00:00 11.61025 78.93349
2025-03-24T22:00:00 9.640245 87.14303
2025-03-24T23:00:00 8.650246 90.96922
2025-03-25T00:00:00 8.400246 91.70508
2025-03-25T01:00:00 7.780245 92.74405
2025-03-25T02:00:00 7.510245 93.95429
2025-03-25T03:00:00 7.290245 93.74635
2025-03-25T04:00:00 6.830246 94.11088
2025-03-25T05:00:00 6.230245 95.33315
2025-03-25T06:00:00 6.350246 95.33902
2025-03-25T07:00:00 7.920245 91.98725
2025-03-25T08:00:00 10.54025 85.00291
2025-03-25T09:00:00 12.58025 76.96269
2025-03-25T10:00:00 14.04025 72.40624
2025-03-25T11:00:00 14.99025 66.6594
2025-03-25T12:00:00 14.96025 64.07104
2025-03-25T13:00:00 15.17025 62.90585
2025-03-25T14:00:00 15.06025 62.45135
2025-03-25T15:00:00 15.12025 61.44756
2025-03-25T16:00:00 14.62025 61.36877
2025-03-25T17:00:00 13.49025 69.16429
2025-03-25T18:00:00 11.79025 79.44782
2025-03-25T19:00:00 10.77025 82.56776
2025-03-25T20:00:00 11.38025 79.82113
2025-03-25T21:00:00 11.50025 79.18682
2025-03-25T22:00:00 10.17025 84.43657
2025-03-25T23:00:00 10.09025 84.25312
2025-03-26T00:00:00 9.460245 85.81556
2025-03-26T01:00:00 9.670245 84.20115
2025-03-26T02:00:00 9.630245 85.3638
2025-03-26T03:00:00 9.420245 86.10699
2025-03-26T04:00:00 9.190246 87.09595
2025-03-26T05:00:00 7.990245 89.23226
2025-03-26T06:00:00 7.650245 90.38655
2025-03-26T07:00:00 9.150246 84.36935
2025-03-26T08:00:00 10.28025 78.23648
2025-03-26T09:00:00 11.28025 70.14798
2025-03-26T10:00:00 11.97025 68.60726
2025-03-26T11:00:00 12.53025 66.06959
2025-03-26T12:00:00 12.30025 66.01782
2025-03-26T13:00:00 11.84025 69.82672
2025-03-26T14:00:00 11.38025 72.69322
2025-03-26T15:00:00 11.04025 76.49339
2025-03-26T16:00:00 10.64025 79.27169
2025-03-26T17:00:00 10.12025 82.70789
2025-03-26T18:00:00 9.690246 85.13622
2025-03-26T19:00:00 9.400246 86.87864
2025-03-26T20:00:00 9.150246 87.875
2025-03-26T21:00:00 8.950245 88.21912
2025-03-26T22:00:00 8.730246 89.60791
2025-03-26T23:00:00 8.580245 88.24383
2025-03-27T00:00:00 8.400246 86.71098
2025-03-27T01:00:00 8.140245 86.02197
2025-03-27T02:00:00 7.700245 85.85144
2025-03-27T03:00:00 7.260245 85.86025
2025-03-27T04:00:00 6.920245 85.27902
2025-03-27T05:00:00 6.740245 86.22283
2025-03-27T06:00:00 6.930245 86.18413
2025-03-27T07:00:00 7.940245 83.45577
2025-03-27T08:00:00 9.180245 76.54472
2025-03-27T09:00:00 10.27025 69.69342
2025-03-27T10:00:00 11.16025 63.75777
2025-03-27T11:00:00 12.12025 59.77934
2025-03-27T12:00:00 12.71025 57.4565
2025-03-27T13:00:00 13.30025 55.70206
2025-03-27T14:00:00 13.71025 53.96153
2025-03-27T15:00:00 13.89025 51.95882
2025-03-27T16:00:00 13.55025 52.6029
2025-03-27T17:00:00 12.43025 57.5453
2025-03-27T18:00:00 9.650246 68.20144
2025-03-27T19:00:00 8.390245 71.44383
2025-03-27T20:00:00 7.660245 73.4082
2025-03-27T21:00:00 6.600246 76.08706
2025-03-27T22:00:00 5.730245 78.4238
2025-03-27T23:00:00 5.870246 77.99889
2025-03-28T00:00:00 4.900245 81.9763
2025-03-28T01:00:00 4.390245 83.75083
2025-03-28T02:00:00 4.190246 84.694
2025-03-28T03:00:00 4.080246 85.29173
2025-03-28T04:00:00 4.020246 85.90035
2025-03-28T05:00:00 3.080246 88.49724
2025-03-28T06:00:00 2.950245 90.74939
2025-03-28T07:00:00 5.610245 84.69509
2025-03-28T08:00:00 8.010245 76.33949
2025-03-28T09:00:00 9.770246 69.29439
2025-03-28T10:00:00 11.19025 65.21471
2025-03-28T11:00:00 12.08025 62.82323
2025-03-28T12:00:00 13.30025 58.3814
2025-03-28T13:00:00 14.02025 56.83802
2025-03-28T14:00:00 14.53025 55.60064
2025-03-28T15:00:00 14.87025 53.56078
2025-03-28T16:00:00 14.72025 52.77668
2025-03-28T17:00:00 14.02025 67.50068
2025-03-28T18:00:00 14.00025 51.00792
2025-03-28T19:00:00 11.02025 67.54808
2025-03-28T20:00:00 10.18025 70.90631
2025-03-28T21:00:00 9.740245 71.91872
2025-03-28T22:00:00 9.640245 76.46433
2025-03-28T23:00:00 9.500245 77.5135
2025-03-29T00:00:00 9.260245 80.05228
2025-03-29T01:00:00 8.850245 81.90736
2025-03-29T02:00:00 8.630245 83.25623
2025-03-29T03:00:00 8.380245 83.74668
2025-03-29T04:00:00 8.300245 84.85185
2025-03-29T05:00:00 8.240246 86.21298
2025-03-29T06:00:00 8.410246 86.53181
2025-03-29T07:00:00 8.540245 87.20808
2025-03-29T08:00:00 8.390245 88.71495
2025-03-29T09:00:00 8.490246 90.02064
2025-03-29T10:00:00 9.200245 84.90203
2025-03-29T11:00:00 10.08025 80.06538
2025-03-29T12:00:00 10.60025 76.20668
2025-03-29T13:00:00 10.99025 72.66843
2025-03-29T14:00:00 11.32025 71.533
2025-03-29T15:00:00 11.19025 72.10487
2025-03-29T16:00:00 11.12025 71.94124
2025-03-29T17:00:00 10.91025 71.00516
2025-03-29T18:00:00 10.54025 68.63564
2025-03-29T19:00:00 9.580245 70.83314
2025-03-29T20:00:00 8.260245 75.41991
2025-03-29T21:00:00 7.120246 79.43916
2025-03-29T22:00:00 6.110245 86.45489
2025-03-29T23:00:00 5.250245 87.53056
2025-03-30T00:00:00 5.920245 85.27723
2025-03-30T01:00:00 5.650245 85.42584
2025-03-30T02:00:00 5.250245 85.92597
2025-03-30T03:00:00 5.060246 86.51804
2025-03-30T04:00:00 4.700245 87.6581
2025-03-30T05:00:00 3.180245 90.96603
2025-03-30T06:00:00 2.740245 93.38705
2025-03-30T07:00:00 5.780245 86.4782
2025-03-30T08:00:00 8.810246 75.99859
2025-03-30T09:00:00 11.16025 64.47919
2025-03-30T10:00:00 12.76025 55.28353
2025-03-30T11:00:00 13.94025 48.31531
2025-03-30T12:00:00 14.54025 45.09563
2025-03-30T13:00:00 14.53025 44.80374
2025-03-30T14:00:00 14.38025 45.95849
2025-03-30T15:00:00 13.75025 48.88321
2025-03-30T16:00:00 13.11025 53.64593
2025-03-30T17:00:00 12.56025 58.1087
2025-03-30T18:00:00 11.89025 62.20772
2025-03-30T19:00:00 10.86025 67.13536
2025-03-30T20:00:00 9.980246 71.91612
2025-03-30T21:00:00 9.570246 73.67168
2025-03-30T22:00:00 9.530245 74.49412
2025-03-30T23:00:00 8.970245 76.50817
2025-03-31T00:00:00 8.660245 75.91851
2025-03-31T01:00:00 8.510245 75.57173
2025-03-31T02:00:00 7.750245 76.99831
2025-03-31T03:00:00 7.340245 77.20027
2025-03-31T04:00:00 7.470245 75.81178
2025-03-31T05:00:00 7.340245 76.16612
2025-03-31T06:00:00 7.390245 76.33751
2025-03-31T07:00:00 8.410246 71.75267
2025-03-31T08:00:00 9.560246 62.25233
2025-03-31T09:00:00 10.12025 58.42401
2025-03-31T10:00:00 10.57025 57.42272
2025-03-31T11:00:00 11.05025 55.65007
2025-03-31T12:00:00 11.37025 54.47648
2025-03-31T13:00:00 11.61025 53.00367
2025-03-31T14:00:00 11.77025 51.73419
2025-03-31T15:00:00 11.86025 51.09522
2025-03-31T16:00:00 11.45025 50.46653
2025-03-31T17:00:00 10.67025 50.53509
2025-03-31T18:00:00 9.360246 53.72365
2025-03-31T19:00:00 8.260245 57.55256
2025-03-31T20:00:00 7.750245 60.51117
2025-03-31T21:00:00 7.110245 63.55101
2025-03-31T22:00:00 5.670245 71.54879
2025-03-31T23:00:00 4.870246 74.19094
2025-04-01T00:00:00 4.200245 76.25323
2025-04-01T01:00:00 3.630245 78.06403
2025-04-01T02:00:00 3.090245 80.16916
2025-04-01T03:00:00 2.890245 81.19906
2025-04-01T04:00:00 2.690246 81.22733
2025-04-01T05:00:00 2.840245 80.18729
2025-04-01T06:00:00 4.320245 77.50535
2025-04-01T07:00:00 7.170245 67.50243
2025-04-01T08:00:00 8.830245 61.4488
2025-04-01T09:00:00 9.940246 53.22574
2025-04-01T10:00:00 10.69025 49.73962
2025-04-01T11:00:00 11.34025 48.96098
2025-04-01T12:00:00 11.55025 48.00295
2025-04-01T13:00:00 12.10025 44.01897
2025-04-01T14:00:00 12.23025 44.67154
2025-04-01T15:00:00 12.39025 44.49228
2025-04-01T16:00:00 12.16025 44.03692
2025-04-01T17:00:00 11.51025 45.04549
2025-04-01T18:00:00 10.74025 46.11695
2025-04-01T19:00:00 10.29025 49.01153
2025-04-01T20:00:00 9.990245 52.09249
2025-04-01T21:00:00 9.560246 55.72552
2025-04-01T22:00:00 9.250245 57.98491
2025-04-01T23:00:00 8.780245 60.03482
2025-04-02T00:00:00 8.220245 62.63751
2025-04-02T01:00:00 7.280245 67.5761
2025-04-02T02:00:00 5.870246 75.0847
2025-04-02T03:00:00 5.720245 74.62463
2025-04-02T04:00:00 5.780245 74.90562
2025-04-02T05:00:00 5.010245 78.35839
2025-04-02T06:00:00 5.060246 80.77263
2025-04-02T07:00:00 7.980245 71.9719
2025-04-02T08:00:00 10.28025 65.88143
2025-04-02T09:00:00 12.16025 60.89195
2025-04-02T10:00:00 13.66025 56.70404
2025-04-02T11:00:00 15.31025 51.66103
2025-04-02T12:00:00 16.82025 47.35325
2025-04-02T13:00:00 18.02025 44.2186
2025-04-02T14:00:00 18.93024 41.9607
2025-04-02T15:00:00 19.40025 40.34792
2025-04-02T16:00:00 19.09025 41.28208
2025-04-02T17:00:00 17.68024 45.97344
2025-04-02T18:00:00 15.52025 51.21623
2025-04-02T19:00:00 13.96025 55.83849
2025-04-02T20:00:00 12.76025 58.28319
2025-04-02T21:00:00 11.21025 64.17448
2025-04-02T22:00:00 9.300245 73.46539
2025-04-02T23:00:00 8.370246 76.24178
2025-04-03T00:00:00 7.500245 79.33139
2025-04-03T01:00:00 6.440245 82.43302
2025-04-03T02:00:00 5.420245 85.51926
2025-04-03T03:00:00 4.910245 85.94649
2025-04-03T04:00:00 4.430245 86.32069
2025-04-03T05:00:00 3.740245 89.78288
2025-04-03T06:00:00 5.120246 88.14118
2025-04-03T07:00:00 8.550245 78.61152
2025-04-03T08:00:00 11.69025 67.03833
2025-04-03T09:00:00 13.76025 60.61043
2025-04-03T10:00:00 15.65025 57.41848
2025-04-03T11:00:00 17.17025 52.7838
2025-04-03T12:00:00 18.42025 49.0378
2025-04-03T13:00:00 19.50025 45.57483
2025-04-03T14:00:00 20.22025 42.62711
2025-04-03T15:00:00 20.49025 42.35386
2025-04-03T16:00:00 20.37025 42.08672
2025-04-03T17:00:00 18.83025 47.33224
2025-04-03T18:00:00 15.15025 58.60927
2025-04-03T19:00:00 15.07025 56.63884
2025-04-03T20:00:00 12.96025 65.07701
2025-04-03T21:00:00 9.700245 75.78483
2025-04-03T22:00:00 8.740245 80.58935
2025-04-03T23:00:00 7.330246 85.14931
2025-04-04T00:00:00 6.520245 86.68465
2025-04-04T01:00:00 5.800245 88.89995
2025-04-04T02:00:00 5.050245 90.86669
2025-04-04T03:00:00 4.530245 91.40598
2025-04-04T04:00:00 4.190246 91.50861
2025-04-04T05:00:00 4.000246 91.36249
2025-04-04T06:00:00 5.390245 89.49143
2025-04-04T07:00:00 9.520246 77.0322
2025-04-04T08:00:00 13.09025 65.78506
2025-04-04T09:00:00 15.61025 55.88528
2025-04-04T10:00:00 17.53025 51.44923
2025-04-04T11:00:00 19.06025 47.82131
2025-04-04T12:00:00 20.38025 44.13309
2025-04-04T13:00:00 21.20025 41.4074
2025-04-04T14:00:00 21.82025 39.23304
2025-04-04T15:00:00 22.13025 38.28328
2025-04-04T16:00:00 21.79025 38.98227
2025-04-04T17:00:00 20.29025 44.74653
2025-04-04T18:00:00 16.75025 56.25932
2025-04-04T19:00:00 16.08025 55.89272
2025-04-04T20:00:00 14.76025 59.44724
2025-04-04T21:00:00 10.67025 74.29019
2025-04-04T22:00:00 9.180245 80.82324
2025-04-04T23:00:00 8.190246 82.79205
2025-04-05T00:00:00 7.110245 85.42194
2025-04-05T01:00:00 6.060246 87.86538
2025-04-05T02:00:00 5.200245 88.58891
2025-04-05T03:00:00 4.670245 89.23209
2025-04-05T04:00:00 4.530245 88.39436
2025-04-05T05:00:00 4.050245 88.40778
2025-04-05T06:00:00 5.960245 84.20007
2025-04-05T07:00:00 10.20025 71.25871
2025-04-05T08:00:00 13.72025 59.51586
2025-04-05T09:00:00 16.25025 49.97312
2025-04-05T10:00:00 18.28025 43.80309
2025-04-05T11:00:00 19.85025 39.45004
2025-04-05T12:00:00 20.74025 36.81195
2025-04-05T13:00:00 21.57025 34.8284
2025-04-05T14:00:00 21.94025 33.54979
2025-04-05T15:00:00 22.01024 33.49975
2025-04-05T16:00:00 21.49025 35.24547
2025-04-05T17:00:00 20.17025 35.20533
2025-04-05T18:00:00 17.35025 44.58308
2025-04-05T19:00:00 15.00025 52.44864
2025-04-05T20:00:00 13.95025 54.98246
2025-04-05T21:00:00 13.34025 60.04464
2025-04-05T22:00:00 13.32025 61.26379
2025-04-05T23:00:00 12.63025 65.09165
2025-04-06T00:00:00 11.32025 68.89875
2025-04-06T01:00:00 10.44025 68.42176
2025-04-06T02:00:00 9.150246 67.70596
2025-04-06T03:00:00 8.020246 66.34879
2025-04-06T04:00:00 6.990245 66.9756
2025-04-06T05:00:00 5.940245 69.40742
2025-04-06T06:00:00 7.290245 64.9463
2025-04-06T07:00:00 9.070246 55.34926
2025-04-06T08:00:00 10.11025 50.85322
2025-04-06T09:00:00 11.21025 47.59075
2025-04-06T10:00:00 12.30025 44.01463
2025-04-06T11:00:00 13.25025 39.22907
2025-04-06T12:00:00 14.12025 34.79015
2025-04-06T13:00:00 14.71025 30.49324
2025-04-06T14:00:00 15.04025 27.92412
2025-04-06T15:00:00 15.06025 26.1358
2025-04-06T16:00:00 14.43025 25.5798
2025-04-06T17:00:00 13.03025 28.65486
2025-04-06T18:00:00 10.70025 31.12206
2025-04-06T19:00:00 8.840245 35.4666
2025-04-06T20:00:00 7.520245 38.69
2025-04-06T21:00:00 6.140245 43.3426
2025-04-06T22:00:00 4.600246 51.33437
2025-04-06T23:00:00 3.480246 56.70421
2025-04-07T00:00:00 2.730246 59.89932
2025-04-07T01:00:00 2.050245 63.45713
2025-04-07T02:00:00 1.230245 67.5674
2025-04-07T03:00:00 0.570245 69.12174
2025-04-07T04:00:00 0.100245 70.49928
2025-04-07T05:00:00 -0.27975 71.60397
2025-04-07T06:00:00 1.860245 66.50315
2025-04-07T07:00:00 5.130245 51.56913
2025-04-07T08:00:00 7.530245 42.69251
2025-04-07T09:00:00 9.470245 39.06076
2025-04-07T10:00:00 11.15025 36.07349
2025-04-07T11:00:00 12.69025 34.69067
2025-04-07T12:00:00 13.85025 32.87804
2025-04-07T13:00:00 14.81025 31.11981
2025-04-07T14:00:00 15.47025 29.75451
2025-04-07T15:00:00 15.77025 29.03392
2025-04-07T16:00:00 15.57025 29.49757
2025-04-07T17:00:00 14.23025 33.65975
2025-04-07T18:00:00 11.14025 41.74565
2025-04-07T19:00:00 8.530246 51.90319
2025-04-07T20:00:00 7.810246 53.44311
2025-04-07T21:00:00 5.800245 63.92618
2025-04-07T22:00:00 5.060246 65.40938
2025-04-07T23:00:00 4.110245 68.19016
2025-04-08T00:00:00 3.170245 72.07657
2025-04-08T01:00:00 2.150245 75.02953
2025-04-08T02:00:00 1.390245 77.95556
2025-04-08T03:00:00 0.700245 80.43067
2025-04-08T04:00:00 0.330245 81.39674
2025-04-08T05:00:00 0.030245 81.71491
2025-04-08T06:00:00 2.490245 75.26273
2025-04-08T07:00:00 6.330246 59.83217
2025-04-08T08:00:00 9.310246 48.25934
2025-04-08T09:00:00 11.34025 43.47039
2025-04-08T10:00:00 13.03025 40.12134
2025-04-08T11:00:00 14.46025 38.26479
2025-04-08T12:00:00 15.62025 36.33616
2025-04-08T13:00:00 16.44025 33.97662
2025-04-08T14:00:00 17.20025 32.58195
2025-04-08T15:00:00 17.57025 31.36581
2025-04-08T16:00:00 17.52025 31.19154
2025-04-08T17:00:00 16.22025 38.10258
2025-04-08T18:00:00 13.27025 44.62467
2025-04-08T19:00:00 11.96025 45.94175
2025-04-08T20:00:00 8.950245 59.73305
2025-04-08T21:00:00 6.740245 69.38174
2025-04-08T22:00:00 5.800245 72.20055
2025-04-08T23:00:00 4.470245 78.15279
2025-04-09T00:00:00 3.550245 80.88838
2025-04-09T01:00:00 2.850246 84.02647
2025-04-09T02:00:00 2.260245 86.05783
2025-04-09T03:00:00 1.830245 87.2727
2025-04-09T04:00:00 1.400245 87.60743
2025-04-09T05:00:00 1.100246 87.96022
2025-04-09T06:00:00 3.320245 81.74056
2025-04-09T07:00:00 7.180245 70.07927
2025-04-09T08:00:00 10.52025 57.61529
2025-04-09T09:00:00 12.79025 50.27037
2025-04-09T10:00:00 14.76025 45.74271
2025-04-09T11:00:00 16.10025 41.63072
2025-04-09T12:00:00 17.10025 38.17368
2025-04-09T13:00:00 17.63025 37.09535
2025-04-09T14:00:00 17.97025 35.79071
2025-04-09T15:00:00 17.86025 35.75805
2025-04-09T16:00:00 17.37025 37.28368
2025-04-09T17:00:00 16.40025 36.64927
2025-04-09T18:00:00 14.56025 37.30342
2025-04-09T19:00:00 12.42025 43.66736
2025-04-09T20:00:00 10.28025 52.66886
2025-04-09T21:00:00 8.680245 61.36666
2025-04-09T22:00:00 7.860245 64.28946
2025-04-09T23:00:00 6.400245 69.91151
2025-04-10T00:00:00 5.350246 73.69484
2025-04-10T01:00:00 4.280245 78.9749
2025-04-10T02:00:00 3.590245 82.37721
2025-04-10T03:00:00 2.950245 84.96211
2025-04-10T04:00:00 2.700245 86.23745
2025-04-10T05:00:00 2.010245 89.61541
2025-04-10T06:00:00 4.480246 83.1627
2025-04-10T07:00:00 8.670245 70.19528
2025-04-10T08:00:00 11.63025 59.06725
2025-04-10T09:00:00 13.75025 53.33049
2025-04-10T10:00:00 15.60025 46.28018
2025-04-10T11:00:00 16.73025 42.74423
2025-04-10T12:00:00 17.54025 40.6839
2025-04-10T13:00:00 18.22025 39.21984
2025-04-10T14:00:00 18.54025 38.24751
2025-04-10T15:00:00 18.52025 38.0798
2025-04-10T16:00:00 18.05025 39.08667
2025-04-10T17:00:00 16.86025 39.68467
2025-04-10T18:00:00 14.34025 46.474
2025-04-10T19:00:00 11.24025 60.36215
2025-04-10T20:00:00 9.760245 65.38962
2025-04-10T21:00:00 9.820246 64.61946
2025-04-10T22:00:00 7.550245 75.34341
2025-04-10T23:00:00 6.610245 78.12444
2025-04-11T00:00:00 6.200245 79.74501
2025-04-11T01:00:00 5.670245 82.03014
2025-04-11T02:00:00 4.870246 85.45162
2025-04-11T03:00:00 4.230246 88.23674
2025-04-11T04:00:00 3.730246 89.26778
2025-04-11T05:00:00 3.350246 89.74576
2025-04-11T06:00:00 4.740245 86.91451
2025-04-11T07:00:00 8.420245 74.97161
2025-04-11T08:00:00 11.14025 64.83791
2025-04-11T09:00:00 13.63025 57.45454
2025-04-11T10:00:00 15.90025 51.32137
2025-04-11T11:00:00 17.66025 45.23723
2025-04-11T12:00:00 19.07025 40.11087
2025-04-11T13:00:00 20.10025 36.67596
2025-04-11T14:00:00 20.73025 33.93184
2025-04-11T15:00:00 21.01024 31.87441
2025-04-11T16:00:00 20.69025 32.00787
2025-04-11T17:00:00 19.20025 35.06913
2025-04-11T18:00:00 15.52025 50.11828
2025-04-11T19:00:00 12.64025 58.37515
2025-04-11T20:00:00 10.78025 63.75706
2025-04-11T21:00:00 9.230246 70.26314
2025-04-11T22:00:00 8.310246 72.80873
2025-04-11T23:00:00 7.680245 75.95734
2025-04-12T00:00:00 6.740245 78.87228
2025-04-12T01:00:00 6.030245 81.79068
2025-04-12T02:00:00 5.330246 83.63837
2025-04-12T03:00:00 4.570245 85.35321
2025-04-12T04:00:00 3.930245 87.25971
2025-04-12T05:00:00 3.540246 88.03671
2025-04-12T06:00:00 6.250245 81.24315
2025-04-12T07:00:00 10.75025 66.0819
2025-04-12T08:00:00 14.35025 54.09715
2025-04-12T09:00:00 16.96025 47.12951
2025-04-12T10:00:00 18.76024 43.09535
2025-04-12T11:00:00 20.37025 40.21054
2025-04-12T12:00:00 21.29025 37.59382
2025-04-12T13:00:00 21.60025 35.89729
2025-04-12T14:00:00 21.48025 36.3145
2025-04-12T15:00:00 21.73025 37.17775
2025-04-12T16:00:00 21.97025 40.7011
2025-04-12T17:00:00 20.82025 46.86147
2025-04-12T18:00:00 18.01024 52.43358
2025-04-12T19:00:00 17.26024 54.79796
2025-04-12T20:00:00 15.08025 65.3776
2025-04-12T21:00:00 14.93025 67.14626
2025-04-12T22:00:00 15.53025 63.50695
2025-04-12T23:00:00 15.80025 59.62433
2025-04-13T00:00:00 13.15025 72.18729
2025-04-13T01:00:00 12.91025 75.46317
2025-04-13T02:00:00 13.17025 78.05708
2025-04-13T03:00:00 13.84025 74.86129
2025-04-13T04:00:00 13.94025 71.12074
2025-04-13T05:00:00 13.72025 70.06754
2025-04-13T06:00:00 13.38025 72.97295
2025-04-13T07:00:00 13.71025 73.5318
2025-04-13T08:00:00 13.94025 74.12359
2025-04-13T09:00:00 14.36025 73.00726
2025-04-13T10:00:00 14.63025 73.40257
2025-04-13T11:00:00 15.09025 72.99485
2025-04-13T12:00:00 15.98025 69.34654
2025-04-13T13:00:00 17.14025 64.95682
2025-04-13T14:00:00 17.61025 62.04006
2025-04-13T15:00:00 17.98025 59.23425
2025-04-13T16:00:00 18.19025 57.55474
2025-04-13T17:00:00 17.27025 64.33589
2025-04-13T18:00:00 16.55025 60.9164
2025-04-13T19:00:00 15.56025 65.92986
2025-04-13T20:00:00 14.09025 75.66656
2025-04-13T21:00:00 13.54025 80.89629
2025-04-13T22:00:00 12.65025 89.27836
2025-04-13T23:00:00 12.47025 91.74133
2025-04-14T00:00:00 12.32025 94.02197
2025-04-14T01:00:00 12.09025 96.09933
2025-04-14T02:00:00 11.71025 97.11649
2025-04-14T03:00:00 11.29025 97.8213
2025-04-14T04:00:00 11.07025 98.53863
2025-04-14T05:00:00 10.83025 98.13919
2025-04-14T06:00:00 11.55025 97.50151
2025-04-14T07:00:00 13.12025 93.0092
2025-04-14T08:00:00 14.81025 85.20145
2025-04-14T09:00:00 16.09025 80.65883
2025-04-14T10:00:00 17.05025 72.48322
2025-04-14T11:00:00 18.10025 66.21654
2025-04-14T12:00:00 18.97025 60.75959
2025-04-14T13:00:00 19.86025 56.86193
2025-04-14T14:00:00 20.47025 54.27351
2025-04-14T15:00:00 20.73025 53.80003
2025-04-14T16:00:00 20.56025 52.37074
2025-04-14T17:00:00 19.63025 59.87413
2025-04-14T18:00:00 17.08025 69.24458
2025-04-14T19:00:00 14.96025 75.76347
2025-04-14T20:00:00 13.44025 81.59145
2025-04-14T21:00:00 12.49025 84.25775
2025-04-14T22:00:00 11.66025 87.11311
2025-04-14T23:00:00 10.52025 91.05013
2025-04-15T00:00:00 10.34025 91.28415
2025-04-15T01:00:00 10.29025 89.80367
2025-04-15T02:00:00 10.02025 91.13644
2025-04-15T03:00:00 9.600245 95.9427
2025-04-15T04:00:00 9.630245 96.07417
2025-04-15T05:00:00 10.29025 95.00222
2025-04-15T06:00:00 11.57025 92.23602
2025-04-15T07:00:00 13.17025 88.43459
2025-04-15T08:00:00 13.98025 88.91734
2025-04-15T09:00:00 14.09025 90.22769
2025-04-15T10:00:00 14.32025 90.90069
2025-04-15T11:00:00 15.03025 86.24218
2025-04-15T12:00:00 16.00025 81.66133
2025-04-15T13:00:00 17.55025 71.38747
2025-04-15T14:00:00 18.97025 62.1912
2025-04-15T15:00:00 19.32025 58.7329
2025-04-15T16:00:00 19.31025 57.52643
2025-04-15T17:00:00 18.75025 62.97225
2025-04-15T18:00:00 17.73025 65.30489
2025-04-15T19:00:00 14.75025 82.31136
2025-04-15T20:00:00 15.03025 80.13856
2025-04-15T21:00:00 13.13025 86.9107
2025-04-15T22:00:00 13.61025 85.98031
2025-04-15T23:00:00 13.23025 88.85294
2025-04-16T00:00:00 12.41025 92.35112
2025-04-16T01:00:00 12.23025 92.33984
2025-04-16T02:00:00 11.30025 94.72933
2025-04-16T03:00:00 10.78025 97.28612
2025-04-16T04:00:00 10.43025 97.93312
2025-04-16T05:00:00 10.57025 98.3317
2025-04-16T06:00:00 11.67025 96.98602
2025-04-16T07:00:00 13.28025 89.09396
2025-04-16T08:00:00 13.18025 88.67135
2025-04-16T09:00:00 12.92025 86.83147
2025-04-16T10:00:00 12.50025 81.8495
2025-04-16T11:00:00 12.08025 79.1138
2025-04-16T12:00:00 11.62025 80.29421
2025-04-16T13:00:00 11.35025 80.63942
2025-04-16T14:00:00 11.11025 82.05068
2025-04-16T15:00:00 11.01025 81.31072
2025-04-16T16:00:00 10.81025 81.89747
2025-04-16T17:00:00 10.58025 84.08284
2025-04-16T18:00:00 10.16025 87.61489
2025-04-16T19:00:00 9.820246 91.24572
2025-04-16T20:00:00 9.670245 94.01042
2025-04-16T21:00:00 9.490245 95.67798
2025-04-16T22:00:00 9.250245 95.73312
2025-04-16T23:00:00 9.090245 96.1187
2025-04-17T00:00:00 8.920245 95.91553
2025-04-17T01:00:00 8.770246 95.38641
2025-04-17T02:00:00 8.610246 94.40411
2025-04-17T03:00:00 8.490246 94.00987
2025-04-17T04:00:00 8.380245 94.32716
2025-04-17T05:00:00 8.290245 94.45208
2025-04-17T06:00:00 8.340245 93.87233
2025-04-17T07:00:00 8.550245 93.30599
2025-04-17T08:00:00 8.800245 92.23943
2025-04-17T09:00:00 8.790245 91.67048
2025-04-17T10:00:00 8.910245 91.17714
2025-04-17T11:00:00 9.290245 89.65686
2025-04-17T12:00:00 9.480246 88.87805
2025-04-17T13:00:00 9.550245 89.00639
2025-04-17T14:00:00 9.520246 88.03249
2025-04-17T15:00:00 9.380245 88.07922
2025-04-17T16:00:00 9.270246 86.20898
2025-04-17T17:00:00 8.770246 87.29256
2025-04-17T18:00:00 8.400246 87.3748
2025-04-17T19:00:00 8.130245 87.95503
2025-04-17T20:00:00 7.860245 89.15837
2025-04-17T21:00:00 7.640245 89.26203
2025-04-17T22:00:00 7.510245 89.9359
2025-04-17T23:00:00 7.310246 90.73608
2025-04-18T00:00:00 7.100246 91.09903
2025-04-18T01:00:00 6.980245 90.45599
2025-04-18T02:00:00 6.840245 89.6883
2025-04-18T03:00:00 6.850246 89.43853
2025-04-18T04:00:00 6.900245 88.75721
2025-04-18T05:00:00 6.900245 89.25561
2025-04-18T06:00:00 7.080246 89.70993
2025-04-18T07:00:00 7.390245 87.26811
2025-04-18T08:00:00 7.860245 83.91352
2025-04-18T09:00:00 8.640245 78.24147
2025-04-18T10:00:00 8.660245 79.62595
2025-04-18T11:00:00 9.110246 76.85456
2025-04-18T12:00:00 9.600245 73.47123
2025-04-18T13:00:00 10.24025 72.4722
2025-04-18T14:00:00 10.86025 68.56049
2025-04-18T15:00:00 10.92025 68.47759
2025-04-18T16:00:00 10.83025 68.74607
2025-04-18T17:00:00 10.51025 70.03726
2025-04-18T18:00:00 9.070246 75.88499
2025-04-18T19:00:00 6.800245 86.59421
2025-04-18T20:00:00 5.200245 93.02469
2025-04-18T21:00:00 5.080246 91.83978
2025-04-18T22:00:00 3.660245 97.1187
2025-04-18T23:00:00 3.150245 98.28439
2025-04-19T00:00:00 2.780245 99.12025
2025-04-19T01:00:00 2.460245 99.0414
2025-04-19T02:00:00 2.180245 98.11282
2025-04-19T03:00:00 1.940245 97.47008
2025-04-19T04:00:00 1.680245 97.31909
2025-04-19T05:00:00 1.960245 96.7002
2025-04-19T06:00:00 4.120246 94.08154
2025-04-19T07:00:00 6.680245 89.10997
2025-04-19T08:00:00 9.330245 81.46473
2025-04-19T09:00:00 11.82025 74.29597
2025-04-19T10:00:00 14.04025 69.08954
2025-04-19T11:00:00 16.30025 61.43774
2025-04-19T12:00:00 18.09025 55.95614
2025-04-19T13:00:00 19.41025 51.78277
2025-04-19T14:00:00 20.28025 48.39048
2025-04-19T15:00:00 20.75025 45.92828
2025-04-19T16:00:00 20.87025 44.57568
2025-04-19T17:00:00 20.07025 47.90715
2025-04-19T18:00:00 16.24025 63.54161
2025-04-19T19:00:00 13.31025 75.68632
2025-04-19T20:00:00 11.64025 81.0119
2025-04-19T21:00:00 10.56025 84.42616
2025-04-19T22:00:00 9.840245 87.9433
2025-04-19T23:00:00 9.100245 89.51724
2025-04-20T00:00:00 8.130245 90.36411
2025-04-20T01:00:00 7.330246 93.03625
2025-04-20T02:00:00 7.020245 93.08077
2025-04-20T03:00:00 6.860245 93.32995
2025-04-20T04:00:00 6.470245 94.74865
2025-04-20T05:00:00 7.370246 94.01131
2025-04-20T06:00:00 10.53025 84.7117
2025-04-20T07:00:00 12.68025 76.19768
2025-04-20T08:00:00 13.47025 69.96896
2025-04-20T09:00:00 13.14025 67.58875
2025-04-20T10:00:00 12.38025 69.88991
2025-04-20T11:00:00 11.25025 73.98679
2025-04-20T12:00:00 11.13025 73.20076
2025-04-20T13:00:00 12.09025 70.5086
2025-04-20T14:00:00 13.17025 67.31674
2025-04-20T15:00:00 14.46025 68.05683
2025-04-20T16:00:00 15.09025 60.10554
2025-04-20T17:00:00 14.65025 61.67221
2025-04-20T18:00:00 12.48025 70.29668
2025-04-20T19:00:00 10.67025 77.4398
2025-04-20T20:00:00 9.380245 82.38003
2025-04-20T21:00:00 8.680245 85.31126
2025-04-20T22:00:00 7.100246 90.71882
2025-04-20T23:00:00 6.880245 90.95435
2025-04-21T00:00:00 7.080246 90.90712
2025-04-21T01:00:00 7.610245 91.26597
2025-04-21T02:00:00 7.990245 90.98006
2025-04-21T03:00:00 8.290245 91.19234
2025-04-21T04:00:00 8.390245 92.27464
2025-04-21T05:00:00 8.200246 93.22028
2025-04-21T06:00:00 8.880245 91.17485
2025-04-21T07:00:00 10.04025 88.5658
2025-04-21T08:00:00 11.51025 84.82759
2025-04-21T09:00:00 12.49025 79.23018
2025-04-21T10:00:00 13.27025 72.16109
2025-04-21T11:00:00 13.55025 65.84303
2025-04-21T12:00:00 14.14025 64.1895
2025-04-21T13:00:00 14.52025 66.10423
2025-04-21T14:00:00 13.56025 73.8543
2025-04-21T15:00:00 14.38025 67.67014
2025-04-21T16:00:00 13.90025 69.06052
2025-04-21T17:00:00 13.22025 72.34864
2025-04-21T18:00:00 12.40025 75.94239
2025-04-21T19:00:00 10.71025 83.41174
2025-04-21T20:00:00 10.32025 85.79497
2025-04-21T21:00:00 10.16025 86.13001
2025-04-21T22:00:00 10.12025 88.57326
2025-04-21T23:00:00 9.450245 90.34867
2025-04-22T00:00:00 9.080245 91.44051
2025-04-22T01:00:00 8.550245 92.47621
2025-04-22T02:00:00 8.440246 93.49183
2025-04-22T03:00:00 8.190246 94.4468
2025-04-22T04:00:00 7.840245 95.54118
2025-04-22T05:00:00 7.920245 95.9401
2025-04-22T06:00:00 9.350245 92.71912
2025-04-22T07:00:00 11.88025 83.38997
2025-04-22T08:00:00 14.09025 74.25079
2025-04-22T09:00:00 15.41025 65.31815
2025-04-22T10:00:00 16.64025 61.64407
2025-04-22T11:00:00 17.18024 58.39972
2025-04-22T12:00:00 17.63025 56.56289
2025-04-22T13:00:00 18.06025 53.7505
2025-04-22T14:00:00 18.28025 51.44207
2025-04-22T15:00:00 18.36025 50.1091
2025-04-22T16:00:00 18.16025 50.95405
2025-04-22T17:00:00 17.32025 56.29135
2025-04-22T18:00:00 15.26025 65.10733
2025-04-22T19:00:00 12.78025 77.36269
2025-04-22T20:00:00 11.76025 79.93241
2025-04-22T21:00:00 11.30025 80.79767
2025-04-22T22:00:00 9.790245 82.94927
2025-04-22T23:00:00 9.330245 84.21693
2025-04-23T00:00:00 8.700245 85.84741
2025-04-23T01:00:00 7.220245 91.55354
2025-04-23T02:00:00 6.800245 92.80731
2025-04-23T03:00:00 6.990245 93.46809
2025-04-23T04:00:00 6.650245 94.03495
2025-04-23T05:00:00 7.270245 93.74516
2025-04-23T06:00:00 9.800245 88.7859
2025-04-23T07:00:00 11.92025 82.0487
2025-04-23T08:00:00 13.77025 77.15789
2025-04-23T09:00:00 15.37025 70.92088
2025-04-23T10:00:00 16.48025 66.84605
2025-04-23T11:00:00 16.45025 64.23715
2025-04-23T12:00:00 16.78025 62.64338
2025-04-23T13:00:00 16.29025 66.94015
2025-04-23T14:00:00 13.87025 79.11809
2025-04-23T15:00:00 12.30025 86.41895
2025-04-23T16:00:00 12.07025 85.23733
2025-04-23T17:00:00 11.77025 85.60754
2025-04-23T18:00:00 11.41025 87.56033
2025-04-23T19:00:00 11.15025 88.90846
2025-04-23T20:00:00 10.95025 87.63368
2025-04-23T21:00:00 10.61025 89.22279
2025-04-23T22:00:00 10.50025 92.41573
2025-04-23T23:00:00 10.22025 93.2155
2025-04-24T00:00:00 9.900246 93.76786
2025-04-24T01:00:00 9.600245 93.68733
2025-04-24T02:00:00 9.270246 95.01949
2025-04-24T03:00:00 9.180245 94.49826
2025-04-24T04:00:00 9.160245 93.79029
2025-04-24T05:00:00 9.290245 93.6697
2025-04-24T06:00:00 9.650246 93.11801
2025-04-24T07:00:00 10.43025 91.29075
2025-04-24T08:00:00 11.29025 85.78639
2025-04-24T09:00:00 11.74025 81.85725
2025-04-24T10:00:00 12.26025 76.7523
2025-04-24T11:00:00 12.69025 76.51113
2025-04-24T12:00:00 12.40025 76.7757
2025-04-24T13:00:00 12.52025 76.90038
2025-04-24T14:00:00 12.54025 74.47755
2025-04-24T15:00:00 12.68025 73.14079
2025-04-24T16:00:00 12.63025 75.15764
2025-04-24T17:00:00 12.31025 77.07539
2025-04-24T18:00:00 11.50025 81.65736
2025-04-24T19:00:00 10.78025 87.26024
2025-04-24T20:00:00 10.33025 90.7273
2025-04-24T21:00:00 10.31025 92.65423
2025-04-24T22:00:00 10.06025 93.64962
2025-04-24T23:00:00 10.08025 93.77782
2025-04-25T00:00:00 10.20025 93.72094
2025-04-25T01:00:00 10.10025 94.35255
2025-04-25T02:00:00 10.06025 93.84033
2025-04-25T03:00:00 10.05025 93.33198
2025-04-25T04:00:00 9.990245 92.82287
2025-04-25T05:00:00 9.980246 92.8853
2025-04-25T06:00:00 10.15025 92.51843
2025-04-25T07:00:00 10.39025 92.97349
2025-04-25T08:00:00 10.88025 92.00452
2025-04-25T09:00:00 11.74025 90.59078
2025-04-25T10:00:00 12.19025 89.53893
2025-04-25T11:00:00 13.26025 86.00046
2025-04-25T12:00:00 14.04025 79.19669
2025-04-25T13:00:00 14.39025 72.96354
2025-04-25T14:00:00 14.56025 70.47497
2025-04-25T15:00:00 14.19025 71.36311
2025-04-25T16:00:00 14.10025 71.53944
2025-04-25T17:00:00 13.78025 74.19517
2025-04-25T18:00:00 12.73025 80.34665
2025-04-25T19:00:00 11.47025 88.04089
2025-04-25T20:00:00 11.25025 88.55744
2025-04-25T21:00:00 10.37025 92.09471
2025-04-25T22:00:00 9.800245 94.27319
2025-04-25T23:00:00 9.300245 95.60497
2025-04-26T00:00:00 8.830245 96.10857
2025-04-26T01:00:00 8.580245 96.55996
2025-04-26T02:00:00 8.200246 96.47993
2025-04-26T03:00:00 8.220245 95.75518
2025-04-26T04:00:00 8.630245 94.40517
2025-04-26T05:00:00 9.510245 92.35064
2025-04-26T06:00:00 10.52025 88.67068
2025-04-26T07:00:00 11.48025 84.70904
2025-04-26T08:00:00 12.57025 78.12087
2025-04-26T09:00:00 13.55025 73.30298
2025-04-26T10:00:00 13.58025 71.9752
2025-04-26T11:00:00 14.21025 70.11882
2025-04-26T12:00:00 14.71025 68.6667
2025-04-26T13:00:00 15.07025 67.40456
2025-04-26T14:00:00 15.14025 66.10603
2025-04-26T15:00:00 15.10025 65.56021
2025-04-26T16:00:00 15.11025 65.47332
2025-04-26T17:00:00 14.54025 69.80564
2025-04-26T18:00:00 13.59025 75.93951
2025-04-26T19:00:00 12.10025 83.75685
2025-04-26T20:00:00 11.06025 88.36025
2025-04-26T21:00:00 9.790245 92.30637
2025-04-26T22:00:00 9.690246 93.18385
2025-04-26T23:00:00 9.200245 94.24174
2025-04-27T00:00:00 8.800245 94.67287
2025-04-27T01:00:00 8.560246 94.92064
2025-04-27T02:00:00 8.850245 93.45215
2025-04-27T03:00:00 8.690246 94.34368
2025-04-27T04:00:00 8.390245 94.6521
2025-04-27T05:00:00 8.220245 94.83877
2025-04-27T06:00:00 9.400246 92.84899
2025-04-27T07:00:00 11.71025 83.53836
2025-04-27T08:00:00 13.64025 74.67419
2025-04-27T09:00:00 15.25025 69.24466
2025-04-27T10:00:00 16.74025 63.69931
2025-04-27T11:00:00 17.75025 61.61634
2025-04-27T12:00:00 18.51024 59.92365
2025-04-27T13:00:00 18.83025 60.60485
2025-04-27T14:00:00 19.03025 60.4911
2025-04-27T15:00:00 18.77025 60.63099
2025-04-27T16:00:00 18.70025 60.69529
2025-04-27T17:00:00 18.08025 61.98391
2025-04-27T18:00:00 16.60025 65.67037
2025-04-27T19:00:00 14.95025 71.17381
2025-04-27T20:00:00 13.64025 77.03273
2025-04-27T21:00:00 13.35025 75.43708
2025-04-27T22:00:00 11.85025 86.08038
2025-04-27T23:00:00 10.92025 87.80935
2025-04-28T00:00:00 10.01025 89.23053
2025-04-28T01:00:00 8.970245 90.62002
2025-04-28T02:00:00 8.180245 92.00587
2025-04-28T03:00:00 7.760245 92.48643
2025-04-28T04:00:00 7.350246 93.42552
2025-04-28T05:00:00 7.110245 94.12691
2025-04-28T06:00:00 10.18025 89.06331
2025-04-28T07:00:00 13.06025 78.2512
2025-04-28T08:00:00 15.41025 68.81175
2025-04-28T09:00:00 17.40025 62.28326
2025-04-28T10:00:00 19.14025 57.56097
2025-04-28T11:00:00 20.43024 54.66321
2025-04-28T12:00:00 21.23025 52.0943
2025-04-28T13:00:00 21.95025 50.17211
2025-04-28T14:00:00 22.40025 46.98438
2025-04-28T15:00:00 22.54025 44.74459
2025-04-28T16:00:00 22.35025 42.5097
2025-04-28T17:00:00 21.29025 42.93409
2025-04-28T18:00:00 19.18024 47.23595
2025-04-28T19:00:00 16.49025 56.61699
2025-04-28T20:00:00 14.63025 64.21436
2025-04-28T21:00:00 13.86025 67.28175
2025-04-28T22:00:00 12.81025 71.43353
2025-04-28T23:00:00 11.47025 76.51405
2025-04-29T00:00:00 10.47025 80.84403
2025-04-29T01:00:00 10.04025 82.92521
2025-04-29T02:00:00 9.270246 85.67566
2025-04-29T03:00:00 8.060246 89.30056
2025-04-29T04:00:00 7.260245 91.55659
2025-04-29T05:00:00 8.280246 91.12865
2025-04-29T06:00:00 11.65025 82.51569
2025-04-29T07:00:00 14.84025 69.06706
2025-04-29T08:00:00 17.29025 58.58588
2025-04-29T09:00:00 19.12025 54.43272
2025-04-29T10:00:00 20.90025 53.09543
2025-04-29T11:00:00 22.25025 51.84585
2025-04-29T12:00:00 23.33025 49.48495
2025-04-29T13:00:00 24.15025 45.73749
2025-04-29T14:00:00 24.51024 43.66943
2025-04-29T15:00:00 25.12025 42.66341
2025-04-29T16:00:00 24.22025 43.73385
2025-04-29T17:00:00 23.26024 45.46023
2025-04-29T18:00:00 20.91025 51.93977
2025-04-29T19:00:00 17.18024 65.57765
2025-04-29T20:00:00 16.45025 67.65184
2025-04-29T21:00:00 16.13025 66.27796
2025-04-29T22:00:00 13.47025 78.89815
2025-04-29T23:00:00 12.65025 81.86977
2025-04-30T00:00:00 11.66025 84.21491
2025-04-30T01:00:00 10.63025 88.19989
2025-04-30T02:00:00 9.910245 90.63277
2025-04-30T03:00:00 8.800245 93.51324
2025-04-30T04:00:00 7.670245 94.61488
2025-04-30T05:00:00 9.030245 92.88905
2025-04-30T06:00:00 12.27025 84.51603
2025-04-30T07:00:00 16.13025 69.70303
2025-04-30T08:00:00 18.61025 58.99175
2025-04-30T09:00:00 20.54025 53.82235
2025-04-30T10:00:00 22.41025 50.42963
2025-04-30T11:00:00 23.72025 46.6615
2025-04-30T12:00:00 25.20025 44.59297
2025-04-30T13:00:00 25.30025 40.77005
2025-04-30T14:00:00 25.60025 39.72651
2025-04-30T15:00:00 25.71025 40.15736
2025-04-30T16:00:00 25.37025 41.28203
2025-04-30T17:00:00 24.41025 43.17854
2025-04-30T18:00:00 20.94025 55.45375
2025-04-30T19:00:00 18.27025 62.11129
2025-04-30T20:00:00 17.07025 68.78313
2025-04-30T21:00:00 14.99025 73.32038
2025-04-30T22:00:00 12.44025 82.78697
2025-04-30T23:00:00 11.39025 85.97215
2025-05-01T00:00:00 10.57025 87.4173
2025-05-01T01:00:00 9.470245 88.51216
2025-05-01T02:00:00 9.160245 88.66543
2025-05-01T03:00:00 8.990245 87.9802
2025-05-01T04:00:00 9.240245 87.7028
2025-05-01T05:00:00 9.440246 86.52506
2025-05-01T06:00:00 12.93025 77.91344
2025-05-01T07:00:00 16.91025 67.83891
2025-05-01T08:00:00 20.04025 59.10459
2025-05-01T09:00:00 23.00025 52.45622
2025-05-01T10:00:00 24.54025 46.30201
2025-05-01T11:00:00 25.92025 42.38006
2025-05-01T12:00:00 26.22025 38.38957
2025-05-01T13:00:00 27.40025 34.23201
2025-05-01T14:00:00 27.29025 31.99138
2025-05-01T15:00:00 27.89025 31.98736
2025-05-01T16:00:00 27.26024 33.32893
2025-05-01T17:00:00 25.93024 38.66772
2025-05-01T18:00:00 22.47025 46.2227
2025-05-01T19:00:00 19.85025 50.72239
2025-05-01T20:00:00 15.79025 65.35862
2025-05-01T21:00:00 14.23025 72.39319
2025-05-01T22:00:00 11.94025 81.82892
2025-05-01T23:00:00 11.26025 86.54292
2025-05-02T00:00:00 11.02025 87.16615
2025-05-02T01:00:00 10.86025 87.86314
2025-05-02T02:00:00 10.70025 89.65544
2025-05-02T03:00:00 10.64025 91.9261
2025-05-02T04:00:00 10.70025 92.49113
2025-05-02T05:00:00 11.51025 89.42152
2025-05-02T06:00:00 14.49025 81.29821
2025-05-02T07:00:00 18.14025 68.63594
2025-05-02T08:00:00 21.33025 55.88463
2025-05-02T09:00:00 23.40025 49.86479
2025-05-02T10:00:00 25.11025 45.42956
2025-05-02T11:00:00 26.57025 43.09615
2025-05-02T12:00:00 26.99025 40.94725
2025-05-02T13:00:00 28.18024 37.95478
2025-05-02T14:00:00 28.20025 35.69497
2025-05-02T15:00:00 28.58025 35.4949
2025-05-02T16:00:00 27.74025 37.45725
2025-05-02T17:00:00 26.02025 44.40937
2025-05-02T18:00:00 22.96025 55.81734
2025-05-02T19:00:00 20.26024 58.96241
2025-05-02T20:00:00 19.67025 64.0621
2025-05-02T21:00:00 18.81025 68.14101
2025-05-02T22:00:00 17.57025 71.15584
2025-05-02T23:00:00 17.89025 65.16617
2025-05-03T00:00:00 18.01024 59.76212
2025-05-03T01:00:00 19.39025 51.42783
2025-05-03T02:00:00 19.02025 53.89457
2025-05-03T03:00:00 16.29025 66.80528
2025-05-03T04:00:00 15.46025 81.21373
2025-05-03T05:00:00 14.69025 92.67057
2025-05-03T06:00:00 15.25025 93.49015
2025-05-03T07:00:00 15.95025 92.44094
2025-05-03T08:00:00 17.29025 86.02133
2025-05-03T09:00:00 19.49025 73.54243
2025-05-03T10:00:00 21.55025 65.91139
2025-05-03T11:00:00 22.73025 57.72379
2025-05-03T12:00:00 24.22025 51.17821
2025-05-03T13:00:00 24.87025 46.30092
2025-05-03T14:00:00 24.64025 45.93337
2025-05-03T15:00:00 24.88025 44.79979
2025-05-03T16:00:00 24.32025 44.58496
2025-05-03T17:00:00 23.69025 44.40918
2025-05-03T18:00:00 21.65025 48.76741
2025-05-03T19:00:00 19.37025 55.94518
2025-05-03T20:00:00 18.37025 63.30559
2025-05-03T21:00:00 18.34025 67.06243
2025-05-03T22:00:00 16.81025 76.37284
2025-05-03T23:00:00 16.50025 77.23463
2025-05-04T00:00:00 15.99025 81.07106
2025-05-04T01:00:00 15.39025 84.81722
2025-05-04T02:00:00 14.92025 88.06606
2025-05-04T03:00:00 14.47025 92.05236
2025-05-04T04:00:00 13.87025 93.54233
2025-05-04T05:00:00 13.78025 93.3531
2025-05-04T06:00:00 14.45025 91.6292
2025-05-04T07:00:00 14.73025 87.18339
2025-05-04T08:00:00 14.22025 86.61651
2025-05-04T09:00:00 12.98025 91.41016
2025-05-04T10:00:00 12.76025 94.29366
2025-05-04T11:00:00 12.63025 94.22491
2025-05-04T12:00:00 12.49025 93.221
2025-05-04T13:00:00 12.39025 92.10389
2025-05-04T14:00:00 12.54025 89.5081
2025-05-04T15:00:00 12.03025 87.79798
2025-05-04T16:00:00 11.76025 86.77111
2025-05-04T17:00:00 11.49025 85.86667
2025-05-04T18:00:00 11.06025 85.93588
2025-05-04T19:00:00 10.79025 83.47899
2025-05-04T20:00:00 10.51025 82.87333
2025-05-04T21:00:00 10.36025 82.22995
2025-05-04T22:00:00 10.11025 85.47797
2025-05-04T23:00:00 10.04025 84.65289
2025-05-05T00:00:00 9.890245 84.11264
2025-05-05T01:00:00 9.520246 85.11614
2025-05-05T02:00:00 9.210245 85.78708
2025-05-05T03:00:00 8.930245 86.4693
2025-05-05T04:00:00 8.560246 87.87652
2025-05-05T05:00:00 8.440246 89.08848
2025-05-05T06:00:00 8.540245 88.79049
2025-05-05T07:00:00 8.810246 89.67667
2025-05-05T08:00:00 9.210245 88.5483
2025-05-05T09:00:00 9.650246 87.26376
2025-05-05T10:00:00 10.13025 83.73896
2025-05-05T11:00:00 10.04025 83.84273
2025-05-05T12:00:00 10.31025 83.81918
2025-05-05T13:00:00 10.85025 80.89893
2025-05-05T14:00:00 11.16025 80.33643
2025-05-05T15:00:00 11.36025 78.14117
2025-05-05T16:00:00 10.89025 78.44248
2025-05-05T17:00:00 10.59025 79.37322
2025-05-05T18:00:00 10.08025 79.23947
2025-05-05T19:00:00 9.500245 80.92629
2025-05-05T20:00:00 9.240245 81.50841
2025-05-05T21:00:00 9.040245 82.44776
2025-05-05T22:00:00 8.450246 83.34843
2025-05-05T23:00:00 8.250245 83.43835
2025-05-06T00:00:00 7.880245 84.15111
2025-05-06T01:00:00 7.910245 83.68559
2025-05-06T02:00:00 8.150246 83.19246
2025-05-06T03:00:00 8.220245 83.31803
2025-05-06T04:00:00 8.170245 83.7779
2025-05-06T05:00:00 8.490246 83.06392
2025-05-06T06:00:00 9.120245 81.60455
2025-05-06T07:00:00 9.840245 78.00248
2025-05-06T08:00:00 10.39025 73.11038
2025-05-06T09:00:00 11.28025 67.98375
2025-05-06T10:00:00 11.93025 65.65911
2025-05-06T11:00:00 12.23025 61.7693
2025-05-06T12:00:00 12.64025 59.24239
2025-05-06T13:00:00 12.98025 57.9322
2025-05-06T14:00:00 13.01025 56.85175
2025-05-06T15:00:00 12.83025 56.80434
2025-05-06T16:00:00 12.88025 56.49841
2025-05-06T17:00:00 12.65025 57.52174
2025-05-06T18:00:00 12.04025 61.37717
2025-05-06T19:00:00 10.51025 67.53025
2025-05-06T20:00:00 9.550245 68.85736
2025-05-06T21:00:00 9.150246 70.09757
2025-05-06T22:00:00 9.090245 74.30786
2025-05-06T23:00:00 8.290245 75.31897
2025-05-07T00:00:00 8.150246 76.31039
2025-05-07T01:00:00 7.560246 78.33874
2025-05-07T02:00:00 6.730245 81.5453
2025-05-07T03:00:00 6.460245 83.31647
2025-05-07T04:00:00 6.420245 84.55819
2025-05-07T05:00:00 7.400245 82.10413
2025-05-07T06:00:00 8.800245 76.31764
2025-05-07T07:00:00 10.43025 69.33739
2025-05-07T08:00:00 12.05025 64.05792
2025-05-07T09:00:00 13.32025 58.50911
2025-05-07T10:00:00 15.20025 52.32055
2025-05-07T11:00:00 15.75025 50.00763
2025-05-07T12:00:00 15.80025 49.46523
2025-05-07T13:00:00 15.94025 49.22858
2025-05-07T14:00:00 15.57025 48.78068
2025-05-07T15:00:00 15.22025 51.34809
2025-05-07T16:00:00 14.69025 54.30249
2025-05-07T17:00:00 14.10025 57.89779
2025-05-07T18:00:00 13.11025 65.38185
2025-05-07T19:00:00 12.33025 67.17953
2025-05-07T20:00:00 11.38025 71.89271
2025-05-07T21:00:00 10.71025 75.3866
2025-05-07T22:00:00 10.46025 77.56564
2025-05-07T23:00:00 10.66025 75.84885
2025-05-08T00:00:00 10.50025 77.09107
2025-05-08T01:00:00 9.340245 82.31751
2025-05-08T02:00:00 9.800245 81.026
2025-05-08T03:00:00 9.380245 83.64332
2025-05-08T04:00:00 9.150246 85.54364
2025-05-08T05:00:00 8.620245 89.2897
2025-05-08T06:00:00 9.620245 85.30393
2025-05-08T07:00:00 10.95025 79.48308
2025-05-08T08:00:00 12.60025 73.72864
2025-05-08T09:00:00 13.90025 68.82529
2025-05-08T10:00:00 14.70025 65.60501
2025-05-08T11:00:00 15.98025 60.57167
2025-05-08T12:00:00 16.32025 59.10455
2025-05-08T13:00:00 16.01025 60.16718
2025-05-08T14:00:00 15.48025 61.11505
2025-05-08T15:00:00 13.99025 69.74129
2025-05-08T16:00:00 14.09025 71.87791
2025-05-08T17:00:00 14.11025 71.20242
2025-05-08T18:00:00 13.57025 70.99938
2025-05-08T19:00:00 12.39025 71.94158
2025-05-08T20:00:00 11.38025 72.54253
2025-05-08T21:00:00 10.19025 76.71886
2025-05-08T22:00:00 8.690246 83.90318
2025-05-08T23:00:00 8.070246 85.17925
2025-05-09T00:00:00 7.270245 87.74475
2025-05-09T01:00:00 6.990245 89.13926
2025-05-09T02:00:00 6.090245 91.01747
2025-05-09T03:00:00 5.770245 90.863
2025-05-09T04:00:00 5.820245 90.93121
2025-05-09T05:00:00 6.760245 90.37408
2025-05-09T06:00:00 8.830245 84.44661
2025-05-09T07:00:00 11.23025 75.53085
2025-05-09T08:00:00 12.96025 65.48351
2025-05-09T09:00:00 14.45025 59.74015
2025-05-09T10:00:00 15.69025 52.78391
2025-05-09T11:00:00 16.49025 49.41758
2025-05-09T12:00:00 17.90025 46.45362
2025-05-09T13:00:00 17.75025 43.89438
2025-05-09T14:00:00 17.92025 44.56103
2025-05-09T15:00:00 17.61025 45.44409
2025-05-09T16:00:00 17.47025 45.40382
2025-05-09T17:00:00 17.02025 48.3765
2025-05-09T18:00:00 15.39025 56.09844
2025-05-09T19:00:00 13.81025 59.33195
2025-05-09T20:00:00 12.26025 65.41497
2025-05-09T21:00:00 9.800245 75.17098
2025-05-09T22:00:00 7.890245 83.27416
2025-05-09T23:00:00 6.990245 85.76834
2025-05-10T00:00:00 5.810246 87.96346
2025-05-10T01:00:00 5.510245 89.94695
2025-05-10T02:00:00 4.590245 90.69833
2025-05-10T03:00:00 4.260245 90.60494
2025-05-10T04:00:00 3.940246 90.38242
2025-05-10T05:00:00 5.360245 85.75582
2025-05-10T06:00:00 8.830245 74.41612
2025-05-10T07:00:00 12.06025 61.33904
2025-05-10T08:00:00 14.58025 55.69139
2025-05-10T09:00:00 16.25025 54.56853
2025-05-10T10:00:00 17.84025 53.32694
2025-05-10T11:00:00 18.61025 50.59107
2025-05-10T12:00:00 20.31025 47.87626
2025-05-10T13:00:00 20.40025 45.23921
2025-05-10T14:00:00 21.47025 43.39755
2025-05-10T15:00:00 21.55025 42.71619
2025-05-10T16:00:00 21.51024 42.09687
2025-05-10T17:00:00 20.51024 44.74785
2025-05-10T18:00:00 18.47025 52.88007
2025-05-10T19:00:00 16.84025 51.8298
2025-05-10T20:00:00 15.36025 59.8428
2025-05-10T21:00:00 12.10025 73.83858
2025-05-10T22:00:00 10.58025 77.96139
2025-05-10T23:00:00 9.450245 83.47911
2025-05-11T00:00:00 8.350245 86.1655
2025-05-11T01:00:00 7.730245 88.03703
2025-05-11T02:00:00 7.220245 88.85015
2025-05-11T03:00:00 6.590245 89.85441
2025-05-11T04:00:00 6.400245 90.66055
2025-05-11T05:00:00 7.980245 85.58513
2025-05-11T06:00:00 11.45025 73.87074
2025-05-11T07:00:00 14.89025 60.13883
2025-05-11T08:00:00 17.19025 52.64435
2025-05-11T09:00:00 19.02025 50.18768
2025-05-11T10:00:00 20.29025 47.87072
2025-05-11T11:00:00 21.46025 45.8476
2025-05-11T12:00:00 22.48025 41.80293
2025-05-11T13:00:00 23.20025 38.7239
2025-05-11T14:00:00 24.03025 36.17818
2025-05-11T15:00:00 24.03025 34.43679
2025-05-11T16:00:00 24.09025 32.8549
2025-05-11T17:00:00 23.52025 35.63774
2025-05-11T18:00:00 20.53025 48.26316
2025-05-11T19:00:00 17.45025 52.57008
2025-05-11T20:00:00 14.00025 63.58581
2025-05-11T21:00:00 12.64025 69.5593
2025-05-11T22:00:00 12.20025 77.21508
2025-05-11T23:00:00 13.06025 71.62946
2025-05-12T00:00:00 12.56025 76.12535
2025-05-12T01:00:00 11.61025 82.28622
2025-05-12T02:00:00 10.52025 87.71045
2025-05-12T03:00:00 10.29025 93.03041
2025-05-12T04:00:00 9.840245 96.34276
2025-05-12T05:00:00 11.36025 92.65734
2025-05-12T06:00:00 13.58025 85.63409
2025-05-12T07:00:00 15.05025 79.66365
2025-05-12T08:00:00 16.53025 73.50118
2025-05-12T09:00:00 17.45025 67.41086
2025-05-12T10:00:00 18.09025 69.95238
2025-05-12T11:00:00 18.13025 68.95202
2025-05-12T12:00:00 18.86025 65.59479
2025-05-12T13:00:00 19.00025 63.828
2025-05-12T14:00:00 18.41025 65.93268
2025-05-12T15:00:00 17.62025 71.96835
2025-05-12T16:00:00 16.18025 77.59333
2025-05-12T17:00:00 14.84025 85.65587
2025-05-12T18:00:00 13.99025 90.27971
2025-05-12T19:00:00 12.97025 95.81227
2025-05-12T20:00:00 12.63025 96.69218
2025-05-12T21:00:00 12.30025 96.93929
2025-05-12T22:00:00 12.35025 94.77693
2025-05-12T23:00:00 11.78025 96.60224
2025-05-13T00:00:00 11.79025 96.15295
2025-05-13T01:00:00 11.43025 96.78503
2025-05-13T02:00:00 11.13025 96.97047
2025-05-13T03:00:00 10.97025 96.18846
2025-05-13T04:00:00 10.52025 96.30192
2025-05-13T05:00:00 11.03025 95.29112
2025-05-13T06:00:00 12.40025 91.24815
2025-05-13T07:00:00 13.92025 83.36396
2025-05-13T08:00:00 14.95025 80.02072
2025-05-13T09:00:00 16.38025 79.90702
2025-05-13T10:00:00 17.01024 77.41637
2025-05-13T11:00:00 18.58025 71.81586
2025-05-13T12:00:00 19.69025 64.23549
2025-05-13T13:00:00 19.93024 57.25993
2025-05-13T14:00:00 20.93024 53.35188
2025-05-13T15:00:00 21.46025 51.84335
2025-05-13T16:00:00 21.00025 50.89621
2025-05-13T17:00:00 19.92025 53.51613
2025-05-13T18:00:00 18.33025 63.08592
2025-05-13T19:00:00 15.18025 73.7001
2025-05-13T20:00:00 14.09025 75.00631
2025-05-13T21:00:00 12.91025 77.01719
2025-05-13T22:00:00 11.71025 82.5797
2025-05-13T23:00:00 10.44025 87.16614
2025-05-14T00:00:00 9.530245 87.85244
2025-05-14T01:00:00 8.870245 88.76028
2025-05-14T02:00:00 7.990245 89.72858
2025-05-14T03:00:00 7.880245 89.09835
2025-05-14T04:00:00 7.240245 87.68032
2025-05-14T05:00:00 8.800245 87.35603
2025-05-14T06:00:00 11.93025 76.06943
2025-05-14T07:00:00 15.02025 67.99046
2025-05-14T08:00:00 17.65025 56.56801
2025-05-14T09:00:00 19.54025 49.88756
2025-05-14T10:00:00 21.08025 43.07974
2025-05-14T11:00:00 21.94025 38.59857
2025-05-14T12:00:00 22.47025 37.08477
2025-05-14T13:00:00 23.03025 36.1129
2025-05-14T14:00:00 23.28025 35.56847
2025-05-14T15:00:00 24.00025 35.67822
2025-05-14T16:00:00 22.92025 36.15571
2025-05-14T17:00:00 22.40025 36.58189
2025-05-14T18:00:00 20.71025 41.80934
2025-05-14T19:00:00 19.38025 41.5973
2025-05-14T20:00:00 15.99025 55.18055
2025-05-14T21:00:00 13.67025 69.48586
2025-05-14T22:00:00 13.73025 62.47829
2025-05-14T23:00:00 12.16025 70.96188
2025-05-15T00:00:00 11.07025 77.55929
2025-05-15T01:00:00 10.30025 81.93958
2025-05-15T02:00:00 8.910245 86.10925
2025-05-15T03:00:00 8.470245 88.5387
2025-05-15T04:00:00 7.870246 88.54214
2025-05-15T05:00:00 8.730246 87.71166
2025-05-15T06:00:00 12.30025 80.99522
2025-05-15T07:00:00 15.62025 66.84119
2025-05-15T08:00:00 17.37025 58.88431
2025-05-15T09:00:00 19.25025 52.80143
2025-05-15T10:00:00 20.07025 49.19262
2025-05-15T11:00:00 20.69025 45.9114
2025-05-15T12:00:00 21.07025 41.76949
2025-05-15T13:00:00 21.48025 38.91925
2025-05-15T14:00:00 20.84025 36.05198
2025-05-15T15:00:00 20.91025 35.37247
2025-05-15T16:00:00 20.00025 35.57949
2025-05-15T17:00:00 18.99025 37.57731
2025-05-15T18:00:00 17.73025 36.70356
2025-05-15T19:00:00 16.39025 35.47359
2025-05-15T20:00:00 15.01025 36.17896
2025-05-15T21:00:00 13.43025 38.79767
2025-05-15T22:00:00 11.95025 43.81371
2025-05-15T23:00:00 10.40025 50.09147
2025-05-16T00:00:00 8.880245 57.8026
2025-05-16T01:00:00 7.310246 63.23196
2025-05-16T02:00:00 6.480245 69.27473
2025-05-16T03:00:00 5.840245 72.89073
2025-05-16T04:00:00 4.790245 77.02835
2025-05-16T05:00:00 7.040245 73.2869
2025-05-16T06:00:00 10.40025 59.76419
2025-05-16T07:00:00 13.49025 48.66961
2025-05-16T08:00:00 15.14025 42.91503
2025-05-16T09:00:00 16.51025 38.51914
2025-05-16T10:00:00 18.15025 34.38687
2025-05-16T11:00:00 18.57025 33.60906
2025-05-16T12:00:00 18.72025 32.93718
2025-05-16T13:00:00 18.98025 33.2035
2025-05-16T14:00:00 19.31025 33.37207
2025-05-16T15:00:00 19.05025 33.34317
2025-05-16T16:00:00 18.57025 33.77812
2025-05-16T17:00:00 18.15025 39.92501
2025-05-16T18:00:00 16.72025 52.11997
2025-05-16T19:00:00 15.43025 41.55082
2025-05-16T20:00:00 12.40025 55.73652
2025-05-16T21:00:00 11.29025 59.86412
2025-05-16T22:00:00 11.53025 57.63528
2025-05-16T23:00:00 10.86025 63.06001
2025-05-17T00:00:00 9.860246 66.8169
2025-05-17T01:00:00 8.660245 70.69287
2025-05-17T02:00:00 7.400245 76.77388
2025-05-17T03:00:00 5.930245 86.74063
2025-05-17T04:00:00 5.180245 91.45847
2025-05-17T05:00:00 7.230245 88.47958
2025-05-17T06:00:00 11.03025 73.23248
2025-05-17T07:00:00 13.98025 57.58543
2025-05-17T08:00:00 15.96025 50.62806
2025-05-17T09:00:00 18.02025 44.77655
2025-05-17T10:00:00 18.53025 41.03218
2025-05-17T11:00:00 19.26024 38.45955
2025-05-17T12:00:00 19.37025 37.21472
2025-05-17T13:00:00 19.54025 36.84743
2025-05-17T14:00:00 19.46025 37.63622
2025-05-17T15:00:00 19.26024 39.4151
2025-05-17T16:00:00 18.61025 43.80705
2025-05-17T17:00:00 18.14025 46.90985
2025-05-17T18:00:00 16.95025 50.62138
2025-05-17T19:00:00 14.66025 61.54754
2025-05-17T20:00:00 13.02025 67.37685
2025-05-17T21:00:00 12.08025 70.21507
2025-05-17T22:00:00 11.34025 74.36184
2025-05-17T23:00:00 10.75025 77.66706
2025-05-18T00:00:00 10.54025 75.82777
2025-05-18T01:00:00 10.69025 74.34543
2025-05-18T02:00:00 10.26025 76.25333
2025-05-18T03:00:00 9.640245 78.02389
2025-05-18T04:00:00 8.540245 83.12848
2025-05-18T05:00:00 8.860246 85.03754
2025-05-18T06:00:00 11.52025 75.94647
2025-05-18T07:00:00 14.22025 63.20118
2025-05-18T08:00:00 16.44025 54.76944
2025-05-18T09:00:00 17.90025 48.52328
2025-05-18T10:00:00 18.73025 46.75373
2025-05-18T11:00:00 19.51024 43.16255
2025-05-18T12:00:00 20.07025 41.16609
2025-05-18T13:00:00 20.97025 39.23006
2025-05-18T14:00:00 21.31025 36.2397
2025-05-18T15:00:00 21.48025 35.53886
2025-05-18T16:00:00 21.36025 35.23217
2025-05-18T17:00:00 21.06025 35.16923
2025-05-18T18:00:00 19.54025 50.4667
2025-05-18T19:00:00 17.87025 37.27264
2025-05-18T20:00:00 15.07025 54.40455
2025-05-18T21:00:00 12.38025 65.03423
2025-05-18T22:00:00 10.40025 73.41843
2025-05-18T23:00:00 9.580245 79.76808
2025-05-19T00:00:00 8.650246 83.83978
2025-05-19T01:00:00 8.420245 85.93447
2025-05-19T02:00:00 7.960245 87.99901
2025-05-19T03:00:00 6.700245 90.62224
2025-05-19T04:00:00 6.610245 91.95562
2025-05-19T05:00:00 8.660245 86.97971
2025-05-19T06:00:00 11.55025 76.47513
2025-05-19T07:00:00 14.96025 65.1729
2025-05-19T08:00:00 16.94025 57.86522
2025-05-19T09:00:00 19.48025 53.1129
2025-05-19T10:00:00 21.08025 50.27315
2025-05-19T11:00:00 22.09025 46.96157
2025-05-19T12:00:00 22.59025 43.80388
2025-05-19T13:00:00 23.43024 41.3978
2025-05-19T14:00:00 24.09025 38.48082
2025-05-19T15:00:00 24.47025 37.02748
2025-05-19T16:00:00 24.18024 37.39938
2025-05-19T17:00:00 23.47025 41.10278
2025-05-19T18:00:00 21.18024 54.42101
2025-05-19T19:00:00 20.09025 48.83254
2025-05-19T20:00:00 18.80025 54.27554
2025-05-19T21:00:00 16.78025 64.22533
2025-05-19T22:00:00 16.04025 72.34418
2025-05-19T23:00:00 16.16025 71.07432
2025-05-20T00:00:00 15.88025 71.64067
2025-05-20T01:00:00 14.91025 78.27596
2025-05-20T02:00:00 14.31025 85.76947
2025-05-20T03:00:00 13.91025 88.38325
2025-05-20T04:00:00 13.48025 92.53915
2025-05-20T05:00:00 13.77025 95.02545
2025-05-20T06:00:00 14.83025 90.75778
2025-05-20T07:00:00 15.78025 85.97985
2025-05-20T08:00:00 16.89025 81.03238
2025-05-20T09:00:00 18.02025 77.72426
2025-05-20T10:00:00 19.56025 66.17889
2025-05-20T11:00:00 19.90025 64.57822
2025-05-20T12:00:00 20.43024 62.73235
2025-05-20T13:00:00 20.07025 61.4643
2025-05-20T14:00:00 20.03025 61.86183
2025-05-20T15:00:00 19.54025 63.23553
2025-05-20T16:00:00 19.06025 67.21313
2025-05-20T17:00:00 18.23025 73.46484
2025-05-20T18:00:00 17.14025 78.51007
2025-05-20T19:00:00 16.78025 80.54177
2025-05-20T20:00:00 16.08025 85.3388
2025-05-20T21:00:00 15.10025 91.85075
2025-05-20T22:00:00 14.15025 96.35624
2025-05-20T23:00:00 14.04025 96.92207
2025-05-21T00:00:00 13.82025 96.85288
2025-05-21T01:00:00 13.39025 96.71404
2025-05-21T02:00:00 13.27025 97.41323
2025-05-21T03:00:00 12.95025 98.05001
2025-05-21T04:00:00 12.78025 98.04688
2025-05-21T05:00:00 13.53025 96.5275
2025-05-21T06:00:00 14.91025 93.41204
2025-05-21T07:00:00 16.18025 88.75284
2025-05-21T08:00:00 17.40025 85.86567
2025-05-21T09:00:00 18.78025 81.28095
2025-05-21T10:00:00 19.28025 76.12387
2025-05-21T11:00:00 19.88025 70.20776
2025-05-21T12:00:00 20.54025 64.54925
2025-05-21T13:00:00 20.58025 60.97839
2025-05-21T14:00:00 20.10025 60.98634
2025-05-21T15:00:00 19.33025 65.73949
2025-05-21T16:00:00 18.47025 68.97482
2025-05-21T17:00:00 17.09025 70.87579
2025-05-21T18:00:00 15.64025 79.11803
2025-05-21T19:00:00 14.13025 85.75028
2025-05-21T20:00:00 13.46025 84.59829
2025-05-21T21:00:00 12.40025 91.12638
2025-05-21T22:00:00 12.07025 90.73735
2025-05-21T23:00:00 11.70025 91.99729
2025-05-22T00:00:00 11.34025 94.73118
2025-05-22T01:00:00 11.23025 95.4274
2025-05-22T02:00:00 11.31025 95.68666
2025-05-22T03:00:00 11.37025 94.73257
2025-05-22T04:00:00 11.53025 94.42337
2025-05-22T05:00:00 11.59025 94.61601
2025-05-22T06:00:00 11.95025 87.31866
2025-05-22T07:00:00 12.01025 89.0443
2025-05-22T08:00:00 12.27025 86.53212
2025-05-22T09:00:00 12.50025 86.55605
2025-05-22T10:00:00 13.05025 86.67071
2025-05-22T11:00:00 13.30025 83.79087
2025-05-22T12:00:00 14.18025 83.67378
2025-05-22T13:00:00 14.49025 81.2441
2025-05-22T14:00:00 15.20025 74.74732
2025-05-22T15:00:00 15.67025 68.40309
2025-05-22T16:00:00 15.82025 63.1437
2025-05-22T17:00:00 15.63025 61.31861
2025-05-22T18:00:00 14.65025 62.05486
2025-05-22T19:00:00 13.82025 63.10688
2025-05-22T20:00:00 12.86025 66.6023
2025-05-22T21:00:00 11.91025 71.35375
2025-05-22T22:00:00 10.22025 79.92078
2025-05-22T23:00:00 9.930245 80.32001
2025-05-23T00:00:00 9.030245 84.52983
2025-05-23T01:00:00 8.660245 87.28108
2025-05-23T02:00:00 8.570246 88.30386
2025-05-23T03:00:00 8.510245 88.66503
2025-05-23T04:00:00 8.070246 91.42774
2025-05-23T05:00:00 8.920245 90.55375
2025-05-23T06:00:00 10.57025 86.52837
2025-05-23T07:00:00 11.90025 75.90807
2025-05-23T08:00:00 12.89025 67.62776
2025-05-23T09:00:00 13.73025 60.14201
2025-05-23T10:00:00 14.15025 60.07984
2025-05-23T11:00:00 15.20025 57.06576
2025-05-23T12:00:00 15.96025 52.96735
2025-05-23T13:00:00 16.73025 47.45996
2025-05-23T14:00:00 16.57025 44.20063
2025-05-23T15:00:00 17.39025 40.18197
2025-05-23T16:00:00 16.96025 38.46043
2025-05-23T17:00:00 16.54025 38.63863
2025-05-23T18:00:00 15.12025 45.78253
2025-05-23T19:00:00 12.84025 51.813
2025-05-23T20:00:00 11.42025 55.82972
2025-05-23T21:00:00 9.290245 63.94389
2025-05-23T22:00:00 8.410246 62.86553
2025-05-23T23:00:00 6.220245 75.47475
2025-05-24T00:00:00 7.480245 67.47556
2025-05-24T01:00:00 6.980245 70.54189
2025-05-24T02:00:00 7.080246 72.40855
2025-05-24T03:00:00 6.470245 76.00909
2025-05-24T04:00:00 6.340245 78.13458
2025-05-24T05:00:00 6.170245 85.24758
2025-05-24T06:00:00 9.180245 73.28764
2025-05-24T07:00:00 11.94025 60.15598
2025-05-24T08:00:00 13.79025 50.19654
2025-05-24T09:00:00 15.68025 44.28476
2025-05-24T10:00:00 16.08025 40.68542
2025-05-24T11:00:00 16.92025 39.78733
2025-05-24T12:00:00 18.38025 38.09231
2025-05-24T13:00:00 18.33025 37.3029
2025-05-24T14:00:00 19.39025 37.2206
2025-05-24T15:00:00 19.42025 37.02025
2025-05-24T16:00:00 18.21025 39.74612
2025-05-24T17:00:00 16.94025 43.32191
2025-05-24T18:00:00 15.74025 45.63904
2025-05-24T19:00:00 14.44025 54.73008
2025-05-24T20:00:00 13.28025 67.80512
2025-05-24T21:00:00 12.96025 70.68417
2025-05-24T22:00:00 13.04025 72.3636
2025-05-24T23:00:00 13.04025 73.50829
2025-05-25T00:00:00 13.07025 75.64496
2025-05-25T01:00:00 12.88025 78.16991
2025-05-25T02:00:00 12.87025 79.12693
2025-05-25T03:00:00 12.76025 79.91749
2025-05-25T04:00:00 12.68025 81.15824
2025-05-25T05:00:00 12.88025 81.18607
2025-05-25T06:00:00 13.80025 79.74749
2025-05-25T07:00:00 14.55025 78.37743
2025-05-25T08:00:00 15.31025 77.04518
2025-05-25T09:00:00 16.82025 73.65049
2025-05-25T10:00:00 18.85025 64.55962
2025-05-25T11:00:00 20.19025 59.49447
2025-05-25T12:00:00 20.55025 57.4525
2025-05-25T13:00:00 20.82025 53.78759
2025-05-25T14:00:00 20.97025 52.47936
2025-05-25T15:00:00 20.53025 56.84095
2025-05-25T16:00:00 20.15025 56.63231
2025-05-25T17:00:00 19.66025 58.54276
2025-05-25T18:00:00 18.71025 61.67725
2025-05-25T19:00:00 17.32025 66.44634
2025-05-25T20:00:00 16.71025 69.67936
2025-05-25T21:00:00 15.90025 74.4217
2025-05-25T22:00:00 15.80025 76.35959
2025-05-25T23:00:00 15.28025 79.5913
2025-05-26T00:00:00 14.77025 83.63377
2025-05-26T01:00:00 14.38025 86.97696
2025-05-26T02:00:00 14.38025 89.12729
2025-05-26T03:00:00 14.27025 90.4793
2025-05-26T04:00:00 13.92025 92.50427
2025-05-26T05:00:00 14.07025 93.18456
2025-05-26T06:00:00 14.09025 90.5854
2025-05-26T07:00:00 14.59025 85.29007
2025-05-26T08:00:00 15.04025 81.42643
2025-05-26T09:00:00 15.46025 76.9156
2025-05-26T10:00:00 15.63025 76.94298
2025-05-26T11:00:00 15.97025 69.81122
2025-05-26T12:00:00 16.55025 63.78481
2025-05-26T13:00:00 17.81025 58.08404
2025-05-26T14:00:00 18.01024 53.26321
2025-05-26T15:00:00 18.60025 50.14085
2025-05-26T16:00:00 18.44025 47.8116
2025-05-26T17:00:00 17.71025 49.58671
2025-05-26T18:00:00 16.93024 54.29994
2025-05-26T19:00:00 14.92025 64.80943
2025-05-26T20:00:00 12.97025 74.04863
2025-05-26T21:00:00 11.80025 80.26585
2025-05-26T22:00:00 12.54025 74.98804
2025-05-26T23:00:00 11.41025 81.81211
2025-05-27T00:00:00 11.05025 85.41046
2025-05-27T01:00:00 10.75025 87.43539
2025-05-27T02:00:00 10.88025 87.74587
2025-05-27T03:00:00 10.85025 89.30434
2025-05-27T04:00:00 10.52025 90.80351
2025-05-27T05:00:00 11.61025 87.81678
2025-05-27T06:00:00 12.95025 82.46334
2025-05-27T07:00:00 14.89025 72.90885
2025-05-27T08:00:00 16.81025 63.03193
2025-05-27T09:00:00 18.63025 53.39193
2025-05-27T10:00:00 18.67025 49.61424
2025-05-27T11:00:00 19.13025 49.70717
2025-05-27T12:00:00 18.97025 50.62045
2025-05-27T13:00:00 19.32025 51.02671
2025-05-27T14:00:00 19.86025 51.45018
2025-05-27T15:00:00 20.65025 49.11916
2025-05-27T16:00:00 20.06025 50.8823
2025-05-27T17:00:00 19.67025 51.53819
2025-05-27T18:00:00 18.71025 56.95305
2025-05-27T19:00:00 16.79025 66.33208
2025-05-27T20:00:00 15.28025 70.99876
2025-05-27T21:00:00 14.73025 74.06556
2025-05-27T22:00:00 14.73025 75.87698
2025-05-27T23:00:00 14.97025 75.51206
2025-05-28T00:00:00 14.60025 76.93044
2025-05-28T01:00:00 14.57025 75.19079
2025-05-28T02:00:00 14.70025 75.21325
2025-05-28T03:00:00 14.95025 75.00465
2025-05-28T04:00:00 14.60025 77.29186
2025-05-28T05:00:00 15.46025 75.84756
2025-05-28T06:00:00 16.49025 73.98316
2025-05-28T07:00:00 17.53025 69.8422
2025-05-28T08:00:00 17.65025 68.62727
2025-05-28T09:00:00 17.22025 67.99403
2025-05-28T10:00:00 16.44025 76.11111
2025-05-28T11:00:00 16.26025 79.15691
2025-05-28T12:00:00 16.06025 84.94685
2025-05-28T13:00:00 15.68025 87.38797
2025-05-28T14:00:00 15.60025 85.3993
2025-05-28T15:00:00 15.65025 85.12496
2025-05-28T16:00:00 15.76025 85.97778
2025-05-28T17:00:00 15.67025 85.74343
2025-05-28T18:00:00 15.49025 86.5156
2025-05-28T19:00:00 15.28025 88.61919
2025-05-28T20:00:00 15.08025 90.36069
2025-05-28T21:00:00 14.53025 92.54007
2025-05-28T22:00:00 14.25025 91.01549
2025-05-28T23:00:00 14.04025 93.30551
2025-05-29T00:00:00 13.66025 93.96377
2025-05-29T01:00:00 13.17025 96.13584
2025-05-29T02:00:00 12.80025 97.40229
2025-05-29T03:00:00 12.41025 97.91021
2025-05-29T04:00:00 12.16025 98.36057
2025-05-29T05:00:00 14.10025 97.24092
2025-05-29T06:00:00 14.78025 95.18964
2025-05-29T07:00:00 15.98025 86.50761
2025-05-29T08:00:00 16.59025 81.09837
2025-05-29T09:00:00 18.22025 69.28937
2025-05-29T10:00:00 19.16025 67.01333
2025-05-29T11:00:00 20.85025 57.6792
2025-05-29T12:00:00 21.33025 52.57438
2025-05-29T13:00:00 21.97025 50.31149
2025-05-29T14:00:00 22.69025 47.63371
2025-05-29T15:00:00 23.51024 46.47981
2025-05-29T16:00:00 23.03025 46.40908
2025-05-29T17:00:00 22.81025 47.22353
2025-05-29T18:00:00 21.04025 54.3126
2025-05-29T19:00:00 18.19025 67.83426
2025-05-29T20:00:00 17.12025 70.31934
2025-05-29T21:00:00 14.75025 79.24944
2025-05-29T22:00:00 13.70025 84.40053
2025-05-29T23:00:00 12.39025 91.49143
2025-05-30T00:00:00 11.46025 93.72649
2025-05-30T01:00:00 10.43025 97.14559
2025-05-30T02:00:00 10.28025 97.53479
2025-05-30T03:00:00 9.810246 98.516
2025-05-30T04:00:00 10.13025 98.72126
2025-05-30T05:00:00 12.01025 94.00633
2025-05-30T06:00:00 15.20025 82.69637
2025-05-30T07:00:00 18.36025 71.82211
2025-05-30T08:00:00 21.25025 62.30477
2025-05-30T09:00:00 22.88025 56.86402
2025-05-30T10:00:00 24.49025 49.79559
2025-05-30T11:00:00 25.63025 46.32619
2025-05-30T12:00:00 27.13025 44.77288
2025-05-30T13:00:00 27.60025 43.26806
2025-05-30T14:00:00 28.37025 39.92581
2025-05-30T15:00:00 28.79025 38.60364
2025-05-30T16:00:00 28.50025 38.14475
2025-05-30T17:00:00 28.12025 38.26447
2025-05-30T18:00:00 26.12025 51.80727
2025-05-30T19:00:00 23.61025 52.96072
2025-05-30T20:00:00 20.08025 62.9006
2025-05-30T21:00:00 17.29025 74.90868
2025-05-30T22:00:00 15.59025 82.63623
2025-05-30T23:00:00 14.15025 86.95436
2025-05-31T00:00:00 14.24025 87.2514
2025-05-31T01:00:00 13.44025 88.2825
2025-05-31T02:00:00 12.80025 90.24876
2025-05-31T03:00:00 12.29025 91.66801
2025-05-31T04:00:00 12.54025 91.50173
2025-05-31T05:00:00 14.42025 87.67304
2025-05-31T06:00:00 17.87025 75.99515
2025-05-31T07:00:00 21.10025 69.13532
2025-05-31T08:00:00 24.05025 61.53913
2025-05-31T09:00:00 26.35025 56.68795
2025-05-31T10:00:00 28.08025 50.57647
2025-05-31T11:00:00 29.43024 46.89862
2025-05-31T12:00:00 29.82025 42.68209
2025-05-31T13:00:00 30.64025 37.40926
2025-05-31T14:00:00 31.27025 34.76836
2025-05-31T15:00:00 30.67025 33.00288
2025-05-31T16:00:00 29.98025 34.81941
2025-05-31T17:00:00 28.37025 46.64539
2025-05-31T18:00:00 26.01024 54.58056
2025-05-31T19:00:00 23.81025 51.81226
2025-05-31T20:00:00 22.34025 56.1754
2025-05-31T21:00:00 22.34025 57.14053
2025-05-31T22:00:00 20.06025 73.64146
2025-05-31T23:00:00 19.20025 83.71429
2025-06-01T00:00:00 18.22025 87.39406
2025-06-01T01:00:00 17.61025 91.00541
2025-06-01T02:00:00 17.82025 89.45845
2025-06-01T03:00:00 17.31025 90.28674
2025-06-01T04:00:00 17.05025 91.02725
2025-06-01T05:00:00 17.87025 88.60576
2025-06-01T06:00:00 19.91025 80.75243
2025-06-01T07:00:00 21.91025 74.19285
2025-06-01T08:00:00 23.58025 67.5686
2025-06-01T09:00:00 25.44025 62.75831
2025-06-01T10:00:00 27.23025 57.62269
2025-06-01T11:00:00 27.78025 55.50749
2025-06-01T12:00:00 28.75025 51.88578
2025-06-01T13:00:00 27.41025 52.90819
2025-06-01T14:00:00 27.87025 51.39892
2025-06-01T15:00:00 27.72025 50.61227
2025-06-01T16:00:00 26.21025 57.3795
2025-06-01T17:00:00 24.56025 64.87125
2025-06-01T18:00:00 22.80025 72.85174
2025-06-01T19:00:00 20.77025 83.51889
2025-06-01T20:00:00 19.26024 88.38026
2025-06-01T21:00:00 18.36025 90.53293
2025-06-01T22:00:00 18.04025 89.18914
2025-06-01T23:00:00 17.64025 90.02074
2025-06-02T00:00:00 17.76024 90.20268
2025-06-02T01:00:00 17.51024 92.11382
2025-06-02T02:00:00 17.05025 94.36088
2025-06-02T03:00:00 16.86025 96.00053
2025-06-02T04:00:00 16.84025 96.92624
2025-06-02T05:00:00 16.89025 97.17558
2025-06-02T06:00:00 17.05025 99.05604
2025-06-02T07:00:00 17.36025 98.30477
2025-06-02T08:00:00 17.72025 96.5148
2025-06-02T09:00:00 18.07025 93.2085
2025-06-02T10:00:00 19.53025 86.02198
2025-06-02T11:00:00 20.31025 83.30838
2025-06-02T12:00:00 20.13025 82.13061
2025-06-02T13:00:00 18.94025 85.36207
2025-06-02T14:00:00 18.59025 86.20525
2025-06-02T15:00:00 18.78025 86.49973
2025-06-02T16:00:00 18.62025 86.20818
2025-06-02T17:00:00 18.42025 85.63762
2025-06-02T18:00:00 17.83025 87.24663
2025-06-02T19:00:00 17.25025 90.45689
2025-06-02T20:00:00 16.94025 91.66706
2025-06-02T21:00:00 16.49025 95.19103
2025-06-02T22:00:00 16.16025 96.78628
2025-06-02T23:00:00 16.15025 95.54762
2025-06-03T00:00:00 16.25025 94.69299
2025-06-03T01:00:00 16.28025 94.63319
2025-06-03T02:00:00 15.80025 95.53579
2025-06-03T03:00:00 15.37025 96.76688
2025-06-03T04:00:00 16.00025 95.72766
2025-06-03T05:00:00 16.08025 95.97736
2025-06-03T06:00:00 16.68024 94.52757
2025-06-03T07:00:00 17.91025 90.5603
2025-06-03T08:00:00 19.27025 85.55927
2025-06-03T09:00:00 20.35025 79.73566
2025-06-03T10:00:00 21.14025 75.5451
2025-06-03T11:00:00 21.78025 73.41909
2025-06-03T12:00:00 22.65025 71.27119
2025-06-03T13:00:00 21.90025 72.41721
2025-06-03T14:00:00 20.67025 74.79522
2025-06-03T15:00:00 20.70025 74.51294
2025-06-03T16:00:00 20.36025 76.54021
2025-06-03T17:00:00 20.66025 75.22634
2025-06-03T18:00:00 20.57025 73.44544
2025-06-03T19:00:00 19.35025 81.40643
2025-06-03T20:00:00 16.83025 93.20705
2025-06-03T21:00:00 17.04025 93.21754
2025-06-03T22:00:00 16.47025 95.98908
2025-06-03T23:00:00 16.52025 96.11389
2025-06-04T00:00:00 16.23025 96.04368
2025-06-04T01:00:00 16.21025 96.22872
2025-06-04T02:00:00 15.63025 97.65212
2025-06-04T03:00:00 15.91025 97.2178
2025-06-04T04:00:00 16.02025 97.15756
2025-06-04T05:00:00 16.21025 97.03675
2025-06-04T06:00:00 16.56025 97.54321
2025-06-04T07:00:00 17.58025 95.22908
2025-06-04T08:00:00 18.40025 93.16522
2025-06-04T09:00:00 19.32025 89.45667
2025-06-04T10:00:00 19.66025 83.97984
2025-06-04T11:00:00 20.70025 74.46516
2025-06-04T12:00:00 21.53025 70.47566
2025-06-04T13:00:00 21.64025 70.99507
2025-06-04T14:00:00 20.04025 75.80476
2025-06-04T15:00:00 18.47025 84.82219
2025-06-04T16:00:00 18.03025 90.16403
2025-06-04T17:00:00 17.65025 89.61799
2025-06-04T18:00:00 17.17025 92.39037
2025-06-04T19:00:00 16.88025 93.38941
2025-06-04T20:00:00 16.61025 94.10015
2025-06-04T21:00:00 16.15025 93.2931
2025-06-04T22:00:00 15.87025 91.24431
2025-06-04T23:00:00 15.63025 91.05053
2025-06-05T00:00:00 14.95025 92.50388
2025-06-05T01:00:00 14.89025 90.76202
2025-06-05T02:00:00 14.86025 89.10835
2025-06-05T03:00:00 14.66025 89.32647
2025-06-05T04:00:00 14.51025 90.378
2025-06-05T05:00:00 14.84025 89.39975
2025-06-05T06:00:00 15.65025 87.04282
2025-06-05T07:00:00 16.82025 80.70555
2025-06-05T08:00:00 17.64025 72.97484
2025-06-05T09:00:00 18.11025 68.35819
2025-06-05T10:00:00 18.86025 67.48181
2025-06-05T11:00:00 19.71025 66.38461
2025-06-05T12:00:00 19.26024 68.23261
2025-06-05T13:00:00 18.88025 70.52095
2025-06-05T14:00:00 19.56025 69.82681
2025-06-05T15:00:00 20.47025 66.06908
2025-06-05T16:00:00 20.56025 64.76486
2025-06-05T17:00:00 20.30025 67.2501
2025-06-05T18:00:00 19.67025 70.90193
2025-06-05T19:00:00 18.22025 79.74889
2025-06-05T20:00:00 17.74025 80.09733
2025-06-05T21:00:00 17.33025 82.52842
2025-06-05T22:00:00 17.17025 88.26273
2025-06-05T23:00:00 17.18024 88.89227
2025-06-06T00:00:00 17.41025 86.47925
2025-06-06T01:00:00 17.67025 81.87692
2025-06-06T02:00:00 18.05025 76.87249
2025-06-06T03:00:00 18.26024 75.36711
2025-06-06T04:00:00 18.26024 77.10599
2025-06-06T05:00:00 18.50025 77.59546
2025-06-06T06:00:00 19.67025 73.52616
2025-06-06T07:00:00 20.45025 70.72736
2025-06-06T08:00:00 20.71025 70.59372
2025-06-06T09:00:00 20.17025 77.15135
2025-06-06T10:00:00 20.79025 70.8826
2025-06-06T11:00:00 21.33025 68.42621
2025-06-06T12:00:00 22.80025 63.83591
2025-06-06T13:00:00 23.46025 59.34237
2025-06-06T14:00:00 23.41025 59.36889
2025-06-06T15:00:00 22.71025 63.28401
2025-06-06T16:00:00 21.82025 65.3743
2025-06-06T17:00:00 20.46025 71.23399
2025-06-06T18:00:00 18.84025 82.50002
2025-06-06T19:00:00 17.89025 90.6169
2025-06-06T20:00:00 17.51024 92.17284
2025-06-06T21:00:00 17.44025 92.93942
2025-06-06T22:00:00 17.72025 92.00807
2025-06-06T23:00:00 17.26024 93.58744
2025-06-07T00:00:00 17.02025 94.05764
2025-06-07T01:00:00 16.90025 93.75097
2025-06-07T02:00:00 16.87025 93.26898
2025-06-07T03:00:00 16.75025 92.66474
2025-06-07T04:00:00 16.43025 92.58752
2025-06-07T05:00:00 16.79025 91.24517
2025-06-07T06:00:00 17.36025 88.84952
2025-06-07T07:00:00 17.22025 89.23994
2025-06-07T08:00:00 16.92025 88.98613
2025-06-07T09:00:00 17.14025 85.61706
2025-06-07T10:00:00 17.19025 80.0732
2025-06-07T11:00:00 16.30025 82.40004
2025-06-07T12:00:00 16.30025 84.08932
2025-06-07T13:00:00 17.04025 81.21133
2025-06-07T14:00:00 17.82025 75.73879
2025-06-07T15:00:00 18.19025 73.16957
2025-06-07T16:00:00 18.54025 71.24591
2025-06-07T17:00:00 18.58025 70.92716
2025-06-07T18:00:00 17.99025 73.22986
2025-06-07T19:00:00 17.04025 79.99994
2025-06-07T20:00:00 15.85025 85.76223
2025-06-07T21:00:00 15.67025 86.1941
2025-06-07T22:00:00 16.41025 85.93217
2025-06-07T23:00:00 16.21025 87.20966
2025-06-08T00:00:00 16.53025 82.15967
2025-06-08T01:00:00 16.71025 79.17055
2025-06-08T02:00:00 16.61025 76.44115
2025-06-08T03:00:00 16.37025 74.10935
2025-06-08T04:00:00 16.08025 74.05817
2025-06-08T05:00:00 16.12025 75.15571
2025-06-08T06:00:00 16.32025 72.10761
2025-06-08T07:00:00 16.54025 70.2054
2025-06-08T08:00:00 17.02025 65.0173
2025-06-08T09:00:00 16.70025 65.03347
2025-06-08T10:00:00 15.96025 66.73424
2025-06-08T11:00:00 16.32025 67.217
2025-06-08T12:00:00 16.90025 63.82171
2025-06-08T13:00:00 17.71025 61.07106
2025-06-08T14:00:00 18.54025 56.87165
2025-06-08T15:00:00 19.46025 53.28702
2025-06-08T16:00:00 19.42025 51.96102
2025-06-08T17:00:00 18.75025 52.52513
2025-06-08T18:00:00 17.74025 55.71414
2025-06-08T19:00:00 15.74025 64.51162
2025-06-08T20:00:00 13.34025 74.9254
2025-06-08T21:00:00 12.11025 80.74877
2025-06-08T22:00:00 11.80025 80.43003
2025-06-08T23:00:00 9.920245 89.83363
2025-06-09T00:00:00 8.960245 93.77896
2025-06-09T01:00:00 8.960245 93.26698
2025-06-09T02:00:00 9.230246 91.8908
2025-06-09T03:00:00 8.550245 93.56261
2025-06-09T04:00:00 7.840245 96.00282
2025-06-09T05:00:00 9.710245 93.12167
2025-06-09T06:00:00 12.08025 84.038
2025-06-09T07:00:00 14.73025 73.07575
2025-06-09T08:00:00 16.93024 63.35773
2025-06-09T09:00:00 18.53025 55.72954
2025-06-09T10:00:00 19.46025 51.76118
2025-06-09T11:00:00 21.01024 48.98634
2025-06-09T12:00:00 21.83025 46.60624
2025-06-09T13:00:00 22.36025 44.7543
2025-06-09T14:00:00 22.86025 42.28156
2025-06-09T15:00:00 22.68024 41.40813
2025-06-09T16:00:00 22.39025 42.00487
2025-06-09T17:00:00 21.73025 44.81897
2025-06-09T18:00:00 19.88025 52.33057
2025-06-09T19:00:00 16.17025 67.86585
2025-06-09T20:00:00 16.04025 64.97371
2025-06-09T21:00:00 14.34025 70.71828
2025-06-09T22:00:00 13.77025 74.74778
2025-06-09T23:00:00 11.93025 80.44892
2025-06-10T00:00:00 11.02025 86.10691
2025-06-10T01:00:00 10.31025 87.03385
2025-06-10T02:00:00 9.340245 89.96904
2025-06-10T03:00:00 8.380245 93.23143
2025-06-10T04:00:00 8.460245 93.87917
2025-06-10T05:00:00 10.51025 92.10413
2025-06-10T06:00:00 13.35025 84.47249
2025-06-10T07:00:00 16.25025 73.5486
2025-06-10T08:00:00 19.04025 63.96385
2025-06-10T09:00:00 21.15025 56.54558
2025-06-10T10:00:00 23.23025 51.2871
2025-06-10T11:00:00 23.86025 45.32427
2025-06-10T12:00:00 25.09025 42.14739
2025-06-10T13:00:00 25.18024 40.06092
2025-06-10T14:00:00 25.49025 39.4044
2025-06-10T15:00:00 25.43024 39.36103
2025-06-10T16:00:00 24.89025 42.28795
2025-06-10T17:00:00 24.15025 45.95037
2025-06-10T18:00:00 22.71025 52.79644
2025-06-10T19:00:00 19.65025 63.67893
2025-06-10T20:00:00 16.84025 73.41072
2025-06-10T21:00:00 15.48025 80.04319
2025-06-10T22:00:00 14.43025 83.81509
2025-06-10T23:00:00 14.13025 84.45045
2025-06-11T00:00:00 13.38025 87.69166
2025-06-11T01:00:00 13.61025 84.50274
2025-06-11T02:00:00 13.90025 83.6399
2025-06-11T03:00:00 12.85025 87.05709
2025-06-11T04:00:00 11.83025 91.14642
2025-06-11T05:00:00 13.55025 89.23509
2025-06-11T06:00:00 16.38025 81.92552
2025-06-11T07:00:00 18.75025 72.60259
2025-06-11T08:00:00 21.28025 65.68381
2025-06-11T09:00:00 22.28025 61.65237
2025-06-11T10:00:00 23.66025 57.24088
2025-06-11T11:00:00 24.65025 54.09831
2025-06-11T12:00:00 25.49025 50.94611
2025-06-11T13:00:00 26.79025 49.24723
2025-06-11T14:00:00 26.71025 48.56281
2025-06-11T15:00:00 27.40025 48.02974
2025-06-11T16:00:00 26.61025 48.1606
2025-06-11T17:00:00 25.88025 49.77514
2025-06-11T18:00:00 24.25025 53.71669
2025-06-11T19:00:00 21.63025 62.02647
2025-06-11T20:00:00 19.09025 70.05539
2025-06-11T21:00:00 17.21025 77.1433
2025-06-11T22:00:00 16.24025 81.42498
2025-06-11T23:00:00 15.05025 83.94409
2025-06-12T00:00:00 14.93025 85.32709
2025-06-12T01:00:00 14.20025 87.01688
2025-06-12T02:00:00 13.48025 89.17005
2025-06-12T03:00:00 12.70025 91.75668
2025-06-12T04:00:00 12.69025 91.756
2025-06-12T05:00:00 14.94025 85.32818
2025-06-12T06:00:00 17.77025 74.54879
2025-06-12T07:00:00 20.62025 65.24464
2025-06-12T08:00:00 22.26024 59.59835
2025-06-12T09:00:00 24.76024 56.22772
2025-06-12T10:00:00 26.65025 54.0116
2025-06-12T11:00:00 27.45025 51.68528
2025-06-12T12:00:00 29.43024 48.90596
2025-06-12T13:00:00 30.46025 45.55779
2025-06-12T14:00:00 31.00025 42.89401
2025-06-12T15:00:00 30.83025 41.84769
2025-06-12T16:00:00 30.50025 43.36301
2025-06-12T17:00:00 29.93024 47.24057
2025-06-12T18:00:00 27.96025 55.51635
2025-06-12T19:00:00 25.90025 57.96569
2025-06-12T20:00:00 22.43024 69.70395
2025-06-12T21:00:00 20.60025 80.4834
2025-06-12T22:00:00 19.47025 82.52332
2025-06-12T23:00:00 19.24025 84.95796
2025-06-13T00:00:00 18.59025 87.14809
2025-06-13T01:00:00 17.72025 87.85622
2025-06-13T02:00:00 17.33025 88.10573
2025-06-13T03:00:00 16.99025 88.53304
2025-06-13T04:00:00 17.25025 87.81501
2025-06-13T05:00:00 18.54025 88.3211
2025-06-13T06:00:00 21.25025 76.33708
2025-06-13T07:00:00 23.85025 67.45113
2025-06-13T08:00:00 26.04025 61.09185
2025-06-13T09:00:00 27.88025 56.30683
2025-06-13T10:00:00 30.34025 49.73312
2025-06-13T11:00:00 31.09025 45.89927
2025-06-13T12:00:00 32.54025 42.74096
2025-06-13T13:00:00 33.57025 39.94595
2025-06-13T14:00:00 33.47025 38.11616
2025-06-13T15:00:00 33.73025 36.5495
2025-06-13T16:00:00 33.49025 38.31562
2025-06-13T17:00:00 32.76025 40.48821
2025-06-13T18:00:00 30.17025 60.68699
2025-06-13T19:00:00 27.77025 58.00477
2025-06-13T20:00:00 25.70025 65.2739
2025-06-13T21:00:00 23.44025 72.27564
2025-06-13T22:00:00 22.38025 76.9959
2025-06-13T23:00:00 21.63025 77.71564
2025-06-14T00:00:00 20.38025 82.26547
2025-06-14T01:00:00 19.57025 85.42621
2025-06-14T02:00:00 19.18024 85.3866
2025-06-14T03:00:00 18.71025 86.60374
2025-06-14T04:00:00 18.91025 86.01622
2025-06-14T05:00:00 19.99025 83.37775
2025-06-14T06:00:00 22.91025 73.93759
2025-06-14T07:00:00 25.63025 66.45792
2025-06-14T08:00:00 27.65025 58.48841
2025-06-14T09:00:00 29.04025 51.50259
2025-06-14T10:00:00 30.34025 46.42944
2025-06-14T11:00:00 32.02025 44.07767
2025-06-14T12:00:00 32.52025 41.14653
2025-06-14T13:00:00 32.59025 39.40247
2025-06-14T14:00:00 33.06025 37.73855
2025-06-14T15:00:00 33.23025 37.06953
2025-06-14T16:00:00 33.22025 36.57299
2025-06-14T17:00:00 32.41025 38.87942
2025-06-14T18:00:00 30.21025 50.17012
2025-06-14T19:00:00 27.91025 52.36571
2025-06-14T20:00:00 25.48025 62.01728
2025-06-14T21:00:00 24.19025 68.11901
2025-06-14T22:00:00 21.69025 80.57481
2025-06-14T23:00:00 20.79025 84.52931
2025-06-15T00:00:00 19.66025 88.63679
2025-06-15T01:00:00 19.69025 89.0325
2025-06-15T02:00:00 19.39025 91.2337
2025-06-15T03:00:00 19.38025 91.06027
2025-06-15T04:00:00 19.04025 92.14102
2025-06-15T05:00:00 20.36025 86.53804
2025-06-15T06:00:00 21.74025 80.58126
2025-06-15T07:00:00 21.82025 80.38882
2025-06-15T08:00:00 21.60025 84.3491
2025-06-15T09:00:00 23.11025 79.90458
2025-06-15T10:00:00 24.02025 76.75964
2025-06-15T11:00:00 25.32025 68.85397
2025-06-15T12:00:00 25.98025 62.95548
2025-06-15T13:00:00 26.10025 59.09075
2025-06-15T14:00:00 22.28025 74.44305
2025-06-15T15:00:00 20.98025 85.89037
2025-06-15T16:00:00 21.49025 80.29488
2025-06-15T17:00:00 20.50025 81.55183
2025-06-15T18:00:00 19.63025 83.65599
2025-06-15T19:00:00 18.62025 88.83638
2025-06-15T20:00:00 18.03025 89.47438
2025-06-15T21:00:00 17.63025 88.81414
2025-06-15T22:00:00 17.51024 86.71249
2025-06-15T23:00:00 17.03025 87.06022
2025-06-16T00:00:00 16.62025 88.27283
2025-06-16T01:00:00 16.35025 88.88225
2025-06-16T02:00:00 16.11025 90.20057
2025-06-16T03:00:00 15.99025 91.19299
2025-06-16T04:00:00 15.90025 92.3183
2025-06-16T05:00:00 16.17025 90.38069
2025-06-16T06:00:00 16.85025 84.64639
2025-06-16T07:00:00 17.59025 81.97314
2025-06-16T08:00:00 18.91025 76.16322
2025-06-16T09:00:00 19.77025 71.70817
2025-06-16T10:00:00 20.56025 69.88409
2025-06-16T11:00:00 21.42025 64.99323
2025-06-16T12:00:00 22.22025 62.32204
2025-06-16T13:00:00 22.48025 59.37945
2025-06-16T14:00:00 23.05025 57.05437
2025-06-16T15:00:00 23.55025 53.99411
2025-06-16T16:00:00 23.34025 51.89323
2025-06-16T17:00:00 22.64025 52.84783
2025-06-16T18:00:00 21.56025 55.64798
2025-06-16T19:00:00 19.74025 60.66
2025-06-16T20:00:00 17.31025 67.9222
2025-06-16T21:00:00 16.31025 74.09879
2025-06-16T22:00:00 15.22025 81.61241
2025-06-16T23:00:00 14.30025 85.20177
2025-06-17T00:00:00 13.48025 88.57991
2025-06-17T01:00:00 12.30025 92.28265
2025-06-17T02:00:00 12.01025 93.94361
2025-06-17T03:00:00 11.71025 93.99103
2025-06-17T04:00:00 11.79025 93.43112
2025-06-17T05:00:00 14.15025 88.11281
2025-06-17T06:00:00 16.97025 76.04758
2025-06-17T07:00:00 19.33025 67.40186
2025-06-17T08:00:00 21.48025 60.39335
2025-06-17T09:00:00 23.68024 53.15233
2025-06-17T10:00:00 24.44025 49.48941
2025-06-17T11:00:00 25.39025 46.01817
2025-06-17T12:00:00 26.24025 43.91901
2025-06-17T13:00:00 27.54025 42.30221
2025-06-17T14:00:00 27.40025 40.90034
2025-06-17T15:00:00 27.95025 41.24202
2025-06-17T16:00:00 27.32025 42.29652
2025-06-17T17:00:00 26.66025 44.3821
2025-06-17T18:00:00 25.01024 50.16233
2025-06-17T19:00:00 22.35025 57.40531
2025-06-17T20:00:00 19.66025 68.44762
2025-06-17T21:00:00 20.13025 66.12652
2025-06-17T22:00:00 18.64025 73.29749
2025-06-17T23:00:00 17.59025 78.62817
2025-06-18T00:00:00 15.98025 84.10759
2025-06-18T01:00:00 14.97025 86.46349
2025-06-18T02:00:00 14.40025 89.30529
2025-06-18T03:00:00 13.57025 92.36134
2025-06-18T04:00:00 13.20025 93.50735
2025-06-18T05:00:00 15.28025 89.43494
2025-06-18T06:00:00 18.10025 79.78386
2025-06-18T07:00:00 20.72025 69.32953
2025-06-18T08:00:00 22.78025 62.89284
2025-06-18T09:00:00 24.49025 57.25803
2025-06-18T10:00:00 25.78025 51.7193
2025-06-18T11:00:00 27.22025 48.35443
2025-06-18T12:00:00 27.67025 45.65358
2025-06-18T13:00:00 28.18024 43.5122
2025-06-18T14:00:00 28.58025 41.84983
2025-06-18T15:00:00 28.75025 41.51779
2025-06-18T16:00:00 28.48025 41.8766
2025-06-18T17:00:00 27.77025 43.23042
2025-06-18T18:00:00 26.05025 45.5384
2025-06-18T19:00:00 23.13025 60.23077
2025-06-18T20:00:00 19.44025 72.91591
2025-06-18T21:00:00 19.36025 71.02836
2025-06-18T22:00:00 19.00025 73.98431
2025-06-18T23:00:00 18.51024 76.49589
2025-06-19T00:00:00 17.95025 78.98889
2025-06-19T01:00:00 17.46025 81.90339
2025-06-19T02:00:00 16.65025 84.62429
2025-06-19T03:00:00 15.01025 89.6481
2025-06-19T04:00:00 14.82025 91.71308
2025-06-19T05:00:00 17.12025 86.95605
2025-06-19T06:00:00 19.87025 76.51272
2025-06-19T07:00:00 22.66025 64.50739
2025-06-19T08:00:00 24.39025 58.65053
2025-06-19T09:00:00 26.05025 54.87083
2025-06-19T10:00:00 27.47025 50.19271
2025-06-19T11:00:00 28.58025 46.88155
2025-06-19T12:00:00 29.40025 43.64889
2025-06-19T13:00:00 30.38025 42.39855
2025-06-19T14:00:00 30.15025 41.12903
2025-06-19T15:00:00 30.05025 41.95657
2025-06-19T16:00:00 29.62025 42.79221
2025-06-19T17:00:00 28.74025 44.66191
2025-06-19T18:00:00 27.18024 47.11115
2025-06-19T19:00:00 25.20025 50.80401
2025-06-19T20:00:00 23.30025 57.52531
2025-06-19T21:00:00 21.71025 63.80305
2025-06-19T22:00:00 20.87025 68.82272
2025-06-19T23:00:00 19.61025 74.04125
2025-06-20T00:00:00 18.47025 78.96154
2025-06-20T01:00:00 17.86025 80.63594
2025-06-20T02:00:00 17.49025 80.90133
2025-06-20T03:00:00 17.01024 81.68583
2025-06-20T04:00:00 16.43025 83.01185
2025-06-20T05:00:00 18.20025 78.30972
2025-06-20T06:00:00 20.29025 67.46745
2025-06-20T07:00:00 21.92025 61.48979
2025-06-20T08:00:00 23.46025 57.19202
2025-06-20T09:00:00 25.66025 53.97014
2025-06-20T10:00:00 26.54025 52.11589
2025-06-20T11:00:00 27.74025 49.21293
2025-06-20T12:00:00 28.74025 46.47586
2025-06-20T13:00:00 30.17025 44.13893
2025-06-20T14:00:00 29.90025 42.64916
2025-06-20T15:00:00 29.89025 41.93967
2025-06-20T16:00:00 29.51024 42.48768
2025-06-20T17:00:00 28.63025 43.86153
2025-06-20T18:00:00 27.04025 47.10397
2025-06-20T19:00:00 24.62025 52.97948
2025-06-20T20:00:00 21.89025 62.32829
2025-06-20T21:00:00 20.83025 65.33233
2025-06-20T22:00:00 19.00025 73.84007
2025-06-20T23:00:00 17.98025 77.76881
2025-06-21T00:00:00 16.87025 82.36385
2025-06-21T01:00:00 15.95025 85.38075
2025-06-21T02:00:00 15.11025 87.79446
2025-06-21T03:00:00 14.45025 90.13613
2025-06-21T04:00:00 14.26025 89.94373
2025-06-21T05:00:00 16.81025 82.57163
2025-06-21T06:00:00 19.38025 70.7087
2025-06-21T07:00:00 22.20025 58.08617
2025-06-21T08:00:00 23.86025 50.15247
2025-06-21T09:00:00 25.54025 47.00472
2025-06-21T10:00:00 27.49025 45.84163
2025-06-21T11:00:00 28.36025 42.88927
2025-06-21T12:00:00 29.44025 39.21674
2025-06-21T13:00:00 30.24025 36.95944
2025-06-21T14:00:00 30.79025 35.36711
2025-06-21T15:00:00 30.74025 34.6211
2025-06-21T16:00:00 30.64025 33.27831
2025-06-21T17:00:00 29.28025 37.76546
2025-06-21T18:00:00 27.53025 42.74388
2025-06-21T19:00:00 25.48025 47.70097
2025-06-21T20:00:00 23.67025 53.8136
2025-06-21T21:00:00 21.09025 63.00489
2025-06-21T22:00:00 19.89025 66.68392
2025-06-21T23:00:00 18.77025 73.32049
2025-06-22T00:00:00 17.51024 77.95142
2025-06-22T01:00:00 16.92025 80.35039
2025-06-22T02:00:00 16.96025 82.1069
2025-06-22T03:00:00 16.19025 84.85008
2025-06-22T04:00:00 16.12025 84.45473
2025-06-22T05:00:00 17.58025 82.02512
2025-06-22T06:00:00 20.75025 68.48778
2025-06-22T07:00:00 23.63025 59.53592
2025-06-22T08:00:00 26.28025 54.54322
2025-06-22T09:00:00 28.47025 48.71627
2025-06-22T10:00:00 30.77025 42.88622
2025-06-22T11:00:00 31.63025 41.03463
2025-06-22T12:00:00 32.61025 37.39902
2025-06-22T13:00:00 33.74025 33.76336
2025-06-22T14:00:00 33.74025 30.90066
2025-06-22T15:00:00 33.82025 30.20646
2025-06-22T16:00:00 33.65025 29.59419
2025-06-22T17:00:00 32.85025 30.69781
2025-06-22T18:00:00 30.83025 39.70371
2025-06-22T19:00:00 27.55025 45.76894
2025-06-22T20:00:00 25.30025 54.15778
2025-06-22T21:00:00 22.70025 65.14101
2025-06-22T22:00:00 22.85025 66.94987
2025-06-22T23:00:00 22.92025 68.60777
2025-06-23T00:00:00 22.23025 73.16998
2025-06-23T01:00:00 22.45025 75.65775
2025-06-23T02:00:00 21.93024 80.40319
2025-06-23T03:00:00 21.20025 84.89208
2025-06-23T04:00:00 20.79025 87.89364
2025-06-23T05:00:00 22.24025 83.05599
2025-06-23T06:00:00 23.79025 73.80546
2025-06-23T07:00:00 25.23025 65.29949
2025-06-23T08:00:00 26.22025 59.94741
2025-06-23T09:00:00 27.03025 56.99598
2025-06-23T10:00:00 27.39025 57.37074
2025-06-23T11:00:00 28.43024 50.92498
2025-06-23T12:00:00 29.09025 44.61341
2025-06-23T13:00:00 29.07025 41.0169
2025-06-23T14:00:00 29.36025 38.08545
2025-06-23T15:00:00 29.33025 35.84676
2025-06-23T16:00:00 28.90025 33.63387
2025-06-23T17:00:00 28.10025 33.14135
2025-06-23T18:00:00 27.00025 34.72083
2025-06-23T19:00:00 25.25025 39.46832
2025-06-23T20:00:00 22.77025 47.97446
2025-06-23T21:00:00 20.25025 59.46955
2025-06-23T22:00:00 19.08025 61.02896
2025-06-23T23:00:00 18.35025 67.33118
2025-06-24T00:00:00 17.36025 71.96744
2025-06-24T01:00:00 16.46025 76.1144
2025-06-24T02:00:00 15.80025 79.98283
2025-06-24T03:00:00 15.14025 84.73348
2025-06-24T04:00:00 14.79025 87.53433
2025-06-24T05:00:00 17.07025 79.37853
2025-06-24T06:00:00 20.27025 67.5953
2025-06-24T07:00:00 22.22025 61.2795
2025-06-24T08:00:00 23.72025 55.89785
2025-06-24T09:00:00 25.07025 50.96842
2025-06-24T10:00:00 26.84025 44.34465
2025-06-24T11:00:00 27.47025 41.40603
2025-06-24T12:00:00 28.91025 39.0436
2025-06-24T13:00:00 28.94025 36.95934
2025-06-24T14:00:00 29.41025 36.43961
2025-06-24T15:00:00 29.67025 36.29748
2025-06-24T16:00:00 29.99025 36.67349
2025-06-24T17:00:00 29.15025 37.70441
2025-06-24T18:00:00 27.70025 39.4259
2025-06-24T19:00:00 24.72025 52.66216
2025-06-24T20:00:00 21.64025 65.29367
2025-06-24T21:00:00 19.63025 72.66637
2025-06-24T22:00:00 18.51024 77.19498
2025-06-24T23:00:00 17.74025 81.83272
2025-06-25T00:00:00 16.61025 85.78499
2025-06-25T01:00:00 15.64025 89.87273
2025-06-25T02:00:00 15.41025 91.45199
2025-06-25T03:00:00 15.02025 93.17429
2025-06-25T04:00:00 15.10025 92.57291
2025-06-25T05:00:00 17.44025 82.86422
2025-06-25T06:00:00 20.90025 70.26605
2025-06-25T07:00:00 24.22025 59.40672
2025-06-25T08:00:00 26.74025 51.6017
2025-06-25T09:00:00 28.82025 45.64108
2025-06-25T10:00:00 30.43024 38.73269
2025-06-25T11:00:00 31.59025 32.27054
2025-06-25T12:00:00 33.04025 28.75826
2025-06-25T13:00:00 34.06025 27.55017
2025-06-25T14:00:00 34.61025 26.3656
2025-06-25T15:00:00 34.85025 26.15233
2025-06-25T16:00:00 34.70025 26.82707
2025-06-25T17:00:00 33.48025 29.58676
2025-06-25T18:00:00 31.76024 31.39697
2025-06-25T19:00:00 28.42025 42.40759
2025-06-25T20:00:00 24.85025 53.86947
2025-06-25T21:00:00 23.78025 56.90049
2025-06-25T22:00:00 22.66025 62.17972
2025-06-25T23:00:00 22.00025 63.578
2025-06-26T00:00:00 21.21025 74.12265
2025-06-26T01:00:00 21.85025 69.5038
2025-06-26T02:00:00 22.78025 62.64996
2025-06-26T03:00:00 21.42025 76.99718
2025-06-26T04:00:00 20.34025 84.42816
2025-06-26T05:00:00 21.08025 82.03787
2025-06-26T06:00:00 22.57025 76.15562
2025-06-26T07:00:00 23.16025 71.49931
2025-06-26T08:00:00 24.35025 65.57137
2025-06-26T09:00:00 25.22025 59.79262
2025-06-26T10:00:00 26.36025 52.91209
2025-06-26T11:00:00 26.39025 50.23296
2025-06-26T12:00:00 27.32025 46.06339
2025-06-26T13:00:00 27.69025 44.72249
2025-06-26T14:00:00 27.94025 45.05224
2025-06-26T15:00:00 26.88025 47.3975
2025-06-26T16:00:00 26.43024 51.55476
2025-06-26T17:00:00 26.15025 53.33587
2025-06-26T18:00:00 25.63025 54.20604
2025-06-26T19:00:00 24.43024 57.05933
2025-06-26T20:00:00 22.26024 65.84816
2025-06-26T21:00:00 20.67025 72.94502
2025-06-26T22:00:00 19.45025 78.59469
2025-06-26T23:00:00 18.59025 83.53748
2025-06-27T00:00:00 17.98025 86.20095
2025-06-27T01:00:00 17.45025 86.76276
2025-06-27T02:00:00 17.19025 89.46796
2025-06-27T03:00:00 16.78025 90.54083
2025-06-27T04:00:00 17.05025 90.38469
2025-06-27T05:00:00 18.83025 84.04878
2025-06-27T06:00:00 21.41025 75.78112
2025-06-27T07:00:00 23.21025 68.88291
2025-06-27T08:00:00 24.42025 62.01729
2025-06-27T09:00:00 25.19025 57.50095
2025-06-27T10:00:00 25.80025 56.66297
2025-06-27T11:00:00 26.66025 54.42925
2025-06-27T12:00:00 27.49025 51.03966
2025-06-27T13:00:00 28.07025 48.89156
2025-06-27T14:00:00 28.35025 47.85144
2025-06-27T15:00:00 28.35025 47.09111
2025-06-27T16:00:00 28.31025 47.4137
2025-06-27T17:00:00 28.12025 46.63823
2025-06-27T18:00:00 27.41025 48.15629
2025-06-27T19:00:00 25.08025 61.26285
2025-06-27T20:00:00 23.62025 62.63591
2025-06-27T21:00:00 22.25025 68.69592
2025-06-27T22:00:00 20.58025 75.50318
2025-06-27T23:00:00 18.65025 83.38351
2025-06-28T00:00:00 19.28025 81.92107
2025-06-28T01:00:00 19.00025 82.04405
2025-06-28T02:00:00 18.47025 83.84666
2025-06-28T03:00:00 17.96025 86.30998
2025-06-28T04:00:00 17.51024 89.31995
2025-06-28T05:00:00 19.11025 85.32497
2025-06-28T06:00:00 22.05025 72.12131
2025-06-28T07:00:00 24.48025 63.1068
2025-06-28T08:00:00 26.28025 57.72529
2025-06-28T09:00:00 27.80025 51.15228
2025-06-28T10:00:00 29.47025 47.57014
2025-06-28T11:00:00 29.83025 44.72777
2025-06-28T12:00:00 31.31025 42.46221
2025-06-28T13:00:00 31.60025 39.50883
2025-06-28T14:00:00 32.21025 37.81902
2025-06-28T15:00:00 33.19025 35.8004
2025-06-28T16:00:00 32.90025 36.11268
2025-06-28T17:00:00 31.94025 37.47874
2025-06-28T18:00:00 30.71025 39.67062
2025-06-28T19:00:00 27.05025 50.66509
2025-06-28T20:00:00 25.41025 55.91911
2025-06-28T21:00:00 23.78025 63.60027
2025-06-28T22:00:00 21.86025 73.24593
2025-06-28T23:00:00 20.69025 77.92363
2025-06-29T00:00:00 20.10025 81.60553
2025-06-29T01:00:00 19.77025 85.01319
2025-06-29T02:00:00 19.16025 87.7562
2025-06-29T03:00:00 18.91025 86.78861
2025-06-29T04:00:00 19.26024 85.66743
2025-06-29T05:00:00 20.59025 82.44747
2025-06-29T06:00:00 23.46025 70.03178
2025-06-29T07:00:00 25.85025 60.66394
2025-06-29T08:00:00 27.79025 55.54494
2025-06-29T09:00:00 29.44025 50.95862
2025-06-29T10:00:00 30.96025 45.003
2025-06-29T11:00:00 32.01025 41.29534
2025-06-29T12:00:00 32.71025 38.4684
2025-06-29T13:00:00 33.52025 35.86806
2025-06-29T14:00:00 34.01025 33.6856
2025-06-29T15:00:00 34.09025 33.25588
2025-06-29T16:00:00 33.64025 33.19685
2025-06-29T17:00:00 32.86025 33.15434
2025-06-29T18:00:00 31.28025 33.78618
2025-06-29T19:00:00 28.92025 40.02676
2025-06-29T20:00:00 26.50025 49.42536
2025-06-29T21:00:00 24.45025 55.60978
2025-06-29T22:00:00 23.55025 61.74221
2025-06-29T23:00:00 22.42025 66.77629
2025-06-30T00:00:00 21.78025 71.38538
2025-06-30T01:00:00 20.52025 75.20349
2025-06-30T02:00:00 20.31025 77.32112
2025-06-30T03:00:00 19.60025 78.5659
2025-06-30T04:00:00 19.44025 81.3658
2025-06-30T05:00:00 21.07025 75.48563
2025-06-30T06:00:00 24.10025 64.15852
2025-06-30T07:00:00 26.49025 55.26119
2025-06-30T08:00:00 28.70025 48.62164
2025-06-30T09:00:00 30.39025 44.96427
2025-06-30T10:00:00 31.75025 42.50064
2025-06-30T11:00:00 32.93025 40.32984
2025-06-30T12:00:00 34.10025 37.83091
2025-06-30T13:00:00 34.78025 35.73393
2025-06-30T14:00:00 35.29025 35.17644
2025-06-30T15:00:00 35.57025 35.05264
2025-06-30T16:00:00 34.77025 32.93184
2025-06-30T17:00:00 33.35025 35.98225
2025-06-30T18:00:00 31.23025 41.21395
2025-06-30T19:00:00 28.91025 46.93965
2025-06-30T20:00:00 27.26024 52.36696
2025-06-30T21:00:00 26.05025 57.78056
2025-06-30T22:00:00 24.55025 67.59035
2025-06-30T23:00:00 23.72025 72.50691
2025-07-01T00:00:00 23.22025 74.97356
2025-07-01T01:00:00 21.64025 81.74448
2025-07-01T02:00:00 21.22025 83.67445
2025-07-01T03:00:00 20.93024 84.33112
2025-07-01T04:00:00 20.72025 84.41525
2025-07-01T05:00:00 22.17025 78.2869
2025-07-01T06:00:00 24.42025 67.09686
2025-07-01T07:00:00 26.66025 59.67098
2025-07-01T08:00:00 28.64025 54.3007
2025-07-01T09:00:00 30.55025 49.75602
2025-07-01T10:00:00 31.94025 45.06581
2025-07-01T11:00:00 32.38025 41.87009
2025-07-01T12:00:00 31.97025 41.62661
2025-07-01T13:00:00 32.31025 40.72612
2025-07-01T14:00:00 32.28025 40.25493
2025-07-01T15:00:00 33.46025 39.8154
2025-07-01T16:00:00 33.25025 38.20144
2025-07-01T17:00:00 33.00025 37.578
2025-07-01T18:00:00 31.81025 41.00541
2025-07-01T19:00:00 29.11025 49.69705
2025-07-01T20:00:00 26.60025 56.89262
2025-07-01T21:00:00 25.64025 59.43496
2025-07-01T22:00:00 24.30025 69.44145
2025-07-01T23:00:00 23.24025 72.42321
2025-07-02T00:00:00 22.27025 76.88224
2025-07-02T01:00:00 20.72025 83.14434
2025-07-02T02:00:00 20.05025 87.11329
2025-07-02T03:00:00 19.50025 88.17588
2025-07-02T04:00:00 19.52025 88.06581
2025-07-02T05:00:00 21.27025 83.04994
2025-07-02T06:00:00 24.53025 65.77509
2025-07-02T07:00:00 27.36025 54.81132
2025-07-02T08:00:00 29.71025 48.3022
2025-07-02T09:00:00 31.74025 43.23084
2025-07-02T10:00:00 33.27025 39.41303
2025-07-02T11:00:00 34.50025 34.96108
2025-07-02T12:00:00 35.09025 31.42898
2025-07-02T13:00:00 35.25025 28.80839
2025-07-02T14:00:00 35.52025 27.36433
2025-07-02T15:00:00 35.60025 26.43676
2025-07-02T16:00:00 35.50025 24.66439
2025-07-02T17:00:00 33.78025 24.11912
2025-07-02T18:00:00 32.03025 26.89655
2025-07-02T19:00:00 29.13025 33.40841
2025-07-02T20:00:00 28.05025 37.174
2025-07-02T21:00:00 25.61025 48.67943
2025-07-02T22:00:00 25.52025 58.13419
2025-07-02T23:00:00 23.80025 63.52338
2025-07-03T00:00:00 22.71025 68.69809
2025-07-03T01:00:00 21.75025 73.88324
2025-07-03T02:00:00 21.18024 77.10779
2025-07-03T03:00:00 20.21025 83.08562
2025-07-03T04:00:00 20.44025 81.18224
2025-07-03T05:00:00 22.22025 77.80204
2025-07-03T06:00:00 23.49025 73.24681
2025-07-03T07:00:00 24.48025 67.23614
2025-07-03T08:00:00 25.42025 62.83332
2025-07-03T09:00:00 25.76024 61.49372
2025-07-03T10:00:00 26.15025 58.17267
2025-07-03T11:00:00 27.36025 55.89777
2025-07-03T12:00:00 26.84025 53.92151
2025-07-03T13:00:00 27.27025 52.77176
2025-07-03T14:00:00 26.97025 51.85982
2025-07-03T15:00:00 27.35025 51.72562
2025-07-03T16:00:00 26.95025 50.57407
2025-07-03T17:00:00 26.52025 50.46181
2025-07-03T18:00:00 25.75025 51.08017
2025-07-03T19:00:00 24.65025 53.05604
2025-07-03T20:00:00 23.60025 55.10971
2025-07-03T21:00:00 22.54025 58.05503
2025-07-03T22:00:00 21.05025 77.77826
2025-07-03T23:00:00 20.51024 84.07313
2025-07-04T00:00:00 20.32025 86.80793
2025-07-04T01:00:00 19.97025 87.76967
2025-07-04T02:00:00 19.60025 88.57595
2025-07-04T03:00:00 19.10025 88.31104
2025-07-04T04:00:00 18.66025 83.81428
2025-07-04T05:00:00 18.52025 75.80399
2025-07-04T06:00:00 19.54025 63.40273
2025-07-04T07:00:00 20.94025 53.24786
2025-07-04T08:00:00 22.68024 47.91785
2025-07-04T09:00:00 24.29025 43.43372
2025-07-04T10:00:00 26.55025 41.20337
2025-07-04T11:00:00 27.15025 35.6362
2025-07-04T12:00:00 28.01024 32.06427
2025-07-04T13:00:00 29.32025 29.84613
2025-07-04T14:00:00 29.00025 28.28388
2025-07-04T15:00:00 29.20025 27.31786
2025-07-04T16:00:00 29.33025 26.81839
2025-07-04T17:00:00 28.31025 26.43081
2025-07-04T18:00:00 26.85025 25.99534
2025-07-04T19:00:00 24.46025 31.29689
2025-07-04T20:00:00 21.00025 43.8885
2025-07-04T21:00:00 18.89025 53.89678
2025-07-04T22:00:00 17.27025 55.17625
2025-07-04T23:00:00 16.84025 56.97878
2025-07-05T00:00:00 17.27025 55.36491
2025-07-05T01:00:00 16.59025 59.53512
2025-07-05T02:00:00 16.29025 60.35885
2025-07-05T03:00:00 15.46025 63.53397
2025-07-05T04:00:00 15.03025 68.08476
2025-07-05T05:00:00 16.06025 69.78246
2025-07-05T06:00:00 19.44025 55.32827
2025-07-05T07:00:00 22.79025 44.18636
2025-07-05T08:00:00 24.87025 37.04158
2025-07-05T09:00:00 27.37025 32.95774
2025-07-05T10:00:00 28.67025 29.22682
2025-07-05T11:00:00 28.73025 27.60086
2025-07-05T12:00:00 29.48025 26.3333
2025-07-05T13:00:00 29.92025 24.99555
2025-07-05T14:00:00 30.43024 23.74414
2025-07-05T15:00:00 31.30025 22.93129
2025-07-05T16:00:00 31.00025 21.18223
2025-07-05T17:00:00 30.03025 20.27176
2025-07-05T18:00:00 28.02025 19.2773
2025-07-05T19:00:00 24.79025 27.15477
2025-07-05T20:00:00 22.15025 33.40002
2025-07-05T21:00:00 20.21025 42.80072
2025-07-05T22:00:00 19.30025 47.04347
2025-07-05T23:00:00 18.55025 50.92128
2025-07-06T00:00:00 18.22025 52.95731
2025-07-06T01:00:00 17.85025 56.92693
2025-07-06T02:00:00 17.64025 59.11066
2025-07-06T03:00:00 17.32025 61.72206
2025-07-06T04:00:00 16.34025 65.79012
2025-07-06T05:00:00 17.16025 67.7102
2025-07-06T06:00:00 19.09025 59.1093
2025-07-06T07:00:00 21.04025 53.52312
2025-07-06T08:00:00 22.56025 46.46521
2025-07-06T09:00:00 23.01024 43.36434
2025-07-06T10:00:00 23.51024 41.16972
2025-07-06T11:00:00 23.44025 40.87262
2025-07-06T12:00:00 24.87025 39.89257
2025-07-06T13:00:00 25.49025 37.21866
2025-07-06T14:00:00 25.86025 36.30854
2025-07-06T15:00:00 24.85025 39.77993
2025-07-06T16:00:00 22.04025 48.67822
2025-07-06T17:00:00 19.29025 58.76474
2025-07-06T18:00:00 18.20025 64.54392
2025-07-06T19:00:00 17.05025 72.19587
2025-07-06T20:00:00 16.50025 77.0311
2025-07-06T21:00:00 16.34025 77.77209
2025-07-06T22:00:00 16.42025 72.46303
2025-07-06T23:00:00 16.01025 76.9529
2025-07-07T00:00:00 15.68025 81.61928
2025-07-07T01:00:00 15.77025 83.97302
2025-07-07T02:00:00 15.80025 87.11408
2025-07-07T03:00:00 15.71025 90.64214
2025-07-07T04:00:00 15.85025 90.94706
2025-07-07T05:00:00 16.20025 91.26593
2025-07-07T06:00:00 16.60025 91.11512
2025-07-07T07:00:00 17.03025 90.20873
2025-07-07T08:00:00 17.76024 87.18414
2025-07-07T09:00:00 18.36025 82.6544
2025-07-07T10:00:00 17.74025 80.56738
2025-07-07T11:00:00 18.60025 68.72892
2025-07-07T12:00:00 18.88025 66.77837
2025-07-07T13:00:00 19.07025 67.43658
2025-07-07T14:00:00 18.59025 70.78962
2025-07-07T15:00:00 18.91025 70.52673
2025-07-07T16:00:00 18.76024 68.26543
2025-07-07T17:00:00 17.85025 69.35294
2025-07-07T18:00:00 17.41025 71.17239
2025-07-07T19:00:00 16.49025 75.76793
2025-07-07T20:00:00 15.82025 81.31562
2025-07-07T21:00:00 15.60025 82.63746
2025-07-07T22:00:00 15.30025 87.63925
2025-07-07T23:00:00 14.77025 92.6751
2025-07-08T00:00:00 14.73025 91.52731
2025-07-08T01:00:00 14.77025 89.6881
2025-07-08T02:00:00 14.29025 90.00533
2025-07-08T03:00:00 14.12025 88.28507
2025-07-08T04:00:00 14.16025 87.47495
2025-07-08T05:00:00 14.00025 84.82949
2025-07-08T06:00:00 13.77025 81.90962
2025-07-08T07:00:00 13.91025 76.04504
2025-07-08T08:00:00 14.71025 68.20224
2025-07-08T09:00:00 16.18025 60.37313
2025-07-08T10:00:00 16.25025 62.43459
2025-07-08T11:00:00 15.32025 61.07627
2025-07-08T12:00:00 16.16025 64.65025
2025-07-08T13:00:00 15.05025 67.85873
2025-07-08T14:00:00 15.39025 69.6008
2025-07-08T15:00:00 16.63025 65.45662
2025-07-08T16:00:00 17.03025 60.33413
2025-07-08T17:00:00 17.15025 64.30886
2025-07-08T18:00:00 16.44025 67.28766
2025-07-08T19:00:00 15.13025 74.38568
2025-07-08T20:00:00 14.05025 80.26623
2025-07-08T21:00:00 14.07025 81.67629
2025-07-08T22:00:00 12.89025 89.89573
2025-07-08T23:00:00 12.52025 90.52878
2025-07-09T00:00:00 11.76025 92.80611
2025-07-09T01:00:00 11.28025 94.03191
2025-07-09T02:00:00 10.90025 95.34966
2025-07-09T03:00:00 10.63025 94.76182
2025-07-09T04:00:00 10.26025 95.45126
2025-07-09T05:00:00 11.50025 90.45055
2025-07-09T06:00:00 13.69025 83.27992
2025-07-09T07:00:00 16.22025 73.88626
2025-07-09T08:00:00 17.71025 64.26264
2025-07-09T09:00:00 18.76024 57.46572
2025-07-09T10:00:00 19.21025 53.22086
2025-07-09T11:00:00 19.51024 49.5077
2025-07-09T12:00:00 20.31025 46.90992
2025-07-09T13:00:00 21.05025 44.71796
2025-07-09T14:00:00 21.62025 44.00486
2025-07-09T15:00:00 21.67025 44.31876
2025-07-09T16:00:00 21.79025 43.4886
2025-07-09T17:00:00 21.47025 44.74559
2025-07-09T18:00:00 20.39025 46.86852
2025-07-09T19:00:00 18.41025 53.84315
2025-07-09T20:00:00 14.88025 70.01621
2025-07-09T21:00:00 13.14025 81.6605
2025-07-09T22:00:00 13.48025 77.37151
2025-07-09T23:00:00 13.02025 80.33424
2025-07-10T00:00:00 12.34025 82.88598
2025-07-10T01:00:00 11.86025 84.81105
2025-07-10T02:00:00 11.41025 86.61739
2025-07-10T03:00:00 11.06025 87.28859
2025-07-10T04:00:00 10.76025 88.57237
2025-07-10T05:00:00 11.42025 91.23936
2025-07-10T06:00:00 14.22025 77.49042
2025-07-10T07:00:00 17.46025 64.85411
2025-07-10T08:00:00 19.75025 56.7963
2025-07-10T09:00:00 22.07025 50.17098
2025-07-10T10:00:00 22.96025 44.20446
2025-07-10T11:00:00 24.03025 40.19233
2025-07-10T12:00:00 25.49025 36.54705
2025-07-10T13:00:00 25.23025 35.6664
2025-07-10T14:00:00 26.47025 34.29142
2025-07-10T15:00:00 25.84025 34.41447
2025-07-10T16:00:00 25.53025 35.19941
2025-07-10T17:00:00 24.84025 36.04164
2025-07-10T18:00:00 23.63025 35.08621
2025-07-10T19:00:00 21.11025 44.06977
2025-07-10T20:00:00 17.39025 63.08106
2025-07-10T21:00:00 17.64025 59.07076
2025-07-10T22:00:00 16.38025 66.46626
2025-07-10T23:00:00 15.40025 68.76328
2025-07-11T00:00:00 15.07025 72.45369
2025-07-11T01:00:00 14.48025 75.37762
2025-07-11T02:00:00 13.75025 78.62291
2025-07-11T03:00:00 13.39025 80.92967
2025-07-11T04:00:00 13.32025 82.8442
2025-07-11T05:00:00 13.61025 87.07437
2025-07-11T06:00:00 16.74025 71.51795
2025-07-11T07:00:00 19.75025 60.02231
2025-07-11T08:00:00 22.42025 53.45655
2025-07-11T09:00:00 23.83025 47.59771
2025-07-11T10:00:00 25.61025 41.34962
2025-07-11T11:00:00 26.05025 37.75575
2025-07-11T12:00:00 27.15025 36.33376
2025-07-11T13:00:00 27.32025 36.38184
2025-07-11T14:00:00 26.93024 36.88244
2025-07-11T15:00:00 27.42025 36.75111
2025-07-11T16:00:00 26.70025 37.11378
2025-07-11T17:00:00 26.13025 38.95762
2025-07-11T18:00:00 25.03025 39.85778
2025-07-11T19:00:00 22.60025 46.44518
2025-07-11T20:00:00 19.75025 60.74279
2025-07-11T21:00:00 17.91025 70.79919
2025-07-11T22:00:00 16.71025 72.99928
2025-07-11T23:00:00 16.02025 76.09227
2025-07-12T00:00:00 15.36025 79.7085
2025-07-12T01:00:00 15.06025 80.78373
2025-07-12T02:00:00 15.20025 79.10539
2025-07-12T03:00:00 14.54025 81.19682
2025-07-12T04:00:00 14.01025 83.48621
2025-07-12T05:00:00 14.38025 85.43672
2025-07-12T06:00:00 17.06025 72.29338
2025-07-12T07:00:00 19.64025 62.22236
2025-07-12T08:00:00 22.18024 53.60636
2025-07-12T09:00:00 23.25025 47.53376
2025-07-12T10:00:00 25.22025 41.43259
2025-07-12T11:00:00 25.67025 37.9778
2025-07-12T12:00:00 27.23025 33.93196
2025-07-12T13:00:00 27.98025 30.45066
2025-07-12T14:00:00 28.39025 28.19251
2025-07-12T15:00:00 28.76024 26.73613
2025-07-12T16:00:00 28.50025 25.95968
2025-07-12T17:00:00 27.64025 26.61316
2025-07-12T18:00:00 25.97025 28.69249
2025-07-12T19:00:00 21.91025 41.95334
2025-07-12T20:00:00 18.17025 55.48597
2025-07-12T21:00:00 16.20025 64.87799
2025-07-12T22:00:00 14.95025 70.69536
2025-07-12T23:00:00 14.06025 75.15301
2025-07-13T00:00:00 13.70025 79.57232
2025-07-13T01:00:00 13.05025 84.83449
2025-07-13T02:00:00 12.29025 87.76389
2025-07-13T03:00:00 12.72025 86.52082
2025-07-13T04:00:00 12.63025 89.03836
2025-07-13T05:00:00 14.60025 79.17432
2025-07-13T06:00:00 18.22025 64.84958
2025-07-13T07:00:00 21.57025 53.05899
2025-07-13T08:00:00 24.57025 45.37048
2025-07-13T09:00:00 26.71025 41.54839
2025-07-13T10:00:00 28.74025 39.61295
2025-07-13T11:00:00 29.29025 38.86976
2025-07-13T12:00:00 29.77025 38.49934
2025-07-13T13:00:00 29.79025 37.78434
2025-07-13T14:00:00 30.46025 36.32783
2025-07-13T15:00:00 30.86025 32.77401
2025-07-13T16:00:00 30.03025 34.40057
2025-07-13T17:00:00 29.35025 37.36683
2025-07-13T18:00:00 27.66025 45.12194
2025-07-13T19:00:00 25.02025 58.76217
2025-07-13T20:00:00 22.81025 70.26613
2025-07-13T21:00:00 21.42025 75.87925
2025-07-13T22:00:00 21.03025 73.00822
2025-07-13T23:00:00 20.64025 74.45512
2025-07-14T00:00:00 20.10025 77.28926
2025-07-14T01:00:00 20.45025 75.72463
2025-07-14T02:00:00 20.20025 78.20085
2025-07-14T03:00:00 19.67025 81.39513
2025-07-14T04:00:00 19.61025 83.22796
2025-07-14T05:00:00 20.51024 80.88207
2025-07-14T06:00:00 20.66025 83.19008
2025-07-14T07:00:00 20.37025 84.75266
2025-07-14T08:00:00 19.92025 85.56998
2025-07-14T09:00:00 21.09025 83.71282
2025-07-14T10:00:00 23.21025 74.08088
2025-07-14T11:00:00 25.26024 63.96043
2025-07-14T12:00:00 26.45025 56.31694
2025-07-14T13:00:00 28.07025 49.96503
2025-07-14T14:00:00 29.08025 44.78288
2025-07-14T15:00:00 29.11025 42.65249
2025-07-14T16:00:00 28.35025 43.70004
2025-07-14T17:00:00 27.30025 47.97214
2025-07-14T18:00:00 26.32025 51.39378
2025-07-14T19:00:00 23.71025 63.05839
2025-07-14T20:00:00 21.74025 72.85246
2025-07-14T21:00:00 20.30025 78.46594
2025-07-14T22:00:00 19.27025 81.08349
2025-07-14T23:00:00 18.93024 84.00608
2025-07-15T00:00:00 18.68024 84.14
2025-07-15T01:00:00 18.97025 83.95676
2025-07-15T02:00:00 19.15025 82.85552
2025-07-15T03:00:00 18.92025 83.04102
2025-07-15T04:00:00 18.66025 84.78803
2025-07-15T05:00:00 19.08025 84.39989
2025-07-15T06:00:00 20.43024 80.97469
2025-07-15T07:00:00 22.05025 76.07475
2025-07-15T08:00:00 23.22025 71.2392
2025-07-15T09:00:00 23.86025 64.64052
2025-07-15T10:00:00 24.45025 54.54041
2025-07-15T11:00:00 25.45025 49.53214
2025-07-15T12:00:00 26.29025 45.04091
2025-07-15T13:00:00 26.74025 42.83305
2025-07-15T14:00:00 26.56025 40.45044
2025-07-15T15:00:00 26.87025 38.98524
2025-07-15T16:00:00 26.33025 39.77396
2025-07-15T17:00:00 25.53025 39.44212
2025-07-15T18:00:00 24.45025 38.66214
2025-07-15T19:00:00 23.22025 41.08706
2025-07-15T20:00:00 21.73025 45.18444
2025-07-15T21:00:00 20.47025 49.73719
2025-07-15T22:00:00 19.90025 53.29554
2025-07-15T23:00:00 18.82025 57.75156
2025-07-16T00:00:00 17.97025 61.95816
2025-07-16T01:00:00 17.10025 66.44344
2025-07-16T02:00:00 16.41025 69.24792
2025-07-16T03:00:00 16.40025 69.85037
2025-07-16T04:00:00 16.44025 71.27068
2025-07-16T05:00:00 17.60025 65.66952
2025-07-16T06:00:00 19.08025 58.90972
2025-07-16T07:00:00 20.50025 54.0281
2025-07-16T08:00:00 21.26024 52.38103
2025-07-16T09:00:00 22.43024 49.57077
2025-07-16T10:00:00 23.06025 47.48167
2025-07-16T11:00:00 23.51024 45.49939
2025-07-16T12:00:00 24.16025 43.8046
2025-07-16T13:00:00 23.63025 47.26015
2025-07-16T14:00:00 23.23025 49.5891
2025-07-16T15:00:00 23.10025 49.78428
2025-07-16T16:00:00 22.41025 52.64852
2025-07-16T17:00:00 21.97025 54.80449
2025-07-16T18:00:00 21.27025 59.67484
2025-07-16T19:00:00 20.61025 63.06177
2025-07-16T20:00:00 19.74025 68.37437
2025-07-16T21:00:00 19.14025 71.21896
2025-07-16T22:00:00 18.26024 78.11536
2025-07-16T23:00:00 17.19025 83.91771
2025-07-17T00:00:00 16.42025 87.96946
2025-07-17T01:00:00 15.75025 91.41452
2025-07-17T02:00:00 15.21025 94.40492
2025-07-17T03:00:00 14.85025 95.44059
2025-07-17T04:00:00 14.05025 96.92234
2025-07-17T05:00:00 14.95025 94.82494
2025-07-17T06:00:00 16.27025 89.8036
2025-07-17T07:00:00 17.98025 82.71511
2025-07-17T08:00:00 19.78025 73.30776
2025-07-17T09:00:00 21.05025 65.04022
2025-07-17T10:00:00 21.89025 54.74789
2025-07-17T11:00:00 22.69025 49.54215
2025-07-17T12:00:00 24.40025 45.02381
2025-07-17T13:00:00 24.76024 41.05478
2025-07-17T14:00:00 25.76024 39.71877
2025-07-17T15:00:00 26.32025 38.28993
2025-07-17T16:00:00 26.05025 36.90445
2025-07-17T17:00:00 25.71025 37.03136
2025-07-17T18:00:00 24.86025 37.41662
2025-07-17T19:00:00 21.27025 47.65772
2025-07-17T20:00:00 18.83025 61.95229
2025-07-17T21:00:00 17.10025 70.54923
2025-07-17T22:00:00 16.10025 80.34219
2025-07-17T23:00:00 16.42025 78.19576
2025-07-18T00:00:00 15.99025 79.32649
2025-07-18T01:00:00 14.76025 84.63469
2025-07-18T02:00:00 13.51025 90.18353
2025-07-18T03:00:00 12.54025 93.22379
2025-07-18T04:00:00 13.16025 90.75744
2025-07-18T05:00:00 14.44025 86.92539
2025-07-18T06:00:00 17.15025 77.13387
2025-07-18T07:00:00 20.27025 65.81137
2025-07-18T08:00:00 22.80025 56.73307
2025-07-18T09:00:00 24.24025 50.25357
2025-07-18T10:00:00 26.20025 44.28436
2025-07-18T11:00:00 27.44025 40.5902
2025-07-18T12:00:00 28.39025 37.41738
2025-07-18T13:00:00 28.40025 35.91755
2025-07-18T14:00:00 28.66025 34.9567
2025-07-18T15:00:00 29.57025 33.5983
2025-07-18T16:00:00 29.09025 33.15358
2025-07-18T17:00:00 28.57025 33.38483
2025-07-18T18:00:00 27.14025 33.29499
2025-07-18T19:00:00 23.87025 44.51885
2025-07-18T20:00:00 20.76024 56.07433
2025-07-18T21:00:00 18.87025 64.94971
2025-07-18T22:00:00 17.36025 73.40677
2025-07-18T23:00:00 17.13025 75.62471
2025-07-19T00:00:00 15.98025 81.17653
2025-07-19T01:00:00 15.43025 82.34402
2025-07-19T02:00:00 15.58025 84.39358
2025-07-19T03:00:00 15.38025 85.76933
2025-07-19T04:00:00 16.06025 84.7248
2025-07-19T05:00:00 17.34025 78.79701
2025-07-19T06:00:00 19.60025 70.4287
2025-07-19T07:00:00 22.93024 57.96074
2025-07-19T08:00:00 25.97025 50.0901
2025-07-19T09:00:00 28.37025 45.60758
2025-07-19T10:00:00 29.25025 43.97399
2025-07-19T11:00:00 29.61025 44.41184
2025-07-19T12:00:00 25.65025 55.47835
2025-07-19T13:00:00 23.44025 63.16061
2025-07-19T14:00:00 22.55025 66.76013
2025-07-19T15:00:00 23.20025 67.88057
2025-07-19T16:00:00 24.28025 65.39068
2025-07-19T17:00:00 24.35025 64.29383
2025-07-19T18:00:00 23.79025 65.32958
2025-07-19T19:00:00 22.28025 74.06642
2025-07-19T20:00:00 20.53025 83.06988
2025-07-19T21:00:00 19.42025 87.11207
2025-07-19T22:00:00 18.95025 89.82792
2025-07-19T23:00:00 18.56025 91.76394
2025-07-20T00:00:00 17.93024 93.6184
2025-07-20T01:00:00 17.31025 95.0375
2025-07-20T02:00:00 17.10025 96.0075
2025-07-20T03:00:00 16.77025 95.87492
2025-07-20T04:00:00 16.60025 95.99291
2025-07-20T05:00:00 17.49025 93.2994
2025-07-20T06:00:00 19.30025 88.21533
2025-07-20T07:00:00 21.53025 81.93724
2025-07-20T08:00:00 23.32025 75.13105
2025-07-20T09:00:00 25.71025 68.62779
2025-07-20T10:00:00 27.26024 61.82705
2025-07-20T11:00:00 28.29025 54.48825
2025-07-20T12:00:00 29.53025 49.99497
2025-07-20T13:00:00 29.63025 47.25106
2025-07-20T14:00:00 30.51024 43.95009
2025-07-20T15:00:00 29.72025 46.02927
2025-07-20T16:00:00 25.22025 66.2915
2025-07-20T17:00:00 20.74025 85.54318
2025-07-20T18:00:00 20.16025 86.68372
2025-07-20T19:00:00 19.65025 87.5203
2025-07-20T20:00:00 19.33025 90.02589
2025-07-20T21:00:00 18.82025 92.6558
2025-07-20T22:00:00 18.80025 92.5961
2025-07-20T23:00:00 18.40025 94.29543
2025-07-21T00:00:00 18.08025 95.85236
2025-07-21T01:00:00 17.80025 96.33292
2025-07-21T02:00:00 17.53025 96.20341
2025-07-21T03:00:00 17.51024 95.77469
2025-07-21T04:00:00 17.25025 96.99701
2025-07-21T05:00:00 17.43024 96.01691
2025-07-21T06:00:00 17.85025 95.11711
2025-07-21T07:00:00 18.16025 92.8576
2025-07-21T08:00:00 18.85025 84.97131
2025-07-21T09:00:00 20.17025 77.54803
2025-07-21T10:00:00 22.01024 71.93045
2025-07-21T11:00:00 22.70025 60.91478
2025-07-21T12:00:00 22.77025 55.47847
2025-07-21T13:00:00 21.86025 59.69799
2025-07-21T14:00:00 22.57025 59.59424
2025-07-21T15:00:00 24.20025 51.37418
2025-07-21T16:00:00 24.55025 49.22753
2025-07-21T17:00:00 22.90025 52.05142
2025-07-21T18:00:00 21.85025 56.31147
2025-07-21T19:00:00 20.67025 64.74651
2025-07-21T20:00:00 19.89025 66.77123
2025-07-21T21:00:00 19.20025 67.90785
2025-07-21T22:00:00 18.81025 72.42403
2025-07-21T23:00:00 18.76024 71.47418
2025-07-22T00:00:00 18.72025 71.32649
2025-07-22T01:00:00 18.44025 74.71181
2025-07-22T02:00:00 18.12025 78.29782
2025-07-22T03:00:00 17.86025 80.58361
2025-07-22T04:00:00 17.66025 81.76942
2025-07-22T05:00:00 17.94025 80.02097
2025-07-22T06:00:00 18.28025 77.41068
2025-07-22T07:00:00 18.57025 75.22228
2025-07-22T08:00:00 19.08025 71.53385
2025-07-22T09:00:00 19.66025 65.98331
2025-07-22T10:00:00 20.73025 61.21427
2025-07-22T11:00:00 21.61025 55.18473
2025-07-22T12:00:00 22.05025 53.96349
2025-07-22T13:00:00 22.59025 51.5933
2025-07-22T14:00:00 22.70025 50.44038
2025-07-22T15:00:00 23.14025 50.79206
2025-07-22T16:00:00 22.66025 51.78264
2025-07-22T17:00:00 22.23025 52.63621
2025-07-22T18:00:00 21.25025 53.82781
2025-07-22T19:00:00 19.68024 58.35307
2025-07-22T20:00:00 16.83025 71.29785
2025-07-22T21:00:00 15.83025 77.6414
2025-07-22T22:00:00 15.25025 84.69001
2025-07-22T23:00:00 14.41025 88.54417
2025-07-23T00:00:00 13.27025 93.57287
2025-07-23T01:00:00 12.31025 96.68269
2025-07-23T02:00:00 11.65025 98.41719
2025-07-23T03:00:00 11.74025 98.54971
2025-07-23T04:00:00 11.70025 97.50517
2025-07-23T05:00:00 13.39025 93.70278
2025-07-23T06:00:00 15.75025 81.84393
2025-07-23T07:00:00 18.79025 70.96702
2025-07-23T08:00:00 21.65025 59.60905
2025-07-23T09:00:00 22.80025 49.30927
2025-07-23T10:00:00 24.42025 43.32553
2025-07-23T11:00:00 24.92025 42.12763
2025-07-23T12:00:00 25.67025 40.44141
2025-07-23T13:00:00 26.30025 39.7655
2025-07-23T14:00:00 25.39025 41.64639
2025-07-23T15:00:00 25.11025 43.66299
2025-07-23T16:00:00 25.64025 43.72381
2025-07-23T17:00:00 24.23025 47.48683
2025-07-23T18:00:00 22.85025 52.72866
2025-07-23T19:00:00 20.85025 59.84959
2025-07-23T20:00:00 19.34025 67.44817
2025-07-23T21:00:00 19.90025 62.44673
2025-07-23T22:00:00 19.13025 66.17436
2025-07-23T23:00:00 17.77025 76.52754
2025-07-24T00:00:00 17.01024 84.17025
2025-07-24T01:00:00 16.69025 88.33605
2025-07-24T02:00:00 16.52025 91.2277
2025-07-24T03:00:00 16.51025 93.3111
2025-07-24T04:00:00 16.46025 94.64038
2025-07-24T05:00:00 16.26025 95.06021
2025-07-24T06:00:00 16.67025 95.31975
2025-07-24T07:00:00 17.54025 91.29303
2025-07-24T08:00:00 18.50025 85.37152
2025-07-24T09:00:00 19.33025 79.90257
2025-07-24T10:00:00 21.75025 64.51885
2025-07-24T11:00:00 22.05025 59.66517
2025-07-24T12:00:00 22.99025 55.78839
2025-07-24T13:00:00 22.88025 51.49964
2025-07-24T14:00:00 22.99025 50.68511
2025-07-24T15:00:00 23.04025 51.6099
2025-07-24T16:00:00 22.89025 53.26207
2025-07-24T17:00:00 22.10025 55.93123
2025-07-24T18:00:00 21.27025 61.25955
2025-07-24T19:00:00 19.56025 66.57092
2025-07-24T20:00:00 18.30025 71.85812
2025-07-24T21:00:00 17.46025 77.48624
2025-07-24T22:00:00 17.93024 76.70321
2025-07-24T23:00:00 17.54025 80.59271
2025-07-25T00:00:00 17.29025 81.29728
2025-07-25T01:00:00 16.89025 82.68933
2025-07-25T02:00:00 16.82025 82.62678
2025-07-25T03:00:00 16.32025 83.70758
2025-07-25T04:00:00 15.97025 86.16816
2025-07-25T05:00:00 15.40025 91.15376
2025-07-25T06:00:00 16.62025 85.28501
2025-07-25T07:00:00 17.69025 83.32507
2025-07-25T08:00:00 18.68024 80.95424
2025-07-25T09:00:00 20.34025 75.90157
2025-07-25T10:00:00 20.59025 75.74709
2025-07-25T11:00:00 21.68024 71.45849
2025-07-25T12:00:00 22.15025 66.7637
2025-07-25T13:00:00 22.29025 60.34717
2025-07-25T14:00:00 21.97025 58.98738
2025-07-25T15:00:00 21.88025 60.29028
2025-07-25T16:00:00 22.20025 63.53988
2025-07-25T17:00:00 21.44025 65.80292
2025-07-25T18:00:00 20.62025 69.53473
2025-07-25T19:00:00 19.72025 73.24978
2025-07-25T20:00:00 18.17025 82.25855
2025-07-25T21:00:00 17.13025 87.52113
2025-07-25T22:00:00 17.20025 84.46537
2025-07-25T23:00:00 16.74025 85.79837
2025-07-26T00:00:00 16.70025 86.57834
2025-07-26T01:00:00 16.74025 87.5425
2025-07-26T02:00:00 16.71025 88.33776
2025-07-26T03:00:00 16.66025 89.19582
2025-07-26T04:00:00 16.57025 89.53592
2025-07-26T05:00:00 16.32025 91.8661
2025-07-26T06:00:00 16.69025 91.71083
2025-07-26T07:00:00 17.24025 90.57262
2025-07-26T08:00:00 18.34025 86.01514
2025-07-26T09:00:00 19.68024 83.55505
2025-07-26T10:00:00 21.00025 79.26859
2025-07-26T11:00:00 22.65025 71.22591
2025-07-26T12:00:00 22.87025 63.68713
2025-07-26T13:00:00 23.63025 59.72819
2025-07-26T14:00:00 23.53025 58.40746
2025-07-26T15:00:00 23.64025 62.43991
2025-07-26T16:00:00 22.79025 67.32402
2025-07-26T17:00:00 20.70025 74.60858
2025-07-26T18:00:00 19.01024 87.01954
2025-07-26T19:00:00 18.44025 90.88506
2025-07-26T20:00:00 18.26024 94.52953
2025-07-26T21:00:00 17.80025 96.82375
2025-07-26T22:00:00 17.67025 97.12909
2025-07-26T23:00:00 17.46025 97.12497
2025-07-27T00:00:00 17.37025 97.37093
2025-07-27T01:00:00 17.03025 97.17838
2025-07-27T02:00:00 16.90025 96.4328
2025-07-27T03:00:00 17.05025 95.57712
2025-07-27T04:00:00 16.68024 96.11848
2025-07-27T05:00:00 17.02025 94.8446
2025-07-27T06:00:00 17.85025 93.37628
2025-07-27T07:00:00 19.22025 88.0967
2025-07-27T08:00:00 20.33025 81.37505
2025-07-27T09:00:00 21.48025 77.39835
2025-07-27T10:00:00 23.04025 72.93931
2025-07-27T11:00:00 23.66025 67.75638
2025-07-27T12:00:00 23.26024 66.81986
2025-07-27T13:00:00 22.31025 68.92784
2025-07-27T14:00:00 22.49025 68.83081
2025-07-27T15:00:00 20.70025 73.3736
2025-07-27T16:00:00 18.48025 88.03438
2025-07-27T17:00:00 18.75025 86.05553
2025-07-27T18:00:00 18.76024 86.94112
2025-07-27T19:00:00 17.44025 91.34529
2025-07-27T20:00:00 16.84025 94.41276
2025-07-27T21:00:00 16.62025 94.34299
2025-07-27T22:00:00 16.13025 92.63078
2025-07-27T23:00:00 15.52025 94.2347
2025-07-28T00:00:00 15.70025 93.69458
2025-07-28T01:00:00 15.32025 93.12942
2025-07-28T02:00:00 15.18025 92.45683
2025-07-28T03:00:00 15.37025 90.91426
2025-07-28T04:00:00 15.23025 92.15886
2025-07-28T05:00:00 15.17025 92.396
2025-07-28T06:00:00 15.30025 91.98305
2025-07-28T07:00:00 15.49025 90.62663
2025-07-28T08:00:00 15.50025 89.04433
2025-07-28T09:00:00 15.64025 85.9091
2025-07-28T10:00:00 15.95025 86.67435
2025-07-28T11:00:00 16.57025 87.13004
2025-07-28T12:00:00 17.27025 80.29369
2025-07-28T13:00:00 17.49025 75.78378
2025-07-28T14:00:00 17.88025 74.56763
2025-07-28T15:00:00 18.05025 75.33221
2025-07-28T16:00:00 18.16025 76.34046
2025-07-28T17:00:00 18.17025 75.74676
2025-07-28T18:00:00 17.82025 77.3396
2025-07-28T19:00:00 16.56025 83.84506
2025-07-28T20:00:00 15.85025 84.92381
2025-07-28T21:00:00 14.47025 91.4502
2025-07-28T22:00:00 13.84025 94.96591
2025-07-28T23:00:00 13.82025 93.84799
2025-07-29T00:00:00 12.96025 95.68537
2025-07-29T01:00:00 13.18025 95.18956
2025-07-29T02:00:00 12.96025 95.74861
2025-07-29T03:00:00 12.99025 95.87629
2025-07-29T04:00:00 13.13025 95.06191
2025-07-29T05:00:00 13.23025 96.58221
2025-07-29T06:00:00 14.37025 91.32347
2025-07-29T07:00:00 15.88025 84.87148
2025-07-29T08:00:00 17.74025 75.72563
2025-07-29T09:00:00 19.48025 70.91225
2025-07-29T10:00:00 20.24025 64.48354
2025-07-29T11:00:00 21.23025 59.78289
2025-07-29T12:00:00 22.00025 55.72244
2025-07-29T13:00:00 21.89025 52.93173
2025-07-29T14:00:00 22.41025 47.62038
2025-07-29T15:00:00 23.33025 46.18318
2025-07-29T16:00:00 22.56025 50.03621
2025-07-29T17:00:00 22.07025 52.66399
2025-07-29T18:00:00 20.43024 59.78869
2025-07-29T19:00:00 17.99025 75.66775
2025-07-29T20:00:00 16.96025 79.31075
2025-07-29T21:00:00 15.97025 82.35838
2025-07-29T22:00:00 15.02025 83.44282
2025-07-29T23:00:00 13.43025 90.83727
2025-07-30T00:00:00 13.05025 92.69754
2025-07-30T01:00:00 12.32025 94.96484
2025-07-30T02:00:00 11.91025 95.32771
2025-07-30T03:00:00 12.03025 94.5733
2025-07-30T04:00:00 12.08025 94.13533
2025-07-30T05:00:00 13.25025 90.28334
2025-07-30T06:00:00 14.73025 86.43926
2025-07-30T07:00:00 16.41025 81.71486
2025-07-30T08:00:00 18.20025 75.8506
2025-07-30T09:00:00 19.41025 71.13039
2025-07-30T10:00:00 20.02025 67.01696
2025-07-30T11:00:00 20.22025 64.81794
2025-07-30T12:00:00 20.70025 63.99633
2025-07-30T13:00:00 20.90025 63.3336
2025-07-30T14:00:00 20.48025 63.23944
2025-07-30T15:00:00 20.39025 65.32298
2025-07-30T16:00:00 19.63025 69.70395
2025-07-30T17:00:00 19.72025 71.32737
2025-07-30T18:00:00 18.94025 77.01167
2025-07-30T19:00:00 17.80025 84.42243
2025-07-30T20:00:00 16.86025 88.86633
2025-07-30T21:00:00 16.14025 91.49886
2025-07-30T22:00:00 15.90025 95.66264
2025-07-30T23:00:00 15.55025 95.83696
2025-07-31T00:00:00 15.58025 95.77591
2025-07-31T01:00:00 15.51025 95.46402
2025-07-31T02:00:00 15.21025 95.39149
2025-07-31T03:00:00 15.26025 95.14589
2025-07-31T04:00:00 15.01025 95.01269
2025-07-31T05:00:00 15.53025 93.26154
2025-07-31T06:00:00 16.75025 90.48029
2025-07-31T07:00:00 18.07025 86.04365
2025-07-31T08:00:00 19.30025 81.76621
2025-07-31T09:00:00 20.66025 76.29352
2025-07-31T10:00:00 21.44025 67.61435
2025-07-31T11:00:00 21.87025 65.00573
2025-07-31T12:00:00 21.89025 64.09124
2025-07-31T13:00:00 22.58025 62.32261
2025-07-31T14:00:00 23.78025 58.61854
2025-07-31T15:00:00 24.18024 55.72272
2025-07-31T16:00:00 23.62025 57.56583
2025-07-31T17:00:00 23.47025 58.54442
2025-07-31T18:00:00 22.03025 65.08202
2025-07-31T19:00:00 19.91025 74.95818
2025-07-31T20:00:00 17.49025 84.66171
2025-07-31T21:00:00 16.54025 88.15149
2025-07-31T22:00:00 16.12025 90.14278
2025-07-31T23:00:00 16.05025 90.48953
2025-08-01T00:00:00 16.37025 88.88389
2025-08-01T01:00:00 16.44025 89.75825
2025-08-01T02:00:00 16.52025 90.34716
2025-08-01T03:00:00 16.78025 89.95805
2025-08-01T04:00:00 16.55025 90.52477
2025-08-01T05:00:00 16.64025 90.3557
2025-08-01T06:00:00 18.19025 85.12019
2025-08-01T07:00:00 20.28025 75.98949
2025-08-01T08:00:00 21.50025 68.81358
2025-08-01T09:00:00 21.91025 63.47577
2025-08-01T10:00:00 22.35025 64.35739
2025-08-01T11:00:00 23.17025 60.98379
2025-08-01T12:00:00 23.82025 58.62808
2025-08-01T13:00:00 24.30025 58.10344
2025-08-01T14:00:00 23.30025 61.92421
2025-08-01T15:00:00 22.28025 58.9078
2025-08-01T16:00:00 20.68024 64.79096
2025-08-01T17:00:00 19.88025 69.79798
2025-08-01T18:00:00 19.44025 76.84078
2025-08-01T19:00:00 18.04025 83.68967
2025-08-01T20:00:00 17.23025 88.95363
2025-08-01T21:00:00 16.77025 90.30661
2025-08-01T22:00:00 16.35025 92.58308
2025-08-01T23:00:00 15.84025 94.86038
2025-08-02T00:00:00 15.97025 94.49843
2025-08-02T01:00:00 15.75025 95.10263
2025-08-02T02:00:00 15.42025 95.39899
2025-08-02T03:00:00 15.12025 94.77016
2025-08-02T04:00:00 14.71025 95.49777
2025-08-02T05:00:00 14.82025 94.01914
2025-08-02T06:00:00 15.30025 91.20654
2025-08-02T07:00:00 15.83025 89.30373
2025-08-02T08:00:00 15.96025 88.90804
2025-08-02T09:00:00 16.92025 87.27573
2025-08-02T10:00:00 17.01024 85.3817
2025-08-02T11:00:00 17.16025 83.31649
2025-08-02T12:00:00 17.16025 82.61488
2025-08-02T13:00:00 16.68024 83.80429
2025-08-02T14:00:00 17.21025 84.0836
2025-08-02T15:00:00 17.55025 81.17288
2025-08-02T16:00:00 18.08025 78.70021
2025-08-02T17:00:00 17.30025 80.71787
2025-08-02T18:00:00 16.82025 84.25834
2025-08-02T19:00:00 15.66025 90.52066
2025-08-02T20:00:00 15.10025 90.59888
2025-08-02T21:00:00 14.73025 91.16815
2025-08-02T22:00:00 14.55025 92.54123
2025-08-02T23:00:00 14.31025 93.62622
2025-08-03T00:00:00 14.01025 94.66183
2025-08-03T01:00:00 13.87025 95.78086
2025-08-03T02:00:00 14.09025 94.23159
2025-08-03T03:00:00 13.63025 96.27721
2025-08-03T04:00:00 13.76025 96.02885
2025-08-03T05:00:00 14.08025 95.10029
2025-08-03T06:00:00 15.24025 89.78347
2025-08-03T07:00:00 16.38025 84.76016
2025-08-03T08:00:00 17.76024 77.48196
2025-08-03T09:00:00 18.81025 70.2769
2025-08-03T10:00:00 19.59025 71.86156
2025-08-03T11:00:00 20.25025 64.86693
2025-08-03T12:00:00 20.27025 60.50506
2025-08-03T13:00:00 20.65025 59.09596
2025-08-03T14:00:00 21.46025 57.22346
2025-08-03T15:00:00 21.44025 55.5441
2025-08-03T16:00:00 21.54025 55.4594
2025-08-03T17:00:00 20.85025 55.61518
2025-08-03T18:00:00 19.70025 63.52247
2025-08-03T19:00:00 16.80025 75.07253
2025-08-03T20:00:00 15.73025 77.47144
2025-08-03T21:00:00 13.94025 87.28024
2025-08-03T22:00:00 13.44025 91.62327
2025-08-03T23:00:00 12.70025 93.91617
2025-08-04T00:00:00 12.44025 93.34238
2025-08-04T01:00:00 12.29025 93.83283
2025-08-04T02:00:00 12.19025 93.76514
2025-08-04T03:00:00 12.34025 93.33684
2025-08-04T04:00:00 12.74025 91.82039
2025-08-04T05:00:00 13.62025 89.71534
2025-08-04T06:00:00 14.58025 88.38414
2025-08-04T07:00:00 16.33025 82.4038
2025-08-04T08:00:00 17.78025 76.93036
2025-08-04T09:00:00 19.30025 70.97075
2025-08-04T10:00:00 21.10025 60.97986
2025-08-04T11:00:00 22.65025 56.47399
2025-08-04T12:00:00 23.69025 53.46845
2025-08-04T13:00:00 25.07025 51.4344
2025-08-04T14:00:00 25.40025 50.88951
2025-08-04T15:00:00 26.31025 49.66338
2025-08-04T16:00:00 25.97025 49.44507
2025-08-04T17:00:00 25.52025 50.78904
2025-08-04T18:00:00 23.71025 59.82399
2025-08-04T19:00:00 21.68024 66.23767
2025-08-04T20:00:00 20.19025 74.0448
2025-08-04T21:00:00 19.00025 80.94414
2025-08-04T22:00:00 16.97025 91.551
2025-08-04T23:00:00 16.27025 93.66121
2025-08-05T00:00:00 16.21025 95.05838
2025-08-05T01:00:00 15.76025 95.65801
2025-08-05T02:00:00 15.57025 95.4661
2025-08-05T03:00:00 14.95025 95.75513
2025-08-05T04:00:00 15.21025 95.88815
2025-08-05T05:00:00 16.04025 92.32638
2025-08-05T06:00:00 17.40025 87.60194
2025-08-05T07:00:00 19.29025 81.55553
2025-08-05T08:00:00 21.20025 73.78986
2025-08-05T09:00:00 23.50025 66.48664
2025-08-05T10:00:00 25.60025 60.2237
2025-08-05T11:00:00 26.46025 55.60699
2025-08-05T12:00:00 27.09025 53.36884
2025-08-05T13:00:00 26.62025 52.33738
2025-08-05T14:00:00 25.58025 57.00905
2025-08-05T15:00:00 24.80025 60.73306
2025-08-05T16:00:00 24.38025 59.21584
2025-08-05T17:00:00 23.87025 55.68163
2025-08-05T18:00:00 22.29025 57.24052
2025-08-05T19:00:00 19.68024 62.27272
2025-08-05T20:00:00 17.52025 67.69518
2025-08-05T21:00:00 16.31025 70.91373
2025-08-05T22:00:00 15.06025 74.22394
2025-08-05T23:00:00 15.44025 73.05924
2025-08-06T00:00:00 14.61025 76.36713
2025-08-06T01:00:00 12.34025 83.27885
2025-08-06T02:00:00 11.51025 86.33526
2025-08-06T03:00:00 11.10025 88.72368
2025-08-06T04:00:00 10.22025 91.77258
2025-08-06T05:00:00 11.00025 92.5102
2025-08-06T06:00:00 13.77025 83.67993
2025-08-06T07:00:00 15.65025 75.1253
2025-08-06T08:00:00 17.57025 69.25105
2025-08-06T09:00:00 19.85025 61.41296
2025-08-06T10:00:00 21.05025 58.14899
2025-08-06T11:00:00 22.58025 55.32162
2025-08-06T12:00:00 23.40025 52.80238
2025-08-06T13:00:00 24.18024 50.106
2025-08-06T14:00:00 24.37025 49.30861
2025-08-06T15:00:00 23.93024 49.35276
2025-08-06T16:00:00 23.46025 51.11196
2025-08-06T17:00:00 22.57025 54.0262
2025-08-06T18:00:00 20.94025 61.18286
2025-08-06T19:00:00 17.74025 74.15326
2025-08-06T20:00:00 15.57025 81.55093
2025-08-06T21:00:00 15.44025 83.65859
2025-08-06T22:00:00 14.19025 86.32705
2025-08-06T23:00:00 14.20025 85.87154
2025-08-07T00:00:00 13.19025 90.03914
2025-08-07T01:00:00 11.70025 95.00128
2025-08-07T02:00:00 11.49025 92.97682
2025-08-07T03:00:00 11.53025 91.80085
2025-08-07T04:00:00 11.47025 92.16762
2025-08-07T05:00:00 11.78025 94.43539
2025-08-07T06:00:00 14.44025 87.32828
2025-08-07T07:00:00 17.40025 76.46819
2025-08-07T08:00:00 20.04025 67.81307
2025-08-07T09:00:00 21.90025 61.56526
2025-08-07T10:00:00 24.54025 56.1373
2025-08-07T11:00:00 26.35025 47.16265
2025-08-07T12:00:00 27.37025 40.81141
2025-08-07T13:00:00 27.72025 36.5191
2025-08-07T14:00:00 28.82025 33.79093
2025-08-07T15:00:00 28.79025 32.63057
2025-08-07T16:00:00 28.70025 32.56173
2025-08-07T17:00:00 27.89025 34.27859
2025-08-07T18:00:00 25.28025 43.30706
2025-08-07T19:00:00 22.28025 51.92254
2025-08-07T20:00:00 18.56025 67.68694
2025-08-07T21:00:00 16.11025 80.50243
2025-08-07T22:00:00 15.17025 82.74729
2025-08-07T23:00:00 14.96025 86.46249
2025-08-08T00:00:00 14.68025 88.91789
2025-08-08T01:00:00 14.37025 90.78474
2025-08-08T02:00:00 14.17025 91.12983
2025-08-08T03:00:00 13.91025 91.65425
2025-08-08T04:00:00 13.29025 92.89583
2025-08-08T05:00:00 13.76025 91.40273
2025-08-08T06:00:00 17.10025 82.33894
2025-08-08T07:00:00 20.61025 71.90823
2025-08-08T08:00:00 24.00025 61.64614
2025-08-08T09:00:00 27.39025 48.36847
2025-08-08T10:00:00 28.64025 44.77872
2025-08-08T11:00:00 30.69025 37.64222
2025-08-08T12:00:00 31.09025 34.35735
2025-08-08T13:00:00 32.18024 31.84475
2025-08-08T14:00:00 32.59025 29.17094
2025-08-08T15:00:00 32.26025 29.29344
2025-08-08T16:00:00 31.93024 29.18402
2025-08-08T17:00:00 30.68024 28.91933
2025-08-08T18:00:00 27.64025 42.66282
2025-08-08T19:00:00 23.53025 51.40008
2025-08-08T20:00:00 20.62025 64.90491
2025-08-08T21:00:00 18.50025 74.43012
2025-08-08T22:00:00 17.05025 79.47965
2025-08-08T23:00:00 16.57025 82.38004

You might also like